<?xml version="1.0" encoding="UTF-8" standalone="no" ?>
<gpx xmlns="http://www.topografix.com/GPX/1/1" xmlns:xsi="http://www.w3.org/2001/XMLSchema-instance" xsi:schemaLocation="http://www.topografix.com/GPX/1/1 http://www.topografix.com/GPX/1/1/gpx.xsd" version="1.1" creator="VisuGPX - https://www.visugpx.com">
  <metadata>
    <name>La Pransière depuis les mines</name>
    <desc><![CDATA[Au niveau de La Pransiere, chemin défoncé par les engins forestiers. Décevant ]]></desc>
  </metadata>
  <trk>
    <name><![CDATA[Le Menil Randonnée]]></name>
    <extensions>
      <line xmlns="http://www.topografix.com/GPX/gpx_style/0/2">
        <color>0000FF</color>
        <width>4</width>
      </line>
    </extensions>
    <trkseg>
      <trkpt lat="47.86279" lon="6.76835">
        <ele>646.4</ele>
        <time>2022-08-17T06:29:27Z</time>
      </trkpt>
      <trkpt lat="47.86281" lon="6.76833">
        <ele>646.2</ele>
        <time>2022-08-17T06:29:28Z</time>
      </trkpt>
      <trkpt lat="47.86283" lon="6.76831">
        <ele>645.8</ele>
        <time>2022-08-17T06:29:29Z</time>
      </trkpt>
      <trkpt lat="47.86284" lon="6.7683">
        <ele>645.6</ele>
        <time>2022-08-17T06:29:30Z</time>
      </trkpt>
      <trkpt lat="47.86286" lon="6.76828">
        <ele>645.2</ele>
        <time>2022-08-17T06:29:31Z</time>
      </trkpt>
      <trkpt lat="47.86286" lon="6.76826">
        <ele>645.3</ele>
        <time>2022-08-17T06:29:32Z</time>
      </trkpt>
      <trkpt lat="47.86286" lon="6.76825">
        <ele>645.3</ele>
        <time>2022-08-17T06:29:33Z</time>
      </trkpt>
      <trkpt lat="47.86286" lon="6.76824">
        <ele>645.4</ele>
        <time>2022-08-17T06:29:34Z</time>
      </trkpt>
      <trkpt lat="47.86285" lon="6.76823">
        <ele>645.6</ele>
        <time>2022-08-17T06:29:35Z</time>
      </trkpt>
      <trkpt lat="47.86284" lon="6.76822">
        <ele>645.9</ele>
        <time>2022-08-17T06:29:37Z</time>
      </trkpt>
      <trkpt lat="47.86283" lon="6.76822">
        <ele>646.2</ele>
        <time>2022-08-17T06:29:38Z</time>
      </trkpt>
      <trkpt lat="47.86283" lon="6.76821">
        <ele>646.2</ele>
        <time>2022-08-17T06:29:40Z</time>
      </trkpt>
      <trkpt lat="47.86282" lon="6.76821">
        <ele>646.4</ele>
        <time>2022-08-17T06:29:41Z</time>
      </trkpt>
      <trkpt lat="47.86282" lon="6.7682">
        <ele>646.5</ele>
        <time>2022-08-17T06:29:43Z</time>
      </trkpt>
      <trkpt lat="47.86282" lon="6.76819">
        <ele>646.5</ele>
        <time>2022-08-17T06:29:44Z</time>
      </trkpt>
      <trkpt lat="47.86282" lon="6.76818">
        <ele>646.6</ele>
        <time>2022-08-17T06:29:45Z</time>
      </trkpt>
      <trkpt lat="47.86282" lon="6.76817">
        <ele>646.6</ele>
        <time>2022-08-17T06:29:46Z</time>
      </trkpt>
      <trkpt lat="47.86283" lon="6.76816">
        <ele>646.4</ele>
        <time>2022-08-17T06:29:48Z</time>
      </trkpt>
      <trkpt lat="47.86284" lon="6.76814">
        <ele>646.3</ele>
        <time>2022-08-17T06:30:00Z</time>
      </trkpt>
      <trkpt lat="47.86284" lon="6.76813">
        <ele>646.3</ele>
        <time>2022-08-17T06:30:01Z</time>
      </trkpt>
      <trkpt lat="47.86282" lon="6.76813">
        <ele>646.8</ele>
        <time>2022-08-17T06:30:37Z</time>
      </trkpt>
      <trkpt lat="47.86281" lon="6.76812">
        <ele>647</ele>
        <time>2022-08-17T06:30:39Z</time>
      </trkpt>
      <trkpt lat="47.8628" lon="6.76813">
        <ele>647.2</ele>
        <time>2022-08-17T06:30:40Z</time>
      </trkpt>
      <trkpt lat="47.8628" lon="6.76814">
        <ele>647.2</ele>
        <time>2022-08-17T06:30:42Z</time>
      </trkpt>
      <trkpt lat="47.8628" lon="6.76815">
        <ele>647.2</ele>
        <time>2022-08-17T06:30:43Z</time>
      </trkpt>
      <trkpt lat="47.8628" lon="6.76816">
        <ele>647.1</ele>
        <time>2022-08-17T06:30:44Z</time>
      </trkpt>
      <trkpt lat="47.86279" lon="6.76817">
        <ele>647.3</ele>
        <time>2022-08-17T06:30:45Z</time>
      </trkpt>
      <trkpt lat="47.86279" lon="6.76819">
        <ele>647.2</ele>
        <time>2022-08-17T06:30:46Z</time>
      </trkpt>
      <trkpt lat="47.86279" lon="6.7682">
        <ele>647.2</ele>
        <time>2022-08-17T06:30:47Z</time>
      </trkpt>
      <trkpt lat="47.86279" lon="6.76821">
        <ele>647.2</ele>
        <time>2022-08-17T06:30:48Z</time>
      </trkpt>
      <trkpt lat="47.86279" lon="6.76822">
        <ele>647.1</ele>
        <time>2022-08-17T06:30:49Z</time>
      </trkpt>
      <trkpt lat="47.86279" lon="6.76824">
        <ele>647</ele>
        <time>2022-08-17T06:30:50Z</time>
      </trkpt>
      <trkpt lat="47.86279" lon="6.76825">
        <ele>647</ele>
        <time>2022-08-17T06:30:51Z</time>
      </trkpt>
      <trkpt lat="47.86278" lon="6.76826">
        <ele>647.2</ele>
        <time>2022-08-17T06:30:52Z</time>
      </trkpt>
      <trkpt lat="47.86278" lon="6.76827">
        <ele>647.2</ele>
        <time>2022-08-17T06:30:53Z</time>
      </trkpt>
      <trkpt lat="47.86277" lon="6.76829">
        <ele>647.3</ele>
        <time>2022-08-17T06:30:54Z</time>
      </trkpt>
      <trkpt lat="47.86276" lon="6.7683">
        <ele>647.4</ele>
        <time>2022-08-17T06:30:55Z</time>
      </trkpt>
      <trkpt lat="47.86275" lon="6.76831">
        <ele>647.5</ele>
        <time>2022-08-17T06:30:56Z</time>
      </trkpt>
      <trkpt lat="47.86274" lon="6.76832">
        <ele>647.6</ele>
        <time>2022-08-17T06:30:57Z</time>
      </trkpt>
      <trkpt lat="47.86273" lon="6.76833">
        <ele>647.7</ele>
        <time>2022-08-17T06:30:58Z</time>
      </trkpt>
      <trkpt lat="47.86272" lon="6.76834">
        <ele>647.7</ele>
        <time>2022-08-17T06:30:59Z</time>
      </trkpt>
      <trkpt lat="47.86271" lon="6.76835">
        <ele>647.7</ele>
        <time>2022-08-17T06:31:00Z</time>
      </trkpt>
      <trkpt lat="47.8627" lon="6.76836">
        <ele>647.7</ele>
        <time>2022-08-17T06:31:01Z</time>
      </trkpt>
      <trkpt lat="47.86269" lon="6.76837">
        <ele>647.7</ele>
        <time>2022-08-17T06:31:02Z</time>
      </trkpt>
      <trkpt lat="47.86268" lon="6.76837">
        <ele>647.8</ele>
        <time>2022-08-17T06:31:03Z</time>
      </trkpt>
      <trkpt lat="47.86267" lon="6.76838">
        <ele>647.8</ele>
        <time>2022-08-17T06:31:04Z</time>
      </trkpt>
      <trkpt lat="47.86266" lon="6.76838">
        <ele>648</ele>
        <time>2022-08-17T06:31:05Z</time>
      </trkpt>
      <trkpt lat="47.86265" lon="6.76839">
        <ele>648</ele>
        <time>2022-08-17T06:31:06Z</time>
      </trkpt>
      <trkpt lat="47.86264" lon="6.76839">
        <ele>648.2</ele>
        <time>2022-08-17T06:31:07Z</time>
      </trkpt>
      <trkpt lat="47.86263" lon="6.76839">
        <ele>648.3</ele>
        <time>2022-08-17T06:31:08Z</time>
      </trkpt>
      <trkpt lat="47.86262" lon="6.7684">
        <ele>648.3</ele>
        <time>2022-08-17T06:31:30Z</time>
      </trkpt>
      <trkpt lat="47.86261" lon="6.76839">
        <ele>648.6</ele>
        <time>2022-08-17T06:31:33Z</time>
      </trkpt>
      <trkpt lat="47.8626" lon="6.76838">
        <ele>648.9</ele>
        <time>2022-08-17T06:31:35Z</time>
      </trkpt>
      <trkpt lat="47.86259" lon="6.76838">
        <ele>649.1</ele>
        <time>2022-08-17T06:31:36Z</time>
      </trkpt>
      <trkpt lat="47.86258" lon="6.76838">
        <ele>649.2</ele>
        <time>2022-08-17T06:31:37Z</time>
      </trkpt>
      <trkpt lat="47.86257" lon="6.76838">
        <ele>649.4</ele>
        <time>2022-08-17T06:31:38Z</time>
      </trkpt>
      <trkpt lat="47.86256" lon="6.76839">
        <ele>649.4</ele>
        <time>2022-08-17T06:31:39Z</time>
      </trkpt>
      <trkpt lat="47.86256" lon="6.7684">
        <ele>649.3</ele>
        <time>2022-08-17T06:31:40Z</time>
      </trkpt>
      <trkpt lat="47.86255" lon="6.76841">
        <ele>649.4</ele>
        <time>2022-08-17T06:31:41Z</time>
      </trkpt>
      <trkpt lat="47.86254" lon="6.76842">
        <ele>649.4</ele>
        <time>2022-08-17T06:31:42Z</time>
      </trkpt>
      <trkpt lat="47.86254" lon="6.76843">
        <ele>649.3</ele>
        <time>2022-08-17T06:31:43Z</time>
      </trkpt>
      <trkpt lat="47.86253" lon="6.76845">
        <ele>649.2</ele>
        <time>2022-08-17T06:31:44Z</time>
      </trkpt>
      <trkpt lat="47.86252" lon="6.76846">
        <ele>649.3</ele>
        <time>2022-08-17T06:31:45Z</time>
      </trkpt>
      <trkpt lat="47.86252" lon="6.76847">
        <ele>649.2</ele>
        <time>2022-08-17T06:31:46Z</time>
      </trkpt>
      <trkpt lat="47.86251" lon="6.76847">
        <ele>649.3</ele>
        <time>2022-08-17T06:31:47Z</time>
      </trkpt>
      <trkpt lat="47.8625" lon="6.76848">
        <ele>649.4</ele>
        <time>2022-08-17T06:31:48Z</time>
      </trkpt>
      <trkpt lat="47.8625" lon="6.76849">
        <ele>649.3</ele>
        <time>2022-08-17T06:31:49Z</time>
      </trkpt>
      <trkpt lat="47.86249" lon="6.7685">
        <ele>649.4</ele>
        <time>2022-08-17T06:31:50Z</time>
      </trkpt>
      <trkpt lat="47.86248" lon="6.76851">
        <ele>649.5</ele>
        <time>2022-08-17T06:31:51Z</time>
      </trkpt>
      <trkpt lat="47.86247" lon="6.76852">
        <ele>649.6</ele>
        <time>2022-08-17T06:31:52Z</time>
      </trkpt>
      <trkpt lat="47.86246" lon="6.76853">
        <ele>649.6</ele>
        <time>2022-08-17T06:31:53Z</time>
      </trkpt>
      <trkpt lat="47.86245" lon="6.76854">
        <ele>649.7</ele>
        <time>2022-08-17T06:31:54Z</time>
      </trkpt>
      <trkpt lat="47.86244" lon="6.76855">
        <ele>649.8</ele>
        <time>2022-08-17T06:31:55Z</time>
      </trkpt>
      <trkpt lat="47.86243" lon="6.76856">
        <ele>649.9</ele>
        <time>2022-08-17T06:31:56Z</time>
      </trkpt>
      <trkpt lat="47.86242" lon="6.76857">
        <ele>649.9</ele>
        <time>2022-08-17T06:31:57Z</time>
      </trkpt>
      <trkpt lat="47.86241" lon="6.76857">
        <ele>650.1</ele>
        <time>2022-08-17T06:31:58Z</time>
      </trkpt>
      <trkpt lat="47.8624" lon="6.76858">
        <ele>650.2</ele>
        <time>2022-08-17T06:31:59Z</time>
      </trkpt>
      <trkpt lat="47.86239" lon="6.76859">
        <ele>650.2</ele>
        <time>2022-08-17T06:32:00Z</time>
      </trkpt>
      <trkpt lat="47.86238" lon="6.7686">
        <ele>650.3</ele>
        <time>2022-08-17T06:32:01Z</time>
      </trkpt>
      <trkpt lat="47.86238" lon="6.76861">
        <ele>650.2</ele>
        <time>2022-08-17T06:32:02Z</time>
      </trkpt>
      <trkpt lat="47.86237" lon="6.76862">
        <ele>650.2</ele>
        <time>2022-08-17T06:32:03Z</time>
      </trkpt>
      <trkpt lat="47.86237" lon="6.76863">
        <ele>650</ele>
        <time>2022-08-17T06:32:04Z</time>
      </trkpt>
      <trkpt lat="47.86236" lon="6.76864">
        <ele>650.1</ele>
        <time>2022-08-17T06:32:05Z</time>
      </trkpt>
      <trkpt lat="47.86235" lon="6.76864">
        <ele>650.2</ele>
        <time>2022-08-17T06:32:06Z</time>
      </trkpt>
      <trkpt lat="47.86234" lon="6.76865">
        <ele>650.3</ele>
        <time>2022-08-17T06:32:07Z</time>
      </trkpt>
      <trkpt lat="47.86233" lon="6.76866">
        <ele>650.3</ele>
        <time>2022-08-17T06:32:08Z</time>
      </trkpt>
      <trkpt lat="47.86232" lon="6.76867">
        <ele>650.4</ele>
        <time>2022-08-17T06:32:09Z</time>
      </trkpt>
      <trkpt lat="47.86231" lon="6.76868">
        <ele>650.4</ele>
        <time>2022-08-17T06:32:10Z</time>
      </trkpt>
      <trkpt lat="47.8623" lon="6.76869">
        <ele>650.5</ele>
        <time>2022-08-17T06:32:11Z</time>
      </trkpt>
      <trkpt lat="47.86229" lon="6.7687">
        <ele>650.6</ele>
        <time>2022-08-17T06:32:12Z</time>
      </trkpt>
      <trkpt lat="47.86229" lon="6.76871">
        <ele>650.5</ele>
        <time>2022-08-17T06:32:14Z</time>
      </trkpt>
      <trkpt lat="47.8623" lon="6.76872">
        <ele>650.1</ele>
        <time>2022-08-17T06:32:16Z</time>
      </trkpt>
      <trkpt lat="47.86231" lon="6.76873">
        <ele>649.7</ele>
        <time>2022-08-17T06:32:24Z</time>
      </trkpt>
      <trkpt lat="47.86231" lon="6.76874">
        <ele>649.6</ele>
        <time>2022-08-17T06:32:26Z</time>
      </trkpt>
      <trkpt lat="47.8623" lon="6.76875">
        <ele>649.7</ele>
        <time>2022-08-17T06:32:27Z</time>
      </trkpt>
      <trkpt lat="47.86229" lon="6.76876">
        <ele>649.8</ele>
        <time>2022-08-17T06:32:29Z</time>
      </trkpt>
      <trkpt lat="47.86228" lon="6.76877">
        <ele>649.9</ele>
        <time>2022-08-17T06:32:30Z</time>
      </trkpt>
      <trkpt lat="47.86228" lon="6.76878">
        <ele>649.8</ele>
        <time>2022-08-17T06:32:31Z</time>
      </trkpt>
      <trkpt lat="47.86227" lon="6.76879">
        <ele>649.9</ele>
        <time>2022-08-17T06:32:32Z</time>
      </trkpt>
      <trkpt lat="47.86226" lon="6.7688">
        <ele>650</ele>
        <time>2022-08-17T06:32:33Z</time>
      </trkpt>
      <trkpt lat="47.86225" lon="6.76881">
        <ele>650.1</ele>
        <time>2022-08-17T06:32:34Z</time>
      </trkpt>
      <trkpt lat="47.86224" lon="6.76882">
        <ele>650.3</ele>
        <time>2022-08-17T06:32:35Z</time>
      </trkpt>
      <trkpt lat="47.86223" lon="6.76883">
        <ele>650.4</ele>
        <time>2022-08-17T06:32:36Z</time>
      </trkpt>
      <trkpt lat="47.86222" lon="6.76884">
        <ele>650.6</ele>
        <time>2022-08-17T06:32:37Z</time>
      </trkpt>
      <trkpt lat="47.86222" lon="6.76885">
        <ele>650.5</ele>
        <time>2022-08-17T06:32:38Z</time>
      </trkpt>
      <trkpt lat="47.86221" lon="6.76887">
        <ele>650.5</ele>
        <time>2022-08-17T06:32:39Z</time>
      </trkpt>
      <trkpt lat="47.8622" lon="6.76888">
        <ele>650.6</ele>
        <time>2022-08-17T06:32:40Z</time>
      </trkpt>
      <trkpt lat="47.8622" lon="6.76889">
        <ele>650.5</ele>
        <time>2022-08-17T06:32:41Z</time>
      </trkpt>
      <trkpt lat="47.86219" lon="6.7689">
        <ele>650.5</ele>
        <time>2022-08-17T06:32:42Z</time>
      </trkpt>
      <trkpt lat="47.86218" lon="6.76891">
        <ele>650.6</ele>
        <time>2022-08-17T06:32:43Z</time>
      </trkpt>
      <trkpt lat="47.86217" lon="6.76892">
        <ele>650.6</ele>
        <time>2022-08-17T06:32:44Z</time>
      </trkpt>
      <trkpt lat="47.86216" lon="6.76893">
        <ele>650.7</ele>
        <time>2022-08-17T06:32:45Z</time>
      </trkpt>
      <trkpt lat="47.86216" lon="6.76894">
        <ele>650.5</ele>
        <time>2022-08-17T06:32:46Z</time>
      </trkpt>
      <trkpt lat="47.86215" lon="6.76895">
        <ele>650.6</ele>
        <time>2022-08-17T06:32:47Z</time>
      </trkpt>
      <trkpt lat="47.86214" lon="6.76896">
        <ele>650.7</ele>
        <time>2022-08-17T06:32:48Z</time>
      </trkpt>
      <trkpt lat="47.86213" lon="6.76897">
        <ele>650.8</ele>
        <time>2022-08-17T06:32:49Z</time>
      </trkpt>
      <trkpt lat="47.86212" lon="6.76898">
        <ele>650.9</ele>
        <time>2022-08-17T06:32:50Z</time>
      </trkpt>
      <trkpt lat="47.86211" lon="6.76899">
        <ele>651</ele>
        <time>2022-08-17T06:32:51Z</time>
      </trkpt>
      <trkpt lat="47.8621" lon="6.769">
        <ele>651.2</ele>
        <time>2022-08-17T06:32:52Z</time>
      </trkpt>
      <trkpt lat="47.86209" lon="6.76901">
        <ele>651.3</ele>
        <time>2022-08-17T06:32:53Z</time>
      </trkpt>
      <trkpt lat="47.86208" lon="6.76902">
        <ele>651.4</ele>
        <time>2022-08-17T06:32:54Z</time>
      </trkpt>
      <trkpt lat="47.86207" lon="6.76903">
        <ele>651.6</ele>
        <time>2022-08-17T06:32:55Z</time>
      </trkpt>
      <trkpt lat="47.86207" lon="6.76905">
        <ele>651.3</ele>
        <time>2022-08-17T06:32:56Z</time>
      </trkpt>
      <trkpt lat="47.86206" lon="6.76906">
        <ele>651.5</ele>
        <time>2022-08-17T06:32:57Z</time>
      </trkpt>
      <trkpt lat="47.86205" lon="6.76907">
        <ele>651.7</ele>
        <time>2022-08-17T06:32:58Z</time>
      </trkpt>
      <trkpt lat="47.86204" lon="6.76908">
        <ele>651.8</ele>
        <time>2022-08-17T06:32:59Z</time>
      </trkpt>
      <trkpt lat="47.86203" lon="6.76909">
        <ele>652</ele>
        <time>2022-08-17T06:33:00Z</time>
      </trkpt>
      <trkpt lat="47.86202" lon="6.7691">
        <ele>652.2</ele>
        <time>2022-08-17T06:33:01Z</time>
      </trkpt>
      <trkpt lat="47.86201" lon="6.76911">
        <ele>652.4</ele>
        <time>2022-08-17T06:33:02Z</time>
      </trkpt>
      <trkpt lat="47.862" lon="6.76911">
        <ele>652.7</ele>
        <time>2022-08-17T06:33:03Z</time>
      </trkpt>
      <trkpt lat="47.86199" lon="6.76912">
        <ele>652.9</ele>
        <time>2022-08-17T06:33:04Z</time>
      </trkpt>
      <trkpt lat="47.86198" lon="6.76912">
        <ele>653.2</ele>
        <time>2022-08-17T06:33:05Z</time>
      </trkpt>
      <trkpt lat="47.86197" lon="6.76913">
        <ele>653.5</ele>
        <time>2022-08-17T06:33:06Z</time>
      </trkpt>
      <trkpt lat="47.86196" lon="6.76913">
        <ele>653.8</ele>
        <time>2022-08-17T06:33:07Z</time>
      </trkpt>
      <trkpt lat="47.86196" lon="6.76914">
        <ele>653.7</ele>
        <time>2022-08-17T06:33:08Z</time>
      </trkpt>
      <trkpt lat="47.86195" lon="6.76914">
        <ele>654</ele>
        <time>2022-08-17T06:33:09Z</time>
      </trkpt>
      <trkpt lat="47.86194" lon="6.76915">
        <ele>654.2</ele>
        <time>2022-08-17T06:33:10Z</time>
      </trkpt>
      <trkpt lat="47.86193" lon="6.76915">
        <ele>654.3</ele>
        <time>2022-08-17T06:33:11Z</time>
      </trkpt>
      <trkpt lat="47.86191" lon="6.76916">
        <ele>654.4</ele>
        <time>2022-08-17T06:33:12Z</time>
      </trkpt>
      <trkpt lat="47.8619" lon="6.76916">
        <ele>654.5</ele>
        <time>2022-08-17T06:33:13Z</time>
      </trkpt>
      <trkpt lat="47.86189" lon="6.76917">
        <ele>654.5</ele>
        <time>2022-08-17T06:33:14Z</time>
      </trkpt>
      <trkpt lat="47.86188" lon="6.76918">
        <ele>654.4</ele>
        <time>2022-08-17T06:33:15Z</time>
      </trkpt>
      <trkpt lat="47.86187" lon="6.76918">
        <ele>654.5</ele>
        <time>2022-08-17T06:33:16Z</time>
      </trkpt>
      <trkpt lat="47.86186" lon="6.76919">
        <ele>654.3</ele>
        <time>2022-08-17T06:33:17Z</time>
      </trkpt>
      <trkpt lat="47.86185" lon="6.76919">
        <ele>654.4</ele>
        <time>2022-08-17T06:33:18Z</time>
      </trkpt>
      <trkpt lat="47.86184" lon="6.7692">
        <ele>654.3</ele>
        <time>2022-08-17T06:33:19Z</time>
      </trkpt>
      <trkpt lat="47.86183" lon="6.76921">
        <ele>654.1</ele>
        <time>2022-08-17T06:33:20Z</time>
      </trkpt>
      <trkpt lat="47.86182" lon="6.76921">
        <ele>654.3</ele>
        <time>2022-08-17T06:33:21Z</time>
      </trkpt>
      <trkpt lat="47.86181" lon="6.76922">
        <ele>654.1</ele>
        <time>2022-08-17T06:33:22Z</time>
      </trkpt>
      <trkpt lat="47.8618" lon="6.76922">
        <ele>654.2</ele>
        <time>2022-08-17T06:33:23Z</time>
      </trkpt>
      <trkpt lat="47.86179" lon="6.76922">
        <ele>654.3</ele>
        <time>2022-08-17T06:33:24Z</time>
      </trkpt>
      <trkpt lat="47.86178" lon="6.76923">
        <ele>654.2</ele>
        <time>2022-08-17T06:33:25Z</time>
      </trkpt>
      <trkpt lat="47.86177" lon="6.76923">
        <ele>654.3</ele>
        <time>2022-08-17T06:33:26Z</time>
      </trkpt>
      <trkpt lat="47.86176" lon="6.76924">
        <ele>654.1</ele>
        <time>2022-08-17T06:33:27Z</time>
      </trkpt>
      <trkpt lat="47.86175" lon="6.76924">
        <ele>654.3</ele>
        <time>2022-08-17T06:33:28Z</time>
      </trkpt>
      <trkpt lat="47.86174" lon="6.76925">
        <ele>654.1</ele>
        <time>2022-08-17T06:33:29Z</time>
      </trkpt>
      <trkpt lat="47.86173" lon="6.76925">
        <ele>654.2</ele>
        <time>2022-08-17T06:33:30Z</time>
      </trkpt>
      <trkpt lat="47.86172" lon="6.76926">
        <ele>654.1</ele>
        <time>2022-08-17T06:33:31Z</time>
      </trkpt>
      <trkpt lat="47.86171" lon="6.76926">
        <ele>654.2</ele>
        <time>2022-08-17T06:33:32Z</time>
      </trkpt>
      <trkpt lat="47.8617" lon="6.76927">
        <ele>654</ele>
        <time>2022-08-17T06:33:33Z</time>
      </trkpt>
      <trkpt lat="47.86169" lon="6.76927">
        <ele>654.1</ele>
        <time>2022-08-17T06:33:34Z</time>
      </trkpt>
      <trkpt lat="47.86168" lon="6.76928">
        <ele>654</ele>
        <time>2022-08-17T06:33:35Z</time>
      </trkpt>
      <trkpt lat="47.86167" lon="6.76929">
        <ele>653.9</ele>
        <time>2022-08-17T06:33:36Z</time>
      </trkpt>
      <trkpt lat="47.86166" lon="6.7693">
        <ele>653.7</ele>
        <time>2022-08-17T06:33:37Z</time>
      </trkpt>
      <trkpt lat="47.86165" lon="6.7693">
        <ele>653.8</ele>
        <time>2022-08-17T06:33:38Z</time>
      </trkpt>
      <trkpt lat="47.86164" lon="6.76931">
        <ele>653.7</ele>
        <time>2022-08-17T06:33:39Z</time>
      </trkpt>
      <trkpt lat="47.86163" lon="6.76931">
        <ele>653.9</ele>
        <time>2022-08-17T06:33:40Z</time>
      </trkpt>
      <trkpt lat="47.86162" lon="6.76932">
        <ele>653.7</ele>
        <time>2022-08-17T06:33:41Z</time>
      </trkpt>
      <trkpt lat="47.86161" lon="6.76932">
        <ele>653.9</ele>
        <time>2022-08-17T06:33:42Z</time>
      </trkpt>
      <trkpt lat="47.8616" lon="6.76933">
        <ele>653.7</ele>
        <time>2022-08-17T06:33:43Z</time>
      </trkpt>
      <trkpt lat="47.86159" lon="6.76933">
        <ele>653.9</ele>
        <time>2022-08-17T06:33:44Z</time>
      </trkpt>
      <trkpt lat="47.86158" lon="6.76933">
        <ele>654</ele>
        <time>2022-08-17T06:33:45Z</time>
      </trkpt>
      <trkpt lat="47.86157" lon="6.76933">
        <ele>654.1</ele>
        <time>2022-08-17T06:33:46Z</time>
      </trkpt>
      <trkpt lat="47.86156" lon="6.76933">
        <ele>654.3</ele>
        <time>2022-08-17T06:33:47Z</time>
      </trkpt>
      <trkpt lat="47.86155" lon="6.76933">
        <ele>654.4</ele>
        <time>2022-08-17T06:33:48Z</time>
      </trkpt>
      <trkpt lat="47.86153" lon="6.76932">
        <ele>654.9</ele>
        <time>2022-08-17T06:33:49Z</time>
      </trkpt>
      <trkpt lat="47.86152" lon="6.76932">
        <ele>655</ele>
        <time>2022-08-17T06:33:50Z</time>
      </trkpt>
      <trkpt lat="47.86151" lon="6.76933">
        <ele>654.9</ele>
        <time>2022-08-17T06:33:51Z</time>
      </trkpt>
      <trkpt lat="47.8615" lon="6.76933">
        <ele>655</ele>
        <time>2022-08-17T06:33:52Z</time>
      </trkpt>
      <trkpt lat="47.86149" lon="6.76933">
        <ele>655.2</ele>
        <time>2022-08-17T06:33:53Z</time>
      </trkpt>
      <trkpt lat="47.86148" lon="6.76933">
        <ele>655.3</ele>
        <time>2022-08-17T06:33:54Z</time>
      </trkpt>
      <trkpt lat="47.86147" lon="6.76934">
        <ele>655.2</ele>
        <time>2022-08-17T06:33:55Z</time>
      </trkpt>
      <trkpt lat="47.86146" lon="6.76934">
        <ele>655.3</ele>
        <time>2022-08-17T06:33:57Z</time>
      </trkpt>
      <trkpt lat="47.86145" lon="6.76935">
        <ele>655.2</ele>
        <time>2022-08-17T06:33:58Z</time>
      </trkpt>
      <trkpt lat="47.86144" lon="6.76935">
        <ele>655.4</ele>
        <time>2022-08-17T06:33:59Z</time>
      </trkpt>
      <trkpt lat="47.86143" lon="6.76935">
        <ele>655.5</ele>
        <time>2022-08-17T06:34:00Z</time>
      </trkpt>
      <trkpt lat="47.86142" lon="6.76936">
        <ele>655.4</ele>
        <time>2022-08-17T06:34:01Z</time>
      </trkpt>
      <trkpt lat="47.8614" lon="6.76936">
        <ele>655.7</ele>
        <time>2022-08-17T06:34:02Z</time>
      </trkpt>
      <trkpt lat="47.86139" lon="6.76937">
        <ele>655.6</ele>
        <time>2022-08-17T06:34:03Z</time>
      </trkpt>
      <trkpt lat="47.86138" lon="6.76937">
        <ele>655.6</ele>
        <time>2022-08-17T06:34:04Z</time>
      </trkpt>
      <trkpt lat="47.86137" lon="6.76938">
        <ele>655.5</ele>
        <time>2022-08-17T06:34:05Z</time>
      </trkpt>
      <trkpt lat="47.86135" lon="6.76938">
        <ele>655.6</ele>
        <time>2022-08-17T06:34:06Z</time>
      </trkpt>
      <trkpt lat="47.86134" lon="6.76939">
        <ele>655.4</ele>
        <time>2022-08-17T06:34:07Z</time>
      </trkpt>
      <trkpt lat="47.86133" lon="6.7694">
        <ele>655.3</ele>
        <time>2022-08-17T06:34:08Z</time>
      </trkpt>
      <trkpt lat="47.86132" lon="6.7694">
        <ele>655.3</ele>
        <time>2022-08-17T06:34:09Z</time>
      </trkpt>
      <trkpt lat="47.86131" lon="6.76941">
        <ele>655.2</ele>
        <time>2022-08-17T06:34:10Z</time>
      </trkpt>
      <trkpt lat="47.8613" lon="6.76941">
        <ele>655.3</ele>
        <time>2022-08-17T06:34:11Z</time>
      </trkpt>
      <trkpt lat="47.86129" lon="6.76941">
        <ele>655.3</ele>
        <time>2022-08-17T06:34:12Z</time>
      </trkpt>
      <trkpt lat="47.86128" lon="6.76942">
        <ele>655.2</ele>
        <time>2022-08-17T06:34:13Z</time>
      </trkpt>
      <trkpt lat="47.86127" lon="6.76942">
        <ele>655.3</ele>
        <time>2022-08-17T06:34:16Z</time>
      </trkpt>
      <trkpt lat="47.86126" lon="6.76942">
        <ele>655.3</ele>
        <time>2022-08-17T06:34:17Z</time>
      </trkpt>
      <trkpt lat="47.86125" lon="6.76942">
        <ele>655.4</ele>
        <time>2022-08-17T06:34:18Z</time>
      </trkpt>
      <trkpt lat="47.86124" lon="6.76943">
        <ele>655.3</ele>
        <time>2022-08-17T06:34:20Z</time>
      </trkpt>
      <trkpt lat="47.86123" lon="6.76943">
        <ele>655.4</ele>
        <time>2022-08-17T06:34:21Z</time>
      </trkpt>
      <trkpt lat="47.86122" lon="6.76944">
        <ele>655.3</ele>
        <time>2022-08-17T06:34:22Z</time>
      </trkpt>
      <trkpt lat="47.86121" lon="6.76945">
        <ele>655.2</ele>
        <time>2022-08-17T06:34:23Z</time>
      </trkpt>
      <trkpt lat="47.8612" lon="6.76946">
        <ele>655.2</ele>
        <time>2022-08-17T06:34:24Z</time>
      </trkpt>
      <trkpt lat="47.86119" lon="6.76947">
        <ele>655.2</ele>
        <time>2022-08-17T06:34:25Z</time>
      </trkpt>
      <trkpt lat="47.86118" lon="6.76948">
        <ele>655.2</ele>
        <time>2022-08-17T06:34:26Z</time>
      </trkpt>
      <trkpt lat="47.86117" lon="6.76948">
        <ele>655.2</ele>
        <time>2022-08-17T06:34:27Z</time>
      </trkpt>
      <trkpt lat="47.86116" lon="6.76949">
        <ele>655.2</ele>
        <time>2022-08-17T06:34:28Z</time>
      </trkpt>
      <trkpt lat="47.86115" lon="6.7695">
        <ele>655.2</ele>
        <time>2022-08-17T06:34:29Z</time>
      </trkpt>
      <trkpt lat="47.86114" lon="6.76951">
        <ele>655.2</ele>
        <time>2022-08-17T06:34:30Z</time>
      </trkpt>
      <trkpt lat="47.86113" lon="6.76952">
        <ele>655.3</ele>
        <time>2022-08-17T06:34:31Z</time>
      </trkpt>
      <trkpt lat="47.86112" lon="6.76952">
        <ele>655.4</ele>
        <time>2022-08-17T06:34:32Z</time>
      </trkpt>
      <trkpt lat="47.86111" lon="6.76953">
        <ele>655.4</ele>
        <time>2022-08-17T06:34:33Z</time>
      </trkpt>
      <trkpt lat="47.8611" lon="6.76954">
        <ele>655.3</ele>
        <time>2022-08-17T06:34:34Z</time>
      </trkpt>
      <trkpt lat="47.86109" lon="6.76955">
        <ele>655.2</ele>
        <time>2022-08-17T06:34:35Z</time>
      </trkpt>
      <trkpt lat="47.86108" lon="6.76956">
        <ele>655.2</ele>
        <time>2022-08-17T06:34:36Z</time>
      </trkpt>
      <trkpt lat="47.86107" lon="6.76956">
        <ele>655.2</ele>
        <time>2022-08-17T06:34:37Z</time>
      </trkpt>
      <trkpt lat="47.86106" lon="6.76957">
        <ele>655.1</ele>
        <time>2022-08-17T06:34:38Z</time>
      </trkpt>
      <trkpt lat="47.86105" lon="6.76958">
        <ele>655</ele>
        <time>2022-08-17T06:34:39Z</time>
      </trkpt>
      <trkpt lat="47.86104" lon="6.76959">
        <ele>655</ele>
        <time>2022-08-17T06:34:40Z</time>
      </trkpt>
      <trkpt lat="47.86104" lon="6.7696">
        <ele>654.9</ele>
        <time>2022-08-17T06:34:41Z</time>
      </trkpt>
      <trkpt lat="47.86103" lon="6.7696">
        <ele>654.9</ele>
        <time>2022-08-17T06:34:42Z</time>
      </trkpt>
      <trkpt lat="47.86102" lon="6.76961">
        <ele>654.8</ele>
        <time>2022-08-17T06:34:43Z</time>
      </trkpt>
      <trkpt lat="47.86101" lon="6.76962">
        <ele>654.7</ele>
        <time>2022-08-17T06:34:44Z</time>
      </trkpt>
      <trkpt lat="47.861" lon="6.76962">
        <ele>654.7</ele>
        <time>2022-08-17T06:34:45Z</time>
      </trkpt>
      <trkpt lat="47.86099" lon="6.76963">
        <ele>654.7</ele>
        <time>2022-08-17T06:34:46Z</time>
      </trkpt>
      <trkpt lat="47.86098" lon="6.76964">
        <ele>654.6</ele>
        <time>2022-08-17T06:34:47Z</time>
      </trkpt>
      <trkpt lat="47.86097" lon="6.76964">
        <ele>654.6</ele>
        <time>2022-08-17T06:34:48Z</time>
      </trkpt>
      <trkpt lat="47.86096" lon="6.76965">
        <ele>654.5</ele>
        <time>2022-08-17T06:34:49Z</time>
      </trkpt>
      <trkpt lat="47.86095" lon="6.76965">
        <ele>654.5</ele>
        <time>2022-08-17T06:34:50Z</time>
      </trkpt>
      <trkpt lat="47.86094" lon="6.76965">
        <ele>654.5</ele>
        <time>2022-08-17T06:34:51Z</time>
      </trkpt>
      <trkpt lat="47.86093" lon="6.76965">
        <ele>654.5</ele>
        <time>2022-08-17T06:34:52Z</time>
      </trkpt>
      <trkpt lat="47.86092" lon="6.76966">
        <ele>654.4</ele>
        <time>2022-08-17T06:34:53Z</time>
      </trkpt>
      <trkpt lat="47.86091" lon="6.76966">
        <ele>654.4</ele>
        <time>2022-08-17T06:34:54Z</time>
      </trkpt>
      <trkpt lat="47.8609" lon="6.76966">
        <ele>654.4</ele>
        <time>2022-08-17T06:34:55Z</time>
      </trkpt>
      <trkpt lat="47.86089" lon="6.76966">
        <ele>654.4</ele>
        <time>2022-08-17T06:34:56Z</time>
      </trkpt>
      <trkpt lat="47.86088" lon="6.76966">
        <ele>654.4</ele>
        <time>2022-08-17T06:34:57Z</time>
      </trkpt>
      <trkpt lat="47.86088" lon="6.76967">
        <ele>654.4</ele>
        <time>2022-08-17T06:34:58Z</time>
      </trkpt>
      <trkpt lat="47.86087" lon="6.76967">
        <ele>654.4</ele>
        <time>2022-08-17T06:34:59Z</time>
      </trkpt>
      <trkpt lat="47.86086" lon="6.76967">
        <ele>654.4</ele>
        <time>2022-08-17T06:35:00Z</time>
      </trkpt>
      <trkpt lat="47.86085" lon="6.76968">
        <ele>654.3</ele>
        <time>2022-08-17T06:35:01Z</time>
      </trkpt>
      <trkpt lat="47.86084" lon="6.76968">
        <ele>654.3</ele>
        <time>2022-08-17T06:35:02Z</time>
      </trkpt>
      <trkpt lat="47.86083" lon="6.76968">
        <ele>654.4</ele>
        <time>2022-08-17T06:35:03Z</time>
      </trkpt>
      <trkpt lat="47.86082" lon="6.76968">
        <ele>654.5</ele>
        <time>2022-08-17T06:35:04Z</time>
      </trkpt>
      <trkpt lat="47.86081" lon="6.76969">
        <ele>654.6</ele>
        <time>2022-08-17T06:35:05Z</time>
      </trkpt>
      <trkpt lat="47.8608" lon="6.76969">
        <ele>654.7</ele>
        <time>2022-08-17T06:35:06Z</time>
      </trkpt>
      <trkpt lat="47.86079" lon="6.7697">
        <ele>654.8</ele>
        <time>2022-08-17T06:35:07Z</time>
      </trkpt>
      <trkpt lat="47.86079" lon="6.76971">
        <ele>654.7</ele>
        <time>2022-08-17T06:35:08Z</time>
      </trkpt>
      <trkpt lat="47.86078" lon="6.76973">
        <ele>654.7</ele>
        <time>2022-08-17T06:35:09Z</time>
      </trkpt>
      <trkpt lat="47.86077" lon="6.76974">
        <ele>654.8</ele>
        <time>2022-08-17T06:35:10Z</time>
      </trkpt>
      <trkpt lat="47.86077" lon="6.76975">
        <ele>654.8</ele>
        <time>2022-08-17T06:35:11Z</time>
      </trkpt>
      <trkpt lat="47.86076" lon="6.76977">
        <ele>654.8</ele>
        <time>2022-08-17T06:35:12Z</time>
      </trkpt>
      <trkpt lat="47.86076" lon="6.76978">
        <ele>654.8</ele>
        <time>2022-08-17T06:35:13Z</time>
      </trkpt>
      <trkpt lat="47.86076" lon="6.76979">
        <ele>654.8</ele>
        <time>2022-08-17T06:35:14Z</time>
      </trkpt>
      <trkpt lat="47.86075" lon="6.76981">
        <ele>654.9</ele>
        <time>2022-08-17T06:35:15Z</time>
      </trkpt>
      <trkpt lat="47.86075" lon="6.76982">
        <ele>654.8</ele>
        <time>2022-08-17T06:35:16Z</time>
      </trkpt>
      <trkpt lat="47.86075" lon="6.76983">
        <ele>654.8</ele>
        <time>2022-08-17T06:35:17Z</time>
      </trkpt>
      <trkpt lat="47.86075" lon="6.76985">
        <ele>654.7</ele>
        <time>2022-08-17T06:35:18Z</time>
      </trkpt>
      <trkpt lat="47.86075" lon="6.76986">
        <ele>654.7</ele>
        <time>2022-08-17T06:35:19Z</time>
      </trkpt>
      <trkpt lat="47.86075" lon="6.76988">
        <ele>654.6</ele>
        <time>2022-08-17T06:35:20Z</time>
      </trkpt>
      <trkpt lat="47.86074" lon="6.76989">
        <ele>654.7</ele>
        <time>2022-08-17T06:35:21Z</time>
      </trkpt>
      <trkpt lat="47.86074" lon="6.76991">
        <ele>654.7</ele>
        <time>2022-08-17T06:35:22Z</time>
      </trkpt>
      <trkpt lat="47.86074" lon="6.76993">
        <ele>654.6</ele>
        <time>2022-08-17T06:35:23Z</time>
      </trkpt>
      <trkpt lat="47.86075" lon="6.76995">
        <ele>654.3</ele>
        <time>2022-08-17T06:35:24Z</time>
      </trkpt>
      <trkpt lat="47.86075" lon="6.76997">
        <ele>654.2</ele>
        <time>2022-08-17T06:35:25Z</time>
      </trkpt>
      <trkpt lat="47.86075" lon="6.76999">
        <ele>654.1</ele>
        <time>2022-08-17T06:35:26Z</time>
      </trkpt>
      <trkpt lat="47.86075" lon="6.77002">
        <ele>653.9</ele>
        <time>2022-08-17T06:35:27Z</time>
      </trkpt>
      <trkpt lat="47.86075" lon="6.77004">
        <ele>653.8</ele>
        <time>2022-08-17T06:35:28Z</time>
      </trkpt>
      <trkpt lat="47.86075" lon="6.77006">
        <ele>653.6</ele>
        <time>2022-08-17T06:35:29Z</time>
      </trkpt>
      <trkpt lat="47.86074" lon="6.77008">
        <ele>653.7</ele>
        <time>2022-08-17T06:35:30Z</time>
      </trkpt>
      <trkpt lat="47.86074" lon="6.77009">
        <ele>653.6</ele>
        <time>2022-08-17T06:35:31Z</time>
      </trkpt>
      <trkpt lat="47.86073" lon="6.77011">
        <ele>653.7</ele>
        <time>2022-08-17T06:35:32Z</time>
      </trkpt>
      <trkpt lat="47.86072" lon="6.77012">
        <ele>653.8</ele>
        <time>2022-08-17T06:35:33Z</time>
      </trkpt>
      <trkpt lat="47.86071" lon="6.77014">
        <ele>653.9</ele>
        <time>2022-08-17T06:35:34Z</time>
      </trkpt>
      <trkpt lat="47.8607" lon="6.77015">
        <ele>654</ele>
        <time>2022-08-17T06:35:35Z</time>
      </trkpt>
      <trkpt lat="47.86069" lon="6.77016">
        <ele>654.2</ele>
        <time>2022-08-17T06:35:36Z</time>
      </trkpt>
      <trkpt lat="47.86068" lon="6.77016">
        <ele>654.4</ele>
        <time>2022-08-17T06:35:37Z</time>
      </trkpt>
      <trkpt lat="47.86066" lon="6.77017">
        <ele>654.8</ele>
        <time>2022-08-17T06:35:38Z</time>
      </trkpt>
      <trkpt lat="47.86065" lon="6.77018">
        <ele>654.9</ele>
        <time>2022-08-17T06:35:39Z</time>
      </trkpt>
      <trkpt lat="47.86063" lon="6.77018">
        <ele>655.4</ele>
        <time>2022-08-17T06:35:40Z</time>
      </trkpt>
      <trkpt lat="47.86062" lon="6.77018">
        <ele>655.6</ele>
        <time>2022-08-17T06:35:41Z</time>
      </trkpt>
      <trkpt lat="47.86061" lon="6.77019">
        <ele>655.7</ele>
        <time>2022-08-17T06:35:42Z</time>
      </trkpt>
      <trkpt lat="47.8606" lon="6.77019">
        <ele>655.9</ele>
        <time>2022-08-17T06:35:43Z</time>
      </trkpt>
      <trkpt lat="47.86058" lon="6.7702">
        <ele>656.3</ele>
        <time>2022-08-17T06:35:44Z</time>
      </trkpt>
      <trkpt lat="47.86057" lon="6.77021">
        <ele>656.4</ele>
        <time>2022-08-17T06:35:45Z</time>
      </trkpt>
      <trkpt lat="47.86057" lon="6.77022">
        <ele>656.3</ele>
        <time>2022-08-17T06:35:46Z</time>
      </trkpt>
      <trkpt lat="47.86056" lon="6.77024">
        <ele>656.3</ele>
        <time>2022-08-17T06:35:47Z</time>
      </trkpt>
      <trkpt lat="47.86055" lon="6.77025">
        <ele>656.4</ele>
        <time>2022-08-17T06:35:48Z</time>
      </trkpt>
      <trkpt lat="47.86054" lon="6.77027">
        <ele>656.2</ele>
        <time>2022-08-17T06:35:49Z</time>
      </trkpt>
      <trkpt lat="47.86053" lon="6.77028">
        <ele>656.3</ele>
        <time>2022-08-17T06:35:50Z</time>
      </trkpt>
      <trkpt lat="47.86051" lon="6.77029">
        <ele>656.5</ele>
        <time>2022-08-17T06:35:51Z</time>
      </trkpt>
      <trkpt lat="47.8605" lon="6.77029">
        <ele>656.6</ele>
        <time>2022-08-17T06:35:52Z</time>
      </trkpt>
      <trkpt lat="47.86049" lon="6.7703">
        <ele>656.7</ele>
        <time>2022-08-17T06:35:53Z</time>
      </trkpt>
      <trkpt lat="47.86048" lon="6.77031">
        <ele>656.8</ele>
        <time>2022-08-17T06:35:54Z</time>
      </trkpt>
      <trkpt lat="47.86047" lon="6.77032">
        <ele>656.9</ele>
        <time>2022-08-17T06:35:55Z</time>
      </trkpt>
      <trkpt lat="47.86046" lon="6.77032">
        <ele>657</ele>
        <time>2022-08-17T06:35:56Z</time>
      </trkpt>
      <trkpt lat="47.86045" lon="6.77033">
        <ele>657.1</ele>
        <time>2022-08-17T06:35:57Z</time>
      </trkpt>
      <trkpt lat="47.86044" lon="6.77034">
        <ele>657.2</ele>
        <time>2022-08-17T06:35:58Z</time>
      </trkpt>
      <trkpt lat="47.86043" lon="6.77034">
        <ele>657.4</ele>
        <time>2022-08-17T06:35:59Z</time>
      </trkpt>
      <trkpt lat="47.86042" lon="6.77035">
        <ele>657.5</ele>
        <time>2022-08-17T06:36:00Z</time>
      </trkpt>
      <trkpt lat="47.86042" lon="6.77037">
        <ele>657.5</ele>
        <time>2022-08-17T06:36:01Z</time>
      </trkpt>
      <trkpt lat="47.86041" lon="6.77038">
        <ele>657.6</ele>
        <time>2022-08-17T06:36:02Z</time>
      </trkpt>
      <trkpt lat="47.8604" lon="6.77039">
        <ele>657.7</ele>
        <time>2022-08-17T06:36:03Z</time>
      </trkpt>
      <trkpt lat="47.8604" lon="6.77041">
        <ele>657.7</ele>
        <time>2022-08-17T06:36:04Z</time>
      </trkpt>
      <trkpt lat="47.86039" lon="6.77042">
        <ele>657.8</ele>
        <time>2022-08-17T06:36:05Z</time>
      </trkpt>
      <trkpt lat="47.86039" lon="6.77044">
        <ele>657.8</ele>
        <time>2022-08-17T06:36:06Z</time>
      </trkpt>
      <trkpt lat="47.86039" lon="6.77046">
        <ele>657.8</ele>
        <time>2022-08-17T06:36:07Z</time>
      </trkpt>
      <trkpt lat="47.86038" lon="6.77047">
        <ele>657.9</ele>
        <time>2022-08-17T06:36:08Z</time>
      </trkpt>
      <trkpt lat="47.86038" lon="6.77049">
        <ele>657.9</ele>
        <time>2022-08-17T06:36:09Z</time>
      </trkpt>
      <trkpt lat="47.86038" lon="6.7705">
        <ele>657.9</ele>
        <time>2022-08-17T06:36:10Z</time>
      </trkpt>
      <trkpt lat="47.86038" lon="6.77051">
        <ele>657.9</ele>
        <time>2022-08-17T06:36:11Z</time>
      </trkpt>
      <trkpt lat="47.86038" lon="6.77052">
        <ele>657.9</ele>
        <time>2022-08-17T06:36:12Z</time>
      </trkpt>
      <trkpt lat="47.86037" lon="6.77053">
        <ele>658</ele>
        <time>2022-08-17T06:36:13Z</time>
      </trkpt>
      <trkpt lat="47.86037" lon="6.77054">
        <ele>658</ele>
        <time>2022-08-17T06:36:14Z</time>
      </trkpt>
      <trkpt lat="47.86037" lon="6.77055">
        <ele>658</ele>
        <time>2022-08-17T06:36:15Z</time>
      </trkpt>
      <trkpt lat="47.86037" lon="6.77056">
        <ele>658</ele>
        <time>2022-08-17T06:36:16Z</time>
      </trkpt>
      <trkpt lat="47.86038" lon="6.77057">
        <ele>658</ele>
        <time>2022-08-17T06:36:17Z</time>
      </trkpt>
      <trkpt lat="47.86038" lon="6.77058">
        <ele>658</ele>
        <time>2022-08-17T06:36:18Z</time>
      </trkpt>
      <trkpt lat="47.86039" lon="6.77059">
        <ele>657.9</ele>
        <time>2022-08-17T06:36:19Z</time>
      </trkpt>
      <trkpt lat="47.86039" lon="6.77061">
        <ele>658</ele>
        <time>2022-08-17T06:36:20Z</time>
      </trkpt>
      <trkpt lat="47.8604" lon="6.77062">
        <ele>657.9</ele>
        <time>2022-08-17T06:36:21Z</time>
      </trkpt>
      <trkpt lat="47.8604" lon="6.77063">
        <ele>658</ele>
        <time>2022-08-17T06:36:22Z</time>
      </trkpt>
      <trkpt lat="47.8604" lon="6.77065">
        <ele>658.1</ele>
        <time>2022-08-17T06:36:23Z</time>
      </trkpt>
      <trkpt lat="47.86041" lon="6.77066">
        <ele>658</ele>
        <time>2022-08-17T06:36:24Z</time>
      </trkpt>
      <trkpt lat="47.86041" lon="6.77068">
        <ele>658</ele>
        <time>2022-08-17T06:36:25Z</time>
      </trkpt>
      <trkpt lat="47.86041" lon="6.77069">
        <ele>658.1</ele>
        <time>2022-08-17T06:36:26Z</time>
      </trkpt>
      <trkpt lat="47.86042" lon="6.77071">
        <ele>658</ele>
        <time>2022-08-17T06:36:27Z</time>
      </trkpt>
      <trkpt lat="47.86042" lon="6.77072">
        <ele>658</ele>
        <time>2022-08-17T06:36:28Z</time>
      </trkpt>
      <trkpt lat="47.86042" lon="6.77074">
        <ele>658.1</ele>
        <time>2022-08-17T06:36:29Z</time>
      </trkpt>
      <trkpt lat="47.86042" lon="6.77075">
        <ele>658.1</ele>
        <time>2022-08-17T06:36:30Z</time>
      </trkpt>
      <trkpt lat="47.86042" lon="6.77077">
        <ele>658.2</ele>
        <time>2022-08-17T06:36:31Z</time>
      </trkpt>
      <trkpt lat="47.86042" lon="6.77078">
        <ele>658.3</ele>
        <time>2022-08-17T06:36:32Z</time>
      </trkpt>
      <trkpt lat="47.86042" lon="6.77079">
        <ele>658.3</ele>
        <time>2022-08-17T06:36:33Z</time>
      </trkpt>
      <trkpt lat="47.86042" lon="6.7708">
        <ele>658.3</ele>
        <time>2022-08-17T06:36:34Z</time>
      </trkpt>
      <trkpt lat="47.86043" lon="6.77081">
        <ele>658.2</ele>
        <time>2022-08-17T06:36:35Z</time>
      </trkpt>
      <trkpt lat="47.86041" lon="6.77083">
        <ele>658.6</ele>
        <time>2022-08-17T06:40:09Z</time>
      </trkpt>
      <trkpt lat="47.86039" lon="6.77083">
        <ele>659</ele>
        <time>2022-08-17T06:40:10Z</time>
      </trkpt>
      <trkpt lat="47.86038" lon="6.77083">
        <ele>659.1</ele>
        <time>2022-08-17T06:40:11Z</time>
      </trkpt>
      <trkpt lat="47.86038" lon="6.77084">
        <ele>659.2</ele>
        <time>2022-08-17T06:40:12Z</time>
      </trkpt>
      <trkpt lat="47.86037" lon="6.77085">
        <ele>659.5</ele>
        <time>2022-08-17T06:40:13Z</time>
      </trkpt>
      <trkpt lat="47.86037" lon="6.77086">
        <ele>659.6</ele>
        <time>2022-08-17T06:40:14Z</time>
      </trkpt>
      <trkpt lat="47.86037" lon="6.77088">
        <ele>659.8</ele>
        <time>2022-08-17T06:40:15Z</time>
      </trkpt>
      <trkpt lat="47.86037" lon="6.77089">
        <ele>659.9</ele>
        <time>2022-08-17T06:40:16Z</time>
      </trkpt>
      <trkpt lat="47.86037" lon="6.77091">
        <ele>660.1</ele>
        <time>2022-08-17T06:40:17Z</time>
      </trkpt>
      <trkpt lat="47.86037" lon="6.77092">
        <ele>660.2</ele>
        <time>2022-08-17T06:40:18Z</time>
      </trkpt>
      <trkpt lat="47.86037" lon="6.77094">
        <ele>660.4</ele>
        <time>2022-08-17T06:40:19Z</time>
      </trkpt>
      <trkpt lat="47.86037" lon="6.77095">
        <ele>660.5</ele>
        <time>2022-08-17T06:40:20Z</time>
      </trkpt>
      <trkpt lat="47.86037" lon="6.77096">
        <ele>660.6</ele>
        <time>2022-08-17T06:40:21Z</time>
      </trkpt>
      <trkpt lat="47.86037" lon="6.77097">
        <ele>660.7</ele>
        <time>2022-08-17T06:40:22Z</time>
      </trkpt>
      <trkpt lat="47.86038" lon="6.77098">
        <ele>660.5</ele>
        <time>2022-08-17T06:40:23Z</time>
      </trkpt>
      <trkpt lat="47.86038" lon="6.77099">
        <ele>660.6</ele>
        <time>2022-08-17T06:40:24Z</time>
      </trkpt>
      <trkpt lat="47.86038" lon="6.771">
        <ele>660.7</ele>
        <time>2022-08-17T06:40:25Z</time>
      </trkpt>
      <trkpt lat="47.86039" lon="6.77101">
        <ele>660.6</ele>
        <time>2022-08-17T06:40:26Z</time>
      </trkpt>
      <trkpt lat="47.86039" lon="6.77103">
        <ele>660.8</ele>
        <time>2022-08-17T06:40:27Z</time>
      </trkpt>
      <trkpt lat="47.86039" lon="6.77104">
        <ele>660.9</ele>
        <time>2022-08-17T06:40:28Z</time>
      </trkpt>
      <trkpt lat="47.8604" lon="6.77106">
        <ele>660.9</ele>
        <time>2022-08-17T06:40:29Z</time>
      </trkpt>
      <trkpt lat="47.8604" lon="6.77108">
        <ele>661.1</ele>
        <time>2022-08-17T06:40:30Z</time>
      </trkpt>
      <trkpt lat="47.8604" lon="6.7711">
        <ele>661.3</ele>
        <time>2022-08-17T06:40:31Z</time>
      </trkpt>
      <trkpt lat="47.8604" lon="6.77111">
        <ele>661.3</ele>
        <time>2022-08-17T06:40:32Z</time>
      </trkpt>
      <trkpt lat="47.8604" lon="6.77113">
        <ele>661.6</ele>
        <time>2022-08-17T06:40:33Z</time>
      </trkpt>
      <trkpt lat="47.86041" lon="6.77114">
        <ele>661.5</ele>
        <time>2022-08-17T06:40:34Z</time>
      </trkpt>
      <trkpt lat="47.86041" lon="6.77115">
        <ele>661.6</ele>
        <time>2022-08-17T06:40:35Z</time>
      </trkpt>
      <trkpt lat="47.86042" lon="6.77116">
        <ele>661.5</ele>
        <time>2022-08-17T06:40:36Z</time>
      </trkpt>
      <trkpt lat="47.86042" lon="6.77117">
        <ele>661.7</ele>
        <time>2022-08-17T06:40:37Z</time>
      </trkpt>
      <trkpt lat="47.86043" lon="6.77118">
        <ele>661.6</ele>
        <time>2022-08-17T06:40:38Z</time>
      </trkpt>
      <trkpt lat="47.86044" lon="6.77119">
        <ele>661.5</ele>
        <time>2022-08-17T06:40:39Z</time>
      </trkpt>
      <trkpt lat="47.86044" lon="6.7712">
        <ele>661.6</ele>
        <time>2022-08-17T06:40:40Z</time>
      </trkpt>
      <trkpt lat="47.86045" lon="6.77121">
        <ele>661.5</ele>
        <time>2022-08-17T06:40:41Z</time>
      </trkpt>
      <trkpt lat="47.86045" lon="6.77123">
        <ele>661.7</ele>
        <time>2022-08-17T06:40:42Z</time>
      </trkpt>
      <trkpt lat="47.86046" lon="6.77124">
        <ele>661.6</ele>
        <time>2022-08-17T06:40:43Z</time>
      </trkpt>
      <trkpt lat="47.86046" lon="6.77126">
        <ele>661.9</ele>
        <time>2022-08-17T06:40:44Z</time>
      </trkpt>
      <trkpt lat="47.86047" lon="6.77127">
        <ele>661.7</ele>
        <time>2022-08-17T06:40:45Z</time>
      </trkpt>
      <trkpt lat="47.86047" lon="6.77129">
        <ele>662</ele>
        <time>2022-08-17T06:40:46Z</time>
      </trkpt>
      <trkpt lat="47.86048" lon="6.77131">
        <ele>662</ele>
        <time>2022-08-17T06:40:47Z</time>
      </trkpt>
      <trkpt lat="47.86048" lon="6.77132">
        <ele>662.1</ele>
        <time>2022-08-17T06:40:48Z</time>
      </trkpt>
      <trkpt lat="47.86048" lon="6.77134">
        <ele>662.3</ele>
        <time>2022-08-17T06:40:49Z</time>
      </trkpt>
      <trkpt lat="47.86048" lon="6.77136">
        <ele>662.6</ele>
        <time>2022-08-17T06:40:50Z</time>
      </trkpt>
      <trkpt lat="47.86048" lon="6.77138">
        <ele>662.8</ele>
        <time>2022-08-17T06:40:51Z</time>
      </trkpt>
      <trkpt lat="47.86048" lon="6.77139">
        <ele>662.9</ele>
        <time>2022-08-17T06:40:52Z</time>
      </trkpt>
      <trkpt lat="47.86047" lon="6.7714">
        <ele>663.3</ele>
        <time>2022-08-17T06:40:53Z</time>
      </trkpt>
      <trkpt lat="47.86047" lon="6.77142">
        <ele>663.4</ele>
        <time>2022-08-17T06:40:54Z</time>
      </trkpt>
      <trkpt lat="47.86046" lon="6.77143">
        <ele>663.8</ele>
        <time>2022-08-17T06:40:55Z</time>
      </trkpt>
      <trkpt lat="47.86046" lon="6.77144">
        <ele>663.9</ele>
        <time>2022-08-17T06:40:56Z</time>
      </trkpt>
      <trkpt lat="47.86046" lon="6.77145">
        <ele>664</ele>
        <time>2022-08-17T06:40:57Z</time>
      </trkpt>
      <trkpt lat="47.86046" lon="6.77146">
        <ele>664.1</ele>
        <time>2022-08-17T06:40:58Z</time>
      </trkpt>
      <trkpt lat="47.86046" lon="6.77147">
        <ele>664.2</ele>
        <time>2022-08-17T06:40:59Z</time>
      </trkpt>
      <trkpt lat="47.86046" lon="6.77148">
        <ele>664.3</ele>
        <time>2022-08-17T06:41:00Z</time>
      </trkpt>
      <trkpt lat="47.86046" lon="6.77149">
        <ele>664.4</ele>
        <time>2022-08-17T06:41:01Z</time>
      </trkpt>
      <trkpt lat="47.86046" lon="6.77151">
        <ele>664.6</ele>
        <time>2022-08-17T06:41:02Z</time>
      </trkpt>
      <trkpt lat="47.86046" lon="6.77152">
        <ele>664.7</ele>
        <time>2022-08-17T06:41:03Z</time>
      </trkpt>
      <trkpt lat="47.86046" lon="6.77153">
        <ele>664.8</ele>
        <time>2022-08-17T06:41:04Z</time>
      </trkpt>
      <trkpt lat="47.86046" lon="6.77155">
        <ele>665</ele>
        <time>2022-08-17T06:41:05Z</time>
      </trkpt>
      <trkpt lat="47.86046" lon="6.77156">
        <ele>665.1</ele>
        <time>2022-08-17T06:41:06Z</time>
      </trkpt>
      <trkpt lat="47.86046" lon="6.77157">
        <ele>665.2</ele>
        <time>2022-08-17T06:41:07Z</time>
      </trkpt>
      <trkpt lat="47.86046" lon="6.77158">
        <ele>665.3</ele>
        <time>2022-08-17T06:41:08Z</time>
      </trkpt>
      <trkpt lat="47.86046" lon="6.7716">
        <ele>665.5</ele>
        <time>2022-08-17T06:41:09Z</time>
      </trkpt>
      <trkpt lat="47.86046" lon="6.77161">
        <ele>665.5</ele>
        <time>2022-08-17T06:41:10Z</time>
      </trkpt>
      <trkpt lat="47.86046" lon="6.77162">
        <ele>665.6</ele>
        <time>2022-08-17T06:41:11Z</time>
      </trkpt>
      <trkpt lat="47.86046" lon="6.77164">
        <ele>665.8</ele>
        <time>2022-08-17T06:41:12Z</time>
      </trkpt>
      <trkpt lat="47.86047" lon="6.77165">
        <ele>665.6</ele>
        <time>2022-08-17T06:41:13Z</time>
      </trkpt>
      <trkpt lat="47.86047" lon="6.77167">
        <ele>665.8</ele>
        <time>2022-08-17T06:41:14Z</time>
      </trkpt>
      <trkpt lat="47.86047" lon="6.77168">
        <ele>666</ele>
        <time>2022-08-17T06:41:15Z</time>
      </trkpt>
      <trkpt lat="47.86047" lon="6.7717">
        <ele>666.4</ele>
        <time>2022-08-17T06:41:16Z</time>
      </trkpt>
      <trkpt lat="47.86047" lon="6.77171">
        <ele>666.6</ele>
        <time>2022-08-17T06:41:17Z</time>
      </trkpt>
      <trkpt lat="47.86047" lon="6.77173">
        <ele>666.9</ele>
        <time>2022-08-17T06:41:18Z</time>
      </trkpt>
      <trkpt lat="47.86047" lon="6.77175">
        <ele>667.3</ele>
        <time>2022-08-17T06:41:19Z</time>
      </trkpt>
      <trkpt lat="47.86047" lon="6.77176">
        <ele>667.5</ele>
        <time>2022-08-17T06:41:20Z</time>
      </trkpt>
      <trkpt lat="47.86047" lon="6.77178">
        <ele>667.8</ele>
        <time>2022-08-17T06:41:21Z</time>
      </trkpt>
      <trkpt lat="47.86047" lon="6.77179">
        <ele>668</ele>
        <time>2022-08-17T06:41:22Z</time>
      </trkpt>
      <trkpt lat="47.86047" lon="6.7718">
        <ele>668.2</ele>
        <time>2022-08-17T06:41:23Z</time>
      </trkpt>
      <trkpt lat="47.86047" lon="6.77182">
        <ele>668.5</ele>
        <time>2022-08-17T06:41:24Z</time>
      </trkpt>
      <trkpt lat="47.86047" lon="6.77183">
        <ele>668.7</ele>
        <time>2022-08-17T06:41:25Z</time>
      </trkpt>
      <trkpt lat="47.86047" lon="6.77185">
        <ele>669.1</ele>
        <time>2022-08-17T06:41:26Z</time>
      </trkpt>
      <trkpt lat="47.86047" lon="6.77186">
        <ele>669.3</ele>
        <time>2022-08-17T06:41:27Z</time>
      </trkpt>
      <trkpt lat="47.86047" lon="6.77187">
        <ele>669.4</ele>
        <time>2022-08-17T06:41:28Z</time>
      </trkpt>
      <trkpt lat="47.86047" lon="6.77188">
        <ele>669.6</ele>
        <time>2022-08-17T06:41:29Z</time>
      </trkpt>
      <trkpt lat="47.86047" lon="6.77189">
        <ele>669.8</ele>
        <time>2022-08-17T06:41:30Z</time>
      </trkpt>
      <trkpt lat="47.86047" lon="6.7719">
        <ele>670</ele>
        <time>2022-08-17T06:41:31Z</time>
      </trkpt>
      <trkpt lat="47.86047" lon="6.77191">
        <ele>670.2</ele>
        <time>2022-08-17T06:41:32Z</time>
      </trkpt>
      <trkpt lat="47.86048" lon="6.77192">
        <ele>670</ele>
        <time>2022-08-17T06:41:33Z</time>
      </trkpt>
      <trkpt lat="47.86048" lon="6.77194">
        <ele>670.4</ele>
        <time>2022-08-17T06:41:34Z</time>
      </trkpt>
      <trkpt lat="47.86048" lon="6.77195">
        <ele>670.5</ele>
        <time>2022-08-17T06:41:35Z</time>
      </trkpt>
      <trkpt lat="47.86048" lon="6.77196">
        <ele>670.7</ele>
        <time>2022-08-17T06:41:36Z</time>
      </trkpt>
      <trkpt lat="47.86048" lon="6.77197">
        <ele>670.8</ele>
        <time>2022-08-17T06:41:37Z</time>
      </trkpt>
      <trkpt lat="47.86048" lon="6.77199">
        <ele>671.1</ele>
        <time>2022-08-17T06:41:38Z</time>
      </trkpt>
      <trkpt lat="47.86048" lon="6.772">
        <ele>671.3</ele>
        <time>2022-08-17T06:41:39Z</time>
      </trkpt>
      <trkpt lat="47.86047" lon="6.77201">
        <ele>671.8</ele>
        <time>2022-08-17T06:41:41Z</time>
      </trkpt>
      <trkpt lat="47.86047" lon="6.77202">
        <ele>671.9</ele>
        <time>2022-08-17T06:41:42Z</time>
      </trkpt>
      <trkpt lat="47.86047" lon="6.77203">
        <ele>672.1</ele>
        <time>2022-08-17T06:41:43Z</time>
      </trkpt>
      <trkpt lat="47.86047" lon="6.77204">
        <ele>672.3</ele>
        <time>2022-08-17T06:41:44Z</time>
      </trkpt>
      <trkpt lat="47.86046" lon="6.77205">
        <ele>672.7</ele>
        <time>2022-08-17T06:41:45Z</time>
      </trkpt>
      <trkpt lat="47.86046" lon="6.77206">
        <ele>672.9</ele>
        <time>2022-08-17T06:41:46Z</time>
      </trkpt>
      <trkpt lat="47.86046" lon="6.77207">
        <ele>673.1</ele>
        <time>2022-08-17T06:41:47Z</time>
      </trkpt>
      <trkpt lat="47.86046" lon="6.77208">
        <ele>673.2</ele>
        <time>2022-08-17T06:41:48Z</time>
      </trkpt>
      <trkpt lat="47.86045" lon="6.77209">
        <ele>673.7</ele>
        <time>2022-08-17T06:41:49Z</time>
      </trkpt>
      <trkpt lat="47.86045" lon="6.77211">
        <ele>674</ele>
        <time>2022-08-17T06:42:45Z</time>
      </trkpt>
      <trkpt lat="47.86045" lon="6.77213">
        <ele>674.3</ele>
        <time>2022-08-17T06:42:46Z</time>
      </trkpt>
      <trkpt lat="47.86045" lon="6.77214">
        <ele>674.5</ele>
        <time>2022-08-17T06:42:47Z</time>
      </trkpt>
      <trkpt lat="47.86045" lon="6.77215">
        <ele>674.7</ele>
        <time>2022-08-17T06:42:48Z</time>
      </trkpt>
      <trkpt lat="47.86045" lon="6.77216">
        <ele>674.8</ele>
        <time>2022-08-17T06:42:49Z</time>
      </trkpt>
      <trkpt lat="47.86044" lon="6.77217">
        <ele>675.3</ele>
        <time>2022-08-17T06:42:50Z</time>
      </trkpt>
      <trkpt lat="47.86044" lon="6.77218">
        <ele>675.5</ele>
        <time>2022-08-17T06:42:51Z</time>
      </trkpt>
      <trkpt lat="47.86044" lon="6.77219">
        <ele>675.6</ele>
        <time>2022-08-17T06:42:52Z</time>
      </trkpt>
      <trkpt lat="47.86044" lon="6.77221">
        <ele>676</ele>
        <time>2022-08-17T06:42:53Z</time>
      </trkpt>
      <trkpt lat="47.86043" lon="6.77222">
        <ele>676.5</ele>
        <time>2022-08-17T06:42:54Z</time>
      </trkpt>
      <trkpt lat="47.86043" lon="6.77224">
        <ele>676.6</ele>
        <time>2022-08-17T06:42:55Z</time>
      </trkpt>
      <trkpt lat="47.86043" lon="6.77225">
        <ele>676.6</ele>
        <time>2022-08-17T06:42:56Z</time>
      </trkpt>
      <trkpt lat="47.86043" lon="6.77226">
        <ele>676.6</ele>
        <time>2022-08-17T06:42:57Z</time>
      </trkpt>
      <trkpt lat="47.86043" lon="6.77228">
        <ele>676.7</ele>
        <time>2022-08-17T06:42:58Z</time>
      </trkpt>
      <trkpt lat="47.86044" lon="6.77229">
        <ele>676.3</ele>
        <time>2022-08-17T06:42:59Z</time>
      </trkpt>
      <trkpt lat="47.86044" lon="6.7723">
        <ele>676.4</ele>
        <time>2022-08-17T06:43:00Z</time>
      </trkpt>
      <trkpt lat="47.86044" lon="6.77232">
        <ele>676.4</ele>
        <time>2022-08-17T06:43:01Z</time>
      </trkpt>
      <trkpt lat="47.86044" lon="6.77233">
        <ele>676.5</ele>
        <time>2022-08-17T06:43:02Z</time>
      </trkpt>
      <trkpt lat="47.86044" lon="6.77235">
        <ele>676.5</ele>
        <time>2022-08-17T06:43:03Z</time>
      </trkpt>
      <trkpt lat="47.86044" lon="6.77236">
        <ele>676.5</ele>
        <time>2022-08-17T06:43:04Z</time>
      </trkpt>
      <trkpt lat="47.86044" lon="6.77238">
        <ele>676.6</ele>
        <time>2022-08-17T06:43:05Z</time>
      </trkpt>
      <trkpt lat="47.86044" lon="6.7724">
        <ele>676.6</ele>
        <time>2022-08-17T06:43:06Z</time>
      </trkpt>
      <trkpt lat="47.86044" lon="6.77241">
        <ele>676.7</ele>
        <time>2022-08-17T06:43:07Z</time>
      </trkpt>
      <trkpt lat="47.86044" lon="6.77243">
        <ele>676.7</ele>
        <time>2022-08-17T06:43:08Z</time>
      </trkpt>
      <trkpt lat="47.86044" lon="6.77244">
        <ele>676.7</ele>
        <time>2022-08-17T06:43:09Z</time>
      </trkpt>
      <trkpt lat="47.86044" lon="6.77245">
        <ele>676.8</ele>
        <time>2022-08-17T06:43:10Z</time>
      </trkpt>
      <trkpt lat="47.86044" lon="6.77246">
        <ele>676.8</ele>
        <time>2022-08-17T06:43:11Z</time>
      </trkpt>
      <trkpt lat="47.86044" lon="6.77248">
        <ele>676.9</ele>
        <time>2022-08-17T06:43:12Z</time>
      </trkpt>
      <trkpt lat="47.86044" lon="6.77249">
        <ele>676.9</ele>
        <time>2022-08-17T06:43:13Z</time>
      </trkpt>
      <trkpt lat="47.86044" lon="6.7725">
        <ele>676.9</ele>
        <time>2022-08-17T06:43:14Z</time>
      </trkpt>
      <trkpt lat="47.86044" lon="6.77251">
        <ele>677</ele>
        <time>2022-08-17T06:43:15Z</time>
      </trkpt>
      <trkpt lat="47.86043" lon="6.77252">
        <ele>677.4</ele>
        <time>2022-08-17T06:43:16Z</time>
      </trkpt>
      <trkpt lat="47.86043" lon="6.77254">
        <ele>677.6</ele>
        <time>2022-08-17T06:43:17Z</time>
      </trkpt>
      <trkpt lat="47.86043" lon="6.77255">
        <ele>677.7</ele>
        <time>2022-08-17T06:43:18Z</time>
      </trkpt>
      <trkpt lat="47.86043" lon="6.77256">
        <ele>677.8</ele>
        <time>2022-08-17T06:43:19Z</time>
      </trkpt>
      <trkpt lat="47.86042" lon="6.77257">
        <ele>678.2</ele>
        <time>2022-08-17T06:43:20Z</time>
      </trkpt>
      <trkpt lat="47.86042" lon="6.77258">
        <ele>678.3</ele>
        <time>2022-08-17T06:43:21Z</time>
      </trkpt>
      <trkpt lat="47.86042" lon="6.7726">
        <ele>678.5</ele>
        <time>2022-08-17T06:43:22Z</time>
      </trkpt>
      <trkpt lat="47.86042" lon="6.77261">
        <ele>678.6</ele>
        <time>2022-08-17T06:43:23Z</time>
      </trkpt>
      <trkpt lat="47.86042" lon="6.77262">
        <ele>678.7</ele>
        <time>2022-08-17T06:43:24Z</time>
      </trkpt>
      <trkpt lat="47.86042" lon="6.77263">
        <ele>678.8</ele>
        <time>2022-08-17T06:43:25Z</time>
      </trkpt>
      <trkpt lat="47.86042" lon="6.77265">
        <ele>679</ele>
        <time>2022-08-17T06:43:26Z</time>
      </trkpt>
      <trkpt lat="47.86042" lon="6.77266">
        <ele>679.2</ele>
        <time>2022-08-17T06:43:27Z</time>
      </trkpt>
      <trkpt lat="47.86042" lon="6.77267">
        <ele>679.3</ele>
        <time>2022-08-17T06:43:28Z</time>
      </trkpt>
      <trkpt lat="47.86041" lon="6.77268">
        <ele>679.6</ele>
        <time>2022-08-17T06:43:29Z</time>
      </trkpt>
      <trkpt lat="47.86041" lon="6.77269">
        <ele>679.7</ele>
        <time>2022-08-17T06:43:31Z</time>
      </trkpt>
      <trkpt lat="47.86041" lon="6.7727">
        <ele>679.8</ele>
        <time>2022-08-17T06:43:32Z</time>
      </trkpt>
      <trkpt lat="47.86041" lon="6.77272">
        <ele>680</ele>
        <time>2022-08-17T06:43:33Z</time>
      </trkpt>
      <trkpt lat="47.86041" lon="6.77273">
        <ele>680.1</ele>
        <time>2022-08-17T06:43:34Z</time>
      </trkpt>
      <trkpt lat="47.86041" lon="6.77274">
        <ele>680.2</ele>
        <time>2022-08-17T06:43:35Z</time>
      </trkpt>
      <trkpt lat="47.86041" lon="6.77275">
        <ele>680.3</ele>
        <time>2022-08-17T06:43:36Z</time>
      </trkpt>
      <trkpt lat="47.86041" lon="6.77276">
        <ele>680.4</ele>
        <time>2022-08-17T06:43:37Z</time>
      </trkpt>
      <trkpt lat="47.86041" lon="6.77277">
        <ele>680.5</ele>
        <time>2022-08-17T06:43:38Z</time>
      </trkpt>
      <trkpt lat="47.86041" lon="6.77279">
        <ele>680.8</ele>
        <time>2022-08-17T06:43:39Z</time>
      </trkpt>
      <trkpt lat="47.86041" lon="6.7728">
        <ele>680.9</ele>
        <time>2022-08-17T06:43:40Z</time>
      </trkpt>
      <trkpt lat="47.86041" lon="6.77281">
        <ele>681</ele>
        <time>2022-08-17T06:43:41Z</time>
      </trkpt>
      <trkpt lat="47.8604" lon="6.77282">
        <ele>681.3</ele>
        <time>2022-08-17T06:43:42Z</time>
      </trkpt>
      <trkpt lat="47.8604" lon="6.77283">
        <ele>681.5</ele>
        <time>2022-08-17T06:43:43Z</time>
      </trkpt>
      <trkpt lat="47.8604" lon="6.77284">
        <ele>681.6</ele>
        <time>2022-08-17T06:43:44Z</time>
      </trkpt>
      <trkpt lat="47.86039" lon="6.77285">
        <ele>681.9</ele>
        <time>2022-08-17T06:43:45Z</time>
      </trkpt>
      <trkpt lat="47.86039" lon="6.77286">
        <ele>682</ele>
        <time>2022-08-17T06:43:46Z</time>
      </trkpt>
      <trkpt lat="47.86038" lon="6.77286">
        <ele>682.2</ele>
        <time>2022-08-17T06:43:47Z</time>
      </trkpt>
      <trkpt lat="47.86038" lon="6.77287">
        <ele>682.4</ele>
        <time>2022-08-17T06:43:48Z</time>
      </trkpt>
      <trkpt lat="47.86038" lon="6.77288">
        <ele>682.5</ele>
        <time>2022-08-17T06:43:49Z</time>
      </trkpt>
      <trkpt lat="47.86037" lon="6.77289">
        <ele>682.8</ele>
        <time>2022-08-17T06:43:50Z</time>
      </trkpt>
      <trkpt lat="47.86037" lon="6.7729">
        <ele>683</ele>
        <time>2022-08-17T06:43:51Z</time>
      </trkpt>
      <trkpt lat="47.86037" lon="6.77291">
        <ele>683.1</ele>
        <time>2022-08-17T06:43:52Z</time>
      </trkpt>
      <trkpt lat="47.86037" lon="6.77292">
        <ele>683.2</ele>
        <time>2022-08-17T06:43:53Z</time>
      </trkpt>
      <trkpt lat="47.86037" lon="6.77293">
        <ele>683.4</ele>
        <time>2022-08-17T06:43:54Z</time>
      </trkpt>
      <trkpt lat="47.86037" lon="6.77294">
        <ele>683.5</ele>
        <time>2022-08-17T06:43:55Z</time>
      </trkpt>
      <trkpt lat="47.86037" lon="6.77295">
        <ele>683.6</ele>
        <time>2022-08-17T06:43:56Z</time>
      </trkpt>
      <trkpt lat="47.86037" lon="6.77296">
        <ele>683.7</ele>
        <time>2022-08-17T06:43:57Z</time>
      </trkpt>
      <trkpt lat="47.86036" lon="6.77297">
        <ele>684.1</ele>
        <time>2022-08-17T06:43:58Z</time>
      </trkpt>
      <trkpt lat="47.86036" lon="6.77298">
        <ele>684.2</ele>
        <time>2022-08-17T06:43:59Z</time>
      </trkpt>
      <trkpt lat="47.86036" lon="6.77299">
        <ele>684.3</ele>
        <time>2022-08-17T06:44:00Z</time>
      </trkpt>
      <trkpt lat="47.86036" lon="6.773">
        <ele>684.5</ele>
        <time>2022-08-17T06:44:01Z</time>
      </trkpt>
      <trkpt lat="47.86035" lon="6.77302">
        <ele>685</ele>
        <time>2022-08-17T06:44:02Z</time>
      </trkpt>
      <trkpt lat="47.86035" lon="6.77303">
        <ele>685.1</ele>
        <time>2022-08-17T06:44:03Z</time>
      </trkpt>
      <trkpt lat="47.86035" lon="6.77304">
        <ele>685.2</ele>
        <time>2022-08-17T06:44:04Z</time>
      </trkpt>
      <trkpt lat="47.86035" lon="6.77306">
        <ele>685.5</ele>
        <time>2022-08-17T06:44:05Z</time>
      </trkpt>
      <trkpt lat="47.86034" lon="6.77307">
        <ele>685.7</ele>
        <time>2022-08-17T06:44:06Z</time>
      </trkpt>
      <trkpt lat="47.86034" lon="6.77308">
        <ele>685.8</ele>
        <time>2022-08-17T06:44:07Z</time>
      </trkpt>
      <trkpt lat="47.86034" lon="6.7731">
        <ele>685.9</ele>
        <time>2022-08-17T06:44:08Z</time>
      </trkpt>
      <trkpt lat="47.86033" lon="6.77311">
        <ele>686.2</ele>
        <time>2022-08-17T06:44:09Z</time>
      </trkpt>
      <trkpt lat="47.86033" lon="6.77312">
        <ele>686.2</ele>
        <time>2022-08-17T06:44:10Z</time>
      </trkpt>
      <trkpt lat="47.86032" lon="6.77313">
        <ele>686.5</ele>
        <time>2022-08-17T06:44:11Z</time>
      </trkpt>
      <trkpt lat="47.86031" lon="6.77314">
        <ele>686.8</ele>
        <time>2022-08-17T06:44:12Z</time>
      </trkpt>
      <trkpt lat="47.86031" lon="6.77315">
        <ele>686.9</ele>
        <time>2022-08-17T06:44:13Z</time>
      </trkpt>
      <trkpt lat="47.86031" lon="6.77316">
        <ele>687</ele>
        <time>2022-08-17T06:44:14Z</time>
      </trkpt>
      <trkpt lat="47.8603" lon="6.77317">
        <ele>687.3</ele>
        <time>2022-08-17T06:44:15Z</time>
      </trkpt>
      <trkpt lat="47.8603" lon="6.77318">
        <ele>687.3</ele>
        <time>2022-08-17T06:44:16Z</time>
      </trkpt>
      <trkpt lat="47.8603" lon="6.77319">
        <ele>687.4</ele>
        <time>2022-08-17T06:44:17Z</time>
      </trkpt>
      <trkpt lat="47.8603" lon="6.7732">
        <ele>687.5</ele>
        <time>2022-08-17T06:44:18Z</time>
      </trkpt>
      <trkpt lat="47.8603" lon="6.77322">
        <ele>687.6</ele>
        <time>2022-08-17T06:44:19Z</time>
      </trkpt>
      <trkpt lat="47.8603" lon="6.77323">
        <ele>687.7</ele>
        <time>2022-08-17T06:44:20Z</time>
      </trkpt>
      <trkpt lat="47.8603" lon="6.77324">
        <ele>687.7</ele>
        <time>2022-08-17T06:44:21Z</time>
      </trkpt>
      <trkpt lat="47.8603" lon="6.77325">
        <ele>687.8</ele>
        <time>2022-08-17T06:44:22Z</time>
      </trkpt>
      <trkpt lat="47.8603" lon="6.77326">
        <ele>687.9</ele>
        <time>2022-08-17T06:44:23Z</time>
      </trkpt>
      <trkpt lat="47.8603" lon="6.77327">
        <ele>687.9</ele>
        <time>2022-08-17T06:44:24Z</time>
      </trkpt>
      <trkpt lat="47.8603" lon="6.77328">
        <ele>688</ele>
        <time>2022-08-17T06:44:25Z</time>
      </trkpt>
      <trkpt lat="47.8603" lon="6.77329">
        <ele>688.1</ele>
        <time>2022-08-17T06:44:26Z</time>
      </trkpt>
      <trkpt lat="47.8603" lon="6.7733">
        <ele>688.1</ele>
        <time>2022-08-17T06:44:27Z</time>
      </trkpt>
      <trkpt lat="47.8603" lon="6.77331">
        <ele>688.2</ele>
        <time>2022-08-17T06:44:28Z</time>
      </trkpt>
      <trkpt lat="47.8603" lon="6.77333">
        <ele>688.3</ele>
        <time>2022-08-17T06:44:29Z</time>
      </trkpt>
      <trkpt lat="47.8603" lon="6.77334">
        <ele>688.4</ele>
        <time>2022-08-17T06:44:30Z</time>
      </trkpt>
      <trkpt lat="47.8603" lon="6.77335">
        <ele>688.5</ele>
        <time>2022-08-17T06:44:31Z</time>
      </trkpt>
      <trkpt lat="47.8603" lon="6.77336">
        <ele>688.5</ele>
        <time>2022-08-17T06:44:32Z</time>
      </trkpt>
      <trkpt lat="47.8603" lon="6.77337">
        <ele>688.6</ele>
        <time>2022-08-17T06:44:33Z</time>
      </trkpt>
      <trkpt lat="47.8603" lon="6.77338">
        <ele>688.6</ele>
        <time>2022-08-17T06:44:34Z</time>
      </trkpt>
      <trkpt lat="47.8603" lon="6.77339">
        <ele>688.7</ele>
        <time>2022-08-17T06:44:36Z</time>
      </trkpt>
      <trkpt lat="47.8603" lon="6.77341">
        <ele>688.8</ele>
        <time>2022-08-17T06:44:37Z</time>
      </trkpt>
      <trkpt lat="47.8603" lon="6.77342">
        <ele>688.9</ele>
        <time>2022-08-17T06:44:38Z</time>
      </trkpt>
      <trkpt lat="47.86031" lon="6.77343">
        <ele>688.6</ele>
        <time>2022-08-17T06:44:39Z</time>
      </trkpt>
      <trkpt lat="47.8603" lon="6.77345">
        <ele>689</ele>
        <time>2022-08-17T06:44:41Z</time>
      </trkpt>
      <trkpt lat="47.8603" lon="6.77346">
        <ele>689.1</ele>
        <time>2022-08-17T06:44:42Z</time>
      </trkpt>
      <trkpt lat="47.8603" lon="6.77347">
        <ele>689.1</ele>
        <time>2022-08-17T06:44:43Z</time>
      </trkpt>
      <trkpt lat="47.8603" lon="6.77348">
        <ele>689.2</ele>
        <time>2022-08-17T06:44:44Z</time>
      </trkpt>
      <trkpt lat="47.8603" lon="6.77349">
        <ele>689.3</ele>
        <time>2022-08-17T06:44:45Z</time>
      </trkpt>
      <trkpt lat="47.86029" lon="6.7735">
        <ele>689.7</ele>
        <time>2022-08-17T06:44:46Z</time>
      </trkpt>
      <trkpt lat="47.86029" lon="6.77351">
        <ele>689.8</ele>
        <time>2022-08-17T06:44:47Z</time>
      </trkpt>
      <trkpt lat="47.86029" lon="6.77353">
        <ele>689.9</ele>
        <time>2022-08-17T06:44:48Z</time>
      </trkpt>
      <trkpt lat="47.86028" lon="6.77354">
        <ele>690.4</ele>
        <time>2022-08-17T06:44:49Z</time>
      </trkpt>
      <trkpt lat="47.86028" lon="6.77355">
        <ele>690.5</ele>
        <time>2022-08-17T06:44:50Z</time>
      </trkpt>
      <trkpt lat="47.86028" lon="6.77357">
        <ele>690.6</ele>
        <time>2022-08-17T06:44:51Z</time>
      </trkpt>
      <trkpt lat="47.86028" lon="6.77359">
        <ele>690.7</ele>
        <time>2022-08-17T06:44:52Z</time>
      </trkpt>
      <trkpt lat="47.86028" lon="6.7736">
        <ele>690.8</ele>
        <time>2022-08-17T06:44:53Z</time>
      </trkpt>
      <trkpt lat="47.86028" lon="6.77362">
        <ele>691</ele>
        <time>2022-08-17T06:44:54Z</time>
      </trkpt>
      <trkpt lat="47.86028" lon="6.77363">
        <ele>691</ele>
        <time>2022-08-17T06:44:55Z</time>
      </trkpt>
      <trkpt lat="47.86029" lon="6.77364">
        <ele>690.6</ele>
        <time>2022-08-17T06:44:56Z</time>
      </trkpt>
      <trkpt lat="47.86029" lon="6.77366">
        <ele>690.8</ele>
        <time>2022-08-17T06:44:57Z</time>
      </trkpt>
      <trkpt lat="47.86029" lon="6.77367">
        <ele>690.9</ele>
        <time>2022-08-17T06:44:58Z</time>
      </trkpt>
      <trkpt lat="47.86029" lon="6.77368">
        <ele>690.9</ele>
        <time>2022-08-17T06:44:59Z</time>
      </trkpt>
      <trkpt lat="47.8603" lon="6.77369">
        <ele>690.6</ele>
        <time>2022-08-17T06:45:00Z</time>
      </trkpt>
      <trkpt lat="47.8603" lon="6.7737">
        <ele>690.7</ele>
        <time>2022-08-17T06:45:01Z</time>
      </trkpt>
      <trkpt lat="47.8603" lon="6.77371">
        <ele>690.7</ele>
        <time>2022-08-17T06:45:02Z</time>
      </trkpt>
      <trkpt lat="47.8603" lon="6.77372">
        <ele>690.8</ele>
        <time>2022-08-17T06:45:03Z</time>
      </trkpt>
      <trkpt lat="47.8603" lon="6.77374">
        <ele>691</ele>
        <time>2022-08-17T06:45:04Z</time>
      </trkpt>
      <trkpt lat="47.8603" lon="6.77375">
        <ele>691</ele>
        <time>2022-08-17T06:45:05Z</time>
      </trkpt>
      <trkpt lat="47.86031" lon="6.77376">
        <ele>690.7</ele>
        <time>2022-08-17T06:45:06Z</time>
      </trkpt>
      <trkpt lat="47.86031" lon="6.77377">
        <ele>690.8</ele>
        <time>2022-08-17T06:45:07Z</time>
      </trkpt>
      <trkpt lat="47.86031" lon="6.77379">
        <ele>690.9</ele>
        <time>2022-08-17T06:45:08Z</time>
      </trkpt>
      <trkpt lat="47.86031" lon="6.7738">
        <ele>691</ele>
        <time>2022-08-17T06:45:09Z</time>
      </trkpt>
      <trkpt lat="47.86032" lon="6.77381">
        <ele>690.7</ele>
        <time>2022-08-17T06:45:10Z</time>
      </trkpt>
      <trkpt lat="47.86032" lon="6.77382">
        <ele>690.8</ele>
        <time>2022-08-17T06:45:11Z</time>
      </trkpt>
      <trkpt lat="47.86032" lon="6.77383">
        <ele>690.8</ele>
        <time>2022-08-17T06:45:12Z</time>
      </trkpt>
      <trkpt lat="47.86033" lon="6.77384">
        <ele>690.5</ele>
        <time>2022-08-17T06:45:13Z</time>
      </trkpt>
      <trkpt lat="47.86033" lon="6.77386">
        <ele>690.7</ele>
        <time>2022-08-17T06:45:14Z</time>
      </trkpt>
      <trkpt lat="47.86034" lon="6.77386">
        <ele>690.3</ele>
        <time>2022-08-17T06:45:15Z</time>
      </trkpt>
      <trkpt lat="47.86034" lon="6.77387">
        <ele>690.4</ele>
        <time>2022-08-17T06:45:16Z</time>
      </trkpt>
      <trkpt lat="47.86034" lon="6.77388">
        <ele>690.5</ele>
        <time>2022-08-17T06:45:17Z</time>
      </trkpt>
      <trkpt lat="47.86035" lon="6.77389">
        <ele>690.2</ele>
        <time>2022-08-17T06:45:18Z</time>
      </trkpt>
      <trkpt lat="47.86035" lon="6.7739">
        <ele>690.3</ele>
        <time>2022-08-17T06:45:19Z</time>
      </trkpt>
      <trkpt lat="47.86036" lon="6.77391">
        <ele>690</ele>
        <time>2022-08-17T06:45:20Z</time>
      </trkpt>
      <trkpt lat="47.86037" lon="6.77392">
        <ele>689.8</ele>
        <time>2022-08-17T06:45:21Z</time>
      </trkpt>
      <trkpt lat="47.86037" lon="6.77393">
        <ele>689.9</ele>
        <time>2022-08-17T06:45:22Z</time>
      </trkpt>
      <trkpt lat="47.86037" lon="6.77394">
        <ele>690</ele>
        <time>2022-08-17T06:45:23Z</time>
      </trkpt>
      <trkpt lat="47.86038" lon="6.77396">
        <ele>689.9</ele>
        <time>2022-08-17T06:45:24Z</time>
      </trkpt>
      <trkpt lat="47.86038" lon="6.77397">
        <ele>690</ele>
        <time>2022-08-17T06:45:25Z</time>
      </trkpt>
      <trkpt lat="47.86038" lon="6.77398">
        <ele>690.1</ele>
        <time>2022-08-17T06:45:26Z</time>
      </trkpt>
      <trkpt lat="47.86039" lon="6.77399">
        <ele>689.9</ele>
        <time>2022-08-17T06:45:27Z</time>
      </trkpt>
      <trkpt lat="47.86039" lon="6.77401">
        <ele>690.1</ele>
        <time>2022-08-17T06:45:28Z</time>
      </trkpt>
      <trkpt lat="47.86039" lon="6.77402">
        <ele>690.3</ele>
        <time>2022-08-17T06:45:29Z</time>
      </trkpt>
      <trkpt lat="47.86039" lon="6.77403">
        <ele>690.4</ele>
        <time>2022-08-17T06:45:30Z</time>
      </trkpt>
      <trkpt lat="47.86039" lon="6.77404">
        <ele>690.5</ele>
        <time>2022-08-17T06:45:31Z</time>
      </trkpt>
      <trkpt lat="47.86039" lon="6.77405">
        <ele>690.6</ele>
        <time>2022-08-17T06:45:33Z</time>
      </trkpt>
      <trkpt lat="47.8604" lon="6.77406">
        <ele>690.4</ele>
        <time>2022-08-17T06:45:34Z</time>
      </trkpt>
      <trkpt lat="47.8604" lon="6.77407">
        <ele>690.5</ele>
        <time>2022-08-17T06:45:35Z</time>
      </trkpt>
      <trkpt lat="47.8604" lon="6.77408">
        <ele>690.6</ele>
        <time>2022-08-17T06:45:36Z</time>
      </trkpt>
      <trkpt lat="47.86041" lon="6.7741">
        <ele>690.4</ele>
        <time>2022-08-17T06:45:37Z</time>
      </trkpt>
      <trkpt lat="47.86041" lon="6.77411">
        <ele>690.6</ele>
        <time>2022-08-17T06:45:38Z</time>
      </trkpt>
      <trkpt lat="47.86042" lon="6.77413">
        <ele>690.4</ele>
        <time>2022-08-17T06:45:39Z</time>
      </trkpt>
      <trkpt lat="47.86042" lon="6.77415">
        <ele>690.6</ele>
        <time>2022-08-17T06:45:40Z</time>
      </trkpt>
      <trkpt lat="47.86042" lon="6.77417">
        <ele>690.9</ele>
        <time>2022-08-17T06:45:41Z</time>
      </trkpt>
      <trkpt lat="47.86042" lon="6.77419">
        <ele>691.1</ele>
        <time>2022-08-17T06:45:42Z</time>
      </trkpt>
      <trkpt lat="47.86042" lon="6.7742">
        <ele>691.2</ele>
        <time>2022-08-17T06:45:43Z</time>
      </trkpt>
      <trkpt lat="47.86043" lon="6.77422">
        <ele>691</ele>
        <time>2022-08-17T06:45:44Z</time>
      </trkpt>
      <trkpt lat="47.86043" lon="6.77424">
        <ele>691.2</ele>
        <time>2022-08-17T06:45:45Z</time>
      </trkpt>
      <trkpt lat="47.86043" lon="6.77425">
        <ele>691.4</ele>
        <time>2022-08-17T06:45:46Z</time>
      </trkpt>
      <trkpt lat="47.86043" lon="6.77427">
        <ele>691.6</ele>
        <time>2022-08-17T06:45:47Z</time>
      </trkpt>
      <trkpt lat="47.86044" lon="6.77428">
        <ele>691.3</ele>
        <time>2022-08-17T06:45:48Z</time>
      </trkpt>
      <trkpt lat="47.86044" lon="6.7743">
        <ele>691.5</ele>
        <time>2022-08-17T06:45:49Z</time>
      </trkpt>
      <trkpt lat="47.86044" lon="6.77431">
        <ele>691.6</ele>
        <time>2022-08-17T06:45:50Z</time>
      </trkpt>
      <trkpt lat="47.86043" lon="6.77433">
        <ele>692.2</ele>
        <time>2022-08-17T06:45:51Z</time>
      </trkpt>
      <trkpt lat="47.86043" lon="6.77434">
        <ele>692.4</ele>
        <time>2022-08-17T06:45:52Z</time>
      </trkpt>
      <trkpt lat="47.86043" lon="6.77435">
        <ele>692.5</ele>
        <time>2022-08-17T06:45:53Z</time>
      </trkpt>
      <trkpt lat="47.86043" lon="6.77437">
        <ele>692.7</ele>
        <time>2022-08-17T06:45:54Z</time>
      </trkpt>
      <trkpt lat="47.86042" lon="6.77438">
        <ele>693.2</ele>
        <time>2022-08-17T06:45:55Z</time>
      </trkpt>
      <trkpt lat="47.86042" lon="6.77439">
        <ele>693.3</ele>
        <time>2022-08-17T06:45:56Z</time>
      </trkpt>
      <trkpt lat="47.86042" lon="6.77441">
        <ele>693.5</ele>
        <time>2022-08-17T06:45:57Z</time>
      </trkpt>
      <trkpt lat="47.86042" lon="6.77442">
        <ele>693.6</ele>
        <time>2022-08-17T06:45:58Z</time>
      </trkpt>
      <trkpt lat="47.86043" lon="6.77443">
        <ele>693.4</ele>
        <time>2022-08-17T06:45:59Z</time>
      </trkpt>
      <trkpt lat="47.86043" lon="6.77444">
        <ele>693.5</ele>
        <time>2022-08-17T06:46:00Z</time>
      </trkpt>
      <trkpt lat="47.86043" lon="6.77446">
        <ele>693.5</ele>
        <time>2022-08-17T06:46:01Z</time>
      </trkpt>
      <trkpt lat="47.86043" lon="6.77447">
        <ele>693.5</ele>
        <time>2022-08-17T06:46:02Z</time>
      </trkpt>
      <trkpt lat="47.86043" lon="6.77449">
        <ele>693.4</ele>
        <time>2022-08-17T06:46:03Z</time>
      </trkpt>
      <trkpt lat="47.86043" lon="6.77451">
        <ele>693.4</ele>
        <time>2022-08-17T06:46:04Z</time>
      </trkpt>
      <trkpt lat="47.86043" lon="6.77452">
        <ele>693.4</ele>
        <time>2022-08-17T06:46:05Z</time>
      </trkpt>
      <trkpt lat="47.86042" lon="6.77454">
        <ele>693.7</ele>
        <time>2022-08-17T06:46:06Z</time>
      </trkpt>
      <trkpt lat="47.86042" lon="6.77455">
        <ele>693.7</ele>
        <time>2022-08-17T06:46:07Z</time>
      </trkpt>
      <trkpt lat="47.86042" lon="6.77457">
        <ele>693.6</ele>
        <time>2022-08-17T06:46:08Z</time>
      </trkpt>
      <trkpt lat="47.86042" lon="6.77458">
        <ele>693.6</ele>
        <time>2022-08-17T06:46:09Z</time>
      </trkpt>
      <trkpt lat="47.86042" lon="6.7746">
        <ele>693.6</ele>
        <time>2022-08-17T06:46:10Z</time>
      </trkpt>
      <trkpt lat="47.86042" lon="6.77461">
        <ele>693.6</ele>
        <time>2022-08-17T06:46:11Z</time>
      </trkpt>
      <trkpt lat="47.86042" lon="6.77463">
        <ele>693.5</ele>
        <time>2022-08-17T06:46:12Z</time>
      </trkpt>
      <trkpt lat="47.86041" lon="6.77464">
        <ele>693.9</ele>
        <time>2022-08-17T06:46:13Z</time>
      </trkpt>
      <trkpt lat="47.86041" lon="6.77466">
        <ele>693.9</ele>
        <time>2022-08-17T06:46:14Z</time>
      </trkpt>
      <trkpt lat="47.86041" lon="6.77467">
        <ele>693.9</ele>
        <time>2022-08-17T06:46:15Z</time>
      </trkpt>
      <trkpt lat="47.8604" lon="6.77469">
        <ele>694.2</ele>
        <time>2022-08-17T06:46:16Z</time>
      </trkpt>
      <trkpt lat="47.8604" lon="6.7747">
        <ele>694.2</ele>
        <time>2022-08-17T06:46:17Z</time>
      </trkpt>
      <trkpt lat="47.8604" lon="6.77471">
        <ele>694.2</ele>
        <time>2022-08-17T06:46:18Z</time>
      </trkpt>
      <trkpt lat="47.86039" lon="6.77471">
        <ele>694.6</ele>
        <time>2022-08-17T06:46:19Z</time>
      </trkpt>
      <trkpt lat="47.86039" lon="6.77473">
        <ele>694.6</ele>
        <time>2022-08-17T06:46:20Z</time>
      </trkpt>
      <trkpt lat="47.86038" lon="6.77474">
        <ele>695</ele>
        <time>2022-08-17T06:46:21Z</time>
      </trkpt>
      <trkpt lat="47.86038" lon="6.77475">
        <ele>695</ele>
        <time>2022-08-17T06:46:22Z</time>
      </trkpt>
      <trkpt lat="47.86037" lon="6.77476">
        <ele>695.4</ele>
        <time>2022-08-17T06:46:23Z</time>
      </trkpt>
      <trkpt lat="47.86036" lon="6.77477">
        <ele>695.8</ele>
        <time>2022-08-17T06:46:25Z</time>
      </trkpt>
      <trkpt lat="47.86036" lon="6.77478">
        <ele>695.8</ele>
        <time>2022-08-17T06:46:26Z</time>
      </trkpt>
      <trkpt lat="47.86035" lon="6.77479">
        <ele>696.3</ele>
        <time>2022-08-17T06:46:27Z</time>
      </trkpt>
      <trkpt lat="47.86035" lon="6.7748">
        <ele>696.3</ele>
        <time>2022-08-17T06:46:28Z</time>
      </trkpt>
      <trkpt lat="47.86034" lon="6.77481">
        <ele>696.7</ele>
        <time>2022-08-17T06:46:29Z</time>
      </trkpt>
      <trkpt lat="47.86034" lon="6.77482">
        <ele>696.7</ele>
        <time>2022-08-17T06:46:30Z</time>
      </trkpt>
      <trkpt lat="47.86034" lon="6.77484">
        <ele>696.8</ele>
        <time>2022-08-17T06:46:31Z</time>
      </trkpt>
      <trkpt lat="47.86033" lon="6.77485">
        <ele>697.2</ele>
        <time>2022-08-17T06:46:32Z</time>
      </trkpt>
      <trkpt lat="47.86033" lon="6.77487">
        <ele>697.3</ele>
        <time>2022-08-17T06:46:34Z</time>
      </trkpt>
      <trkpt lat="47.86032" lon="6.77488">
        <ele>697.7</ele>
        <time>2022-08-17T06:46:35Z</time>
      </trkpt>
      <trkpt lat="47.86032" lon="6.77489">
        <ele>697.7</ele>
        <time>2022-08-17T06:46:36Z</time>
      </trkpt>
      <trkpt lat="47.86032" lon="6.7749">
        <ele>697.8</ele>
        <time>2022-08-17T06:46:37Z</time>
      </trkpt>
      <trkpt lat="47.86031" lon="6.7749">
        <ele>698.2</ele>
        <time>2022-08-17T06:46:39Z</time>
      </trkpt>
      <trkpt lat="47.86031" lon="6.77491">
        <ele>698.2</ele>
        <time>2022-08-17T06:46:40Z</time>
      </trkpt>
      <trkpt lat="47.86031" lon="6.77492">
        <ele>698.3</ele>
        <time>2022-08-17T06:46:41Z</time>
      </trkpt>
      <trkpt lat="47.86031" lon="6.77493">
        <ele>698.3</ele>
        <time>2022-08-17T06:46:42Z</time>
      </trkpt>
      <trkpt lat="47.8603" lon="6.77493">
        <ele>698.7</ele>
        <time>2022-08-17T06:46:43Z</time>
      </trkpt>
      <trkpt lat="47.8603" lon="6.77494">
        <ele>698.8</ele>
        <time>2022-08-17T06:46:44Z</time>
      </trkpt>
      <trkpt lat="47.8603" lon="6.77495">
        <ele>698.8</ele>
        <time>2022-08-17T06:46:45Z</time>
      </trkpt>
      <trkpt lat="47.8603" lon="6.77496">
        <ele>698.8</ele>
        <time>2022-08-17T06:46:46Z</time>
      </trkpt>
      <trkpt lat="47.8603" lon="6.77497">
        <ele>698.9</ele>
        <time>2022-08-17T06:46:47Z</time>
      </trkpt>
      <trkpt lat="47.86029" lon="6.77498">
        <ele>699.4</ele>
        <time>2022-08-17T06:46:48Z</time>
      </trkpt>
      <trkpt lat="47.86029" lon="6.77499">
        <ele>699.4</ele>
        <time>2022-08-17T06:46:49Z</time>
      </trkpt>
      <trkpt lat="47.86028" lon="6.775">
        <ele>699.9</ele>
        <time>2022-08-17T06:46:50Z</time>
      </trkpt>
      <trkpt lat="47.86028" lon="6.77501">
        <ele>699.9</ele>
        <time>2022-08-17T06:46:51Z</time>
      </trkpt>
      <trkpt lat="47.86027" lon="6.77502">
        <ele>700.3</ele>
        <time>2022-08-17T06:46:52Z</time>
      </trkpt>
      <trkpt lat="47.86026" lon="6.77503">
        <ele>700.6</ele>
        <time>2022-08-17T06:46:53Z</time>
      </trkpt>
      <trkpt lat="47.86026" lon="6.77504">
        <ele>700.6</ele>
        <time>2022-08-17T06:46:54Z</time>
      </trkpt>
      <trkpt lat="47.86025" lon="6.77506">
        <ele>700.9</ele>
        <time>2022-08-17T06:46:55Z</time>
      </trkpt>
      <trkpt lat="47.86025" lon="6.77507">
        <ele>700.9</ele>
        <time>2022-08-17T06:46:56Z</time>
      </trkpt>
      <trkpt lat="47.86024" lon="6.77508">
        <ele>701.3</ele>
        <time>2022-08-17T06:46:57Z</time>
      </trkpt>
      <trkpt lat="47.86023" lon="6.77509">
        <ele>701.6</ele>
        <time>2022-08-17T06:46:58Z</time>
      </trkpt>
      <trkpt lat="47.86022" lon="6.7751">
        <ele>701.9</ele>
        <time>2022-08-17T06:46:59Z</time>
      </trkpt>
      <trkpt lat="47.86022" lon="6.77511">
        <ele>702</ele>
        <time>2022-08-17T06:47:00Z</time>
      </trkpt>
      <trkpt lat="47.86021" lon="6.77512">
        <ele>702.3</ele>
        <time>2022-08-17T06:47:01Z</time>
      </trkpt>
      <trkpt lat="47.86021" lon="6.77513">
        <ele>702.3</ele>
        <time>2022-08-17T06:47:02Z</time>
      </trkpt>
      <trkpt lat="47.86021" lon="6.77515">
        <ele>702.3</ele>
        <time>2022-08-17T06:47:03Z</time>
      </trkpt>
      <trkpt lat="47.86021" lon="6.77516">
        <ele>702.3</ele>
        <time>2022-08-17T06:47:04Z</time>
      </trkpt>
      <trkpt lat="47.86021" lon="6.77517">
        <ele>702.3</ele>
        <time>2022-08-17T06:47:05Z</time>
      </trkpt>
      <trkpt lat="47.86021" lon="6.77518">
        <ele>702.4</ele>
        <time>2022-08-17T06:47:06Z</time>
      </trkpt>
      <trkpt lat="47.86021" lon="6.77519">
        <ele>702.4</ele>
        <time>2022-08-17T06:47:07Z</time>
      </trkpt>
      <trkpt lat="47.8602" lon="6.7752">
        <ele>702.7</ele>
        <time>2022-08-17T06:47:08Z</time>
      </trkpt>
      <trkpt lat="47.8602" lon="6.77521">
        <ele>702.7</ele>
        <time>2022-08-17T06:47:09Z</time>
      </trkpt>
      <trkpt lat="47.8602" lon="6.77522">
        <ele>702.7</ele>
        <time>2022-08-17T06:47:10Z</time>
      </trkpt>
      <trkpt lat="47.8602" lon="6.77523">
        <ele>702.8</ele>
        <time>2022-08-17T06:47:11Z</time>
      </trkpt>
      <trkpt lat="47.86019" lon="6.77524">
        <ele>703.1</ele>
        <time>2022-08-17T06:47:12Z</time>
      </trkpt>
      <trkpt lat="47.86019" lon="6.77525">
        <ele>703.1</ele>
        <time>2022-08-17T06:47:14Z</time>
      </trkpt>
      <trkpt lat="47.86018" lon="6.77526">
        <ele>703.5</ele>
        <time>2022-08-17T06:47:15Z</time>
      </trkpt>
      <trkpt lat="47.86018" lon="6.77527">
        <ele>703.5</ele>
        <time>2022-08-17T06:47:16Z</time>
      </trkpt>
      <trkpt lat="47.86017" lon="6.77528">
        <ele>703.9</ele>
        <time>2022-08-17T06:47:17Z</time>
      </trkpt>
      <trkpt lat="47.86017" lon="6.77529">
        <ele>704</ele>
        <time>2022-08-17T06:47:18Z</time>
      </trkpt>
      <trkpt lat="47.86016" lon="6.7753">
        <ele>704.4</ele>
        <time>2022-08-17T06:47:19Z</time>
      </trkpt>
      <trkpt lat="47.86016" lon="6.77532">
        <ele>704.6</ele>
        <time>2022-08-17T06:47:20Z</time>
      </trkpt>
      <trkpt lat="47.86015" lon="6.77533">
        <ele>705</ele>
        <time>2022-08-17T06:47:21Z</time>
      </trkpt>
      <trkpt lat="47.86014" lon="6.77534">
        <ele>705.4</ele>
        <time>2022-08-17T06:47:22Z</time>
      </trkpt>
      <trkpt lat="47.86014" lon="6.77535">
        <ele>705.5</ele>
        <time>2022-08-17T06:47:23Z</time>
      </trkpt>
      <trkpt lat="47.86013" lon="6.77536">
        <ele>705.9</ele>
        <time>2022-08-17T06:47:24Z</time>
      </trkpt>
      <trkpt lat="47.86012" lon="6.77537">
        <ele>706.3</ele>
        <time>2022-08-17T06:47:25Z</time>
      </trkpt>
      <trkpt lat="47.86012" lon="6.77538">
        <ele>706.4</ele>
        <time>2022-08-17T06:47:26Z</time>
      </trkpt>
      <trkpt lat="47.86012" lon="6.77539">
        <ele>706.4</ele>
        <time>2022-08-17T06:47:27Z</time>
      </trkpt>
      <trkpt lat="47.86011" lon="6.7754">
        <ele>706.8</ele>
        <time>2022-08-17T06:47:28Z</time>
      </trkpt>
      <trkpt lat="47.86011" lon="6.77541">
        <ele>706.9</ele>
        <time>2022-08-17T06:47:29Z</time>
      </trkpt>
      <trkpt lat="47.86011" lon="6.77542">
        <ele>707</ele>
        <time>2022-08-17T06:47:30Z</time>
      </trkpt>
      <trkpt lat="47.8601" lon="6.77543">
        <ele>707.3</ele>
        <time>2022-08-17T06:47:31Z</time>
      </trkpt>
      <trkpt lat="47.8601" lon="6.77545">
        <ele>707.5</ele>
        <time>2022-08-17T06:47:32Z</time>
      </trkpt>
      <trkpt lat="47.8601" lon="6.77546">
        <ele>707.5</ele>
        <time>2022-08-17T06:47:33Z</time>
      </trkpt>
      <trkpt lat="47.86009" lon="6.77546">
        <ele>707.8</ele>
        <time>2022-08-17T06:47:34Z</time>
      </trkpt>
      <trkpt lat="47.86009" lon="6.77547">
        <ele>707.9</ele>
        <time>2022-08-17T06:47:35Z</time>
      </trkpt>
      <trkpt lat="47.86009" lon="6.77548">
        <ele>708</ele>
        <time>2022-08-17T06:47:36Z</time>
      </trkpt>
      <trkpt lat="47.86009" lon="6.77549">
        <ele>708</ele>
        <time>2022-08-17T06:47:37Z</time>
      </trkpt>
      <trkpt lat="47.86009" lon="6.77551">
        <ele>708.1</ele>
        <time>2022-08-17T06:47:38Z</time>
      </trkpt>
      <trkpt lat="47.86008" lon="6.77552">
        <ele>708.5</ele>
        <time>2022-08-17T06:47:39Z</time>
      </trkpt>
      <trkpt lat="47.86008" lon="6.77553">
        <ele>708.6</ele>
        <time>2022-08-17T06:47:40Z</time>
      </trkpt>
      <trkpt lat="47.86008" lon="6.77554">
        <ele>708.6</ele>
        <time>2022-08-17T06:47:41Z</time>
      </trkpt>
      <trkpt lat="47.86007" lon="6.77555">
        <ele>709</ele>
        <time>2022-08-17T06:47:42Z</time>
      </trkpt>
      <trkpt lat="47.86007" lon="6.77556">
        <ele>709</ele>
        <time>2022-08-17T06:47:43Z</time>
      </trkpt>
      <trkpt lat="47.86007" lon="6.77557">
        <ele>709.1</ele>
        <time>2022-08-17T06:47:44Z</time>
      </trkpt>
      <trkpt lat="47.86007" lon="6.77559">
        <ele>709.4</ele>
        <time>2022-08-17T06:47:45Z</time>
      </trkpt>
      <trkpt lat="47.86007" lon="6.7756">
        <ele>709.5</ele>
        <time>2022-08-17T06:47:46Z</time>
      </trkpt>
      <trkpt lat="47.86006" lon="6.77561">
        <ele>709.9</ele>
        <time>2022-08-17T06:47:47Z</time>
      </trkpt>
      <trkpt lat="47.86006" lon="6.77562">
        <ele>710</ele>
        <time>2022-08-17T06:47:48Z</time>
      </trkpt>
      <trkpt lat="47.86006" lon="6.77563">
        <ele>710.1</ele>
        <time>2022-08-17T06:47:49Z</time>
      </trkpt>
      <trkpt lat="47.86006" lon="6.77565">
        <ele>710.3</ele>
        <time>2022-08-17T06:47:50Z</time>
      </trkpt>
      <trkpt lat="47.86006" lon="6.77566">
        <ele>710.4</ele>
        <time>2022-08-17T06:47:51Z</time>
      </trkpt>
      <trkpt lat="47.86006" lon="6.77568">
        <ele>710.6</ele>
        <time>2022-08-17T06:47:52Z</time>
      </trkpt>
      <trkpt lat="47.86006" lon="6.7757">
        <ele>710.8</ele>
        <time>2022-08-17T06:47:53Z</time>
      </trkpt>
      <trkpt lat="47.86006" lon="6.77571">
        <ele>710.9</ele>
        <time>2022-08-17T06:47:54Z</time>
      </trkpt>
      <trkpt lat="47.86006" lon="6.77573">
        <ele>711.2</ele>
        <time>2022-08-17T06:47:55Z</time>
      </trkpt>
      <trkpt lat="47.86006" lon="6.77574">
        <ele>711.3</ele>
        <time>2022-08-17T06:47:56Z</time>
      </trkpt>
      <trkpt lat="47.86005" lon="6.77575">
        <ele>711.7</ele>
        <time>2022-08-17T06:47:57Z</time>
      </trkpt>
      <trkpt lat="47.86005" lon="6.77576">
        <ele>711.8</ele>
        <time>2022-08-17T06:47:59Z</time>
      </trkpt>
      <trkpt lat="47.86005" lon="6.77578">
        <ele>712</ele>
        <time>2022-08-17T06:48:00Z</time>
      </trkpt>
      <trkpt lat="47.86006" lon="6.77579">
        <ele>711.8</ele>
        <time>2022-08-17T06:48:01Z</time>
      </trkpt>
      <trkpt lat="47.86006" lon="6.7758">
        <ele>711.9</ele>
        <time>2022-08-17T06:48:02Z</time>
      </trkpt>
      <trkpt lat="47.86006" lon="6.77581">
        <ele>712</ele>
        <time>2022-08-17T06:48:03Z</time>
      </trkpt>
      <trkpt lat="47.86006" lon="6.77582">
        <ele>712.1</ele>
        <time>2022-08-17T06:48:04Z</time>
      </trkpt>
      <trkpt lat="47.86006" lon="6.77583">
        <ele>712.2</ele>
        <time>2022-08-17T06:48:05Z</time>
      </trkpt>
      <trkpt lat="47.86006" lon="6.77584">
        <ele>712.4</ele>
        <time>2022-08-17T06:48:06Z</time>
      </trkpt>
      <trkpt lat="47.86006" lon="6.77585">
        <ele>712.5</ele>
        <time>2022-08-17T06:48:07Z</time>
      </trkpt>
      <trkpt lat="47.86006" lon="6.77586">
        <ele>712.6</ele>
        <time>2022-08-17T06:48:08Z</time>
      </trkpt>
      <trkpt lat="47.86006" lon="6.77587">
        <ele>712.8</ele>
        <time>2022-08-17T06:48:10Z</time>
      </trkpt>
      <trkpt lat="47.86007" lon="6.77589">
        <ele>712.7</ele>
        <time>2022-08-17T06:48:11Z</time>
      </trkpt>
      <trkpt lat="47.86007" lon="6.7759">
        <ele>712.9</ele>
        <time>2022-08-17T06:48:12Z</time>
      </trkpt>
      <trkpt lat="47.86007" lon="6.77591">
        <ele>713</ele>
        <time>2022-08-17T06:48:13Z</time>
      </trkpt>
      <trkpt lat="47.86007" lon="6.77592">
        <ele>713.2</ele>
        <time>2022-08-17T06:48:14Z</time>
      </trkpt>
      <trkpt lat="47.86007" lon="6.77593">
        <ele>713.3</ele>
        <time>2022-08-17T06:48:15Z</time>
      </trkpt>
      <trkpt lat="47.86008" lon="6.77594">
        <ele>713.1</ele>
        <time>2022-08-17T06:48:16Z</time>
      </trkpt>
      <trkpt lat="47.86008" lon="6.77595">
        <ele>713.3</ele>
        <time>2022-08-17T06:48:17Z</time>
      </trkpt>
      <trkpt lat="47.86008" lon="6.77596">
        <ele>713.4</ele>
        <time>2022-08-17T06:48:18Z</time>
      </trkpt>
      <trkpt lat="47.86008" lon="6.77597">
        <ele>713.5</ele>
        <time>2022-08-17T06:48:19Z</time>
      </trkpt>
      <trkpt lat="47.86009" lon="6.77599">
        <ele>713.5</ele>
        <time>2022-08-17T06:48:20Z</time>
      </trkpt>
      <trkpt lat="47.86009" lon="6.776">
        <ele>713.6</ele>
        <time>2022-08-17T06:48:21Z</time>
      </trkpt>
      <trkpt lat="47.8601" lon="6.77601">
        <ele>713.4</ele>
        <time>2022-08-17T06:48:22Z</time>
      </trkpt>
      <trkpt lat="47.8601" lon="6.77602">
        <ele>713.6</ele>
        <time>2022-08-17T06:48:23Z</time>
      </trkpt>
      <trkpt lat="47.86011" lon="6.77603">
        <ele>713.4</ele>
        <time>2022-08-17T06:48:24Z</time>
      </trkpt>
      <trkpt lat="47.86011" lon="6.77605">
        <ele>713.6</ele>
        <time>2022-08-17T06:48:25Z</time>
      </trkpt>
      <trkpt lat="47.86012" lon="6.77606">
        <ele>713.5</ele>
        <time>2022-08-17T06:48:26Z</time>
      </trkpt>
      <trkpt lat="47.86012" lon="6.77607">
        <ele>713.6</ele>
        <time>2022-08-17T06:48:27Z</time>
      </trkpt>
      <trkpt lat="47.86013" lon="6.77609">
        <ele>713.5</ele>
        <time>2022-08-17T06:48:28Z</time>
      </trkpt>
      <trkpt lat="47.86013" lon="6.7761">
        <ele>713.6</ele>
        <time>2022-08-17T06:48:29Z</time>
      </trkpt>
      <trkpt lat="47.86014" lon="6.77611">
        <ele>713.5</ele>
        <time>2022-08-17T06:48:30Z</time>
      </trkpt>
      <trkpt lat="47.86014" lon="6.77612">
        <ele>713.5</ele>
        <time>2022-08-17T06:48:31Z</time>
      </trkpt>
      <trkpt lat="47.86015" lon="6.77614">
        <ele>713.4</ele>
        <time>2022-08-17T06:48:32Z</time>
      </trkpt>
      <trkpt lat="47.86015" lon="6.77615">
        <ele>713.5</ele>
        <time>2022-08-17T06:48:33Z</time>
      </trkpt>
      <trkpt lat="47.86015" lon="6.77616">
        <ele>713.6</ele>
        <time>2022-08-17T06:48:34Z</time>
      </trkpt>
      <trkpt lat="47.86015" lon="6.77618">
        <ele>713.8</ele>
        <time>2022-08-17T06:48:35Z</time>
      </trkpt>
      <trkpt lat="47.86015" lon="6.77619">
        <ele>713.8</ele>
        <time>2022-08-17T06:48:36Z</time>
      </trkpt>
      <trkpt lat="47.86015" lon="6.7762">
        <ele>713.9</ele>
        <time>2022-08-17T06:48:37Z</time>
      </trkpt>
      <trkpt lat="47.86016" lon="6.77622">
        <ele>713.8</ele>
        <time>2022-08-17T06:48:38Z</time>
      </trkpt>
      <trkpt lat="47.86016" lon="6.77623">
        <ele>713.9</ele>
        <time>2022-08-17T06:48:39Z</time>
      </trkpt>
      <trkpt lat="47.86016" lon="6.77624">
        <ele>713.9</ele>
        <time>2022-08-17T06:48:40Z</time>
      </trkpt>
      <trkpt lat="47.86017" lon="6.77626">
        <ele>713.8</ele>
        <time>2022-08-17T06:48:41Z</time>
      </trkpt>
      <trkpt lat="47.86017" lon="6.77627">
        <ele>713.9</ele>
        <time>2022-08-17T06:48:42Z</time>
      </trkpt>
      <trkpt lat="47.86018" lon="6.77629">
        <ele>713.7</ele>
        <time>2022-08-17T06:48:43Z</time>
      </trkpt>
      <trkpt lat="47.86018" lon="6.77631">
        <ele>713.9</ele>
        <time>2022-08-17T06:48:44Z</time>
      </trkpt>
      <trkpt lat="47.86018" lon="6.77633">
        <ele>714</ele>
        <time>2022-08-17T06:48:45Z</time>
      </trkpt>
      <trkpt lat="47.86019" lon="6.77635">
        <ele>713.8</ele>
        <time>2022-08-17T06:48:46Z</time>
      </trkpt>
      <trkpt lat="47.86019" lon="6.77636">
        <ele>713.9</ele>
        <time>2022-08-17T06:48:47Z</time>
      </trkpt>
      <trkpt lat="47.8602" lon="6.77638">
        <ele>713.7</ele>
        <time>2022-08-17T06:48:48Z</time>
      </trkpt>
      <trkpt lat="47.8602" lon="6.77639">
        <ele>713.8</ele>
        <time>2022-08-17T06:48:49Z</time>
      </trkpt>
      <trkpt lat="47.86019" lon="6.77641">
        <ele>714</ele>
        <time>2022-08-17T06:48:50Z</time>
      </trkpt>
      <trkpt lat="47.86019" lon="6.77642">
        <ele>714</ele>
        <time>2022-08-17T06:48:51Z</time>
      </trkpt>
      <trkpt lat="47.86019" lon="6.77643">
        <ele>713.9</ele>
        <time>2022-08-17T06:48:52Z</time>
      </trkpt>
      <trkpt lat="47.86018" lon="6.77645">
        <ele>714.2</ele>
        <time>2022-08-17T06:48:53Z</time>
      </trkpt>
      <trkpt lat="47.86018" lon="6.77646">
        <ele>714.1</ele>
        <time>2022-08-17T06:48:54Z</time>
      </trkpt>
      <trkpt lat="47.86018" lon="6.77647">
        <ele>714</ele>
        <time>2022-08-17T06:48:55Z</time>
      </trkpt>
      <trkpt lat="47.86017" lon="6.77648">
        <ele>714.4</ele>
        <time>2022-08-17T06:48:56Z</time>
      </trkpt>
      <trkpt lat="47.86016" lon="6.7765">
        <ele>714.6</ele>
        <time>2022-08-17T06:48:57Z</time>
      </trkpt>
      <trkpt lat="47.86016" lon="6.77651">
        <ele>714.6</ele>
        <time>2022-08-17T06:48:58Z</time>
      </trkpt>
      <trkpt lat="47.86016" lon="6.77652">
        <ele>714.5</ele>
        <time>2022-08-17T06:48:59Z</time>
      </trkpt>
      <trkpt lat="47.86015" lon="6.77654">
        <ele>714.8</ele>
        <time>2022-08-17T06:49:00Z</time>
      </trkpt>
      <trkpt lat="47.86015" lon="6.77655">
        <ele>714.7</ele>
        <time>2022-08-17T06:49:01Z</time>
      </trkpt>
      <trkpt lat="47.86015" lon="6.77656">
        <ele>714.7</ele>
        <time>2022-08-17T06:49:02Z</time>
      </trkpt>
      <trkpt lat="47.86015" lon="6.77658">
        <ele>714.5</ele>
        <time>2022-08-17T06:49:03Z</time>
      </trkpt>
      <trkpt lat="47.86014" lon="6.77659">
        <ele>714.9</ele>
        <time>2022-08-17T06:49:04Z</time>
      </trkpt>
      <trkpt lat="47.86014" lon="6.7766">
        <ele>714.8</ele>
        <time>2022-08-17T06:49:05Z</time>
      </trkpt>
      <trkpt lat="47.86014" lon="6.77661">
        <ele>714.8</ele>
        <time>2022-08-17T06:49:06Z</time>
      </trkpt>
      <trkpt lat="47.86014" lon="6.77662">
        <ele>714.7</ele>
        <time>2022-08-17T06:49:07Z</time>
      </trkpt>
      <trkpt lat="47.86013" lon="6.77664">
        <ele>715</ele>
        <time>2022-08-17T06:49:08Z</time>
      </trkpt>
      <trkpt lat="47.86013" lon="6.77665">
        <ele>714.9</ele>
        <time>2022-08-17T06:49:09Z</time>
      </trkpt>
      <trkpt lat="47.86013" lon="6.77666">
        <ele>714.9</ele>
        <time>2022-08-17T06:49:10Z</time>
      </trkpt>
      <trkpt lat="47.86012" lon="6.77667">
        <ele>715.2</ele>
        <time>2022-08-17T06:49:11Z</time>
      </trkpt>
      <trkpt lat="47.86012" lon="6.77668">
        <ele>715.2</ele>
        <time>2022-08-17T06:49:12Z</time>
      </trkpt>
      <trkpt lat="47.86012" lon="6.7767">
        <ele>715.1</ele>
        <time>2022-08-17T06:49:13Z</time>
      </trkpt>
      <trkpt lat="47.86011" lon="6.7767">
        <ele>715.5</ele>
        <time>2022-08-17T06:49:14Z</time>
      </trkpt>
      <trkpt lat="47.86011" lon="6.77671">
        <ele>715.5</ele>
        <time>2022-08-17T06:49:15Z</time>
      </trkpt>
      <trkpt lat="47.86011" lon="6.77672">
        <ele>715.5</ele>
        <time>2022-08-17T06:49:16Z</time>
      </trkpt>
      <trkpt lat="47.8601" lon="6.77673">
        <ele>715.9</ele>
        <time>2022-08-17T06:49:17Z</time>
      </trkpt>
      <trkpt lat="47.8601" lon="6.77674">
        <ele>715.8</ele>
        <time>2022-08-17T06:49:18Z</time>
      </trkpt>
      <trkpt lat="47.8601" lon="6.77675">
        <ele>715.8</ele>
        <time>2022-08-17T06:49:19Z</time>
      </trkpt>
      <trkpt lat="47.86009" lon="6.77676">
        <ele>716.2</ele>
        <time>2022-08-17T06:49:20Z</time>
      </trkpt>
      <trkpt lat="47.86008" lon="6.77677">
        <ele>716.6</ele>
        <time>2022-08-17T06:49:21Z</time>
      </trkpt>
      <trkpt lat="47.86008" lon="6.77678">
        <ele>716.6</ele>
        <time>2022-08-17T06:49:22Z</time>
      </trkpt>
      <trkpt lat="47.86007" lon="6.77679">
        <ele>717</ele>
        <time>2022-08-17T06:49:23Z</time>
      </trkpt>
      <trkpt lat="47.86006" lon="6.7768">
        <ele>717.4</ele>
        <time>2022-08-17T06:49:24Z</time>
      </trkpt>
      <trkpt lat="47.86006" lon="6.77681">
        <ele>717.4</ele>
        <time>2022-08-17T06:49:25Z</time>
      </trkpt>
      <trkpt lat="47.86005" lon="6.77682">
        <ele>717.8</ele>
        <time>2022-08-17T06:49:26Z</time>
      </trkpt>
      <trkpt lat="47.86005" lon="6.77683">
        <ele>717.8</ele>
        <time>2022-08-17T06:49:27Z</time>
      </trkpt>
      <trkpt lat="47.86005" lon="6.77684">
        <ele>717.8</ele>
        <time>2022-08-17T06:49:28Z</time>
      </trkpt>
      <trkpt lat="47.86005" lon="6.77685">
        <ele>717.8</ele>
        <time>2022-08-17T06:49:29Z</time>
      </trkpt>
      <trkpt lat="47.86005" lon="6.77687">
        <ele>717.8</ele>
        <time>2022-08-17T06:49:30Z</time>
      </trkpt>
      <trkpt lat="47.86005" lon="6.77688">
        <ele>717.7</ele>
        <time>2022-08-17T06:49:31Z</time>
      </trkpt>
      <trkpt lat="47.86004" lon="6.77689">
        <ele>718.2</ele>
        <time>2022-08-17T06:49:32Z</time>
      </trkpt>
      <trkpt lat="47.86004" lon="6.7769">
        <ele>718.2</ele>
        <time>2022-08-17T06:49:33Z</time>
      </trkpt>
      <trkpt lat="47.86004" lon="6.77691">
        <ele>718.2</ele>
        <time>2022-08-17T06:49:34Z</time>
      </trkpt>
      <trkpt lat="47.86004" lon="6.77692">
        <ele>718.2</ele>
        <time>2022-08-17T06:49:35Z</time>
      </trkpt>
      <trkpt lat="47.86004" lon="6.77693">
        <ele>718.1</ele>
        <time>2022-08-17T06:49:36Z</time>
      </trkpt>
      <trkpt lat="47.86004" lon="6.77694">
        <ele>718.1</ele>
        <time>2022-08-17T06:49:37Z</time>
      </trkpt>
      <trkpt lat="47.86003" lon="6.77695">
        <ele>718.5</ele>
        <time>2022-08-17T06:49:38Z</time>
      </trkpt>
      <trkpt lat="47.86003" lon="6.77697">
        <ele>718.2</ele>
        <time>2022-08-17T06:49:39Z</time>
      </trkpt>
      <trkpt lat="47.86002" lon="6.77698">
        <ele>718.6</ele>
        <time>2022-08-17T06:49:40Z</time>
      </trkpt>
      <trkpt lat="47.86002" lon="6.77699">
        <ele>718.4</ele>
        <time>2022-08-17T06:49:41Z</time>
      </trkpt>
      <trkpt lat="47.86001" lon="6.777">
        <ele>718.7</ele>
        <time>2022-08-17T06:49:42Z</time>
      </trkpt>
      <trkpt lat="47.86001" lon="6.77701">
        <ele>718.6</ele>
        <time>2022-08-17T06:49:43Z</time>
      </trkpt>
      <trkpt lat="47.86" lon="6.77702">
        <ele>718.9</ele>
        <time>2022-08-17T06:49:44Z</time>
      </trkpt>
      <trkpt lat="47.86" lon="6.77703">
        <ele>718.8</ele>
        <time>2022-08-17T06:49:45Z</time>
      </trkpt>
      <trkpt lat="47.85999" lon="6.77704">
        <ele>719</ele>
        <time>2022-08-17T06:49:46Z</time>
      </trkpt>
      <trkpt lat="47.85999" lon="6.77705">
        <ele>718.8</ele>
        <time>2022-08-17T06:49:47Z</time>
      </trkpt>
      <trkpt lat="47.85998" lon="6.77706">
        <ele>719.1</ele>
        <time>2022-08-17T06:49:48Z</time>
      </trkpt>
      <trkpt lat="47.85998" lon="6.77707">
        <ele>718.9</ele>
        <time>2022-08-17T06:49:49Z</time>
      </trkpt>
      <trkpt lat="47.85998" lon="6.77709">
        <ele>718.6</ele>
        <time>2022-08-17T06:49:50Z</time>
      </trkpt>
      <trkpt lat="47.85998" lon="6.7771">
        <ele>718.5</ele>
        <time>2022-08-17T06:49:51Z</time>
      </trkpt>
      <trkpt lat="47.85997" lon="6.77711">
        <ele>718.7</ele>
        <time>2022-08-17T06:49:52Z</time>
      </trkpt>
      <trkpt lat="47.85997" lon="6.77713">
        <ele>718.4</ele>
        <time>2022-08-17T06:49:53Z</time>
      </trkpt>
      <trkpt lat="47.85996" lon="6.77714">
        <ele>718.6</ele>
        <time>2022-08-17T06:49:54Z</time>
      </trkpt>
      <trkpt lat="47.85996" lon="6.77715">
        <ele>718.5</ele>
        <time>2022-08-17T06:49:55Z</time>
      </trkpt>
      <trkpt lat="47.85995" lon="6.77716">
        <ele>718.7</ele>
        <time>2022-08-17T06:49:56Z</time>
      </trkpt>
      <trkpt lat="47.85994" lon="6.77717">
        <ele>718.9</ele>
        <time>2022-08-17T06:49:57Z</time>
      </trkpt>
      <trkpt lat="47.85994" lon="6.77718">
        <ele>718.8</ele>
        <time>2022-08-17T06:49:58Z</time>
      </trkpt>
      <trkpt lat="47.85993" lon="6.77719">
        <ele>719</ele>
        <time>2022-08-17T06:49:59Z</time>
      </trkpt>
      <trkpt lat="47.85992" lon="6.7772">
        <ele>719.2</ele>
        <time>2022-08-17T06:50:00Z</time>
      </trkpt>
      <trkpt lat="47.85992" lon="6.77722">
        <ele>718.9</ele>
        <time>2022-08-17T06:50:01Z</time>
      </trkpt>
      <trkpt lat="47.85991" lon="6.77723">
        <ele>719.2</ele>
        <time>2022-08-17T06:50:02Z</time>
      </trkpt>
      <trkpt lat="47.85991" lon="6.77724">
        <ele>719</ele>
        <time>2022-08-17T06:50:03Z</time>
      </trkpt>
      <trkpt lat="47.8599" lon="6.77725">
        <ele>719.3</ele>
        <time>2022-08-17T06:50:04Z</time>
      </trkpt>
      <trkpt lat="47.8599" lon="6.77726">
        <ele>719.2</ele>
        <time>2022-08-17T06:50:05Z</time>
      </trkpt>
      <trkpt lat="47.85989" lon="6.77728">
        <ele>719.3</ele>
        <time>2022-08-17T06:50:06Z</time>
      </trkpt>
      <trkpt lat="47.85988" lon="6.77729">
        <ele>719.6</ele>
        <time>2022-08-17T06:50:07Z</time>
      </trkpt>
      <trkpt lat="47.85987" lon="6.7773">
        <ele>719.8</ele>
        <time>2022-08-17T06:50:08Z</time>
      </trkpt>
      <trkpt lat="47.85986" lon="6.77732">
        <ele>720</ele>
        <time>2022-08-17T06:50:09Z</time>
      </trkpt>
      <trkpt lat="47.85985" lon="6.77733">
        <ele>720.2</ele>
        <time>2022-08-17T06:50:10Z</time>
      </trkpt>
      <trkpt lat="47.85984" lon="6.77734">
        <ele>720.5</ele>
        <time>2022-08-17T06:50:11Z</time>
      </trkpt>
      <trkpt lat="47.85983" lon="6.77735">
        <ele>720.7</ele>
        <time>2022-08-17T06:50:12Z</time>
      </trkpt>
      <trkpt lat="47.85982" lon="6.77736">
        <ele>721</ele>
        <time>2022-08-17T06:50:13Z</time>
      </trkpt>
      <trkpt lat="47.85981" lon="6.77737">
        <ele>721.2</ele>
        <time>2022-08-17T06:50:14Z</time>
      </trkpt>
      <trkpt lat="47.8598" lon="6.77738">
        <ele>721.5</ele>
        <time>2022-08-17T06:50:15Z</time>
      </trkpt>
      <trkpt lat="47.85979" lon="6.77739">
        <ele>721.7</ele>
        <time>2022-08-17T06:50:16Z</time>
      </trkpt>
      <trkpt lat="47.85978" lon="6.77739">
        <ele>722.1</ele>
        <time>2022-08-17T06:50:17Z</time>
      </trkpt>
      <trkpt lat="47.85977" lon="6.7774">
        <ele>722.4</ele>
        <time>2022-08-17T06:50:18Z</time>
      </trkpt>
      <trkpt lat="47.85976" lon="6.77741">
        <ele>722.6</ele>
        <time>2022-08-17T06:50:19Z</time>
      </trkpt>
      <trkpt lat="47.85975" lon="6.77741">
        <ele>723</ele>
        <time>2022-08-17T06:50:20Z</time>
      </trkpt>
      <trkpt lat="47.85974" lon="6.77742">
        <ele>723.2</ele>
        <time>2022-08-17T06:50:21Z</time>
      </trkpt>
      <trkpt lat="47.85974" lon="6.77743">
        <ele>723.1</ele>
        <time>2022-08-17T06:50:22Z</time>
      </trkpt>
      <trkpt lat="47.85973" lon="6.77744">
        <ele>723.4</ele>
        <time>2022-08-17T06:50:23Z</time>
      </trkpt>
      <trkpt lat="47.85972" lon="6.77744">
        <ele>723.7</ele>
        <time>2022-08-17T06:50:24Z</time>
      </trkpt>
      <trkpt lat="47.85971" lon="6.77745">
        <ele>723.9</ele>
        <time>2022-08-17T06:50:25Z</time>
      </trkpt>
      <trkpt lat="47.8597" lon="6.77746">
        <ele>724</ele>
        <time>2022-08-17T06:50:26Z</time>
      </trkpt>
      <trkpt lat="47.85969" lon="6.77746">
        <ele>724.3</ele>
        <time>2022-08-17T06:50:28Z</time>
      </trkpt>
      <trkpt lat="47.85968" lon="6.77747">
        <ele>724.4</ele>
        <time>2022-08-17T06:50:29Z</time>
      </trkpt>
      <trkpt lat="47.85968" lon="6.77748">
        <ele>724.3</ele>
        <time>2022-08-17T06:50:30Z</time>
      </trkpt>
      <trkpt lat="47.85967" lon="6.77748">
        <ele>724.6</ele>
        <time>2022-08-17T06:50:31Z</time>
      </trkpt>
      <trkpt lat="47.85966" lon="6.77749">
        <ele>724.7</ele>
        <time>2022-08-17T06:50:32Z</time>
      </trkpt>
      <trkpt lat="47.85966" lon="6.7775">
        <ele>724.6</ele>
        <time>2022-08-17T06:50:33Z</time>
      </trkpt>
      <trkpt lat="47.85965" lon="6.77751">
        <ele>724.6</ele>
        <time>2022-08-17T06:50:34Z</time>
      </trkpt>
      <trkpt lat="47.85964" lon="6.77752">
        <ele>724.7</ele>
        <time>2022-08-17T06:50:35Z</time>
      </trkpt>
      <trkpt lat="47.85964" lon="6.77753">
        <ele>724.5</ele>
        <time>2022-08-17T06:50:36Z</time>
      </trkpt>
      <trkpt lat="47.85963" lon="6.77754">
        <ele>724.6</ele>
        <time>2022-08-17T06:50:37Z</time>
      </trkpt>
      <trkpt lat="47.85962" lon="6.77755">
        <ele>724.6</ele>
        <time>2022-08-17T06:50:38Z</time>
      </trkpt>
      <trkpt lat="47.85961" lon="6.77755">
        <ele>724.9</ele>
        <time>2022-08-17T06:50:39Z</time>
      </trkpt>
      <trkpt lat="47.8596" lon="6.77756">
        <ele>725</ele>
        <time>2022-08-17T06:50:40Z</time>
      </trkpt>
      <trkpt lat="47.85959" lon="6.77756">
        <ele>725.2</ele>
        <time>2022-08-17T06:50:42Z</time>
      </trkpt>
      <trkpt lat="47.85958" lon="6.77757">
        <ele>725.3</ele>
        <time>2022-08-17T06:50:43Z</time>
      </trkpt>
      <trkpt lat="47.85957" lon="6.77758">
        <ele>725.4</ele>
        <time>2022-08-17T06:50:44Z</time>
      </trkpt>
      <trkpt lat="47.85956" lon="6.77758">
        <ele>725.7</ele>
        <time>2022-08-17T06:50:45Z</time>
      </trkpt>
      <trkpt lat="47.85955" lon="6.77759">
        <ele>725.8</ele>
        <time>2022-08-17T06:50:46Z</time>
      </trkpt>
      <trkpt lat="47.85954" lon="6.7776">
        <ele>725.9</ele>
        <time>2022-08-17T06:50:47Z</time>
      </trkpt>
      <trkpt lat="47.85953" lon="6.7776">
        <ele>726.2</ele>
        <time>2022-08-17T06:50:48Z</time>
      </trkpt>
      <trkpt lat="47.85952" lon="6.7776">
        <ele>726.5</ele>
        <time>2022-08-17T06:50:49Z</time>
      </trkpt>
      <trkpt lat="47.85951" lon="6.77761">
        <ele>726.6</ele>
        <time>2022-08-17T06:50:50Z</time>
      </trkpt>
      <trkpt lat="47.8595" lon="6.77761">
        <ele>726.9</ele>
        <time>2022-08-17T06:50:52Z</time>
      </trkpt>
      <trkpt lat="47.85949" lon="6.77761">
        <ele>727.1</ele>
        <time>2022-08-17T06:50:53Z</time>
      </trkpt>
      <trkpt lat="47.85948" lon="6.77762">
        <ele>727.3</ele>
        <time>2022-08-17T06:50:54Z</time>
      </trkpt>
      <trkpt lat="47.85947" lon="6.77762">
        <ele>727.5</ele>
        <time>2022-08-17T06:50:55Z</time>
      </trkpt>
      <trkpt lat="47.85946" lon="6.77763">
        <ele>727.7</ele>
        <time>2022-08-17T06:50:56Z</time>
      </trkpt>
      <trkpt lat="47.85945" lon="6.77763">
        <ele>728</ele>
        <time>2022-08-17T06:50:57Z</time>
      </trkpt>
      <trkpt lat="47.85944" lon="6.77764">
        <ele>728.1</ele>
        <time>2022-08-17T06:50:58Z</time>
      </trkpt>
      <trkpt lat="47.85943" lon="6.77764">
        <ele>728.3</ele>
        <time>2022-08-17T06:50:59Z</time>
      </trkpt>
      <trkpt lat="47.85942" lon="6.77765">
        <ele>728.4</ele>
        <time>2022-08-17T06:51:00Z</time>
      </trkpt>
      <trkpt lat="47.85941" lon="6.77765">
        <ele>728.7</ele>
        <time>2022-08-17T06:51:01Z</time>
      </trkpt>
      <trkpt lat="47.8594" lon="6.77766">
        <ele>728.8</ele>
        <time>2022-08-17T06:51:02Z</time>
      </trkpt>
      <trkpt lat="47.8594" lon="6.77767">
        <ele>728.6</ele>
        <time>2022-08-17T06:51:03Z</time>
      </trkpt>
      <trkpt lat="47.85939" lon="6.77767">
        <ele>728.9</ele>
        <time>2022-08-17T06:51:04Z</time>
      </trkpt>
      <trkpt lat="47.85938" lon="6.77768">
        <ele>729</ele>
        <time>2022-08-17T06:51:05Z</time>
      </trkpt>
      <trkpt lat="47.85938" lon="6.77769">
        <ele>728.9</ele>
        <time>2022-08-17T06:51:06Z</time>
      </trkpt>
      <trkpt lat="47.85937" lon="6.77769">
        <ele>729.2</ele>
        <time>2022-08-17T06:51:07Z</time>
      </trkpt>
      <trkpt lat="47.85936" lon="6.7777">
        <ele>729.3</ele>
        <time>2022-08-17T06:51:08Z</time>
      </trkpt>
      <trkpt lat="47.85936" lon="6.77771">
        <ele>729.2</ele>
        <time>2022-08-17T06:51:09Z</time>
      </trkpt>
      <trkpt lat="47.85935" lon="6.77772">
        <ele>729.3</ele>
        <time>2022-08-17T06:51:10Z</time>
      </trkpt>
      <trkpt lat="47.85934" lon="6.77772">
        <ele>729.6</ele>
        <time>2022-08-17T06:51:11Z</time>
      </trkpt>
      <trkpt lat="47.85933" lon="6.77773">
        <ele>729.8</ele>
        <time>2022-08-17T06:51:12Z</time>
      </trkpt>
      <trkpt lat="47.85933" lon="6.77774">
        <ele>729.7</ele>
        <time>2022-08-17T06:51:13Z</time>
      </trkpt>
      <trkpt lat="47.85932" lon="6.77775">
        <ele>729.8</ele>
        <time>2022-08-17T06:51:14Z</time>
      </trkpt>
      <trkpt lat="47.85931" lon="6.77775">
        <ele>730.1</ele>
        <time>2022-08-17T06:51:15Z</time>
      </trkpt>
      <trkpt lat="47.85931" lon="6.77776">
        <ele>730</ele>
        <time>2022-08-17T06:51:16Z</time>
      </trkpt>
      <trkpt lat="47.8593" lon="6.77776">
        <ele>730.3</ele>
        <time>2022-08-17T06:51:17Z</time>
      </trkpt>
      <trkpt lat="47.8593" lon="6.77777">
        <ele>730.2</ele>
        <time>2022-08-17T06:51:18Z</time>
      </trkpt>
      <trkpt lat="47.85929" lon="6.77778">
        <ele>730.4</ele>
        <time>2022-08-17T06:51:19Z</time>
      </trkpt>
      <trkpt lat="47.85928" lon="6.77779">
        <ele>730.6</ele>
        <time>2022-08-17T06:51:20Z</time>
      </trkpt>
      <trkpt lat="47.85928" lon="6.7778">
        <ele>730.4</ele>
        <time>2022-08-17T06:51:21Z</time>
      </trkpt>
      <trkpt lat="47.85927" lon="6.77781">
        <ele>730.6</ele>
        <time>2022-08-17T06:51:22Z</time>
      </trkpt>
      <trkpt lat="47.85927" lon="6.77783">
        <ele>730.4</ele>
        <time>2022-08-17T06:51:23Z</time>
      </trkpt>
      <trkpt lat="47.85926" lon="6.77784">
        <ele>730.6</ele>
        <time>2022-08-17T06:51:24Z</time>
      </trkpt>
      <trkpt lat="47.85926" lon="6.77785">
        <ele>730.4</ele>
        <time>2022-08-17T06:51:25Z</time>
      </trkpt>
      <trkpt lat="47.85925" lon="6.77786">
        <ele>730.7</ele>
        <time>2022-08-17T06:51:26Z</time>
      </trkpt>
      <trkpt lat="47.85925" lon="6.77787">
        <ele>730.5</ele>
        <time>2022-08-17T06:51:27Z</time>
      </trkpt>
      <trkpt lat="47.85924" lon="6.77788">
        <ele>730.8</ele>
        <time>2022-08-17T06:51:28Z</time>
      </trkpt>
      <trkpt lat="47.85924" lon="6.77789">
        <ele>730.7</ele>
        <time>2022-08-17T06:51:29Z</time>
      </trkpt>
      <trkpt lat="47.85924" lon="6.7779">
        <ele>730.5</ele>
        <time>2022-08-17T06:51:30Z</time>
      </trkpt>
      <trkpt lat="47.85923" lon="6.77791">
        <ele>730.8</ele>
        <time>2022-08-17T06:51:31Z</time>
      </trkpt>
      <trkpt lat="47.85923" lon="6.77792">
        <ele>730.7</ele>
        <time>2022-08-17T06:51:32Z</time>
      </trkpt>
      <trkpt lat="47.85922" lon="6.77794">
        <ele>730.8</ele>
        <time>2022-08-17T06:51:33Z</time>
      </trkpt>
      <trkpt lat="47.85922" lon="6.77795">
        <ele>730.7</ele>
        <time>2022-08-17T06:51:34Z</time>
      </trkpt>
      <trkpt lat="47.85922" lon="6.77796">
        <ele>730.6</ele>
        <time>2022-08-17T06:51:35Z</time>
      </trkpt>
      <trkpt lat="47.85921" lon="6.77797">
        <ele>730.9</ele>
        <time>2022-08-17T06:51:36Z</time>
      </trkpt>
      <trkpt lat="47.8592" lon="6.77798">
        <ele>731.2</ele>
        <time>2022-08-17T06:51:37Z</time>
      </trkpt>
      <trkpt lat="47.8592" lon="6.778">
        <ele>731.1</ele>
        <time>2022-08-17T06:51:38Z</time>
      </trkpt>
      <trkpt lat="47.85919" lon="6.77801">
        <ele>731.4</ele>
        <time>2022-08-17T06:51:39Z</time>
      </trkpt>
      <trkpt lat="47.85919" lon="6.77802">
        <ele>731.3</ele>
        <time>2022-08-17T06:51:40Z</time>
      </trkpt>
      <trkpt lat="47.85918" lon="6.77803">
        <ele>731.6</ele>
        <time>2022-08-17T06:51:41Z</time>
      </trkpt>
      <trkpt lat="47.85917" lon="6.77804">
        <ele>732</ele>
        <time>2022-08-17T06:51:42Z</time>
      </trkpt>
      <trkpt lat="47.85917" lon="6.77805">
        <ele>731.9</ele>
        <time>2022-08-17T06:51:43Z</time>
      </trkpt>
      <trkpt lat="47.85916" lon="6.77806">
        <ele>732.1</ele>
        <time>2022-08-17T06:51:44Z</time>
      </trkpt>
      <trkpt lat="47.85916" lon="6.77807">
        <ele>732</ele>
        <time>2022-08-17T06:51:45Z</time>
      </trkpt>
      <trkpt lat="47.85915" lon="6.77808">
        <ele>732.1</ele>
        <time>2022-08-17T06:51:46Z</time>
      </trkpt>
      <trkpt lat="47.85915" lon="6.77809">
        <ele>732</ele>
        <time>2022-08-17T06:51:47Z</time>
      </trkpt>
      <trkpt lat="47.85914" lon="6.77811">
        <ele>732</ele>
        <time>2022-08-17T06:51:48Z</time>
      </trkpt>
      <trkpt lat="47.85914" lon="6.77812">
        <ele>731.9</ele>
        <time>2022-08-17T06:51:49Z</time>
      </trkpt>
      <trkpt lat="47.85913" lon="6.77813">
        <ele>732</ele>
        <time>2022-08-17T06:51:50Z</time>
      </trkpt>
      <trkpt lat="47.85913" lon="6.77814">
        <ele>731.9</ele>
        <time>2022-08-17T06:51:51Z</time>
      </trkpt>
      <trkpt lat="47.85913" lon="6.77815">
        <ele>731.8</ele>
        <time>2022-08-17T06:51:52Z</time>
      </trkpt>
      <trkpt lat="47.85912" lon="6.77816">
        <ele>731.9</ele>
        <time>2022-08-17T06:51:53Z</time>
      </trkpt>
      <trkpt lat="47.85912" lon="6.77817">
        <ele>731.8</ele>
        <time>2022-08-17T06:51:54Z</time>
      </trkpt>
      <trkpt lat="47.85911" lon="6.77818">
        <ele>732</ele>
        <time>2022-08-17T06:51:55Z</time>
      </trkpt>
      <trkpt lat="47.85911" lon="6.7782">
        <ele>731.8</ele>
        <time>2022-08-17T06:51:56Z</time>
      </trkpt>
      <trkpt lat="47.8591" lon="6.77821">
        <ele>731.9</ele>
        <time>2022-08-17T06:51:57Z</time>
      </trkpt>
      <trkpt lat="47.85909" lon="6.77822">
        <ele>732</ele>
        <time>2022-08-17T06:51:58Z</time>
      </trkpt>
      <trkpt lat="47.85909" lon="6.77823">
        <ele>731.9</ele>
        <time>2022-08-17T06:51:59Z</time>
      </trkpt>
      <trkpt lat="47.85908" lon="6.77824">
        <ele>732.1</ele>
        <time>2022-08-17T06:52:00Z</time>
      </trkpt>
      <trkpt lat="47.85908" lon="6.77825">
        <ele>732</ele>
        <time>2022-08-17T06:52:01Z</time>
      </trkpt>
      <trkpt lat="47.85907" lon="6.77826">
        <ele>732.1</ele>
        <time>2022-08-17T06:52:02Z</time>
      </trkpt>
      <trkpt lat="47.85906" lon="6.77827">
        <ele>732.3</ele>
        <time>2022-08-17T06:52:03Z</time>
      </trkpt>
      <trkpt lat="47.85906" lon="6.77829">
        <ele>732.1</ele>
        <time>2022-08-17T06:52:04Z</time>
      </trkpt>
      <trkpt lat="47.85905" lon="6.7783">
        <ele>732.2</ele>
        <time>2022-08-17T06:52:05Z</time>
      </trkpt>
      <trkpt lat="47.85904" lon="6.77831">
        <ele>732.4</ele>
        <time>2022-08-17T06:52:06Z</time>
      </trkpt>
      <trkpt lat="47.85904" lon="6.77832">
        <ele>732.3</ele>
        <time>2022-08-17T06:52:07Z</time>
      </trkpt>
      <trkpt lat="47.85903" lon="6.77833">
        <ele>732.5</ele>
        <time>2022-08-17T06:52:08Z</time>
      </trkpt>
      <trkpt lat="47.85902" lon="6.77834">
        <ele>732.6</ele>
        <time>2022-08-17T06:52:09Z</time>
      </trkpt>
      <trkpt lat="47.85902" lon="6.77835">
        <ele>732.5</ele>
        <time>2022-08-17T06:52:10Z</time>
      </trkpt>
      <trkpt lat="47.85901" lon="6.77836">
        <ele>732.6</ele>
        <time>2022-08-17T06:52:11Z</time>
      </trkpt>
      <trkpt lat="47.859" lon="6.77837">
        <ele>732.8</ele>
        <time>2022-08-17T06:52:12Z</time>
      </trkpt>
      <trkpt lat="47.859" lon="6.77839">
        <ele>732.5</ele>
        <time>2022-08-17T06:52:13Z</time>
      </trkpt>
      <trkpt lat="47.85899" lon="6.7784">
        <ele>732.7</ele>
        <time>2022-08-17T06:52:14Z</time>
      </trkpt>
      <trkpt lat="47.85898" lon="6.77841">
        <ele>732.9</ele>
        <time>2022-08-17T06:52:15Z</time>
      </trkpt>
      <trkpt lat="47.85898" lon="6.77842">
        <ele>732.8</ele>
        <time>2022-08-17T06:52:16Z</time>
      </trkpt>
      <trkpt lat="47.85897" lon="6.77843">
        <ele>733</ele>
        <time>2022-08-17T06:52:17Z</time>
      </trkpt>
      <trkpt lat="47.85897" lon="6.77844">
        <ele>732.9</ele>
        <time>2022-08-17T06:52:18Z</time>
      </trkpt>
      <trkpt lat="47.85896" lon="6.77845">
        <ele>733</ele>
        <time>2022-08-17T06:52:19Z</time>
      </trkpt>
      <trkpt lat="47.85895" lon="6.77846">
        <ele>733.2</ele>
        <time>2022-08-17T06:52:20Z</time>
      </trkpt>
      <trkpt lat="47.85895" lon="6.77847">
        <ele>733.2</ele>
        <time>2022-08-17T06:52:21Z</time>
      </trkpt>
      <trkpt lat="47.85894" lon="6.77848">
        <ele>733.4</ele>
        <time>2022-08-17T06:52:22Z</time>
      </trkpt>
      <trkpt lat="47.85893" lon="6.77849">
        <ele>733.6</ele>
        <time>2022-08-17T06:52:23Z</time>
      </trkpt>
      <trkpt lat="47.85893" lon="6.7785">
        <ele>733.5</ele>
        <time>2022-08-17T06:52:24Z</time>
      </trkpt>
      <trkpt lat="47.85892" lon="6.77851">
        <ele>733.7</ele>
        <time>2022-08-17T06:52:25Z</time>
      </trkpt>
      <trkpt lat="47.85891" lon="6.77852">
        <ele>734</ele>
        <time>2022-08-17T06:52:26Z</time>
      </trkpt>
      <trkpt lat="47.85891" lon="6.77853">
        <ele>733.9</ele>
        <time>2022-08-17T06:52:27Z</time>
      </trkpt>
      <trkpt lat="47.8589" lon="6.77853">
        <ele>734.2</ele>
        <time>2022-08-17T06:52:28Z</time>
      </trkpt>
      <trkpt lat="47.8589" lon="6.77854">
        <ele>734.1</ele>
        <time>2022-08-17T06:52:29Z</time>
      </trkpt>
      <trkpt lat="47.85889" lon="6.77855">
        <ele>734.4</ele>
        <time>2022-08-17T06:52:30Z</time>
      </trkpt>
      <trkpt lat="47.85888" lon="6.77856">
        <ele>734.6</ele>
        <time>2022-08-17T06:52:31Z</time>
      </trkpt>
      <trkpt lat="47.85888" lon="6.77857">
        <ele>734.5</ele>
        <time>2022-08-17T06:52:32Z</time>
      </trkpt>
      <trkpt lat="47.85887" lon="6.77858">
        <ele>734.6</ele>
        <time>2022-08-17T06:52:33Z</time>
      </trkpt>
      <trkpt lat="47.85886" lon="6.77859">
        <ele>734.8</ele>
        <time>2022-08-17T06:52:34Z</time>
      </trkpt>
      <trkpt lat="47.85886" lon="6.7786">
        <ele>734.7</ele>
        <time>2022-08-17T06:52:35Z</time>
      </trkpt>
      <trkpt lat="47.85885" lon="6.77861">
        <ele>734.8</ele>
        <time>2022-08-17T06:52:36Z</time>
      </trkpt>
      <trkpt lat="47.85884" lon="6.77862">
        <ele>735</ele>
        <time>2022-08-17T06:52:37Z</time>
      </trkpt>
      <trkpt lat="47.85884" lon="6.77863">
        <ele>734.9</ele>
        <time>2022-08-17T06:52:38Z</time>
      </trkpt>
      <trkpt lat="47.85883" lon="6.77864">
        <ele>735</ele>
        <time>2022-08-17T06:52:39Z</time>
      </trkpt>
      <trkpt lat="47.85882" lon="6.77865">
        <ele>735.1</ele>
        <time>2022-08-17T06:52:40Z</time>
      </trkpt>
      <trkpt lat="47.85882" lon="6.77866">
        <ele>735</ele>
        <time>2022-08-17T06:52:41Z</time>
      </trkpt>
      <trkpt lat="47.85881" lon="6.77867">
        <ele>735.1</ele>
        <time>2022-08-17T06:52:42Z</time>
      </trkpt>
      <trkpt lat="47.8588" lon="6.77868">
        <ele>735.2</ele>
        <time>2022-08-17T06:52:43Z</time>
      </trkpt>
      <trkpt lat="47.8588" lon="6.77869">
        <ele>735.1</ele>
        <time>2022-08-17T06:52:44Z</time>
      </trkpt>
      <trkpt lat="47.85879" lon="6.7787">
        <ele>735.2</ele>
        <time>2022-08-17T06:52:45Z</time>
      </trkpt>
      <trkpt lat="47.85879" lon="6.77871">
        <ele>735.1</ele>
        <time>2022-08-17T06:52:46Z</time>
      </trkpt>
      <trkpt lat="47.85878" lon="6.77872">
        <ele>735.2</ele>
        <time>2022-08-17T06:52:47Z</time>
      </trkpt>
      <trkpt lat="47.85877" lon="6.77873">
        <ele>735.3</ele>
        <time>2022-08-17T06:52:48Z</time>
      </trkpt>
      <trkpt lat="47.85876" lon="6.77874">
        <ele>735.4</ele>
        <time>2022-08-17T06:52:49Z</time>
      </trkpt>
      <trkpt lat="47.85876" lon="6.77875">
        <ele>735.3</ele>
        <time>2022-08-17T06:52:50Z</time>
      </trkpt>
      <trkpt lat="47.85875" lon="6.77876">
        <ele>735.4</ele>
        <time>2022-08-17T06:52:51Z</time>
      </trkpt>
      <trkpt lat="47.85874" lon="6.77877">
        <ele>735.5</ele>
        <time>2022-08-17T06:52:52Z</time>
      </trkpt>
      <trkpt lat="47.85873" lon="6.77878">
        <ele>735.6</ele>
        <time>2022-08-17T06:52:53Z</time>
      </trkpt>
      <trkpt lat="47.85872" lon="6.77879">
        <ele>735.7</ele>
        <time>2022-08-17T06:52:54Z</time>
      </trkpt>
      <trkpt lat="47.85871" lon="6.77879">
        <ele>735.9</ele>
        <time>2022-08-17T06:52:55Z</time>
      </trkpt>
      <trkpt lat="47.85871" lon="6.7788">
        <ele>735.8</ele>
        <time>2022-08-17T06:52:56Z</time>
      </trkpt>
      <trkpt lat="47.8587" lon="6.7788">
        <ele>736</ele>
        <time>2022-08-17T06:52:57Z</time>
      </trkpt>
      <trkpt lat="47.85869" lon="6.77881">
        <ele>736.1</ele>
        <time>2022-08-17T06:52:58Z</time>
      </trkpt>
      <trkpt lat="47.85868" lon="6.77882">
        <ele>736.3</ele>
        <time>2022-08-17T06:52:59Z</time>
      </trkpt>
      <trkpt lat="47.85867" lon="6.77882">
        <ele>736.5</ele>
        <time>2022-08-17T06:53:00Z</time>
      </trkpt>
      <trkpt lat="47.85866" lon="6.77883">
        <ele>736.6</ele>
        <time>2022-08-17T06:53:01Z</time>
      </trkpt>
      <trkpt lat="47.85865" lon="6.77884">
        <ele>736.7</ele>
        <time>2022-08-17T06:53:02Z</time>
      </trkpt>
      <trkpt lat="47.85864" lon="6.77885">
        <ele>736.8</ele>
        <time>2022-08-17T06:53:03Z</time>
      </trkpt>
      <trkpt lat="47.85862" lon="6.77887">
        <ele>737</ele>
        <time>2022-08-17T06:53:04Z</time>
      </trkpt>
      <trkpt lat="47.85861" lon="6.77888">
        <ele>737.1</ele>
        <time>2022-08-17T06:53:06Z</time>
      </trkpt>
      <trkpt lat="47.8586" lon="6.77888">
        <ele>737.3</ele>
        <time>2022-08-17T06:53:07Z</time>
      </trkpt>
      <trkpt lat="47.85859" lon="6.77889">
        <ele>737.3</ele>
        <time>2022-08-17T06:53:08Z</time>
      </trkpt>
      <trkpt lat="47.85858" lon="6.7789">
        <ele>737.3</ele>
        <time>2022-08-17T06:53:10Z</time>
      </trkpt>
      <trkpt lat="47.85857" lon="6.77891">
        <ele>737.4</ele>
        <time>2022-08-17T06:53:12Z</time>
      </trkpt>
      <trkpt lat="47.85857" lon="6.77892">
        <ele>737.3</ele>
        <time>2022-08-17T06:53:13Z</time>
      </trkpt>
      <trkpt lat="47.85856" lon="6.77892">
        <ele>737.4</ele>
        <time>2022-08-17T06:53:14Z</time>
      </trkpt>
      <trkpt lat="47.85855" lon="6.77893">
        <ele>737.5</ele>
        <time>2022-08-17T06:53:15Z</time>
      </trkpt>
      <trkpt lat="47.85855" lon="6.77894">
        <ele>737.4</ele>
        <time>2022-08-17T06:53:16Z</time>
      </trkpt>
      <trkpt lat="47.85854" lon="6.77895">
        <ele>737.4</ele>
        <time>2022-08-17T06:53:17Z</time>
      </trkpt>
      <trkpt lat="47.85853" lon="6.77896">
        <ele>737.5</ele>
        <time>2022-08-17T06:53:18Z</time>
      </trkpt>
      <trkpt lat="47.85852" lon="6.77897">
        <ele>737.5</ele>
        <time>2022-08-17T06:53:20Z</time>
      </trkpt>
      <trkpt lat="47.85851" lon="6.77897">
        <ele>737.7</ele>
        <time>2022-08-17T06:53:21Z</time>
      </trkpt>
      <trkpt lat="47.85851" lon="6.77898">
        <ele>737.6</ele>
        <time>2022-08-17T06:53:22Z</time>
      </trkpt>
      <trkpt lat="47.8585" lon="6.77898">
        <ele>737.7</ele>
        <time>2022-08-17T06:53:23Z</time>
      </trkpt>
      <trkpt lat="47.8585" lon="6.77899">
        <ele>737.7</ele>
        <time>2022-08-17T06:54:00Z</time>
      </trkpt>
      <trkpt lat="47.85849" lon="6.77899">
        <ele>737.8</ele>
        <time>2022-08-17T06:54:01Z</time>
      </trkpt>
      <trkpt lat="47.85849" lon="6.779">
        <ele>737.7</ele>
        <time>2022-08-17T06:54:02Z</time>
      </trkpt>
      <trkpt lat="47.85848" lon="6.77899">
        <ele>738</ele>
        <time>2022-08-17T06:54:26Z</time>
      </trkpt>
      <trkpt lat="47.85847" lon="6.77899">
        <ele>738.1</ele>
        <time>2022-08-17T06:54:27Z</time>
      </trkpt>
      <trkpt lat="47.85846" lon="6.77898">
        <ele>738.4</ele>
        <time>2022-08-17T06:54:28Z</time>
      </trkpt>
      <trkpt lat="47.85845" lon="6.77897">
        <ele>738.6</ele>
        <time>2022-08-17T06:54:30Z</time>
      </trkpt>
      <trkpt lat="47.85844" lon="6.77897">
        <ele>738.8</ele>
        <time>2022-08-17T06:54:31Z</time>
      </trkpt>
      <trkpt lat="47.85843" lon="6.77897">
        <ele>738.9</ele>
        <time>2022-08-17T06:54:32Z</time>
      </trkpt>
      <trkpt lat="47.85843" lon="6.77896">
        <ele>739</ele>
        <time>2022-08-17T06:54:33Z</time>
      </trkpt>
      <trkpt lat="47.85842" lon="6.77896">
        <ele>739.2</ele>
        <time>2022-08-17T06:54:34Z</time>
      </trkpt>
      <trkpt lat="47.85841" lon="6.77896">
        <ele>739.3</ele>
        <time>2022-08-17T06:57:14Z</time>
      </trkpt>
      <trkpt lat="47.8584" lon="6.77896">
        <ele>739.5</ele>
        <time>2022-08-17T06:57:16Z</time>
      </trkpt>
      <trkpt lat="47.85839" lon="6.77896">
        <ele>739.6</ele>
        <time>2022-08-17T06:57:18Z</time>
      </trkpt>
      <trkpt lat="47.85839" lon="6.77897">
        <ele>739.5</ele>
        <time>2022-08-17T06:57:19Z</time>
      </trkpt>
      <trkpt lat="47.85838" lon="6.77898">
        <ele>739.6</ele>
        <time>2022-08-17T06:57:20Z</time>
      </trkpt>
      <trkpt lat="47.85837" lon="6.77898">
        <ele>739.8</ele>
        <time>2022-08-17T06:57:21Z</time>
      </trkpt>
      <trkpt lat="47.85836" lon="6.77899">
        <ele>739.9</ele>
        <time>2022-08-17T06:57:22Z</time>
      </trkpt>
      <trkpt lat="47.85835" lon="6.779">
        <ele>739.9</ele>
        <time>2022-08-17T06:57:23Z</time>
      </trkpt>
      <trkpt lat="47.85835" lon="6.77901">
        <ele>739.9</ele>
        <time>2022-08-17T06:57:24Z</time>
      </trkpt>
      <trkpt lat="47.85834" lon="6.77902">
        <ele>739.9</ele>
        <time>2022-08-17T06:57:25Z</time>
      </trkpt>
      <trkpt lat="47.85833" lon="6.77903">
        <ele>740.1</ele>
        <time>2022-08-17T06:57:26Z</time>
      </trkpt>
      <trkpt lat="47.85833" lon="6.77904">
        <ele>740</ele>
        <time>2022-08-17T06:57:27Z</time>
      </trkpt>
      <trkpt lat="47.85832" lon="6.77905">
        <ele>740.2</ele>
        <time>2022-08-17T06:57:28Z</time>
      </trkpt>
      <trkpt lat="47.85832" lon="6.77906">
        <ele>740.1</ele>
        <time>2022-08-17T06:57:29Z</time>
      </trkpt>
      <trkpt lat="47.85831" lon="6.77907">
        <ele>740.3</ele>
        <time>2022-08-17T06:57:30Z</time>
      </trkpt>
      <trkpt lat="47.85831" lon="6.77908">
        <ele>740.2</ele>
        <time>2022-08-17T06:57:31Z</time>
      </trkpt>
      <trkpt lat="47.85831" lon="6.77909">
        <ele>740.2</ele>
        <time>2022-08-17T06:57:32Z</time>
      </trkpt>
      <trkpt lat="47.85831" lon="6.77911">
        <ele>740</ele>
        <time>2022-08-17T06:57:33Z</time>
      </trkpt>
      <trkpt lat="47.8583" lon="6.77912">
        <ele>740.2</ele>
        <time>2022-08-17T06:57:34Z</time>
      </trkpt>
      <trkpt lat="47.8583" lon="6.77914">
        <ele>740</ele>
        <time>2022-08-17T06:57:35Z</time>
      </trkpt>
      <trkpt lat="47.8583" lon="6.77915">
        <ele>740</ele>
        <time>2022-08-17T06:57:36Z</time>
      </trkpt>
      <trkpt lat="47.85829" lon="6.77916">
        <ele>740.1</ele>
        <time>2022-08-17T06:57:37Z</time>
      </trkpt>
      <trkpt lat="47.85829" lon="6.77917">
        <ele>740.1</ele>
        <time>2022-08-17T06:57:38Z</time>
      </trkpt>
      <trkpt lat="47.85828" lon="6.77919">
        <ele>740.2</ele>
        <time>2022-08-17T06:57:39Z</time>
      </trkpt>
      <trkpt lat="47.85828" lon="6.7792">
        <ele>740.1</ele>
        <time>2022-08-17T06:57:40Z</time>
      </trkpt>
      <trkpt lat="47.85828" lon="6.77922">
        <ele>740</ele>
        <time>2022-08-17T06:57:41Z</time>
      </trkpt>
      <trkpt lat="47.85828" lon="6.77923">
        <ele>739.9</ele>
        <time>2022-08-17T06:57:42Z</time>
      </trkpt>
      <trkpt lat="47.85828" lon="6.77924">
        <ele>739.9</ele>
        <time>2022-08-17T06:57:43Z</time>
      </trkpt>
      <trkpt lat="47.85827" lon="6.77925">
        <ele>740.1</ele>
        <time>2022-08-17T06:57:44Z</time>
      </trkpt>
      <trkpt lat="47.85827" lon="6.77927">
        <ele>739.9</ele>
        <time>2022-08-17T06:57:45Z</time>
      </trkpt>
      <trkpt lat="47.85826" lon="6.77928">
        <ele>740.1</ele>
        <time>2022-08-17T06:57:46Z</time>
      </trkpt>
      <trkpt lat="47.85826" lon="6.77929">
        <ele>740.1</ele>
        <time>2022-08-17T06:57:47Z</time>
      </trkpt>
      <trkpt lat="47.85826" lon="6.77931">
        <ele>740</ele>
        <time>2022-08-17T06:57:48Z</time>
      </trkpt>
      <trkpt lat="47.85826" lon="6.77932">
        <ele>739.9</ele>
        <time>2022-08-17T06:57:49Z</time>
      </trkpt>
      <trkpt lat="47.85826" lon="6.77933">
        <ele>739.8</ele>
        <time>2022-08-17T06:57:50Z</time>
      </trkpt>
      <trkpt lat="47.85826" lon="6.77935">
        <ele>739.7</ele>
        <time>2022-08-17T06:57:51Z</time>
      </trkpt>
      <trkpt lat="47.85826" lon="6.77936">
        <ele>739.6</ele>
        <time>2022-08-17T06:57:52Z</time>
      </trkpt>
      <trkpt lat="47.85826" lon="6.77937">
        <ele>739.6</ele>
        <time>2022-08-17T06:57:53Z</time>
      </trkpt>
      <trkpt lat="47.85827" lon="6.77939">
        <ele>739.2</ele>
        <time>2022-08-17T06:57:54Z</time>
      </trkpt>
      <trkpt lat="47.85827" lon="6.77941">
        <ele>739</ele>
        <time>2022-08-17T06:57:55Z</time>
      </trkpt>
      <trkpt lat="47.85827" lon="6.77942">
        <ele>739</ele>
        <time>2022-08-17T06:57:56Z</time>
      </trkpt>
      <trkpt lat="47.85827" lon="6.77944">
        <ele>738.9</ele>
        <time>2022-08-17T06:57:57Z</time>
      </trkpt>
      <trkpt lat="47.85827" lon="6.77945">
        <ele>738.8</ele>
        <time>2022-08-17T06:57:58Z</time>
      </trkpt>
      <trkpt lat="47.85828" lon="6.77947">
        <ele>738.4</ele>
        <time>2022-08-17T06:57:59Z</time>
      </trkpt>
      <trkpt lat="47.85828" lon="6.77948">
        <ele>738.4</ele>
        <time>2022-08-17T06:58:00Z</time>
      </trkpt>
      <trkpt lat="47.85828" lon="6.7795">
        <ele>738.3</ele>
        <time>2022-08-17T06:58:01Z</time>
      </trkpt>
      <trkpt lat="47.85828" lon="6.77951">
        <ele>738.2</ele>
        <time>2022-08-17T06:58:02Z</time>
      </trkpt>
      <trkpt lat="47.85828" lon="6.77953">
        <ele>738.2</ele>
        <time>2022-08-17T06:58:03Z</time>
      </trkpt>
      <trkpt lat="47.85828" lon="6.77954">
        <ele>738.1</ele>
        <time>2022-08-17T06:58:04Z</time>
      </trkpt>
      <trkpt lat="47.85828" lon="6.77956">
        <ele>738</ele>
        <time>2022-08-17T06:58:05Z</time>
      </trkpt>
      <trkpt lat="47.85829" lon="6.77957">
        <ele>737.6</ele>
        <time>2022-08-17T06:58:06Z</time>
      </trkpt>
      <trkpt lat="47.85829" lon="6.77959">
        <ele>737.5</ele>
        <time>2022-08-17T06:58:07Z</time>
      </trkpt>
      <trkpt lat="47.85829" lon="6.7796">
        <ele>737.5</ele>
        <time>2022-08-17T06:58:08Z</time>
      </trkpt>
      <trkpt lat="47.85829" lon="6.77962">
        <ele>737.4</ele>
        <time>2022-08-17T06:58:09Z</time>
      </trkpt>
      <trkpt lat="47.85829" lon="6.77963">
        <ele>737.3</ele>
        <time>2022-08-17T06:58:10Z</time>
      </trkpt>
      <trkpt lat="47.85829" lon="6.77965">
        <ele>737.2</ele>
        <time>2022-08-17T06:58:11Z</time>
      </trkpt>
      <trkpt lat="47.85829" lon="6.77967">
        <ele>737.1</ele>
        <time>2022-08-17T06:58:12Z</time>
      </trkpt>
      <trkpt lat="47.85829" lon="6.77968">
        <ele>737.1</ele>
        <time>2022-08-17T06:58:13Z</time>
      </trkpt>
      <trkpt lat="47.85829" lon="6.7797">
        <ele>737</ele>
        <time>2022-08-17T06:58:14Z</time>
      </trkpt>
      <trkpt lat="47.85829" lon="6.77971">
        <ele>736.9</ele>
        <time>2022-08-17T06:58:15Z</time>
      </trkpt>
      <trkpt lat="47.85829" lon="6.77973">
        <ele>736.9</ele>
        <time>2022-08-17T06:58:16Z</time>
      </trkpt>
      <trkpt lat="47.8583" lon="6.77974">
        <ele>736.4</ele>
        <time>2022-08-17T06:58:17Z</time>
      </trkpt>
      <trkpt lat="47.85829" lon="6.77975">
        <ele>736.9</ele>
        <time>2022-08-17T06:58:18Z</time>
      </trkpt>
      <trkpt lat="47.85829" lon="6.77977">
        <ele>736.9</ele>
        <time>2022-08-17T06:58:19Z</time>
      </trkpt>
      <trkpt lat="47.85829" lon="6.77978">
        <ele>736.9</ele>
        <time>2022-08-17T06:58:20Z</time>
      </trkpt>
      <trkpt lat="47.85829" lon="6.7798">
        <ele>736.9</ele>
        <time>2022-08-17T06:58:21Z</time>
      </trkpt>
      <trkpt lat="47.85828" lon="6.77982">
        <ele>737.3</ele>
        <time>2022-08-17T06:58:22Z</time>
      </trkpt>
      <trkpt lat="47.85828" lon="6.77983">
        <ele>737.3</ele>
        <time>2022-08-17T06:58:23Z</time>
      </trkpt>
      <trkpt lat="47.85828" lon="6.77985">
        <ele>737.3</ele>
        <time>2022-08-17T06:58:24Z</time>
      </trkpt>
      <trkpt lat="47.85828" lon="6.77987">
        <ele>737.3</ele>
        <time>2022-08-17T06:58:25Z</time>
      </trkpt>
      <trkpt lat="47.85828" lon="6.77988">
        <ele>737.3</ele>
        <time>2022-08-17T06:58:26Z</time>
      </trkpt>
      <trkpt lat="47.85828" lon="6.7799">
        <ele>737.3</ele>
        <time>2022-08-17T06:58:27Z</time>
      </trkpt>
      <trkpt lat="47.85828" lon="6.77991">
        <ele>737.3</ele>
        <time>2022-08-17T06:58:28Z</time>
      </trkpt>
      <trkpt lat="47.85828" lon="6.77993">
        <ele>737.3</ele>
        <time>2022-08-17T06:58:29Z</time>
      </trkpt>
      <trkpt lat="47.85828" lon="6.77995">
        <ele>737.3</ele>
        <time>2022-08-17T06:58:30Z</time>
      </trkpt>
      <trkpt lat="47.85829" lon="6.77996">
        <ele>736.9</ele>
        <time>2022-08-17T06:58:31Z</time>
      </trkpt>
      <trkpt lat="47.85828" lon="6.77998">
        <ele>737.3</ele>
        <time>2022-08-17T06:58:32Z</time>
      </trkpt>
      <trkpt lat="47.85828" lon="6.77999">
        <ele>737.3</ele>
        <time>2022-08-17T06:58:33Z</time>
      </trkpt>
      <trkpt lat="47.85828" lon="6.78001">
        <ele>737.3</ele>
        <time>2022-08-17T06:58:34Z</time>
      </trkpt>
      <trkpt lat="47.85828" lon="6.78002">
        <ele>737.3</ele>
        <time>2022-08-17T06:58:35Z</time>
      </trkpt>
      <trkpt lat="47.85828" lon="6.78004">
        <ele>737.4</ele>
        <time>2022-08-17T06:58:36Z</time>
      </trkpt>
      <trkpt lat="47.85828" lon="6.78005">
        <ele>737.4</ele>
        <time>2022-08-17T06:58:37Z</time>
      </trkpt>
      <trkpt lat="47.85828" lon="6.78007">
        <ele>737.5</ele>
        <time>2022-08-17T06:58:38Z</time>
      </trkpt>
      <trkpt lat="47.85828" lon="6.78008">
        <ele>737.5</ele>
        <time>2022-08-17T06:58:39Z</time>
      </trkpt>
      <trkpt lat="47.85828" lon="6.78009">
        <ele>737.5</ele>
        <time>2022-08-17T06:58:40Z</time>
      </trkpt>
      <trkpt lat="47.85828" lon="6.78011">
        <ele>737.5</ele>
        <time>2022-08-17T06:58:41Z</time>
      </trkpt>
      <trkpt lat="47.85828" lon="6.78012">
        <ele>737.6</ele>
        <time>2022-08-17T06:58:42Z</time>
      </trkpt>
      <trkpt lat="47.85828" lon="6.78013">
        <ele>737.6</ele>
        <time>2022-08-17T06:58:43Z</time>
      </trkpt>
      <trkpt lat="47.85828" lon="6.78015">
        <ele>737.6</ele>
        <time>2022-08-17T06:58:44Z</time>
      </trkpt>
      <trkpt lat="47.85827" lon="6.78016">
        <ele>738</ele>
        <time>2022-08-17T06:58:45Z</time>
      </trkpt>
      <trkpt lat="47.85827" lon="6.78017">
        <ele>738.1</ele>
        <time>2022-08-17T06:58:46Z</time>
      </trkpt>
      <trkpt lat="47.85826" lon="6.78019">
        <ele>738.5</ele>
        <time>2022-08-17T06:58:47Z</time>
      </trkpt>
      <trkpt lat="47.85825" lon="6.7802">
        <ele>738.9</ele>
        <time>2022-08-17T06:58:48Z</time>
      </trkpt>
      <trkpt lat="47.85825" lon="6.78021">
        <ele>738.9</ele>
        <time>2022-08-17T06:58:49Z</time>
      </trkpt>
      <trkpt lat="47.85824" lon="6.78022">
        <ele>739.3</ele>
        <time>2022-08-17T06:58:50Z</time>
      </trkpt>
      <trkpt lat="47.85823" lon="6.78024">
        <ele>739.7</ele>
        <time>2022-08-17T06:58:51Z</time>
      </trkpt>
      <trkpt lat="47.85823" lon="6.78026">
        <ele>739.7</ele>
        <time>2022-08-17T06:58:52Z</time>
      </trkpt>
      <trkpt lat="47.85822" lon="6.78027">
        <ele>740.1</ele>
        <time>2022-08-17T06:58:53Z</time>
      </trkpt>
      <trkpt lat="47.85822" lon="6.78029">
        <ele>740.1</ele>
        <time>2022-08-17T06:58:54Z</time>
      </trkpt>
      <trkpt lat="47.85822" lon="6.78032">
        <ele>740.2</ele>
        <time>2022-08-17T06:59:21Z</time>
      </trkpt>
      <trkpt lat="47.85822" lon="6.78033">
        <ele>740.3</ele>
        <time>2022-08-17T06:59:23Z</time>
      </trkpt>
      <trkpt lat="47.85822" lon="6.78034">
        <ele>740.3</ele>
        <time>2022-08-17T06:59:24Z</time>
      </trkpt>
      <trkpt lat="47.85821" lon="6.78035">
        <ele>740.7</ele>
        <time>2022-08-17T06:59:25Z</time>
      </trkpt>
      <trkpt lat="47.85821" lon="6.78036">
        <ele>740.7</ele>
        <time>2022-08-17T06:59:26Z</time>
      </trkpt>
      <trkpt lat="47.85821" lon="6.78038">
        <ele>740.8</ele>
        <time>2022-08-17T06:59:27Z</time>
      </trkpt>
      <trkpt lat="47.85821" lon="6.78039">
        <ele>740.8</ele>
        <time>2022-08-17T06:59:28Z</time>
      </trkpt>
      <trkpt lat="47.85821" lon="6.78041">
        <ele>740.9</ele>
        <time>2022-08-17T06:59:29Z</time>
      </trkpt>
      <trkpt lat="47.85821" lon="6.78042">
        <ele>741</ele>
        <time>2022-08-17T06:59:30Z</time>
      </trkpt>
      <trkpt lat="47.85821" lon="6.78043">
        <ele>741</ele>
        <time>2022-08-17T06:59:31Z</time>
      </trkpt>
      <trkpt lat="47.85821" lon="6.78045">
        <ele>741.1</ele>
        <time>2022-08-17T06:59:32Z</time>
      </trkpt>
      <trkpt lat="47.85821" lon="6.78046">
        <ele>741.1</ele>
        <time>2022-08-17T06:59:33Z</time>
      </trkpt>
      <trkpt lat="47.85821" lon="6.78047">
        <ele>741.1</ele>
        <time>2022-08-17T06:59:34Z</time>
      </trkpt>
      <trkpt lat="47.8582" lon="6.78049">
        <ele>741.6</ele>
        <time>2022-08-17T06:59:35Z</time>
      </trkpt>
      <trkpt lat="47.85821" lon="6.7805">
        <ele>741.2</ele>
        <time>2022-08-17T06:59:36Z</time>
      </trkpt>
      <trkpt lat="47.85821" lon="6.78051">
        <ele>741.3</ele>
        <time>2022-08-17T06:59:37Z</time>
      </trkpt>
      <trkpt lat="47.85821" lon="6.78052">
        <ele>741.3</ele>
        <time>2022-08-17T06:59:38Z</time>
      </trkpt>
      <trkpt lat="47.85821" lon="6.78054">
        <ele>741.4</ele>
        <time>2022-08-17T06:59:39Z</time>
      </trkpt>
      <trkpt lat="47.85821" lon="6.78055">
        <ele>741.4</ele>
        <time>2022-08-17T06:59:40Z</time>
      </trkpt>
      <trkpt lat="47.85822" lon="6.78057">
        <ele>741.1</ele>
        <time>2022-08-17T06:59:41Z</time>
      </trkpt>
      <trkpt lat="47.85822" lon="6.78059">
        <ele>741.2</ele>
        <time>2022-08-17T06:59:42Z</time>
      </trkpt>
      <trkpt lat="47.85822" lon="6.7806">
        <ele>741.2</ele>
        <time>2022-08-17T06:59:43Z</time>
      </trkpt>
      <trkpt lat="47.85823" lon="6.78062">
        <ele>740.9</ele>
        <time>2022-08-17T06:59:44Z</time>
      </trkpt>
      <trkpt lat="47.85823" lon="6.78063">
        <ele>740.9</ele>
        <time>2022-08-17T06:59:45Z</time>
      </trkpt>
      <trkpt lat="47.85823" lon="6.78064">
        <ele>740.9</ele>
        <time>2022-08-17T06:59:46Z</time>
      </trkpt>
      <trkpt lat="47.85824" lon="6.78066">
        <ele>740.6</ele>
        <time>2022-08-17T06:59:47Z</time>
      </trkpt>
      <trkpt lat="47.85824" lon="6.78067">
        <ele>740.6</ele>
        <time>2022-08-17T06:59:49Z</time>
      </trkpt>
      <trkpt lat="47.85824" lon="6.78069">
        <ele>740.7</ele>
        <time>2022-08-17T06:59:50Z</time>
      </trkpt>
      <trkpt lat="47.85824" lon="6.7807">
        <ele>740.7</ele>
        <time>2022-08-17T06:59:51Z</time>
      </trkpt>
      <trkpt lat="47.85824" lon="6.78071">
        <ele>740.7</ele>
        <time>2022-08-17T06:59:52Z</time>
      </trkpt>
      <trkpt lat="47.85824" lon="6.78073">
        <ele>740.8</ele>
        <time>2022-08-17T06:59:53Z</time>
      </trkpt>
      <trkpt lat="47.85823" lon="6.78074">
        <ele>741.1</ele>
        <time>2022-08-17T06:59:54Z</time>
      </trkpt>
      <trkpt lat="47.85823" lon="6.78075">
        <ele>741.2</ele>
        <time>2022-08-17T06:59:55Z</time>
      </trkpt>
      <trkpt lat="47.85823" lon="6.78076">
        <ele>741.2</ele>
        <time>2022-08-17T06:59:56Z</time>
      </trkpt>
      <trkpt lat="47.85822" lon="6.78077">
        <ele>741.5</ele>
        <time>2022-08-17T06:59:57Z</time>
      </trkpt>
      <trkpt lat="47.85822" lon="6.78078">
        <ele>741.6</ele>
        <time>2022-08-17T06:59:58Z</time>
      </trkpt>
      <trkpt lat="47.85822" lon="6.78079">
        <ele>741.6</ele>
        <time>2022-08-17T06:59:59Z</time>
      </trkpt>
      <trkpt lat="47.85822" lon="6.7808">
        <ele>741.6</ele>
        <time>2022-08-17T07:00:00Z</time>
      </trkpt>
      <trkpt lat="47.85821" lon="6.78082">
        <ele>742</ele>
        <time>2022-08-17T07:00:01Z</time>
      </trkpt>
      <trkpt lat="47.8582" lon="6.78084">
        <ele>742.3</ele>
        <time>2022-08-17T07:00:02Z</time>
      </trkpt>
      <trkpt lat="47.85819" lon="6.78086">
        <ele>742.5</ele>
        <time>2022-08-17T07:00:03Z</time>
      </trkpt>
      <trkpt lat="47.85818" lon="6.78088">
        <ele>742.6</ele>
        <time>2022-08-17T07:00:04Z</time>
      </trkpt>
      <trkpt lat="47.85817" lon="6.7809">
        <ele>742.9</ele>
        <time>2022-08-17T07:00:05Z</time>
      </trkpt>
      <trkpt lat="47.85816" lon="6.78092">
        <ele>743.1</ele>
        <time>2022-08-17T07:00:06Z</time>
      </trkpt>
      <trkpt lat="47.85816" lon="6.78093">
        <ele>743</ele>
        <time>2022-08-17T07:00:07Z</time>
      </trkpt>
      <trkpt lat="47.85815" lon="6.78095">
        <ele>743.2</ele>
        <time>2022-08-17T07:00:08Z</time>
      </trkpt>
      <trkpt lat="47.85814" lon="6.78096">
        <ele>743.5</ele>
        <time>2022-08-17T07:00:09Z</time>
      </trkpt>
      <trkpt lat="47.85813" lon="6.78097">
        <ele>743.8</ele>
        <time>2022-08-17T07:00:10Z</time>
      </trkpt>
      <trkpt lat="47.85813" lon="6.78098">
        <ele>743.8</ele>
        <time>2022-08-17T07:00:11Z</time>
      </trkpt>
      <trkpt lat="47.85812" lon="6.78099">
        <ele>744.1</ele>
        <time>2022-08-17T07:00:12Z</time>
      </trkpt>
      <trkpt lat="47.85811" lon="6.781">
        <ele>744.4</ele>
        <time>2022-08-17T07:00:13Z</time>
      </trkpt>
      <trkpt lat="47.8581" lon="6.781">
        <ele>744.8</ele>
        <time>2022-08-17T07:00:14Z</time>
      </trkpt>
      <trkpt lat="47.85809" lon="6.78101">
        <ele>745.1</ele>
        <time>2022-08-17T07:00:15Z</time>
      </trkpt>
      <trkpt lat="47.85808" lon="6.78102">
        <ele>745.4</ele>
        <time>2022-08-17T07:00:16Z</time>
      </trkpt>
      <trkpt lat="47.85807" lon="6.78103">
        <ele>745.8</ele>
        <time>2022-08-17T07:00:17Z</time>
      </trkpt>
      <trkpt lat="47.85807" lon="6.78104">
        <ele>745.7</ele>
        <time>2022-08-17T07:00:18Z</time>
      </trkpt>
      <trkpt lat="47.85806" lon="6.78105">
        <ele>746.1</ele>
        <time>2022-08-17T07:00:19Z</time>
      </trkpt>
      <trkpt lat="47.85805" lon="6.78106">
        <ele>746.4</ele>
        <time>2022-08-17T07:00:20Z</time>
      </trkpt>
      <trkpt lat="47.85804" lon="6.78107">
        <ele>746.7</ele>
        <time>2022-08-17T07:00:21Z</time>
      </trkpt>
      <trkpt lat="47.85803" lon="6.78109">
        <ele>746.9</ele>
        <time>2022-08-17T07:00:22Z</time>
      </trkpt>
      <trkpt lat="47.85802" lon="6.7811">
        <ele>747.2</ele>
        <time>2022-08-17T07:00:23Z</time>
      </trkpt>
      <trkpt lat="47.85801" lon="6.78111">
        <ele>747.5</ele>
        <time>2022-08-17T07:00:24Z</time>
      </trkpt>
      <trkpt lat="47.858" lon="6.78112">
        <ele>747.7</ele>
        <time>2022-08-17T07:00:25Z</time>
      </trkpt>
      <trkpt lat="47.858" lon="6.78113">
        <ele>747.5</ele>
        <time>2022-08-17T07:00:26Z</time>
      </trkpt>
      <trkpt lat="47.85799" lon="6.78115">
        <ele>747.6</ele>
        <time>2022-08-17T07:00:27Z</time>
      </trkpt>
      <trkpt lat="47.85799" lon="6.78116">
        <ele>747.4</ele>
        <time>2022-08-17T07:00:28Z</time>
      </trkpt>
      <trkpt lat="47.85798" lon="6.78117">
        <ele>747.6</ele>
        <time>2022-08-17T07:00:29Z</time>
      </trkpt>
      <trkpt lat="47.85798" lon="6.78118">
        <ele>747.5</ele>
        <time>2022-08-17T07:00:30Z</time>
      </trkpt>
      <trkpt lat="47.85797" lon="6.78119">
        <ele>747.6</ele>
        <time>2022-08-17T07:00:31Z</time>
      </trkpt>
      <trkpt lat="47.85797" lon="6.7812">
        <ele>747.5</ele>
        <time>2022-08-17T07:00:32Z</time>
      </trkpt>
      <trkpt lat="47.85796" lon="6.78121">
        <ele>747.7</ele>
        <time>2022-08-17T07:00:33Z</time>
      </trkpt>
      <trkpt lat="47.85796" lon="6.78122">
        <ele>747.5</ele>
        <time>2022-08-17T07:00:34Z</time>
      </trkpt>
      <trkpt lat="47.85795" lon="6.78123">
        <ele>747.7</ele>
        <time>2022-08-17T07:00:35Z</time>
      </trkpt>
      <trkpt lat="47.85794" lon="6.78124">
        <ele>747.9</ele>
        <time>2022-08-17T07:00:36Z</time>
      </trkpt>
      <trkpt lat="47.85794" lon="6.78125">
        <ele>747.7</ele>
        <time>2022-08-17T07:00:37Z</time>
      </trkpt>
      <trkpt lat="47.85793" lon="6.78126">
        <ele>747.9</ele>
        <time>2022-08-17T07:00:38Z</time>
      </trkpt>
      <trkpt lat="47.85792" lon="6.78127">
        <ele>748.1</ele>
        <time>2022-08-17T07:00:39Z</time>
      </trkpt>
      <trkpt lat="47.85791" lon="6.78128">
        <ele>748.3</ele>
        <time>2022-08-17T07:00:40Z</time>
      </trkpt>
      <trkpt lat="47.85791" lon="6.78129">
        <ele>748.1</ele>
        <time>2022-08-17T07:00:41Z</time>
      </trkpt>
      <trkpt lat="47.8579" lon="6.7813">
        <ele>748.3</ele>
        <time>2022-08-17T07:00:42Z</time>
      </trkpt>
      <trkpt lat="47.8579" lon="6.78131">
        <ele>748.2</ele>
        <time>2022-08-17T07:00:43Z</time>
      </trkpt>
      <trkpt lat="47.85789" lon="6.78132">
        <ele>748.4</ele>
        <time>2022-08-17T07:00:44Z</time>
      </trkpt>
      <trkpt lat="47.85788" lon="6.78134">
        <ele>748.4</ele>
        <time>2022-08-17T07:00:45Z</time>
      </trkpt>
      <trkpt lat="47.85788" lon="6.78135">
        <ele>748.2</ele>
        <time>2022-08-17T07:00:46Z</time>
      </trkpt>
      <trkpt lat="47.85787" lon="6.78136">
        <ele>748.4</ele>
        <time>2022-08-17T07:00:47Z</time>
      </trkpt>
      <trkpt lat="47.85786" lon="6.78137">
        <ele>748.6</ele>
        <time>2022-08-17T07:00:48Z</time>
      </trkpt>
      <trkpt lat="47.85785" lon="6.78138">
        <ele>748.8</ele>
        <time>2022-08-17T07:00:49Z</time>
      </trkpt>
      <trkpt lat="47.85785" lon="6.78139">
        <ele>748.6</ele>
        <time>2022-08-17T07:00:50Z</time>
      </trkpt>
      <trkpt lat="47.85784" lon="6.7814">
        <ele>748.8</ele>
        <time>2022-08-17T07:00:51Z</time>
      </trkpt>
      <trkpt lat="47.85783" lon="6.78142">
        <ele>748.9</ele>
        <time>2022-08-17T07:00:52Z</time>
      </trkpt>
      <trkpt lat="47.85782" lon="6.78143">
        <ele>749.1</ele>
        <time>2022-08-17T07:00:53Z</time>
      </trkpt>
      <trkpt lat="47.85782" lon="6.78144">
        <ele>749</ele>
        <time>2022-08-17T07:00:54Z</time>
      </trkpt>
      <trkpt lat="47.85781" lon="6.78145">
        <ele>749.1</ele>
        <time>2022-08-17T07:00:55Z</time>
      </trkpt>
      <trkpt lat="47.85781" lon="6.78146">
        <ele>749</ele>
        <time>2022-08-17T07:00:56Z</time>
      </trkpt>
      <trkpt lat="47.8578" lon="6.78147">
        <ele>749.2</ele>
        <time>2022-08-17T07:00:57Z</time>
      </trkpt>
      <trkpt lat="47.85779" lon="6.78148">
        <ele>749.3</ele>
        <time>2022-08-17T07:00:58Z</time>
      </trkpt>
      <trkpt lat="47.85778" lon="6.78149">
        <ele>749.5</ele>
        <time>2022-08-17T07:01:00Z</time>
      </trkpt>
      <trkpt lat="47.85777" lon="6.7815">
        <ele>749.6</ele>
        <time>2022-08-17T07:01:01Z</time>
      </trkpt>
      <trkpt lat="47.85776" lon="6.78151">
        <ele>749.7</ele>
        <time>2022-08-17T07:01:02Z</time>
      </trkpt>
      <trkpt lat="47.85775" lon="6.78152">
        <ele>749.9</ele>
        <time>2022-08-17T07:01:03Z</time>
      </trkpt>
      <trkpt lat="47.85774" lon="6.78153">
        <ele>750</ele>
        <time>2022-08-17T07:01:04Z</time>
      </trkpt>
      <trkpt lat="47.85773" lon="6.78155">
        <ele>750</ele>
        <time>2022-08-17T07:01:05Z</time>
      </trkpt>
      <trkpt lat="47.85772" lon="6.78156">
        <ele>750.1</ele>
        <time>2022-08-17T07:01:06Z</time>
      </trkpt>
      <trkpt lat="47.85771" lon="6.78157">
        <ele>750.2</ele>
        <time>2022-08-17T07:01:07Z</time>
      </trkpt>
      <trkpt lat="47.8577" lon="6.78158">
        <ele>750.3</ele>
        <time>2022-08-17T07:01:08Z</time>
      </trkpt>
      <trkpt lat="47.85769" lon="6.78159">
        <ele>750.4</ele>
        <time>2022-08-17T07:01:09Z</time>
      </trkpt>
      <trkpt lat="47.85768" lon="6.7816">
        <ele>750.5</ele>
        <time>2022-08-17T07:01:10Z</time>
      </trkpt>
      <trkpt lat="47.85767" lon="6.78161">
        <ele>750.6</ele>
        <time>2022-08-17T07:01:11Z</time>
      </trkpt>
      <trkpt lat="47.85766" lon="6.78162">
        <ele>750.7</ele>
        <time>2022-08-17T07:01:12Z</time>
      </trkpt>
      <trkpt lat="47.85764" lon="6.78163">
        <ele>751.1</ele>
        <time>2022-08-17T07:01:13Z</time>
      </trkpt>
      <trkpt lat="47.85764" lon="6.78164">
        <ele>750.9</ele>
        <time>2022-08-17T07:01:14Z</time>
      </trkpt>
      <trkpt lat="47.85763" lon="6.78165">
        <ele>751</ele>
        <time>2022-08-17T07:01:15Z</time>
      </trkpt>
      <trkpt lat="47.85762" lon="6.78165">
        <ele>751.3</ele>
        <time>2022-08-17T07:01:16Z</time>
      </trkpt>
      <trkpt lat="47.85761" lon="6.78166">
        <ele>751.3</ele>
        <time>2022-08-17T07:01:17Z</time>
      </trkpt>
      <trkpt lat="47.85761" lon="6.78167">
        <ele>751.2</ele>
        <time>2022-08-17T07:01:18Z</time>
      </trkpt>
      <trkpt lat="47.8576" lon="6.78168">
        <ele>751.3</ele>
        <time>2022-08-17T07:01:19Z</time>
      </trkpt>
      <trkpt lat="47.85759" lon="6.78168">
        <ele>751.5</ele>
        <time>2022-08-17T07:01:20Z</time>
      </trkpt>
      <trkpt lat="47.85759" lon="6.78169">
        <ele>751.4</ele>
        <time>2022-08-17T07:01:21Z</time>
      </trkpt>
      <trkpt lat="47.85758" lon="6.78169">
        <ele>751.6</ele>
        <time>2022-08-17T07:01:22Z</time>
      </trkpt>
      <trkpt lat="47.85758" lon="6.7817">
        <ele>751.5</ele>
        <time>2022-08-17T07:01:23Z</time>
      </trkpt>
      <trkpt lat="47.85757" lon="6.78171">
        <ele>751.6</ele>
        <time>2022-08-17T07:01:24Z</time>
      </trkpt>
      <trkpt lat="47.85756" lon="6.78171">
        <ele>751.9</ele>
        <time>2022-08-17T07:01:25Z</time>
      </trkpt>
      <trkpt lat="47.85756" lon="6.78172">
        <ele>751.7</ele>
        <time>2022-08-17T07:01:26Z</time>
      </trkpt>
      <trkpt lat="47.85755" lon="6.78173">
        <ele>751.8</ele>
        <time>2022-08-17T07:01:27Z</time>
      </trkpt>
      <trkpt lat="47.85754" lon="6.78174">
        <ele>751.9</ele>
        <time>2022-08-17T07:01:28Z</time>
      </trkpt>
      <trkpt lat="47.85753" lon="6.78175">
        <ele>752</ele>
        <time>2022-08-17T07:01:29Z</time>
      </trkpt>
      <trkpt lat="47.85752" lon="6.78175">
        <ele>752.3</ele>
        <time>2022-08-17T07:01:30Z</time>
      </trkpt>
      <trkpt lat="47.85752" lon="6.78176">
        <ele>752.2</ele>
        <time>2022-08-17T07:01:31Z</time>
      </trkpt>
      <trkpt lat="47.85751" lon="6.78177">
        <ele>752.3</ele>
        <time>2022-08-17T07:01:32Z</time>
      </trkpt>
      <trkpt lat="47.8575" lon="6.78177">
        <ele>752.5</ele>
        <time>2022-08-17T07:01:33Z</time>
      </trkpt>
      <trkpt lat="47.85749" lon="6.78178">
        <ele>752.6</ele>
        <time>2022-08-17T07:01:34Z</time>
      </trkpt>
      <trkpt lat="47.85749" lon="6.78179">
        <ele>752.5</ele>
        <time>2022-08-17T07:01:35Z</time>
      </trkpt>
      <trkpt lat="47.85748" lon="6.7818">
        <ele>752.6</ele>
        <time>2022-08-17T07:01:36Z</time>
      </trkpt>
      <trkpt lat="47.85747" lon="6.78181">
        <ele>752.7</ele>
        <time>2022-08-17T07:01:37Z</time>
      </trkpt>
      <trkpt lat="47.85746" lon="6.78181">
        <ele>753</ele>
        <time>2022-08-17T07:01:38Z</time>
      </trkpt>
      <trkpt lat="47.85746" lon="6.78182">
        <ele>752.9</ele>
        <time>2022-08-17T07:01:39Z</time>
      </trkpt>
      <trkpt lat="47.85745" lon="6.78183">
        <ele>753</ele>
        <time>2022-08-17T07:01:40Z</time>
      </trkpt>
      <trkpt lat="47.85744" lon="6.78183">
        <ele>753.2</ele>
        <time>2022-08-17T07:01:41Z</time>
      </trkpt>
      <trkpt lat="47.85743" lon="6.78184">
        <ele>753.4</ele>
        <time>2022-08-17T07:01:42Z</time>
      </trkpt>
      <trkpt lat="47.85742" lon="6.78185">
        <ele>753.5</ele>
        <time>2022-08-17T07:01:43Z</time>
      </trkpt>
      <trkpt lat="47.85741" lon="6.78186">
        <ele>753.6</ele>
        <time>2022-08-17T07:01:44Z</time>
      </trkpt>
      <trkpt lat="47.8574" lon="6.78186">
        <ele>753.8</ele>
        <time>2022-08-17T07:01:45Z</time>
      </trkpt>
      <trkpt lat="47.85739" lon="6.78187">
        <ele>754</ele>
        <time>2022-08-17T07:01:46Z</time>
      </trkpt>
      <trkpt lat="47.85738" lon="6.78188">
        <ele>754.1</ele>
        <time>2022-08-17T07:01:47Z</time>
      </trkpt>
      <trkpt lat="47.85738" lon="6.78189">
        <ele>753.9</ele>
        <time>2022-08-17T07:01:48Z</time>
      </trkpt>
      <trkpt lat="47.85737" lon="6.78189">
        <ele>754.2</ele>
        <time>2022-08-17T07:01:49Z</time>
      </trkpt>
      <trkpt lat="47.85736" lon="6.7819">
        <ele>754.2</ele>
        <time>2022-08-17T07:01:50Z</time>
      </trkpt>
      <trkpt lat="47.85735" lon="6.7819">
        <ele>754.5</ele>
        <time>2022-08-17T07:01:51Z</time>
      </trkpt>
      <trkpt lat="47.85735" lon="6.78191">
        <ele>754.3</ele>
        <time>2022-08-17T07:01:52Z</time>
      </trkpt>
      <trkpt lat="47.85734" lon="6.78192">
        <ele>754.4</ele>
        <time>2022-08-17T07:01:53Z</time>
      </trkpt>
      <trkpt lat="47.85733" lon="6.78193">
        <ele>754.5</ele>
        <time>2022-08-17T07:01:54Z</time>
      </trkpt>
      <trkpt lat="47.85732" lon="6.78193">
        <ele>754.8</ele>
        <time>2022-08-17T07:01:55Z</time>
      </trkpt>
      <trkpt lat="47.85731" lon="6.78194">
        <ele>754.9</ele>
        <time>2022-08-17T07:01:56Z</time>
      </trkpt>
      <trkpt lat="47.85731" lon="6.78195">
        <ele>754.7</ele>
        <time>2022-08-17T07:01:57Z</time>
      </trkpt>
      <trkpt lat="47.8573" lon="6.78195">
        <ele>754.9</ele>
        <time>2022-08-17T07:01:58Z</time>
      </trkpt>
      <trkpt lat="47.85729" lon="6.78196">
        <ele>755</ele>
        <time>2022-08-17T07:01:59Z</time>
      </trkpt>
      <trkpt lat="47.85728" lon="6.78196">
        <ele>755.3</ele>
        <time>2022-08-17T07:02:00Z</time>
      </trkpt>
      <trkpt lat="47.85727" lon="6.78196">
        <ele>755.5</ele>
        <time>2022-08-17T07:02:01Z</time>
      </trkpt>
      <trkpt lat="47.85726" lon="6.78197">
        <ele>755.6</ele>
        <time>2022-08-17T07:02:02Z</time>
      </trkpt>
      <trkpt lat="47.85725" lon="6.78197">
        <ele>755.8</ele>
        <time>2022-08-17T07:02:03Z</time>
      </trkpt>
      <trkpt lat="47.85724" lon="6.78197">
        <ele>756.1</ele>
        <time>2022-08-17T07:02:04Z</time>
      </trkpt>
      <trkpt lat="47.85723" lon="6.78197">
        <ele>756.3</ele>
        <time>2022-08-17T07:02:05Z</time>
      </trkpt>
      <trkpt lat="47.85722" lon="6.78197">
        <ele>756.6</ele>
        <time>2022-08-17T07:02:06Z</time>
      </trkpt>
      <trkpt lat="47.85721" lon="6.78198">
        <ele>756.6</ele>
        <time>2022-08-17T07:02:07Z</time>
      </trkpt>
      <trkpt lat="47.8572" lon="6.78198">
        <ele>756.8</ele>
        <time>2022-08-17T07:02:09Z</time>
      </trkpt>
      <trkpt lat="47.85719" lon="6.78198">
        <ele>757</ele>
        <time>2022-08-17T07:02:10Z</time>
      </trkpt>
      <trkpt lat="47.85718" lon="6.78199">
        <ele>757</ele>
        <time>2022-08-17T07:02:11Z</time>
      </trkpt>
      <trkpt lat="47.85717" lon="6.782">
        <ele>757</ele>
        <time>2022-08-17T07:02:13Z</time>
      </trkpt>
      <trkpt lat="47.85716" lon="6.782">
        <ele>757.2</ele>
        <time>2022-08-17T07:02:14Z</time>
      </trkpt>
      <trkpt lat="47.85715" lon="6.78201">
        <ele>757.2</ele>
        <time>2022-08-17T07:02:15Z</time>
      </trkpt>
      <trkpt lat="47.85714" lon="6.78202">
        <ele>757.3</ele>
        <time>2022-08-17T07:02:16Z</time>
      </trkpt>
      <trkpt lat="47.85713" lon="6.78202">
        <ele>757.5</ele>
        <time>2022-08-17T07:02:18Z</time>
      </trkpt>
      <trkpt lat="47.85712" lon="6.78202">
        <ele>757.7</ele>
        <time>2022-08-17T07:02:19Z</time>
      </trkpt>
      <trkpt lat="47.85711" lon="6.78203">
        <ele>757.7</ele>
        <time>2022-08-17T07:02:20Z</time>
      </trkpt>
      <trkpt lat="47.8571" lon="6.78203">
        <ele>757.9</ele>
        <time>2022-08-17T07:02:21Z</time>
      </trkpt>
      <trkpt lat="47.85709" lon="6.78204">
        <ele>758</ele>
        <time>2022-08-17T07:02:22Z</time>
      </trkpt>
      <trkpt lat="47.85708" lon="6.78204">
        <ele>758.2</ele>
        <time>2022-08-17T07:02:23Z</time>
      </trkpt>
      <trkpt lat="47.85707" lon="6.78204">
        <ele>758.4</ele>
        <time>2022-08-17T07:02:24Z</time>
      </trkpt>
      <trkpt lat="47.85706" lon="6.78205">
        <ele>758.5</ele>
        <time>2022-08-17T07:02:25Z</time>
      </trkpt>
      <trkpt lat="47.85705" lon="6.78205">
        <ele>758.7</ele>
        <time>2022-08-17T07:02:26Z</time>
      </trkpt>
      <trkpt lat="47.85704" lon="6.78206">
        <ele>758.7</ele>
        <time>2022-08-17T07:02:27Z</time>
      </trkpt>
      <trkpt lat="47.85703" lon="6.78207">
        <ele>758.8</ele>
        <time>2022-08-17T07:02:28Z</time>
      </trkpt>
      <trkpt lat="47.85702" lon="6.78208">
        <ele>758.9</ele>
        <time>2022-08-17T07:02:29Z</time>
      </trkpt>
      <trkpt lat="47.85702" lon="6.78209">
        <ele>758.8</ele>
        <time>2022-08-17T07:02:30Z</time>
      </trkpt>
      <trkpt lat="47.85701" lon="6.78211">
        <ele>758.8</ele>
        <time>2022-08-17T07:02:31Z</time>
      </trkpt>
      <trkpt lat="47.857" lon="6.78213">
        <ele>758.7</ele>
        <time>2022-08-17T07:02:32Z</time>
      </trkpt>
      <trkpt lat="47.85699" lon="6.78215">
        <ele>758.7</ele>
        <time>2022-08-17T07:02:33Z</time>
      </trkpt>
      <trkpt lat="47.85698" lon="6.78216">
        <ele>758.8</ele>
        <time>2022-08-17T07:02:34Z</time>
      </trkpt>
      <trkpt lat="47.85698" lon="6.78217">
        <ele>758.7</ele>
        <time>2022-08-17T07:02:35Z</time>
      </trkpt>
      <trkpt lat="47.85698" lon="6.78218">
        <ele>758.6</ele>
        <time>2022-08-17T07:02:36Z</time>
      </trkpt>
      <trkpt lat="47.85697" lon="6.78219">
        <ele>758.7</ele>
        <time>2022-08-17T07:02:37Z</time>
      </trkpt>
      <trkpt lat="47.85697" lon="6.7822">
        <ele>758.6</ele>
        <time>2022-08-17T07:02:38Z</time>
      </trkpt>
      <trkpt lat="47.85696" lon="6.78221">
        <ele>758.7</ele>
        <time>2022-08-17T07:02:39Z</time>
      </trkpt>
      <trkpt lat="47.85696" lon="6.78222">
        <ele>758.6</ele>
        <time>2022-08-17T07:02:41Z</time>
      </trkpt>
      <trkpt lat="47.85695" lon="6.78223">
        <ele>758.7</ele>
        <time>2022-08-17T07:02:42Z</time>
      </trkpt>
      <trkpt lat="47.85695" lon="6.78224">
        <ele>758.5</ele>
        <time>2022-08-17T07:02:43Z</time>
      </trkpt>
      <trkpt lat="47.85694" lon="6.78225">
        <ele>758.7</ele>
        <time>2022-08-17T07:02:45Z</time>
      </trkpt>
      <trkpt lat="47.85694" lon="6.78226">
        <ele>758.5</ele>
        <time>2022-08-17T07:02:46Z</time>
      </trkpt>
      <trkpt lat="47.85693" lon="6.78227">
        <ele>758.8</ele>
        <time>2022-08-17T07:02:47Z</time>
      </trkpt>
      <trkpt lat="47.85692" lon="6.78228">
        <ele>759.1</ele>
        <time>2022-08-17T07:02:48Z</time>
      </trkpt>
      <trkpt lat="47.85692" lon="6.78229">
        <ele>758.9</ele>
        <time>2022-08-17T07:02:49Z</time>
      </trkpt>
      <trkpt lat="47.85691" lon="6.7823">
        <ele>759.2</ele>
        <time>2022-08-17T07:02:50Z</time>
      </trkpt>
      <trkpt lat="47.85691" lon="6.78231">
        <ele>759</ele>
        <time>2022-08-17T07:02:51Z</time>
      </trkpt>
      <trkpt lat="47.8569" lon="6.78233">
        <ele>759.1</ele>
        <time>2022-08-17T07:04:03Z</time>
      </trkpt>
      <trkpt lat="47.8569" lon="6.78234">
        <ele>758.9</ele>
        <time>2022-08-17T07:04:05Z</time>
      </trkpt>
      <trkpt lat="47.8569" lon="6.78235">
        <ele>758.7</ele>
        <time>2022-08-17T07:04:06Z</time>
      </trkpt>
      <trkpt lat="47.8569" lon="6.78236">
        <ele>758.5</ele>
        <time>2022-08-17T07:04:07Z</time>
      </trkpt>
      <trkpt lat="47.85689" lon="6.78237">
        <ele>758.8</ele>
        <time>2022-08-17T07:04:08Z</time>
      </trkpt>
      <trkpt lat="47.85689" lon="6.78238">
        <ele>758.6</ele>
        <time>2022-08-17T07:04:09Z</time>
      </trkpt>
      <trkpt lat="47.85689" lon="6.78239">
        <ele>758.4</ele>
        <time>2022-08-17T07:04:10Z</time>
      </trkpt>
      <trkpt lat="47.85688" lon="6.7824">
        <ele>758.7</ele>
        <time>2022-08-17T07:04:11Z</time>
      </trkpt>
      <trkpt lat="47.85688" lon="6.78242">
        <ele>758.3</ele>
        <time>2022-08-17T07:04:12Z</time>
      </trkpt>
      <trkpt lat="47.85687" lon="6.78243">
        <ele>758.5</ele>
        <time>2022-08-17T07:04:13Z</time>
      </trkpt>
      <trkpt lat="47.85687" lon="6.78244">
        <ele>758.4</ele>
        <time>2022-08-17T07:04:14Z</time>
      </trkpt>
      <trkpt lat="47.85686" lon="6.78245">
        <ele>758.6</ele>
        <time>2022-08-17T07:04:15Z</time>
      </trkpt>
      <trkpt lat="47.85686" lon="6.78246">
        <ele>758.4</ele>
        <time>2022-08-17T07:04:16Z</time>
      </trkpt>
      <trkpt lat="47.85686" lon="6.78247">
        <ele>758.2</ele>
        <time>2022-08-17T07:04:17Z</time>
      </trkpt>
      <trkpt lat="47.85685" lon="6.78248">
        <ele>758.5</ele>
        <time>2022-08-17T07:04:18Z</time>
      </trkpt>
      <trkpt lat="47.85684" lon="6.78249">
        <ele>758.7</ele>
        <time>2022-08-17T07:04:20Z</time>
      </trkpt>
      <trkpt lat="47.85683" lon="6.7825">
        <ele>758.9</ele>
        <time>2022-08-17T07:04:21Z</time>
      </trkpt>
      <trkpt lat="47.85683" lon="6.78251">
        <ele>758.7</ele>
        <time>2022-08-17T07:04:22Z</time>
      </trkpt>
      <trkpt lat="47.85682" lon="6.78252">
        <ele>758.9</ele>
        <time>2022-08-17T07:04:23Z</time>
      </trkpt>
      <trkpt lat="47.85681" lon="6.78253">
        <ele>759.1</ele>
        <time>2022-08-17T07:04:24Z</time>
      </trkpt>
      <trkpt lat="47.85681" lon="6.78255">
        <ele>758.6</ele>
        <time>2022-08-17T07:04:25Z</time>
      </trkpt>
      <trkpt lat="47.8568" lon="6.78256">
        <ele>758.8</ele>
        <time>2022-08-17T07:04:26Z</time>
      </trkpt>
      <trkpt lat="47.8568" lon="6.78258">
        <ele>758.4</ele>
        <time>2022-08-17T07:04:27Z</time>
      </trkpt>
      <trkpt lat="47.8568" lon="6.78259">
        <ele>758.1</ele>
        <time>2022-08-17T07:04:28Z</time>
      </trkpt>
      <trkpt lat="47.85679" lon="6.7826">
        <ele>758.3</ele>
        <time>2022-08-17T07:04:29Z</time>
      </trkpt>
      <trkpt lat="47.85679" lon="6.78262">
        <ele>757.8</ele>
        <time>2022-08-17T07:04:30Z</time>
      </trkpt>
      <trkpt lat="47.85679" lon="6.78263">
        <ele>757.6</ele>
        <time>2022-08-17T07:04:31Z</time>
      </trkpt>
      <trkpt lat="47.85678" lon="6.78264">
        <ele>757.8</ele>
        <time>2022-08-17T07:04:32Z</time>
      </trkpt>
      <trkpt lat="47.85678" lon="6.78265">
        <ele>757.5</ele>
        <time>2022-08-17T07:04:33Z</time>
      </trkpt>
      <trkpt lat="47.85677" lon="6.78266">
        <ele>757.7</ele>
        <time>2022-08-17T07:04:34Z</time>
      </trkpt>
      <trkpt lat="47.85677" lon="6.78268">
        <ele>757.2</ele>
        <time>2022-08-17T07:04:35Z</time>
      </trkpt>
      <trkpt lat="47.85676" lon="6.78269">
        <ele>757.4</ele>
        <time>2022-08-17T07:04:36Z</time>
      </trkpt>
      <trkpt lat="47.85676" lon="6.7827">
        <ele>757.2</ele>
        <time>2022-08-17T07:04:37Z</time>
      </trkpt>
      <trkpt lat="47.85676" lon="6.78271">
        <ele>756.9</ele>
        <time>2022-08-17T07:04:38Z</time>
      </trkpt>
      <trkpt lat="47.85675" lon="6.78272">
        <ele>757.1</ele>
        <time>2022-08-17T07:04:39Z</time>
      </trkpt>
      <trkpt lat="47.85675" lon="6.78273">
        <ele>756.9</ele>
        <time>2022-08-17T07:04:40Z</time>
      </trkpt>
      <trkpt lat="47.85674" lon="6.78274">
        <ele>757</ele>
        <time>2022-08-17T07:04:41Z</time>
      </trkpt>
      <trkpt lat="47.85673" lon="6.78275">
        <ele>757.2</ele>
        <time>2022-08-17T07:04:42Z</time>
      </trkpt>
      <trkpt lat="47.85672" lon="6.78276">
        <ele>757.3</ele>
        <time>2022-08-17T07:04:44Z</time>
      </trkpt>
      <trkpt lat="47.85671" lon="6.78277">
        <ele>757.5</ele>
        <time>2022-08-17T07:04:45Z</time>
      </trkpt>
      <trkpt lat="47.8567" lon="6.78278">
        <ele>757.6</ele>
        <time>2022-08-17T07:04:46Z</time>
      </trkpt>
      <trkpt lat="47.8567" lon="6.78279">
        <ele>757.4</ele>
        <time>2022-08-17T07:04:47Z</time>
      </trkpt>
      <trkpt lat="47.85669" lon="6.7828">
        <ele>757.6</ele>
        <time>2022-08-17T07:04:48Z</time>
      </trkpt>
      <trkpt lat="47.85668" lon="6.78281">
        <ele>757.8</ele>
        <time>2022-08-17T07:04:49Z</time>
      </trkpt>
      <trkpt lat="47.85667" lon="6.78282">
        <ele>758</ele>
        <time>2022-08-17T07:04:50Z</time>
      </trkpt>
      <trkpt lat="47.85666" lon="6.78283">
        <ele>758.2</ele>
        <time>2022-08-17T07:04:51Z</time>
      </trkpt>
      <trkpt lat="47.85665" lon="6.78285">
        <ele>758.2</ele>
        <time>2022-08-17T07:04:52Z</time>
      </trkpt>
      <trkpt lat="47.85665" lon="6.78286">
        <ele>758</ele>
        <time>2022-08-17T07:04:53Z</time>
      </trkpt>
      <trkpt lat="47.85664" lon="6.78288">
        <ele>758.1</ele>
        <time>2022-08-17T07:04:54Z</time>
      </trkpt>
      <trkpt lat="47.85663" lon="6.7829">
        <ele>758.1</ele>
        <time>2022-08-17T07:04:55Z</time>
      </trkpt>
      <trkpt lat="47.85662" lon="6.78292">
        <ele>758.1</ele>
        <time>2022-08-17T07:04:56Z</time>
      </trkpt>
      <trkpt lat="47.85661" lon="6.78294">
        <ele>758.1</ele>
        <time>2022-08-17T07:04:57Z</time>
      </trkpt>
      <trkpt lat="47.8566" lon="6.78295">
        <ele>758.3</ele>
        <time>2022-08-17T07:04:58Z</time>
      </trkpt>
      <trkpt lat="47.85659" lon="6.78296">
        <ele>758.6</ele>
        <time>2022-08-17T07:04:59Z</time>
      </trkpt>
      <trkpt lat="47.85658" lon="6.78297">
        <ele>758.8</ele>
        <time>2022-08-17T07:05:00Z</time>
      </trkpt>
      <trkpt lat="47.85657" lon="6.78298">
        <ele>759</ele>
        <time>2022-08-17T07:05:01Z</time>
      </trkpt>
      <trkpt lat="47.85656" lon="6.78299">
        <ele>759.2</ele>
        <time>2022-08-17T07:05:02Z</time>
      </trkpt>
      <trkpt lat="47.85655" lon="6.783">
        <ele>759.4</ele>
        <time>2022-08-17T07:05:03Z</time>
      </trkpt>
      <trkpt lat="47.85654" lon="6.78302">
        <ele>759.4</ele>
        <time>2022-08-17T07:05:04Z</time>
      </trkpt>
      <trkpt lat="47.85654" lon="6.78303">
        <ele>759.1</ele>
        <time>2022-08-17T07:05:05Z</time>
      </trkpt>
      <trkpt lat="47.85653" lon="6.78304">
        <ele>759.3</ele>
        <time>2022-08-17T07:05:06Z</time>
      </trkpt>
      <trkpt lat="47.85652" lon="6.78305">
        <ele>759.5</ele>
        <time>2022-08-17T07:05:07Z</time>
      </trkpt>
      <trkpt lat="47.85652" lon="6.78306">
        <ele>759.2</ele>
        <time>2022-08-17T07:05:08Z</time>
      </trkpt>
      <trkpt lat="47.85651" lon="6.78308">
        <ele>759.3</ele>
        <time>2022-08-17T07:05:09Z</time>
      </trkpt>
      <trkpt lat="47.8565" lon="6.78309">
        <ele>759.5</ele>
        <time>2022-08-17T07:05:10Z</time>
      </trkpt>
      <trkpt lat="47.8565" lon="6.7831">
        <ele>759.3</ele>
        <time>2022-08-17T07:05:11Z</time>
      </trkpt>
      <trkpt lat="47.85649" lon="6.78311">
        <ele>759.5</ele>
        <time>2022-08-17T07:05:12Z</time>
      </trkpt>
      <trkpt lat="47.85649" lon="6.78312">
        <ele>759.3</ele>
        <time>2022-08-17T07:05:13Z</time>
      </trkpt>
      <trkpt lat="47.85649" lon="6.78313">
        <ele>759.1</ele>
        <time>2022-08-17T07:05:14Z</time>
      </trkpt>
      <trkpt lat="47.8565" lon="6.78314">
        <ele>758.5</ele>
        <time>2022-08-17T07:05:15Z</time>
      </trkpt>
      <trkpt lat="47.8565" lon="6.78316">
        <ele>758.1</ele>
        <time>2022-08-17T07:05:16Z</time>
      </trkpt>
      <trkpt lat="47.8565" lon="6.78317">
        <ele>757.9</ele>
        <time>2022-08-17T07:05:17Z</time>
      </trkpt>
      <trkpt lat="47.8565" lon="6.78319">
        <ele>757.5</ele>
        <time>2022-08-17T07:05:18Z</time>
      </trkpt>
      <trkpt lat="47.85649" lon="6.7832">
        <ele>757.7</ele>
        <time>2022-08-17T07:05:19Z</time>
      </trkpt>
      <trkpt lat="47.85648" lon="6.78322">
        <ele>757.7</ele>
        <time>2022-08-17T07:05:20Z</time>
      </trkpt>
      <trkpt lat="47.85647" lon="6.78323">
        <ele>757.9</ele>
        <time>2022-08-17T07:05:21Z</time>
      </trkpt>
      <trkpt lat="47.85646" lon="6.78325">
        <ele>757.9</ele>
        <time>2022-08-17T07:05:22Z</time>
      </trkpt>
      <trkpt lat="47.85646" lon="6.78326">
        <ele>757.7</ele>
        <time>2022-08-17T07:05:23Z</time>
      </trkpt>
      <trkpt lat="47.85645" lon="6.78327">
        <ele>757.9</ele>
        <time>2022-08-17T07:05:24Z</time>
      </trkpt>
      <trkpt lat="47.85644" lon="6.78328">
        <ele>758.1</ele>
        <time>2022-08-17T07:05:25Z</time>
      </trkpt>
      <trkpt lat="47.85643" lon="6.78329">
        <ele>758.3</ele>
        <time>2022-08-17T07:05:29Z</time>
      </trkpt>
      <trkpt lat="47.85642" lon="6.7833">
        <ele>758.5</ele>
        <time>2022-08-17T07:05:30Z</time>
      </trkpt>
      <trkpt lat="47.85641" lon="6.78331">
        <ele>758.7</ele>
        <time>2022-08-17T07:05:31Z</time>
      </trkpt>
      <trkpt lat="47.85641" lon="6.78332">
        <ele>758.4</ele>
        <time>2022-08-17T07:05:32Z</time>
      </trkpt>
      <trkpt lat="47.8564" lon="6.78333">
        <ele>758.6</ele>
        <time>2022-08-17T07:05:33Z</time>
      </trkpt>
      <trkpt lat="47.8564" lon="6.78334">
        <ele>758.5</ele>
        <time>2022-08-17T07:05:34Z</time>
      </trkpt>
      <trkpt lat="47.8564" lon="6.78336">
        <ele>758.5</ele>
        <time>2022-08-17T07:05:35Z</time>
      </trkpt>
      <trkpt lat="47.85639" lon="6.78337">
        <ele>758.8</ele>
        <time>2022-08-17T07:05:36Z</time>
      </trkpt>
      <trkpt lat="47.85639" lon="6.78339">
        <ele>758.8</ele>
        <time>2022-08-17T07:05:37Z</time>
      </trkpt>
      <trkpt lat="47.85639" lon="6.7834">
        <ele>758.7</ele>
        <time>2022-08-17T07:05:38Z</time>
      </trkpt>
      <trkpt lat="47.85639" lon="6.78341">
        <ele>758.7</ele>
        <time>2022-08-17T07:05:39Z</time>
      </trkpt>
      <trkpt lat="47.85639" lon="6.78342">
        <ele>758.6</ele>
        <time>2022-08-17T07:05:40Z</time>
      </trkpt>
      <trkpt lat="47.85638" lon="6.78343">
        <ele>759</ele>
        <time>2022-08-17T07:05:41Z</time>
      </trkpt>
      <trkpt lat="47.85638" lon="6.78344">
        <ele>759</ele>
        <time>2022-08-17T07:05:42Z</time>
      </trkpt>
      <trkpt lat="47.85637" lon="6.78345">
        <ele>759.4</ele>
        <time>2022-08-17T07:05:43Z</time>
      </trkpt>
      <trkpt lat="47.85637" lon="6.78346">
        <ele>759.4</ele>
        <time>2022-08-17T07:05:44Z</time>
      </trkpt>
      <trkpt lat="47.85636" lon="6.78347">
        <ele>759.8</ele>
        <time>2022-08-17T07:05:45Z</time>
      </trkpt>
      <trkpt lat="47.85635" lon="6.78348">
        <ele>760.1</ele>
        <time>2022-08-17T07:05:47Z</time>
      </trkpt>
      <trkpt lat="47.85635" lon="6.7835">
        <ele>760.1</ele>
        <time>2022-08-17T07:05:48Z</time>
      </trkpt>
      <trkpt lat="47.85634" lon="6.78351">
        <ele>760.4</ele>
        <time>2022-08-17T07:05:49Z</time>
      </trkpt>
      <trkpt lat="47.85634" lon="6.78352">
        <ele>760.4</ele>
        <time>2022-08-17T07:05:50Z</time>
      </trkpt>
      <trkpt lat="47.85633" lon="6.78353">
        <ele>760.7</ele>
        <time>2022-08-17T07:05:51Z</time>
      </trkpt>
      <trkpt lat="47.85633" lon="6.78355">
        <ele>760.6</ele>
        <time>2022-08-17T07:05:52Z</time>
      </trkpt>
      <trkpt lat="47.85632" lon="6.78356">
        <ele>761</ele>
        <time>2022-08-17T07:05:53Z</time>
      </trkpt>
      <trkpt lat="47.85631" lon="6.78358">
        <ele>761.3</ele>
        <time>2022-08-17T07:05:54Z</time>
      </trkpt>
      <trkpt lat="47.8563" lon="6.78359">
        <ele>761.6</ele>
        <time>2022-08-17T07:05:55Z</time>
      </trkpt>
      <trkpt lat="47.85629" lon="6.7836">
        <ele>762</ele>
        <time>2022-08-17T07:05:56Z</time>
      </trkpt>
      <trkpt lat="47.85628" lon="6.78362">
        <ele>762.1</ele>
        <time>2022-08-17T07:05:57Z</time>
      </trkpt>
      <trkpt lat="47.85627" lon="6.78363">
        <ele>762.3</ele>
        <time>2022-08-17T07:05:58Z</time>
      </trkpt>
      <trkpt lat="47.85626" lon="6.78364">
        <ele>762.5</ele>
        <time>2022-08-17T07:05:59Z</time>
      </trkpt>
      <trkpt lat="47.85625" lon="6.78365">
        <ele>762.7</ele>
        <time>2022-08-17T07:06:00Z</time>
      </trkpt>
      <trkpt lat="47.85625" lon="6.78366">
        <ele>762.5</ele>
        <time>2022-08-17T07:06:01Z</time>
      </trkpt>
      <trkpt lat="47.85624" lon="6.78367">
        <ele>762.7</ele>
        <time>2022-08-17T07:06:02Z</time>
      </trkpt>
      <trkpt lat="47.85623" lon="6.78368">
        <ele>762.9</ele>
        <time>2022-08-17T07:06:03Z</time>
      </trkpt>
      <trkpt lat="47.85622" lon="6.78369">
        <ele>763</ele>
        <time>2022-08-17T07:06:04Z</time>
      </trkpt>
      <trkpt lat="47.85621" lon="6.78371">
        <ele>763</ele>
        <time>2022-08-17T07:06:05Z</time>
      </trkpt>
      <trkpt lat="47.8562" lon="6.78372">
        <ele>763.1</ele>
        <time>2022-08-17T07:06:06Z</time>
      </trkpt>
      <trkpt lat="47.8562" lon="6.78373">
        <ele>762.9</ele>
        <time>2022-08-17T07:06:07Z</time>
      </trkpt>
      <trkpt lat="47.85619" lon="6.78374">
        <ele>763</ele>
        <time>2022-08-17T07:06:08Z</time>
      </trkpt>
      <trkpt lat="47.85618" lon="6.78375">
        <ele>763.1</ele>
        <time>2022-08-17T07:06:09Z</time>
      </trkpt>
      <trkpt lat="47.85617" lon="6.78376">
        <ele>763.3</ele>
        <time>2022-08-17T07:06:10Z</time>
      </trkpt>
      <trkpt lat="47.85616" lon="6.78377">
        <ele>763.4</ele>
        <time>2022-08-17T07:06:11Z</time>
      </trkpt>
      <trkpt lat="47.85615" lon="6.78378">
        <ele>763.5</ele>
        <time>2022-08-17T07:06:12Z</time>
      </trkpt>
      <trkpt lat="47.85614" lon="6.7838">
        <ele>763.3</ele>
        <time>2022-08-17T07:06:13Z</time>
      </trkpt>
      <trkpt lat="47.85613" lon="6.78381">
        <ele>763.4</ele>
        <time>2022-08-17T07:06:14Z</time>
      </trkpt>
      <trkpt lat="47.85612" lon="6.78382">
        <ele>763.5</ele>
        <time>2022-08-17T07:06:15Z</time>
      </trkpt>
      <trkpt lat="47.85611" lon="6.78382">
        <ele>763.8</ele>
        <time>2022-08-17T07:06:16Z</time>
      </trkpt>
      <trkpt lat="47.8561" lon="6.78383">
        <ele>763.8</ele>
        <time>2022-08-17T07:06:17Z</time>
      </trkpt>
      <trkpt lat="47.85609" lon="6.78384">
        <ele>763.8</ele>
        <time>2022-08-17T07:06:18Z</time>
      </trkpt>
      <trkpt lat="47.85609" lon="6.78385">
        <ele>763.5</ele>
        <time>2022-08-17T07:06:19Z</time>
      </trkpt>
      <trkpt lat="47.85608" lon="6.78385">
        <ele>763.7</ele>
        <time>2022-08-17T07:06:20Z</time>
      </trkpt>
      <trkpt lat="47.85607" lon="6.78386">
        <ele>763.7</ele>
        <time>2022-08-17T07:06:21Z</time>
      </trkpt>
      <trkpt lat="47.85606" lon="6.78387">
        <ele>763.8</ele>
        <time>2022-08-17T07:06:22Z</time>
      </trkpt>
      <trkpt lat="47.85606" lon="6.78388">
        <ele>763.5</ele>
        <time>2022-08-17T07:06:23Z</time>
      </trkpt>
      <trkpt lat="47.85605" lon="6.78389">
        <ele>763.5</ele>
        <time>2022-08-17T07:06:24Z</time>
      </trkpt>
      <trkpt lat="47.85604" lon="6.78389">
        <ele>763.8</ele>
        <time>2022-08-17T07:06:25Z</time>
      </trkpt>
      <trkpt lat="47.85604" lon="6.7839">
        <ele>763.8</ele>
        <time>2022-08-17T07:06:26Z</time>
      </trkpt>
      <trkpt lat="47.85603" lon="6.78391">
        <ele>764</ele>
        <time>2022-08-17T07:06:27Z</time>
      </trkpt>
      <trkpt lat="47.85603" lon="6.78392">
        <ele>764</ele>
        <time>2022-08-17T07:06:28Z</time>
      </trkpt>
      <trkpt lat="47.85602" lon="6.78392">
        <ele>764.2</ele>
        <time>2022-08-17T07:06:29Z</time>
      </trkpt>
      <trkpt lat="47.85602" lon="6.78393">
        <ele>764.2</ele>
        <time>2022-08-17T07:06:30Z</time>
      </trkpt>
      <trkpt lat="47.85602" lon="6.78394">
        <ele>764.2</ele>
        <time>2022-08-17T07:06:31Z</time>
      </trkpt>
      <trkpt lat="47.85601" lon="6.78395">
        <ele>764.4</ele>
        <time>2022-08-17T07:06:32Z</time>
      </trkpt>
      <trkpt lat="47.85601" lon="6.78396">
        <ele>764.4</ele>
        <time>2022-08-17T07:06:33Z</time>
      </trkpt>
      <trkpt lat="47.856" lon="6.78397">
        <ele>764.6</ele>
        <time>2022-08-17T07:06:34Z</time>
      </trkpt>
      <trkpt lat="47.856" lon="6.78398">
        <ele>764.6</ele>
        <time>2022-08-17T07:06:35Z</time>
      </trkpt>
      <trkpt lat="47.856" lon="6.784">
        <ele>764.6</ele>
        <time>2022-08-17T07:06:36Z</time>
      </trkpt>
      <trkpt lat="47.856" lon="6.78401">
        <ele>764.5</ele>
        <time>2022-08-17T07:06:37Z</time>
      </trkpt>
      <trkpt lat="47.856" lon="6.78403">
        <ele>764.5</ele>
        <time>2022-08-17T07:06:38Z</time>
      </trkpt>
      <trkpt lat="47.856" lon="6.78404">
        <ele>764.5</ele>
        <time>2022-08-17T07:06:39Z</time>
      </trkpt>
      <trkpt lat="47.856" lon="6.78406">
        <ele>764.4</ele>
        <time>2022-08-17T07:06:40Z</time>
      </trkpt>
      <trkpt lat="47.856" lon="6.78407">
        <ele>764.4</ele>
        <time>2022-08-17T07:06:41Z</time>
      </trkpt>
      <trkpt lat="47.856" lon="6.78409">
        <ele>764.4</ele>
        <time>2022-08-17T07:06:42Z</time>
      </trkpt>
      <trkpt lat="47.85601" lon="6.78411">
        <ele>764</ele>
        <time>2022-08-17T07:06:43Z</time>
      </trkpt>
      <trkpt lat="47.85601" lon="6.78412">
        <ele>764</ele>
        <time>2022-08-17T07:06:44Z</time>
      </trkpt>
      <trkpt lat="47.85601" lon="6.78414">
        <ele>764</ele>
        <time>2022-08-17T07:06:45Z</time>
      </trkpt>
      <trkpt lat="47.85602" lon="6.78416">
        <ele>763.6</ele>
        <time>2022-08-17T07:06:46Z</time>
      </trkpt>
      <trkpt lat="47.85602" lon="6.78418">
        <ele>763.8</ele>
        <time>2022-08-17T07:06:47Z</time>
      </trkpt>
      <trkpt lat="47.85603" lon="6.7842">
        <ele>763.7</ele>
        <time>2022-08-17T07:06:48Z</time>
      </trkpt>
      <trkpt lat="47.85603" lon="6.78422">
        <ele>764</ele>
        <time>2022-08-17T07:07:03Z</time>
      </trkpt>
      <trkpt lat="47.85603" lon="6.78423">
        <ele>764.1</ele>
        <time>2022-08-17T07:07:04Z</time>
      </trkpt>
      <trkpt lat="47.85603" lon="6.78424">
        <ele>764.2</ele>
        <time>2022-08-17T07:07:05Z</time>
      </trkpt>
      <trkpt lat="47.85602" lon="6.78425">
        <ele>764.6</ele>
        <time>2022-08-17T07:07:06Z</time>
      </trkpt>
      <trkpt lat="47.85602" lon="6.78426">
        <ele>764.7</ele>
        <time>2022-08-17T07:07:07Z</time>
      </trkpt>
      <trkpt lat="47.85603" lon="6.78427">
        <ele>764.6</ele>
        <time>2022-08-17T07:07:08Z</time>
      </trkpt>
      <trkpt lat="47.85603" lon="6.78428">
        <ele>764.7</ele>
        <time>2022-08-17T07:07:09Z</time>
      </trkpt>
      <trkpt lat="47.85603" lon="6.7843">
        <ele>764.9</ele>
        <time>2022-08-17T07:07:10Z</time>
      </trkpt>
      <trkpt lat="47.85603" lon="6.78431">
        <ele>765</ele>
        <time>2022-08-17T07:07:11Z</time>
      </trkpt>
      <trkpt lat="47.85603" lon="6.78432">
        <ele>765.2</ele>
        <time>2022-08-17T07:07:12Z</time>
      </trkpt>
      <trkpt lat="47.85604" lon="6.78434">
        <ele>765.1</ele>
        <time>2022-08-17T07:07:13Z</time>
      </trkpt>
      <trkpt lat="47.85604" lon="6.78435">
        <ele>765.2</ele>
        <time>2022-08-17T07:07:14Z</time>
      </trkpt>
      <trkpt lat="47.85605" lon="6.78437">
        <ele>765.1</ele>
        <time>2022-08-17T07:07:15Z</time>
      </trkpt>
      <trkpt lat="47.85605" lon="6.78439">
        <ele>765.3</ele>
        <time>2022-08-17T07:07:16Z</time>
      </trkpt>
      <trkpt lat="47.85606" lon="6.7844">
        <ele>765.1</ele>
        <time>2022-08-17T07:07:17Z</time>
      </trkpt>
      <trkpt lat="47.85607" lon="6.78441">
        <ele>764.9</ele>
        <time>2022-08-17T07:07:18Z</time>
      </trkpt>
      <trkpt lat="47.85607" lon="6.78443">
        <ele>765.2</ele>
        <time>2022-08-17T07:07:19Z</time>
      </trkpt>
      <trkpt lat="47.85608" lon="6.78444">
        <ele>765</ele>
        <time>2022-08-17T07:07:20Z</time>
      </trkpt>
      <trkpt lat="47.85609" lon="6.78446">
        <ele>764.8</ele>
        <time>2022-08-17T07:07:21Z</time>
      </trkpt>
      <trkpt lat="47.85609" lon="6.78448">
        <ele>764.9</ele>
        <time>2022-08-17T07:07:22Z</time>
      </trkpt>
      <trkpt lat="47.8561" lon="6.78449">
        <ele>764.7</ele>
        <time>2022-08-17T07:07:23Z</time>
      </trkpt>
      <trkpt lat="47.85611" lon="6.78451">
        <ele>764.5</ele>
        <time>2022-08-17T07:07:24Z</time>
      </trkpt>
      <trkpt lat="47.85611" lon="6.78452">
        <ele>764.6</ele>
        <time>2022-08-17T07:07:25Z</time>
      </trkpt>
      <trkpt lat="47.85612" lon="6.78454">
        <ele>764.3</ele>
        <time>2022-08-17T07:07:26Z</time>
      </trkpt>
      <trkpt lat="47.85612" lon="6.78455">
        <ele>764.4</ele>
        <time>2022-08-17T07:07:27Z</time>
      </trkpt>
      <trkpt lat="47.85613" lon="6.78457">
        <ele>764.2</ele>
        <time>2022-08-17T07:07:28Z</time>
      </trkpt>
      <trkpt lat="47.85614" lon="6.78459">
        <ele>763.9</ele>
        <time>2022-08-17T07:07:29Z</time>
      </trkpt>
      <trkpt lat="47.85615" lon="6.7846">
        <ele>763.6</ele>
        <time>2022-08-17T07:07:30Z</time>
      </trkpt>
      <trkpt lat="47.85615" lon="6.78462">
        <ele>763.7</ele>
        <time>2022-08-17T07:07:31Z</time>
      </trkpt>
      <trkpt lat="47.85616" lon="6.78464">
        <ele>763.4</ele>
        <time>2022-08-17T07:07:32Z</time>
      </trkpt>
      <trkpt lat="47.85617" lon="6.78465">
        <ele>763</ele>
        <time>2022-08-17T07:07:33Z</time>
      </trkpt>
      <trkpt lat="47.85617" lon="6.78466">
        <ele>763.1</ele>
        <time>2022-08-17T07:07:34Z</time>
      </trkpt>
      <trkpt lat="47.85617" lon="6.78467">
        <ele>763.2</ele>
        <time>2022-08-17T07:07:35Z</time>
      </trkpt>
      <trkpt lat="47.85617" lon="6.78468">
        <ele>763.2</ele>
        <time>2022-08-17T07:07:36Z</time>
      </trkpt>
      <trkpt lat="47.85617" lon="6.78469">
        <ele>763.3</ele>
        <time>2022-08-17T07:07:37Z</time>
      </trkpt>
      <trkpt lat="47.85617" lon="6.7847">
        <ele>763.3</ele>
        <time>2022-08-17T07:07:38Z</time>
      </trkpt>
      <trkpt lat="47.85617" lon="6.78471">
        <ele>763.4</ele>
        <time>2022-08-17T07:07:39Z</time>
      </trkpt>
      <trkpt lat="47.85617" lon="6.78472">
        <ele>763.4</ele>
        <time>2022-08-17T07:07:40Z</time>
      </trkpt>
      <trkpt lat="47.85617" lon="6.78474">
        <ele>763.5</ele>
        <time>2022-08-17T07:07:41Z</time>
      </trkpt>
      <trkpt lat="47.85617" lon="6.78476">
        <ele>763.6</ele>
        <time>2022-08-17T07:07:42Z</time>
      </trkpt>
      <trkpt lat="47.85617" lon="6.78477">
        <ele>763.6</ele>
        <time>2022-08-17T07:07:43Z</time>
      </trkpt>
      <trkpt lat="47.85617" lon="6.78479">
        <ele>763.7</ele>
        <time>2022-08-17T07:07:44Z</time>
      </trkpt>
      <trkpt lat="47.85618" lon="6.7848">
        <ele>763.3</ele>
        <time>2022-08-17T07:07:45Z</time>
      </trkpt>
      <trkpt lat="47.85618" lon="6.78482">
        <ele>763.4</ele>
        <time>2022-08-17T07:07:46Z</time>
      </trkpt>
      <trkpt lat="47.85618" lon="6.78483">
        <ele>763.4</ele>
        <time>2022-08-17T07:07:47Z</time>
      </trkpt>
      <trkpt lat="47.85618" lon="6.78485">
        <ele>763.5</ele>
        <time>2022-08-17T07:07:48Z</time>
      </trkpt>
      <trkpt lat="47.85617" lon="6.78486">
        <ele>764</ele>
        <time>2022-08-17T07:07:49Z</time>
      </trkpt>
      <trkpt lat="47.85617" lon="6.78488">
        <ele>764</ele>
        <time>2022-08-17T07:07:50Z</time>
      </trkpt>
      <trkpt lat="47.85617" lon="6.7849">
        <ele>764.1</ele>
        <time>2022-08-17T07:07:51Z</time>
      </trkpt>
      <trkpt lat="47.85617" lon="6.78492">
        <ele>764.2</ele>
        <time>2022-08-17T07:07:52Z</time>
      </trkpt>
      <trkpt lat="47.85617" lon="6.78494">
        <ele>764.2</ele>
        <time>2022-08-17T07:07:53Z</time>
      </trkpt>
      <trkpt lat="47.85617" lon="6.78496">
        <ele>764.3</ele>
        <time>2022-08-17T07:07:54Z</time>
      </trkpt>
      <trkpt lat="47.85617" lon="6.78497">
        <ele>764.3</ele>
        <time>2022-08-17T07:07:55Z</time>
      </trkpt>
      <trkpt lat="47.85617" lon="6.78499">
        <ele>764.4</ele>
        <time>2022-08-17T07:07:56Z</time>
      </trkpt>
      <trkpt lat="47.85617" lon="6.78501">
        <ele>764.5</ele>
        <time>2022-08-17T07:07:57Z</time>
      </trkpt>
      <trkpt lat="47.85617" lon="6.78502">
        <ele>764.6</ele>
        <time>2022-08-17T07:07:58Z</time>
      </trkpt>
      <trkpt lat="47.85617" lon="6.78504">
        <ele>764.7</ele>
        <time>2022-08-17T07:07:59Z</time>
      </trkpt>
      <trkpt lat="47.85617" lon="6.78505">
        <ele>764.7</ele>
        <time>2022-08-17T07:08:00Z</time>
      </trkpt>
      <trkpt lat="47.85617" lon="6.78507">
        <ele>764.8</ele>
        <time>2022-08-17T07:08:01Z</time>
      </trkpt>
      <trkpt lat="47.85617" lon="6.78508">
        <ele>764.9</ele>
        <time>2022-08-17T07:08:02Z</time>
      </trkpt>
      <trkpt lat="47.85617" lon="6.7851">
        <ele>765</ele>
        <time>2022-08-17T07:08:03Z</time>
      </trkpt>
      <trkpt lat="47.85617" lon="6.78511">
        <ele>765</ele>
        <time>2022-08-17T07:08:04Z</time>
      </trkpt>
      <trkpt lat="47.85617" lon="6.78512">
        <ele>765.1</ele>
        <time>2022-08-17T07:08:05Z</time>
      </trkpt>
      <trkpt lat="47.85616" lon="6.78513">
        <ele>765.5</ele>
        <time>2022-08-17T07:08:06Z</time>
      </trkpt>
      <trkpt lat="47.85616" lon="6.78515">
        <ele>765.6</ele>
        <time>2022-08-17T07:08:07Z</time>
      </trkpt>
      <trkpt lat="47.85615" lon="6.78516">
        <ele>766.1</ele>
        <time>2022-08-17T07:08:08Z</time>
      </trkpt>
      <trkpt lat="47.85614" lon="6.78517">
        <ele>766.5</ele>
        <time>2022-08-17T07:08:09Z</time>
      </trkpt>
      <trkpt lat="47.85614" lon="6.78518">
        <ele>766.5</ele>
        <time>2022-08-17T07:08:10Z</time>
      </trkpt>
      <trkpt lat="47.85613" lon="6.7852">
        <ele>767</ele>
        <time>2022-08-17T07:08:11Z</time>
      </trkpt>
      <trkpt lat="47.85613" lon="6.78521">
        <ele>767</ele>
        <time>2022-08-17T07:08:12Z</time>
      </trkpt>
      <trkpt lat="47.85612" lon="6.78522">
        <ele>767.5</ele>
        <time>2022-08-17T07:08:13Z</time>
      </trkpt>
      <trkpt lat="47.85612" lon="6.78523">
        <ele>767.5</ele>
        <time>2022-08-17T07:08:14Z</time>
      </trkpt>
      <trkpt lat="47.85611" lon="6.78525">
        <ele>767.9</ele>
        <time>2022-08-17T07:08:15Z</time>
      </trkpt>
      <trkpt lat="47.85611" lon="6.78526">
        <ele>768</ele>
        <time>2022-08-17T07:08:16Z</time>
      </trkpt>
      <trkpt lat="47.85611" lon="6.78527">
        <ele>768</ele>
        <time>2022-08-17T07:08:17Z</time>
      </trkpt>
      <trkpt lat="47.85611" lon="6.78529">
        <ele>768.1</ele>
        <time>2022-08-17T07:08:18Z</time>
      </trkpt>
      <trkpt lat="47.85611" lon="6.7853">
        <ele>768.2</ele>
        <time>2022-08-17T07:08:19Z</time>
      </trkpt>
      <trkpt lat="47.8561" lon="6.78532">
        <ele>768.7</ele>
        <time>2022-08-17T07:08:20Z</time>
      </trkpt>
      <trkpt lat="47.8561" lon="6.78533">
        <ele>768.8</ele>
        <time>2022-08-17T07:08:21Z</time>
      </trkpt>
      <trkpt lat="47.8561" lon="6.78535">
        <ele>768.9</ele>
        <time>2022-08-17T07:08:22Z</time>
      </trkpt>
      <trkpt lat="47.8561" lon="6.78537">
        <ele>769.1</ele>
        <time>2022-08-17T07:08:23Z</time>
      </trkpt>
      <trkpt lat="47.8561" lon="6.78539">
        <ele>769.2</ele>
        <time>2022-08-17T07:08:24Z</time>
      </trkpt>
      <trkpt lat="47.8561" lon="6.7854">
        <ele>769.3</ele>
        <time>2022-08-17T07:08:25Z</time>
      </trkpt>
      <trkpt lat="47.8561" lon="6.78542">
        <ele>769.4</ele>
        <time>2022-08-17T07:08:26Z</time>
      </trkpt>
      <trkpt lat="47.8561" lon="6.78543">
        <ele>769.5</ele>
        <time>2022-08-17T07:08:27Z</time>
      </trkpt>
      <trkpt lat="47.8561" lon="6.78545">
        <ele>769.6</ele>
        <time>2022-08-17T07:08:28Z</time>
      </trkpt>
      <trkpt lat="47.85611" lon="6.78546">
        <ele>769.3</ele>
        <time>2022-08-17T07:08:29Z</time>
      </trkpt>
      <trkpt lat="47.85611" lon="6.78547">
        <ele>769.4</ele>
        <time>2022-08-17T07:08:30Z</time>
      </trkpt>
      <trkpt lat="47.85611" lon="6.78549">
        <ele>769.6</ele>
        <time>2022-08-17T07:08:31Z</time>
      </trkpt>
      <trkpt lat="47.85611" lon="6.7855">
        <ele>769.6</ele>
        <time>2022-08-17T07:08:32Z</time>
      </trkpt>
      <trkpt lat="47.85611" lon="6.78552">
        <ele>769.8</ele>
        <time>2022-08-17T07:08:33Z</time>
      </trkpt>
      <trkpt lat="47.85611" lon="6.78553">
        <ele>769.9</ele>
        <time>2022-08-17T07:08:34Z</time>
      </trkpt>
      <trkpt lat="47.85611" lon="6.78554">
        <ele>769.9</ele>
        <time>2022-08-17T07:08:35Z</time>
      </trkpt>
      <trkpt lat="47.85611" lon="6.78555">
        <ele>770</ele>
        <time>2022-08-17T07:08:36Z</time>
      </trkpt>
      <trkpt lat="47.85611" lon="6.78556">
        <ele>770.1</ele>
        <time>2022-08-17T07:08:37Z</time>
      </trkpt>
      <trkpt lat="47.85611" lon="6.78557">
        <ele>770.2</ele>
        <time>2022-08-17T07:08:38Z</time>
      </trkpt>
      <trkpt lat="47.8561" lon="6.78559">
        <ele>770.7</ele>
        <time>2022-08-17T07:08:39Z</time>
      </trkpt>
      <trkpt lat="47.8561" lon="6.7856">
        <ele>770.8</ele>
        <time>2022-08-17T07:08:40Z</time>
      </trkpt>
      <trkpt lat="47.8561" lon="6.78561">
        <ele>770.9</ele>
        <time>2022-08-17T07:08:41Z</time>
      </trkpt>
      <trkpt lat="47.85611" lon="6.78563">
        <ele>770.8</ele>
        <time>2022-08-17T07:08:42Z</time>
      </trkpt>
      <trkpt lat="47.85611" lon="6.78564">
        <ele>770.9</ele>
        <time>2022-08-17T07:08:43Z</time>
      </trkpt>
      <trkpt lat="47.85612" lon="6.78566">
        <ele>770.8</ele>
        <time>2022-08-17T07:08:44Z</time>
      </trkpt>
      <trkpt lat="47.85612" lon="6.78568">
        <ele>771</ele>
        <time>2022-08-17T07:08:45Z</time>
      </trkpt>
      <trkpt lat="47.85613" lon="6.78569">
        <ele>770.8</ele>
        <time>2022-08-17T07:08:46Z</time>
      </trkpt>
      <trkpt lat="47.85613" lon="6.78571">
        <ele>771</ele>
        <time>2022-08-17T07:08:47Z</time>
      </trkpt>
      <trkpt lat="47.85614" lon="6.78572">
        <ele>770.8</ele>
        <time>2022-08-17T07:08:48Z</time>
      </trkpt>
      <trkpt lat="47.85614" lon="6.78574">
        <ele>771</ele>
        <time>2022-08-17T07:08:49Z</time>
      </trkpt>
      <trkpt lat="47.85615" lon="6.78575">
        <ele>770.7</ele>
        <time>2022-08-17T07:08:50Z</time>
      </trkpt>
      <trkpt lat="47.85616" lon="6.78576">
        <ele>770.5</ele>
        <time>2022-08-17T07:08:51Z</time>
      </trkpt>
      <trkpt lat="47.85617" lon="6.78578">
        <ele>770.3</ele>
        <time>2022-08-17T07:08:52Z</time>
      </trkpt>
      <trkpt lat="47.85617" lon="6.78579">
        <ele>770.4</ele>
        <time>2022-08-17T07:08:53Z</time>
      </trkpt>
      <trkpt lat="47.85617" lon="6.7858">
        <ele>770.5</ele>
        <time>2022-08-17T07:08:54Z</time>
      </trkpt>
      <trkpt lat="47.85617" lon="6.78581">
        <ele>770.6</ele>
        <time>2022-08-17T07:08:55Z</time>
      </trkpt>
      <trkpt lat="47.85617" lon="6.78583">
        <ele>770.8</ele>
        <time>2022-08-17T07:08:56Z</time>
      </trkpt>
      <trkpt lat="47.85617" lon="6.78584">
        <ele>770.9</ele>
        <time>2022-08-17T07:08:57Z</time>
      </trkpt>
      <trkpt lat="47.85616" lon="6.78585">
        <ele>771.4</ele>
        <time>2022-08-17T07:08:58Z</time>
      </trkpt>
      <trkpt lat="47.85616" lon="6.78586">
        <ele>771.4</ele>
        <time>2022-08-17T07:08:59Z</time>
      </trkpt>
      <trkpt lat="47.85616" lon="6.78588">
        <ele>771.6</ele>
        <time>2022-08-17T07:09:00Z</time>
      </trkpt>
      <trkpt lat="47.85616" lon="6.78589">
        <ele>771.6</ele>
        <time>2022-08-17T07:09:01Z</time>
      </trkpt>
      <trkpt lat="47.85617" lon="6.7859">
        <ele>771.4</ele>
        <time>2022-08-17T07:09:02Z</time>
      </trkpt>
      <trkpt lat="47.85617" lon="6.78592">
        <ele>771.5</ele>
        <time>2022-08-17T07:09:03Z</time>
      </trkpt>
      <trkpt lat="47.85617" lon="6.78593">
        <ele>771.6</ele>
        <time>2022-08-17T07:09:04Z</time>
      </trkpt>
      <trkpt lat="47.85618" lon="6.78594">
        <ele>771.3</ele>
        <time>2022-08-17T07:09:05Z</time>
      </trkpt>
      <trkpt lat="47.85618" lon="6.78595">
        <ele>771.4</ele>
        <time>2022-08-17T07:09:06Z</time>
      </trkpt>
      <trkpt lat="47.85618" lon="6.78597">
        <ele>771.5</ele>
        <time>2022-08-17T07:09:07Z</time>
      </trkpt>
      <trkpt lat="47.85617" lon="6.78598">
        <ele>771.9</ele>
        <time>2022-08-17T07:09:08Z</time>
      </trkpt>
      <trkpt lat="47.85617" lon="6.78599">
        <ele>772</ele>
        <time>2022-08-17T07:09:09Z</time>
      </trkpt>
      <trkpt lat="47.85617" lon="6.78601">
        <ele>772.2</ele>
        <time>2022-08-17T07:09:10Z</time>
      </trkpt>
      <trkpt lat="47.85617" lon="6.78602">
        <ele>772.2</ele>
        <time>2022-08-17T07:09:11Z</time>
      </trkpt>
      <trkpt lat="47.85617" lon="6.78603">
        <ele>772.3</ele>
        <time>2022-08-17T07:09:12Z</time>
      </trkpt>
      <trkpt lat="47.85617" lon="6.78604">
        <ele>772.4</ele>
        <time>2022-08-17T07:09:13Z</time>
      </trkpt>
      <trkpt lat="47.85617" lon="6.78605">
        <ele>772.4</ele>
        <time>2022-08-17T07:09:14Z</time>
      </trkpt>
      <trkpt lat="47.85617" lon="6.78606">
        <ele>772.5</ele>
        <time>2022-08-17T07:09:15Z</time>
      </trkpt>
      <trkpt lat="47.85617" lon="6.78608">
        <ele>772.7</ele>
        <time>2022-08-17T07:09:16Z</time>
      </trkpt>
      <trkpt lat="47.85617" lon="6.78609">
        <ele>772.7</ele>
        <time>2022-08-17T07:09:17Z</time>
      </trkpt>
      <trkpt lat="47.85617" lon="6.7861">
        <ele>772.8</ele>
        <time>2022-08-17T07:09:18Z</time>
      </trkpt>
      <trkpt lat="47.85617" lon="6.78612">
        <ele>773</ele>
        <time>2022-08-17T07:09:19Z</time>
      </trkpt>
      <trkpt lat="47.85617" lon="6.78613">
        <ele>773.1</ele>
        <time>2022-08-17T07:09:20Z</time>
      </trkpt>
      <trkpt lat="47.85618" lon="6.78614">
        <ele>772.9</ele>
        <time>2022-08-17T07:09:21Z</time>
      </trkpt>
      <trkpt lat="47.85618" lon="6.78615">
        <ele>773</ele>
        <time>2022-08-17T07:09:22Z</time>
      </trkpt>
      <trkpt lat="47.85618" lon="6.78616">
        <ele>773.1</ele>
        <time>2022-08-17T07:09:23Z</time>
      </trkpt>
      <trkpt lat="47.85618" lon="6.78618">
        <ele>773.3</ele>
        <time>2022-08-17T07:09:24Z</time>
      </trkpt>
      <trkpt lat="47.85618" lon="6.78619">
        <ele>773.4</ele>
        <time>2022-08-17T07:09:25Z</time>
      </trkpt>
      <trkpt lat="47.85618" lon="6.78621">
        <ele>773.7</ele>
        <time>2022-08-17T07:09:26Z</time>
      </trkpt>
      <trkpt lat="47.85618" lon="6.78623">
        <ele>773.9</ele>
        <time>2022-08-17T07:09:27Z</time>
      </trkpt>
      <trkpt lat="47.85618" lon="6.78624">
        <ele>774</ele>
        <time>2022-08-17T07:09:28Z</time>
      </trkpt>
      <trkpt lat="47.85618" lon="6.78626">
        <ele>774.3</ele>
        <time>2022-08-17T07:09:29Z</time>
      </trkpt>
      <trkpt lat="47.85619" lon="6.78627">
        <ele>774</ele>
        <time>2022-08-17T07:09:30Z</time>
      </trkpt>
      <trkpt lat="47.85619" lon="6.78629">
        <ele>774.3</ele>
        <time>2022-08-17T07:09:31Z</time>
      </trkpt>
      <trkpt lat="47.85619" lon="6.7863">
        <ele>774.4</ele>
        <time>2022-08-17T07:09:32Z</time>
      </trkpt>
      <trkpt lat="47.85619" lon="6.78632">
        <ele>774.6</ele>
        <time>2022-08-17T07:09:33Z</time>
      </trkpt>
      <trkpt lat="47.85619" lon="6.78633">
        <ele>774.7</ele>
        <time>2022-08-17T07:09:34Z</time>
      </trkpt>
      <trkpt lat="47.85619" lon="6.78635">
        <ele>775</ele>
        <time>2022-08-17T07:09:35Z</time>
      </trkpt>
      <trkpt lat="47.85619" lon="6.78636">
        <ele>775.1</ele>
        <time>2022-08-17T07:09:36Z</time>
      </trkpt>
      <trkpt lat="47.85619" lon="6.78637">
        <ele>775.2</ele>
        <time>2022-08-17T07:09:37Z</time>
      </trkpt>
      <trkpt lat="47.85619" lon="6.78639">
        <ele>775.5</ele>
        <time>2022-08-17T07:09:38Z</time>
      </trkpt>
      <trkpt lat="47.85619" lon="6.7864">
        <ele>775.5</ele>
        <time>2022-08-17T07:09:39Z</time>
      </trkpt>
      <trkpt lat="47.85619" lon="6.78641">
        <ele>775.6</ele>
        <time>2022-08-17T07:09:40Z</time>
      </trkpt>
      <trkpt lat="47.85619" lon="6.78643">
        <ele>775.7</ele>
        <time>2022-08-17T07:09:41Z</time>
      </trkpt>
      <trkpt lat="47.85619" lon="6.78644">
        <ele>775.7</ele>
        <time>2022-08-17T07:09:42Z</time>
      </trkpt>
      <trkpt lat="47.85619" lon="6.78645">
        <ele>775.8</ele>
        <time>2022-08-17T07:09:43Z</time>
      </trkpt>
      <trkpt lat="47.85619" lon="6.78646">
        <ele>775.8</ele>
        <time>2022-08-17T07:09:44Z</time>
      </trkpt>
      <trkpt lat="47.85619" lon="6.78647">
        <ele>775.9</ele>
        <time>2022-08-17T07:09:45Z</time>
      </trkpt>
      <trkpt lat="47.85619" lon="6.78649">
        <ele>776</ele>
        <time>2022-08-17T07:09:46Z</time>
      </trkpt>
      <trkpt lat="47.85619" lon="6.7865">
        <ele>776.1</ele>
        <time>2022-08-17T07:09:47Z</time>
      </trkpt>
      <trkpt lat="47.85619" lon="6.78651">
        <ele>776.1</ele>
        <time>2022-08-17T07:09:48Z</time>
      </trkpt>
      <trkpt lat="47.85619" lon="6.78652">
        <ele>776.2</ele>
        <time>2022-08-17T07:09:49Z</time>
      </trkpt>
      <trkpt lat="47.85619" lon="6.78653">
        <ele>776.2</ele>
        <time>2022-08-17T07:09:50Z</time>
      </trkpt>
      <trkpt lat="47.85619" lon="6.78655">
        <ele>776.4</ele>
        <time>2022-08-17T07:09:51Z</time>
      </trkpt>
      <trkpt lat="47.85619" lon="6.78656">
        <ele>776.4</ele>
        <time>2022-08-17T07:09:52Z</time>
      </trkpt>
      <trkpt lat="47.85619" lon="6.78657">
        <ele>776.5</ele>
        <time>2022-08-17T07:09:54Z</time>
      </trkpt>
      <trkpt lat="47.85619" lon="6.78658">
        <ele>776.5</ele>
        <time>2022-08-17T07:09:55Z</time>
      </trkpt>
      <trkpt lat="47.85618" lon="6.7866">
        <ele>776.9</ele>
        <time>2022-08-17T07:09:56Z</time>
      </trkpt>
      <trkpt lat="47.85618" lon="6.78661">
        <ele>777</ele>
        <time>2022-08-17T07:09:57Z</time>
      </trkpt>
      <trkpt lat="47.85618" lon="6.78662">
        <ele>777</ele>
        <time>2022-08-17T07:09:58Z</time>
      </trkpt>
      <trkpt lat="47.85617" lon="6.78664">
        <ele>777.4</ele>
        <time>2022-08-17T07:09:59Z</time>
      </trkpt>
      <trkpt lat="47.85617" lon="6.78665">
        <ele>777.4</ele>
        <time>2022-08-17T07:10:00Z</time>
      </trkpt>
      <trkpt lat="47.85616" lon="6.78667">
        <ele>777.8</ele>
        <time>2022-08-17T07:10:01Z</time>
      </trkpt>
      <trkpt lat="47.85616" lon="6.78668">
        <ele>777.8</ele>
        <time>2022-08-17T07:10:02Z</time>
      </trkpt>
      <trkpt lat="47.85615" lon="6.7867">
        <ele>778</ele>
        <time>2022-08-17T07:10:03Z</time>
      </trkpt>
      <trkpt lat="47.85615" lon="6.78671">
        <ele>778</ele>
        <time>2022-08-17T07:10:04Z</time>
      </trkpt>
      <trkpt lat="47.85615" lon="6.78672">
        <ele>778</ele>
        <time>2022-08-17T07:10:05Z</time>
      </trkpt>
      <trkpt lat="47.85614" lon="6.78674">
        <ele>778.1</ele>
        <time>2022-08-17T07:10:06Z</time>
      </trkpt>
      <trkpt lat="47.85614" lon="6.78675">
        <ele>778.1</ele>
        <time>2022-08-17T07:10:07Z</time>
      </trkpt>
      <trkpt lat="47.85614" lon="6.78676">
        <ele>778.1</ele>
        <time>2022-08-17T07:10:08Z</time>
      </trkpt>
      <trkpt lat="47.85614" lon="6.78677">
        <ele>778.1</ele>
        <time>2022-08-17T07:10:09Z</time>
      </trkpt>
      <trkpt lat="47.85614" lon="6.78679">
        <ele>778.1</ele>
        <time>2022-08-17T07:10:10Z</time>
      </trkpt>
      <trkpt lat="47.85614" lon="6.78681">
        <ele>778</ele>
        <time>2022-08-17T07:10:11Z</time>
      </trkpt>
      <trkpt lat="47.85613" lon="6.78682">
        <ele>778.2</ele>
        <time>2022-08-17T07:10:12Z</time>
      </trkpt>
      <trkpt lat="47.85613" lon="6.78683">
        <ele>778.1</ele>
        <time>2022-08-17T07:10:13Z</time>
      </trkpt>
      <trkpt lat="47.85613" lon="6.78685">
        <ele>778.1</ele>
        <time>2022-08-17T07:10:14Z</time>
      </trkpt>
      <trkpt lat="47.85612" lon="6.78686">
        <ele>778.2</ele>
        <time>2022-08-17T07:10:15Z</time>
      </trkpt>
      <trkpt lat="47.85612" lon="6.78687">
        <ele>778.2</ele>
        <time>2022-08-17T07:10:16Z</time>
      </trkpt>
      <trkpt lat="47.85611" lon="6.78689">
        <ele>778.2</ele>
        <time>2022-08-17T07:10:17Z</time>
      </trkpt>
      <trkpt lat="47.8561" lon="6.7869">
        <ele>778.4</ele>
        <time>2022-08-17T07:10:18Z</time>
      </trkpt>
      <trkpt lat="47.85609" lon="6.78691">
        <ele>778.7</ele>
        <time>2022-08-17T07:10:19Z</time>
      </trkpt>
      <trkpt lat="47.85609" lon="6.78692">
        <ele>778.6</ele>
        <time>2022-08-17T07:10:20Z</time>
      </trkpt>
      <trkpt lat="47.85608" lon="6.78693">
        <ele>778.8</ele>
        <time>2022-08-17T07:10:21Z</time>
      </trkpt>
      <trkpt lat="47.85607" lon="6.78694">
        <ele>779.1</ele>
        <time>2022-08-17T07:10:22Z</time>
      </trkpt>
      <trkpt lat="47.85607" lon="6.78696">
        <ele>779.1</ele>
        <time>2022-08-17T07:10:23Z</time>
      </trkpt>
      <trkpt lat="47.85606" lon="6.78697">
        <ele>779.3</ele>
        <time>2022-08-17T07:10:24Z</time>
      </trkpt>
      <trkpt lat="47.85606" lon="6.78698">
        <ele>779.3</ele>
        <time>2022-08-17T07:10:25Z</time>
      </trkpt>
      <trkpt lat="47.85605" lon="6.78699">
        <ele>779.6</ele>
        <time>2022-08-17T07:10:26Z</time>
      </trkpt>
      <trkpt lat="47.85605" lon="6.787">
        <ele>779.6</ele>
        <time>2022-08-17T07:10:27Z</time>
      </trkpt>
      <trkpt lat="47.85604" lon="6.78701">
        <ele>779.8</ele>
        <time>2022-08-17T07:10:28Z</time>
      </trkpt>
      <trkpt lat="47.85603" lon="6.78702">
        <ele>780.1</ele>
        <time>2022-08-17T07:10:29Z</time>
      </trkpt>
      <trkpt lat="47.85603" lon="6.78703">
        <ele>780.1</ele>
        <time>2022-08-17T07:10:30Z</time>
      </trkpt>
      <trkpt lat="47.85602" lon="6.78705">
        <ele>780.3</ele>
        <time>2022-08-17T07:10:31Z</time>
      </trkpt>
      <trkpt lat="47.85601" lon="6.78706">
        <ele>780.5</ele>
        <time>2022-08-17T07:10:32Z</time>
      </trkpt>
      <trkpt lat="47.85601" lon="6.78707">
        <ele>780.5</ele>
        <time>2022-08-17T07:10:33Z</time>
      </trkpt>
      <trkpt lat="47.856" lon="6.78709">
        <ele>780.7</ele>
        <time>2022-08-17T07:10:34Z</time>
      </trkpt>
      <trkpt lat="47.85599" lon="6.7871">
        <ele>780.9</ele>
        <time>2022-08-17T07:10:35Z</time>
      </trkpt>
      <trkpt lat="47.85599" lon="6.78711">
        <ele>780.9</ele>
        <time>2022-08-17T07:10:36Z</time>
      </trkpt>
      <trkpt lat="47.85598" lon="6.78712">
        <ele>781</ele>
        <time>2022-08-17T07:10:37Z</time>
      </trkpt>
      <trkpt lat="47.85597" lon="6.78713">
        <ele>781.2</ele>
        <time>2022-08-17T07:10:38Z</time>
      </trkpt>
      <trkpt lat="47.85597" lon="6.78714">
        <ele>781.2</ele>
        <time>2022-08-17T07:10:39Z</time>
      </trkpt>
      <trkpt lat="47.85596" lon="6.78715">
        <ele>781.3</ele>
        <time>2022-08-17T07:10:40Z</time>
      </trkpt>
      <trkpt lat="47.85596" lon="6.78717">
        <ele>781.3</ele>
        <time>2022-08-17T07:10:41Z</time>
      </trkpt>
      <trkpt lat="47.85595" lon="6.78718">
        <ele>781.4</ele>
        <time>2022-08-17T07:10:42Z</time>
      </trkpt>
      <trkpt lat="47.85595" lon="6.7872">
        <ele>781.4</ele>
        <time>2022-08-17T07:10:43Z</time>
      </trkpt>
      <trkpt lat="47.85595" lon="6.78721">
        <ele>781.4</ele>
        <time>2022-08-17T07:10:44Z</time>
      </trkpt>
      <trkpt lat="47.85594" lon="6.78723">
        <ele>781.4</ele>
        <time>2022-08-17T07:10:45Z</time>
      </trkpt>
      <trkpt lat="47.85594" lon="6.78725">
        <ele>781.4</ele>
        <time>2022-08-17T07:10:46Z</time>
      </trkpt>
      <trkpt lat="47.85593" lon="6.78726">
        <ele>781.5</ele>
        <time>2022-08-17T07:10:47Z</time>
      </trkpt>
      <trkpt lat="47.85593" lon="6.78728">
        <ele>781.5</ele>
        <time>2022-08-17T07:10:48Z</time>
      </trkpt>
      <trkpt lat="47.85592" lon="6.78728">
        <ele>781.6</ele>
        <time>2022-08-17T07:10:49Z</time>
      </trkpt>
      <trkpt lat="47.85591" lon="6.78729">
        <ele>781.8</ele>
        <time>2022-08-17T07:10:50Z</time>
      </trkpt>
      <trkpt lat="47.8559" lon="6.7873">
        <ele>781.9</ele>
        <time>2022-08-17T07:10:51Z</time>
      </trkpt>
      <trkpt lat="47.85589" lon="6.78731">
        <ele>782.1</ele>
        <time>2022-08-17T07:10:52Z</time>
      </trkpt>
      <trkpt lat="47.85588" lon="6.78732">
        <ele>782.2</ele>
        <time>2022-08-17T07:10:54Z</time>
      </trkpt>
      <trkpt lat="47.85587" lon="6.78733">
        <ele>782.4</ele>
        <time>2022-08-17T07:10:55Z</time>
      </trkpt>
      <trkpt lat="47.85586" lon="6.78733">
        <ele>782.5</ele>
        <time>2022-08-17T07:10:56Z</time>
      </trkpt>
      <trkpt lat="47.85585" lon="6.78734">
        <ele>782.7</ele>
        <time>2022-08-17T07:10:57Z</time>
      </trkpt>
      <trkpt lat="47.85584" lon="6.78735">
        <ele>782.9</ele>
        <time>2022-08-17T07:10:58Z</time>
      </trkpt>
      <trkpt lat="47.85583" lon="6.78735">
        <ele>783</ele>
        <time>2022-08-17T07:11:00Z</time>
      </trkpt>
      <trkpt lat="47.85582" lon="6.78735">
        <ele>783.2</ele>
        <time>2022-08-17T07:11:01Z</time>
      </trkpt>
      <trkpt lat="47.85581" lon="6.78735">
        <ele>783.3</ele>
        <time>2022-08-17T07:11:02Z</time>
      </trkpt>
      <trkpt lat="47.8558" lon="6.78734">
        <ele>783.4</ele>
        <time>2022-08-17T07:11:03Z</time>
      </trkpt>
      <trkpt lat="47.85579" lon="6.78733">
        <ele>783.5</ele>
        <time>2022-08-17T07:11:23Z</time>
      </trkpt>
      <trkpt lat="47.85578" lon="6.78732">
        <ele>783.7</ele>
        <time>2022-08-17T07:11:25Z</time>
      </trkpt>
      <trkpt lat="47.85578" lon="6.78731">
        <ele>783.7</ele>
        <time>2022-08-17T07:11:26Z</time>
      </trkpt>
      <trkpt lat="47.85578" lon="6.7873">
        <ele>783.7</ele>
        <time>2022-08-17T07:11:27Z</time>
      </trkpt>
      <trkpt lat="47.85578" lon="6.78729">
        <ele>783.8</ele>
        <time>2022-08-17T07:11:28Z</time>
      </trkpt>
      <trkpt lat="47.85578" lon="6.78728">
        <ele>783.8</ele>
        <time>2022-08-17T07:11:29Z</time>
      </trkpt>
      <trkpt lat="47.85578" lon="6.78726">
        <ele>783.9</ele>
        <time>2022-08-17T07:11:30Z</time>
      </trkpt>
      <trkpt lat="47.85578" lon="6.78725">
        <ele>783.9</ele>
        <time>2022-08-17T07:11:31Z</time>
      </trkpt>
      <trkpt lat="47.85578" lon="6.78723">
        <ele>783.9</ele>
        <time>2022-08-17T07:11:32Z</time>
      </trkpt>
      <trkpt lat="47.85578" lon="6.78722">
        <ele>784</ele>
        <time>2022-08-17T07:11:33Z</time>
      </trkpt>
      <trkpt lat="47.85578" lon="6.7872">
        <ele>784.1</ele>
        <time>2022-08-17T07:11:34Z</time>
      </trkpt>
      <trkpt lat="47.85578" lon="6.78719">
        <ele>784.2</ele>
        <time>2022-08-17T07:11:35Z</time>
      </trkpt>
      <trkpt lat="47.85578" lon="6.78718">
        <ele>784.3</ele>
        <time>2022-08-17T07:11:36Z</time>
      </trkpt>
      <trkpt lat="47.85578" lon="6.78716">
        <ele>784.4</ele>
        <time>2022-08-17T07:11:37Z</time>
      </trkpt>
      <trkpt lat="47.85578" lon="6.78715">
        <ele>784.5</ele>
        <time>2022-08-17T07:11:38Z</time>
      </trkpt>
      <trkpt lat="47.85578" lon="6.78714">
        <ele>784.6</ele>
        <time>2022-08-17T07:11:39Z</time>
      </trkpt>
      <trkpt lat="47.85578" lon="6.78713">
        <ele>784.6</ele>
        <time>2022-08-17T07:11:40Z</time>
      </trkpt>
      <trkpt lat="47.85578" lon="6.78712">
        <ele>784.7</ele>
        <time>2022-08-17T07:11:41Z</time>
      </trkpt>
      <trkpt lat="47.85577" lon="6.78711">
        <ele>784.9</ele>
        <time>2022-08-17T07:11:42Z</time>
      </trkpt>
      <trkpt lat="47.85577" lon="6.7871">
        <ele>785</ele>
        <time>2022-08-17T07:11:43Z</time>
      </trkpt>
      <trkpt lat="47.85577" lon="6.78709">
        <ele>785.1</ele>
        <time>2022-08-17T07:11:44Z</time>
      </trkpt>
      <trkpt lat="47.85577" lon="6.78708">
        <ele>785.2</ele>
        <time>2022-08-17T07:11:45Z</time>
      </trkpt>
      <trkpt lat="47.85577" lon="6.78707">
        <ele>785.2</ele>
        <time>2022-08-17T07:11:46Z</time>
      </trkpt>
      <trkpt lat="47.85577" lon="6.78705">
        <ele>785.4</ele>
        <time>2022-08-17T07:11:47Z</time>
      </trkpt>
      <trkpt lat="47.85577" lon="6.78704">
        <ele>785.5</ele>
        <time>2022-08-17T07:11:48Z</time>
      </trkpt>
      <trkpt lat="47.85577" lon="6.78703">
        <ele>785.5</ele>
        <time>2022-08-17T07:11:49Z</time>
      </trkpt>
      <trkpt lat="47.85577" lon="6.78701">
        <ele>785.7</ele>
        <time>2022-08-17T07:11:50Z</time>
      </trkpt>
      <trkpt lat="47.85577" lon="6.787">
        <ele>785.7</ele>
        <time>2022-08-17T07:11:51Z</time>
      </trkpt>
      <trkpt lat="47.85577" lon="6.78698">
        <ele>785.9</ele>
        <time>2022-08-17T07:11:52Z</time>
      </trkpt>
      <trkpt lat="47.85577" lon="6.78697">
        <ele>786</ele>
        <time>2022-08-17T07:11:53Z</time>
      </trkpt>
      <trkpt lat="47.85577" lon="6.78696">
        <ele>786</ele>
        <time>2022-08-17T07:11:54Z</time>
      </trkpt>
      <trkpt lat="47.85577" lon="6.78694">
        <ele>786.2</ele>
        <time>2022-08-17T07:11:55Z</time>
      </trkpt>
      <trkpt lat="47.85577" lon="6.78693">
        <ele>786.2</ele>
        <time>2022-08-17T07:11:56Z</time>
      </trkpt>
      <trkpt lat="47.85577" lon="6.78692">
        <ele>786.3</ele>
        <time>2022-08-17T07:11:57Z</time>
      </trkpt>
      <trkpt lat="47.85576" lon="6.78691">
        <ele>786.5</ele>
        <time>2022-08-17T07:11:58Z</time>
      </trkpt>
      <trkpt lat="47.85576" lon="6.7869">
        <ele>786.6</ele>
        <time>2022-08-17T07:11:59Z</time>
      </trkpt>
      <trkpt lat="47.85576" lon="6.78689">
        <ele>786.7</ele>
        <time>2022-08-17T07:12:00Z</time>
      </trkpt>
      <trkpt lat="47.85576" lon="6.78688">
        <ele>786.7</ele>
        <time>2022-08-17T07:12:01Z</time>
      </trkpt>
      <trkpt lat="47.85576" lon="6.78687">
        <ele>786.8</ele>
        <time>2022-08-17T07:12:02Z</time>
      </trkpt>
      <trkpt lat="47.85576" lon="6.78686">
        <ele>786.8</ele>
        <time>2022-08-17T07:12:03Z</time>
      </trkpt>
      <trkpt lat="47.85576" lon="6.78685">
        <ele>786.9</ele>
        <time>2022-08-17T07:12:04Z</time>
      </trkpt>
      <trkpt lat="47.85575" lon="6.78684">
        <ele>787.1</ele>
        <time>2022-08-17T07:12:05Z</time>
      </trkpt>
      <trkpt lat="47.85575" lon="6.78682">
        <ele>787.3</ele>
        <time>2022-08-17T07:12:06Z</time>
      </trkpt>
      <trkpt lat="47.85574" lon="6.78682">
        <ele>787.4</ele>
        <time>2022-08-17T07:12:07Z</time>
      </trkpt>
      <trkpt lat="47.85574" lon="6.78681">
        <ele>787.5</ele>
        <time>2022-08-17T07:12:08Z</time>
      </trkpt>
      <trkpt lat="47.85573" lon="6.7868">
        <ele>787.7</ele>
        <time>2022-08-17T07:12:09Z</time>
      </trkpt>
      <trkpt lat="47.85572" lon="6.78679">
        <ele>787.9</ele>
        <time>2022-08-17T07:12:10Z</time>
      </trkpt>
      <trkpt lat="47.85572" lon="6.78678">
        <ele>788</ele>
        <time>2022-08-17T07:12:11Z</time>
      </trkpt>
      <trkpt lat="47.85571" lon="6.78678">
        <ele>788.1</ele>
        <time>2022-08-17T07:12:12Z</time>
      </trkpt>
      <trkpt lat="47.8557" lon="6.78677">
        <ele>788.4</ele>
        <time>2022-08-17T07:12:13Z</time>
      </trkpt>
      <trkpt lat="47.85569" lon="6.78677">
        <ele>788.5</ele>
        <time>2022-08-17T07:12:15Z</time>
      </trkpt>
      <trkpt lat="47.85568" lon="6.78676">
        <ele>788.7</ele>
        <time>2022-08-17T07:12:16Z</time>
      </trkpt>
      <trkpt lat="47.85567" lon="6.78676">
        <ele>788.9</ele>
        <time>2022-08-17T07:12:18Z</time>
      </trkpt>
      <trkpt lat="47.85567" lon="6.78675">
        <ele>788.9</ele>
        <time>2022-08-17T07:12:19Z</time>
      </trkpt>
      <trkpt lat="47.85566" lon="6.78675">
        <ele>789.1</ele>
        <time>2022-08-17T07:12:20Z</time>
      </trkpt>
      <trkpt lat="47.85565" lon="6.78675">
        <ele>789.2</ele>
        <time>2022-08-17T07:12:21Z</time>
      </trkpt>
      <trkpt lat="47.85564" lon="6.78675">
        <ele>789.4</ele>
        <time>2022-08-17T07:12:33Z</time>
      </trkpt>
      <trkpt lat="47.85563" lon="6.78675">
        <ele>789.5</ele>
        <time>2022-08-17T07:12:35Z</time>
      </trkpt>
      <trkpt lat="47.85562" lon="6.78675">
        <ele>789.7</ele>
        <time>2022-08-17T07:12:37Z</time>
      </trkpt>
      <trkpt lat="47.85562" lon="6.78676">
        <ele>789.7</ele>
        <time>2022-08-17T07:12:38Z</time>
      </trkpt>
      <trkpt lat="47.85561" lon="6.78676">
        <ele>789.8</ele>
        <time>2022-08-17T07:12:39Z</time>
      </trkpt>
      <trkpt lat="47.85561" lon="6.78677">
        <ele>789.8</ele>
        <time>2022-08-17T07:12:40Z</time>
      </trkpt>
      <trkpt lat="47.8556" lon="6.78677">
        <ele>789.9</ele>
        <time>2022-08-17T07:12:41Z</time>
      </trkpt>
      <trkpt lat="47.85559" lon="6.78678">
        <ele>790</ele>
        <time>2022-08-17T07:12:42Z</time>
      </trkpt>
      <trkpt lat="47.85558" lon="6.78678">
        <ele>790.2</ele>
        <time>2022-08-17T07:12:43Z</time>
      </trkpt>
      <trkpt lat="47.85557" lon="6.78679">
        <ele>790.3</ele>
        <time>2022-08-17T07:12:44Z</time>
      </trkpt>
      <trkpt lat="47.85556" lon="6.78679">
        <ele>790.5</ele>
        <time>2022-08-17T07:12:45Z</time>
      </trkpt>
      <trkpt lat="47.85555" lon="6.78679">
        <ele>790.6</ele>
        <time>2022-08-17T07:12:46Z</time>
      </trkpt>
      <trkpt lat="47.85555" lon="6.7868">
        <ele>790.6</ele>
        <time>2022-08-17T07:12:47Z</time>
      </trkpt>
      <trkpt lat="47.85554" lon="6.78681">
        <ele>790.7</ele>
        <time>2022-08-17T07:12:48Z</time>
      </trkpt>
      <trkpt lat="47.85554" lon="6.78683">
        <ele>790.6</ele>
        <time>2022-08-17T07:12:50Z</time>
      </trkpt>
      <trkpt lat="47.85553" lon="6.78684">
        <ele>790.8</ele>
        <time>2022-08-17T07:12:51Z</time>
      </trkpt>
      <trkpt lat="47.85553" lon="6.78685">
        <ele>790.7</ele>
        <time>2022-08-17T07:12:52Z</time>
      </trkpt>
      <trkpt lat="47.85552" lon="6.78687">
        <ele>790.8</ele>
        <time>2022-08-17T07:12:53Z</time>
      </trkpt>
      <trkpt lat="47.85551" lon="6.78688">
        <ele>790.8</ele>
        <time>2022-08-17T07:12:54Z</time>
      </trkpt>
      <trkpt lat="47.85551" lon="6.78689">
        <ele>790.8</ele>
        <time>2022-08-17T07:12:55Z</time>
      </trkpt>
      <trkpt lat="47.8555" lon="6.7869">
        <ele>790.9</ele>
        <time>2022-08-17T07:12:56Z</time>
      </trkpt>
      <trkpt lat="47.85549" lon="6.78691">
        <ele>790.9</ele>
        <time>2022-08-17T07:12:57Z</time>
      </trkpt>
      <trkpt lat="47.85548" lon="6.78692">
        <ele>791</ele>
        <time>2022-08-17T07:12:58Z</time>
      </trkpt>
      <trkpt lat="47.85547" lon="6.78692">
        <ele>791.1</ele>
        <time>2022-08-17T07:12:59Z</time>
      </trkpt>
      <trkpt lat="47.85546" lon="6.78693">
        <ele>791.1</ele>
        <time>2022-08-17T07:13:00Z</time>
      </trkpt>
      <trkpt lat="47.85545" lon="6.78693">
        <ele>791.3</ele>
        <time>2022-08-17T07:13:01Z</time>
      </trkpt>
      <trkpt lat="47.85543" lon="6.78694">
        <ele>791.4</ele>
        <time>2022-08-17T07:13:02Z</time>
      </trkpt>
      <trkpt lat="47.85542" lon="6.78695">
        <ele>791.4</ele>
        <time>2022-08-17T07:13:03Z</time>
      </trkpt>
      <trkpt lat="47.85541" lon="6.78695">
        <ele>791.5</ele>
        <time>2022-08-17T07:13:04Z</time>
      </trkpt>
      <trkpt lat="47.8554" lon="6.78696">
        <ele>791.5</ele>
        <time>2022-08-17T07:13:05Z</time>
      </trkpt>
      <trkpt lat="47.85539" lon="6.78697">
        <ele>791.5</ele>
        <time>2022-08-17T07:13:06Z</time>
      </trkpt>
      <trkpt lat="47.85538" lon="6.78697">
        <ele>791.7</ele>
        <time>2022-08-17T07:13:07Z</time>
      </trkpt>
      <trkpt lat="47.85537" lon="6.78698">
        <ele>791.7</ele>
        <time>2022-08-17T07:13:08Z</time>
      </trkpt>
      <trkpt lat="47.85536" lon="6.78699">
        <ele>791.7</ele>
        <time>2022-08-17T07:13:09Z</time>
      </trkpt>
      <trkpt lat="47.85535" lon="6.787">
        <ele>791.7</ele>
        <time>2022-08-17T07:13:11Z</time>
      </trkpt>
      <trkpt lat="47.85534" lon="6.787">
        <ele>791.8</ele>
        <time>2022-08-17T07:13:12Z</time>
      </trkpt>
      <trkpt lat="47.85533" lon="6.787">
        <ele>791.9</ele>
        <time>2022-08-17T07:13:14Z</time>
      </trkpt>
      <trkpt lat="47.85532" lon="6.787">
        <ele>792</ele>
        <time>2022-08-17T07:13:15Z</time>
      </trkpt>
      <trkpt lat="47.85531" lon="6.787">
        <ele>792.1</ele>
        <time>2022-08-17T07:13:16Z</time>
      </trkpt>
      <trkpt lat="47.8553" lon="6.787">
        <ele>792.2</ele>
        <time>2022-08-17T07:13:17Z</time>
      </trkpt>
      <trkpt lat="47.85529" lon="6.787">
        <ele>792.3</ele>
        <time>2022-08-17T07:13:18Z</time>
      </trkpt>
      <trkpt lat="47.85528" lon="6.78701">
        <ele>792.3</ele>
        <time>2022-08-17T07:13:19Z</time>
      </trkpt>
      <trkpt lat="47.85527" lon="6.78701">
        <ele>792.3</ele>
        <time>2022-08-17T07:13:20Z</time>
      </trkpt>
      <trkpt lat="47.85526" lon="6.78701">
        <ele>792.4</ele>
        <time>2022-08-17T07:13:21Z</time>
      </trkpt>
      <trkpt lat="47.85525" lon="6.78701">
        <ele>792.4</ele>
        <time>2022-08-17T07:13:22Z</time>
      </trkpt>
      <trkpt lat="47.85524" lon="6.78701">
        <ele>792.5</ele>
        <time>2022-08-17T07:13:24Z</time>
      </trkpt>
      <trkpt lat="47.85523" lon="6.787">
        <ele>792.7</ele>
        <time>2022-08-17T07:13:25Z</time>
      </trkpt>
      <trkpt lat="47.85522" lon="6.787">
        <ele>792.7</ele>
        <time>2022-08-17T07:13:26Z</time>
      </trkpt>
      <trkpt lat="47.85521" lon="6.787">
        <ele>792.8</ele>
        <time>2022-08-17T07:13:27Z</time>
      </trkpt>
      <trkpt lat="47.8552" lon="6.78699">
        <ele>793</ele>
        <time>2022-08-17T07:13:28Z</time>
      </trkpt>
      <trkpt lat="47.85519" lon="6.78699">
        <ele>793</ele>
        <time>2022-08-17T07:13:29Z</time>
      </trkpt>
      <trkpt lat="47.85518" lon="6.78698">
        <ele>793.2</ele>
        <time>2022-08-17T07:13:30Z</time>
      </trkpt>
      <trkpt lat="47.85516" lon="6.78698">
        <ele>793.4</ele>
        <time>2022-08-17T07:13:31Z</time>
      </trkpt>
      <trkpt lat="47.85515" lon="6.78698">
        <ele>793.4</ele>
        <time>2022-08-17T07:13:32Z</time>
      </trkpt>
      <trkpt lat="47.85514" lon="6.78697">
        <ele>793.6</ele>
        <time>2022-08-17T07:13:33Z</time>
      </trkpt>
      <trkpt lat="47.85512" lon="6.78696">
        <ele>793.9</ele>
        <time>2022-08-17T07:13:34Z</time>
      </trkpt>
      <trkpt lat="47.85511" lon="6.78695">
        <ele>794.1</ele>
        <time>2022-08-17T07:13:36Z</time>
      </trkpt>
      <trkpt lat="47.8551" lon="6.78695">
        <ele>794.2</ele>
        <time>2022-08-17T07:13:37Z</time>
      </trkpt>
      <trkpt lat="47.8551" lon="6.78694">
        <ele>794.4</ele>
        <time>2022-08-17T07:13:38Z</time>
      </trkpt>
      <trkpt lat="47.85509" lon="6.78693">
        <ele>794.6</ele>
        <time>2022-08-17T07:13:39Z</time>
      </trkpt>
      <trkpt lat="47.85508" lon="6.78693">
        <ele>794.7</ele>
        <time>2022-08-17T07:13:40Z</time>
      </trkpt>
      <trkpt lat="47.85508" lon="6.78692">
        <ele>794.8</ele>
        <time>2022-08-17T07:13:41Z</time>
      </trkpt>
      <trkpt lat="47.85507" lon="6.78692">
        <ele>794.9</ele>
        <time>2022-08-17T07:13:42Z</time>
      </trkpt>
      <trkpt lat="47.85506" lon="6.78692">
        <ele>795</ele>
        <time>2022-08-17T07:13:43Z</time>
      </trkpt>
      <trkpt lat="47.85505" lon="6.78691">
        <ele>795.2</ele>
        <time>2022-08-17T07:13:44Z</time>
      </trkpt>
      <trkpt lat="47.85504" lon="6.7869">
        <ele>795.5</ele>
        <time>2022-08-17T07:13:45Z</time>
      </trkpt>
      <trkpt lat="47.85503" lon="6.7869">
        <ele>795.6</ele>
        <time>2022-08-17T07:13:46Z</time>
      </trkpt>
      <trkpt lat="47.85502" lon="6.78689">
        <ele>795.8</ele>
        <time>2022-08-17T07:13:47Z</time>
      </trkpt>
      <trkpt lat="47.85501" lon="6.78689">
        <ele>795.9</ele>
        <time>2022-08-17T07:13:48Z</time>
      </trkpt>
      <trkpt lat="47.855" lon="6.78688">
        <ele>796.2</ele>
        <time>2022-08-17T07:13:50Z</time>
      </trkpt>
      <trkpt lat="47.85499" lon="6.78688">
        <ele>796.2</ele>
        <time>2022-08-17T07:13:51Z</time>
      </trkpt>
      <trkpt lat="47.85498" lon="6.78688">
        <ele>796.2</ele>
        <time>2022-08-17T07:13:52Z</time>
      </trkpt>
      <trkpt lat="47.85498" lon="6.78687">
        <ele>796.4</ele>
        <time>2022-08-17T07:13:53Z</time>
      </trkpt>
      <trkpt lat="47.85497" lon="6.78687">
        <ele>796.4</ele>
        <time>2022-08-17T07:13:54Z</time>
      </trkpt>
      <trkpt lat="47.85496" lon="6.78686">
        <ele>796.6</ele>
        <time>2022-08-17T07:13:55Z</time>
      </trkpt>
      <trkpt lat="47.85495" lon="6.78686">
        <ele>796.6</ele>
        <time>2022-08-17T07:13:56Z</time>
      </trkpt>
      <trkpt lat="47.85494" lon="6.78685">
        <ele>796.8</ele>
        <time>2022-08-17T07:13:57Z</time>
      </trkpt>
      <trkpt lat="47.85493" lon="6.78684">
        <ele>797</ele>
        <time>2022-08-17T07:13:58Z</time>
      </trkpt>
      <trkpt lat="47.85492" lon="6.78684">
        <ele>797</ele>
        <time>2022-08-17T07:13:59Z</time>
      </trkpt>
      <trkpt lat="47.85491" lon="6.78683">
        <ele>797.2</ele>
        <time>2022-08-17T07:14:00Z</time>
      </trkpt>
      <trkpt lat="47.8549" lon="6.78683">
        <ele>797.2</ele>
        <time>2022-08-17T07:14:01Z</time>
      </trkpt>
      <trkpt lat="47.85489" lon="6.78682">
        <ele>797.4</ele>
        <time>2022-08-17T07:14:02Z</time>
      </trkpt>
      <trkpt lat="47.85488" lon="6.78682">
        <ele>797.4</ele>
        <time>2022-08-17T07:14:03Z</time>
      </trkpt>
      <trkpt lat="47.85487" lon="6.78681">
        <ele>797.6</ele>
        <time>2022-08-17T07:14:04Z</time>
      </trkpt>
      <trkpt lat="47.85486" lon="6.7868">
        <ele>797.9</ele>
        <time>2022-08-17T07:14:05Z</time>
      </trkpt>
      <trkpt lat="47.85485" lon="6.7868">
        <ele>797.9</ele>
        <time>2022-08-17T07:14:06Z</time>
      </trkpt>
      <trkpt lat="47.85484" lon="6.78679">
        <ele>798.1</ele>
        <time>2022-08-17T07:14:07Z</time>
      </trkpt>
      <trkpt lat="47.85483" lon="6.78678">
        <ele>798.3</ele>
        <time>2022-08-17T07:14:08Z</time>
      </trkpt>
      <trkpt lat="47.85482" lon="6.78678">
        <ele>798.3</ele>
        <time>2022-08-17T07:14:09Z</time>
      </trkpt>
      <trkpt lat="47.85481" lon="6.78677">
        <ele>798.6</ele>
        <time>2022-08-17T07:14:10Z</time>
      </trkpt>
      <trkpt lat="47.8548" lon="6.78677">
        <ele>798.6</ele>
        <time>2022-08-17T07:14:11Z</time>
      </trkpt>
      <trkpt lat="47.8548" lon="6.78676">
        <ele>798.8</ele>
        <time>2022-08-17T07:14:12Z</time>
      </trkpt>
      <trkpt lat="47.85479" lon="6.78676">
        <ele>798.8</ele>
        <time>2022-08-17T07:14:13Z</time>
      </trkpt>
      <trkpt lat="47.85478" lon="6.78675">
        <ele>799.1</ele>
        <time>2022-08-17T07:14:14Z</time>
      </trkpt>
      <trkpt lat="47.85477" lon="6.78674">
        <ele>799.3</ele>
        <time>2022-08-17T07:14:16Z</time>
      </trkpt>
      <trkpt lat="47.85476" lon="6.78673">
        <ele>799.5</ele>
        <time>2022-08-17T07:14:17Z</time>
      </trkpt>
      <trkpt lat="47.85475" lon="6.78673">
        <ele>799.6</ele>
        <time>2022-08-17T07:14:19Z</time>
      </trkpt>
      <trkpt lat="47.85474" lon="6.78672">
        <ele>799.8</ele>
        <time>2022-08-17T07:14:20Z</time>
      </trkpt>
      <trkpt lat="47.85473" lon="6.78672">
        <ele>799.8</ele>
        <time>2022-08-17T07:14:21Z</time>
      </trkpt>
      <trkpt lat="47.85473" lon="6.78671">
        <ele>800</ele>
        <time>2022-08-17T07:14:22Z</time>
      </trkpt>
      <trkpt lat="47.85472" lon="6.78671">
        <ele>800</ele>
        <time>2022-08-17T07:14:23Z</time>
      </trkpt>
      <trkpt lat="47.85471" lon="6.7867">
        <ele>800.1</ele>
        <time>2022-08-17T07:14:24Z</time>
      </trkpt>
      <trkpt lat="47.8547" lon="6.78669">
        <ele>800.2</ele>
        <time>2022-08-17T07:14:26Z</time>
      </trkpt>
      <trkpt lat="47.85469" lon="6.78668">
        <ele>800.4</ele>
        <time>2022-08-17T07:14:28Z</time>
      </trkpt>
      <trkpt lat="47.85468" lon="6.78667">
        <ele>800.5</ele>
        <time>2022-08-17T07:14:29Z</time>
      </trkpt>
      <trkpt lat="47.85467" lon="6.78667">
        <ele>800.4</ele>
        <time>2022-08-17T07:14:30Z</time>
      </trkpt>
      <trkpt lat="47.85466" lon="6.78666">
        <ele>800.4</ele>
        <time>2022-08-17T07:14:31Z</time>
      </trkpt>
      <trkpt lat="47.85466" lon="6.78665">
        <ele>800.5</ele>
        <time>2022-08-17T07:14:32Z</time>
      </trkpt>
      <trkpt lat="47.85465" lon="6.78664">
        <ele>800.6</ele>
        <time>2022-08-17T07:14:33Z</time>
      </trkpt>
      <trkpt lat="47.85464" lon="6.78663">
        <ele>800.6</ele>
        <time>2022-08-17T07:14:34Z</time>
      </trkpt>
      <trkpt lat="47.85463" lon="6.78662">
        <ele>800.7</ele>
        <time>2022-08-17T07:14:35Z</time>
      </trkpt>
      <trkpt lat="47.85463" lon="6.78661">
        <ele>800.8</ele>
        <time>2022-08-17T07:14:36Z</time>
      </trkpt>
      <trkpt lat="47.85463" lon="6.7866">
        <ele>801</ele>
        <time>2022-08-17T07:14:37Z</time>
      </trkpt>
      <trkpt lat="47.85463" lon="6.78659">
        <ele>801.1</ele>
        <time>2022-08-17T07:14:38Z</time>
      </trkpt>
      <trkpt lat="47.85462" lon="6.78657">
        <ele>801.4</ele>
        <time>2022-08-17T07:14:39Z</time>
      </trkpt>
      <trkpt lat="47.85462" lon="6.78656">
        <ele>801.5</ele>
        <time>2022-08-17T07:14:40Z</time>
      </trkpt>
      <trkpt lat="47.85463" lon="6.78655">
        <ele>801.7</ele>
        <time>2022-08-17T07:14:41Z</time>
      </trkpt>
      <trkpt lat="47.85463" lon="6.78654">
        <ele>801.8</ele>
        <time>2022-08-17T07:14:42Z</time>
      </trkpt>
      <trkpt lat="47.85464" lon="6.78653">
        <ele>802</ele>
        <time>2022-08-17T07:14:43Z</time>
      </trkpt>
      <trkpt lat="47.85464" lon="6.78651">
        <ele>802.2</ele>
        <time>2022-08-17T07:14:44Z</time>
      </trkpt>
      <trkpt lat="47.85465" lon="6.7865">
        <ele>802.4</ele>
        <time>2022-08-17T07:14:45Z</time>
      </trkpt>
      <trkpt lat="47.85466" lon="6.78649">
        <ele>802.5</ele>
        <time>2022-08-17T07:14:46Z</time>
      </trkpt>
      <trkpt lat="47.85466" lon="6.78648">
        <ele>802.6</ele>
        <time>2022-08-17T07:14:47Z</time>
      </trkpt>
      <trkpt lat="47.85467" lon="6.78647">
        <ele>802.7</ele>
        <time>2022-08-17T07:14:48Z</time>
      </trkpt>
      <trkpt lat="47.85468" lon="6.78646">
        <ele>802.7</ele>
        <time>2022-08-17T07:14:49Z</time>
      </trkpt>
      <trkpt lat="47.85469" lon="6.78645">
        <ele>802.8</ele>
        <time>2022-08-17T07:14:50Z</time>
      </trkpt>
      <trkpt lat="47.85469" lon="6.78644">
        <ele>802.9</ele>
        <time>2022-08-17T07:14:51Z</time>
      </trkpt>
      <trkpt lat="47.8547" lon="6.78642">
        <ele>803</ele>
        <time>2022-08-17T07:14:59Z</time>
      </trkpt>
      <trkpt lat="47.8547" lon="6.78641">
        <ele>803.1</ele>
        <time>2022-08-17T07:15:00Z</time>
      </trkpt>
      <trkpt lat="47.8547" lon="6.7864">
        <ele>803.1</ele>
        <time>2022-08-17T07:15:01Z</time>
      </trkpt>
      <trkpt lat="47.8547" lon="6.78639">
        <ele>803.2</ele>
        <time>2022-08-17T07:15:03Z</time>
      </trkpt>
      <trkpt lat="47.85471" lon="6.78639">
        <ele>803.1</ele>
        <time>2022-08-17T07:15:04Z</time>
      </trkpt>
      <trkpt lat="47.85472" lon="6.78638">
        <ele>803.3</ele>
        <time>2022-08-17T07:15:19Z</time>
      </trkpt>
      <trkpt lat="47.85472" lon="6.78637">
        <ele>803.6</ele>
        <time>2022-08-17T07:15:20Z</time>
      </trkpt>
      <trkpt lat="47.85472" lon="6.78636">
        <ele>803.9</ele>
        <time>2022-08-17T07:15:21Z</time>
      </trkpt>
      <trkpt lat="47.85472" lon="6.78635">
        <ele>804.1</ele>
        <time>2022-08-17T07:15:22Z</time>
      </trkpt>
      <trkpt lat="47.85472" lon="6.78634">
        <ele>804.4</ele>
        <time>2022-08-17T07:15:23Z</time>
      </trkpt>
      <trkpt lat="47.85472" lon="6.78633">
        <ele>804.7</ele>
        <time>2022-08-17T07:15:24Z</time>
      </trkpt>
      <trkpt lat="47.85473" lon="6.78632">
        <ele>805</ele>
        <time>2022-08-17T07:15:26Z</time>
      </trkpt>
      <trkpt lat="47.85473" lon="6.78631">
        <ele>805.3</ele>
        <time>2022-08-17T07:15:27Z</time>
      </trkpt>
      <trkpt lat="47.85474" lon="6.7863">
        <ele>805.5</ele>
        <time>2022-08-17T07:15:28Z</time>
      </trkpt>
      <trkpt lat="47.85475" lon="6.78629">
        <ele>805.7</ele>
        <time>2022-08-17T07:15:29Z</time>
      </trkpt>
      <trkpt lat="47.85476" lon="6.78628">
        <ele>806</ele>
        <time>2022-08-17T07:15:31Z</time>
      </trkpt>
      <trkpt lat="47.85476" lon="6.78627">
        <ele>806.2</ele>
        <time>2022-08-17T07:15:32Z</time>
      </trkpt>
      <trkpt lat="47.85477" lon="6.78626">
        <ele>806.4</ele>
        <time>2022-08-17T07:15:33Z</time>
      </trkpt>
      <trkpt lat="47.85477" lon="6.78625">
        <ele>806.7</ele>
        <time>2022-08-17T07:15:35Z</time>
      </trkpt>
      <trkpt lat="47.85477" lon="6.78624">
        <ele>806.9</ele>
        <time>2022-08-17T07:15:36Z</time>
      </trkpt>
      <trkpt lat="47.85478" lon="6.78624">
        <ele>806.8</ele>
        <time>2022-08-17T07:15:37Z</time>
      </trkpt>
      <trkpt lat="47.85478" lon="6.78623">
        <ele>807.1</ele>
        <time>2022-08-17T07:15:38Z</time>
      </trkpt>
      <trkpt lat="47.85478" lon="6.78622">
        <ele>807.3</ele>
        <time>2022-08-17T07:15:41Z</time>
      </trkpt>
      <trkpt lat="47.85479" lon="6.78621">
        <ele>807.5</ele>
        <time>2022-08-17T07:15:42Z</time>
      </trkpt>
      <trkpt lat="47.85479" lon="6.7862">
        <ele>807.7</ele>
        <time>2022-08-17T07:15:43Z</time>
      </trkpt>
      <trkpt lat="47.85479" lon="6.78619">
        <ele>807.9</ele>
        <time>2022-08-17T07:15:44Z</time>
      </trkpt>
      <trkpt lat="47.8548" lon="6.78618">
        <ele>808</ele>
        <time>2022-08-17T07:15:45Z</time>
      </trkpt>
      <trkpt lat="47.8548" lon="6.78617">
        <ele>808.3</ele>
        <time>2022-08-17T07:15:46Z</time>
      </trkpt>
      <trkpt lat="47.8548" lon="6.78616">
        <ele>808.5</ele>
        <time>2022-08-17T07:15:47Z</time>
      </trkpt>
      <trkpt lat="47.8548" lon="6.78614">
        <ele>808.9</ele>
        <time>2022-08-17T07:15:48Z</time>
      </trkpt>
      <trkpt lat="47.8548" lon="6.78613">
        <ele>809.2</ele>
        <time>2022-08-17T07:15:49Z</time>
      </trkpt>
      <trkpt lat="47.85481" lon="6.78612">
        <ele>809.2</ele>
        <time>2022-08-17T07:15:50Z</time>
      </trkpt>
      <trkpt lat="47.85481" lon="6.78611">
        <ele>809.4</ele>
        <time>2022-08-17T07:15:51Z</time>
      </trkpt>
      <trkpt lat="47.85481" lon="6.7861">
        <ele>809.6</ele>
        <time>2022-08-17T07:15:52Z</time>
      </trkpt>
      <trkpt lat="47.85481" lon="6.78609">
        <ele>809.7</ele>
        <time>2022-08-17T07:15:53Z</time>
      </trkpt>
      <trkpt lat="47.85481" lon="6.78608">
        <ele>809.8</ele>
        <time>2022-08-17T07:15:54Z</time>
      </trkpt>
      <trkpt lat="47.85481" lon="6.78607">
        <ele>809.9</ele>
        <time>2022-08-17T07:15:55Z</time>
      </trkpt>
      <trkpt lat="47.85482" lon="6.78606">
        <ele>809.8</ele>
        <time>2022-08-17T07:15:56Z</time>
      </trkpt>
      <trkpt lat="47.85482" lon="6.78605">
        <ele>810</ele>
        <time>2022-08-17T07:15:57Z</time>
      </trkpt>
      <trkpt lat="47.85482" lon="6.78604">
        <ele>810.1</ele>
        <time>2022-08-17T07:15:59Z</time>
      </trkpt>
      <trkpt lat="47.85482" lon="6.78603">
        <ele>810.2</ele>
        <time>2022-08-17T07:16:00Z</time>
      </trkpt>
      <trkpt lat="47.85483" lon="6.78602">
        <ele>810.1</ele>
        <time>2022-08-17T07:16:01Z</time>
      </trkpt>
      <trkpt lat="47.85483" lon="6.78601">
        <ele>810.2</ele>
        <time>2022-08-17T07:16:02Z</time>
      </trkpt>
      <trkpt lat="47.85483" lon="6.786">
        <ele>810.3</ele>
        <time>2022-08-17T07:16:03Z</time>
      </trkpt>
      <trkpt lat="47.85483" lon="6.78599">
        <ele>810.5</ele>
        <time>2022-08-17T07:16:04Z</time>
      </trkpt>
      <trkpt lat="47.85483" lon="6.78597">
        <ele>810.7</ele>
        <time>2022-08-17T07:16:05Z</time>
      </trkpt>
      <trkpt lat="47.85484" lon="6.78596">
        <ele>810.6</ele>
        <time>2022-08-17T07:16:06Z</time>
      </trkpt>
      <trkpt lat="47.85484" lon="6.78595">
        <ele>810.7</ele>
        <time>2022-08-17T07:16:07Z</time>
      </trkpt>
      <trkpt lat="47.85484" lon="6.78593">
        <ele>810.9</ele>
        <time>2022-08-17T07:16:08Z</time>
      </trkpt>
      <trkpt lat="47.85484" lon="6.78592">
        <ele>811</ele>
        <time>2022-08-17T07:16:09Z</time>
      </trkpt>
      <trkpt lat="47.85484" lon="6.7859">
        <ele>811.3</ele>
        <time>2022-08-17T07:16:10Z</time>
      </trkpt>
      <trkpt lat="47.85484" lon="6.78589">
        <ele>811.4</ele>
        <time>2022-08-17T07:16:11Z</time>
      </trkpt>
      <trkpt lat="47.85484" lon="6.78588">
        <ele>811.5</ele>
        <time>2022-08-17T07:16:13Z</time>
      </trkpt>
      <trkpt lat="47.85484" lon="6.78587">
        <ele>811.6</ele>
        <time>2022-08-17T07:16:14Z</time>
      </trkpt>
      <trkpt lat="47.85485" lon="6.78586">
        <ele>811.5</ele>
        <time>2022-08-17T07:16:15Z</time>
      </trkpt>
      <trkpt lat="47.85485" lon="6.78585">
        <ele>811.6</ele>
        <time>2022-08-17T07:16:16Z</time>
      </trkpt>
      <trkpt lat="47.85485" lon="6.78584">
        <ele>811.7</ele>
        <time>2022-08-17T07:16:17Z</time>
      </trkpt>
      <trkpt lat="47.85485" lon="6.78583">
        <ele>811.8</ele>
        <time>2022-08-17T07:16:18Z</time>
      </trkpt>
      <trkpt lat="47.85484" lon="6.78582">
        <ele>812.1</ele>
        <time>2022-08-17T07:16:19Z</time>
      </trkpt>
      <trkpt lat="47.85484" lon="6.78581">
        <ele>812.1</ele>
        <time>2022-08-17T07:16:20Z</time>
      </trkpt>
      <trkpt lat="47.85484" lon="6.7858">
        <ele>812.2</ele>
        <time>2022-08-17T07:16:21Z</time>
      </trkpt>
      <trkpt lat="47.85484" lon="6.78579">
        <ele>812.2</ele>
        <time>2022-08-17T07:16:22Z</time>
      </trkpt>
      <trkpt lat="47.85484" lon="6.78578">
        <ele>812.2</ele>
        <time>2022-08-17T07:16:23Z</time>
      </trkpt>
      <trkpt lat="47.85483" lon="6.78577">
        <ele>812.5</ele>
        <time>2022-08-17T07:16:24Z</time>
      </trkpt>
      <trkpt lat="47.85483" lon="6.78576">
        <ele>812.5</ele>
        <time>2022-08-17T07:16:25Z</time>
      </trkpt>
      <trkpt lat="47.85483" lon="6.78575">
        <ele>812.6</ele>
        <time>2022-08-17T07:16:26Z</time>
      </trkpt>
      <trkpt lat="47.85482" lon="6.78574">
        <ele>812.9</ele>
        <time>2022-08-17T07:16:27Z</time>
      </trkpt>
      <trkpt lat="47.85482" lon="6.78573">
        <ele>812.9</ele>
        <time>2022-08-17T07:16:28Z</time>
      </trkpt>
      <trkpt lat="47.85481" lon="6.78573">
        <ele>813.2</ele>
        <time>2022-08-17T07:16:29Z</time>
      </trkpt>
      <trkpt lat="47.85481" lon="6.78571">
        <ele>813.2</ele>
        <time>2022-08-17T07:16:30Z</time>
      </trkpt>
      <trkpt lat="47.85481" lon="6.7857">
        <ele>813.3</ele>
        <time>2022-08-17T07:16:31Z</time>
      </trkpt>
      <trkpt lat="47.8548" lon="6.78569">
        <ele>813.6</ele>
        <time>2022-08-17T07:16:32Z</time>
      </trkpt>
      <trkpt lat="47.8548" lon="6.78568">
        <ele>813.6</ele>
        <time>2022-08-17T07:16:33Z</time>
      </trkpt>
      <trkpt lat="47.8548" lon="6.78567">
        <ele>813.6</ele>
        <time>2022-08-17T07:16:34Z</time>
      </trkpt>
      <trkpt lat="47.8548" lon="6.78566">
        <ele>813.7</ele>
        <time>2022-08-17T07:16:35Z</time>
      </trkpt>
      <trkpt lat="47.8548" lon="6.78565">
        <ele>813.7</ele>
        <time>2022-08-17T07:16:36Z</time>
      </trkpt>
      <trkpt lat="47.8548" lon="6.78563">
        <ele>813.8</ele>
        <time>2022-08-17T07:16:37Z</time>
      </trkpt>
      <trkpt lat="47.8548" lon="6.78562">
        <ele>813.8</ele>
        <time>2022-08-17T07:16:38Z</time>
      </trkpt>
      <trkpt lat="47.85479" lon="6.78561">
        <ele>814.1</ele>
        <time>2022-08-17T07:16:39Z</time>
      </trkpt>
      <trkpt lat="47.85479" lon="6.7856">
        <ele>814.1</ele>
        <time>2022-08-17T07:16:40Z</time>
      </trkpt>
      <trkpt lat="47.85479" lon="6.78559">
        <ele>814.2</ele>
        <time>2022-08-17T07:16:41Z</time>
      </trkpt>
      <trkpt lat="47.85479" lon="6.78558">
        <ele>814.2</ele>
        <time>2022-08-17T07:16:42Z</time>
      </trkpt>
      <trkpt lat="47.85478" lon="6.78557">
        <ele>814.5</ele>
        <time>2022-08-17T07:16:43Z</time>
      </trkpt>
      <trkpt lat="47.85478" lon="6.78556">
        <ele>814.5</ele>
        <time>2022-08-17T07:16:44Z</time>
      </trkpt>
      <trkpt lat="47.85478" lon="6.78555">
        <ele>814.5</ele>
        <time>2022-08-17T07:16:45Z</time>
      </trkpt>
      <trkpt lat="47.85478" lon="6.78554">
        <ele>814.5</ele>
        <time>2022-08-17T07:16:46Z</time>
      </trkpt>
      <trkpt lat="47.85478" lon="6.78553">
        <ele>814.5</ele>
        <time>2022-08-17T07:16:47Z</time>
      </trkpt>
      <trkpt lat="47.85477" lon="6.78552">
        <ele>814.8</ele>
        <time>2022-08-17T07:16:48Z</time>
      </trkpt>
      <trkpt lat="47.85476" lon="6.78551">
        <ele>815</ele>
        <time>2022-08-17T07:16:49Z</time>
      </trkpt>
      <trkpt lat="47.85476" lon="6.7855">
        <ele>815</ele>
        <time>2022-08-17T07:16:50Z</time>
      </trkpt>
      <trkpt lat="47.85475" lon="6.78549">
        <ele>815.3</ele>
        <time>2022-08-17T07:16:51Z</time>
      </trkpt>
      <trkpt lat="47.85475" lon="6.78548">
        <ele>815.3</ele>
        <time>2022-08-17T07:16:52Z</time>
      </trkpt>
      <trkpt lat="47.85474" lon="6.78547">
        <ele>815.6</ele>
        <time>2022-08-17T07:16:53Z</time>
      </trkpt>
      <trkpt lat="47.85473" lon="6.78546">
        <ele>815.8</ele>
        <time>2022-08-17T07:16:54Z</time>
      </trkpt>
      <trkpt lat="47.85473" lon="6.78545">
        <ele>815.8</ele>
        <time>2022-08-17T07:16:55Z</time>
      </trkpt>
      <trkpt lat="47.85472" lon="6.78544">
        <ele>816.1</ele>
        <time>2022-08-17T07:16:56Z</time>
      </trkpt>
      <trkpt lat="47.85472" lon="6.78543">
        <ele>816.1</ele>
        <time>2022-08-17T07:16:57Z</time>
      </trkpt>
      <trkpt lat="47.85472" lon="6.78542">
        <ele>816.1</ele>
        <time>2022-08-17T07:16:58Z</time>
      </trkpt>
      <trkpt lat="47.85471" lon="6.78541">
        <ele>816.3</ele>
        <time>2022-08-17T07:16:59Z</time>
      </trkpt>
      <trkpt lat="47.85471" lon="6.7854">
        <ele>816.3</ele>
        <time>2022-08-17T07:17:01Z</time>
      </trkpt>
      <trkpt lat="47.8547" lon="6.78539">
        <ele>816.6</ele>
        <time>2022-08-17T07:17:02Z</time>
      </trkpt>
      <trkpt lat="47.8547" lon="6.78538">
        <ele>816.6</ele>
        <time>2022-08-17T07:17:03Z</time>
      </trkpt>
      <trkpt lat="47.8547" lon="6.78537">
        <ele>816.6</ele>
        <time>2022-08-17T07:17:04Z</time>
      </trkpt>
      <trkpt lat="47.85469" lon="6.78537">
        <ele>816.8</ele>
        <time>2022-08-17T07:17:05Z</time>
      </trkpt>
      <trkpt lat="47.85469" lon="6.78536">
        <ele>816.8</ele>
        <time>2022-08-17T07:17:06Z</time>
      </trkpt>
      <trkpt lat="47.85468" lon="6.78535">
        <ele>817.1</ele>
        <time>2022-08-17T07:17:07Z</time>
      </trkpt>
      <trkpt lat="47.85467" lon="6.78534">
        <ele>817.3</ele>
        <time>2022-08-17T07:17:08Z</time>
      </trkpt>
      <trkpt lat="47.85466" lon="6.78533">
        <ele>817.6</ele>
        <time>2022-08-17T07:17:10Z</time>
      </trkpt>
      <trkpt lat="47.85465" lon="6.78532">
        <ele>817.8</ele>
        <time>2022-08-17T07:17:12Z</time>
      </trkpt>
      <trkpt lat="47.85464" lon="6.78531">
        <ele>818.1</ele>
        <time>2022-08-17T07:17:14Z</time>
      </trkpt>
      <trkpt lat="47.85464" lon="6.7853">
        <ele>818.1</ele>
        <time>2022-08-17T07:17:15Z</time>
      </trkpt>
      <trkpt lat="47.85463" lon="6.7853">
        <ele>818.3</ele>
        <time>2022-08-17T07:17:16Z</time>
      </trkpt>
      <trkpt lat="47.85463" lon="6.78529">
        <ele>818.3</ele>
        <time>2022-08-17T07:17:17Z</time>
      </trkpt>
      <trkpt lat="47.85462" lon="6.78528">
        <ele>818.6</ele>
        <time>2022-08-17T07:17:18Z</time>
      </trkpt>
      <trkpt lat="47.85462" lon="6.78527">
        <ele>818.6</ele>
        <time>2022-08-17T07:17:19Z</time>
      </trkpt>
      <trkpt lat="47.85462" lon="6.78526">
        <ele>818.6</ele>
        <time>2022-08-17T07:17:20Z</time>
      </trkpt>
      <trkpt lat="47.85461" lon="6.78525">
        <ele>818.8</ele>
        <time>2022-08-17T07:17:21Z</time>
      </trkpt>
      <trkpt lat="47.85461" lon="6.78524">
        <ele>818.8</ele>
        <time>2022-08-17T07:17:22Z</time>
      </trkpt>
      <trkpt lat="47.85461" lon="6.78523">
        <ele>818.8</ele>
        <time>2022-08-17T07:17:23Z</time>
      </trkpt>
      <trkpt lat="47.8546" lon="6.78522">
        <ele>819</ele>
        <time>2022-08-17T07:17:24Z</time>
      </trkpt>
      <trkpt lat="47.8546" lon="6.78521">
        <ele>819</ele>
        <time>2022-08-17T07:17:25Z</time>
      </trkpt>
      <trkpt lat="47.85459" lon="6.7852">
        <ele>819.2</ele>
        <time>2022-08-17T07:17:26Z</time>
      </trkpt>
      <trkpt lat="47.85459" lon="6.78519">
        <ele>819.2</ele>
        <time>2022-08-17T07:17:27Z</time>
      </trkpt>
      <trkpt lat="47.85458" lon="6.78518">
        <ele>819.4</ele>
        <time>2022-08-17T07:17:28Z</time>
      </trkpt>
      <trkpt lat="47.85457" lon="6.78517">
        <ele>819.6</ele>
        <time>2022-08-17T07:17:29Z</time>
      </trkpt>
      <trkpt lat="47.85457" lon="6.78516">
        <ele>819.6</ele>
        <time>2022-08-17T07:17:30Z</time>
      </trkpt>
      <trkpt lat="47.85456" lon="6.78515">
        <ele>819.8</ele>
        <time>2022-08-17T07:17:31Z</time>
      </trkpt>
      <trkpt lat="47.85456" lon="6.78514">
        <ele>819.8</ele>
        <time>2022-08-17T07:17:33Z</time>
      </trkpt>
      <trkpt lat="47.85455" lon="6.78514">
        <ele>820</ele>
        <time>2022-08-17T07:17:34Z</time>
      </trkpt>
      <trkpt lat="47.85454" lon="6.78514">
        <ele>820.3</ele>
        <time>2022-08-17T07:17:36Z</time>
      </trkpt>
      <trkpt lat="47.85452" lon="6.78516">
        <ele>820.8</ele>
        <time>2022-08-17T07:17:47Z</time>
      </trkpt>
      <trkpt lat="47.85452" lon="6.78517">
        <ele>820.8</ele>
        <time>2022-08-17T07:17:48Z</time>
      </trkpt>
      <trkpt lat="47.85451" lon="6.78518">
        <ele>821.1</ele>
        <time>2022-08-17T07:17:49Z</time>
      </trkpt>
      <trkpt lat="47.85451" lon="6.78519">
        <ele>821.1</ele>
        <time>2022-08-17T07:17:50Z</time>
      </trkpt>
      <trkpt lat="47.85451" lon="6.7852">
        <ele>821.1</ele>
        <time>2022-08-17T07:17:51Z</time>
      </trkpt>
      <trkpt lat="47.85451" lon="6.78521">
        <ele>821.2</ele>
        <time>2022-08-17T07:17:52Z</time>
      </trkpt>
      <trkpt lat="47.85451" lon="6.78522">
        <ele>821.2</ele>
        <time>2022-08-17T07:17:53Z</time>
      </trkpt>
      <trkpt lat="47.85451" lon="6.78524">
        <ele>821.2</ele>
        <time>2022-08-17T07:17:54Z</time>
      </trkpt>
      <trkpt lat="47.85451" lon="6.78525">
        <ele>821.3</ele>
        <time>2022-08-17T07:17:55Z</time>
      </trkpt>
      <trkpt lat="47.85451" lon="6.78526">
        <ele>821.3</ele>
        <time>2022-08-17T07:17:56Z</time>
      </trkpt>
      <trkpt lat="47.85451" lon="6.78527">
        <ele>821.3</ele>
        <time>2022-08-17T07:17:57Z</time>
      </trkpt>
      <trkpt lat="47.85451" lon="6.78528">
        <ele>821.3</ele>
        <time>2022-08-17T07:17:58Z</time>
      </trkpt>
      <trkpt lat="47.8545" lon="6.78529">
        <ele>821.6</ele>
        <time>2022-08-17T07:17:59Z</time>
      </trkpt>
      <trkpt lat="47.8545" lon="6.7853">
        <ele>821.6</ele>
        <time>2022-08-17T07:18:00Z</time>
      </trkpt>
      <trkpt lat="47.8545" lon="6.78531">
        <ele>821.6</ele>
        <time>2022-08-17T07:18:01Z</time>
      </trkpt>
      <trkpt lat="47.8545" lon="6.78532">
        <ele>821.6</ele>
        <time>2022-08-17T07:18:02Z</time>
      </trkpt>
      <trkpt lat="47.85449" lon="6.78533">
        <ele>821.9</ele>
        <time>2022-08-17T07:18:03Z</time>
      </trkpt>
      <trkpt lat="47.85449" lon="6.78534">
        <ele>821.9</ele>
        <time>2022-08-17T07:18:04Z</time>
      </trkpt>
      <trkpt lat="47.85449" lon="6.78535">
        <ele>821.9</ele>
        <time>2022-08-17T07:18:05Z</time>
      </trkpt>
      <trkpt lat="47.85449" lon="6.78537">
        <ele>821.9</ele>
        <time>2022-08-17T07:18:06Z</time>
      </trkpt>
      <trkpt lat="47.85448" lon="6.78538">
        <ele>822.1</ele>
        <time>2022-08-17T07:18:07Z</time>
      </trkpt>
      <trkpt lat="47.85448" lon="6.7854">
        <ele>822.1</ele>
        <time>2022-08-17T07:18:08Z</time>
      </trkpt>
      <trkpt lat="47.85448" lon="6.78542">
        <ele>822.1</ele>
        <time>2022-08-17T07:18:09Z</time>
      </trkpt>
      <trkpt lat="47.85448" lon="6.78544">
        <ele>822.1</ele>
        <time>2022-08-17T07:18:10Z</time>
      </trkpt>
      <trkpt lat="47.85447" lon="6.78545">
        <ele>822.4</ele>
        <time>2022-08-17T07:18:11Z</time>
      </trkpt>
      <trkpt lat="47.85447" lon="6.78547">
        <ele>822.4</ele>
        <time>2022-08-17T07:18:12Z</time>
      </trkpt>
      <trkpt lat="47.85447" lon="6.78549">
        <ele>822.4</ele>
        <time>2022-08-17T07:18:13Z</time>
      </trkpt>
      <trkpt lat="47.85446" lon="6.78551">
        <ele>822.6</ele>
        <time>2022-08-17T07:18:14Z</time>
      </trkpt>
      <trkpt lat="47.85446" lon="6.78552">
        <ele>822.6</ele>
        <time>2022-08-17T07:18:15Z</time>
      </trkpt>
      <trkpt lat="47.85445" lon="6.78554">
        <ele>822.9</ele>
        <time>2022-08-17T07:18:16Z</time>
      </trkpt>
      <trkpt lat="47.85445" lon="6.78555">
        <ele>822.9</ele>
        <time>2022-08-17T07:18:17Z</time>
      </trkpt>
      <trkpt lat="47.85444" lon="6.78556">
        <ele>823.1</ele>
        <time>2022-08-17T07:18:18Z</time>
      </trkpt>
      <trkpt lat="47.85444" lon="6.78557">
        <ele>823</ele>
        <time>2022-08-17T07:18:19Z</time>
      </trkpt>
      <trkpt lat="47.85443" lon="6.78558">
        <ele>823.1</ele>
        <time>2022-08-17T07:18:20Z</time>
      </trkpt>
      <trkpt lat="47.85442" lon="6.78559">
        <ele>823.2</ele>
        <time>2022-08-17T07:18:21Z</time>
      </trkpt>
      <trkpt lat="47.85442" lon="6.7856">
        <ele>823.1</ele>
        <time>2022-08-17T07:18:22Z</time>
      </trkpt>
      <trkpt lat="47.85441" lon="6.78561">
        <ele>823.3</ele>
        <time>2022-08-17T07:18:23Z</time>
      </trkpt>
      <trkpt lat="47.85441" lon="6.78562">
        <ele>823.1</ele>
        <time>2022-08-17T07:18:24Z</time>
      </trkpt>
      <trkpt lat="47.8544" lon="6.78563">
        <ele>823.3</ele>
        <time>2022-08-17T07:18:25Z</time>
      </trkpt>
      <trkpt lat="47.8544" lon="6.78564">
        <ele>823.2</ele>
        <time>2022-08-17T07:18:26Z</time>
      </trkpt>
      <trkpt lat="47.85439" lon="6.78564">
        <ele>823.4</ele>
        <time>2022-08-17T07:18:27Z</time>
      </trkpt>
      <trkpt lat="47.85439" lon="6.78565">
        <ele>823.3</ele>
        <time>2022-08-17T07:18:28Z</time>
      </trkpt>
      <trkpt lat="47.85438" lon="6.78566">
        <ele>823.4</ele>
        <time>2022-08-17T07:18:29Z</time>
      </trkpt>
      <trkpt lat="47.85437" lon="6.78567">
        <ele>823.5</ele>
        <time>2022-08-17T07:18:30Z</time>
      </trkpt>
      <trkpt lat="47.85436" lon="6.78568">
        <ele>823.6</ele>
        <time>2022-08-17T07:18:32Z</time>
      </trkpt>
      <trkpt lat="47.85435" lon="6.78569">
        <ele>823.8</ele>
        <time>2022-08-17T07:18:33Z</time>
      </trkpt>
      <trkpt lat="47.85434" lon="6.7857">
        <ele>823.9</ele>
        <time>2022-08-17T07:18:35Z</time>
      </trkpt>
      <trkpt lat="47.85434" lon="6.78571">
        <ele>823.8</ele>
        <time>2022-08-17T07:18:36Z</time>
      </trkpt>
      <trkpt lat="47.85433" lon="6.78572">
        <ele>823.9</ele>
        <time>2022-08-17T07:18:37Z</time>
      </trkpt>
      <trkpt lat="47.85433" lon="6.78573">
        <ele>823.7</ele>
        <time>2022-08-17T07:18:38Z</time>
      </trkpt>
      <trkpt lat="47.85432" lon="6.78573">
        <ele>824</ele>
        <time>2022-08-17T07:18:39Z</time>
      </trkpt>
      <trkpt lat="47.85432" lon="6.78575">
        <ele>823.7</ele>
        <time>2022-08-17T07:18:40Z</time>
      </trkpt>
      <trkpt lat="47.85431" lon="6.78576">
        <ele>823.8</ele>
        <time>2022-08-17T07:18:41Z</time>
      </trkpt>
      <trkpt lat="47.8543" lon="6.78577">
        <ele>823.9</ele>
        <time>2022-08-17T07:18:42Z</time>
      </trkpt>
      <trkpt lat="47.8543" lon="6.78578">
        <ele>823.8</ele>
        <time>2022-08-17T07:18:43Z</time>
      </trkpt>
      <trkpt lat="47.85429" lon="6.78579">
        <ele>823.9</ele>
        <time>2022-08-17T07:18:44Z</time>
      </trkpt>
      <trkpt lat="47.85428" lon="6.7858">
        <ele>824</ele>
        <time>2022-08-17T07:18:45Z</time>
      </trkpt>
      <trkpt lat="47.85427" lon="6.7858">
        <ele>824.2</ele>
        <time>2022-08-17T07:18:46Z</time>
      </trkpt>
      <trkpt lat="47.85426" lon="6.78581">
        <ele>824.3</ele>
        <time>2022-08-17T07:18:47Z</time>
      </trkpt>
      <trkpt lat="47.85425" lon="6.78582">
        <ele>824.4</ele>
        <time>2022-08-17T07:18:49Z</time>
      </trkpt>
      <trkpt lat="47.85424" lon="6.78582">
        <ele>824.6</ele>
        <time>2022-08-17T07:18:50Z</time>
      </trkpt>
      <trkpt lat="47.85423" lon="6.78583">
        <ele>824.7</ele>
        <time>2022-08-17T07:18:51Z</time>
      </trkpt>
      <trkpt lat="47.85422" lon="6.78584">
        <ele>824.7</ele>
        <time>2022-08-17T07:18:53Z</time>
      </trkpt>
      <trkpt lat="47.85421" lon="6.78585">
        <ele>824.6</ele>
        <time>2022-08-17T07:18:55Z</time>
      </trkpt>
      <trkpt lat="47.8542" lon="6.78586">
        <ele>824.5</ele>
        <time>2022-08-17T07:18:57Z</time>
      </trkpt>
      <trkpt lat="47.85419" lon="6.78586">
        <ele>824.7</ele>
        <time>2022-08-17T07:18:58Z</time>
      </trkpt>
      <trkpt lat="47.85418" lon="6.78586">
        <ele>825</ele>
        <time>2022-08-17T07:21:48Z</time>
      </trkpt>
      <trkpt lat="47.85418" lon="6.78585">
        <ele>825.2</ele>
        <time>2022-08-17T07:21:49Z</time>
      </trkpt>
      <trkpt lat="47.85417" lon="6.78585">
        <ele>825.4</ele>
        <time>2022-08-17T07:21:51Z</time>
      </trkpt>
      <trkpt lat="47.85417" lon="6.78586">
        <ele>825.2</ele>
        <time>2022-08-17T07:21:52Z</time>
      </trkpt>
      <trkpt lat="47.85416" lon="6.78587">
        <ele>825</ele>
        <time>2022-08-17T07:21:53Z</time>
      </trkpt>
      <trkpt lat="47.85416" lon="6.78588">
        <ele>824.7</ele>
        <time>2022-08-17T07:21:54Z</time>
      </trkpt>
      <trkpt lat="47.85415" lon="6.78589">
        <ele>824.6</ele>
        <time>2022-08-17T07:21:55Z</time>
      </trkpt>
      <trkpt lat="47.85414" lon="6.7859">
        <ele>824.4</ele>
        <time>2022-08-17T07:21:56Z</time>
      </trkpt>
      <trkpt lat="47.85413" lon="6.7859">
        <ele>824.5</ele>
        <time>2022-08-17T07:21:57Z</time>
      </trkpt>
      <trkpt lat="47.85412" lon="6.78591">
        <ele>824.4</ele>
        <time>2022-08-17T07:21:58Z</time>
      </trkpt>
      <trkpt lat="47.85411" lon="6.78592">
        <ele>824.2</ele>
        <time>2022-08-17T07:21:59Z</time>
      </trkpt>
      <trkpt lat="47.8541" lon="6.78592">
        <ele>824.3</ele>
        <time>2022-08-17T07:22:00Z</time>
      </trkpt>
      <trkpt lat="47.8541" lon="6.78593">
        <ele>824</ele>
        <time>2022-08-17T07:22:01Z</time>
      </trkpt>
      <trkpt lat="47.85409" lon="6.78593">
        <ele>824.1</ele>
        <time>2022-08-17T07:22:02Z</time>
      </trkpt>
      <trkpt lat="47.85408" lon="6.78594">
        <ele>823.9</ele>
        <time>2022-08-17T07:22:03Z</time>
      </trkpt>
      <trkpt lat="47.85407" lon="6.78593">
        <ele>824.4</ele>
        <time>2022-08-17T07:22:04Z</time>
      </trkpt>
      <trkpt lat="47.85406" lon="6.78593">
        <ele>824.5</ele>
        <time>2022-08-17T07:22:05Z</time>
      </trkpt>
      <trkpt lat="47.85405" lon="6.78592">
        <ele>824.9</ele>
        <time>2022-08-17T07:22:06Z</time>
      </trkpt>
      <trkpt lat="47.85403" lon="6.78592">
        <ele>825.2</ele>
        <time>2022-08-17T07:22:07Z</time>
      </trkpt>
      <trkpt lat="47.85402" lon="6.78592">
        <ele>825.3</ele>
        <time>2022-08-17T07:22:08Z</time>
      </trkpt>
      <trkpt lat="47.85401" lon="6.78591">
        <ele>825.7</ele>
        <time>2022-08-17T07:22:09Z</time>
      </trkpt>
      <trkpt lat="47.854" lon="6.78591">
        <ele>825.9</ele>
        <time>2022-08-17T07:22:10Z</time>
      </trkpt>
      <trkpt lat="47.85399" lon="6.78591">
        <ele>826</ele>
        <time>2022-08-17T07:22:11Z</time>
      </trkpt>
      <trkpt lat="47.85398" lon="6.78591">
        <ele>826.1</ele>
        <time>2022-08-17T07:22:12Z</time>
      </trkpt>
      <trkpt lat="47.85396" lon="6.78591">
        <ele>826.4</ele>
        <time>2022-08-17T07:22:13Z</time>
      </trkpt>
      <trkpt lat="47.85395" lon="6.78591">
        <ele>826.5</ele>
        <time>2022-08-17T07:22:14Z</time>
      </trkpt>
      <trkpt lat="47.85394" lon="6.78591">
        <ele>826.6</ele>
        <time>2022-08-17T07:22:15Z</time>
      </trkpt>
      <trkpt lat="47.85394" lon="6.7859">
        <ele>827</ele>
        <time>2022-08-17T07:22:16Z</time>
      </trkpt>
      <trkpt lat="47.85393" lon="6.7859">
        <ele>827.1</ele>
        <time>2022-08-17T07:22:17Z</time>
      </trkpt>
      <trkpt lat="47.85392" lon="6.7859">
        <ele>827.2</ele>
        <time>2022-08-17T07:22:18Z</time>
      </trkpt>
      <trkpt lat="47.85391" lon="6.7859">
        <ele>827.3</ele>
        <time>2022-08-17T07:22:19Z</time>
      </trkpt>
      <trkpt lat="47.8539" lon="6.7859">
        <ele>827.5</ele>
        <time>2022-08-17T07:22:20Z</time>
      </trkpt>
      <trkpt lat="47.85389" lon="6.7859">
        <ele>827.6</ele>
        <time>2022-08-17T07:22:21Z</time>
      </trkpt>
      <trkpt lat="47.85388" lon="6.7859">
        <ele>827.6</ele>
        <time>2022-08-17T07:22:22Z</time>
      </trkpt>
      <trkpt lat="47.85387" lon="6.7859">
        <ele>827.5</ele>
        <time>2022-08-17T07:22:23Z</time>
      </trkpt>
      <trkpt lat="47.85386" lon="6.7859">
        <ele>827.4</ele>
        <time>2022-08-17T07:22:24Z</time>
      </trkpt>
      <trkpt lat="47.85385" lon="6.7859">
        <ele>827.4</ele>
        <time>2022-08-17T07:22:26Z</time>
      </trkpt>
      <trkpt lat="47.85384" lon="6.7859">
        <ele>827.3</ele>
        <time>2022-08-17T07:22:27Z</time>
      </trkpt>
      <trkpt lat="47.85383" lon="6.78589">
        <ele>827.7</ele>
        <time>2022-08-17T07:22:28Z</time>
      </trkpt>
      <trkpt lat="47.85382" lon="6.78588">
        <ele>828</ele>
        <time>2022-08-17T07:22:30Z</time>
      </trkpt>
      <trkpt lat="47.85381" lon="6.78587">
        <ele>828.3</ele>
        <time>2022-08-17T07:22:31Z</time>
      </trkpt>
      <trkpt lat="47.8538" lon="6.78587">
        <ele>828.3</ele>
        <time>2022-08-17T07:22:32Z</time>
      </trkpt>
      <trkpt lat="47.85379" lon="6.78586">
        <ele>828.6</ele>
        <time>2022-08-17T07:22:33Z</time>
      </trkpt>
      <trkpt lat="47.85378" lon="6.78585">
        <ele>829</ele>
        <time>2022-08-17T07:22:34Z</time>
      </trkpt>
      <trkpt lat="47.85377" lon="6.78585">
        <ele>828.9</ele>
        <time>2022-08-17T07:22:35Z</time>
      </trkpt>
      <trkpt lat="47.85376" lon="6.78584">
        <ele>829.3</ele>
        <time>2022-08-17T07:22:36Z</time>
      </trkpt>
      <trkpt lat="47.85375" lon="6.78583">
        <ele>829.6</ele>
        <time>2022-08-17T07:22:37Z</time>
      </trkpt>
      <trkpt lat="47.85374" lon="6.78583">
        <ele>829.6</ele>
        <time>2022-08-17T07:22:38Z</time>
      </trkpt>
      <trkpt lat="47.85373" lon="6.78582">
        <ele>829.9</ele>
        <time>2022-08-17T07:22:39Z</time>
      </trkpt>
      <trkpt lat="47.85372" lon="6.78582">
        <ele>829.8</ele>
        <time>2022-08-17T07:22:40Z</time>
      </trkpt>
      <trkpt lat="47.85371" lon="6.78581">
        <ele>830.2</ele>
        <time>2022-08-17T07:22:41Z</time>
      </trkpt>
      <trkpt lat="47.8537" lon="6.78581">
        <ele>830.1</ele>
        <time>2022-08-17T07:22:42Z</time>
      </trkpt>
      <trkpt lat="47.85369" lon="6.78581">
        <ele>830.1</ele>
        <time>2022-08-17T07:22:43Z</time>
      </trkpt>
      <trkpt lat="47.85368" lon="6.78581">
        <ele>830.1</ele>
        <time>2022-08-17T07:22:45Z</time>
      </trkpt>
      <trkpt lat="47.85367" lon="6.78581">
        <ele>830.1</ele>
        <time>2022-08-17T07:22:46Z</time>
      </trkpt>
      <trkpt lat="47.85366" lon="6.78581">
        <ele>830</ele>
        <time>2022-08-17T07:22:47Z</time>
      </trkpt>
      <trkpt lat="47.85365" lon="6.78581">
        <ele>830</ele>
        <time>2022-08-17T07:22:49Z</time>
      </trkpt>
      <trkpt lat="47.85364" lon="6.78581">
        <ele>830</ele>
        <time>2022-08-17T07:22:50Z</time>
      </trkpt>
      <trkpt lat="47.85363" lon="6.7858">
        <ele>830.4</ele>
        <time>2022-08-17T07:22:52Z</time>
      </trkpt>
      <trkpt lat="47.85362" lon="6.7858">
        <ele>830.3</ele>
        <time>2022-08-17T07:22:53Z</time>
      </trkpt>
      <trkpt lat="47.85361" lon="6.7858">
        <ele>830.3</ele>
        <time>2022-08-17T07:22:54Z</time>
      </trkpt>
      <trkpt lat="47.8536" lon="6.7858">
        <ele>830.4</ele>
        <time>2022-08-17T07:22:55Z</time>
      </trkpt>
      <trkpt lat="47.85359" lon="6.7858">
        <ele>830.4</ele>
        <time>2022-08-17T07:22:56Z</time>
      </trkpt>
      <trkpt lat="47.85359" lon="6.78579">
        <ele>830.8</ele>
        <time>2022-08-17T07:22:57Z</time>
      </trkpt>
      <trkpt lat="47.85358" lon="6.78579">
        <ele>830.8</ele>
        <time>2022-08-17T07:22:58Z</time>
      </trkpt>
      <trkpt lat="47.85357" lon="6.78579">
        <ele>830.8</ele>
        <time>2022-08-17T07:22:59Z</time>
      </trkpt>
      <trkpt lat="47.85356" lon="6.78579">
        <ele>830.9</ele>
        <time>2022-08-17T07:23:00Z</time>
      </trkpt>
      <trkpt lat="47.85355" lon="6.7858">
        <ele>830.5</ele>
        <time>2022-08-17T07:23:01Z</time>
      </trkpt>
      <trkpt lat="47.85354" lon="6.7858">
        <ele>830.5</ele>
        <time>2022-08-17T07:23:02Z</time>
      </trkpt>
      <trkpt lat="47.85353" lon="6.78581">
        <ele>830.2</ele>
        <time>2022-08-17T07:23:03Z</time>
      </trkpt>
      <trkpt lat="47.85351" lon="6.78582">
        <ele>829.9</ele>
        <time>2022-08-17T07:23:04Z</time>
      </trkpt>
      <trkpt lat="47.8535" lon="6.78583">
        <ele>829.5</ele>
        <time>2022-08-17T07:23:05Z</time>
      </trkpt>
      <trkpt lat="47.85349" lon="6.78584">
        <ele>829.1</ele>
        <time>2022-08-17T07:23:06Z</time>
      </trkpt>
      <trkpt lat="47.85348" lon="6.78584">
        <ele>829.2</ele>
        <time>2022-08-17T07:23:07Z</time>
      </trkpt>
      <trkpt lat="47.85347" lon="6.78584">
        <ele>829.2</ele>
        <time>2022-08-17T07:23:08Z</time>
      </trkpt>
      <trkpt lat="47.85346" lon="6.78584">
        <ele>829.2</ele>
        <time>2022-08-17T07:23:09Z</time>
      </trkpt>
      <trkpt lat="47.85345" lon="6.78583">
        <ele>829.7</ele>
        <time>2022-08-17T07:23:10Z</time>
      </trkpt>
      <trkpt lat="47.85344" lon="6.78582">
        <ele>830.1</ele>
        <time>2022-08-17T07:23:12Z</time>
      </trkpt>
      <trkpt lat="47.85344" lon="6.7858">
        <ele>830.9</ele>
        <time>2022-08-17T07:23:13Z</time>
      </trkpt>
      <trkpt lat="47.85344" lon="6.78579">
        <ele>831.2</ele>
        <time>2022-08-17T07:23:14Z</time>
      </trkpt>
      <trkpt lat="47.85343" lon="6.78578">
        <ele>831.6</ele>
        <time>2022-08-17T07:23:15Z</time>
      </trkpt>
      <trkpt lat="47.85343" lon="6.78576">
        <ele>832.4</ele>
        <time>2022-08-17T07:23:16Z</time>
      </trkpt>
      <trkpt lat="47.85343" lon="6.78575">
        <ele>832.8</ele>
        <time>2022-08-17T07:23:17Z</time>
      </trkpt>
      <trkpt lat="47.85342" lon="6.78575">
        <ele>832.8</ele>
        <time>2022-08-17T07:23:18Z</time>
      </trkpt>
      <trkpt lat="47.85342" lon="6.78574">
        <ele>833.2</ele>
        <time>2022-08-17T07:23:19Z</time>
      </trkpt>
      <trkpt lat="47.85341" lon="6.78574">
        <ele>833.2</ele>
        <time>2022-08-17T07:23:21Z</time>
      </trkpt>
      <trkpt lat="47.85339" lon="6.78574">
        <ele>833.2</ele>
        <time>2022-08-17T07:23:28Z</time>
      </trkpt>
      <trkpt lat="47.85338" lon="6.78573">
        <ele>833.6</ele>
        <time>2022-08-17T07:23:29Z</time>
      </trkpt>
      <trkpt lat="47.85337" lon="6.78573">
        <ele>833.6</ele>
        <time>2022-08-17T07:23:30Z</time>
      </trkpt>
      <trkpt lat="47.85336" lon="6.78573">
        <ele>833.7</ele>
        <time>2022-08-17T07:23:32Z</time>
      </trkpt>
      <trkpt lat="47.85335" lon="6.78573">
        <ele>833.7</ele>
        <time>2022-08-17T07:23:33Z</time>
      </trkpt>
      <trkpt lat="47.85334" lon="6.78574">
        <ele>833.3</ele>
        <time>2022-08-17T07:23:35Z</time>
      </trkpt>
      <trkpt lat="47.85333" lon="6.78574">
        <ele>833.4</ele>
        <time>2022-08-17T07:23:36Z</time>
      </trkpt>
      <trkpt lat="47.85332" lon="6.78575">
        <ele>833</ele>
        <time>2022-08-17T07:23:37Z</time>
      </trkpt>
      <trkpt lat="47.85331" lon="6.78575">
        <ele>833.1</ele>
        <time>2022-08-17T07:23:38Z</time>
      </trkpt>
      <trkpt lat="47.8533" lon="6.78575">
        <ele>833.1</ele>
        <time>2022-08-17T07:23:39Z</time>
      </trkpt>
      <trkpt lat="47.85329" lon="6.78574">
        <ele>833.5</ele>
        <time>2022-08-17T07:23:41Z</time>
      </trkpt>
      <trkpt lat="47.85328" lon="6.78574">
        <ele>833.5</ele>
        <time>2022-08-17T07:23:43Z</time>
      </trkpt>
      <trkpt lat="47.85327" lon="6.78573">
        <ele>833.9</ele>
        <time>2022-08-17T07:23:44Z</time>
      </trkpt>
      <trkpt lat="47.85326" lon="6.78573">
        <ele>833.9</ele>
        <time>2022-08-17T07:23:45Z</time>
      </trkpt>
      <trkpt lat="47.85326" lon="6.78572">
        <ele>834.3</ele>
        <time>2022-08-17T07:23:46Z</time>
      </trkpt>
      <trkpt lat="47.85325" lon="6.78572">
        <ele>834.3</ele>
        <time>2022-08-17T07:23:47Z</time>
      </trkpt>
      <trkpt lat="47.85324" lon="6.78572">
        <ele>834.4</ele>
        <time>2022-08-17T07:23:48Z</time>
      </trkpt>
      <trkpt lat="47.85323" lon="6.78571">
        <ele>834.8</ele>
        <time>2022-08-17T07:23:49Z</time>
      </trkpt>
      <trkpt lat="47.85322" lon="6.7857">
        <ele>835.2</ele>
        <time>2022-08-17T07:23:51Z</time>
      </trkpt>
      <trkpt lat="47.85321" lon="6.7857">
        <ele>835.2</ele>
        <time>2022-08-17T07:23:53Z</time>
      </trkpt>
      <trkpt lat="47.85321" lon="6.78569">
        <ele>835.6</ele>
        <time>2022-08-17T07:23:54Z</time>
      </trkpt>
      <trkpt lat="47.8532" lon="6.78569">
        <ele>835.7</ele>
        <time>2022-08-17T07:23:55Z</time>
      </trkpt>
      <trkpt lat="47.85319" lon="6.78569">
        <ele>835.7</ele>
        <time>2022-08-17T07:23:56Z</time>
      </trkpt>
      <trkpt lat="47.85318" lon="6.78568">
        <ele>836.1</ele>
        <time>2022-08-17T07:23:58Z</time>
      </trkpt>
      <trkpt lat="47.85317" lon="6.78568">
        <ele>836.2</ele>
        <time>2022-08-17T07:24:00Z</time>
      </trkpt>
      <trkpt lat="47.85316" lon="6.78568">
        <ele>836.2</ele>
        <time>2022-08-17T07:24:01Z</time>
      </trkpt>
      <trkpt lat="47.85316" lon="6.78567">
        <ele>836.6</ele>
        <time>2022-08-17T07:24:02Z</time>
      </trkpt>
      <trkpt lat="47.85315" lon="6.78567">
        <ele>836.7</ele>
        <time>2022-08-17T07:24:03Z</time>
      </trkpt>
      <trkpt lat="47.85314" lon="6.78567">
        <ele>836.7</ele>
        <time>2022-08-17T07:24:04Z</time>
      </trkpt>
      <trkpt lat="47.85313" lon="6.78566">
        <ele>837.2</ele>
        <time>2022-08-17T07:24:05Z</time>
      </trkpt>
      <trkpt lat="47.85312" lon="6.78565">
        <ele>837.6</ele>
        <time>2022-08-17T07:24:07Z</time>
      </trkpt>
      <trkpt lat="47.85311" lon="6.78565">
        <ele>837.7</ele>
        <time>2022-08-17T07:24:08Z</time>
      </trkpt>
      <trkpt lat="47.8531" lon="6.78564">
        <ele>838.1</ele>
        <time>2022-08-17T07:24:09Z</time>
      </trkpt>
      <trkpt lat="47.85309" lon="6.78563">
        <ele>838.6</ele>
        <time>2022-08-17T07:24:10Z</time>
      </trkpt>
      <trkpt lat="47.85308" lon="6.78563">
        <ele>838.7</ele>
        <time>2022-08-17T07:24:11Z</time>
      </trkpt>
      <trkpt lat="47.85307" lon="6.78563">
        <ele>838.7</ele>
        <time>2022-08-17T07:24:12Z</time>
      </trkpt>
      <trkpt lat="47.85306" lon="6.78562">
        <ele>839.2</ele>
        <time>2022-08-17T07:24:14Z</time>
      </trkpt>
      <trkpt lat="47.85305" lon="6.78562">
        <ele>839.2</ele>
        <time>2022-08-17T07:24:15Z</time>
      </trkpt>
      <trkpt lat="47.85304" lon="6.78561">
        <ele>839.7</ele>
        <time>2022-08-17T07:24:16Z</time>
      </trkpt>
      <trkpt lat="47.85303" lon="6.78561">
        <ele>839.7</ele>
        <time>2022-08-17T07:24:17Z</time>
      </trkpt>
      <trkpt lat="47.85302" lon="6.78561">
        <ele>839.8</ele>
        <time>2022-08-17T07:24:18Z</time>
      </trkpt>
      <trkpt lat="47.85301" lon="6.7856">
        <ele>840.2</ele>
        <time>2022-08-17T07:24:19Z</time>
      </trkpt>
      <trkpt lat="47.853" lon="6.7856">
        <ele>840.3</ele>
        <time>2022-08-17T07:24:20Z</time>
      </trkpt>
      <trkpt lat="47.853" lon="6.78559">
        <ele>840.7</ele>
        <time>2022-08-17T07:24:21Z</time>
      </trkpt>
      <trkpt lat="47.85299" lon="6.78559">
        <ele>840.7</ele>
        <time>2022-08-17T07:24:22Z</time>
      </trkpt>
      <trkpt lat="47.85298" lon="6.78559">
        <ele>840.8</ele>
        <time>2022-08-17T07:24:23Z</time>
      </trkpt>
      <trkpt lat="47.85298" lon="6.78558">
        <ele>841.2</ele>
        <time>2022-08-17T07:24:24Z</time>
      </trkpt>
      <trkpt lat="47.85297" lon="6.78557">
        <ele>841.7</ele>
        <time>2022-08-17T07:24:26Z</time>
      </trkpt>
      <trkpt lat="47.85296" lon="6.78556">
        <ele>842.2</ele>
        <time>2022-08-17T07:24:28Z</time>
      </trkpt>
      <trkpt lat="47.85295" lon="6.78556">
        <ele>842.2</ele>
        <time>2022-08-17T07:24:30Z</time>
      </trkpt>
      <trkpt lat="47.85294" lon="6.78555">
        <ele>842.6</ele>
        <time>2022-08-17T07:24:31Z</time>
      </trkpt>
      <trkpt lat="47.85293" lon="6.78556">
        <ele>842.3</ele>
        <time>2022-08-17T07:24:32Z</time>
      </trkpt>
      <trkpt lat="47.85292" lon="6.78556">
        <ele>842.3</ele>
        <time>2022-08-17T07:24:34Z</time>
      </trkpt>
      <trkpt lat="47.85291" lon="6.78556">
        <ele>842.3</ele>
        <time>2022-08-17T07:24:35Z</time>
      </trkpt>
      <trkpt lat="47.8529" lon="6.78556">
        <ele>842.4</ele>
        <time>2022-08-17T07:24:37Z</time>
      </trkpt>
      <trkpt lat="47.85289" lon="6.78555">
        <ele>842.8</ele>
        <time>2022-08-17T07:24:38Z</time>
      </trkpt>
      <trkpt lat="47.85288" lon="6.78555">
        <ele>842.8</ele>
        <time>2022-08-17T07:24:39Z</time>
      </trkpt>
      <trkpt lat="47.85287" lon="6.78554">
        <ele>843.2</ele>
        <time>2022-08-17T07:24:40Z</time>
      </trkpt>
      <trkpt lat="47.85286" lon="6.78553">
        <ele>843.5</ele>
        <time>2022-08-17T07:24:42Z</time>
      </trkpt>
      <trkpt lat="47.85285" lon="6.78553">
        <ele>843.5</ele>
        <time>2022-08-17T07:24:43Z</time>
      </trkpt>
      <trkpt lat="47.85284" lon="6.78552">
        <ele>843.9</ele>
        <time>2022-08-17T07:24:45Z</time>
      </trkpt>
      <trkpt lat="47.85283" lon="6.78552">
        <ele>843.9</ele>
        <time>2022-08-17T07:24:46Z</time>
      </trkpt>
      <trkpt lat="47.85282" lon="6.78552">
        <ele>844</ele>
        <time>2022-08-17T07:24:48Z</time>
      </trkpt>
      <trkpt lat="47.85281" lon="6.78552">
        <ele>844</ele>
        <time>2022-08-17T07:24:49Z</time>
      </trkpt>
      <trkpt lat="47.85281" lon="6.78553">
        <ele>843.7</ele>
        <time>2022-08-17T07:24:50Z</time>
      </trkpt>
      <trkpt lat="47.8528" lon="6.78553">
        <ele>843.7</ele>
        <time>2022-08-17T07:24:51Z</time>
      </trkpt>
      <trkpt lat="47.85279" lon="6.78553">
        <ele>843.8</ele>
        <time>2022-08-17T07:24:53Z</time>
      </trkpt>
      <trkpt lat="47.85278" lon="6.78554">
        <ele>843.5</ele>
        <time>2022-08-17T07:24:54Z</time>
      </trkpt>
      <trkpt lat="47.85277" lon="6.78554">
        <ele>843.6</ele>
        <time>2022-08-17T07:24:55Z</time>
      </trkpt>
      <trkpt lat="47.85277" lon="6.78555">
        <ele>843.3</ele>
        <time>2022-08-17T07:24:56Z</time>
      </trkpt>
      <trkpt lat="47.85275" lon="6.78554">
        <ele>843.9</ele>
        <time>2022-08-17T07:25:05Z</time>
      </trkpt>
      <trkpt lat="47.85274" lon="6.78554">
        <ele>844.1</ele>
        <time>2022-08-17T07:25:06Z</time>
      </trkpt>
      <trkpt lat="47.85273" lon="6.78554">
        <ele>844.2</ele>
        <time>2022-08-17T07:25:07Z</time>
      </trkpt>
      <trkpt lat="47.85272" lon="6.78553">
        <ele>844.7</ele>
        <time>2022-08-17T07:25:08Z</time>
      </trkpt>
      <trkpt lat="47.85271" lon="6.78553">
        <ele>844.8</ele>
        <time>2022-08-17T07:25:10Z</time>
      </trkpt>
      <trkpt lat="47.85271" lon="6.78552">
        <ele>845.2</ele>
        <time>2022-08-17T07:25:11Z</time>
      </trkpt>
      <trkpt lat="47.8527" lon="6.78552">
        <ele>845.3</ele>
        <time>2022-08-17T07:25:12Z</time>
      </trkpt>
      <trkpt lat="47.85269" lon="6.78552">
        <ele>845.5</ele>
        <time>2022-08-17T07:25:13Z</time>
      </trkpt>
      <trkpt lat="47.85268" lon="6.78552">
        <ele>845.7</ele>
        <time>2022-08-17T07:25:15Z</time>
      </trkpt>
      <trkpt lat="47.85267" lon="6.78553">
        <ele>845.5</ele>
        <time>2022-08-17T07:25:16Z</time>
      </trkpt>
      <trkpt lat="47.85266" lon="6.78553">
        <ele>845.6</ele>
        <time>2022-08-17T07:25:17Z</time>
      </trkpt>
      <trkpt lat="47.85265" lon="6.78554">
        <ele>845.4</ele>
        <time>2022-08-17T07:25:18Z</time>
      </trkpt>
      <trkpt lat="47.85264" lon="6.78554">
        <ele>845.5</ele>
        <time>2022-08-17T07:25:19Z</time>
      </trkpt>
      <trkpt lat="47.85263" lon="6.78555">
        <ele>845.3</ele>
        <time>2022-08-17T07:25:21Z</time>
      </trkpt>
      <trkpt lat="47.85262" lon="6.78555">
        <ele>845.5</ele>
        <time>2022-08-17T07:25:22Z</time>
      </trkpt>
      <trkpt lat="47.85261" lon="6.78555">
        <ele>845.6</ele>
        <time>2022-08-17T07:25:23Z</time>
      </trkpt>
      <trkpt lat="47.8526" lon="6.78556">
        <ele>845.4</ele>
        <time>2022-08-17T07:25:26Z</time>
      </trkpt>
      <trkpt lat="47.85259" lon="6.78556">
        <ele>845.5</ele>
        <time>2022-08-17T07:25:29Z</time>
      </trkpt>
      <trkpt lat="47.85258" lon="6.78556">
        <ele>845.7</ele>
        <time>2022-08-17T07:25:31Z</time>
      </trkpt>
      <trkpt lat="47.85257" lon="6.78557">
        <ele>845.4</ele>
        <time>2022-08-17T07:25:32Z</time>
      </trkpt>
      <trkpt lat="47.85256" lon="6.78557">
        <ele>845.6</ele>
        <time>2022-08-17T07:25:34Z</time>
      </trkpt>
      <trkpt lat="47.85255" lon="6.78557">
        <ele>845.7</ele>
        <time>2022-08-17T07:25:35Z</time>
      </trkpt>
      <trkpt lat="47.85254" lon="6.78557">
        <ele>845.8</ele>
        <time>2022-08-17T07:25:37Z</time>
      </trkpt>
      <trkpt lat="47.85253" lon="6.78557">
        <ele>846</ele>
        <time>2022-08-17T07:25:39Z</time>
      </trkpt>
      <trkpt lat="47.85252" lon="6.78557">
        <ele>846.1</ele>
        <time>2022-08-17T07:25:40Z</time>
      </trkpt>
      <trkpt lat="47.85251" lon="6.78557">
        <ele>846.3</ele>
        <time>2022-08-17T07:25:41Z</time>
      </trkpt>
      <trkpt lat="47.8525" lon="6.78557">
        <ele>846.4</ele>
        <time>2022-08-17T07:25:43Z</time>
      </trkpt>
      <trkpt lat="47.85249" lon="6.78557">
        <ele>846.6</ele>
        <time>2022-08-17T07:25:44Z</time>
      </trkpt>
      <trkpt lat="47.85248" lon="6.78558">
        <ele>846.5</ele>
        <time>2022-08-17T07:25:45Z</time>
      </trkpt>
      <trkpt lat="47.85247" lon="6.78559">
        <ele>846.3</ele>
        <time>2022-08-17T07:25:48Z</time>
      </trkpt>
      <trkpt lat="47.85246" lon="6.78559">
        <ele>846.5</ele>
        <time>2022-08-17T07:25:49Z</time>
      </trkpt>
      <trkpt lat="47.85245" lon="6.7856">
        <ele>846.3</ele>
        <time>2022-08-17T07:25:55Z</time>
      </trkpt>
      <trkpt lat="47.85244" lon="6.78561">
        <ele>846.1</ele>
        <time>2022-08-17T07:25:56Z</time>
      </trkpt>
      <trkpt lat="47.85243" lon="6.78562">
        <ele>845.9</ele>
        <time>2022-08-17T07:25:57Z</time>
      </trkpt>
      <trkpt lat="47.85243" lon="6.78563">
        <ele>845.5</ele>
        <time>2022-08-17T07:25:58Z</time>
      </trkpt>
      <trkpt lat="47.85242" lon="6.78563">
        <ele>845.7</ele>
        <time>2022-08-17T07:25:59Z</time>
      </trkpt>
      <trkpt lat="47.85242" lon="6.78564">
        <ele>845.3</ele>
        <time>2022-08-17T07:26:00Z</time>
      </trkpt>
      <trkpt lat="47.85241" lon="6.78565">
        <ele>845.1</ele>
        <time>2022-08-17T07:26:02Z</time>
      </trkpt>
      <trkpt lat="47.8524" lon="6.78566">
        <ele>844.9</ele>
        <time>2022-08-17T07:26:03Z</time>
      </trkpt>
      <trkpt lat="47.85239" lon="6.78566">
        <ele>845.1</ele>
        <time>2022-08-17T07:26:04Z</time>
      </trkpt>
      <trkpt lat="47.85238" lon="6.78567">
        <ele>844.9</ele>
        <time>2022-08-17T07:26:05Z</time>
      </trkpt>
      <trkpt lat="47.85237" lon="6.78567">
        <ele>845.1</ele>
        <time>2022-08-17T07:26:06Z</time>
      </trkpt>
      <trkpt lat="47.85236" lon="6.78567">
        <ele>845.3</ele>
        <time>2022-08-17T07:26:07Z</time>
      </trkpt>
      <trkpt lat="47.85234" lon="6.78567">
        <ele>845.7</ele>
        <time>2022-08-17T07:26:08Z</time>
      </trkpt>
      <trkpt lat="47.85233" lon="6.78567">
        <ele>845.9</ele>
        <time>2022-08-17T07:26:09Z</time>
      </trkpt>
      <trkpt lat="47.85232" lon="6.78568">
        <ele>845.7</ele>
        <time>2022-08-17T07:26:10Z</time>
      </trkpt>
      <trkpt lat="47.85231" lon="6.78568">
        <ele>845.9</ele>
        <time>2022-08-17T07:26:11Z</time>
      </trkpt>
      <trkpt lat="47.8523" lon="6.78568">
        <ele>846.1</ele>
        <time>2022-08-17T07:26:12Z</time>
      </trkpt>
      <trkpt lat="47.85229" lon="6.78568">
        <ele>846.3</ele>
        <time>2022-08-17T07:26:13Z</time>
      </trkpt>
      <trkpt lat="47.85228" lon="6.78568">
        <ele>846.5</ele>
        <time>2022-08-17T07:26:14Z</time>
      </trkpt>
      <trkpt lat="47.85227" lon="6.78568">
        <ele>846.7</ele>
        <time>2022-08-17T07:26:16Z</time>
      </trkpt>
      <trkpt lat="47.85226" lon="6.78567">
        <ele>847.3</ele>
        <time>2022-08-17T07:26:17Z</time>
      </trkpt>
      <trkpt lat="47.85225" lon="6.78567">
        <ele>847.5</ele>
        <time>2022-08-17T07:26:18Z</time>
      </trkpt>
      <trkpt lat="47.85224" lon="6.78567">
        <ele>847.7</ele>
        <time>2022-08-17T07:26:19Z</time>
      </trkpt>
      <trkpt lat="47.85223" lon="6.78566">
        <ele>848.3</ele>
        <time>2022-08-17T07:26:20Z</time>
      </trkpt>
      <trkpt lat="47.85222" lon="6.78566">
        <ele>848.6</ele>
        <time>2022-08-17T07:26:23Z</time>
      </trkpt>
      <trkpt lat="47.85221" lon="6.78566">
        <ele>848.9</ele>
        <time>2022-08-17T07:26:25Z</time>
      </trkpt>
      <trkpt lat="47.8522" lon="6.78567">
        <ele>848.8</ele>
        <time>2022-08-17T07:26:27Z</time>
      </trkpt>
      <trkpt lat="47.85219" lon="6.78568">
        <ele>848.7</ele>
        <time>2022-08-17T07:26:28Z</time>
      </trkpt>
      <trkpt lat="47.85218" lon="6.78568">
        <ele>849</ele>
        <time>2022-08-17T07:26:29Z</time>
      </trkpt>
      <trkpt lat="47.85217" lon="6.78569">
        <ele>848.9</ele>
        <time>2022-08-17T07:26:30Z</time>
      </trkpt>
      <trkpt lat="47.85215" lon="6.7857">
        <ele>849.1</ele>
        <time>2022-08-17T07:26:31Z</time>
      </trkpt>
      <trkpt lat="47.85214" lon="6.78571">
        <ele>849</ele>
        <time>2022-08-17T07:26:32Z</time>
      </trkpt>
      <trkpt lat="47.85213" lon="6.78572">
        <ele>848.9</ele>
        <time>2022-08-17T07:26:33Z</time>
      </trkpt>
      <trkpt lat="47.85212" lon="6.78573">
        <ele>848.8</ele>
        <time>2022-08-17T07:26:34Z</time>
      </trkpt>
      <trkpt lat="47.8521" lon="6.78576">
        <ele>848.1</ele>
        <time>2022-08-17T07:26:45Z</time>
      </trkpt>
      <trkpt lat="47.85209" lon="6.78577">
        <ele>848</ele>
        <time>2022-08-17T07:26:46Z</time>
      </trkpt>
      <trkpt lat="47.85209" lon="6.78578">
        <ele>847.6</ele>
        <time>2022-08-17T07:26:47Z</time>
      </trkpt>
      <trkpt lat="47.85208" lon="6.78578">
        <ele>847.9</ele>
        <time>2022-08-17T07:26:48Z</time>
      </trkpt>
      <trkpt lat="47.85207" lon="6.78578">
        <ele>848.2</ele>
        <time>2022-08-17T07:26:49Z</time>
      </trkpt>
      <trkpt lat="47.85206" lon="6.78579">
        <ele>848.1</ele>
        <time>2022-08-17T07:26:50Z</time>
      </trkpt>
      <trkpt lat="47.85205" lon="6.78579">
        <ele>848.5</ele>
        <time>2022-08-17T07:26:51Z</time>
      </trkpt>
      <trkpt lat="47.85204" lon="6.78579">
        <ele>848.8</ele>
        <time>2022-08-17T07:26:52Z</time>
      </trkpt>
      <trkpt lat="47.85203" lon="6.78579">
        <ele>849.1</ele>
        <time>2022-08-17T07:26:53Z</time>
      </trkpt>
      <trkpt lat="47.85202" lon="6.78579">
        <ele>849.4</ele>
        <time>2022-08-17T07:26:54Z</time>
      </trkpt>
      <trkpt lat="47.852" lon="6.78579">
        <ele>850.1</ele>
        <time>2022-08-17T07:26:55Z</time>
      </trkpt>
      <trkpt lat="47.85199" lon="6.78579">
        <ele>850.4</ele>
        <time>2022-08-17T07:26:56Z</time>
      </trkpt>
      <trkpt lat="47.85197" lon="6.78578">
        <ele>851.5</ele>
        <time>2022-08-17T07:26:57Z</time>
      </trkpt>
      <trkpt lat="47.85196" lon="6.78578">
        <ele>851.8</ele>
        <time>2022-08-17T07:26:58Z</time>
      </trkpt>
      <trkpt lat="47.85195" lon="6.78578">
        <ele>852.1</ele>
        <time>2022-08-17T07:26:59Z</time>
      </trkpt>
      <trkpt lat="47.85194" lon="6.78578">
        <ele>852.4</ele>
        <time>2022-08-17T07:27:00Z</time>
      </trkpt>
      <trkpt lat="47.85193" lon="6.78577">
        <ele>852.9</ele>
        <time>2022-08-17T07:27:01Z</time>
      </trkpt>
      <trkpt lat="47.85192" lon="6.78576">
        <ele>853.5</ele>
        <time>2022-08-17T07:27:03Z</time>
      </trkpt>
      <trkpt lat="47.85191" lon="6.78576">
        <ele>853.7</ele>
        <time>2022-08-17T07:27:04Z</time>
      </trkpt>
      <trkpt lat="47.8519" lon="6.78575">
        <ele>854.2</ele>
        <time>2022-08-17T07:27:05Z</time>
      </trkpt>
      <trkpt lat="47.85189" lon="6.78575">
        <ele>854.4</ele>
        <time>2022-08-17T07:27:06Z</time>
      </trkpt>
      <trkpt lat="47.85188" lon="6.78575">
        <ele>854.5</ele>
        <time>2022-08-17T07:27:07Z</time>
      </trkpt>
      <trkpt lat="47.85187" lon="6.78575">
        <ele>854.7</ele>
        <time>2022-08-17T07:27:08Z</time>
      </trkpt>
      <trkpt lat="47.85186" lon="6.78575">
        <ele>854.8</ele>
        <time>2022-08-17T07:27:10Z</time>
      </trkpt>
      <trkpt lat="47.85185" lon="6.78575">
        <ele>855</ele>
        <time>2022-08-17T07:27:11Z</time>
      </trkpt>
      <trkpt lat="47.85184" lon="6.78576">
        <ele>854.7</ele>
        <time>2022-08-17T07:27:12Z</time>
      </trkpt>
      <trkpt lat="47.85183" lon="6.78576">
        <ele>854.8</ele>
        <time>2022-08-17T07:27:14Z</time>
      </trkpt>
      <trkpt lat="47.85182" lon="6.78576">
        <ele>855</ele>
        <time>2022-08-17T07:27:15Z</time>
      </trkpt>
      <trkpt lat="47.85181" lon="6.78576">
        <ele>855.1</ele>
        <time>2022-08-17T07:27:16Z</time>
      </trkpt>
      <trkpt lat="47.8518" lon="6.78576">
        <ele>855.2</ele>
        <time>2022-08-17T07:27:17Z</time>
      </trkpt>
      <trkpt lat="47.85179" lon="6.78577">
        <ele>855</ele>
        <time>2022-08-17T07:27:18Z</time>
      </trkpt>
      <trkpt lat="47.85178" lon="6.78577">
        <ele>855.1</ele>
        <time>2022-08-17T07:27:19Z</time>
      </trkpt>
      <trkpt lat="47.85177" lon="6.78577">
        <ele>855.2</ele>
        <time>2022-08-17T07:27:20Z</time>
      </trkpt>
      <trkpt lat="47.85176" lon="6.78577">
        <ele>855.4</ele>
        <time>2022-08-17T07:27:21Z</time>
      </trkpt>
      <trkpt lat="47.85175" lon="6.78577">
        <ele>855.5</ele>
        <time>2022-08-17T07:27:22Z</time>
      </trkpt>
      <trkpt lat="47.85174" lon="6.78576">
        <ele>856.1</ele>
        <time>2022-08-17T07:27:23Z</time>
      </trkpt>
      <trkpt lat="47.85173" lon="6.78576">
        <ele>856.3</ele>
        <time>2022-08-17T07:27:25Z</time>
      </trkpt>
      <trkpt lat="47.85173" lon="6.78575">
        <ele>856.7</ele>
        <time>2022-08-17T07:27:26Z</time>
      </trkpt>
      <trkpt lat="47.85172" lon="6.78575">
        <ele>856.8</ele>
        <time>2022-08-17T07:27:27Z</time>
      </trkpt>
      <trkpt lat="47.85171" lon="6.78575">
        <ele>857</ele>
        <time>2022-08-17T07:27:30Z</time>
      </trkpt>
      <trkpt lat="47.8517" lon="6.78575">
        <ele>857.1</ele>
        <time>2022-08-17T07:27:31Z</time>
      </trkpt>
      <trkpt lat="47.8517" lon="6.78576">
        <ele>856.7</ele>
        <time>2022-08-17T07:27:32Z</time>
      </trkpt>
      <trkpt lat="47.85169" lon="6.78576">
        <ele>856.8</ele>
        <time>2022-08-17T07:27:33Z</time>
      </trkpt>
      <trkpt lat="47.85168" lon="6.78577">
        <ele>856.5</ele>
        <time>2022-08-17T07:27:34Z</time>
      </trkpt>
      <trkpt lat="47.85167" lon="6.78577">
        <ele>856.7</ele>
        <time>2022-08-17T07:27:35Z</time>
      </trkpt>
      <trkpt lat="47.85165" lon="6.78578">
        <ele>856.5</ele>
        <time>2022-08-17T07:27:42Z</time>
      </trkpt>
      <trkpt lat="47.85164" lon="6.78579">
        <ele>856.2</ele>
        <time>2022-08-17T07:27:43Z</time>
      </trkpt>
      <trkpt lat="47.85163" lon="6.78579">
        <ele>856.3</ele>
        <time>2022-08-17T07:27:45Z</time>
      </trkpt>
      <trkpt lat="47.85162" lon="6.78579">
        <ele>856.4</ele>
        <time>2022-08-17T07:27:49Z</time>
      </trkpt>
      <trkpt lat="47.85161" lon="6.78579">
        <ele>856.5</ele>
        <time>2022-08-17T07:27:50Z</time>
      </trkpt>
      <trkpt lat="47.8516" lon="6.78579">
        <ele>856.6</ele>
        <time>2022-08-17T07:27:52Z</time>
      </trkpt>
      <trkpt lat="47.85159" lon="6.78579">
        <ele>856.7</ele>
        <time>2022-08-17T07:27:54Z</time>
      </trkpt>
      <trkpt lat="47.85158" lon="6.7858">
        <ele>856.4</ele>
        <time>2022-08-17T07:27:55Z</time>
      </trkpt>
      <trkpt lat="47.85157" lon="6.7858">
        <ele>856.5</ele>
        <time>2022-08-17T07:27:56Z</time>
      </trkpt>
      <trkpt lat="47.85156" lon="6.7858">
        <ele>856.6</ele>
        <time>2022-08-17T07:27:57Z</time>
      </trkpt>
      <trkpt lat="47.85155" lon="6.7858">
        <ele>856.8</ele>
        <time>2022-08-17T07:27:58Z</time>
      </trkpt>
      <trkpt lat="47.85154" lon="6.7858">
        <ele>856.9</ele>
        <time>2022-08-17T07:28:00Z</time>
      </trkpt>
      <trkpt lat="47.85153" lon="6.7858">
        <ele>857</ele>
        <time>2022-08-17T07:28:01Z</time>
      </trkpt>
      <trkpt lat="47.85152" lon="6.7858">
        <ele>857.1</ele>
        <time>2022-08-17T07:28:02Z</time>
      </trkpt>
      <trkpt lat="47.8515" lon="6.7858">
        <ele>857.3</ele>
        <time>2022-08-17T07:28:03Z</time>
      </trkpt>
      <trkpt lat="47.85149" lon="6.7858">
        <ele>857.4</ele>
        <time>2022-08-17T07:28:04Z</time>
      </trkpt>
      <trkpt lat="47.85148" lon="6.7858">
        <ele>857.5</ele>
        <time>2022-08-17T07:28:05Z</time>
      </trkpt>
      <trkpt lat="47.85147" lon="6.78581">
        <ele>857.2</ele>
        <time>2022-08-17T07:28:06Z</time>
      </trkpt>
      <trkpt lat="47.85146" lon="6.78582">
        <ele>856.8</ele>
        <time>2022-08-17T07:28:07Z</time>
      </trkpt>
      <trkpt lat="47.85144" lon="6.78583">
        <ele>856.6</ele>
        <time>2022-08-17T07:28:08Z</time>
      </trkpt>
      <trkpt lat="47.85143" lon="6.78584">
        <ele>856.2</ele>
        <time>2022-08-17T07:28:09Z</time>
      </trkpt>
      <trkpt lat="47.85142" lon="6.78585">
        <ele>855.8</ele>
        <time>2022-08-17T07:28:10Z</time>
      </trkpt>
      <trkpt lat="47.85141" lon="6.78586">
        <ele>855.4</ele>
        <time>2022-08-17T07:28:11Z</time>
      </trkpt>
      <trkpt lat="47.85139" lon="6.78586">
        <ele>855.6</ele>
        <time>2022-08-17T07:28:12Z</time>
      </trkpt>
      <trkpt lat="47.85138" lon="6.78587">
        <ele>855.3</ele>
        <time>2022-08-17T07:28:13Z</time>
      </trkpt>
      <trkpt lat="47.85137" lon="6.78587">
        <ele>855.4</ele>
        <time>2022-08-17T07:28:14Z</time>
      </trkpt>
      <trkpt lat="47.85136" lon="6.78587">
        <ele>855.5</ele>
        <time>2022-08-17T07:28:15Z</time>
      </trkpt>
      <trkpt lat="47.85135" lon="6.78587">
        <ele>855.6</ele>
        <time>2022-08-17T07:28:16Z</time>
      </trkpt>
      <trkpt lat="47.85134" lon="6.78587">
        <ele>855.7</ele>
        <time>2022-08-17T07:28:17Z</time>
      </trkpt>
      <trkpt lat="47.85133" lon="6.78587">
        <ele>855.8</ele>
        <time>2022-08-17T07:28:18Z</time>
      </trkpt>
      <trkpt lat="47.85132" lon="6.78586">
        <ele>856.4</ele>
        <time>2022-08-17T07:28:19Z</time>
      </trkpt>
      <trkpt lat="47.85131" lon="6.78586">
        <ele>856.5</ele>
        <time>2022-08-17T07:28:20Z</time>
      </trkpt>
      <trkpt lat="47.8513" lon="6.78585">
        <ele>857.1</ele>
        <time>2022-08-17T07:28:22Z</time>
      </trkpt>
      <trkpt lat="47.85129" lon="6.78585">
        <ele>857.2</ele>
        <time>2022-08-17T07:28:23Z</time>
      </trkpt>
      <trkpt lat="47.85128" lon="6.78584">
        <ele>857.8</ele>
        <time>2022-08-17T07:28:24Z</time>
      </trkpt>
      <trkpt lat="47.85128" lon="6.78583">
        <ele>858.3</ele>
        <time>2022-08-17T07:28:25Z</time>
      </trkpt>
      <trkpt lat="47.85127" lon="6.78583">
        <ele>858.4</ele>
        <time>2022-08-17T07:28:26Z</time>
      </trkpt>
      <trkpt lat="47.85127" lon="6.78582">
        <ele>858.9</ele>
        <time>2022-08-17T07:28:27Z</time>
      </trkpt>
      <trkpt lat="47.85126" lon="6.78582">
        <ele>859</ele>
        <time>2022-08-17T07:28:28Z</time>
      </trkpt>
      <trkpt lat="47.85125" lon="6.78581">
        <ele>859.6</ele>
        <time>2022-08-17T07:28:29Z</time>
      </trkpt>
      <trkpt lat="47.85124" lon="6.78581">
        <ele>859.7</ele>
        <time>2022-08-17T07:28:30Z</time>
      </trkpt>
      <trkpt lat="47.85123" lon="6.78581">
        <ele>859.8</ele>
        <time>2022-08-17T07:28:31Z</time>
      </trkpt>
      <trkpt lat="47.85122" lon="6.78581">
        <ele>859.9</ele>
        <time>2022-08-17T07:28:32Z</time>
      </trkpt>
      <trkpt lat="47.85121" lon="6.78582">
        <ele>859.6</ele>
        <time>2022-08-17T07:28:33Z</time>
      </trkpt>
      <trkpt lat="47.8512" lon="6.78582">
        <ele>859.7</ele>
        <time>2022-08-17T07:28:34Z</time>
      </trkpt>
      <trkpt lat="47.85119" lon="6.78582">
        <ele>859.8</ele>
        <time>2022-08-17T07:28:35Z</time>
      </trkpt>
      <trkpt lat="47.85119" lon="6.78583">
        <ele>859.3</ele>
        <time>2022-08-17T07:28:36Z</time>
      </trkpt>
      <trkpt lat="47.85118" lon="6.78583">
        <ele>859.4</ele>
        <time>2022-08-17T07:28:38Z</time>
      </trkpt>
      <trkpt lat="47.85118" lon="6.78582">
        <ele>859.9</ele>
        <time>2022-08-17T07:28:39Z</time>
      </trkpt>
      <trkpt lat="47.85116" lon="6.7858">
        <ele>861</ele>
        <time>2022-08-17T07:28:47Z</time>
      </trkpt>
      <trkpt lat="47.85115" lon="6.7858">
        <ele>861.1</ele>
        <time>2022-08-17T07:28:48Z</time>
      </trkpt>
      <trkpt lat="47.85114" lon="6.7858">
        <ele>861.2</ele>
        <time>2022-08-17T07:28:49Z</time>
      </trkpt>
      <trkpt lat="47.85114" lon="6.78579">
        <ele>861.7</ele>
        <time>2022-08-17T07:28:50Z</time>
      </trkpt>
      <trkpt lat="47.85113" lon="6.78579">
        <ele>861.8</ele>
        <time>2022-08-17T07:28:51Z</time>
      </trkpt>
      <trkpt lat="47.85112" lon="6.78578">
        <ele>862.4</ele>
        <time>2022-08-17T07:28:52Z</time>
      </trkpt>
      <trkpt lat="47.85111" lon="6.78577">
        <ele>863</ele>
        <time>2022-08-17T07:28:53Z</time>
      </trkpt>
      <trkpt lat="47.8511" lon="6.78576">
        <ele>863.6</ele>
        <time>2022-08-17T07:28:55Z</time>
      </trkpt>
      <trkpt lat="47.85109" lon="6.78576">
        <ele>863.8</ele>
        <time>2022-08-17T07:28:57Z</time>
      </trkpt>
      <trkpt lat="47.85108" lon="6.78576">
        <ele>863.9</ele>
        <time>2022-08-17T07:28:58Z</time>
      </trkpt>
      <trkpt lat="47.85107" lon="6.78577">
        <ele>863.6</ele>
        <time>2022-08-17T07:29:00Z</time>
      </trkpt>
      <trkpt lat="47.85106" lon="6.78577">
        <ele>863.7</ele>
        <time>2022-08-17T07:29:02Z</time>
      </trkpt>
      <trkpt lat="47.85105" lon="6.78578">
        <ele>863.4</ele>
        <time>2022-08-17T07:29:03Z</time>
      </trkpt>
      <trkpt lat="47.85104" lon="6.78578">
        <ele>863.6</ele>
        <time>2022-08-17T07:29:05Z</time>
      </trkpt>
      <trkpt lat="47.85103" lon="6.78578">
        <ele>863.7</ele>
        <time>2022-08-17T07:29:07Z</time>
      </trkpt>
      <trkpt lat="47.85103" lon="6.78577">
        <ele>864.2</ele>
        <time>2022-08-17T07:29:09Z</time>
      </trkpt>
      <trkpt lat="47.85102" lon="6.78577">
        <ele>864.4</ele>
        <time>2022-08-17T07:29:10Z</time>
      </trkpt>
      <trkpt lat="47.85101" lon="6.78577">
        <ele>864.5</ele>
        <time>2022-08-17T07:29:12Z</time>
      </trkpt>
      <trkpt lat="47.851" lon="6.78577">
        <ele>864.7</ele>
        <time>2022-08-17T07:29:13Z</time>
      </trkpt>
      <trkpt lat="47.85099" lon="6.78577">
        <ele>864.8</ele>
        <time>2022-08-17T07:29:14Z</time>
      </trkpt>
      <trkpt lat="47.85098" lon="6.78577">
        <ele>865</ele>
        <time>2022-08-17T07:29:15Z</time>
      </trkpt>
      <trkpt lat="47.85097" lon="6.78577">
        <ele>865.1</ele>
        <time>2022-08-17T07:29:17Z</time>
      </trkpt>
      <trkpt lat="47.85096" lon="6.78577">
        <ele>865.3</ele>
        <time>2022-08-17T07:29:18Z</time>
      </trkpt>
      <trkpt lat="47.85095" lon="6.78577">
        <ele>865.4</ele>
        <time>2022-08-17T07:29:19Z</time>
      </trkpt>
      <trkpt lat="47.85094" lon="6.78577">
        <ele>865.6</ele>
        <time>2022-08-17T07:29:20Z</time>
      </trkpt>
      <trkpt lat="47.85093" lon="6.78578">
        <ele>865.2</ele>
        <time>2022-08-17T07:29:22Z</time>
      </trkpt>
      <trkpt lat="47.85092" lon="6.78578">
        <ele>865.4</ele>
        <time>2022-08-17T07:29:23Z</time>
      </trkpt>
      <trkpt lat="47.85091" lon="6.78579">
        <ele>865</ele>
        <time>2022-08-17T07:29:24Z</time>
      </trkpt>
      <trkpt lat="47.8509" lon="6.78579">
        <ele>865.2</ele>
        <time>2022-08-17T07:29:25Z</time>
      </trkpt>
      <trkpt lat="47.8509" lon="6.7858">
        <ele>864.7</ele>
        <time>2022-08-17T07:29:26Z</time>
      </trkpt>
      <trkpt lat="47.85089" lon="6.7858">
        <ele>864.8</ele>
        <time>2022-08-17T07:29:27Z</time>
      </trkpt>
      <trkpt lat="47.85089" lon="6.78579">
        <ele>865.3</ele>
        <time>2022-08-17T07:29:28Z</time>
      </trkpt>
      <trkpt lat="47.85088" lon="6.78579">
        <ele>865.5</ele>
        <time>2022-08-17T07:29:29Z</time>
      </trkpt>
      <trkpt lat="47.85087" lon="6.78579">
        <ele>865.6</ele>
        <time>2022-08-17T07:29:30Z</time>
      </trkpt>
      <trkpt lat="47.85086" lon="6.78578">
        <ele>866.3</ele>
        <time>2022-08-17T07:29:32Z</time>
      </trkpt>
      <trkpt lat="47.85085" lon="6.78578">
        <ele>866.4</ele>
        <time>2022-08-17T07:29:33Z</time>
      </trkpt>
      <trkpt lat="47.85084" lon="6.78579">
        <ele>866.1</ele>
        <time>2022-08-17T07:29:35Z</time>
      </trkpt>
      <trkpt lat="47.85083" lon="6.78579">
        <ele>866.3</ele>
        <time>2022-08-17T07:29:37Z</time>
      </trkpt>
      <trkpt lat="47.85082" lon="6.78579">
        <ele>866.5</ele>
        <time>2022-08-17T07:29:38Z</time>
      </trkpt>
      <trkpt lat="47.85081" lon="6.78579">
        <ele>866.8</ele>
        <time>2022-08-17T07:29:40Z</time>
      </trkpt>
      <trkpt lat="47.8508" lon="6.78579">
        <ele>867</ele>
        <time>2022-08-17T07:29:41Z</time>
      </trkpt>
      <trkpt lat="47.85079" lon="6.7858">
        <ele>866.8</ele>
        <time>2022-08-17T07:29:42Z</time>
      </trkpt>
      <trkpt lat="47.85078" lon="6.7858">
        <ele>867</ele>
        <time>2022-08-17T07:29:43Z</time>
      </trkpt>
      <trkpt lat="47.85077" lon="6.7858">
        <ele>867.3</ele>
        <time>2022-08-17T07:29:44Z</time>
      </trkpt>
      <trkpt lat="47.85076" lon="6.7858">
        <ele>867.5</ele>
        <time>2022-08-17T07:29:45Z</time>
      </trkpt>
      <trkpt lat="47.85075" lon="6.7858">
        <ele>867.8</ele>
        <time>2022-08-17T07:29:46Z</time>
      </trkpt>
      <trkpt lat="47.85074" lon="6.78581">
        <ele>867.5</ele>
        <time>2022-08-17T07:29:47Z</time>
      </trkpt>
      <trkpt lat="47.85073" lon="6.78581">
        <ele>867.8</ele>
        <time>2022-08-17T07:29:48Z</time>
      </trkpt>
      <trkpt lat="47.85072" lon="6.78581">
        <ele>868</ele>
        <time>2022-08-17T07:29:49Z</time>
      </trkpt>
      <trkpt lat="47.85071" lon="6.78581">
        <ele>868.3</ele>
        <time>2022-08-17T07:29:50Z</time>
      </trkpt>
      <trkpt lat="47.8507" lon="6.78581">
        <ele>868.5</ele>
        <time>2022-08-17T07:29:52Z</time>
      </trkpt>
      <trkpt lat="47.85069" lon="6.78581">
        <ele>868.8</ele>
        <time>2022-08-17T07:29:53Z</time>
      </trkpt>
      <trkpt lat="47.85068" lon="6.78581">
        <ele>869</ele>
        <time>2022-08-17T07:29:54Z</time>
      </trkpt>
      <trkpt lat="47.85066" lon="6.78581">
        <ele>869.5</ele>
        <time>2022-08-17T07:30:03Z</time>
      </trkpt>
      <trkpt lat="47.85064" lon="6.7858">
        <ele>870.6</ele>
        <time>2022-08-17T07:30:04Z</time>
      </trkpt>
      <trkpt lat="47.85063" lon="6.7858">
        <ele>870.8</ele>
        <time>2022-08-17T07:30:05Z</time>
      </trkpt>
      <trkpt lat="47.85062" lon="6.7858">
        <ele>871.1</ele>
        <time>2022-08-17T07:30:06Z</time>
      </trkpt>
      <trkpt lat="47.85061" lon="6.78581">
        <ele>870.8</ele>
        <time>2022-08-17T07:30:07Z</time>
      </trkpt>
      <trkpt lat="47.8506" lon="6.78581">
        <ele>871.1</ele>
        <time>2022-08-17T07:30:08Z</time>
      </trkpt>
      <trkpt lat="47.85059" lon="6.78581">
        <ele>871.3</ele>
        <time>2022-08-17T07:30:09Z</time>
      </trkpt>
      <trkpt lat="47.85058" lon="6.78581">
        <ele>871.6</ele>
        <time>2022-08-17T07:30:10Z</time>
      </trkpt>
      <trkpt lat="47.85057" lon="6.78582">
        <ele>871.3</ele>
        <time>2022-08-17T07:30:11Z</time>
      </trkpt>
      <trkpt lat="47.85056" lon="6.78582">
        <ele>871.6</ele>
        <time>2022-08-17T07:30:12Z</time>
      </trkpt>
      <trkpt lat="47.85055" lon="6.78582">
        <ele>871.9</ele>
        <time>2022-08-17T07:30:13Z</time>
      </trkpt>
      <trkpt lat="47.85054" lon="6.78582">
        <ele>872.3</ele>
        <time>2022-08-17T07:30:14Z</time>
      </trkpt>
      <trkpt lat="47.85053" lon="6.78583">
        <ele>872.3</ele>
        <time>2022-08-17T07:30:15Z</time>
      </trkpt>
      <trkpt lat="47.85052" lon="6.78583">
        <ele>872.7</ele>
        <time>2022-08-17T07:30:17Z</time>
      </trkpt>
      <trkpt lat="47.85051" lon="6.78583">
        <ele>873.1</ele>
        <time>2022-08-17T07:30:18Z</time>
      </trkpt>
      <trkpt lat="47.8505" lon="6.78584">
        <ele>873.1</ele>
        <time>2022-08-17T07:30:19Z</time>
      </trkpt>
      <trkpt lat="47.8505" lon="6.78585">
        <ele>872.7</ele>
        <time>2022-08-17T07:30:21Z</time>
      </trkpt>
      <trkpt lat="47.85049" lon="6.78585">
        <ele>873.2</ele>
        <time>2022-08-17T07:30:22Z</time>
      </trkpt>
      <trkpt lat="47.85049" lon="6.78586">
        <ele>872.8</ele>
        <time>2022-08-17T07:30:24Z</time>
      </trkpt>
      <trkpt lat="47.85048" lon="6.78587">
        <ele>872.8</ele>
        <time>2022-08-17T07:30:25Z</time>
      </trkpt>
      <trkpt lat="47.85047" lon="6.78587">
        <ele>873.2</ele>
        <time>2022-08-17T07:30:26Z</time>
      </trkpt>
      <trkpt lat="47.85047" lon="6.78588">
        <ele>872.8</ele>
        <time>2022-08-17T07:30:27Z</time>
      </trkpt>
      <trkpt lat="47.85046" lon="6.78588">
        <ele>873.2</ele>
        <time>2022-08-17T07:30:28Z</time>
      </trkpt>
      <trkpt lat="47.85045" lon="6.78589">
        <ele>873.2</ele>
        <time>2022-08-17T07:30:29Z</time>
      </trkpt>
      <trkpt lat="47.85044" lon="6.78589">
        <ele>873.7</ele>
        <time>2022-08-17T07:30:31Z</time>
      </trkpt>
      <trkpt lat="47.85043" lon="6.7859">
        <ele>873.7</ele>
        <time>2022-08-17T07:30:32Z</time>
      </trkpt>
      <trkpt lat="47.85042" lon="6.7859">
        <ele>874.1</ele>
        <time>2022-08-17T07:30:34Z</time>
      </trkpt>
      <trkpt lat="47.85041" lon="6.7859">
        <ele>874.5</ele>
        <time>2022-08-17T07:30:36Z</time>
      </trkpt>
      <trkpt lat="47.85041" lon="6.78591">
        <ele>874.1</ele>
        <time>2022-08-17T07:30:38Z</time>
      </trkpt>
      <trkpt lat="47.8504" lon="6.78591">
        <ele>874.5</ele>
        <time>2022-08-17T07:30:39Z</time>
      </trkpt>
      <trkpt lat="47.85039" lon="6.78592">
        <ele>874.5</ele>
        <time>2022-08-17T07:30:40Z</time>
      </trkpt>
      <trkpt lat="47.85038" lon="6.78593">
        <ele>874.5</ele>
        <time>2022-08-17T07:30:42Z</time>
      </trkpt>
      <trkpt lat="47.85037" lon="6.78593">
        <ele>875</ele>
        <time>2022-08-17T07:30:43Z</time>
      </trkpt>
      <trkpt lat="47.85036" lon="6.78594">
        <ele>875</ele>
        <time>2022-08-17T07:30:51Z</time>
      </trkpt>
      <trkpt lat="47.85035" lon="6.78595">
        <ele>874.9</ele>
        <time>2022-08-17T07:30:52Z</time>
      </trkpt>
      <trkpt lat="47.85034" lon="6.78596">
        <ele>874.9</ele>
        <time>2022-08-17T07:30:53Z</time>
      </trkpt>
      <trkpt lat="47.85033" lon="6.78596">
        <ele>875.4</ele>
        <time>2022-08-17T07:30:54Z</time>
      </trkpt>
      <trkpt lat="47.85032" lon="6.78597">
        <ele>875.3</ele>
        <time>2022-08-17T07:30:55Z</time>
      </trkpt>
      <trkpt lat="47.85031" lon="6.78597">
        <ele>875.8</ele>
        <time>2022-08-17T07:30:56Z</time>
      </trkpt>
      <trkpt lat="47.8503" lon="6.78597">
        <ele>876.2</ele>
        <time>2022-08-17T07:30:57Z</time>
      </trkpt>
      <trkpt lat="47.85029" lon="6.78597">
        <ele>876.6</ele>
        <time>2022-08-17T07:30:58Z</time>
      </trkpt>
      <trkpt lat="47.85028" lon="6.78597">
        <ele>877</ele>
        <time>2022-08-17T07:30:59Z</time>
      </trkpt>
      <trkpt lat="47.85027" lon="6.78597">
        <ele>877.3</ele>
        <time>2022-08-17T07:31:01Z</time>
      </trkpt>
      <trkpt lat="47.85026" lon="6.78597">
        <ele>877.5</ele>
        <time>2022-08-17T07:31:03Z</time>
      </trkpt>
      <trkpt lat="47.85025" lon="6.78597">
        <ele>877.7</ele>
        <time>2022-08-17T07:31:04Z</time>
      </trkpt>
      <trkpt lat="47.85024" lon="6.78598">
        <ele>877.5</ele>
        <time>2022-08-17T07:31:05Z</time>
      </trkpt>
      <trkpt lat="47.85023" lon="6.78598">
        <ele>877.7</ele>
        <time>2022-08-17T07:31:06Z</time>
      </trkpt>
      <trkpt lat="47.85022" lon="6.78599">
        <ele>877.6</ele>
        <time>2022-08-17T07:31:07Z</time>
      </trkpt>
      <trkpt lat="47.85021" lon="6.78599">
        <ele>877.8</ele>
        <time>2022-08-17T07:31:08Z</time>
      </trkpt>
      <trkpt lat="47.8502" lon="6.786">
        <ele>877.6</ele>
        <time>2022-08-17T07:31:09Z</time>
      </trkpt>
      <trkpt lat="47.85019" lon="6.786">
        <ele>877.9</ele>
        <time>2022-08-17T07:31:11Z</time>
      </trkpt>
      <trkpt lat="47.85019" lon="6.78601">
        <ele>877.5</ele>
        <time>2022-08-17T07:31:14Z</time>
      </trkpt>
      <trkpt lat="47.85018" lon="6.78601">
        <ele>877.8</ele>
        <time>2022-08-17T07:31:15Z</time>
      </trkpt>
      <trkpt lat="47.85017" lon="6.78601">
        <ele>878</ele>
        <time>2022-08-17T07:31:16Z</time>
      </trkpt>
      <trkpt lat="47.85016" lon="6.786">
        <ele>878.6</ele>
        <time>2022-08-17T07:31:17Z</time>
      </trkpt>
      <trkpt lat="47.85015" lon="6.786">
        <ele>878.8</ele>
        <time>2022-08-17T07:31:18Z</time>
      </trkpt>
      <trkpt lat="47.85014" lon="6.786">
        <ele>879.1</ele>
        <time>2022-08-17T07:31:19Z</time>
      </trkpt>
      <trkpt lat="47.85014" lon="6.78599">
        <ele>879.4</ele>
        <time>2022-08-17T07:31:20Z</time>
      </trkpt>
      <trkpt lat="47.85013" lon="6.78599">
        <ele>879.6</ele>
        <time>2022-08-17T07:31:21Z</time>
      </trkpt>
      <trkpt lat="47.85012" lon="6.78598">
        <ele>880.2</ele>
        <time>2022-08-17T07:31:23Z</time>
      </trkpt>
      <trkpt lat="47.85011" lon="6.78599">
        <ele>880.1</ele>
        <time>2022-08-17T07:31:24Z</time>
      </trkpt>
      <trkpt lat="47.8501" lon="6.78599">
        <ele>880.3</ele>
        <time>2022-08-17T07:31:25Z</time>
      </trkpt>
      <trkpt lat="47.85009" lon="6.78599">
        <ele>880.5</ele>
        <time>2022-08-17T07:31:26Z</time>
      </trkpt>
      <trkpt lat="47.85008" lon="6.786">
        <ele>880.5</ele>
        <time>2022-08-17T07:31:27Z</time>
      </trkpt>
      <trkpt lat="47.85007" lon="6.78601">
        <ele>880.5</ele>
        <time>2022-08-17T07:31:28Z</time>
      </trkpt>
      <trkpt lat="47.85006" lon="6.78601">
        <ele>880.7</ele>
        <time>2022-08-17T07:31:29Z</time>
      </trkpt>
      <trkpt lat="47.85005" lon="6.78602">
        <ele>880.7</ele>
        <time>2022-08-17T07:31:30Z</time>
      </trkpt>
      <trkpt lat="47.85004" lon="6.78602">
        <ele>881</ele>
        <time>2022-08-17T07:31:32Z</time>
      </trkpt>
      <trkpt lat="47.85003" lon="6.78602">
        <ele>881.2</ele>
        <time>2022-08-17T07:31:33Z</time>
      </trkpt>
      <trkpt lat="47.85002" lon="6.78602">
        <ele>881.5</ele>
        <time>2022-08-17T07:31:34Z</time>
      </trkpt>
      <trkpt lat="47.85001" lon="6.78602">
        <ele>881.7</ele>
        <time>2022-08-17T07:31:35Z</time>
      </trkpt>
      <trkpt lat="47.85" lon="6.78603">
        <ele>881.8</ele>
        <time>2022-08-17T07:31:36Z</time>
      </trkpt>
      <trkpt lat="47.84999" lon="6.78603">
        <ele>881.9</ele>
        <time>2022-08-17T07:31:37Z</time>
      </trkpt>
      <trkpt lat="47.84998" lon="6.78603">
        <ele>882</ele>
        <time>2022-08-17T07:31:38Z</time>
      </trkpt>
      <trkpt lat="47.84997" lon="6.78603">
        <ele>882.1</ele>
        <time>2022-08-17T07:31:39Z</time>
      </trkpt>
      <trkpt lat="47.84996" lon="6.78604">
        <ele>882</ele>
        <time>2022-08-17T07:31:40Z</time>
      </trkpt>
      <trkpt lat="47.84995" lon="6.78604">
        <ele>882.1</ele>
        <time>2022-08-17T07:31:41Z</time>
      </trkpt>
      <trkpt lat="47.84994" lon="6.78605">
        <ele>882</ele>
        <time>2022-08-17T07:31:42Z</time>
      </trkpt>
      <trkpt lat="47.84993" lon="6.78606">
        <ele>881.9</ele>
        <time>2022-08-17T07:31:44Z</time>
      </trkpt>
      <trkpt lat="47.84993" lon="6.78607">
        <ele>881.7</ele>
        <time>2022-08-17T07:31:45Z</time>
      </trkpt>
      <trkpt lat="47.84992" lon="6.78608">
        <ele>881.7</ele>
        <time>2022-08-17T07:31:47Z</time>
      </trkpt>
      <trkpt lat="47.84991" lon="6.78608">
        <ele>881.8</ele>
        <time>2022-08-17T07:31:48Z</time>
      </trkpt>
      <trkpt lat="47.8499" lon="6.78608">
        <ele>882</ele>
        <time>2022-08-17T07:31:49Z</time>
      </trkpt>
      <trkpt lat="47.84988" lon="6.78608">
        <ele>882.2</ele>
        <time>2022-08-17T07:31:50Z</time>
      </trkpt>
      <trkpt lat="47.84987" lon="6.78609">
        <ele>882.2</ele>
        <time>2022-08-17T07:31:51Z</time>
      </trkpt>
      <trkpt lat="47.84985" lon="6.78609">
        <ele>882.5</ele>
        <time>2022-08-17T07:31:52Z</time>
      </trkpt>
      <trkpt lat="47.84984" lon="6.78609">
        <ele>882.6</ele>
        <time>2022-08-17T07:31:53Z</time>
      </trkpt>
      <trkpt lat="47.84982" lon="6.78609">
        <ele>882.9</ele>
        <time>2022-08-17T07:31:54Z</time>
      </trkpt>
      <trkpt lat="47.8498" lon="6.78609">
        <ele>883.1</ele>
        <time>2022-08-17T07:31:55Z</time>
      </trkpt>
      <trkpt lat="47.84979" lon="6.78609">
        <ele>883.3</ele>
        <time>2022-08-17T07:31:56Z</time>
      </trkpt>
      <trkpt lat="47.84978" lon="6.78608">
        <ele>883.5</ele>
        <time>2022-08-17T07:31:57Z</time>
      </trkpt>
      <trkpt lat="47.84977" lon="6.78608">
        <ele>883.6</ele>
        <time>2022-08-17T07:31:58Z</time>
      </trkpt>
      <trkpt lat="47.84976" lon="6.78607">
        <ele>883.8</ele>
        <time>2022-08-17T07:31:59Z</time>
      </trkpt>
      <trkpt lat="47.84975" lon="6.78606">
        <ele>884</ele>
        <time>2022-08-17T07:32:00Z</time>
      </trkpt>
      <trkpt lat="47.84974" lon="6.78606">
        <ele>884.2</ele>
        <time>2022-08-17T07:32:01Z</time>
      </trkpt>
      <trkpt lat="47.84974" lon="6.78604">
        <ele>884.3</ele>
        <time>2022-08-17T07:32:02Z</time>
      </trkpt>
      <trkpt lat="47.84973" lon="6.78603">
        <ele>884.5</ele>
        <time>2022-08-17T07:32:03Z</time>
      </trkpt>
      <trkpt lat="47.84972" lon="6.78602">
        <ele>884.7</ele>
        <time>2022-08-17T07:32:04Z</time>
      </trkpt>
      <trkpt lat="47.84972" lon="6.78601">
        <ele>884.8</ele>
        <time>2022-08-17T07:32:05Z</time>
      </trkpt>
      <trkpt lat="47.84972" lon="6.786">
        <ele>884.8</ele>
        <time>2022-08-17T07:32:06Z</time>
      </trkpt>
      <trkpt lat="47.84972" lon="6.78598">
        <ele>885</ele>
        <time>2022-08-17T07:32:08Z</time>
      </trkpt>
      <trkpt lat="47.84972" lon="6.78597">
        <ele>885</ele>
        <time>2022-08-17T07:32:09Z</time>
      </trkpt>
      <trkpt lat="47.84972" lon="6.78596">
        <ele>885.1</ele>
        <time>2022-08-17T07:32:10Z</time>
      </trkpt>
      <trkpt lat="47.84972" lon="6.78595">
        <ele>885.2</ele>
        <time>2022-08-17T07:32:11Z</time>
      </trkpt>
      <trkpt lat="47.84972" lon="6.78593">
        <ele>885.3</ele>
        <time>2022-08-17T07:32:12Z</time>
      </trkpt>
      <trkpt lat="47.84972" lon="6.78592">
        <ele>885.4</ele>
        <time>2022-08-17T07:32:13Z</time>
      </trkpt>
      <trkpt lat="47.84971" lon="6.78591">
        <ele>885.5</ele>
        <time>2022-08-17T07:32:14Z</time>
      </trkpt>
      <trkpt lat="47.84971" lon="6.7859">
        <ele>885.6</ele>
        <time>2022-08-17T07:32:15Z</time>
      </trkpt>
      <trkpt lat="47.84971" lon="6.78589">
        <ele>885.7</ele>
        <time>2022-08-17T07:32:16Z</time>
      </trkpt>
      <trkpt lat="47.8497" lon="6.78588">
        <ele>885.8</ele>
        <time>2022-08-17T07:32:17Z</time>
      </trkpt>
      <trkpt lat="47.8497" lon="6.78587">
        <ele>885.8</ele>
        <time>2022-08-17T07:32:18Z</time>
      </trkpt>
      <trkpt lat="47.8497" lon="6.78586">
        <ele>885.9</ele>
        <time>2022-08-17T07:32:19Z</time>
      </trkpt>
      <trkpt lat="47.84969" lon="6.78584">
        <ele>886</ele>
        <time>2022-08-17T07:32:20Z</time>
      </trkpt>
      <trkpt lat="47.84969" lon="6.78583">
        <ele>886</ele>
        <time>2022-08-17T07:32:21Z</time>
      </trkpt>
      <trkpt lat="47.84969" lon="6.78582">
        <ele>886.1</ele>
        <time>2022-08-17T07:32:22Z</time>
      </trkpt>
      <trkpt lat="47.84968" lon="6.78581">
        <ele>886.2</ele>
        <time>2022-08-17T07:32:23Z</time>
      </trkpt>
      <trkpt lat="47.84967" lon="6.7858">
        <ele>886.2</ele>
        <time>2022-08-17T07:32:25Z</time>
      </trkpt>
      <trkpt lat="47.84967" lon="6.78579">
        <ele>886.3</ele>
        <time>2022-08-17T07:32:26Z</time>
      </trkpt>
      <trkpt lat="47.84966" lon="6.78578">
        <ele>886.3</ele>
        <time>2022-08-17T07:32:27Z</time>
      </trkpt>
      <trkpt lat="47.84966" lon="6.78577">
        <ele>886.4</ele>
        <time>2022-08-17T07:32:28Z</time>
      </trkpt>
      <trkpt lat="47.84965" lon="6.78576">
        <ele>886.5</ele>
        <time>2022-08-17T07:32:29Z</time>
      </trkpt>
      <trkpt lat="47.84964" lon="6.78575">
        <ele>886.5</ele>
        <time>2022-08-17T07:32:31Z</time>
      </trkpt>
      <trkpt lat="47.84963" lon="6.78574">
        <ele>886.6</ele>
        <time>2022-08-17T07:32:32Z</time>
      </trkpt>
      <trkpt lat="47.84963" lon="6.78573">
        <ele>886.6</ele>
        <time>2022-08-17T07:32:33Z</time>
      </trkpt>
      <trkpt lat="47.84962" lon="6.78572">
        <ele>886.7</ele>
        <time>2022-08-17T07:32:34Z</time>
      </trkpt>
      <trkpt lat="47.84961" lon="6.78571">
        <ele>886.7</ele>
        <time>2022-08-17T07:32:35Z</time>
      </trkpt>
      <trkpt lat="47.84961" lon="6.7857">
        <ele>886.8</ele>
        <time>2022-08-17T07:32:36Z</time>
      </trkpt>
      <trkpt lat="47.84961" lon="6.78569">
        <ele>886.8</ele>
        <time>2022-08-17T07:32:37Z</time>
      </trkpt>
      <trkpt lat="47.8496" lon="6.78568">
        <ele>886.9</ele>
        <time>2022-08-17T07:32:38Z</time>
      </trkpt>
      <trkpt lat="47.8496" lon="6.78567">
        <ele>886.9</ele>
        <time>2022-08-17T07:32:40Z</time>
      </trkpt>
      <trkpt lat="47.84959" lon="6.78566">
        <ele>887</ele>
        <time>2022-08-17T07:32:41Z</time>
      </trkpt>
      <trkpt lat="47.84959" lon="6.78565">
        <ele>887</ele>
        <time>2022-08-17T07:32:42Z</time>
      </trkpt>
      <trkpt lat="47.84959" lon="6.78564">
        <ele>887.1</ele>
        <time>2022-08-17T07:32:43Z</time>
      </trkpt>
      <trkpt lat="47.84958" lon="6.78563">
        <ele>887.1</ele>
        <time>2022-08-17T07:32:44Z</time>
      </trkpt>
      <trkpt lat="47.84958" lon="6.78562">
        <ele>887.1</ele>
        <time>2022-08-17T07:32:45Z</time>
      </trkpt>
      <trkpt lat="47.84957" lon="6.78562">
        <ele>887.1</ele>
        <time>2022-08-17T07:32:46Z</time>
      </trkpt>
      <trkpt lat="47.84957" lon="6.78561">
        <ele>887.2</ele>
        <time>2022-08-17T07:32:47Z</time>
      </trkpt>
      <trkpt lat="47.84956" lon="6.7856">
        <ele>887.2</ele>
        <time>2022-08-17T07:32:48Z</time>
      </trkpt>
      <trkpt lat="47.84955" lon="6.78559">
        <ele>887.2</ele>
        <time>2022-08-17T07:32:49Z</time>
      </trkpt>
      <trkpt lat="47.84955" lon="6.78558">
        <ele>887.3</ele>
        <time>2022-08-17T07:32:50Z</time>
      </trkpt>
      <trkpt lat="47.84954" lon="6.78557">
        <ele>887.3</ele>
        <time>2022-08-17T07:32:51Z</time>
      </trkpt>
      <trkpt lat="47.84954" lon="6.78556">
        <ele>887.3</ele>
        <time>2022-08-17T07:32:52Z</time>
      </trkpt>
      <trkpt lat="47.84953" lon="6.78555">
        <ele>887.3</ele>
        <time>2022-08-17T07:32:53Z</time>
      </trkpt>
      <trkpt lat="47.84952" lon="6.78554">
        <ele>887.3</ele>
        <time>2022-08-17T07:32:54Z</time>
      </trkpt>
      <trkpt lat="47.84952" lon="6.78553">
        <ele>887.3</ele>
        <time>2022-08-17T07:32:55Z</time>
      </trkpt>
      <trkpt lat="47.84951" lon="6.78552">
        <ele>887.2</ele>
        <time>2022-08-17T07:32:56Z</time>
      </trkpt>
      <trkpt lat="47.84951" lon="6.78551">
        <ele>887.2</ele>
        <time>2022-08-17T07:32:57Z</time>
      </trkpt>
      <trkpt lat="47.84951" lon="6.78549">
        <ele>887.2</ele>
        <time>2022-08-17T07:33:15Z</time>
      </trkpt>
      <trkpt lat="47.84952" lon="6.78548">
        <ele>887.3</ele>
        <time>2022-08-17T07:33:16Z</time>
      </trkpt>
      <trkpt lat="47.84952" lon="6.78547">
        <ele>887.3</ele>
        <time>2022-08-17T07:33:17Z</time>
      </trkpt>
      <trkpt lat="47.84953" lon="6.78546">
        <ele>887.4</ele>
        <time>2022-08-17T07:33:18Z</time>
      </trkpt>
      <trkpt lat="47.84953" lon="6.78545">
        <ele>887.4</ele>
        <time>2022-08-17T07:33:19Z</time>
      </trkpt>
      <trkpt lat="47.84954" lon="6.78544">
        <ele>887.5</ele>
        <time>2022-08-17T07:33:20Z</time>
      </trkpt>
      <trkpt lat="47.84955" lon="6.78543">
        <ele>887.6</ele>
        <time>2022-08-17T07:33:21Z</time>
      </trkpt>
      <trkpt lat="47.84955" lon="6.78542">
        <ele>887.6</ele>
        <time>2022-08-17T07:33:22Z</time>
      </trkpt>
      <trkpt lat="47.84956" lon="6.78541">
        <ele>887.8</ele>
        <time>2022-08-17T07:33:23Z</time>
      </trkpt>
      <trkpt lat="47.84957" lon="6.7854">
        <ele>887.9</ele>
        <time>2022-08-17T07:33:24Z</time>
      </trkpt>
      <trkpt lat="47.84957" lon="6.78539">
        <ele>887.9</ele>
        <time>2022-08-17T07:33:25Z</time>
      </trkpt>
      <trkpt lat="47.84958" lon="6.78538">
        <ele>888.1</ele>
        <time>2022-08-17T07:33:26Z</time>
      </trkpt>
      <trkpt lat="47.84959" lon="6.78537">
        <ele>888.3</ele>
        <time>2022-08-17T07:33:28Z</time>
      </trkpt>
      <trkpt lat="47.84959" lon="6.78536">
        <ele>888.3</ele>
        <time>2022-08-17T07:33:29Z</time>
      </trkpt>
      <trkpt lat="47.8496" lon="6.78536">
        <ele>888.4</ele>
        <time>2022-08-17T07:33:30Z</time>
      </trkpt>
      <trkpt lat="47.84961" lon="6.78536">
        <ele>888.6</ele>
        <time>2022-08-17T07:33:31Z</time>
      </trkpt>
      <trkpt lat="47.84962" lon="6.78535">
        <ele>888.8</ele>
        <time>2022-08-17T07:33:32Z</time>
      </trkpt>
      <trkpt lat="47.84964" lon="6.78535">
        <ele>889</ele>
        <time>2022-08-17T07:33:33Z</time>
      </trkpt>
      <trkpt lat="47.84964" lon="6.78534">
        <ele>889.1</ele>
        <time>2022-08-17T07:33:34Z</time>
      </trkpt>
      <trkpt lat="47.84965" lon="6.78533">
        <ele>889.3</ele>
        <time>2022-08-17T07:33:35Z</time>
      </trkpt>
      <trkpt lat="47.84966" lon="6.78532">
        <ele>889.6</ele>
        <time>2022-08-17T07:33:36Z</time>
      </trkpt>
      <trkpt lat="47.84967" lon="6.78531">
        <ele>889.8</ele>
        <time>2022-08-17T07:33:37Z</time>
      </trkpt>
      <trkpt lat="47.84967" lon="6.78527">
        <ele>890</ele>
        <time>2022-08-17T07:34:06Z</time>
      </trkpt>
      <trkpt lat="47.84968" lon="6.78526">
        <ele>890.1</ele>
        <time>2022-08-17T07:34:07Z</time>
      </trkpt>
      <trkpt lat="47.84968" lon="6.78524">
        <ele>889.9</ele>
        <time>2022-08-17T07:34:08Z</time>
      </trkpt>
      <trkpt lat="47.84968" lon="6.78523">
        <ele>889.8</ele>
        <time>2022-08-17T07:34:09Z</time>
      </trkpt>
      <trkpt lat="47.84969" lon="6.78522">
        <ele>889.8</ele>
        <time>2022-08-17T07:34:10Z</time>
      </trkpt>
      <trkpt lat="47.8497" lon="6.78521">
        <ele>889.9</ele>
        <time>2022-08-17T07:34:12Z</time>
      </trkpt>
      <trkpt lat="47.84971" lon="6.7852">
        <ele>890</ele>
        <time>2022-08-17T07:34:13Z</time>
      </trkpt>
      <trkpt lat="47.84971" lon="6.78519">
        <ele>889.8</ele>
        <time>2022-08-17T07:34:14Z</time>
      </trkpt>
      <trkpt lat="47.84972" lon="6.78518">
        <ele>889.9</ele>
        <time>2022-08-17T07:34:15Z</time>
      </trkpt>
      <trkpt lat="47.84973" lon="6.78518">
        <ele>890.1</ele>
        <time>2022-08-17T07:34:16Z</time>
      </trkpt>
      <trkpt lat="47.84973" lon="6.78517">
        <ele>890</ele>
        <time>2022-08-17T07:34:17Z</time>
      </trkpt>
      <trkpt lat="47.84975" lon="6.78517">
        <ele>890.4</ele>
        <time>2022-08-17T07:34:18Z</time>
      </trkpt>
      <trkpt lat="47.84976" lon="6.78516">
        <ele>890.5</ele>
        <time>2022-08-17T07:34:19Z</time>
      </trkpt>
      <trkpt lat="47.84977" lon="6.78516">
        <ele>890.7</ele>
        <time>2022-08-17T07:34:20Z</time>
      </trkpt>
      <trkpt lat="47.84978" lon="6.78515">
        <ele>890.8</ele>
        <time>2022-08-17T07:34:21Z</time>
      </trkpt>
      <trkpt lat="47.84979" lon="6.78514">
        <ele>890.9</ele>
        <time>2022-08-17T07:34:22Z</time>
      </trkpt>
      <trkpt lat="47.8498" lon="6.78513">
        <ele>891</ele>
        <time>2022-08-17T07:34:23Z</time>
      </trkpt>
      <trkpt lat="47.84981" lon="6.78512">
        <ele>891.1</ele>
        <time>2022-08-17T07:34:24Z</time>
      </trkpt>
      <trkpt lat="47.84982" lon="6.7851">
        <ele>891.1</ele>
        <time>2022-08-17T07:34:25Z</time>
      </trkpt>
      <trkpt lat="47.84983" lon="6.78509">
        <ele>891.2</ele>
        <time>2022-08-17T07:34:26Z</time>
      </trkpt>
      <trkpt lat="47.84984" lon="6.78509">
        <ele>891.4</ele>
        <time>2022-08-17T07:34:27Z</time>
      </trkpt>
      <trkpt lat="47.84985" lon="6.78508">
        <ele>891.5</ele>
        <time>2022-08-17T07:34:28Z</time>
      </trkpt>
      <trkpt lat="47.84986" lon="6.78507">
        <ele>891.6</ele>
        <time>2022-08-17T07:34:29Z</time>
      </trkpt>
      <trkpt lat="47.84988" lon="6.78507">
        <ele>892</ele>
        <time>2022-08-17T07:34:31Z</time>
      </trkpt>
      <trkpt lat="47.84989" lon="6.78506">
        <ele>892.1</ele>
        <time>2022-08-17T07:34:32Z</time>
      </trkpt>
      <trkpt lat="47.8499" lon="6.78506">
        <ele>892.3</ele>
        <time>2022-08-17T07:34:33Z</time>
      </trkpt>
      <trkpt lat="47.84991" lon="6.78507">
        <ele>892.6</ele>
        <time>2022-08-17T07:34:34Z</time>
      </trkpt>
      <trkpt lat="47.84993" lon="6.78506">
        <ele>893</ele>
        <time>2022-08-17T07:34:35Z</time>
      </trkpt>
      <trkpt lat="47.84994" lon="6.78506">
        <ele>893.2</ele>
        <time>2022-08-17T07:34:36Z</time>
      </trkpt>
      <trkpt lat="47.84995" lon="6.78506">
        <ele>893.4</ele>
        <time>2022-08-17T07:34:37Z</time>
      </trkpt>
      <trkpt lat="47.84996" lon="6.78505">
        <ele>893.5</ele>
        <time>2022-08-17T07:34:38Z</time>
      </trkpt>
      <trkpt lat="47.84997" lon="6.78505">
        <ele>893.7</ele>
        <time>2022-08-17T07:34:39Z</time>
      </trkpt>
      <trkpt lat="47.84998" lon="6.78504">
        <ele>893.9</ele>
        <time>2022-08-17T07:34:40Z</time>
      </trkpt>
      <trkpt lat="47.84999" lon="6.78504">
        <ele>894.1</ele>
        <time>2022-08-17T07:34:41Z</time>
      </trkpt>
      <trkpt lat="47.85" lon="6.78503">
        <ele>894.2</ele>
        <time>2022-08-17T07:34:42Z</time>
      </trkpt>
      <trkpt lat="47.85001" lon="6.78503">
        <ele>894.4</ele>
        <time>2022-08-17T07:34:44Z</time>
      </trkpt>
      <trkpt lat="47.85002" lon="6.78503">
        <ele>894.6</ele>
        <time>2022-08-17T07:34:45Z</time>
      </trkpt>
      <trkpt lat="47.85003" lon="6.78503">
        <ele>894.8</ele>
        <time>2022-08-17T07:34:46Z</time>
      </trkpt>
      <trkpt lat="47.85004" lon="6.78504">
        <ele>895.1</ele>
        <time>2022-08-17T07:34:48Z</time>
      </trkpt>
      <trkpt lat="47.85005" lon="6.78504">
        <ele>895.3</ele>
        <time>2022-08-17T07:34:50Z</time>
      </trkpt>
      <trkpt lat="47.85006" lon="6.78504">
        <ele>895.5</ele>
        <time>2022-08-17T07:34:51Z</time>
      </trkpt>
      <trkpt lat="47.85006" lon="6.78505">
        <ele>895.5</ele>
        <time>2022-08-17T07:34:52Z</time>
      </trkpt>
      <trkpt lat="47.85007" lon="6.78505">
        <ele>895.7</ele>
        <time>2022-08-17T07:34:53Z</time>
      </trkpt>
      <trkpt lat="47.85008" lon="6.78506">
        <ele>895.9</ele>
        <time>2022-08-17T07:34:54Z</time>
      </trkpt>
      <trkpt lat="47.85009" lon="6.78507">
        <ele>896.1</ele>
        <time>2022-08-17T07:34:56Z</time>
      </trkpt>
      <trkpt lat="47.8501" lon="6.78508">
        <ele>896.3</ele>
        <time>2022-08-17T07:34:58Z</time>
      </trkpt>
      <trkpt lat="47.85011" lon="6.78508">
        <ele>896.5</ele>
        <time>2022-08-17T07:34:59Z</time>
      </trkpt>
      <trkpt lat="47.85012" lon="6.78508">
        <ele>896.7</ele>
        <time>2022-08-17T07:35:00Z</time>
      </trkpt>
      <trkpt lat="47.85013" lon="6.78509">
        <ele>896.8</ele>
        <time>2022-08-17T07:35:01Z</time>
      </trkpt>
      <trkpt lat="47.85014" lon="6.78509">
        <ele>897</ele>
        <time>2022-08-17T07:35:02Z</time>
      </trkpt>
      <trkpt lat="47.85015" lon="6.78509">
        <ele>897.2</ele>
        <time>2022-08-17T07:35:03Z</time>
      </trkpt>
      <trkpt lat="47.85016" lon="6.78509">
        <ele>897.4</ele>
        <time>2022-08-17T07:35:04Z</time>
      </trkpt>
      <trkpt lat="47.85017" lon="6.78509">
        <ele>897.5</ele>
        <time>2022-08-17T07:35:05Z</time>
      </trkpt>
      <trkpt lat="47.85018" lon="6.78509">
        <ele>897.7</ele>
        <time>2022-08-17T07:35:06Z</time>
      </trkpt>
      <trkpt lat="47.85019" lon="6.78509">
        <ele>897.9</ele>
        <time>2022-08-17T07:35:08Z</time>
      </trkpt>
      <trkpt lat="47.8502" lon="6.7851">
        <ele>898</ele>
        <time>2022-08-17T07:35:09Z</time>
      </trkpt>
      <trkpt lat="47.85021" lon="6.7851">
        <ele>898.2</ele>
        <time>2022-08-17T07:35:10Z</time>
      </trkpt>
      <trkpt lat="47.85023" lon="6.78509">
        <ele>898.5</ele>
        <time>2022-08-17T07:35:18Z</time>
      </trkpt>
      <trkpt lat="47.85024" lon="6.78509">
        <ele>898.7</ele>
        <time>2022-08-17T07:35:19Z</time>
      </trkpt>
      <trkpt lat="47.85025" lon="6.78509">
        <ele>898.9</ele>
        <time>2022-08-17T07:35:20Z</time>
      </trkpt>
      <trkpt lat="47.85026" lon="6.78509">
        <ele>899.1</ele>
        <time>2022-08-17T07:35:22Z</time>
      </trkpt>
      <trkpt lat="47.85027" lon="6.78509">
        <ele>899.2</ele>
        <time>2022-08-17T07:35:24Z</time>
      </trkpt>
      <trkpt lat="47.85027" lon="6.7851">
        <ele>899.2</ele>
        <time>2022-08-17T07:35:26Z</time>
      </trkpt>
      <trkpt lat="47.85028" lon="6.78509">
        <ele>899.4</ele>
        <time>2022-08-17T07:35:27Z</time>
      </trkpt>
      <trkpt lat="47.85029" lon="6.78509">
        <ele>899.5</ele>
        <time>2022-08-17T07:35:28Z</time>
      </trkpt>
      <trkpt lat="47.8503" lon="6.78508">
        <ele>899.7</ele>
        <time>2022-08-17T07:35:30Z</time>
      </trkpt>
      <trkpt lat="47.85031" lon="6.78507">
        <ele>899.9</ele>
        <time>2022-08-17T07:35:38Z</time>
      </trkpt>
      <trkpt lat="47.85031" lon="6.78506">
        <ele>900</ele>
        <time>2022-08-17T07:35:39Z</time>
      </trkpt>
      <trkpt lat="47.85032" lon="6.78505">
        <ele>900.3</ele>
        <time>2022-08-17T07:35:40Z</time>
      </trkpt>
      <trkpt lat="47.85033" lon="6.78504">
        <ele>900.5</ele>
        <time>2022-08-17T07:35:41Z</time>
      </trkpt>
      <trkpt lat="47.85033" lon="6.78503">
        <ele>900.6</ele>
        <time>2022-08-17T07:35:42Z</time>
      </trkpt>
      <trkpt lat="47.85034" lon="6.78502">
        <ele>900.9</ele>
        <time>2022-08-17T07:35:43Z</time>
      </trkpt>
      <trkpt lat="47.85035" lon="6.78501">
        <ele>901.2</ele>
        <time>2022-08-17T07:35:45Z</time>
      </trkpt>
      <trkpt lat="47.85036" lon="6.785">
        <ele>901.5</ele>
        <time>2022-08-17T07:35:46Z</time>
      </trkpt>
      <trkpt lat="47.85036" lon="6.78499">
        <ele>901.6</ele>
        <time>2022-08-17T07:35:47Z</time>
      </trkpt>
      <trkpt lat="47.85037" lon="6.78498">
        <ele>901.8</ele>
        <time>2022-08-17T07:35:48Z</time>
      </trkpt>
      <trkpt lat="47.85037" lon="6.78497">
        <ele>901.9</ele>
        <time>2022-08-17T07:35:49Z</time>
      </trkpt>
      <trkpt lat="47.85038" lon="6.78497">
        <ele>902</ele>
        <time>2022-08-17T07:35:50Z</time>
      </trkpt>
      <trkpt lat="47.85039" lon="6.78496">
        <ele>902.3</ele>
        <time>2022-08-17T07:35:51Z</time>
      </trkpt>
      <trkpt lat="47.85039" lon="6.78495">
        <ele>902.3</ele>
        <time>2022-08-17T07:35:52Z</time>
      </trkpt>
      <trkpt lat="47.8504" lon="6.78495">
        <ele>902.5</ele>
        <time>2022-08-17T07:35:53Z</time>
      </trkpt>
      <trkpt lat="47.8504" lon="6.78494">
        <ele>902.6</ele>
        <time>2022-08-17T07:35:54Z</time>
      </trkpt>
      <trkpt lat="47.8504" lon="6.78493">
        <ele>902.6</ele>
        <time>2022-08-17T07:35:55Z</time>
      </trkpt>
      <trkpt lat="47.8504" lon="6.78492">
        <ele>902.7</ele>
        <time>2022-08-17T07:35:56Z</time>
      </trkpt>
      <trkpt lat="47.85041" lon="6.78492">
        <ele>902.8</ele>
        <time>2022-08-17T07:35:57Z</time>
      </trkpt>
      <trkpt lat="47.85041" lon="6.7849">
        <ele>902.9</ele>
        <time>2022-08-17T07:35:58Z</time>
      </trkpt>
      <trkpt lat="47.85041" lon="6.78489">
        <ele>903</ele>
        <time>2022-08-17T07:35:59Z</time>
      </trkpt>
      <trkpt lat="47.85042" lon="6.78487">
        <ele>903.2</ele>
        <time>2022-08-17T07:36:00Z</time>
      </trkpt>
      <trkpt lat="47.85042" lon="6.78486">
        <ele>903.3</ele>
        <time>2022-08-17T07:36:01Z</time>
      </trkpt>
      <trkpt lat="47.85043" lon="6.78484">
        <ele>903.5</ele>
        <time>2022-08-17T07:36:02Z</time>
      </trkpt>
      <trkpt lat="47.85043" lon="6.78482">
        <ele>903.6</ele>
        <time>2022-08-17T07:36:03Z</time>
      </trkpt>
      <trkpt lat="47.85044" lon="6.78481">
        <ele>903.8</ele>
        <time>2022-08-17T07:36:04Z</time>
      </trkpt>
      <trkpt lat="47.85045" lon="6.78479">
        <ele>904</ele>
        <time>2022-08-17T07:36:05Z</time>
      </trkpt>
      <trkpt lat="47.85045" lon="6.78478">
        <ele>904</ele>
        <time>2022-08-17T07:36:06Z</time>
      </trkpt>
      <trkpt lat="47.85046" lon="6.78477">
        <ele>904.1</ele>
        <time>2022-08-17T07:36:07Z</time>
      </trkpt>
      <trkpt lat="47.85047" lon="6.78476">
        <ele>904.3</ele>
        <time>2022-08-17T07:36:08Z</time>
      </trkpt>
      <trkpt lat="47.85047" lon="6.78474">
        <ele>904.3</ele>
        <time>2022-08-17T07:36:09Z</time>
      </trkpt>
      <trkpt lat="47.85048" lon="6.78474">
        <ele>904.4</ele>
        <time>2022-08-17T07:36:10Z</time>
      </trkpt>
      <trkpt lat="47.85048" lon="6.78473">
        <ele>904.4</ele>
        <time>2022-08-17T07:36:11Z</time>
      </trkpt>
      <trkpt lat="47.85049" lon="6.78473">
        <ele>904.5</ele>
        <time>2022-08-17T07:36:12Z</time>
      </trkpt>
      <trkpt lat="47.8505" lon="6.78472">
        <ele>904.6</ele>
        <time>2022-08-17T07:36:13Z</time>
      </trkpt>
      <trkpt lat="47.8505" lon="6.78471">
        <ele>904.7</ele>
        <time>2022-08-17T07:36:14Z</time>
      </trkpt>
      <trkpt lat="47.85051" lon="6.7847">
        <ele>904.9</ele>
        <time>2022-08-17T07:36:15Z</time>
      </trkpt>
      <trkpt lat="47.85052" lon="6.78469">
        <ele>905.1</ele>
        <time>2022-08-17T07:36:16Z</time>
      </trkpt>
      <trkpt lat="47.85052" lon="6.78468">
        <ele>905.2</ele>
        <time>2022-08-17T07:36:17Z</time>
      </trkpt>
      <trkpt lat="47.85053" lon="6.78467">
        <ele>905.4</ele>
        <time>2022-08-17T07:36:18Z</time>
      </trkpt>
      <trkpt lat="47.85053" lon="6.78466">
        <ele>905.5</ele>
        <time>2022-08-17T07:36:19Z</time>
      </trkpt>
      <trkpt lat="47.85054" lon="6.78466">
        <ele>905.6</ele>
        <time>2022-08-17T07:36:20Z</time>
      </trkpt>
      <trkpt lat="47.85055" lon="6.78465">
        <ele>905.7</ele>
        <time>2022-08-17T07:36:21Z</time>
      </trkpt>
      <trkpt lat="47.85056" lon="6.78465">
        <ele>905.8</ele>
        <time>2022-08-17T07:36:22Z</time>
      </trkpt>
      <trkpt lat="47.85057" lon="6.78465">
        <ele>905.9</ele>
        <time>2022-08-17T07:36:24Z</time>
      </trkpt>
      <trkpt lat="47.85058" lon="6.78465">
        <ele>906</ele>
        <time>2022-08-17T07:36:25Z</time>
      </trkpt>
      <trkpt lat="47.85059" lon="6.78465">
        <ele>906.1</ele>
        <time>2022-08-17T07:36:26Z</time>
      </trkpt>
      <trkpt lat="47.8506" lon="6.78465">
        <ele>906.2</ele>
        <time>2022-08-17T07:36:27Z</time>
      </trkpt>
      <trkpt lat="47.85061" lon="6.78465">
        <ele>906.3</ele>
        <time>2022-08-17T07:36:28Z</time>
      </trkpt>
      <trkpt lat="47.85062" lon="6.78466">
        <ele>906.3</ele>
        <time>2022-08-17T07:36:30Z</time>
      </trkpt>
      <trkpt lat="47.85063" lon="6.78465">
        <ele>906.4</ele>
        <time>2022-08-17T07:36:31Z</time>
      </trkpt>
      <trkpt lat="47.85064" lon="6.78465">
        <ele>906.5</ele>
        <time>2022-08-17T07:36:32Z</time>
      </trkpt>
      <trkpt lat="47.85065" lon="6.78465">
        <ele>906.6</ele>
        <time>2022-08-17T07:36:33Z</time>
      </trkpt>
      <trkpt lat="47.85066" lon="6.78465">
        <ele>906.7</ele>
        <time>2022-08-17T07:36:34Z</time>
      </trkpt>
      <trkpt lat="47.85067" lon="6.78464">
        <ele>906.9</ele>
        <time>2022-08-17T07:36:35Z</time>
      </trkpt>
      <trkpt lat="47.85068" lon="6.78464">
        <ele>907</ele>
        <time>2022-08-17T07:36:36Z</time>
      </trkpt>
      <trkpt lat="47.85069" lon="6.78464">
        <ele>907.1</ele>
        <time>2022-08-17T07:36:38Z</time>
      </trkpt>
      <trkpt lat="47.8507" lon="6.78464">
        <ele>907.1</ele>
        <time>2022-08-17T07:36:39Z</time>
      </trkpt>
      <trkpt lat="47.8507" lon="6.78463">
        <ele>907.2</ele>
        <time>2022-08-17T07:36:40Z</time>
      </trkpt>
      <trkpt lat="47.85071" lon="6.78463">
        <ele>907.3</ele>
        <time>2022-08-17T07:36:41Z</time>
      </trkpt>
      <trkpt lat="47.85071" lon="6.78462">
        <ele>907.4</ele>
        <time>2022-08-17T07:36:42Z</time>
      </trkpt>
      <trkpt lat="47.85072" lon="6.78461">
        <ele>907.5</ele>
        <time>2022-08-17T07:36:43Z</time>
      </trkpt>
      <trkpt lat="47.85073" lon="6.78461">
        <ele>907.6</ele>
        <time>2022-08-17T07:36:44Z</time>
      </trkpt>
      <trkpt lat="47.85073" lon="6.7846">
        <ele>907.7</ele>
        <time>2022-08-17T07:36:45Z</time>
      </trkpt>
      <trkpt lat="47.85074" lon="6.7846">
        <ele>907.7</ele>
        <time>2022-08-17T07:36:46Z</time>
      </trkpt>
      <trkpt lat="47.85075" lon="6.78459">
        <ele>907.9</ele>
        <time>2022-08-17T07:36:47Z</time>
      </trkpt>
      <trkpt lat="47.85076" lon="6.78458">
        <ele>908</ele>
        <time>2022-08-17T07:36:49Z</time>
      </trkpt>
      <trkpt lat="47.85077" lon="6.78457">
        <ele>908.1</ele>
        <time>2022-08-17T07:36:50Z</time>
      </trkpt>
      <trkpt lat="47.85078" lon="6.78457">
        <ele>908.2</ele>
        <time>2022-08-17T07:36:51Z</time>
      </trkpt>
      <trkpt lat="47.85078" lon="6.78456">
        <ele>908.2</ele>
        <time>2022-08-17T07:36:52Z</time>
      </trkpt>
      <trkpt lat="47.85079" lon="6.78455">
        <ele>908.3</ele>
        <time>2022-08-17T07:36:53Z</time>
      </trkpt>
      <trkpt lat="47.8508" lon="6.78454">
        <ele>908.5</ele>
        <time>2022-08-17T07:36:54Z</time>
      </trkpt>
      <trkpt lat="47.85081" lon="6.78453">
        <ele>908.6</ele>
        <time>2022-08-17T07:36:55Z</time>
      </trkpt>
      <trkpt lat="47.85081" lon="6.78452">
        <ele>908.6</ele>
        <time>2022-08-17T07:36:56Z</time>
      </trkpt>
      <trkpt lat="47.85082" lon="6.78451">
        <ele>908.7</ele>
        <time>2022-08-17T07:36:57Z</time>
      </trkpt>
      <trkpt lat="47.85082" lon="6.7845">
        <ele>908.7</ele>
        <time>2022-08-17T07:36:58Z</time>
      </trkpt>
      <trkpt lat="47.85083" lon="6.78449">
        <ele>908.8</ele>
        <time>2022-08-17T07:36:59Z</time>
      </trkpt>
      <trkpt lat="47.85084" lon="6.78448">
        <ele>908.8</ele>
        <time>2022-08-17T07:37:00Z</time>
      </trkpt>
      <trkpt lat="47.85084" lon="6.78447">
        <ele>908.8</ele>
        <time>2022-08-17T07:37:01Z</time>
      </trkpt>
      <trkpt lat="47.85085" lon="6.78446">
        <ele>908.7</ele>
        <time>2022-08-17T07:37:02Z</time>
      </trkpt>
      <trkpt lat="47.85085" lon="6.78445">
        <ele>908.7</ele>
        <time>2022-08-17T07:37:03Z</time>
      </trkpt>
      <trkpt lat="47.85086" lon="6.78444">
        <ele>908.6</ele>
        <time>2022-08-17T07:37:04Z</time>
      </trkpt>
      <trkpt lat="47.85086" lon="6.78443">
        <ele>908.7</ele>
        <time>2022-08-17T07:37:05Z</time>
      </trkpt>
      <trkpt lat="47.85086" lon="6.78442">
        <ele>908.8</ele>
        <time>2022-08-17T07:37:06Z</time>
      </trkpt>
      <trkpt lat="47.85087" lon="6.78441">
        <ele>908.7</ele>
        <time>2022-08-17T07:37:07Z</time>
      </trkpt>
      <trkpt lat="47.85087" lon="6.7844">
        <ele>908.8</ele>
        <time>2022-08-17T07:37:08Z</time>
      </trkpt>
      <trkpt lat="47.85087" lon="6.78439">
        <ele>908.9</ele>
        <time>2022-08-17T07:37:09Z</time>
      </trkpt>
      <trkpt lat="47.85087" lon="6.78438">
        <ele>908.9</ele>
        <time>2022-08-17T07:37:10Z</time>
      </trkpt>
      <trkpt lat="47.85088" lon="6.78437">
        <ele>908.9</ele>
        <time>2022-08-17T07:37:11Z</time>
      </trkpt>
      <trkpt lat="47.85088" lon="6.78436">
        <ele>908.9</ele>
        <time>2022-08-17T07:37:12Z</time>
      </trkpt>
      <trkpt lat="47.85088" lon="6.78435">
        <ele>909</ele>
        <time>2022-08-17T07:37:13Z</time>
      </trkpt>
      <trkpt lat="47.85088" lon="6.78434">
        <ele>909.1</ele>
        <time>2022-08-17T07:37:14Z</time>
      </trkpt>
      <trkpt lat="47.85089" lon="6.78433">
        <ele>909</ele>
        <time>2022-08-17T07:37:15Z</time>
      </trkpt>
      <trkpt lat="47.85089" lon="6.78432">
        <ele>909.1</ele>
        <time>2022-08-17T07:37:16Z</time>
      </trkpt>
      <trkpt lat="47.85089" lon="6.78431">
        <ele>909.2</ele>
        <time>2022-08-17T07:37:17Z</time>
      </trkpt>
      <trkpt lat="47.85089" lon="6.78429">
        <ele>909.3</ele>
        <time>2022-08-17T07:37:18Z</time>
      </trkpt>
      <trkpt lat="47.85089" lon="6.78428">
        <ele>909.4</ele>
        <time>2022-08-17T07:37:19Z</time>
      </trkpt>
      <trkpt lat="47.85089" lon="6.78427">
        <ele>909.4</ele>
        <time>2022-08-17T07:37:20Z</time>
      </trkpt>
      <trkpt lat="47.85089" lon="6.78426">
        <ele>909.5</ele>
        <time>2022-08-17T07:37:21Z</time>
      </trkpt>
      <trkpt lat="47.85089" lon="6.78425">
        <ele>909.6</ele>
        <time>2022-08-17T07:37:22Z</time>
      </trkpt>
      <trkpt lat="47.85089" lon="6.78424">
        <ele>909.7</ele>
        <time>2022-08-17T07:37:23Z</time>
      </trkpt>
      <trkpt lat="47.85089" lon="6.78422">
        <ele>909.8</ele>
        <time>2022-08-17T07:37:24Z</time>
      </trkpt>
      <trkpt lat="47.85089" lon="6.7842">
        <ele>909.9</ele>
        <time>2022-08-17T07:37:25Z</time>
      </trkpt>
      <trkpt lat="47.85089" lon="6.78419">
        <ele>910</ele>
        <time>2022-08-17T07:37:26Z</time>
      </trkpt>
      <trkpt lat="47.85089" lon="6.78418">
        <ele>910.1</ele>
        <time>2022-08-17T07:37:27Z</time>
      </trkpt>
      <trkpt lat="47.85089" lon="6.78417">
        <ele>910.2</ele>
        <time>2022-08-17T07:37:28Z</time>
      </trkpt>
      <trkpt lat="47.85089" lon="6.78416">
        <ele>910.2</ele>
        <time>2022-08-17T07:37:29Z</time>
      </trkpt>
      <trkpt lat="47.85089" lon="6.78415">
        <ele>910.3</ele>
        <time>2022-08-17T07:37:30Z</time>
      </trkpt>
      <trkpt lat="47.85089" lon="6.78414">
        <ele>910.4</ele>
        <time>2022-08-17T07:37:31Z</time>
      </trkpt>
      <trkpt lat="47.85089" lon="6.78412">
        <ele>910.6</ele>
        <time>2022-08-17T07:37:32Z</time>
      </trkpt>
      <trkpt lat="47.85089" lon="6.78411">
        <ele>910.6</ele>
        <time>2022-08-17T07:37:33Z</time>
      </trkpt>
      <trkpt lat="47.85089" lon="6.7841">
        <ele>910.7</ele>
        <time>2022-08-17T07:37:34Z</time>
      </trkpt>
      <trkpt lat="47.85089" lon="6.78409">
        <ele>910.8</ele>
        <time>2022-08-17T07:37:35Z</time>
      </trkpt>
      <trkpt lat="47.85089" lon="6.78408">
        <ele>910.9</ele>
        <time>2022-08-17T07:37:36Z</time>
      </trkpt>
      <trkpt lat="47.85089" lon="6.78407">
        <ele>911</ele>
        <time>2022-08-17T07:37:37Z</time>
      </trkpt>
      <trkpt lat="47.85089" lon="6.78406">
        <ele>911</ele>
        <time>2022-08-17T07:37:39Z</time>
      </trkpt>
      <trkpt lat="47.8509" lon="6.78405">
        <ele>911</ele>
        <time>2022-08-17T07:37:40Z</time>
      </trkpt>
      <trkpt lat="47.8509" lon="6.78404">
        <ele>911.1</ele>
        <time>2022-08-17T07:37:41Z</time>
      </trkpt>
      <trkpt lat="47.8509" lon="6.78403">
        <ele>911.1</ele>
        <time>2022-08-17T07:37:42Z</time>
      </trkpt>
      <trkpt lat="47.8509" lon="6.78402">
        <ele>911.2</ele>
        <time>2022-08-17T07:37:43Z</time>
      </trkpt>
      <trkpt lat="47.85091" lon="6.78401">
        <ele>911.2</ele>
        <time>2022-08-17T07:37:44Z</time>
      </trkpt>
      <trkpt lat="47.85091" lon="6.784">
        <ele>911.3</ele>
        <time>2022-08-17T07:37:45Z</time>
      </trkpt>
      <trkpt lat="47.85091" lon="6.78399">
        <ele>911.3</ele>
        <time>2022-08-17T07:37:46Z</time>
      </trkpt>
      <trkpt lat="47.85091" lon="6.78398">
        <ele>911.4</ele>
        <time>2022-08-17T07:37:47Z</time>
      </trkpt>
      <trkpt lat="47.85092" lon="6.78397">
        <ele>911.4</ele>
        <time>2022-08-17T07:37:48Z</time>
      </trkpt>
      <trkpt lat="47.85092" lon="6.78396">
        <ele>911.5</ele>
        <time>2022-08-17T07:37:49Z</time>
      </trkpt>
      <trkpt lat="47.85092" lon="6.78394">
        <ele>911.6</ele>
        <time>2022-08-17T07:37:50Z</time>
      </trkpt>
      <trkpt lat="47.85092" lon="6.78393">
        <ele>911.7</ele>
        <time>2022-08-17T07:37:51Z</time>
      </trkpt>
      <trkpt lat="47.85092" lon="6.78392">
        <ele>911.8</ele>
        <time>2022-08-17T07:37:52Z</time>
      </trkpt>
      <trkpt lat="47.85093" lon="6.78391">
        <ele>911.8</ele>
        <time>2022-08-17T07:37:53Z</time>
      </trkpt>
      <trkpt lat="47.85093" lon="6.78389">
        <ele>911.9</ele>
        <time>2022-08-17T07:37:54Z</time>
      </trkpt>
      <trkpt lat="47.85093" lon="6.78388">
        <ele>912</ele>
        <time>2022-08-17T07:37:55Z</time>
      </trkpt>
      <trkpt lat="47.85093" lon="6.78387">
        <ele>912.1</ele>
        <time>2022-08-17T07:37:56Z</time>
      </trkpt>
      <trkpt lat="47.85093" lon="6.78386">
        <ele>912.1</ele>
        <time>2022-08-17T07:37:57Z</time>
      </trkpt>
      <trkpt lat="47.85093" lon="6.78384">
        <ele>912.3</ele>
        <time>2022-08-17T07:37:58Z</time>
      </trkpt>
      <trkpt lat="47.85094" lon="6.78383">
        <ele>912.2</ele>
        <time>2022-08-17T07:37:59Z</time>
      </trkpt>
      <trkpt lat="47.85094" lon="6.78382">
        <ele>912.3</ele>
        <time>2022-08-17T07:38:00Z</time>
      </trkpt>
      <trkpt lat="47.85094" lon="6.78381">
        <ele>912.4</ele>
        <time>2022-08-17T07:38:01Z</time>
      </trkpt>
      <trkpt lat="47.85094" lon="6.7838">
        <ele>912.4</ele>
        <time>2022-08-17T07:38:02Z</time>
      </trkpt>
      <trkpt lat="47.85094" lon="6.78379">
        <ele>912.5</ele>
        <time>2022-08-17T07:38:03Z</time>
      </trkpt>
      <trkpt lat="47.85094" lon="6.78378">
        <ele>912.5</ele>
        <time>2022-08-17T07:38:04Z</time>
      </trkpt>
      <trkpt lat="47.85094" lon="6.78376">
        <ele>912.7</ele>
        <time>2022-08-17T07:38:05Z</time>
      </trkpt>
      <trkpt lat="47.85094" lon="6.78375">
        <ele>912.7</ele>
        <time>2022-08-17T07:38:06Z</time>
      </trkpt>
      <trkpt lat="47.85094" lon="6.78374">
        <ele>912.8</ele>
        <time>2022-08-17T07:38:07Z</time>
      </trkpt>
      <trkpt lat="47.85095" lon="6.78372">
        <ele>912.9</ele>
        <time>2022-08-17T07:38:08Z</time>
      </trkpt>
      <trkpt lat="47.85095" lon="6.78371">
        <ele>912.9</ele>
        <time>2022-08-17T07:38:09Z</time>
      </trkpt>
      <trkpt lat="47.85095" lon="6.7837">
        <ele>913</ele>
        <time>2022-08-17T07:38:10Z</time>
      </trkpt>
      <trkpt lat="47.85095" lon="6.78369">
        <ele>913.1</ele>
        <time>2022-08-17T07:38:11Z</time>
      </trkpt>
      <trkpt lat="47.85096" lon="6.78368">
        <ele>913.1</ele>
        <time>2022-08-17T07:38:12Z</time>
      </trkpt>
      <trkpt lat="47.85096" lon="6.78366">
        <ele>913.2</ele>
        <time>2022-08-17T07:38:13Z</time>
      </trkpt>
      <trkpt lat="47.85096" lon="6.78364">
        <ele>913.3</ele>
        <time>2022-08-17T07:38:14Z</time>
      </trkpt>
      <trkpt lat="47.85096" lon="6.78363">
        <ele>913.4</ele>
        <time>2022-08-17T07:38:15Z</time>
      </trkpt>
      <trkpt lat="47.85095" lon="6.78361">
        <ele>913.6</ele>
        <time>2022-08-17T07:38:16Z</time>
      </trkpt>
      <trkpt lat="47.85095" lon="6.7836">
        <ele>913.6</ele>
        <time>2022-08-17T07:38:17Z</time>
      </trkpt>
      <trkpt lat="47.85095" lon="6.78359">
        <ele>913.7</ele>
        <time>2022-08-17T07:38:18Z</time>
      </trkpt>
      <trkpt lat="47.85095" lon="6.78357">
        <ele>913.8</ele>
        <time>2022-08-17T07:38:19Z</time>
      </trkpt>
      <trkpt lat="47.85095" lon="6.78356">
        <ele>913.8</ele>
        <time>2022-08-17T07:38:20Z</time>
      </trkpt>
      <trkpt lat="47.85095" lon="6.78355">
        <ele>913.9</ele>
        <time>2022-08-17T07:38:21Z</time>
      </trkpt>
      <trkpt lat="47.85095" lon="6.78353">
        <ele>913.9</ele>
        <time>2022-08-17T07:38:22Z</time>
      </trkpt>
      <trkpt lat="47.85095" lon="6.78351">
        <ele>914</ele>
        <time>2022-08-17T07:38:23Z</time>
      </trkpt>
      <trkpt lat="47.85095" lon="6.7835">
        <ele>914.1</ele>
        <time>2022-08-17T07:38:24Z</time>
      </trkpt>
      <trkpt lat="47.85096" lon="6.78348">
        <ele>914.2</ele>
        <time>2022-08-17T07:38:25Z</time>
      </trkpt>
      <trkpt lat="47.85096" lon="6.78347">
        <ele>914.2</ele>
        <time>2022-08-17T07:38:26Z</time>
      </trkpt>
      <trkpt lat="47.85096" lon="6.78345">
        <ele>914.3</ele>
        <time>2022-08-17T07:38:27Z</time>
      </trkpt>
      <trkpt lat="47.85096" lon="6.78343">
        <ele>914.4</ele>
        <time>2022-08-17T07:38:28Z</time>
      </trkpt>
      <trkpt lat="47.85097" lon="6.78342">
        <ele>914.5</ele>
        <time>2022-08-17T07:38:29Z</time>
      </trkpt>
      <trkpt lat="47.85097" lon="6.7834">
        <ele>914.6</ele>
        <time>2022-08-17T07:38:30Z</time>
      </trkpt>
      <trkpt lat="47.85097" lon="6.78339">
        <ele>914.7</ele>
        <time>2022-08-17T07:38:31Z</time>
      </trkpt>
      <trkpt lat="47.85098" lon="6.78338">
        <ele>914.8</ele>
        <time>2022-08-17T07:38:32Z</time>
      </trkpt>
      <trkpt lat="47.85098" lon="6.78337">
        <ele>914.8</ele>
        <time>2022-08-17T07:38:33Z</time>
      </trkpt>
      <trkpt lat="47.85098" lon="6.78336">
        <ele>914.9</ele>
        <time>2022-08-17T07:38:34Z</time>
      </trkpt>
      <trkpt lat="47.85097" lon="6.78334">
        <ele>914.9</ele>
        <time>2022-08-17T07:38:35Z</time>
      </trkpt>
      <trkpt lat="47.85097" lon="6.78333">
        <ele>915</ele>
        <time>2022-08-17T07:38:36Z</time>
      </trkpt>
      <trkpt lat="47.85097" lon="6.78332">
        <ele>915.1</ele>
        <time>2022-08-17T07:38:37Z</time>
      </trkpt>
      <trkpt lat="47.85097" lon="6.78331">
        <ele>915.2</ele>
        <time>2022-08-17T07:38:38Z</time>
      </trkpt>
      <trkpt lat="47.85097" lon="6.7833">
        <ele>915.3</ele>
        <time>2022-08-17T07:38:39Z</time>
      </trkpt>
      <trkpt lat="47.85097" lon="6.78329">
        <ele>915.4</ele>
        <time>2022-08-17T07:38:40Z</time>
      </trkpt>
      <trkpt lat="47.85097" lon="6.78328">
        <ele>915.6</ele>
        <time>2022-08-17T07:38:41Z</time>
      </trkpt>
      <trkpt lat="47.85097" lon="6.78327">
        <ele>915.7</ele>
        <time>2022-08-17T07:38:42Z</time>
      </trkpt>
      <trkpt lat="47.85097" lon="6.78326">
        <ele>915.8</ele>
        <time>2022-08-17T07:38:43Z</time>
      </trkpt>
      <trkpt lat="47.85096" lon="6.78325">
        <ele>915.8</ele>
        <time>2022-08-17T07:38:44Z</time>
      </trkpt>
      <trkpt lat="47.85096" lon="6.78324">
        <ele>915.9</ele>
        <time>2022-08-17T07:38:45Z</time>
      </trkpt>
      <trkpt lat="47.85096" lon="6.78322">
        <ele>916.1</ele>
        <time>2022-08-17T07:38:46Z</time>
      </trkpt>
      <trkpt lat="47.85096" lon="6.78321">
        <ele>916.2</ele>
        <time>2022-08-17T07:38:47Z</time>
      </trkpt>
      <trkpt lat="47.85095" lon="6.7832">
        <ele>916.2</ele>
        <time>2022-08-17T07:38:48Z</time>
      </trkpt>
      <trkpt lat="47.85095" lon="6.78319">
        <ele>916.3</ele>
        <time>2022-08-17T07:38:49Z</time>
      </trkpt>
      <trkpt lat="47.85094" lon="6.78318">
        <ele>916.3</ele>
        <time>2022-08-17T07:38:50Z</time>
      </trkpt>
      <trkpt lat="47.85094" lon="6.78317">
        <ele>916.4</ele>
        <time>2022-08-17T07:38:51Z</time>
      </trkpt>
      <trkpt lat="47.85093" lon="6.78315">
        <ele>916.5</ele>
        <time>2022-08-17T07:38:52Z</time>
      </trkpt>
      <trkpt lat="47.85093" lon="6.78314">
        <ele>916.6</ele>
        <time>2022-08-17T07:38:53Z</time>
      </trkpt>
      <trkpt lat="47.85092" lon="6.78312">
        <ele>916.6</ele>
        <time>2022-08-17T07:38:59Z</time>
      </trkpt>
      <trkpt lat="47.85092" lon="6.7831">
        <ele>916.8</ele>
        <time>2022-08-17T07:39:00Z</time>
      </trkpt>
      <trkpt lat="47.85092" lon="6.78308">
        <ele>917</ele>
        <time>2022-08-17T07:39:01Z</time>
      </trkpt>
      <trkpt lat="47.85092" lon="6.78307">
        <ele>917.1</ele>
        <time>2022-08-17T07:39:02Z</time>
      </trkpt>
      <trkpt lat="47.85091" lon="6.78306">
        <ele>917.1</ele>
        <time>2022-08-17T07:39:03Z</time>
      </trkpt>
      <trkpt lat="47.85091" lon="6.78305">
        <ele>917.2</ele>
        <time>2022-08-17T07:39:04Z</time>
      </trkpt>
      <trkpt lat="47.8509" lon="6.78304">
        <ele>917.1</ele>
        <time>2022-08-17T07:39:05Z</time>
      </trkpt>
      <trkpt lat="47.85089" lon="6.78304">
        <ele>917</ele>
        <time>2022-08-17T07:39:06Z</time>
      </trkpt>
      <trkpt lat="47.85088" lon="6.78303">
        <ele>916.9</ele>
        <time>2022-08-17T07:39:07Z</time>
      </trkpt>
      <trkpt lat="47.85087" lon="6.78302">
        <ele>916.9</ele>
        <time>2022-08-17T07:39:09Z</time>
      </trkpt>
      <trkpt lat="47.85086" lon="6.78301">
        <ele>916.9</ele>
        <time>2022-08-17T07:39:10Z</time>
      </trkpt>
      <trkpt lat="47.85086" lon="6.783">
        <ele>917</ele>
        <time>2022-08-17T07:39:11Z</time>
      </trkpt>
      <trkpt lat="47.85085" lon="6.78299">
        <ele>916.9</ele>
        <time>2022-08-17T07:39:12Z</time>
      </trkpt>
      <trkpt lat="47.85084" lon="6.78298">
        <ele>916.9</ele>
        <time>2022-08-17T07:39:13Z</time>
      </trkpt>
      <trkpt lat="47.85084" lon="6.78297">
        <ele>917</ele>
        <time>2022-08-17T07:39:14Z</time>
      </trkpt>
      <trkpt lat="47.85083" lon="6.78297">
        <ele>916.9</ele>
        <time>2022-08-17T07:39:15Z</time>
      </trkpt>
      <trkpt lat="47.85082" lon="6.78296">
        <ele>916.9</ele>
        <time>2022-08-17T07:39:16Z</time>
      </trkpt>
      <trkpt lat="47.85081" lon="6.78295">
        <ele>916.9</ele>
        <time>2022-08-17T07:39:17Z</time>
      </trkpt>
      <trkpt lat="47.8508" lon="6.78294">
        <ele>916.9</ele>
        <time>2022-08-17T07:39:19Z</time>
      </trkpt>
      <trkpt lat="47.85079" lon="6.78294">
        <ele>916.8</ele>
        <time>2022-08-17T07:39:20Z</time>
      </trkpt>
      <trkpt lat="47.85079" lon="6.78293">
        <ele>917</ele>
        <time>2022-08-17T07:39:21Z</time>
      </trkpt>
      <trkpt lat="47.85078" lon="6.78293">
        <ele>916.9</ele>
        <time>2022-08-17T07:39:22Z</time>
      </trkpt>
      <trkpt lat="47.85077" lon="6.78293">
        <ele>916.8</ele>
        <time>2022-08-17T07:39:23Z</time>
      </trkpt>
      <trkpt lat="47.85076" lon="6.78292">
        <ele>916.8</ele>
        <time>2022-08-17T07:39:24Z</time>
      </trkpt>
      <trkpt lat="47.85075" lon="6.78291">
        <ele>916.8</ele>
        <time>2022-08-17T07:39:26Z</time>
      </trkpt>
      <trkpt lat="47.85074" lon="6.7829">
        <ele>916.9</ele>
        <time>2022-08-17T07:39:27Z</time>
      </trkpt>
      <trkpt lat="47.85074" lon="6.78289">
        <ele>917</ele>
        <time>2022-08-17T07:39:28Z</time>
      </trkpt>
      <trkpt lat="47.85074" lon="6.78287">
        <ele>917.2</ele>
        <time>2022-08-17T07:39:29Z</time>
      </trkpt>
      <trkpt lat="47.85073" lon="6.78286">
        <ele>917.3</ele>
        <time>2022-08-17T07:39:30Z</time>
      </trkpt>
      <trkpt lat="47.85073" lon="6.78284">
        <ele>917.5</ele>
        <time>2022-08-17T07:39:31Z</time>
      </trkpt>
      <trkpt lat="47.85073" lon="6.78283">
        <ele>917.6</ele>
        <time>2022-08-17T07:39:32Z</time>
      </trkpt>
      <trkpt lat="47.85073" lon="6.78282">
        <ele>917.7</ele>
        <time>2022-08-17T07:39:33Z</time>
      </trkpt>
      <trkpt lat="47.85073" lon="6.78281">
        <ele>917.9</ele>
        <time>2022-08-17T07:39:34Z</time>
      </trkpt>
      <trkpt lat="47.85072" lon="6.7828">
        <ele>917.9</ele>
        <time>2022-08-17T07:39:35Z</time>
      </trkpt>
      <trkpt lat="47.85072" lon="6.78279">
        <ele>918</ele>
        <time>2022-08-17T07:39:37Z</time>
      </trkpt>
      <trkpt lat="47.85071" lon="6.78278">
        <ele>918.1</ele>
        <time>2022-08-17T07:39:38Z</time>
      </trkpt>
      <trkpt lat="47.85071" lon="6.78277">
        <ele>918.3</ele>
        <time>2022-08-17T07:39:39Z</time>
      </trkpt>
      <trkpt lat="47.8507" lon="6.78276">
        <ele>918.4</ele>
        <time>2022-08-17T07:39:40Z</time>
      </trkpt>
      <trkpt lat="47.8507" lon="6.78275">
        <ele>918.6</ele>
        <time>2022-08-17T07:39:41Z</time>
      </trkpt>
      <trkpt lat="47.85069" lon="6.78275">
        <ele>918.6</ele>
        <time>2022-08-17T07:39:42Z</time>
      </trkpt>
      <trkpt lat="47.85068" lon="6.78274">
        <ele>918.7</ele>
        <time>2022-08-17T07:39:43Z</time>
      </trkpt>
      <trkpt lat="47.85067" lon="6.78273">
        <ele>918.9</ele>
        <time>2022-08-17T07:39:45Z</time>
      </trkpt>
      <trkpt lat="47.85066" lon="6.78273">
        <ele>918.8</ele>
        <time>2022-08-17T07:39:46Z</time>
      </trkpt>
      <trkpt lat="47.85066" lon="6.78272">
        <ele>919</ele>
        <time>2022-08-17T07:39:47Z</time>
      </trkpt>
      <trkpt lat="47.85065" lon="6.78271">
        <ele>919.1</ele>
        <time>2022-08-17T07:39:48Z</time>
      </trkpt>
      <trkpt lat="47.85065" lon="6.7827">
        <ele>919.4</ele>
        <time>2022-08-17T07:39:49Z</time>
      </trkpt>
      <trkpt lat="47.85064" lon="6.78269">
        <ele>919.5</ele>
        <time>2022-08-17T07:39:50Z</time>
      </trkpt>
      <trkpt lat="47.85063" lon="6.78268">
        <ele>919.6</ele>
        <time>2022-08-17T07:39:52Z</time>
      </trkpt>
      <trkpt lat="47.85063" lon="6.78267">
        <ele>919.9</ele>
        <time>2022-08-17T07:39:53Z</time>
      </trkpt>
      <trkpt lat="47.85062" lon="6.78265">
        <ele>920.2</ele>
        <time>2022-08-17T07:39:54Z</time>
      </trkpt>
      <trkpt lat="47.85062" lon="6.78264">
        <ele>920.4</ele>
        <time>2022-08-17T07:39:55Z</time>
      </trkpt>
      <trkpt lat="47.85061" lon="6.78263">
        <ele>920.6</ele>
        <time>2022-08-17T07:39:56Z</time>
      </trkpt>
      <trkpt lat="47.8506" lon="6.78262">
        <ele>920.7</ele>
        <time>2022-08-17T07:39:57Z</time>
      </trkpt>
      <trkpt lat="47.85059" lon="6.78261">
        <ele>920.9</ele>
        <time>2022-08-17T07:39:59Z</time>
      </trkpt>
      <trkpt lat="47.85058" lon="6.7826">
        <ele>921</ele>
        <time>2022-08-17T07:40:00Z</time>
      </trkpt>
      <trkpt lat="47.85058" lon="6.78259">
        <ele>921.2</ele>
        <time>2022-08-17T07:40:02Z</time>
      </trkpt>
      <trkpt lat="47.85057" lon="6.78258">
        <ele>921.4</ele>
        <time>2022-08-17T07:40:03Z</time>
      </trkpt>
      <trkpt lat="47.85057" lon="6.78257">
        <ele>921.6</ele>
        <time>2022-08-17T07:40:05Z</time>
      </trkpt>
      <trkpt lat="47.85057" lon="6.78256">
        <ele>921.8</ele>
        <time>2022-08-17T07:40:06Z</time>
      </trkpt>
      <trkpt lat="47.85057" lon="6.78255">
        <ele>922</ele>
        <time>2022-08-17T07:40:07Z</time>
      </trkpt>
      <trkpt lat="47.85057" lon="6.78254">
        <ele>922.2</ele>
        <time>2022-08-17T07:40:08Z</time>
      </trkpt>
      <trkpt lat="47.85056" lon="6.78253">
        <ele>922.4</ele>
        <time>2022-08-17T07:40:09Z</time>
      </trkpt>
      <trkpt lat="47.85056" lon="6.78252">
        <ele>922.6</ele>
        <time>2022-08-17T07:40:10Z</time>
      </trkpt>
      <trkpt lat="47.85056" lon="6.78251">
        <ele>922.8</ele>
        <time>2022-08-17T07:40:11Z</time>
      </trkpt>
      <trkpt lat="47.85056" lon="6.78249">
        <ele>923.1</ele>
        <time>2022-08-17T07:40:12Z</time>
      </trkpt>
      <trkpt lat="47.85056" lon="6.78248">
        <ele>923.1</ele>
        <time>2022-08-17T07:40:13Z</time>
      </trkpt>
      <trkpt lat="47.85056" lon="6.78247">
        <ele>923.1</ele>
        <time>2022-08-17T07:40:14Z</time>
      </trkpt>
      <trkpt lat="47.85055" lon="6.78245">
        <ele>923</ele>
        <time>2022-08-17T07:40:16Z</time>
      </trkpt>
      <trkpt lat="47.85055" lon="6.78244">
        <ele>923</ele>
        <time>2022-08-17T07:40:17Z</time>
      </trkpt>
      <trkpt lat="47.85055" lon="6.78243">
        <ele>923</ele>
        <time>2022-08-17T07:40:18Z</time>
      </trkpt>
      <trkpt lat="47.85054" lon="6.78242">
        <ele>922.7</ele>
        <time>2022-08-17T07:40:20Z</time>
      </trkpt>
      <trkpt lat="47.85054" lon="6.78241">
        <ele>922.7</ele>
        <time>2022-08-17T07:40:21Z</time>
      </trkpt>
      <trkpt lat="47.85053" lon="6.7824">
        <ele>922.4</ele>
        <time>2022-08-17T07:40:22Z</time>
      </trkpt>
      <trkpt lat="47.85053" lon="6.78239">
        <ele>922.4</ele>
        <time>2022-08-17T07:40:23Z</time>
      </trkpt>
      <trkpt lat="47.85052" lon="6.78238">
        <ele>922.1</ele>
        <time>2022-08-17T07:40:24Z</time>
      </trkpt>
      <trkpt lat="47.85052" lon="6.78236">
        <ele>922.2</ele>
        <time>2022-08-17T07:40:25Z</time>
      </trkpt>
      <trkpt lat="47.85051" lon="6.78235">
        <ele>921.8</ele>
        <time>2022-08-17T07:40:26Z</time>
      </trkpt>
      <trkpt lat="47.85051" lon="6.78234">
        <ele>921.9</ele>
        <time>2022-08-17T07:40:27Z</time>
      </trkpt>
      <trkpt lat="47.85051" lon="6.78232">
        <ele>922</ele>
        <time>2022-08-17T07:40:28Z</time>
      </trkpt>
      <trkpt lat="47.85051" lon="6.78231">
        <ele>922</ele>
        <time>2022-08-17T07:40:29Z</time>
      </trkpt>
      <trkpt lat="47.85051" lon="6.78229">
        <ele>922.1</ele>
        <time>2022-08-17T07:40:30Z</time>
      </trkpt>
      <trkpt lat="47.85051" lon="6.78228">
        <ele>922.1</ele>
        <time>2022-08-17T07:40:31Z</time>
      </trkpt>
      <trkpt lat="47.85052" lon="6.78226">
        <ele>922.6</ele>
        <time>2022-08-17T07:40:32Z</time>
      </trkpt>
      <trkpt lat="47.85052" lon="6.78225">
        <ele>922.6</ele>
        <time>2022-08-17T07:40:33Z</time>
      </trkpt>
      <trkpt lat="47.85052" lon="6.78223">
        <ele>922.7</ele>
        <time>2022-08-17T07:40:34Z</time>
      </trkpt>
      <trkpt lat="47.85052" lon="6.78221">
        <ele>922.8</ele>
        <time>2022-08-17T07:40:35Z</time>
      </trkpt>
      <trkpt lat="47.85052" lon="6.7822">
        <ele>922.8</ele>
        <time>2022-08-17T07:40:36Z</time>
      </trkpt>
      <trkpt lat="47.85052" lon="6.78218">
        <ele>922.9</ele>
        <time>2022-08-17T07:40:37Z</time>
      </trkpt>
      <trkpt lat="47.85052" lon="6.78216">
        <ele>922.9</ele>
        <time>2022-08-17T07:40:38Z</time>
      </trkpt>
      <trkpt lat="47.85052" lon="6.78214">
        <ele>923</ele>
        <time>2022-08-17T07:40:39Z</time>
      </trkpt>
      <trkpt lat="47.85052" lon="6.78212">
        <ele>923.1</ele>
        <time>2022-08-17T07:40:40Z</time>
      </trkpt>
      <trkpt lat="47.85053" lon="6.78211">
        <ele>923.5</ele>
        <time>2022-08-17T07:40:41Z</time>
      </trkpt>
      <trkpt lat="47.85053" lon="6.78209">
        <ele>923.6</ele>
        <time>2022-08-17T07:40:42Z</time>
      </trkpt>
      <trkpt lat="47.85053" lon="6.78207">
        <ele>923.6</ele>
        <time>2022-08-17T07:40:43Z</time>
      </trkpt>
      <trkpt lat="47.85053" lon="6.78205">
        <ele>923.7</ele>
        <time>2022-08-17T07:40:44Z</time>
      </trkpt>
      <trkpt lat="47.85054" lon="6.78204">
        <ele>924.1</ele>
        <time>2022-08-17T07:40:45Z</time>
      </trkpt>
      <trkpt lat="47.85054" lon="6.78202">
        <ele>924.2</ele>
        <time>2022-08-17T07:40:46Z</time>
      </trkpt>
      <trkpt lat="47.85054" lon="6.78201">
        <ele>924.2</ele>
        <time>2022-08-17T07:40:47Z</time>
      </trkpt>
      <trkpt lat="47.85054" lon="6.782">
        <ele>924.2</ele>
        <time>2022-08-17T07:40:48Z</time>
      </trkpt>
      <trkpt lat="47.85055" lon="6.78199">
        <ele>924.6</ele>
        <time>2022-08-17T07:40:49Z</time>
      </trkpt>
      <trkpt lat="47.85055" lon="6.78198">
        <ele>924.7</ele>
        <time>2022-08-17T07:40:50Z</time>
      </trkpt>
      <trkpt lat="47.85055" lon="6.78197">
        <ele>924.7</ele>
        <time>2022-08-17T07:40:51Z</time>
      </trkpt>
      <trkpt lat="47.85055" lon="6.78195">
        <ele>924.8</ele>
        <time>2022-08-17T07:40:52Z</time>
      </trkpt>
      <trkpt lat="47.85055" lon="6.78194">
        <ele>924.8</ele>
        <time>2022-08-17T07:40:53Z</time>
      </trkpt>
      <trkpt lat="47.85055" lon="6.78193">
        <ele>924.8</ele>
        <time>2022-08-17T07:40:54Z</time>
      </trkpt>
      <trkpt lat="47.85055" lon="6.78192">
        <ele>924.8</ele>
        <time>2022-08-17T07:40:55Z</time>
      </trkpt>
      <trkpt lat="47.85055" lon="6.78191">
        <ele>924.8</ele>
        <time>2022-08-17T07:40:56Z</time>
      </trkpt>
      <trkpt lat="47.85056" lon="6.7819">
        <ele>925</ele>
        <time>2022-08-17T07:40:57Z</time>
      </trkpt>
      <trkpt lat="47.85056" lon="6.78189">
        <ele>925</ele>
        <time>2022-08-17T07:40:58Z</time>
      </trkpt>
      <trkpt lat="47.85056" lon="6.78187">
        <ele>925</ele>
        <time>2022-08-17T07:40:59Z</time>
      </trkpt>
      <trkpt lat="47.85057" lon="6.78186">
        <ele>925.1</ele>
        <time>2022-08-17T07:41:00Z</time>
      </trkpt>
      <trkpt lat="47.85057" lon="6.78185">
        <ele>925.1</ele>
        <time>2022-08-17T07:41:01Z</time>
      </trkpt>
      <trkpt lat="47.85058" lon="6.78185">
        <ele>925.1</ele>
        <time>2022-08-17T07:41:02Z</time>
      </trkpt>
      <trkpt lat="47.85058" lon="6.78184">
        <ele>925.1</ele>
        <time>2022-08-17T07:41:03Z</time>
      </trkpt>
      <trkpt lat="47.85058" lon="6.78183">
        <ele>925.1</ele>
        <time>2022-08-17T07:41:04Z</time>
      </trkpt>
      <trkpt lat="47.85059" lon="6.78183">
        <ele>925.2</ele>
        <time>2022-08-17T07:41:06Z</time>
      </trkpt>
      <trkpt lat="47.85059" lon="6.78182">
        <ele>925.2</ele>
        <time>2022-08-17T07:41:07Z</time>
      </trkpt>
      <trkpt lat="47.85059" lon="6.78181">
        <ele>925.2</ele>
        <time>2022-08-17T07:41:08Z</time>
      </trkpt>
      <trkpt lat="47.8506" lon="6.7818">
        <ele>925.2</ele>
        <time>2022-08-17T07:41:09Z</time>
      </trkpt>
      <trkpt lat="47.8506" lon="6.78179">
        <ele>925.2</ele>
        <time>2022-08-17T07:41:10Z</time>
      </trkpt>
      <trkpt lat="47.8506" lon="6.78177">
        <ele>925.3</ele>
        <time>2022-08-17T07:41:11Z</time>
      </trkpt>
      <trkpt lat="47.85061" lon="6.78176">
        <ele>925.3</ele>
        <time>2022-08-17T07:41:12Z</time>
      </trkpt>
      <trkpt lat="47.85061" lon="6.78175">
        <ele>925.3</ele>
        <time>2022-08-17T07:41:13Z</time>
      </trkpt>
      <trkpt lat="47.85061" lon="6.78174">
        <ele>925.3</ele>
        <time>2022-08-17T07:41:14Z</time>
      </trkpt>
      <trkpt lat="47.85061" lon="6.78173">
        <ele>925.3</ele>
        <time>2022-08-17T07:41:15Z</time>
      </trkpt>
      <trkpt lat="47.85061" lon="6.78171">
        <ele>925.4</ele>
        <time>2022-08-17T07:41:16Z</time>
      </trkpt>
      <trkpt lat="47.85061" lon="6.7817">
        <ele>925.4</ele>
        <time>2022-08-17T07:41:17Z</time>
      </trkpt>
      <trkpt lat="47.85061" lon="6.78169">
        <ele>925.4</ele>
        <time>2022-08-17T07:41:18Z</time>
      </trkpt>
      <trkpt lat="47.85061" lon="6.78168">
        <ele>925.4</ele>
        <time>2022-08-17T07:41:19Z</time>
      </trkpt>
      <trkpt lat="47.85062" lon="6.78167">
        <ele>925.5</ele>
        <time>2022-08-17T07:41:20Z</time>
      </trkpt>
      <trkpt lat="47.85062" lon="6.78166">
        <ele>925.5</ele>
        <time>2022-08-17T07:41:22Z</time>
      </trkpt>
      <trkpt lat="47.85062" lon="6.78165">
        <ele>925.4</ele>
        <time>2022-08-17T07:41:23Z</time>
      </trkpt>
      <trkpt lat="47.85061" lon="6.78165">
        <ele>925.4</ele>
        <time>2022-08-17T07:41:25Z</time>
      </trkpt>
      <trkpt lat="47.85061" lon="6.78164">
        <ele>925.3</ele>
        <time>2022-08-17T07:41:26Z</time>
      </trkpt>
      <trkpt lat="47.8506" lon="6.78163">
        <ele>925.2</ele>
        <time>2022-08-17T07:41:27Z</time>
      </trkpt>
      <trkpt lat="47.85059" lon="6.78162">
        <ele>925.1</ele>
        <time>2022-08-17T07:41:28Z</time>
      </trkpt>
      <trkpt lat="47.85059" lon="6.78161">
        <ele>925.1</ele>
        <time>2022-08-17T07:41:29Z</time>
      </trkpt>
      <trkpt lat="47.85058" lon="6.7816">
        <ele>925</ele>
        <time>2022-08-17T07:41:30Z</time>
      </trkpt>
      <trkpt lat="47.85058" lon="6.78158">
        <ele>924.9</ele>
        <time>2022-08-17T07:41:31Z</time>
      </trkpt>
      <trkpt lat="47.85058" lon="6.78157">
        <ele>924.9</ele>
        <time>2022-08-17T07:41:32Z</time>
      </trkpt>
      <trkpt lat="47.85058" lon="6.78156">
        <ele>924.9</ele>
        <time>2022-08-17T07:41:33Z</time>
      </trkpt>
      <trkpt lat="47.85057" lon="6.78155">
        <ele>924.7</ele>
        <time>2022-08-17T07:41:34Z</time>
      </trkpt>
      <trkpt lat="47.85057" lon="6.78154">
        <ele>924.7</ele>
        <time>2022-08-17T07:41:35Z</time>
      </trkpt>
      <trkpt lat="47.85056" lon="6.78153">
        <ele>924.6</ele>
        <time>2022-08-17T07:41:36Z</time>
      </trkpt>
      <trkpt lat="47.85056" lon="6.78151">
        <ele>924.5</ele>
        <time>2022-08-17T07:41:37Z</time>
      </trkpt>
      <trkpt lat="47.85056" lon="6.7815">
        <ele>924.5</ele>
        <time>2022-08-17T07:41:38Z</time>
      </trkpt>
      <trkpt lat="47.85055" lon="6.78149">
        <ele>924.2</ele>
        <time>2022-08-17T07:41:39Z</time>
      </trkpt>
      <trkpt lat="47.85055" lon="6.78147">
        <ele>924.1</ele>
        <time>2022-08-17T07:41:41Z</time>
      </trkpt>
      <trkpt lat="47.85055" lon="6.78146">
        <ele>924.1</ele>
        <time>2022-08-17T07:41:42Z</time>
      </trkpt>
      <trkpt lat="47.85055" lon="6.78145">
        <ele>924.1</ele>
        <time>2022-08-17T07:41:43Z</time>
      </trkpt>
      <trkpt lat="47.85054" lon="6.78144">
        <ele>923.8</ele>
        <time>2022-08-17T07:41:44Z</time>
      </trkpt>
      <trkpt lat="47.85054" lon="6.78143">
        <ele>923.8</ele>
        <time>2022-08-17T07:41:46Z</time>
      </trkpt>
      <trkpt lat="47.85053" lon="6.78142">
        <ele>923.5</ele>
        <time>2022-08-17T07:41:47Z</time>
      </trkpt>
      <trkpt lat="47.85053" lon="6.78141">
        <ele>923.5</ele>
        <time>2022-08-17T07:41:48Z</time>
      </trkpt>
      <trkpt lat="47.85053" lon="6.78139">
        <ele>923.5</ele>
        <time>2022-08-17T07:41:49Z</time>
      </trkpt>
      <trkpt lat="47.85052" lon="6.78138">
        <ele>923.2</ele>
        <time>2022-08-17T07:41:50Z</time>
      </trkpt>
      <trkpt lat="47.85052" lon="6.78136">
        <ele>923.3</ele>
        <time>2022-08-17T07:41:51Z</time>
      </trkpt>
      <trkpt lat="47.85052" lon="6.78135">
        <ele>923.3</ele>
        <time>2022-08-17T07:41:52Z</time>
      </trkpt>
      <trkpt lat="47.85051" lon="6.78134">
        <ele>923.1</ele>
        <time>2022-08-17T07:41:53Z</time>
      </trkpt>
      <trkpt lat="47.85051" lon="6.78132">
        <ele>923.2</ele>
        <time>2022-08-17T07:41:54Z</time>
      </trkpt>
      <trkpt lat="47.85051" lon="6.78131">
        <ele>923.2</ele>
        <time>2022-08-17T07:41:55Z</time>
      </trkpt>
      <trkpt lat="47.85052" lon="6.7813">
        <ele>923.4</ele>
        <time>2022-08-17T07:41:56Z</time>
      </trkpt>
      <trkpt lat="47.85052" lon="6.78129">
        <ele>923.4</ele>
        <time>2022-08-17T07:41:57Z</time>
      </trkpt>
      <trkpt lat="47.85052" lon="6.78127">
        <ele>923.5</ele>
        <time>2022-08-17T07:41:58Z</time>
      </trkpt>
      <trkpt lat="47.85052" lon="6.78126">
        <ele>923.5</ele>
        <time>2022-08-17T07:41:59Z</time>
      </trkpt>
      <trkpt lat="47.85052" lon="6.78125">
        <ele>923.5</ele>
        <time>2022-08-17T07:42:00Z</time>
      </trkpt>
      <trkpt lat="47.85052" lon="6.78124">
        <ele>923.5</ele>
        <time>2022-08-17T07:42:01Z</time>
      </trkpt>
      <trkpt lat="47.85051" lon="6.78122">
        <ele>923.4</ele>
        <time>2022-08-17T07:42:02Z</time>
      </trkpt>
      <trkpt lat="47.85051" lon="6.78121">
        <ele>923.4</ele>
        <time>2022-08-17T07:42:03Z</time>
      </trkpt>
      <trkpt lat="47.85051" lon="6.7812">
        <ele>923.5</ele>
        <time>2022-08-17T07:42:04Z</time>
      </trkpt>
      <trkpt lat="47.8505" lon="6.78118">
        <ele>923.4</ele>
        <time>2022-08-17T07:42:05Z</time>
      </trkpt>
      <trkpt lat="47.8505" lon="6.78117">
        <ele>923.4</ele>
        <time>2022-08-17T07:42:06Z</time>
      </trkpt>
      <trkpt lat="47.85049" lon="6.78116">
        <ele>923.4</ele>
        <time>2022-08-17T07:42:07Z</time>
      </trkpt>
      <trkpt lat="47.85049" lon="6.78114">
        <ele>923.4</ele>
        <time>2022-08-17T07:42:08Z</time>
      </trkpt>
      <trkpt lat="47.85048" lon="6.78113">
        <ele>923.4</ele>
        <time>2022-08-17T07:42:09Z</time>
      </trkpt>
      <trkpt lat="47.85048" lon="6.78112">
        <ele>923.4</ele>
        <time>2022-08-17T07:42:10Z</time>
      </trkpt>
      <trkpt lat="47.85047" lon="6.78111">
        <ele>923.4</ele>
        <time>2022-08-17T07:42:11Z</time>
      </trkpt>
      <trkpt lat="47.85047" lon="6.7811">
        <ele>923.5</ele>
        <time>2022-08-17T07:42:12Z</time>
      </trkpt>
      <trkpt lat="47.85047" lon="6.78109">
        <ele>923.7</ele>
        <time>2022-08-17T07:42:13Z</time>
      </trkpt>
      <trkpt lat="47.85046" lon="6.78109">
        <ele>923.6</ele>
        <time>2022-08-17T07:42:14Z</time>
      </trkpt>
      <trkpt lat="47.85046" lon="6.78108">
        <ele>923.8</ele>
        <time>2022-08-17T07:42:15Z</time>
      </trkpt>
      <trkpt lat="47.85045" lon="6.78107">
        <ele>923.8</ele>
        <time>2022-08-17T07:42:16Z</time>
      </trkpt>
      <trkpt lat="47.85044" lon="6.78106">
        <ele>923.9</ele>
        <time>2022-08-17T07:42:17Z</time>
      </trkpt>
      <trkpt lat="47.85043" lon="6.78106">
        <ele>923.8</ele>
        <time>2022-08-17T07:42:18Z</time>
      </trkpt>
      <trkpt lat="47.85043" lon="6.78105">
        <ele>924</ele>
        <time>2022-08-17T07:42:19Z</time>
      </trkpt>
      <trkpt lat="47.85042" lon="6.78104">
        <ele>924</ele>
        <time>2022-08-17T07:42:20Z</time>
      </trkpt>
      <trkpt lat="47.85041" lon="6.78104">
        <ele>924</ele>
        <time>2022-08-17T07:42:21Z</time>
      </trkpt>
      <trkpt lat="47.8504" lon="6.78103">
        <ele>924</ele>
        <time>2022-08-17T07:42:22Z</time>
      </trkpt>
      <trkpt lat="47.85039" lon="6.78102">
        <ele>924.1</ele>
        <time>2022-08-17T07:42:23Z</time>
      </trkpt>
      <trkpt lat="47.85039" lon="6.78101">
        <ele>924.3</ele>
        <time>2022-08-17T07:42:24Z</time>
      </trkpt>
      <trkpt lat="47.85038" lon="6.78099">
        <ele>924.5</ele>
        <time>2022-08-17T07:42:25Z</time>
      </trkpt>
      <trkpt lat="47.85038" lon="6.78098">
        <ele>924.6</ele>
        <time>2022-08-17T07:42:26Z</time>
      </trkpt>
      <trkpt lat="47.85037" lon="6.78097">
        <ele>924.7</ele>
        <time>2022-08-17T07:42:27Z</time>
      </trkpt>
      <trkpt lat="47.85037" lon="6.78095">
        <ele>925</ele>
        <time>2022-08-17T07:42:28Z</time>
      </trkpt>
      <trkpt lat="47.85037" lon="6.78094">
        <ele>925.1</ele>
        <time>2022-08-17T07:42:29Z</time>
      </trkpt>
      <trkpt lat="47.85037" lon="6.78093">
        <ele>925.3</ele>
        <time>2022-08-17T07:42:30Z</time>
      </trkpt>
      <trkpt lat="47.85037" lon="6.78092">
        <ele>925.4</ele>
        <time>2022-08-17T07:42:31Z</time>
      </trkpt>
      <trkpt lat="47.85037" lon="6.7809">
        <ele>925.7</ele>
        <time>2022-08-17T07:42:32Z</time>
      </trkpt>
      <trkpt lat="47.85037" lon="6.78089">
        <ele>925.8</ele>
        <time>2022-08-17T07:42:33Z</time>
      </trkpt>
      <trkpt lat="47.85037" lon="6.78087">
        <ele>926.1</ele>
        <time>2022-08-17T07:42:34Z</time>
      </trkpt>
      <trkpt lat="47.85037" lon="6.78086">
        <ele>926.3</ele>
        <time>2022-08-17T07:42:35Z</time>
      </trkpt>
      <trkpt lat="47.85037" lon="6.78084">
        <ele>926.6</ele>
        <time>2022-08-17T07:42:36Z</time>
      </trkpt>
      <trkpt lat="47.85037" lon="6.78083">
        <ele>926.7</ele>
        <time>2022-08-17T07:42:37Z</time>
      </trkpt>
      <trkpt lat="47.85037" lon="6.78081">
        <ele>926.7</ele>
        <time>2022-08-17T07:42:38Z</time>
      </trkpt>
      <trkpt lat="47.85036" lon="6.78079">
        <ele>926.6</ele>
        <time>2022-08-17T07:42:39Z</time>
      </trkpt>
      <trkpt lat="47.85036" lon="6.78078">
        <ele>926.6</ele>
        <time>2022-08-17T07:42:40Z</time>
      </trkpt>
      <trkpt lat="47.85036" lon="6.78076">
        <ele>926.6</ele>
        <time>2022-08-17T07:42:41Z</time>
      </trkpt>
      <trkpt lat="47.85036" lon="6.78074">
        <ele>926.7</ele>
        <time>2022-08-17T07:42:42Z</time>
      </trkpt>
      <trkpt lat="47.85036" lon="6.78073">
        <ele>926.7</ele>
        <time>2022-08-17T07:42:43Z</time>
      </trkpt>
      <trkpt lat="47.85035" lon="6.78071">
        <ele>926.5</ele>
        <time>2022-08-17T07:42:44Z</time>
      </trkpt>
      <trkpt lat="47.85035" lon="6.7807">
        <ele>926.5</ele>
        <time>2022-08-17T07:42:45Z</time>
      </trkpt>
      <trkpt lat="47.85035" lon="6.78068">
        <ele>926.5</ele>
        <time>2022-08-17T07:42:46Z</time>
      </trkpt>
      <trkpt lat="47.85035" lon="6.78067">
        <ele>926.5</ele>
        <time>2022-08-17T07:42:47Z</time>
      </trkpt>
      <trkpt lat="47.85035" lon="6.78065">
        <ele>926.5</ele>
        <time>2022-08-17T07:42:48Z</time>
      </trkpt>
      <trkpt lat="47.85035" lon="6.78064">
        <ele>926.5</ele>
        <time>2022-08-17T07:42:49Z</time>
      </trkpt>
      <trkpt lat="47.85035" lon="6.78063">
        <ele>926.5</ele>
        <time>2022-08-17T07:42:50Z</time>
      </trkpt>
      <trkpt lat="47.85035" lon="6.78062">
        <ele>926.6</ele>
        <time>2022-08-17T07:42:51Z</time>
      </trkpt>
      <trkpt lat="47.85035" lon="6.78061">
        <ele>926.6</ele>
        <time>2022-08-17T07:42:52Z</time>
      </trkpt>
      <trkpt lat="47.85035" lon="6.78059">
        <ele>926.6</ele>
        <time>2022-08-17T07:42:53Z</time>
      </trkpt>
      <trkpt lat="47.85035" lon="6.78058">
        <ele>926.6</ele>
        <time>2022-08-17T07:42:54Z</time>
      </trkpt>
      <trkpt lat="47.85034" lon="6.78056">
        <ele>926.3</ele>
        <time>2022-08-17T07:43:11Z</time>
      </trkpt>
      <trkpt lat="47.85033" lon="6.78056">
        <ele>926.1</ele>
        <time>2022-08-17T07:43:12Z</time>
      </trkpt>
      <trkpt lat="47.85033" lon="6.78055">
        <ele>926.1</ele>
        <time>2022-08-17T07:43:13Z</time>
      </trkpt>
      <trkpt lat="47.85033" lon="6.78054">
        <ele>926.2</ele>
        <time>2022-08-17T07:43:14Z</time>
      </trkpt>
      <trkpt lat="47.85033" lon="6.78052">
        <ele>926.2</ele>
        <time>2022-08-17T07:43:16Z</time>
      </trkpt>
      <trkpt lat="47.85032" lon="6.78051">
        <ele>926</ele>
        <time>2022-08-17T07:43:17Z</time>
      </trkpt>
      <trkpt lat="47.85032" lon="6.7805">
        <ele>926.1</ele>
        <time>2022-08-17T07:43:18Z</time>
      </trkpt>
      <trkpt lat="47.85032" lon="6.78049">
        <ele>926.1</ele>
        <time>2022-08-17T07:43:19Z</time>
      </trkpt>
      <trkpt lat="47.85032" lon="6.78047">
        <ele>926.1</ele>
        <time>2022-08-17T07:43:20Z</time>
      </trkpt>
      <trkpt lat="47.85032" lon="6.78046">
        <ele>926.2</ele>
        <time>2022-08-17T07:43:21Z</time>
      </trkpt>
      <trkpt lat="47.85032" lon="6.78045">
        <ele>926.2</ele>
        <time>2022-08-17T07:43:22Z</time>
      </trkpt>
      <trkpt lat="47.85032" lon="6.78043">
        <ele>926.2</ele>
        <time>2022-08-17T07:43:23Z</time>
      </trkpt>
      <trkpt lat="47.85031" lon="6.78042">
        <ele>926.1</ele>
        <time>2022-08-17T07:43:24Z</time>
      </trkpt>
      <trkpt lat="47.85031" lon="6.7804">
        <ele>926.1</ele>
        <time>2022-08-17T07:43:25Z</time>
      </trkpt>
      <trkpt lat="47.85031" lon="6.78039">
        <ele>926.2</ele>
        <time>2022-08-17T07:43:26Z</time>
      </trkpt>
      <trkpt lat="47.85031" lon="6.78038">
        <ele>926.2</ele>
        <time>2022-08-17T07:43:27Z</time>
      </trkpt>
      <trkpt lat="47.85031" lon="6.78037">
        <ele>926.2</ele>
        <time>2022-08-17T07:43:28Z</time>
      </trkpt>
      <trkpt lat="47.85031" lon="6.78035">
        <ele>926.3</ele>
        <time>2022-08-17T07:43:29Z</time>
      </trkpt>
      <trkpt lat="47.8503" lon="6.78034">
        <ele>926.1</ele>
        <time>2022-08-17T07:43:30Z</time>
      </trkpt>
      <trkpt lat="47.8503" lon="6.78033">
        <ele>926.2</ele>
        <time>2022-08-17T07:43:31Z</time>
      </trkpt>
      <trkpt lat="47.8503" lon="6.78032">
        <ele>926.2</ele>
        <time>2022-08-17T07:43:32Z</time>
      </trkpt>
      <trkpt lat="47.85029" lon="6.7803">
        <ele>926.1</ele>
        <time>2022-08-17T07:43:33Z</time>
      </trkpt>
      <trkpt lat="47.85029" lon="6.78029">
        <ele>926.1</ele>
        <time>2022-08-17T07:43:34Z</time>
      </trkpt>
      <trkpt lat="47.85028" lon="6.78027">
        <ele>926</ele>
        <time>2022-08-17T07:43:35Z</time>
      </trkpt>
      <trkpt lat="47.85028" lon="6.78026">
        <ele>926</ele>
        <time>2022-08-17T07:43:36Z</time>
      </trkpt>
      <trkpt lat="47.85028" lon="6.78025">
        <ele>925.9</ele>
        <time>2022-08-17T07:43:37Z</time>
      </trkpt>
      <trkpt lat="47.85028" lon="6.78023">
        <ele>925.9</ele>
        <time>2022-08-17T07:43:38Z</time>
      </trkpt>
      <trkpt lat="47.85028" lon="6.78022">
        <ele>925.8</ele>
        <time>2022-08-17T07:43:39Z</time>
      </trkpt>
      <trkpt lat="47.85028" lon="6.7802">
        <ele>925.8</ele>
        <time>2022-08-17T07:43:40Z</time>
      </trkpt>
      <trkpt lat="47.85028" lon="6.78019">
        <ele>925.7</ele>
        <time>2022-08-17T07:43:41Z</time>
      </trkpt>
      <trkpt lat="47.85027" lon="6.78017">
        <ele>925.3</ele>
        <time>2022-08-17T07:43:42Z</time>
      </trkpt>
      <trkpt lat="47.85027" lon="6.78015">
        <ele>925.3</ele>
        <time>2022-08-17T07:43:43Z</time>
      </trkpt>
      <trkpt lat="47.85027" lon="6.78014">
        <ele>925.2</ele>
        <time>2022-08-17T07:43:44Z</time>
      </trkpt>
      <trkpt lat="47.85026" lon="6.78012">
        <ele>924.8</ele>
        <time>2022-08-17T07:43:45Z</time>
      </trkpt>
      <trkpt lat="47.85026" lon="6.7801">
        <ele>924.8</ele>
        <time>2022-08-17T07:43:46Z</time>
      </trkpt>
      <trkpt lat="47.85025" lon="6.78009">
        <ele>924.4</ele>
        <time>2022-08-17T07:43:47Z</time>
      </trkpt>
      <trkpt lat="47.85025" lon="6.78007">
        <ele>924.3</ele>
        <time>2022-08-17T07:43:48Z</time>
      </trkpt>
      <trkpt lat="47.85025" lon="6.78006">
        <ele>924.3</ele>
        <time>2022-08-17T07:43:49Z</time>
      </trkpt>
      <trkpt lat="47.85024" lon="6.78004">
        <ele>923.9</ele>
        <time>2022-08-17T07:43:50Z</time>
      </trkpt>
      <trkpt lat="47.85024" lon="6.78003">
        <ele>923.9</ele>
        <time>2022-08-17T07:43:51Z</time>
      </trkpt>
      <trkpt lat="47.85024" lon="6.78002">
        <ele>923.8</ele>
        <time>2022-08-17T07:43:52Z</time>
      </trkpt>
      <trkpt lat="47.85023" lon="6.78001">
        <ele>923.5</ele>
        <time>2022-08-17T07:43:53Z</time>
      </trkpt>
      <trkpt lat="47.85023" lon="6.78">
        <ele>923.5</ele>
        <time>2022-08-17T07:43:54Z</time>
      </trkpt>
      <trkpt lat="47.85023" lon="6.77999">
        <ele>923.4</ele>
        <time>2022-08-17T07:43:55Z</time>
      </trkpt>
      <trkpt lat="47.85023" lon="6.77998">
        <ele>923.4</ele>
        <time>2022-08-17T07:43:56Z</time>
      </trkpt>
      <trkpt lat="47.85023" lon="6.77997">
        <ele>923.4</ele>
        <time>2022-08-17T07:43:57Z</time>
      </trkpt>
      <trkpt lat="47.85022" lon="6.77996">
        <ele>923.1</ele>
        <time>2022-08-17T07:43:58Z</time>
      </trkpt>
      <trkpt lat="47.85022" lon="6.77995">
        <ele>923.1</ele>
        <time>2022-08-17T07:43:59Z</time>
      </trkpt>
      <trkpt lat="47.85022" lon="6.77994">
        <ele>923</ele>
        <time>2022-08-17T07:44:00Z</time>
      </trkpt>
      <trkpt lat="47.85022" lon="6.77993">
        <ele>923</ele>
        <time>2022-08-17T07:44:01Z</time>
      </trkpt>
      <trkpt lat="47.85021" lon="6.77992">
        <ele>922.7</ele>
        <time>2022-08-17T07:44:02Z</time>
      </trkpt>
      <trkpt lat="47.85021" lon="6.77991">
        <ele>922.7</ele>
        <time>2022-08-17T07:44:03Z</time>
      </trkpt>
      <trkpt lat="47.85021" lon="6.77989">
        <ele>922.7</ele>
        <time>2022-08-17T07:44:04Z</time>
      </trkpt>
      <trkpt lat="47.85021" lon="6.77988">
        <ele>922.7</ele>
        <time>2022-08-17T07:44:05Z</time>
      </trkpt>
      <trkpt lat="47.85021" lon="6.77987">
        <ele>922.7</ele>
        <time>2022-08-17T07:44:06Z</time>
      </trkpt>
      <trkpt lat="47.85021" lon="6.77985">
        <ele>922.7</ele>
        <time>2022-08-17T07:44:07Z</time>
      </trkpt>
      <trkpt lat="47.8502" lon="6.77984">
        <ele>922.4</ele>
        <time>2022-08-17T07:44:08Z</time>
      </trkpt>
      <trkpt lat="47.8502" lon="6.77983">
        <ele>922.4</ele>
        <time>2022-08-17T07:44:09Z</time>
      </trkpt>
      <trkpt lat="47.8502" lon="6.77981">
        <ele>922.4</ele>
        <time>2022-08-17T07:44:10Z</time>
      </trkpt>
      <trkpt lat="47.8502" lon="6.7798">
        <ele>922.4</ele>
        <time>2022-08-17T07:44:11Z</time>
      </trkpt>
      <trkpt lat="47.8502" lon="6.77979">
        <ele>922.4</ele>
        <time>2022-08-17T07:44:12Z</time>
      </trkpt>
      <trkpt lat="47.85021" lon="6.77978">
        <ele>922.6</ele>
        <time>2022-08-17T07:44:13Z</time>
      </trkpt>
      <trkpt lat="47.85021" lon="6.77977">
        <ele>922.6</ele>
        <time>2022-08-17T07:44:14Z</time>
      </trkpt>
      <trkpt lat="47.85021" lon="6.77976">
        <ele>922.6</ele>
        <time>2022-08-17T07:44:15Z</time>
      </trkpt>
      <trkpt lat="47.85021" lon="6.77975">
        <ele>922.6</ele>
        <time>2022-08-17T07:44:16Z</time>
      </trkpt>
      <trkpt lat="47.85021" lon="6.77974">
        <ele>922.6</ele>
        <time>2022-08-17T07:44:17Z</time>
      </trkpt>
      <trkpt lat="47.85021" lon="6.77973">
        <ele>922.5</ele>
        <time>2022-08-17T07:44:18Z</time>
      </trkpt>
      <trkpt lat="47.8502" lon="6.77972">
        <ele>922.3</ele>
        <time>2022-08-17T07:44:19Z</time>
      </trkpt>
      <trkpt lat="47.8502" lon="6.77971">
        <ele>922.4</ele>
        <time>2022-08-17T07:44:20Z</time>
      </trkpt>
      <trkpt lat="47.8502" lon="6.7797">
        <ele>922.4</ele>
        <time>2022-08-17T07:44:21Z</time>
      </trkpt>
      <trkpt lat="47.8502" lon="6.77968">
        <ele>922.4</ele>
        <time>2022-08-17T07:44:22Z</time>
      </trkpt>
      <trkpt lat="47.8502" lon="6.77966">
        <ele>922.5</ele>
        <time>2022-08-17T07:44:23Z</time>
      </trkpt>
      <trkpt lat="47.8502" lon="6.77965">
        <ele>922.5</ele>
        <time>2022-08-17T07:44:24Z</time>
      </trkpt>
      <trkpt lat="47.8502" lon="6.77963">
        <ele>922.6</ele>
        <time>2022-08-17T07:44:25Z</time>
      </trkpt>
      <trkpt lat="47.85019" lon="6.77961">
        <ele>922.5</ele>
        <time>2022-08-17T07:44:26Z</time>
      </trkpt>
      <trkpt lat="47.85019" lon="6.77959">
        <ele>922.6</ele>
        <time>2022-08-17T07:44:27Z</time>
      </trkpt>
      <trkpt lat="47.85019" lon="6.77957">
        <ele>922.6</ele>
        <time>2022-08-17T07:44:28Z</time>
      </trkpt>
      <trkpt lat="47.85019" lon="6.77956">
        <ele>922.7</ele>
        <time>2022-08-17T07:44:29Z</time>
      </trkpt>
      <trkpt lat="47.85019" lon="6.77954">
        <ele>922.7</ele>
        <time>2022-08-17T07:44:30Z</time>
      </trkpt>
      <trkpt lat="47.85019" lon="6.77952">
        <ele>922.8</ele>
        <time>2022-08-17T07:44:31Z</time>
      </trkpt>
      <trkpt lat="47.8502" lon="6.77951">
        <ele>923</ele>
        <time>2022-08-17T07:44:32Z</time>
      </trkpt>
      <trkpt lat="47.8502" lon="6.7795">
        <ele>923</ele>
        <time>2022-08-17T07:44:33Z</time>
      </trkpt>
      <trkpt lat="47.85021" lon="6.77948">
        <ele>923.2</ele>
        <time>2022-08-17T07:44:34Z</time>
      </trkpt>
      <trkpt lat="47.85021" lon="6.77947">
        <ele>923.2</ele>
        <time>2022-08-17T07:44:35Z</time>
      </trkpt>
      <trkpt lat="47.85022" lon="6.77946">
        <ele>923.3</ele>
        <time>2022-08-17T07:44:36Z</time>
      </trkpt>
      <trkpt lat="47.85022" lon="6.77945">
        <ele>923.4</ele>
        <time>2022-08-17T07:44:37Z</time>
      </trkpt>
      <trkpt lat="47.85022" lon="6.77944">
        <ele>923.4</ele>
        <time>2022-08-17T07:44:38Z</time>
      </trkpt>
      <trkpt lat="47.85022" lon="6.77942">
        <ele>923.6</ele>
        <time>2022-08-17T07:44:39Z</time>
      </trkpt>
      <trkpt lat="47.85022" lon="6.77941">
        <ele>923.7</ele>
        <time>2022-08-17T07:44:40Z</time>
      </trkpt>
      <trkpt lat="47.85022" lon="6.77939">
        <ele>924</ele>
        <time>2022-08-17T07:44:41Z</time>
      </trkpt>
      <trkpt lat="47.85021" lon="6.77938">
        <ele>924</ele>
        <time>2022-08-17T07:44:42Z</time>
      </trkpt>
      <trkpt lat="47.85021" lon="6.77937">
        <ele>924.1</ele>
        <time>2022-08-17T07:44:43Z</time>
      </trkpt>
      <trkpt lat="47.85021" lon="6.77935">
        <ele>924.3</ele>
        <time>2022-08-17T07:44:44Z</time>
      </trkpt>
      <trkpt lat="47.85021" lon="6.77934">
        <ele>924.4</ele>
        <time>2022-08-17T07:44:45Z</time>
      </trkpt>
      <trkpt lat="47.85021" lon="6.77933">
        <ele>924.5</ele>
        <time>2022-08-17T07:44:46Z</time>
      </trkpt>
      <trkpt lat="47.85021" lon="6.77932">
        <ele>924.6</ele>
        <time>2022-08-17T07:44:47Z</time>
      </trkpt>
      <trkpt lat="47.85021" lon="6.77931">
        <ele>924.7</ele>
        <time>2022-08-17T07:44:48Z</time>
      </trkpt>
      <trkpt lat="47.8502" lon="6.7793">
        <ele>924.7</ele>
        <time>2022-08-17T07:44:49Z</time>
      </trkpt>
      <trkpt lat="47.8502" lon="6.77929">
        <ele>924.8</ele>
        <time>2022-08-17T07:44:50Z</time>
      </trkpt>
      <trkpt lat="47.8502" lon="6.77928">
        <ele>924.9</ele>
        <time>2022-08-17T07:44:51Z</time>
      </trkpt>
      <trkpt lat="47.8502" lon="6.77927">
        <ele>925</ele>
        <time>2022-08-17T07:44:52Z</time>
      </trkpt>
      <trkpt lat="47.85019" lon="6.77926">
        <ele>925</ele>
        <time>2022-08-17T07:44:53Z</time>
      </trkpt>
      <trkpt lat="47.85019" lon="6.77925">
        <ele>925.2</ele>
        <time>2022-08-17T07:44:54Z</time>
      </trkpt>
      <trkpt lat="47.85018" lon="6.77924">
        <ele>925.2</ele>
        <time>2022-08-17T07:44:55Z</time>
      </trkpt>
      <trkpt lat="47.85018" lon="6.77923">
        <ele>925.3</ele>
        <time>2022-08-17T07:44:56Z</time>
      </trkpt>
      <trkpt lat="47.85017" lon="6.77922">
        <ele>925.3</ele>
        <time>2022-08-17T07:44:57Z</time>
      </trkpt>
      <trkpt lat="47.85017" lon="6.77921">
        <ele>925.4</ele>
        <time>2022-08-17T07:44:58Z</time>
      </trkpt>
      <trkpt lat="47.85016" lon="6.7792">
        <ele>925.4</ele>
        <time>2022-08-17T07:44:59Z</time>
      </trkpt>
      <trkpt lat="47.85016" lon="6.77919">
        <ele>925.5</ele>
        <time>2022-08-17T07:45:00Z</time>
      </trkpt>
      <trkpt lat="47.85015" lon="6.77918">
        <ele>925.5</ele>
        <time>2022-08-17T07:45:01Z</time>
      </trkpt>
      <trkpt lat="47.85015" lon="6.77917">
        <ele>925.6</ele>
        <time>2022-08-17T07:45:03Z</time>
      </trkpt>
      <trkpt lat="47.85014" lon="6.77916">
        <ele>925.6</ele>
        <time>2022-08-17T07:45:04Z</time>
      </trkpt>
      <trkpt lat="47.85014" lon="6.77915">
        <ele>925.7</ele>
        <time>2022-08-17T07:45:05Z</time>
      </trkpt>
      <trkpt lat="47.85014" lon="6.77914">
        <ele>925.8</ele>
        <time>2022-08-17T07:45:06Z</time>
      </trkpt>
      <trkpt lat="47.85014" lon="6.77913">
        <ele>925.8</ele>
        <time>2022-08-17T07:45:07Z</time>
      </trkpt>
      <trkpt lat="47.85013" lon="6.77912">
        <ele>925.8</ele>
        <time>2022-08-17T07:45:08Z</time>
      </trkpt>
      <trkpt lat="47.85013" lon="6.77911">
        <ele>925.9</ele>
        <time>2022-08-17T07:45:09Z</time>
      </trkpt>
      <trkpt lat="47.85013" lon="6.7791">
        <ele>926</ele>
        <time>2022-08-17T07:45:10Z</time>
      </trkpt>
      <trkpt lat="47.85012" lon="6.77909">
        <ele>926</ele>
        <time>2022-08-17T07:45:11Z</time>
      </trkpt>
      <trkpt lat="47.85012" lon="6.77907">
        <ele>926.1</ele>
        <time>2022-08-17T07:45:12Z</time>
      </trkpt>
      <trkpt lat="47.85012" lon="6.77906">
        <ele>926.2</ele>
        <time>2022-08-17T07:45:13Z</time>
      </trkpt>
      <trkpt lat="47.85012" lon="6.77905">
        <ele>926.3</ele>
        <time>2022-08-17T07:45:14Z</time>
      </trkpt>
      <trkpt lat="47.85012" lon="6.77903">
        <ele>926.5</ele>
        <time>2022-08-17T07:45:15Z</time>
      </trkpt>
      <trkpt lat="47.85012" lon="6.77902">
        <ele>926.6</ele>
        <time>2022-08-17T07:45:16Z</time>
      </trkpt>
      <trkpt lat="47.85011" lon="6.77901">
        <ele>926.5</ele>
        <time>2022-08-17T07:45:17Z</time>
      </trkpt>
      <trkpt lat="47.85011" lon="6.779">
        <ele>926.6</ele>
        <time>2022-08-17T07:45:18Z</time>
      </trkpt>
      <trkpt lat="47.85011" lon="6.77898">
        <ele>926.8</ele>
        <time>2022-08-17T07:45:19Z</time>
      </trkpt>
      <trkpt lat="47.8501" lon="6.77897">
        <ele>926.8</ele>
        <time>2022-08-17T07:45:20Z</time>
      </trkpt>
      <trkpt lat="47.8501" lon="6.77896">
        <ele>926.8</ele>
        <time>2022-08-17T07:45:21Z</time>
      </trkpt>
      <trkpt lat="47.8501" lon="6.77895">
        <ele>926.9</ele>
        <time>2022-08-17T07:45:22Z</time>
      </trkpt>
      <trkpt lat="47.8501" lon="6.77894">
        <ele>927</ele>
        <time>2022-08-17T07:45:23Z</time>
      </trkpt>
      <trkpt lat="47.85009" lon="6.77893">
        <ele>927</ele>
        <time>2022-08-17T07:45:24Z</time>
      </trkpt>
      <trkpt lat="47.85009" lon="6.77892">
        <ele>927</ele>
        <time>2022-08-17T07:45:25Z</time>
      </trkpt>
      <trkpt lat="47.85009" lon="6.77891">
        <ele>927.1</ele>
        <time>2022-08-17T07:45:26Z</time>
      </trkpt>
      <trkpt lat="47.85009" lon="6.7789">
        <ele>927.2</ele>
        <time>2022-08-17T07:45:27Z</time>
      </trkpt>
      <trkpt lat="47.85008" lon="6.77889">
        <ele>927.1</ele>
        <time>2022-08-17T07:45:28Z</time>
      </trkpt>
      <trkpt lat="47.85008" lon="6.77888">
        <ele>927.2</ele>
        <time>2022-08-17T07:45:29Z</time>
      </trkpt>
      <trkpt lat="47.85008" lon="6.77887">
        <ele>927.3</ele>
        <time>2022-08-17T07:45:30Z</time>
      </trkpt>
      <trkpt lat="47.85007" lon="6.77886">
        <ele>927.3</ele>
        <time>2022-08-17T07:45:31Z</time>
      </trkpt>
      <trkpt lat="47.85007" lon="6.77885">
        <ele>927.4</ele>
        <time>2022-08-17T07:45:32Z</time>
      </trkpt>
      <trkpt lat="47.85006" lon="6.77884">
        <ele>927.3</ele>
        <time>2022-08-17T07:45:33Z</time>
      </trkpt>
      <trkpt lat="47.85006" lon="6.77883">
        <ele>927.4</ele>
        <time>2022-08-17T07:45:34Z</time>
      </trkpt>
      <trkpt lat="47.85005" lon="6.77882">
        <ele>927.4</ele>
        <time>2022-08-17T07:45:35Z</time>
      </trkpt>
      <trkpt lat="47.85005" lon="6.7788">
        <ele>927.6</ele>
        <time>2022-08-17T07:45:36Z</time>
      </trkpt>
      <trkpt lat="47.85005" lon="6.77879">
        <ele>927.7</ele>
        <time>2022-08-17T07:45:37Z</time>
      </trkpt>
      <trkpt lat="47.85005" lon="6.77878">
        <ele>927.8</ele>
        <time>2022-08-17T07:45:39Z</time>
      </trkpt>
      <trkpt lat="47.85004" lon="6.77877">
        <ele>927.7</ele>
        <time>2022-08-17T07:45:40Z</time>
      </trkpt>
      <trkpt lat="47.85004" lon="6.77875">
        <ele>927.9</ele>
        <time>2022-08-17T07:45:41Z</time>
      </trkpt>
      <trkpt lat="47.85004" lon="6.77874">
        <ele>928</ele>
        <time>2022-08-17T07:45:42Z</time>
      </trkpt>
      <trkpt lat="47.85004" lon="6.77873">
        <ele>928.1</ele>
        <time>2022-08-17T07:45:43Z</time>
      </trkpt>
      <trkpt lat="47.85004" lon="6.77872">
        <ele>928.2</ele>
        <time>2022-08-17T07:45:44Z</time>
      </trkpt>
      <trkpt lat="47.85004" lon="6.77871">
        <ele>928.3</ele>
        <time>2022-08-17T07:45:45Z</time>
      </trkpt>
      <trkpt lat="47.85004" lon="6.77869">
        <ele>928.5</ele>
        <time>2022-08-17T07:45:46Z</time>
      </trkpt>
      <trkpt lat="47.85004" lon="6.77868">
        <ele>928.6</ele>
        <time>2022-08-17T07:45:47Z</time>
      </trkpt>
      <trkpt lat="47.85004" lon="6.77866">
        <ele>928.8</ele>
        <time>2022-08-17T07:45:48Z</time>
      </trkpt>
      <trkpt lat="47.85003" lon="6.77865">
        <ele>928.8</ele>
        <time>2022-08-17T07:45:49Z</time>
      </trkpt>
      <trkpt lat="47.85003" lon="6.77864">
        <ele>928.9</ele>
        <time>2022-08-17T07:45:50Z</time>
      </trkpt>
      <trkpt lat="47.85003" lon="6.77862">
        <ele>929.1</ele>
        <time>2022-08-17T07:45:51Z</time>
      </trkpt>
      <trkpt lat="47.85003" lon="6.77861">
        <ele>929.2</ele>
        <time>2022-08-17T07:45:52Z</time>
      </trkpt>
      <trkpt lat="47.85003" lon="6.7786">
        <ele>929.3</ele>
        <time>2022-08-17T07:45:53Z</time>
      </trkpt>
      <trkpt lat="47.85003" lon="6.77859">
        <ele>929.4</ele>
        <time>2022-08-17T07:45:54Z</time>
      </trkpt>
      <trkpt lat="47.85003" lon="6.77858">
        <ele>929.4</ele>
        <time>2022-08-17T07:45:55Z</time>
      </trkpt>
      <trkpt lat="47.85003" lon="6.77856">
        <ele>929.6</ele>
        <time>2022-08-17T07:45:57Z</time>
      </trkpt>
      <trkpt lat="47.85003" lon="6.77855">
        <ele>929.6</ele>
        <time>2022-08-17T07:45:58Z</time>
      </trkpt>
      <trkpt lat="47.85002" lon="6.77854">
        <ele>929.6</ele>
        <time>2022-08-17T07:45:59Z</time>
      </trkpt>
      <trkpt lat="47.85002" lon="6.77853">
        <ele>929.7</ele>
        <time>2022-08-17T07:46:00Z</time>
      </trkpt>
      <trkpt lat="47.85001" lon="6.77852">
        <ele>929.7</ele>
        <time>2022-08-17T07:46:01Z</time>
      </trkpt>
      <trkpt lat="47.85" lon="6.77851">
        <ele>929.7</ele>
        <time>2022-08-17T07:46:02Z</time>
      </trkpt>
      <trkpt lat="47.85" lon="6.7785">
        <ele>929.8</ele>
        <time>2022-08-17T07:46:03Z</time>
      </trkpt>
      <trkpt lat="47.84999" lon="6.7785">
        <ele>929.9</ele>
        <time>2022-08-17T07:46:04Z</time>
      </trkpt>
      <trkpt lat="47.84999" lon="6.77849">
        <ele>930</ele>
        <time>2022-08-17T07:46:05Z</time>
      </trkpt>
      <trkpt lat="47.84998" lon="6.77849">
        <ele>930.1</ele>
        <time>2022-08-17T07:46:06Z</time>
      </trkpt>
      <trkpt lat="47.84997" lon="6.77848">
        <ele>930.2</ele>
        <time>2022-08-17T07:46:07Z</time>
      </trkpt>
      <trkpt lat="47.84996" lon="6.77848">
        <ele>930.3</ele>
        <time>2022-08-17T07:46:09Z</time>
      </trkpt>
      <trkpt lat="47.84995" lon="6.77847">
        <ele>930.5</ele>
        <time>2022-08-17T07:46:11Z</time>
      </trkpt>
      <trkpt lat="47.84994" lon="6.77847">
        <ele>930.6</ele>
        <time>2022-08-17T07:46:12Z</time>
      </trkpt>
      <trkpt lat="47.84993" lon="6.77846">
        <ele>930.7</ele>
        <time>2022-08-17T07:46:14Z</time>
      </trkpt>
      <trkpt lat="47.84992" lon="6.77846">
        <ele>930.8</ele>
        <time>2022-08-17T07:46:15Z</time>
      </trkpt>
      <trkpt lat="47.84992" lon="6.77845">
        <ele>930.9</ele>
        <time>2022-08-17T07:46:16Z</time>
      </trkpt>
      <trkpt lat="47.84991" lon="6.77845">
        <ele>930.9</ele>
        <time>2022-08-17T07:46:18Z</time>
      </trkpt>
      <trkpt lat="47.84991" lon="6.77844">
        <ele>931</ele>
        <time>2022-08-17T07:46:20Z</time>
      </trkpt>
      <trkpt lat="47.8499" lon="6.77844">
        <ele>931.1</ele>
        <time>2022-08-17T07:46:21Z</time>
      </trkpt>
      <trkpt lat="47.8499" lon="6.77843">
        <ele>931.1</ele>
        <time>2022-08-17T07:46:22Z</time>
      </trkpt>
      <trkpt lat="47.84989" lon="6.77843">
        <ele>931.2</ele>
        <time>2022-08-17T07:46:23Z</time>
      </trkpt>
      <trkpt lat="47.84988" lon="6.77843">
        <ele>931.3</ele>
        <time>2022-08-17T07:46:24Z</time>
      </trkpt>
      <trkpt lat="47.84988" lon="6.77842">
        <ele>931.4</ele>
        <time>2022-08-17T07:46:25Z</time>
      </trkpt>
      <trkpt lat="47.84987" lon="6.77842">
        <ele>931.5</ele>
        <time>2022-08-17T07:46:26Z</time>
      </trkpt>
      <trkpt lat="47.84987" lon="6.77841">
        <ele>931.5</ele>
        <time>2022-08-17T07:46:27Z</time>
      </trkpt>
      <trkpt lat="47.84986" lon="6.77841">
        <ele>931.6</ele>
        <time>2022-08-17T07:46:28Z</time>
      </trkpt>
      <trkpt lat="47.84985" lon="6.77841">
        <ele>931.7</ele>
        <time>2022-08-17T07:46:29Z</time>
      </trkpt>
      <trkpt lat="47.84985" lon="6.7784">
        <ele>931.7</ele>
        <time>2022-08-17T07:46:30Z</time>
      </trkpt>
      <trkpt lat="47.84984" lon="6.7784">
        <ele>931.8</ele>
        <time>2022-08-17T07:46:31Z</time>
      </trkpt>
      <trkpt lat="47.84983" lon="6.77839">
        <ele>931.9</ele>
        <time>2022-08-17T07:46:33Z</time>
      </trkpt>
      <trkpt lat="47.84982" lon="6.77839">
        <ele>932</ele>
        <time>2022-08-17T07:46:34Z</time>
      </trkpt>
      <trkpt lat="47.84982" lon="6.77838">
        <ele>932.1</ele>
        <time>2022-08-17T07:46:35Z</time>
      </trkpt>
      <trkpt lat="47.84981" lon="6.77838">
        <ele>932.1</ele>
        <time>2022-08-17T07:46:36Z</time>
      </trkpt>
      <trkpt lat="47.84981" lon="6.77837">
        <ele>932.2</ele>
        <time>2022-08-17T07:46:37Z</time>
      </trkpt>
      <trkpt lat="47.8498" lon="6.77837">
        <ele>932.3</ele>
        <time>2022-08-17T07:46:38Z</time>
      </trkpt>
      <trkpt lat="47.84979" lon="6.77836">
        <ele>932.4</ele>
        <time>2022-08-17T07:46:39Z</time>
      </trkpt>
      <trkpt lat="47.84978" lon="6.77835">
        <ele>932.5</ele>
        <time>2022-08-17T07:46:41Z</time>
      </trkpt>
      <trkpt lat="47.84977" lon="6.77834">
        <ele>932.6</ele>
        <time>2022-08-17T07:46:43Z</time>
      </trkpt>
      <trkpt lat="47.84976" lon="6.77833">
        <ele>932.7</ele>
        <time>2022-08-17T07:46:46Z</time>
      </trkpt>
      <trkpt lat="47.84976" lon="6.77832">
        <ele>932.7</ele>
        <time>2022-08-17T07:46:47Z</time>
      </trkpt>
      <trkpt lat="47.84975" lon="6.77831">
        <ele>932.8</ele>
        <time>2022-08-17T07:46:48Z</time>
      </trkpt>
      <trkpt lat="47.84974" lon="6.77831">
        <ele>932.9</ele>
        <time>2022-08-17T07:46:49Z</time>
      </trkpt>
      <trkpt lat="47.84974" lon="6.7783">
        <ele>932.9</ele>
        <time>2022-08-17T07:46:50Z</time>
      </trkpt>
      <trkpt lat="47.84973" lon="6.77829">
        <ele>933</ele>
        <time>2022-08-17T07:46:51Z</time>
      </trkpt>
      <trkpt lat="47.84972" lon="6.77829">
        <ele>933</ele>
        <time>2022-08-17T07:46:52Z</time>
      </trkpt>
      <trkpt lat="47.84972" lon="6.77828">
        <ele>933</ele>
        <time>2022-08-17T07:46:53Z</time>
      </trkpt>
      <trkpt lat="47.84971" lon="6.77827">
        <ele>932.9</ele>
        <time>2022-08-17T07:46:54Z</time>
      </trkpt>
      <trkpt lat="47.84971" lon="6.77826">
        <ele>932.9</ele>
        <time>2022-08-17T07:46:55Z</time>
      </trkpt>
      <trkpt lat="47.8497" lon="6.77825">
        <ele>932.8</ele>
        <time>2022-08-17T07:46:57Z</time>
      </trkpt>
      <trkpt lat="47.8497" lon="6.77824">
        <ele>932.8</ele>
        <time>2022-08-17T07:46:58Z</time>
      </trkpt>
      <trkpt lat="47.8497" lon="6.77822">
        <ele>932.8</ele>
        <time>2022-08-17T07:46:59Z</time>
      </trkpt>
      <trkpt lat="47.84969" lon="6.77821">
        <ele>932.7</ele>
        <time>2022-08-17T07:47:00Z</time>
      </trkpt>
      <trkpt lat="47.84969" lon="6.77819">
        <ele>932.7</ele>
        <time>2022-08-17T07:47:01Z</time>
      </trkpt>
      <trkpt lat="47.84968" lon="6.77818">
        <ele>932.6</ele>
        <time>2022-08-17T07:47:02Z</time>
      </trkpt>
      <trkpt lat="47.84968" lon="6.77816">
        <ele>932.6</ele>
        <time>2022-08-17T07:47:03Z</time>
      </trkpt>
      <trkpt lat="47.84967" lon="6.77815">
        <ele>932.5</ele>
        <time>2022-08-17T07:47:04Z</time>
      </trkpt>
      <trkpt lat="47.84967" lon="6.77814">
        <ele>932.5</ele>
        <time>2022-08-17T07:47:05Z</time>
      </trkpt>
      <trkpt lat="47.84967" lon="6.77813">
        <ele>932.5</ele>
        <time>2022-08-17T07:47:06Z</time>
      </trkpt>
      <trkpt lat="47.84966" lon="6.77813">
        <ele>932.4</ele>
        <time>2022-08-17T07:47:07Z</time>
      </trkpt>
      <trkpt lat="47.84966" lon="6.77812">
        <ele>932.4</ele>
        <time>2022-08-17T07:47:08Z</time>
      </trkpt>
      <trkpt lat="47.84965" lon="6.77811">
        <ele>932.3</ele>
        <time>2022-08-17T07:47:09Z</time>
      </trkpt>
      <trkpt lat="47.84965" lon="6.7781">
        <ele>932.3</ele>
        <time>2022-08-17T07:47:10Z</time>
      </trkpt>
      <trkpt lat="47.84964" lon="6.7781">
        <ele>932.2</ele>
        <time>2022-08-17T07:47:11Z</time>
      </trkpt>
      <trkpt lat="47.84963" lon="6.77809">
        <ele>932</ele>
        <time>2022-08-17T07:47:12Z</time>
      </trkpt>
      <trkpt lat="47.84963" lon="6.77808">
        <ele>932</ele>
        <time>2022-08-17T07:47:13Z</time>
      </trkpt>
      <trkpt lat="47.84962" lon="6.77808">
        <ele>931.9</ele>
        <time>2022-08-17T07:47:14Z</time>
      </trkpt>
      <trkpt lat="47.84962" lon="6.77807">
        <ele>931.9</ele>
        <time>2022-08-17T07:47:15Z</time>
      </trkpt>
      <trkpt lat="47.84961" lon="6.77806">
        <ele>931.8</ele>
        <time>2022-08-17T07:47:16Z</time>
      </trkpt>
      <trkpt lat="47.84961" lon="6.77805">
        <ele>931.8</ele>
        <time>2022-08-17T07:47:17Z</time>
      </trkpt>
      <trkpt lat="47.8496" lon="6.77805">
        <ele>931.7</ele>
        <time>2022-08-17T07:47:18Z</time>
      </trkpt>
      <trkpt lat="47.84959" lon="6.77804">
        <ele>931.7</ele>
        <time>2022-08-17T07:47:19Z</time>
      </trkpt>
      <trkpt lat="47.84959" lon="6.77803">
        <ele>931.8</ele>
        <time>2022-08-17T07:47:20Z</time>
      </trkpt>
      <trkpt lat="47.84958" lon="6.77802">
        <ele>931.8</ele>
        <time>2022-08-17T07:47:21Z</time>
      </trkpt>
      <trkpt lat="47.84957" lon="6.77801">
        <ele>931.8</ele>
        <time>2022-08-17T07:47:22Z</time>
      </trkpt>
      <trkpt lat="47.84956" lon="6.778">
        <ele>931.8</ele>
        <time>2022-08-17T07:47:24Z</time>
      </trkpt>
      <trkpt lat="47.84955" lon="6.77799">
        <ele>931.8</ele>
        <time>2022-08-17T07:47:25Z</time>
      </trkpt>
      <trkpt lat="47.84955" lon="6.77798">
        <ele>932</ele>
        <time>2022-08-17T07:47:26Z</time>
      </trkpt>
      <trkpt lat="47.84954" lon="6.77797">
        <ele>932</ele>
        <time>2022-08-17T07:47:27Z</time>
      </trkpt>
      <trkpt lat="47.84953" lon="6.77796">
        <ele>932</ele>
        <time>2022-08-17T07:47:28Z</time>
      </trkpt>
      <trkpt lat="47.84953" lon="6.77794">
        <ele>932.2</ele>
        <time>2022-08-17T07:47:29Z</time>
      </trkpt>
      <trkpt lat="47.84952" lon="6.77794">
        <ele>932.1</ele>
        <time>2022-08-17T07:47:30Z</time>
      </trkpt>
      <trkpt lat="47.84952" lon="6.77793">
        <ele>932.2</ele>
        <time>2022-08-17T07:47:31Z</time>
      </trkpt>
      <trkpt lat="47.84951" lon="6.77792">
        <ele>932.2</ele>
        <time>2022-08-17T07:47:32Z</time>
      </trkpt>
      <trkpt lat="47.84951" lon="6.77791">
        <ele>932.3</ele>
        <time>2022-08-17T07:47:33Z</time>
      </trkpt>
      <trkpt lat="47.8495" lon="6.7779">
        <ele>932.3</ele>
        <time>2022-08-17T07:47:34Z</time>
      </trkpt>
      <trkpt lat="47.84949" lon="6.77789">
        <ele>932.3</ele>
        <time>2022-08-17T07:47:36Z</time>
      </trkpt>
      <trkpt lat="47.84949" lon="6.77788">
        <ele>932.4</ele>
        <time>2022-08-17T07:47:37Z</time>
      </trkpt>
      <trkpt lat="47.84949" lon="6.77787">
        <ele>932.5</ele>
        <time>2022-08-17T07:47:38Z</time>
      </trkpt>
      <trkpt lat="47.84948" lon="6.77786">
        <ele>932.5</ele>
        <time>2022-08-17T07:47:39Z</time>
      </trkpt>
      <trkpt lat="47.84948" lon="6.77785">
        <ele>932.6</ele>
        <time>2022-08-17T07:47:41Z</time>
      </trkpt>
      <trkpt lat="47.84947" lon="6.77784">
        <ele>932.6</ele>
        <time>2022-08-17T07:47:42Z</time>
      </trkpt>
      <trkpt lat="47.84946" lon="6.77784">
        <ele>932.5</ele>
        <time>2022-08-17T07:47:43Z</time>
      </trkpt>
      <trkpt lat="47.84946" lon="6.77783">
        <ele>932.6</ele>
        <time>2022-08-17T07:47:44Z</time>
      </trkpt>
      <trkpt lat="47.84945" lon="6.77782">
        <ele>932.6</ele>
        <time>2022-08-17T07:47:45Z</time>
      </trkpt>
      <trkpt lat="47.84944" lon="6.77781">
        <ele>932.5</ele>
        <time>2022-08-17T07:47:46Z</time>
      </trkpt>
      <trkpt lat="47.84943" lon="6.7778">
        <ele>932.4</ele>
        <time>2022-08-17T07:47:47Z</time>
      </trkpt>
      <trkpt lat="47.84941" lon="6.77779">
        <ele>931.9</ele>
        <time>2022-08-17T07:47:48Z</time>
      </trkpt>
      <trkpt lat="47.8494" lon="6.77778">
        <ele>931.7</ele>
        <time>2022-08-17T07:47:49Z</time>
      </trkpt>
      <trkpt lat="47.84939" lon="6.77777">
        <ele>931.5</ele>
        <time>2022-08-17T07:47:50Z</time>
      </trkpt>
      <trkpt lat="47.84938" lon="6.77776">
        <ele>931.2</ele>
        <time>2022-08-17T07:47:51Z</time>
      </trkpt>
      <trkpt lat="47.84937" lon="6.77775">
        <ele>931</ele>
        <time>2022-08-17T07:47:52Z</time>
      </trkpt>
      <trkpt lat="47.84936" lon="6.77774">
        <ele>930.7</ele>
        <time>2022-08-17T07:47:53Z</time>
      </trkpt>
      <trkpt lat="47.84935" lon="6.77773">
        <ele>930.5</ele>
        <time>2022-08-17T07:47:55Z</time>
      </trkpt>
      <trkpt lat="47.84934" lon="6.77772">
        <ele>930.3</ele>
        <time>2022-08-17T07:47:56Z</time>
      </trkpt>
      <trkpt lat="47.84934" lon="6.77771">
        <ele>930.3</ele>
        <time>2022-08-17T07:47:57Z</time>
      </trkpt>
      <trkpt lat="47.84934" lon="6.7777">
        <ele>930.4</ele>
        <time>2022-08-17T07:47:58Z</time>
      </trkpt>
      <trkpt lat="47.84933" lon="6.77769">
        <ele>930.2</ele>
        <time>2022-08-17T07:47:59Z</time>
      </trkpt>
      <trkpt lat="47.84932" lon="6.77768">
        <ele>929.9</ele>
        <time>2022-08-17T07:48:01Z</time>
      </trkpt>
      <trkpt lat="47.84932" lon="6.77767">
        <ele>930</ele>
        <time>2022-08-17T07:48:02Z</time>
      </trkpt>
      <trkpt lat="47.84931" lon="6.77766">
        <ele>929.8</ele>
        <time>2022-08-17T07:48:03Z</time>
      </trkpt>
      <trkpt lat="47.84931" lon="6.77765">
        <ele>929.8</ele>
        <time>2022-08-17T07:48:04Z</time>
      </trkpt>
      <trkpt lat="47.84931" lon="6.77764">
        <ele>929.9</ele>
        <time>2022-08-17T07:48:05Z</time>
      </trkpt>
      <trkpt lat="47.8493" lon="6.77763">
        <ele>929.6</ele>
        <time>2022-08-17T07:48:06Z</time>
      </trkpt>
      <trkpt lat="47.8493" lon="6.77762">
        <ele>929.7</ele>
        <time>2022-08-17T07:48:07Z</time>
      </trkpt>
      <trkpt lat="47.84929" lon="6.77762">
        <ele>929.4</ele>
        <time>2022-08-17T07:48:08Z</time>
      </trkpt>
      <trkpt lat="47.84929" lon="6.77761">
        <ele>929.5</ele>
        <time>2022-08-17T07:48:09Z</time>
      </trkpt>
      <trkpt lat="47.84928" lon="6.77761">
        <ele>929.2</ele>
        <time>2022-08-17T07:48:10Z</time>
      </trkpt>
      <trkpt lat="47.84928" lon="6.7776">
        <ele>929.3</ele>
        <time>2022-08-17T07:48:11Z</time>
      </trkpt>
      <trkpt lat="47.84927" lon="6.7776">
        <ele>929</ele>
        <time>2022-08-17T07:48:12Z</time>
      </trkpt>
      <trkpt lat="47.84927" lon="6.77759">
        <ele>929.1</ele>
        <time>2022-08-17T07:48:13Z</time>
      </trkpt>
      <trkpt lat="47.84926" lon="6.77759">
        <ele>928.8</ele>
        <time>2022-08-17T07:48:14Z</time>
      </trkpt>
      <trkpt lat="47.84926" lon="6.77758">
        <ele>928.9</ele>
        <time>2022-08-17T07:48:15Z</time>
      </trkpt>
      <trkpt lat="47.84926" lon="6.77757">
        <ele>928.9</ele>
        <time>2022-08-17T07:48:16Z</time>
      </trkpt>
      <trkpt lat="47.84925" lon="6.77757">
        <ele>928.7</ele>
        <time>2022-08-17T07:48:17Z</time>
      </trkpt>
      <trkpt lat="47.84924" lon="6.77756">
        <ele>928.5</ele>
        <time>2022-08-17T07:48:18Z</time>
      </trkpt>
      <trkpt lat="47.84924" lon="6.77755">
        <ele>928.5</ele>
        <time>2022-08-17T07:48:19Z</time>
      </trkpt>
      <trkpt lat="47.84923" lon="6.77754">
        <ele>928.3</ele>
        <time>2022-08-17T07:48:20Z</time>
      </trkpt>
      <trkpt lat="47.84922" lon="6.77754">
        <ele>928.1</ele>
        <time>2022-08-17T07:48:21Z</time>
      </trkpt>
      <trkpt lat="47.84921" lon="6.77753">
        <ele>927.9</ele>
        <time>2022-08-17T07:48:22Z</time>
      </trkpt>
      <trkpt lat="47.8492" lon="6.77752">
        <ele>927.7</ele>
        <time>2022-08-17T07:48:24Z</time>
      </trkpt>
      <trkpt lat="47.84919" lon="6.77751">
        <ele>927.5</ele>
        <time>2022-08-17T07:48:25Z</time>
      </trkpt>
      <trkpt lat="47.84919" lon="6.7775">
        <ele>927.6</ele>
        <time>2022-08-17T07:48:26Z</time>
      </trkpt>
      <trkpt lat="47.84918" lon="6.77749">
        <ele>927.5</ele>
        <time>2022-08-17T07:48:27Z</time>
      </trkpt>
      <trkpt lat="47.84917" lon="6.77748">
        <ele>927.4</ele>
        <time>2022-08-17T07:48:28Z</time>
      </trkpt>
      <trkpt lat="47.84917" lon="6.77747">
        <ele>927.5</ele>
        <time>2022-08-17T07:48:29Z</time>
      </trkpt>
      <trkpt lat="47.84916" lon="6.77746">
        <ele>927.4</ele>
        <time>2022-08-17T07:48:30Z</time>
      </trkpt>
      <trkpt lat="47.84915" lon="6.77745">
        <ele>927.4</ele>
        <time>2022-08-17T07:48:31Z</time>
      </trkpt>
      <trkpt lat="47.84914" lon="6.77743">
        <ele>927.4</ele>
        <time>2022-08-17T07:48:32Z</time>
      </trkpt>
      <trkpt lat="47.84914" lon="6.77742">
        <ele>927.6</ele>
        <time>2022-08-17T07:48:33Z</time>
      </trkpt>
      <trkpt lat="47.84913" lon="6.77741">
        <ele>927.5</ele>
        <time>2022-08-17T07:48:34Z</time>
      </trkpt>
      <trkpt lat="47.84912" lon="6.7774">
        <ele>927.4</ele>
        <time>2022-08-17T07:48:35Z</time>
      </trkpt>
      <trkpt lat="47.84911" lon="6.77739">
        <ele>927.4</ele>
        <time>2022-08-17T07:48:36Z</time>
      </trkpt>
      <trkpt lat="47.8491" lon="6.77738">
        <ele>927.3</ele>
        <time>2022-08-17T07:48:37Z</time>
      </trkpt>
      <trkpt lat="47.8491" lon="6.77737">
        <ele>927.4</ele>
        <time>2022-08-17T07:48:38Z</time>
      </trkpt>
      <trkpt lat="47.84909" lon="6.77736">
        <ele>927.4</ele>
        <time>2022-08-17T07:48:39Z</time>
      </trkpt>
      <trkpt lat="47.84909" lon="6.77735">
        <ele>927.5</ele>
        <time>2022-08-17T07:48:40Z</time>
      </trkpt>
      <trkpt lat="47.84908" lon="6.77734">
        <ele>927.4</ele>
        <time>2022-08-17T07:48:41Z</time>
      </trkpt>
      <trkpt lat="47.84908" lon="6.77733">
        <ele>927.6</ele>
        <time>2022-08-17T07:48:42Z</time>
      </trkpt>
      <trkpt lat="47.84908" lon="6.77731">
        <ele>927.9</ele>
        <time>2022-08-17T07:48:43Z</time>
      </trkpt>
      <trkpt lat="47.84908" lon="6.7773">
        <ele>928</ele>
        <time>2022-08-17T07:48:44Z</time>
      </trkpt>
      <trkpt lat="47.84907" lon="6.77729">
        <ele>927.9</ele>
        <time>2022-08-17T07:48:45Z</time>
      </trkpt>
      <trkpt lat="47.84907" lon="6.77727">
        <ele>928.2</ele>
        <time>2022-08-17T07:48:46Z</time>
      </trkpt>
      <trkpt lat="47.84907" lon="6.77725">
        <ele>928.5</ele>
        <time>2022-08-17T07:48:47Z</time>
      </trkpt>
      <trkpt lat="47.84908" lon="6.77724">
        <ele>928.9</ele>
        <time>2022-08-17T07:48:48Z</time>
      </trkpt>
      <trkpt lat="47.84908" lon="6.77722">
        <ele>929.1</ele>
        <time>2022-08-17T07:48:49Z</time>
      </trkpt>
      <trkpt lat="47.84908" lon="6.77721">
        <ele>929.2</ele>
        <time>2022-08-17T07:48:50Z</time>
      </trkpt>
      <trkpt lat="47.84908" lon="6.77719">
        <ele>929.3</ele>
        <time>2022-08-17T07:48:51Z</time>
      </trkpt>
      <trkpt lat="47.84908" lon="6.77718">
        <ele>929.3</ele>
        <time>2022-08-17T07:48:52Z</time>
      </trkpt>
      <trkpt lat="47.84908" lon="6.77717">
        <ele>929.3</ele>
        <time>2022-08-17T07:48:53Z</time>
      </trkpt>
      <trkpt lat="47.84908" lon="6.77716">
        <ele>929.4</ele>
        <time>2022-08-17T07:48:54Z</time>
      </trkpt>
      <trkpt lat="47.84908" lon="6.77714">
        <ele>929.4</ele>
        <time>2022-08-17T07:48:55Z</time>
      </trkpt>
      <trkpt lat="47.84908" lon="6.77713">
        <ele>929.5</ele>
        <time>2022-08-17T07:48:56Z</time>
      </trkpt>
      <trkpt lat="47.84908" lon="6.77712">
        <ele>929.5</ele>
        <time>2022-08-17T07:48:57Z</time>
      </trkpt>
      <trkpt lat="47.84908" lon="6.77711">
        <ele>929.6</ele>
        <time>2022-08-17T07:48:58Z</time>
      </trkpt>
      <trkpt lat="47.84908" lon="6.77709">
        <ele>929.6</ele>
        <time>2022-08-17T07:48:59Z</time>
      </trkpt>
      <trkpt lat="47.84908" lon="6.77708">
        <ele>929.7</ele>
        <time>2022-08-17T07:49:00Z</time>
      </trkpt>
      <trkpt lat="47.84908" lon="6.77707">
        <ele>929.7</ele>
        <time>2022-08-17T07:49:01Z</time>
      </trkpt>
      <trkpt lat="47.84908" lon="6.77706">
        <ele>929.7</ele>
        <time>2022-08-17T07:49:02Z</time>
      </trkpt>
      <trkpt lat="47.84908" lon="6.77705">
        <ele>929.8</ele>
        <time>2022-08-17T07:49:03Z</time>
      </trkpt>
      <trkpt lat="47.84908" lon="6.77704">
        <ele>929.8</ele>
        <time>2022-08-17T07:49:04Z</time>
      </trkpt>
      <trkpt lat="47.84908" lon="6.77703">
        <ele>929.9</ele>
        <time>2022-08-17T07:49:05Z</time>
      </trkpt>
      <trkpt lat="47.84908" lon="6.77702">
        <ele>929.9</ele>
        <time>2022-08-17T07:49:06Z</time>
      </trkpt>
      <trkpt lat="47.84908" lon="6.77701">
        <ele>929.9</ele>
        <time>2022-08-17T07:49:07Z</time>
      </trkpt>
      <trkpt lat="47.84908" lon="6.777">
        <ele>930</ele>
        <time>2022-08-17T07:49:08Z</time>
      </trkpt>
      <trkpt lat="47.84908" lon="6.77699">
        <ele>930</ele>
        <time>2022-08-17T07:49:09Z</time>
      </trkpt>
      <trkpt lat="47.84908" lon="6.77697">
        <ele>930.1</ele>
        <time>2022-08-17T07:49:10Z</time>
      </trkpt>
      <trkpt lat="47.84908" lon="6.77696">
        <ele>930.1</ele>
        <time>2022-08-17T07:49:11Z</time>
      </trkpt>
      <trkpt lat="47.84907" lon="6.77695">
        <ele>929.8</ele>
        <time>2022-08-17T07:49:12Z</time>
      </trkpt>
      <trkpt lat="47.84907" lon="6.77694">
        <ele>929.9</ele>
        <time>2022-08-17T07:49:13Z</time>
      </trkpt>
      <trkpt lat="47.84907" lon="6.77692">
        <ele>929.8</ele>
        <time>2022-08-17T07:49:14Z</time>
      </trkpt>
      <trkpt lat="47.84907" lon="6.77691">
        <ele>929.8</ele>
        <time>2022-08-17T07:49:15Z</time>
      </trkpt>
      <trkpt lat="47.84907" lon="6.7769">
        <ele>929.8</ele>
        <time>2022-08-17T07:49:16Z</time>
      </trkpt>
      <trkpt lat="47.84907" lon="6.77689">
        <ele>929.7</ele>
        <time>2022-08-17T07:49:17Z</time>
      </trkpt>
      <trkpt lat="47.84907" lon="6.77688">
        <ele>929.7</ele>
        <time>2022-08-17T07:49:18Z</time>
      </trkpt>
      <trkpt lat="47.84906" lon="6.77687">
        <ele>929.4</ele>
        <time>2022-08-17T07:49:19Z</time>
      </trkpt>
      <trkpt lat="47.84906" lon="6.77685">
        <ele>929.3</ele>
        <time>2022-08-17T07:49:20Z</time>
      </trkpt>
      <trkpt lat="47.84906" lon="6.77684">
        <ele>929.3</ele>
        <time>2022-08-17T07:49:21Z</time>
      </trkpt>
      <trkpt lat="47.84906" lon="6.77682">
        <ele>929.3</ele>
        <time>2022-08-17T07:49:22Z</time>
      </trkpt>
      <trkpt lat="47.84906" lon="6.7768">
        <ele>929.2</ele>
        <time>2022-08-17T07:49:23Z</time>
      </trkpt>
      <trkpt lat="47.84905" lon="6.77678">
        <ele>928.9</ele>
        <time>2022-08-17T07:49:24Z</time>
      </trkpt>
      <trkpt lat="47.84905" lon="6.77676">
        <ele>928.8</ele>
        <time>2022-08-17T07:49:25Z</time>
      </trkpt>
      <trkpt lat="47.84905" lon="6.77675">
        <ele>928.8</ele>
        <time>2022-08-17T07:49:26Z</time>
      </trkpt>
      <trkpt lat="47.84904" lon="6.77673">
        <ele>928.5</ele>
        <time>2022-08-17T07:49:27Z</time>
      </trkpt>
      <trkpt lat="47.84904" lon="6.77671">
        <ele>928.4</ele>
        <time>2022-08-17T07:49:28Z</time>
      </trkpt>
      <trkpt lat="47.84904" lon="6.7767">
        <ele>928.4</ele>
        <time>2022-08-17T07:49:29Z</time>
      </trkpt>
      <trkpt lat="47.84904" lon="6.77669">
        <ele>928.4</ele>
        <time>2022-08-17T07:49:30Z</time>
      </trkpt>
      <trkpt lat="47.84903" lon="6.77668">
        <ele>928.1</ele>
        <time>2022-08-17T07:49:31Z</time>
      </trkpt>
      <trkpt lat="47.84903" lon="6.77667">
        <ele>928.1</ele>
        <time>2022-08-17T07:49:32Z</time>
      </trkpt>
      <trkpt lat="47.84903" lon="6.77666">
        <ele>928</ele>
        <time>2022-08-17T07:49:34Z</time>
      </trkpt>
      <trkpt lat="47.84903" lon="6.77665">
        <ele>928</ele>
        <time>2022-08-17T07:49:35Z</time>
      </trkpt>
      <trkpt lat="47.84903" lon="6.77663">
        <ele>927.9</ele>
        <time>2022-08-17T07:49:36Z</time>
      </trkpt>
      <trkpt lat="47.84903" lon="6.77662">
        <ele>927.9</ele>
        <time>2022-08-17T07:49:37Z</time>
      </trkpt>
      <trkpt lat="47.84903" lon="6.77661">
        <ele>927.9</ele>
        <time>2022-08-17T07:49:38Z</time>
      </trkpt>
      <trkpt lat="47.84903" lon="6.7766">
        <ele>927.8</ele>
        <time>2022-08-17T07:49:39Z</time>
      </trkpt>
      <trkpt lat="47.84903" lon="6.77658">
        <ele>927.7</ele>
        <time>2022-08-17T07:49:40Z</time>
      </trkpt>
      <trkpt lat="47.84903" lon="6.77657">
        <ele>927.7</ele>
        <time>2022-08-17T07:49:41Z</time>
      </trkpt>
      <trkpt lat="47.84903" lon="6.77656">
        <ele>927.7</ele>
        <time>2022-08-17T07:49:42Z</time>
      </trkpt>
      <trkpt lat="47.84904" lon="6.77655">
        <ele>927.8</ele>
        <time>2022-08-17T07:49:43Z</time>
      </trkpt>
      <trkpt lat="47.84904" lon="6.77654">
        <ele>927.8</ele>
        <time>2022-08-17T07:49:44Z</time>
      </trkpt>
      <trkpt lat="47.84905" lon="6.77653">
        <ele>927.9</ele>
        <time>2022-08-17T07:49:45Z</time>
      </trkpt>
      <trkpt lat="47.84905" lon="6.77652">
        <ele>927.9</ele>
        <time>2022-08-17T07:49:46Z</time>
      </trkpt>
      <trkpt lat="47.84906" lon="6.7765">
        <ele>927.9</ele>
        <time>2022-08-17T07:49:47Z</time>
      </trkpt>
      <trkpt lat="47.84906" lon="6.77649">
        <ele>927.8</ele>
        <time>2022-08-17T07:49:48Z</time>
      </trkpt>
      <trkpt lat="47.84906" lon="6.77648">
        <ele>927.8</ele>
        <time>2022-08-17T07:49:49Z</time>
      </trkpt>
      <trkpt lat="47.84907" lon="6.77646">
        <ele>927.8</ele>
        <time>2022-08-17T07:49:50Z</time>
      </trkpt>
      <trkpt lat="47.84907" lon="6.77645">
        <ele>927.7</ele>
        <time>2022-08-17T07:49:51Z</time>
      </trkpt>
      <trkpt lat="47.84907" lon="6.77644">
        <ele>927.7</ele>
        <time>2022-08-17T07:49:52Z</time>
      </trkpt>
      <trkpt lat="47.84907" lon="6.77643">
        <ele>927.6</ele>
        <time>2022-08-17T07:49:53Z</time>
      </trkpt>
      <trkpt lat="47.84907" lon="6.77642">
        <ele>927.5</ele>
        <time>2022-08-17T07:49:54Z</time>
      </trkpt>
      <trkpt lat="47.84907" lon="6.77641">
        <ele>927.4</ele>
        <time>2022-08-17T07:49:55Z</time>
      </trkpt>
      <trkpt lat="47.84907" lon="6.7764">
        <ele>927.4</ele>
        <time>2022-08-17T07:49:56Z</time>
      </trkpt>
      <trkpt lat="47.84908" lon="6.77639">
        <ele>927.4</ele>
        <time>2022-08-17T07:49:57Z</time>
      </trkpt>
      <trkpt lat="47.84908" lon="6.77637">
        <ele>927.6</ele>
        <time>2022-08-17T07:49:58Z</time>
      </trkpt>
      <trkpt lat="47.84908" lon="6.77636">
        <ele>927.6</ele>
        <time>2022-08-17T07:49:59Z</time>
      </trkpt>
      <trkpt lat="47.84908" lon="6.77635">
        <ele>927.7</ele>
        <time>2022-08-17T07:50:00Z</time>
      </trkpt>
      <trkpt lat="47.84909" lon="6.77634">
        <ele>927.9</ele>
        <time>2022-08-17T07:50:01Z</time>
      </trkpt>
      <trkpt lat="47.84909" lon="6.77633">
        <ele>928</ele>
        <time>2022-08-17T07:50:02Z</time>
      </trkpt>
      <trkpt lat="47.84909" lon="6.77632">
        <ele>928.1</ele>
        <time>2022-08-17T07:50:03Z</time>
      </trkpt>
      <trkpt lat="47.8491" lon="6.77631">
        <ele>928.2</ele>
        <time>2022-08-17T07:50:04Z</time>
      </trkpt>
      <trkpt lat="47.8491" lon="6.7763">
        <ele>928.3</ele>
        <time>2022-08-17T07:50:05Z</time>
      </trkpt>
      <trkpt lat="47.8491" lon="6.77629">
        <ele>928.4</ele>
        <time>2022-08-17T07:50:06Z</time>
      </trkpt>
      <trkpt lat="47.8491" lon="6.77628">
        <ele>928.5</ele>
        <time>2022-08-17T07:50:07Z</time>
      </trkpt>
      <trkpt lat="47.8491" lon="6.77627">
        <ele>928.6</ele>
        <time>2022-08-17T07:50:08Z</time>
      </trkpt>
      <trkpt lat="47.84911" lon="6.77625">
        <ele>928.8</ele>
        <time>2022-08-17T07:50:09Z</time>
      </trkpt>
      <trkpt lat="47.84911" lon="6.77624">
        <ele>928.9</ele>
        <time>2022-08-17T07:50:10Z</time>
      </trkpt>
      <trkpt lat="47.84911" lon="6.77623">
        <ele>929</ele>
        <time>2022-08-17T07:50:11Z</time>
      </trkpt>
      <trkpt lat="47.84911" lon="6.77622">
        <ele>929.1</ele>
        <time>2022-08-17T07:50:12Z</time>
      </trkpt>
      <trkpt lat="47.84911" lon="6.77621">
        <ele>929.1</ele>
        <time>2022-08-17T07:50:13Z</time>
      </trkpt>
      <trkpt lat="47.84911" lon="6.7762">
        <ele>929.2</ele>
        <time>2022-08-17T07:50:14Z</time>
      </trkpt>
      <trkpt lat="47.84911" lon="6.77619">
        <ele>929.3</ele>
        <time>2022-08-17T07:50:15Z</time>
      </trkpt>
      <trkpt lat="47.84911" lon="6.77618">
        <ele>929.4</ele>
        <time>2022-08-17T07:50:16Z</time>
      </trkpt>
      <trkpt lat="47.8491" lon="6.77617">
        <ele>929.5</ele>
        <time>2022-08-17T07:50:17Z</time>
      </trkpt>
      <trkpt lat="47.8491" lon="6.77616">
        <ele>929.6</ele>
        <time>2022-08-17T07:50:18Z</time>
      </trkpt>
      <trkpt lat="47.8491" lon="6.77615">
        <ele>929.7</ele>
        <time>2022-08-17T07:50:19Z</time>
      </trkpt>
      <trkpt lat="47.8491" lon="6.77614">
        <ele>929.7</ele>
        <time>2022-08-17T07:50:20Z</time>
      </trkpt>
      <trkpt lat="47.84909" lon="6.77612">
        <ele>929.9</ele>
        <time>2022-08-17T07:50:21Z</time>
      </trkpt>
      <trkpt lat="47.84909" lon="6.77611">
        <ele>930</ele>
        <time>2022-08-17T07:50:22Z</time>
      </trkpt>
      <trkpt lat="47.84908" lon="6.7761">
        <ele>930.1</ele>
        <time>2022-08-17T07:50:23Z</time>
      </trkpt>
      <trkpt lat="47.84908" lon="6.77609">
        <ele>930.1</ele>
        <time>2022-08-17T07:50:24Z</time>
      </trkpt>
      <trkpt lat="47.84908" lon="6.77608">
        <ele>930.1</ele>
        <time>2022-08-17T07:50:25Z</time>
      </trkpt>
      <trkpt lat="47.84907" lon="6.77607">
        <ele>930.2</ele>
        <time>2022-08-17T07:50:26Z</time>
      </trkpt>
      <trkpt lat="47.84907" lon="6.77606">
        <ele>930.2</ele>
        <time>2022-08-17T07:50:27Z</time>
      </trkpt>
      <trkpt lat="47.84907" lon="6.77604">
        <ele>930.3</ele>
        <time>2022-08-17T07:50:28Z</time>
      </trkpt>
      <trkpt lat="47.84907" lon="6.77603">
        <ele>930.4</ele>
        <time>2022-08-17T07:50:29Z</time>
      </trkpt>
      <trkpt lat="47.84907" lon="6.77602">
        <ele>930.4</ele>
        <time>2022-08-17T07:50:30Z</time>
      </trkpt>
      <trkpt lat="47.84907" lon="6.77601">
        <ele>930.5</ele>
        <time>2022-08-17T07:50:31Z</time>
      </trkpt>
      <trkpt lat="47.84907" lon="6.776">
        <ele>930.5</ele>
        <time>2022-08-17T07:50:32Z</time>
      </trkpt>
      <trkpt lat="47.84907" lon="6.77599">
        <ele>930.6</ele>
        <time>2022-08-17T07:50:33Z</time>
      </trkpt>
      <trkpt lat="47.84908" lon="6.77597">
        <ele>930.7</ele>
        <time>2022-08-17T07:50:35Z</time>
      </trkpt>
      <trkpt lat="47.84908" lon="6.77596">
        <ele>930.7</ele>
        <time>2022-08-17T07:50:36Z</time>
      </trkpt>
      <trkpt lat="47.84908" lon="6.77595">
        <ele>930.8</ele>
        <time>2022-08-17T07:50:37Z</time>
      </trkpt>
      <trkpt lat="47.84908" lon="6.77594">
        <ele>930.8</ele>
        <time>2022-08-17T07:50:38Z</time>
      </trkpt>
      <trkpt lat="47.84908" lon="6.77592">
        <ele>930.9</ele>
        <time>2022-08-17T07:50:39Z</time>
      </trkpt>
      <trkpt lat="47.84907" lon="6.77591">
        <ele>931</ele>
        <time>2022-08-17T07:50:40Z</time>
      </trkpt>
      <trkpt lat="47.84907" lon="6.7759">
        <ele>931</ele>
        <time>2022-08-17T07:50:41Z</time>
      </trkpt>
      <trkpt lat="47.84907" lon="6.77589">
        <ele>931.1</ele>
        <time>2022-08-17T07:50:42Z</time>
      </trkpt>
      <trkpt lat="47.84906" lon="6.77589">
        <ele>931.1</ele>
        <time>2022-08-17T07:50:43Z</time>
      </trkpt>
      <trkpt lat="47.84905" lon="6.77588">
        <ele>931.2</ele>
        <time>2022-08-17T07:50:44Z</time>
      </trkpt>
      <trkpt lat="47.84904" lon="6.77588">
        <ele>931.2</ele>
        <time>2022-08-17T07:50:45Z</time>
      </trkpt>
      <trkpt lat="47.84903" lon="6.77588">
        <ele>931.2</ele>
        <time>2022-08-17T07:50:46Z</time>
      </trkpt>
      <trkpt lat="47.84902" lon="6.77587">
        <ele>931.3</ele>
        <time>2022-08-17T07:50:48Z</time>
      </trkpt>
      <trkpt lat="47.84902" lon="6.77586">
        <ele>931.4</ele>
        <time>2022-08-17T07:50:49Z</time>
      </trkpt>
      <trkpt lat="47.84901" lon="6.77586">
        <ele>931.4</ele>
        <time>2022-08-17T07:50:50Z</time>
      </trkpt>
      <trkpt lat="47.84901" lon="6.77584">
        <ele>931.5</ele>
        <time>2022-08-17T07:50:51Z</time>
      </trkpt>
      <trkpt lat="47.84901" lon="6.77583">
        <ele>931.6</ele>
        <time>2022-08-17T07:50:52Z</time>
      </trkpt>
      <trkpt lat="47.84901" lon="6.77582">
        <ele>931.6</ele>
        <time>2022-08-17T07:50:53Z</time>
      </trkpt>
      <trkpt lat="47.849" lon="6.77581">
        <ele>931.6</ele>
        <time>2022-08-17T07:50:54Z</time>
      </trkpt>
      <trkpt lat="47.849" lon="6.7758">
        <ele>931.6</ele>
        <time>2022-08-17T07:50:55Z</time>
      </trkpt>
      <trkpt lat="47.849" lon="6.77579">
        <ele>931.5</ele>
        <time>2022-08-17T07:50:57Z</time>
      </trkpt>
      <trkpt lat="47.849" lon="6.77577">
        <ele>931.5</ele>
        <time>2022-08-17T07:51:00Z</time>
      </trkpt>
      <trkpt lat="47.849" lon="6.77576">
        <ele>931.5</ele>
        <time>2022-08-17T07:51:01Z</time>
      </trkpt>
      <trkpt lat="47.849" lon="6.77575">
        <ele>931.5</ele>
        <time>2022-08-17T07:51:02Z</time>
      </trkpt>
      <trkpt lat="47.84899" lon="6.77574">
        <ele>931.5</ele>
        <time>2022-08-17T07:51:03Z</time>
      </trkpt>
      <trkpt lat="47.84899" lon="6.77573">
        <ele>931.4</ele>
        <time>2022-08-17T07:51:04Z</time>
      </trkpt>
      <trkpt lat="47.84899" lon="6.77572">
        <ele>931.4</ele>
        <time>2022-08-17T07:51:05Z</time>
      </trkpt>
      <trkpt lat="47.84898" lon="6.7757">
        <ele>931.3</ele>
        <time>2022-08-17T07:51:06Z</time>
      </trkpt>
      <trkpt lat="47.84898" lon="6.77569">
        <ele>931.3</ele>
        <time>2022-08-17T07:51:07Z</time>
      </trkpt>
      <trkpt lat="47.84898" lon="6.77568">
        <ele>931.3</ele>
        <time>2022-08-17T07:51:08Z</time>
      </trkpt>
      <trkpt lat="47.84898" lon="6.77567">
        <ele>931.3</ele>
        <time>2022-08-17T07:51:09Z</time>
      </trkpt>
      <trkpt lat="47.84898" lon="6.77565">
        <ele>931.2</ele>
        <time>2022-08-17T07:51:10Z</time>
      </trkpt>
      <trkpt lat="47.84898" lon="6.77564">
        <ele>931.2</ele>
        <time>2022-08-17T07:51:11Z</time>
      </trkpt>
      <trkpt lat="47.84897" lon="6.77563">
        <ele>931.1</ele>
        <time>2022-08-17T07:51:12Z</time>
      </trkpt>
      <trkpt lat="47.84897" lon="6.77561">
        <ele>931</ele>
        <time>2022-08-17T07:51:13Z</time>
      </trkpt>
      <trkpt lat="47.84897" lon="6.77559">
        <ele>931</ele>
        <time>2022-08-17T07:51:14Z</time>
      </trkpt>
      <trkpt lat="47.84897" lon="6.77557">
        <ele>930.9</ele>
        <time>2022-08-17T07:51:15Z</time>
      </trkpt>
      <trkpt lat="47.84897" lon="6.77555">
        <ele>930.9</ele>
        <time>2022-08-17T07:51:16Z</time>
      </trkpt>
      <trkpt lat="47.84897" lon="6.77553">
        <ele>931</ele>
        <time>2022-08-17T07:51:17Z</time>
      </trkpt>
      <trkpt lat="47.84898" lon="6.77552">
        <ele>931.2</ele>
        <time>2022-08-17T07:51:18Z</time>
      </trkpt>
      <trkpt lat="47.84898" lon="6.7755">
        <ele>931.3</ele>
        <time>2022-08-17T07:51:19Z</time>
      </trkpt>
      <trkpt lat="47.84898" lon="6.77548">
        <ele>931.4</ele>
        <time>2022-08-17T07:51:20Z</time>
      </trkpt>
      <trkpt lat="47.84898" lon="6.77547">
        <ele>931.5</ele>
        <time>2022-08-17T07:51:21Z</time>
      </trkpt>
      <trkpt lat="47.84898" lon="6.77545">
        <ele>931.6</ele>
        <time>2022-08-17T07:51:22Z</time>
      </trkpt>
      <trkpt lat="47.84898" lon="6.77543">
        <ele>931.7</ele>
        <time>2022-08-17T07:51:23Z</time>
      </trkpt>
      <trkpt lat="47.84898" lon="6.77542">
        <ele>931.8</ele>
        <time>2022-08-17T07:51:24Z</time>
      </trkpt>
      <trkpt lat="47.84898" lon="6.7754">
        <ele>931.9</ele>
        <time>2022-08-17T07:51:25Z</time>
      </trkpt>
      <trkpt lat="47.84897" lon="6.77539">
        <ele>932</ele>
        <time>2022-08-17T07:51:26Z</time>
      </trkpt>
      <trkpt lat="47.84897" lon="6.77537">
        <ele>932.1</ele>
        <time>2022-08-17T07:51:27Z</time>
      </trkpt>
      <trkpt lat="47.84898" lon="6.77536">
        <ele>932.2</ele>
        <time>2022-08-17T07:51:28Z</time>
      </trkpt>
      <trkpt lat="47.84898" lon="6.77535">
        <ele>932.2</ele>
        <time>2022-08-17T07:51:29Z</time>
      </trkpt>
      <trkpt lat="47.84898" lon="6.77534">
        <ele>932.3</ele>
        <time>2022-08-17T07:51:30Z</time>
      </trkpt>
      <trkpt lat="47.84898" lon="6.77533">
        <ele>932.4</ele>
        <time>2022-08-17T07:51:31Z</time>
      </trkpt>
      <trkpt lat="47.84898" lon="6.77532">
        <ele>932.4</ele>
        <time>2022-08-17T07:51:32Z</time>
      </trkpt>
      <trkpt lat="47.84898" lon="6.77531">
        <ele>932.5</ele>
        <time>2022-08-17T07:51:33Z</time>
      </trkpt>
      <trkpt lat="47.84898" lon="6.77529">
        <ele>932.6</ele>
        <time>2022-08-17T07:51:34Z</time>
      </trkpt>
      <trkpt lat="47.84898" lon="6.77528">
        <ele>932.7</ele>
        <time>2022-08-17T07:51:35Z</time>
      </trkpt>
      <trkpt lat="47.84898" lon="6.77527">
        <ele>932.6</ele>
        <time>2022-08-17T07:51:36Z</time>
      </trkpt>
      <trkpt lat="47.84898" lon="6.77526">
        <ele>932.6</ele>
        <time>2022-08-17T07:51:37Z</time>
      </trkpt>
      <trkpt lat="47.84898" lon="6.77525">
        <ele>932.5</ele>
        <time>2022-08-17T07:51:38Z</time>
      </trkpt>
      <trkpt lat="47.84897" lon="6.77523">
        <ele>932.5</ele>
        <time>2022-08-17T07:51:39Z</time>
      </trkpt>
      <trkpt lat="47.84897" lon="6.77522">
        <ele>932.4</ele>
        <time>2022-08-17T07:51:40Z</time>
      </trkpt>
      <trkpt lat="47.84897" lon="6.77521">
        <ele>932.4</ele>
        <time>2022-08-17T07:51:41Z</time>
      </trkpt>
      <trkpt lat="47.84897" lon="6.7752">
        <ele>932.3</ele>
        <time>2022-08-17T07:51:42Z</time>
      </trkpt>
      <trkpt lat="47.84896" lon="6.77519">
        <ele>932.3</ele>
        <time>2022-08-17T07:51:43Z</time>
      </trkpt>
      <trkpt lat="47.84896" lon="6.77518">
        <ele>932.3</ele>
        <time>2022-08-17T07:51:44Z</time>
      </trkpt>
      <trkpt lat="47.84895" lon="6.77517">
        <ele>932.3</ele>
        <time>2022-08-17T07:51:45Z</time>
      </trkpt>
      <trkpt lat="47.84895" lon="6.77516">
        <ele>932.3</ele>
        <time>2022-08-17T07:51:46Z</time>
      </trkpt>
      <trkpt lat="47.84894" lon="6.77515">
        <ele>932.3</ele>
        <time>2022-08-17T07:51:47Z</time>
      </trkpt>
      <trkpt lat="47.84894" lon="6.77514">
        <ele>932.2</ele>
        <time>2022-08-17T07:51:48Z</time>
      </trkpt>
      <trkpt lat="47.84893" lon="6.77513">
        <ele>932.2</ele>
        <time>2022-08-17T07:51:49Z</time>
      </trkpt>
      <trkpt lat="47.84893" lon="6.77512">
        <ele>932.2</ele>
        <time>2022-08-17T07:51:51Z</time>
      </trkpt>
      <trkpt lat="47.84892" lon="6.77511">
        <ele>932.2</ele>
        <time>2022-08-17T07:51:52Z</time>
      </trkpt>
      <trkpt lat="47.84891" lon="6.7751">
        <ele>932.2</ele>
        <time>2022-08-17T07:51:54Z</time>
      </trkpt>
      <trkpt lat="47.84891" lon="6.77509">
        <ele>932.2</ele>
        <time>2022-08-17T07:51:55Z</time>
      </trkpt>
      <trkpt lat="47.84891" lon="6.77508">
        <ele>932.2</ele>
        <time>2022-08-17T07:51:56Z</time>
      </trkpt>
      <trkpt lat="47.8489" lon="6.77506">
        <ele>932.1</ele>
        <time>2022-08-17T07:51:57Z</time>
      </trkpt>
      <trkpt lat="47.8489" lon="6.77505">
        <ele>932.1</ele>
        <time>2022-08-17T07:51:58Z</time>
      </trkpt>
      <trkpt lat="47.8489" lon="6.77504">
        <ele>932.1</ele>
        <time>2022-08-17T07:51:59Z</time>
      </trkpt>
      <trkpt lat="47.8489" lon="6.77502">
        <ele>932</ele>
        <time>2022-08-17T07:52:00Z</time>
      </trkpt>
      <trkpt lat="47.84889" lon="6.77501">
        <ele>932</ele>
        <time>2022-08-17T07:52:01Z</time>
      </trkpt>
      <trkpt lat="47.84889" lon="6.775">
        <ele>932</ele>
        <time>2022-08-17T07:52:02Z</time>
      </trkpt>
      <trkpt lat="47.84888" lon="6.77498">
        <ele>931.9</ele>
        <time>2022-08-17T07:52:03Z</time>
      </trkpt>
      <trkpt lat="47.84888" lon="6.77497">
        <ele>931.8</ele>
        <time>2022-08-17T07:52:04Z</time>
      </trkpt>
      <trkpt lat="47.84888" lon="6.77496">
        <ele>931.8</ele>
        <time>2022-08-17T07:52:05Z</time>
      </trkpt>
      <trkpt lat="47.84887" lon="6.77495">
        <ele>931.7</ele>
        <time>2022-08-17T07:52:06Z</time>
      </trkpt>
      <trkpt lat="47.84887" lon="6.77494">
        <ele>931.6</ele>
        <time>2022-08-17T07:52:07Z</time>
      </trkpt>
      <trkpt lat="47.84886" lon="6.77493">
        <ele>931.5</ele>
        <time>2022-08-17T07:52:08Z</time>
      </trkpt>
      <trkpt lat="47.84885" lon="6.77492">
        <ele>931.4</ele>
        <time>2022-08-17T07:52:10Z</time>
      </trkpt>
      <trkpt lat="47.84885" lon="6.77491">
        <ele>931.4</ele>
        <time>2022-08-17T07:52:11Z</time>
      </trkpt>
      <trkpt lat="47.84884" lon="6.7749">
        <ele>931.3</ele>
        <time>2022-08-17T07:52:12Z</time>
      </trkpt>
      <trkpt lat="47.84884" lon="6.77489">
        <ele>931.3</ele>
        <time>2022-08-17T07:52:13Z</time>
      </trkpt>
      <trkpt lat="47.84884" lon="6.77488">
        <ele>931.2</ele>
        <time>2022-08-17T07:52:14Z</time>
      </trkpt>
      <trkpt lat="47.84884" lon="6.77487">
        <ele>931.2</ele>
        <time>2022-08-17T07:52:15Z</time>
      </trkpt>
      <trkpt lat="47.84883" lon="6.77487">
        <ele>931.1</ele>
        <time>2022-08-17T07:52:16Z</time>
      </trkpt>
      <trkpt lat="47.84883" lon="6.77486">
        <ele>931.1</ele>
        <time>2022-08-17T07:52:17Z</time>
      </trkpt>
      <trkpt lat="47.84883" lon="6.77485">
        <ele>931</ele>
        <time>2022-08-17T07:52:18Z</time>
      </trkpt>
      <trkpt lat="47.84883" lon="6.77484">
        <ele>931</ele>
        <time>2022-08-17T07:52:19Z</time>
      </trkpt>
      <trkpt lat="47.84883" lon="6.77483">
        <ele>931</ele>
        <time>2022-08-17T07:52:20Z</time>
      </trkpt>
      <trkpt lat="47.84882" lon="6.77482">
        <ele>930.9</ele>
        <time>2022-08-17T07:52:21Z</time>
      </trkpt>
      <trkpt lat="47.84882" lon="6.77481">
        <ele>930.8</ele>
        <time>2022-08-17T07:52:22Z</time>
      </trkpt>
      <trkpt lat="47.84882" lon="6.7748">
        <ele>930.8</ele>
        <time>2022-08-17T07:52:23Z</time>
      </trkpt>
      <trkpt lat="47.84881" lon="6.77479">
        <ele>930.7</ele>
        <time>2022-08-17T07:52:24Z</time>
      </trkpt>
      <trkpt lat="47.84881" lon="6.77478">
        <ele>930.6</ele>
        <time>2022-08-17T07:52:25Z</time>
      </trkpt>
      <trkpt lat="47.8488" lon="6.77477">
        <ele>930.5</ele>
        <time>2022-08-17T07:52:26Z</time>
      </trkpt>
      <trkpt lat="47.84879" lon="6.77476">
        <ele>930.4</ele>
        <time>2022-08-17T07:52:27Z</time>
      </trkpt>
      <trkpt lat="47.84879" lon="6.77475">
        <ele>930.4</ele>
        <time>2022-08-17T07:52:28Z</time>
      </trkpt>
      <trkpt lat="47.84878" lon="6.77474">
        <ele>930.3</ele>
        <time>2022-08-17T07:52:29Z</time>
      </trkpt>
      <trkpt lat="47.84878" lon="6.77473">
        <ele>930.2</ele>
        <time>2022-08-17T07:52:31Z</time>
      </trkpt>
      <trkpt lat="47.84877" lon="6.77472">
        <ele>930.1</ele>
        <time>2022-08-17T07:52:32Z</time>
      </trkpt>
      <trkpt lat="47.84877" lon="6.77471">
        <ele>930.1</ele>
        <time>2022-08-17T07:52:33Z</time>
      </trkpt>
      <trkpt lat="47.84877" lon="6.7747">
        <ele>930.1</ele>
        <time>2022-08-17T07:52:34Z</time>
      </trkpt>
      <trkpt lat="47.84876" lon="6.77469">
        <ele>930.1</ele>
        <time>2022-08-17T07:52:35Z</time>
      </trkpt>
      <trkpt lat="47.84876" lon="6.77468">
        <ele>930.1</ele>
        <time>2022-08-17T07:52:36Z</time>
      </trkpt>
      <trkpt lat="47.84875" lon="6.77467">
        <ele>930</ele>
        <time>2022-08-17T07:52:37Z</time>
      </trkpt>
      <trkpt lat="47.84874" lon="6.77466">
        <ele>929.9</ele>
        <time>2022-08-17T07:52:38Z</time>
      </trkpt>
      <trkpt lat="47.84874" lon="6.77465">
        <ele>929.9</ele>
        <time>2022-08-17T07:52:39Z</time>
      </trkpt>
      <trkpt lat="47.84873" lon="6.77464">
        <ele>929.9</ele>
        <time>2022-08-17T07:52:40Z</time>
      </trkpt>
      <trkpt lat="47.84873" lon="6.77462">
        <ele>929.9</ele>
        <time>2022-08-17T07:52:41Z</time>
      </trkpt>
      <trkpt lat="47.84872" lon="6.77461">
        <ele>929.8</ele>
        <time>2022-08-17T07:52:42Z</time>
      </trkpt>
      <trkpt lat="47.84872" lon="6.7746">
        <ele>929.8</ele>
        <time>2022-08-17T07:52:43Z</time>
      </trkpt>
      <trkpt lat="47.84872" lon="6.77458">
        <ele>929.8</ele>
        <time>2022-08-17T07:52:44Z</time>
      </trkpt>
      <trkpt lat="47.84871" lon="6.77457">
        <ele>929.7</ele>
        <time>2022-08-17T07:52:45Z</time>
      </trkpt>
      <trkpt lat="47.84871" lon="6.77456">
        <ele>929.7</ele>
        <time>2022-08-17T07:52:46Z</time>
      </trkpt>
      <trkpt lat="47.84871" lon="6.77455">
        <ele>929.7</ele>
        <time>2022-08-17T07:52:47Z</time>
      </trkpt>
      <trkpt lat="47.8487" lon="6.77454">
        <ele>929.6</ele>
        <time>2022-08-17T07:52:48Z</time>
      </trkpt>
      <trkpt lat="47.8487" lon="6.77453">
        <ele>929.6</ele>
        <time>2022-08-17T07:52:49Z</time>
      </trkpt>
      <trkpt lat="47.84869" lon="6.77452">
        <ele>929.6</ele>
        <time>2022-08-17T07:52:51Z</time>
      </trkpt>
      <trkpt lat="47.84869" lon="6.77451">
        <ele>929.6</ele>
        <time>2022-08-17T07:52:52Z</time>
      </trkpt>
      <trkpt lat="47.84869" lon="6.7745">
        <ele>929.6</ele>
        <time>2022-08-17T07:52:53Z</time>
      </trkpt>
      <trkpt lat="47.84869" lon="6.77449">
        <ele>929.6</ele>
        <time>2022-08-17T07:52:55Z</time>
      </trkpt>
      <trkpt lat="47.84869" lon="6.77448">
        <ele>929.6</ele>
        <time>2022-08-17T07:52:56Z</time>
      </trkpt>
      <trkpt lat="47.84869" lon="6.77447">
        <ele>929.6</ele>
        <time>2022-08-17T07:52:57Z</time>
      </trkpt>
      <trkpt lat="47.84869" lon="6.77446">
        <ele>929.6</ele>
        <time>2022-08-17T07:52:58Z</time>
      </trkpt>
      <trkpt lat="47.8487" lon="6.77445">
        <ele>929.6</ele>
        <time>2022-08-17T07:52:59Z</time>
      </trkpt>
      <trkpt lat="47.8487" lon="6.77444">
        <ele>929.6</ele>
        <time>2022-08-17T07:53:00Z</time>
      </trkpt>
      <trkpt lat="47.8487" lon="6.77443">
        <ele>929.6</ele>
        <time>2022-08-17T07:53:01Z</time>
      </trkpt>
      <trkpt lat="47.8487" lon="6.77442">
        <ele>929.5</ele>
        <time>2022-08-17T07:53:02Z</time>
      </trkpt>
      <trkpt lat="47.84871" lon="6.7744">
        <ele>929.5</ele>
        <time>2022-08-17T07:53:03Z</time>
      </trkpt>
      <trkpt lat="47.84871" lon="6.77439">
        <ele>929.4</ele>
        <time>2022-08-17T07:53:04Z</time>
      </trkpt>
      <trkpt lat="47.84871" lon="6.77437">
        <ele>929.3</ele>
        <time>2022-08-17T07:53:05Z</time>
      </trkpt>
      <trkpt lat="47.84871" lon="6.77436">
        <ele>929.3</ele>
        <time>2022-08-17T07:53:06Z</time>
      </trkpt>
      <trkpt lat="47.84871" lon="6.77434">
        <ele>929.2</ele>
        <time>2022-08-17T07:53:07Z</time>
      </trkpt>
      <trkpt lat="47.8487" lon="6.77433">
        <ele>929.1</ele>
        <time>2022-08-17T07:53:08Z</time>
      </trkpt>
      <trkpt lat="47.8487" lon="6.77431">
        <ele>929</ele>
        <time>2022-08-17T07:53:09Z</time>
      </trkpt>
      <trkpt lat="47.8487" lon="6.7743">
        <ele>929</ele>
        <time>2022-08-17T07:53:10Z</time>
      </trkpt>
      <trkpt lat="47.8487" lon="6.77428">
        <ele>928.9</ele>
        <time>2022-08-17T07:53:11Z</time>
      </trkpt>
      <trkpt lat="47.8487" lon="6.77427">
        <ele>928.8</ele>
        <time>2022-08-17T07:53:12Z</time>
      </trkpt>
      <trkpt lat="47.8487" lon="6.77426">
        <ele>928.8</ele>
        <time>2022-08-17T07:53:13Z</time>
      </trkpt>
      <trkpt lat="47.8487" lon="6.77424">
        <ele>928.7</ele>
        <time>2022-08-17T07:53:14Z</time>
      </trkpt>
      <trkpt lat="47.8487" lon="6.77423">
        <ele>928.6</ele>
        <time>2022-08-17T07:53:15Z</time>
      </trkpt>
      <trkpt lat="47.8487" lon="6.77422">
        <ele>928.6</ele>
        <time>2022-08-17T07:53:16Z</time>
      </trkpt>
      <trkpt lat="47.8487" lon="6.7742">
        <ele>928.5</ele>
        <time>2022-08-17T07:53:17Z</time>
      </trkpt>
      <trkpt lat="47.84869" lon="6.77419">
        <ele>928.4</ele>
        <time>2022-08-17T07:53:18Z</time>
      </trkpt>
      <trkpt lat="47.84869" lon="6.77417">
        <ele>928.3</ele>
        <time>2022-08-17T07:53:19Z</time>
      </trkpt>
      <trkpt lat="47.84869" lon="6.77416">
        <ele>928.3</ele>
        <time>2022-08-17T07:53:20Z</time>
      </trkpt>
      <trkpt lat="47.84869" lon="6.77414">
        <ele>928.4</ele>
        <time>2022-08-17T07:53:21Z</time>
      </trkpt>
      <trkpt lat="47.84869" lon="6.77413">
        <ele>928.4</ele>
        <time>2022-08-17T07:53:22Z</time>
      </trkpt>
      <trkpt lat="47.84869" lon="6.77412">
        <ele>928.4</ele>
        <time>2022-08-17T07:53:23Z</time>
      </trkpt>
      <trkpt lat="47.8487" lon="6.7741">
        <ele>928.5</ele>
        <time>2022-08-17T07:53:24Z</time>
      </trkpt>
      <trkpt lat="47.8487" lon="6.77409">
        <ele>928.5</ele>
        <time>2022-08-17T07:53:25Z</time>
      </trkpt>
      <trkpt lat="47.8487" lon="6.77408">
        <ele>928.5</ele>
        <time>2022-08-17T07:53:26Z</time>
      </trkpt>
      <trkpt lat="47.8487" lon="6.77407">
        <ele>928.6</ele>
        <time>2022-08-17T07:53:27Z</time>
      </trkpt>
      <trkpt lat="47.8487" lon="6.77406">
        <ele>928.6</ele>
        <time>2022-08-17T07:53:28Z</time>
      </trkpt>
      <trkpt lat="47.84869" lon="6.77404">
        <ele>928.7</ele>
        <time>2022-08-17T07:53:29Z</time>
      </trkpt>
      <trkpt lat="47.84869" lon="6.77403">
        <ele>928.7</ele>
        <time>2022-08-17T07:53:30Z</time>
      </trkpt>
      <trkpt lat="47.84869" lon="6.77402">
        <ele>928.7</ele>
        <time>2022-08-17T07:53:31Z</time>
      </trkpt>
      <trkpt lat="47.84869" lon="6.77401">
        <ele>928.8</ele>
        <time>2022-08-17T07:53:32Z</time>
      </trkpt>
      <trkpt lat="47.84869" lon="6.77399">
        <ele>928.8</ele>
        <time>2022-08-17T07:53:33Z</time>
      </trkpt>
      <trkpt lat="47.84869" lon="6.77398">
        <ele>928.9</ele>
        <time>2022-08-17T07:53:34Z</time>
      </trkpt>
      <trkpt lat="47.84869" lon="6.77397">
        <ele>928.9</ele>
        <time>2022-08-17T07:53:36Z</time>
      </trkpt>
      <trkpt lat="47.84869" lon="6.77396">
        <ele>928.9</ele>
        <time>2022-08-17T07:53:39Z</time>
      </trkpt>
      <trkpt lat="47.84869" lon="6.77395">
        <ele>929</ele>
        <time>2022-08-17T07:53:40Z</time>
      </trkpt>
      <trkpt lat="47.84869" lon="6.77394">
        <ele>929</ele>
        <time>2022-08-17T07:53:41Z</time>
      </trkpt>
      <trkpt lat="47.84869" lon="6.77393">
        <ele>929</ele>
        <time>2022-08-17T07:53:42Z</time>
      </trkpt>
      <trkpt lat="47.84871" lon="6.77393">
        <ele>928.8</ele>
        <time>2022-08-17T07:54:27Z</time>
      </trkpt>
      <trkpt lat="47.84872" lon="6.77393">
        <ele>928.8</ele>
        <time>2022-08-17T07:54:28Z</time>
      </trkpt>
      <trkpt lat="47.84873" lon="6.77393">
        <ele>928.7</ele>
        <time>2022-08-17T07:54:29Z</time>
      </trkpt>
      <trkpt lat="47.84873" lon="6.77394">
        <ele>928.7</ele>
        <time>2022-08-17T07:54:30Z</time>
      </trkpt>
      <trkpt lat="47.84874" lon="6.77395">
        <ele>928.6</ele>
        <time>2022-08-17T07:54:31Z</time>
      </trkpt>
      <trkpt lat="47.84874" lon="6.77396">
        <ele>928.6</ele>
        <time>2022-08-17T07:54:32Z</time>
      </trkpt>
      <trkpt lat="47.84874" lon="6.77397">
        <ele>928.6</ele>
        <time>2022-08-17T07:54:33Z</time>
      </trkpt>
      <trkpt lat="47.84873" lon="6.77398">
        <ele>928.6</ele>
        <time>2022-08-17T07:54:34Z</time>
      </trkpt>
      <trkpt lat="47.84873" lon="6.774">
        <ele>928.6</ele>
        <time>2022-08-17T07:54:35Z</time>
      </trkpt>
      <trkpt lat="47.84873" lon="6.77403">
        <ele>928.6</ele>
        <time>2022-08-17T07:55:00Z</time>
      </trkpt>
      <trkpt lat="47.84873" lon="6.77404">
        <ele>928.6</ele>
        <time>2022-08-17T07:55:02Z</time>
      </trkpt>
      <trkpt lat="47.84872" lon="6.77403">
        <ele>928.6</ele>
        <time>2022-08-17T07:55:05Z</time>
      </trkpt>
      <trkpt lat="47.84872" lon="6.77402">
        <ele>928.6</ele>
        <time>2022-08-17T07:55:06Z</time>
      </trkpt>
      <trkpt lat="47.84872" lon="6.77401">
        <ele>928.6</ele>
        <time>2022-08-17T07:55:07Z</time>
      </trkpt>
      <trkpt lat="47.84872" lon="6.774">
        <ele>928.7</ele>
        <time>2022-08-17T07:55:08Z</time>
      </trkpt>
      <trkpt lat="47.84871" lon="6.77399">
        <ele>928.7</ele>
        <time>2022-08-17T07:55:09Z</time>
      </trkpt>
      <trkpt lat="47.84871" lon="6.77398">
        <ele>928.7</ele>
        <time>2022-08-17T07:55:10Z</time>
      </trkpt>
      <trkpt lat="47.84871" lon="6.77397">
        <ele>928.8</ele>
        <time>2022-08-17T07:55:11Z</time>
      </trkpt>
      <trkpt lat="47.84871" lon="6.77396">
        <ele>928.8</ele>
        <time>2022-08-17T07:55:12Z</time>
      </trkpt>
      <trkpt lat="47.84871" lon="6.77395">
        <ele>928.8</ele>
        <time>2022-08-17T07:55:42Z</time>
      </trkpt>
      <trkpt lat="47.84871" lon="6.77394">
        <ele>928.8</ele>
        <time>2022-08-17T07:55:43Z</time>
      </trkpt>
      <trkpt lat="47.8487" lon="6.77393">
        <ele>928.9</ele>
        <time>2022-08-17T07:55:44Z</time>
      </trkpt>
      <trkpt lat="47.8487" lon="6.77392">
        <ele>929</ele>
        <time>2022-08-17T07:55:45Z</time>
      </trkpt>
      <trkpt lat="47.8487" lon="6.77391">
        <ele>929</ele>
        <time>2022-08-17T07:55:47Z</time>
      </trkpt>
      <trkpt lat="47.8487" lon="6.7739">
        <ele>929</ele>
        <time>2022-08-17T07:55:48Z</time>
      </trkpt>
      <trkpt lat="47.8487" lon="6.77389">
        <ele>929</ele>
        <time>2022-08-17T07:55:49Z</time>
      </trkpt>
      <trkpt lat="47.8487" lon="6.77388">
        <ele>929</ele>
        <time>2022-08-17T07:55:50Z</time>
      </trkpt>
      <trkpt lat="47.8487" lon="6.77386">
        <ele>928.9</ele>
        <time>2022-08-17T07:55:51Z</time>
      </trkpt>
      <trkpt lat="47.84871" lon="6.77385">
        <ele>928.7</ele>
        <time>2022-08-17T07:55:52Z</time>
      </trkpt>
      <trkpt lat="47.84871" lon="6.77384">
        <ele>928.7</ele>
        <time>2022-08-17T07:55:53Z</time>
      </trkpt>
      <trkpt lat="47.84871" lon="6.77383">
        <ele>928.6</ele>
        <time>2022-08-17T07:55:54Z</time>
      </trkpt>
      <trkpt lat="47.84872" lon="6.77382">
        <ele>928.5</ele>
        <time>2022-08-17T07:55:55Z</time>
      </trkpt>
      <trkpt lat="47.84872" lon="6.77381">
        <ele>928.4</ele>
        <time>2022-08-17T07:55:56Z</time>
      </trkpt>
      <trkpt lat="47.84873" lon="6.7738">
        <ele>928.3</ele>
        <time>2022-08-17T07:55:57Z</time>
      </trkpt>
      <trkpt lat="47.84873" lon="6.77378">
        <ele>928.2</ele>
        <time>2022-08-17T07:55:58Z</time>
      </trkpt>
      <trkpt lat="47.84874" lon="6.77377">
        <ele>928</ele>
        <time>2022-08-17T07:56:00Z</time>
      </trkpt>
      <trkpt lat="47.84874" lon="6.77376">
        <ele>927.9</ele>
        <time>2022-08-17T07:56:02Z</time>
      </trkpt>
      <trkpt lat="47.84875" lon="6.77375">
        <ele>927.7</ele>
        <time>2022-08-17T07:56:03Z</time>
      </trkpt>
      <trkpt lat="47.84876" lon="6.77372">
        <ele>927.5</ele>
        <time>2022-08-17T07:56:15Z</time>
      </trkpt>
      <trkpt lat="47.84876" lon="6.77371">
        <ele>927.4</ele>
        <time>2022-08-17T07:56:16Z</time>
      </trkpt>
      <trkpt lat="47.84876" lon="6.7737">
        <ele>927.3</ele>
        <time>2022-08-17T07:56:17Z</time>
      </trkpt>
      <trkpt lat="47.84877" lon="6.77368">
        <ele>927.1</ele>
        <time>2022-08-17T07:56:56Z</time>
      </trkpt>
      <trkpt lat="47.84877" lon="6.77367">
        <ele>927</ele>
        <time>2022-08-17T07:56:58Z</time>
      </trkpt>
      <trkpt lat="47.84878" lon="6.77367">
        <ele>926.9</ele>
        <time>2022-08-17T07:56:59Z</time>
      </trkpt>
      <trkpt lat="47.84878" lon="6.77366">
        <ele>926.9</ele>
        <time>2022-08-17T07:57:00Z</time>
      </trkpt>
      <trkpt lat="47.84878" lon="6.77365">
        <ele>926.8</ele>
        <time>2022-08-17T07:57:01Z</time>
      </trkpt>
      <trkpt lat="47.84878" lon="6.77364">
        <ele>926.7</ele>
        <time>2022-08-17T07:57:02Z</time>
      </trkpt>
      <trkpt lat="47.84878" lon="6.77363">
        <ele>926.7</ele>
        <time>2022-08-17T07:57:03Z</time>
      </trkpt>
      <trkpt lat="47.84878" lon="6.77362">
        <ele>926.6</ele>
        <time>2022-08-17T07:57:04Z</time>
      </trkpt>
      <trkpt lat="47.84878" lon="6.77361">
        <ele>926.6</ele>
        <time>2022-08-17T07:57:05Z</time>
      </trkpt>
      <trkpt lat="47.84878" lon="6.7736">
        <ele>926.5</ele>
        <time>2022-08-17T07:57:06Z</time>
      </trkpt>
      <trkpt lat="47.84878" lon="6.77359">
        <ele>926.5</ele>
        <time>2022-08-17T07:57:07Z</time>
      </trkpt>
      <trkpt lat="47.84878" lon="6.77358">
        <ele>926.5</ele>
        <time>2022-08-17T07:57:08Z</time>
      </trkpt>
      <trkpt lat="47.84878" lon="6.77356">
        <ele>926.4</ele>
        <time>2022-08-17T07:57:09Z</time>
      </trkpt>
      <trkpt lat="47.84878" lon="6.77355">
        <ele>926.4</ele>
        <time>2022-08-17T07:57:10Z</time>
      </trkpt>
      <trkpt lat="47.84877" lon="6.77354">
        <ele>926.4</ele>
        <time>2022-08-17T07:57:11Z</time>
      </trkpt>
      <trkpt lat="47.84877" lon="6.77352">
        <ele>926.3</ele>
        <time>2022-08-17T07:57:12Z</time>
      </trkpt>
      <trkpt lat="47.84877" lon="6.77351">
        <ele>926.3</ele>
        <time>2022-08-17T07:57:13Z</time>
      </trkpt>
      <trkpt lat="47.84877" lon="6.7735">
        <ele>926.3</ele>
        <time>2022-08-17T07:57:14Z</time>
      </trkpt>
      <trkpt lat="47.84876" lon="6.77349">
        <ele>926.3</ele>
        <time>2022-08-17T07:57:15Z</time>
      </trkpt>
      <trkpt lat="47.84876" lon="6.77348">
        <ele>926.2</ele>
        <time>2022-08-17T07:57:16Z</time>
      </trkpt>
      <trkpt lat="47.84875" lon="6.77347">
        <ele>926.2</ele>
        <time>2022-08-17T07:57:17Z</time>
      </trkpt>
      <trkpt lat="47.84875" lon="6.77346">
        <ele>926.2</ele>
        <time>2022-08-17T07:57:18Z</time>
      </trkpt>
      <trkpt lat="47.84875" lon="6.77345">
        <ele>926.1</ele>
        <time>2022-08-17T07:57:19Z</time>
      </trkpt>
      <trkpt lat="47.84874" lon="6.77344">
        <ele>926.1</ele>
        <time>2022-08-17T07:57:20Z</time>
      </trkpt>
      <trkpt lat="47.84874" lon="6.77343">
        <ele>926</ele>
        <time>2022-08-17T07:57:22Z</time>
      </trkpt>
      <trkpt lat="47.84873" lon="6.77342">
        <ele>926</ele>
        <time>2022-08-17T07:57:24Z</time>
      </trkpt>
      <trkpt lat="47.84873" lon="6.77341">
        <ele>925.9</ele>
        <time>2022-08-17T07:57:25Z</time>
      </trkpt>
      <trkpt lat="47.84873" lon="6.7734">
        <ele>925.9</ele>
        <time>2022-08-17T07:57:26Z</time>
      </trkpt>
      <trkpt lat="47.84873" lon="6.77339">
        <ele>925.8</ele>
        <time>2022-08-17T07:57:27Z</time>
      </trkpt>
      <trkpt lat="47.84872" lon="6.77338">
        <ele>925.7</ele>
        <time>2022-08-17T07:57:28Z</time>
      </trkpt>
      <trkpt lat="47.84872" lon="6.77337">
        <ele>925.7</ele>
        <time>2022-08-17T07:57:29Z</time>
      </trkpt>
      <trkpt lat="47.84872" lon="6.77336">
        <ele>925.6</ele>
        <time>2022-08-17T07:57:30Z</time>
      </trkpt>
      <trkpt lat="47.84871" lon="6.77335">
        <ele>925.5</ele>
        <time>2022-08-17T07:57:31Z</time>
      </trkpt>
      <trkpt lat="47.84871" lon="6.77333">
        <ele>925.3</ele>
        <time>2022-08-17T07:57:32Z</time>
      </trkpt>
      <trkpt lat="47.84871" lon="6.77332">
        <ele>925.3</ele>
        <time>2022-08-17T07:57:33Z</time>
      </trkpt>
      <trkpt lat="47.84871" lon="6.7733">
        <ele>925.1</ele>
        <time>2022-08-17T07:57:34Z</time>
      </trkpt>
      <trkpt lat="47.84871" lon="6.77329">
        <ele>925</ele>
        <time>2022-08-17T07:57:35Z</time>
      </trkpt>
      <trkpt lat="47.84871" lon="6.77328">
        <ele>925</ele>
        <time>2022-08-17T07:57:36Z</time>
      </trkpt>
      <trkpt lat="47.84871" lon="6.77326">
        <ele>924.8</ele>
        <time>2022-08-17T07:57:37Z</time>
      </trkpt>
      <trkpt lat="47.8487" lon="6.77325">
        <ele>924.7</ele>
        <time>2022-08-17T07:57:38Z</time>
      </trkpt>
      <trkpt lat="47.8487" lon="6.77324">
        <ele>924.7</ele>
        <time>2022-08-17T07:57:39Z</time>
      </trkpt>
      <trkpt lat="47.84869" lon="6.77322">
        <ele>924.5</ele>
        <time>2022-08-17T07:57:40Z</time>
      </trkpt>
      <trkpt lat="47.84869" lon="6.7732">
        <ele>924.4</ele>
        <time>2022-08-17T07:57:41Z</time>
      </trkpt>
      <trkpt lat="47.84868" lon="6.77318">
        <ele>924.3</ele>
        <time>2022-08-17T07:57:42Z</time>
      </trkpt>
      <trkpt lat="47.84867" lon="6.77315">
        <ele>924.1</ele>
        <time>2022-08-17T07:57:43Z</time>
      </trkpt>
      <trkpt lat="47.84867" lon="6.77314">
        <ele>924.1</ele>
        <time>2022-08-17T07:57:44Z</time>
      </trkpt>
      <trkpt lat="47.84866" lon="6.77312">
        <ele>924</ele>
        <time>2022-08-17T07:57:45Z</time>
      </trkpt>
      <trkpt lat="47.84866" lon="6.7731">
        <ele>923.9</ele>
        <time>2022-08-17T07:57:46Z</time>
      </trkpt>
      <trkpt lat="47.84866" lon="6.77309">
        <ele>923.8</ele>
        <time>2022-08-17T07:57:47Z</time>
      </trkpt>
      <trkpt lat="47.84866" lon="6.77308">
        <ele>923.8</ele>
        <time>2022-08-17T07:57:48Z</time>
      </trkpt>
      <trkpt lat="47.84866" lon="6.77307">
        <ele>923.7</ele>
        <time>2022-08-17T07:57:49Z</time>
      </trkpt>
      <trkpt lat="47.84866" lon="6.77306">
        <ele>923.7</ele>
        <time>2022-08-17T07:57:50Z</time>
      </trkpt>
      <trkpt lat="47.84866" lon="6.77304">
        <ele>923.7</ele>
        <time>2022-08-17T07:57:51Z</time>
      </trkpt>
      <trkpt lat="47.84866" lon="6.77303">
        <ele>923.8</ele>
        <time>2022-08-17T07:57:53Z</time>
      </trkpt>
      <trkpt lat="47.84866" lon="6.77302">
        <ele>923.8</ele>
        <time>2022-08-17T07:57:54Z</time>
      </trkpt>
      <trkpt lat="47.84866" lon="6.773">
        <ele>923.9</ele>
        <time>2022-08-17T07:57:55Z</time>
      </trkpt>
      <trkpt lat="47.84866" lon="6.77299">
        <ele>924</ele>
        <time>2022-08-17T07:57:57Z</time>
      </trkpt>
      <trkpt lat="47.84866" lon="6.77298">
        <ele>924</ele>
        <time>2022-08-17T07:57:58Z</time>
      </trkpt>
      <trkpt lat="47.84866" lon="6.77297">
        <ele>924.1</ele>
        <time>2022-08-17T07:58:00Z</time>
      </trkpt>
      <trkpt lat="47.84866" lon="6.77296">
        <ele>924.2</ele>
        <time>2022-08-17T07:58:01Z</time>
      </trkpt>
      <trkpt lat="47.84866" lon="6.77295">
        <ele>924.2</ele>
        <time>2022-08-17T07:58:02Z</time>
      </trkpt>
      <trkpt lat="47.84866" lon="6.77294">
        <ele>924.3</ele>
        <time>2022-08-17T07:58:03Z</time>
      </trkpt>
      <trkpt lat="47.84866" lon="6.77293">
        <ele>924.3</ele>
        <time>2022-08-17T07:58:04Z</time>
      </trkpt>
      <trkpt lat="47.84866" lon="6.77292">
        <ele>924.4</ele>
        <time>2022-08-17T07:58:05Z</time>
      </trkpt>
      <trkpt lat="47.84866" lon="6.77291">
        <ele>924.4</ele>
        <time>2022-08-17T07:58:06Z</time>
      </trkpt>
      <trkpt lat="47.84866" lon="6.7729">
        <ele>924.5</ele>
        <time>2022-08-17T07:58:07Z</time>
      </trkpt>
      <trkpt lat="47.84866" lon="6.77289">
        <ele>924.5</ele>
        <time>2022-08-17T07:58:08Z</time>
      </trkpt>
      <trkpt lat="47.84866" lon="6.77288">
        <ele>924.6</ele>
        <time>2022-08-17T07:58:09Z</time>
      </trkpt>
      <trkpt lat="47.84866" lon="6.77287">
        <ele>924.6</ele>
        <time>2022-08-17T07:58:10Z</time>
      </trkpt>
      <trkpt lat="47.84866" lon="6.77285">
        <ele>924.7</ele>
        <time>2022-08-17T07:58:11Z</time>
      </trkpt>
      <trkpt lat="47.84866" lon="6.77284">
        <ele>924.8</ele>
        <time>2022-08-17T07:58:12Z</time>
      </trkpt>
      <trkpt lat="47.84866" lon="6.77283">
        <ele>924.8</ele>
        <time>2022-08-17T07:58:13Z</time>
      </trkpt>
      <trkpt lat="47.84866" lon="6.77282">
        <ele>924.9</ele>
        <time>2022-08-17T07:58:14Z</time>
      </trkpt>
      <trkpt lat="47.84865" lon="6.77281">
        <ele>925.1</ele>
        <time>2022-08-17T07:58:15Z</time>
      </trkpt>
      <trkpt lat="47.84865" lon="6.7728">
        <ele>925.2</ele>
        <time>2022-08-17T07:58:16Z</time>
      </trkpt>
      <trkpt lat="47.84865" lon="6.77278">
        <ele>925.3</ele>
        <time>2022-08-17T07:58:17Z</time>
      </trkpt>
      <trkpt lat="47.84864" lon="6.77277">
        <ele>925.5</ele>
        <time>2022-08-17T07:58:18Z</time>
      </trkpt>
      <trkpt lat="47.84864" lon="6.77276">
        <ele>925.5</ele>
        <time>2022-08-17T07:58:19Z</time>
      </trkpt>
      <trkpt lat="47.84864" lon="6.77275">
        <ele>925.5</ele>
        <time>2022-08-17T07:58:20Z</time>
      </trkpt>
      <trkpt lat="47.84864" lon="6.77274">
        <ele>925.5</ele>
        <time>2022-08-17T07:58:21Z</time>
      </trkpt>
      <trkpt lat="47.84863" lon="6.77273">
        <ele>925.6</ele>
        <time>2022-08-17T07:58:22Z</time>
      </trkpt>
      <trkpt lat="47.84863" lon="6.77272">
        <ele>925.6</ele>
        <time>2022-08-17T07:58:23Z</time>
      </trkpt>
      <trkpt lat="47.84862" lon="6.77271">
        <ele>925.8</ele>
        <time>2022-08-17T07:58:24Z</time>
      </trkpt>
      <trkpt lat="47.84862" lon="6.7727">
        <ele>925.8</ele>
        <time>2022-08-17T07:58:25Z</time>
      </trkpt>
      <trkpt lat="47.84861" lon="6.77269">
        <ele>926</ele>
        <time>2022-08-17T07:58:26Z</time>
      </trkpt>
      <trkpt lat="47.84861" lon="6.77268">
        <ele>926</ele>
        <time>2022-08-17T07:58:27Z</time>
      </trkpt>
      <trkpt lat="47.8486" lon="6.77267">
        <ele>926</ele>
        <time>2022-08-17T07:58:28Z</time>
      </trkpt>
      <trkpt lat="47.8486" lon="6.77265">
        <ele>926</ele>
        <time>2022-08-17T07:58:29Z</time>
      </trkpt>
      <trkpt lat="47.84859" lon="6.77264">
        <ele>926.1</ele>
        <time>2022-08-17T07:58:30Z</time>
      </trkpt>
      <trkpt lat="47.84859" lon="6.77263">
        <ele>926.1</ele>
        <time>2022-08-17T07:58:31Z</time>
      </trkpt>
      <trkpt lat="47.84859" lon="6.77261">
        <ele>926.1</ele>
        <time>2022-08-17T07:58:32Z</time>
      </trkpt>
      <trkpt lat="47.84858" lon="6.7726">
        <ele>926.1</ele>
        <time>2022-08-17T07:58:33Z</time>
      </trkpt>
      <trkpt lat="47.84857" lon="6.77259">
        <ele>926.2</ele>
        <time>2022-08-17T07:58:34Z</time>
      </trkpt>
      <trkpt lat="47.84857" lon="6.77257">
        <ele>926.2</ele>
        <time>2022-08-17T07:58:35Z</time>
      </trkpt>
      <trkpt lat="47.84856" lon="6.77256">
        <ele>926.3</ele>
        <time>2022-08-17T07:58:36Z</time>
      </trkpt>
      <trkpt lat="47.84856" lon="6.77255">
        <ele>926.3</ele>
        <time>2022-08-17T07:58:37Z</time>
      </trkpt>
      <trkpt lat="47.84855" lon="6.77254">
        <ele>926.4</ele>
        <time>2022-08-17T07:58:38Z</time>
      </trkpt>
      <trkpt lat="47.84855" lon="6.77253">
        <ele>926.4</ele>
        <time>2022-08-17T07:58:39Z</time>
      </trkpt>
      <trkpt lat="47.84855" lon="6.77251">
        <ele>926.4</ele>
        <time>2022-08-17T07:58:40Z</time>
      </trkpt>
      <trkpt lat="47.84855" lon="6.7725">
        <ele>926.4</ele>
        <time>2022-08-17T07:58:41Z</time>
      </trkpt>
      <trkpt lat="47.84855" lon="6.77248">
        <ele>926.4</ele>
        <time>2022-08-17T07:58:42Z</time>
      </trkpt>
      <trkpt lat="47.84855" lon="6.77247">
        <ele>926.3</ele>
        <time>2022-08-17T07:58:43Z</time>
      </trkpt>
      <trkpt lat="47.84854" lon="6.77245">
        <ele>926.3</ele>
        <time>2022-08-17T07:58:44Z</time>
      </trkpt>
      <trkpt lat="47.84854" lon="6.77244">
        <ele>926.3</ele>
        <time>2022-08-17T07:58:45Z</time>
      </trkpt>
      <trkpt lat="47.84854" lon="6.77243">
        <ele>926.3</ele>
        <time>2022-08-17T07:58:46Z</time>
      </trkpt>
      <trkpt lat="47.84853" lon="6.77242">
        <ele>926.3</ele>
        <time>2022-08-17T07:58:47Z</time>
      </trkpt>
      <trkpt lat="47.84853" lon="6.77241">
        <ele>926.3</ele>
        <time>2022-08-17T07:58:48Z</time>
      </trkpt>
      <trkpt lat="47.84852" lon="6.7724">
        <ele>926.4</ele>
        <time>2022-08-17T07:58:49Z</time>
      </trkpt>
      <trkpt lat="47.84852" lon="6.77239">
        <ele>926.4</ele>
        <time>2022-08-17T07:58:50Z</time>
      </trkpt>
      <trkpt lat="47.84851" lon="6.77238">
        <ele>926.5</ele>
        <time>2022-08-17T07:58:51Z</time>
      </trkpt>
      <trkpt lat="47.84851" lon="6.77237">
        <ele>926.5</ele>
        <time>2022-08-17T07:58:52Z</time>
      </trkpt>
      <trkpt lat="47.84851" lon="6.77236">
        <ele>926.5</ele>
        <time>2022-08-17T07:58:53Z</time>
      </trkpt>
      <trkpt lat="47.8485" lon="6.77234">
        <ele>926.6</ele>
        <time>2022-08-17T07:58:54Z</time>
      </trkpt>
      <trkpt lat="47.8485" lon="6.77233">
        <ele>926.6</ele>
        <time>2022-08-17T07:58:55Z</time>
      </trkpt>
      <trkpt lat="47.8485" lon="6.77232">
        <ele>926.5</ele>
        <time>2022-08-17T07:58:56Z</time>
      </trkpt>
      <trkpt lat="47.8485" lon="6.7723">
        <ele>926.5</ele>
        <time>2022-08-17T07:58:57Z</time>
      </trkpt>
      <trkpt lat="47.8485" lon="6.77229">
        <ele>926.5</ele>
        <time>2022-08-17T07:58:58Z</time>
      </trkpt>
      <trkpt lat="47.8485" lon="6.77228">
        <ele>926.5</ele>
        <time>2022-08-17T07:58:59Z</time>
      </trkpt>
      <trkpt lat="47.8485" lon="6.77227">
        <ele>926.5</ele>
        <time>2022-08-17T07:59:00Z</time>
      </trkpt>
      <trkpt lat="47.8485" lon="6.77225">
        <ele>926.4</ele>
        <time>2022-08-17T07:59:01Z</time>
      </trkpt>
      <trkpt lat="47.8485" lon="6.77223">
        <ele>926.4</ele>
        <time>2022-08-17T07:59:02Z</time>
      </trkpt>
      <trkpt lat="47.84851" lon="6.77222">
        <ele>926.2</ele>
        <time>2022-08-17T07:59:03Z</time>
      </trkpt>
      <trkpt lat="47.84851" lon="6.7722">
        <ele>926</ele>
        <time>2022-08-17T07:59:04Z</time>
      </trkpt>
      <trkpt lat="47.84851" lon="6.77219">
        <ele>925.9</ele>
        <time>2022-08-17T07:59:05Z</time>
      </trkpt>
      <trkpt lat="47.84852" lon="6.77218">
        <ele>925.6</ele>
        <time>2022-08-17T07:59:06Z</time>
      </trkpt>
      <trkpt lat="47.84852" lon="6.77216">
        <ele>925.4</ele>
        <time>2022-08-17T07:59:07Z</time>
      </trkpt>
      <trkpt lat="47.84852" lon="6.77215">
        <ele>925.4</ele>
        <time>2022-08-17T07:59:08Z</time>
      </trkpt>
      <trkpt lat="47.84853" lon="6.77213">
        <ele>924.9</ele>
        <time>2022-08-17T07:59:09Z</time>
      </trkpt>
      <trkpt lat="47.84853" lon="6.77212">
        <ele>924.9</ele>
        <time>2022-08-17T07:59:10Z</time>
      </trkpt>
      <trkpt lat="47.84853" lon="6.77211">
        <ele>924.8</ele>
        <time>2022-08-17T07:59:11Z</time>
      </trkpt>
      <trkpt lat="47.84854" lon="6.7721">
        <ele>924.4</ele>
        <time>2022-08-17T07:59:12Z</time>
      </trkpt>
      <trkpt lat="47.84854" lon="6.77209">
        <ele>924.4</ele>
        <time>2022-08-17T07:59:13Z</time>
      </trkpt>
      <trkpt lat="47.84854" lon="6.77208">
        <ele>924.3</ele>
        <time>2022-08-17T07:59:14Z</time>
      </trkpt>
      <trkpt lat="47.84854" lon="6.77206">
        <ele>924.1</ele>
        <time>2022-08-17T07:59:15Z</time>
      </trkpt>
      <trkpt lat="47.84854" lon="6.77205">
        <ele>924</ele>
        <time>2022-08-17T07:59:16Z</time>
      </trkpt>
      <trkpt lat="47.84854" lon="6.77203">
        <ele>923.8</ele>
        <time>2022-08-17T07:59:17Z</time>
      </trkpt>
      <trkpt lat="47.84854" lon="6.77201">
        <ele>923.6</ele>
        <time>2022-08-17T07:59:18Z</time>
      </trkpt>
      <trkpt lat="47.84855" lon="6.772">
        <ele>923.3</ele>
        <time>2022-08-17T07:59:19Z</time>
      </trkpt>
      <trkpt lat="47.84855" lon="6.77198">
        <ele>923.1</ele>
        <time>2022-08-17T07:59:20Z</time>
      </trkpt>
      <trkpt lat="47.84855" lon="6.77197">
        <ele>923</ele>
        <time>2022-08-17T07:59:21Z</time>
      </trkpt>
      <trkpt lat="47.84855" lon="6.77195">
        <ele>922.8</ele>
        <time>2022-08-17T07:59:22Z</time>
      </trkpt>
      <trkpt lat="47.84855" lon="6.77194">
        <ele>922.8</ele>
        <time>2022-08-17T07:59:23Z</time>
      </trkpt>
      <trkpt lat="47.84855" lon="6.77193">
        <ele>922.8</ele>
        <time>2022-08-17T07:59:24Z</time>
      </trkpt>
      <trkpt lat="47.84855" lon="6.77191">
        <ele>922.8</ele>
        <time>2022-08-17T07:59:25Z</time>
      </trkpt>
      <trkpt lat="47.84855" lon="6.7719">
        <ele>922.8</ele>
        <time>2022-08-17T07:59:26Z</time>
      </trkpt>
      <trkpt lat="47.84855" lon="6.77189">
        <ele>922.8</ele>
        <time>2022-08-17T07:59:27Z</time>
      </trkpt>
      <trkpt lat="47.84855" lon="6.77187">
        <ele>922.8</ele>
        <time>2022-08-17T07:59:28Z</time>
      </trkpt>
      <trkpt lat="47.84855" lon="6.77186">
        <ele>922.8</ele>
        <time>2022-08-17T07:59:29Z</time>
      </trkpt>
      <trkpt lat="47.84856" lon="6.77184">
        <ele>922.5</ele>
        <time>2022-08-17T07:59:30Z</time>
      </trkpt>
      <trkpt lat="47.84856" lon="6.77183">
        <ele>922.5</ele>
        <time>2022-08-17T07:59:31Z</time>
      </trkpt>
      <trkpt lat="47.84857" lon="6.77181">
        <ele>922.3</ele>
        <time>2022-08-17T07:59:32Z</time>
      </trkpt>
      <trkpt lat="47.84857" lon="6.7718">
        <ele>922.3</ele>
        <time>2022-08-17T07:59:33Z</time>
      </trkpt>
      <trkpt lat="47.84858" lon="6.77179">
        <ele>922</ele>
        <time>2022-08-17T07:59:34Z</time>
      </trkpt>
      <trkpt lat="47.84858" lon="6.77177">
        <ele>922</ele>
        <time>2022-08-17T07:59:35Z</time>
      </trkpt>
      <trkpt lat="47.84858" lon="6.77176">
        <ele>922</ele>
        <time>2022-08-17T07:59:36Z</time>
      </trkpt>
      <trkpt lat="47.84858" lon="6.77174">
        <ele>922</ele>
        <time>2022-08-17T07:59:37Z</time>
      </trkpt>
      <trkpt lat="47.84858" lon="6.77173">
        <ele>922</ele>
        <time>2022-08-17T07:59:38Z</time>
      </trkpt>
      <trkpt lat="47.84858" lon="6.77172">
        <ele>922</ele>
        <time>2022-08-17T07:59:39Z</time>
      </trkpt>
      <trkpt lat="47.84858" lon="6.7717">
        <ele>922</ele>
        <time>2022-08-17T07:59:40Z</time>
      </trkpt>
      <trkpt lat="47.84858" lon="6.77169">
        <ele>922</ele>
        <time>2022-08-17T07:59:41Z</time>
      </trkpt>
      <trkpt lat="47.84858" lon="6.77167">
        <ele>922</ele>
        <time>2022-08-17T07:59:42Z</time>
      </trkpt>
      <trkpt lat="47.84859" lon="6.77166">
        <ele>921.7</ele>
        <time>2022-08-17T07:59:43Z</time>
      </trkpt>
      <trkpt lat="47.84859" lon="6.77165">
        <ele>921.6</ele>
        <time>2022-08-17T07:59:44Z</time>
      </trkpt>
      <trkpt lat="47.84859" lon="6.77163">
        <ele>921.5</ele>
        <time>2022-08-17T07:59:45Z</time>
      </trkpt>
      <trkpt lat="47.8486" lon="6.77162">
        <ele>921.2</ele>
        <time>2022-08-17T07:59:46Z</time>
      </trkpt>
      <trkpt lat="47.8486" lon="6.77161">
        <ele>921.1</ele>
        <time>2022-08-17T07:59:47Z</time>
      </trkpt>
      <trkpt lat="47.84861" lon="6.7716">
        <ele>920.8</ele>
        <time>2022-08-17T07:59:48Z</time>
      </trkpt>
      <trkpt lat="47.84861" lon="6.77159">
        <ele>920.8</ele>
        <time>2022-08-17T07:59:49Z</time>
      </trkpt>
      <trkpt lat="47.84861" lon="6.77158">
        <ele>920.7</ele>
        <time>2022-08-17T07:59:50Z</time>
      </trkpt>
      <trkpt lat="47.84862" lon="6.77156">
        <ele>920.6</ele>
        <time>2022-08-17T07:59:51Z</time>
      </trkpt>
      <trkpt lat="47.84862" lon="6.77155">
        <ele>920.5</ele>
        <time>2022-08-17T07:59:52Z</time>
      </trkpt>
      <trkpt lat="47.84862" lon="6.77154">
        <ele>920.5</ele>
        <time>2022-08-17T07:59:53Z</time>
      </trkpt>
      <trkpt lat="47.84863" lon="6.77153">
        <ele>920.4</ele>
        <time>2022-08-17T07:59:54Z</time>
      </trkpt>
      <trkpt lat="47.84863" lon="6.77151">
        <ele>920.4</ele>
        <time>2022-08-17T07:59:55Z</time>
      </trkpt>
      <trkpt lat="47.84864" lon="6.7715">
        <ele>920.3</ele>
        <time>2022-08-17T07:59:56Z</time>
      </trkpt>
      <trkpt lat="47.84864" lon="6.77148">
        <ele>920.3</ele>
        <time>2022-08-17T07:59:57Z</time>
      </trkpt>
      <trkpt lat="47.84865" lon="6.77146">
        <ele>920.3</ele>
        <time>2022-08-17T07:59:58Z</time>
      </trkpt>
      <trkpt lat="47.84865" lon="6.77145">
        <ele>920.2</ele>
        <time>2022-08-17T07:59:59Z</time>
      </trkpt>
      <trkpt lat="47.84865" lon="6.77144">
        <ele>920.2</ele>
        <time>2022-08-17T08:00:00Z</time>
      </trkpt>
      <trkpt lat="47.84866" lon="6.77142">
        <ele>920.2</ele>
        <time>2022-08-17T08:00:01Z</time>
      </trkpt>
      <trkpt lat="47.84866" lon="6.77141">
        <ele>920.2</ele>
        <time>2022-08-17T08:00:02Z</time>
      </trkpt>
      <trkpt lat="47.84867" lon="6.77139">
        <ele>920.2</ele>
        <time>2022-08-17T08:00:03Z</time>
      </trkpt>
      <trkpt lat="47.84867" lon="6.77138">
        <ele>920.2</ele>
        <time>2022-08-17T08:00:04Z</time>
      </trkpt>
      <trkpt lat="47.84868" lon="6.77136">
        <ele>920.3</ele>
        <time>2022-08-17T08:00:05Z</time>
      </trkpt>
      <trkpt lat="47.84868" lon="6.77135">
        <ele>920.3</ele>
        <time>2022-08-17T08:00:06Z</time>
      </trkpt>
      <trkpt lat="47.84869" lon="6.77134">
        <ele>920.3</ele>
        <time>2022-08-17T08:00:07Z</time>
      </trkpt>
      <trkpt lat="47.84869" lon="6.77132">
        <ele>920.4</ele>
        <time>2022-08-17T08:00:08Z</time>
      </trkpt>
      <trkpt lat="47.8487" lon="6.77131">
        <ele>920.4</ele>
        <time>2022-08-17T08:00:09Z</time>
      </trkpt>
      <trkpt lat="47.8487" lon="6.7713">
        <ele>920.4</ele>
        <time>2022-08-17T08:00:10Z</time>
      </trkpt>
      <trkpt lat="47.84871" lon="6.77129">
        <ele>920.5</ele>
        <time>2022-08-17T08:00:11Z</time>
      </trkpt>
      <trkpt lat="47.84871" lon="6.77128">
        <ele>920.5</ele>
        <time>2022-08-17T08:00:12Z</time>
      </trkpt>
      <trkpt lat="47.84872" lon="6.77127">
        <ele>920.6</ele>
        <time>2022-08-17T08:00:13Z</time>
      </trkpt>
      <trkpt lat="47.84872" lon="6.77126">
        <ele>920.6</ele>
        <time>2022-08-17T08:00:14Z</time>
      </trkpt>
      <trkpt lat="47.84873" lon="6.77125">
        <ele>920.6</ele>
        <time>2022-08-17T08:00:15Z</time>
      </trkpt>
      <trkpt lat="47.84874" lon="6.77125">
        <ele>920.7</ele>
        <time>2022-08-17T08:00:16Z</time>
      </trkpt>
      <trkpt lat="47.84874" lon="6.77124">
        <ele>920.7</ele>
        <time>2022-08-17T08:00:17Z</time>
      </trkpt>
      <trkpt lat="47.84875" lon="6.77124">
        <ele>920.8</ele>
        <time>2022-08-17T08:00:20Z</time>
      </trkpt>
      <trkpt lat="47.84875" lon="6.77123">
        <ele>920.8</ele>
        <time>2022-08-17T08:00:21Z</time>
      </trkpt>
      <trkpt lat="47.84876" lon="6.77123">
        <ele>920.8</ele>
        <time>2022-08-17T08:00:22Z</time>
      </trkpt>
      <trkpt lat="47.84877" lon="6.77122">
        <ele>920.9</ele>
        <time>2022-08-17T08:00:23Z</time>
      </trkpt>
      <trkpt lat="47.84878" lon="6.77122">
        <ele>921</ele>
        <time>2022-08-17T08:00:24Z</time>
      </trkpt>
      <trkpt lat="47.84878" lon="6.77121">
        <ele>921</ele>
        <time>2022-08-17T08:00:25Z</time>
      </trkpt>
      <trkpt lat="47.84879" lon="6.77121">
        <ele>921.1</ele>
        <time>2022-08-17T08:00:27Z</time>
      </trkpt>
      <trkpt lat="47.8488" lon="6.7712">
        <ele>921.1</ele>
        <time>2022-08-17T08:00:29Z</time>
      </trkpt>
      <trkpt lat="47.8488" lon="6.77119">
        <ele>921.2</ele>
        <time>2022-08-17T08:00:31Z</time>
      </trkpt>
      <trkpt lat="47.84881" lon="6.77118">
        <ele>921.3</ele>
        <time>2022-08-17T08:00:32Z</time>
      </trkpt>
      <trkpt lat="47.84881" lon="6.77116">
        <ele>921.3</ele>
        <time>2022-08-17T08:00:33Z</time>
      </trkpt>
      <trkpt lat="47.84881" lon="6.77115">
        <ele>921.3</ele>
        <time>2022-08-17T08:00:34Z</time>
      </trkpt>
      <trkpt lat="47.84881" lon="6.77114">
        <ele>921.4</ele>
        <time>2022-08-17T08:00:35Z</time>
      </trkpt>
      <trkpt lat="47.84882" lon="6.77112">
        <ele>921.5</ele>
        <time>2022-08-17T08:00:36Z</time>
      </trkpt>
      <trkpt lat="47.84882" lon="6.77111">
        <ele>921.5</ele>
        <time>2022-08-17T08:00:38Z</time>
      </trkpt>
      <trkpt lat="47.84882" lon="6.7711">
        <ele>921.5</ele>
        <time>2022-08-17T08:00:39Z</time>
      </trkpt>
      <trkpt lat="47.84882" lon="6.77109">
        <ele>921.5</ele>
        <time>2022-08-17T08:00:40Z</time>
      </trkpt>
      <trkpt lat="47.84882" lon="6.77108">
        <ele>921.6</ele>
        <time>2022-08-17T08:00:41Z</time>
      </trkpt>
      <trkpt lat="47.84883" lon="6.77106">
        <ele>921.7</ele>
        <time>2022-08-17T08:00:42Z</time>
      </trkpt>
      <trkpt lat="47.84883" lon="6.77103">
        <ele>921.7</ele>
        <time>2022-08-17T08:00:53Z</time>
      </trkpt>
      <trkpt lat="47.84884" lon="6.77101">
        <ele>921.8</ele>
        <time>2022-08-17T08:00:54Z</time>
      </trkpt>
      <trkpt lat="47.84884" lon="6.771">
        <ele>921.8</ele>
        <time>2022-08-17T08:00:55Z</time>
      </trkpt>
      <trkpt lat="47.84884" lon="6.77098">
        <ele>921.8</ele>
        <time>2022-08-17T08:00:56Z</time>
      </trkpt>
      <trkpt lat="47.84884" lon="6.77097">
        <ele>921.8</ele>
        <time>2022-08-17T08:00:57Z</time>
      </trkpt>
      <trkpt lat="47.84884" lon="6.77096">
        <ele>921.8</ele>
        <time>2022-08-17T08:00:58Z</time>
      </trkpt>
      <trkpt lat="47.84884" lon="6.77095">
        <ele>921.9</ele>
        <time>2022-08-17T08:00:59Z</time>
      </trkpt>
      <trkpt lat="47.84884" lon="6.77094">
        <ele>921.9</ele>
        <time>2022-08-17T08:01:00Z</time>
      </trkpt>
      <trkpt lat="47.84884" lon="6.77093">
        <ele>921.9</ele>
        <time>2022-08-17T08:01:01Z</time>
      </trkpt>
      <trkpt lat="47.84884" lon="6.77091">
        <ele>921.9</ele>
        <time>2022-08-17T08:01:02Z</time>
      </trkpt>
      <trkpt lat="47.84884" lon="6.7709">
        <ele>921.9</ele>
        <time>2022-08-17T08:01:03Z</time>
      </trkpt>
      <trkpt lat="47.84885" lon="6.77089">
        <ele>921.9</ele>
        <time>2022-08-17T08:01:04Z</time>
      </trkpt>
      <trkpt lat="47.84885" lon="6.77088">
        <ele>922</ele>
        <time>2022-08-17T08:01:05Z</time>
      </trkpt>
      <trkpt lat="47.84885" lon="6.77087">
        <ele>922</ele>
        <time>2022-08-17T08:01:06Z</time>
      </trkpt>
      <trkpt lat="47.84885" lon="6.77085">
        <ele>922</ele>
        <time>2022-08-17T08:01:07Z</time>
      </trkpt>
      <trkpt lat="47.84885" lon="6.77084">
        <ele>922</ele>
        <time>2022-08-17T08:01:08Z</time>
      </trkpt>
      <trkpt lat="47.84886" lon="6.77083">
        <ele>922</ele>
        <time>2022-08-17T08:01:09Z</time>
      </trkpt>
      <trkpt lat="47.84886" lon="6.77081">
        <ele>921.9</ele>
        <time>2022-08-17T08:01:10Z</time>
      </trkpt>
      <trkpt lat="47.84886" lon="6.7708">
        <ele>921.9</ele>
        <time>2022-08-17T08:01:11Z</time>
      </trkpt>
      <trkpt lat="47.84887" lon="6.77078">
        <ele>921.8</ele>
        <time>2022-08-17T08:01:12Z</time>
      </trkpt>
      <trkpt lat="47.84887" lon="6.77077">
        <ele>921.8</ele>
        <time>2022-08-17T08:01:13Z</time>
      </trkpt>
      <trkpt lat="47.84888" lon="6.77076">
        <ele>921.7</ele>
        <time>2022-08-17T08:01:14Z</time>
      </trkpt>
      <trkpt lat="47.84888" lon="6.77075">
        <ele>921.7</ele>
        <time>2022-08-17T08:01:15Z</time>
      </trkpt>
      <trkpt lat="47.84888" lon="6.77073">
        <ele>921.6</ele>
        <time>2022-08-17T08:01:16Z</time>
      </trkpt>
      <trkpt lat="47.84889" lon="6.77072">
        <ele>921.6</ele>
        <time>2022-08-17T08:01:17Z</time>
      </trkpt>
      <trkpt lat="47.84889" lon="6.7707">
        <ele>921.5</ele>
        <time>2022-08-17T08:01:18Z</time>
      </trkpt>
      <trkpt lat="47.84889" lon="6.77068">
        <ele>921.4</ele>
        <time>2022-08-17T08:01:19Z</time>
      </trkpt>
      <trkpt lat="47.8489" lon="6.77067">
        <ele>921.3</ele>
        <time>2022-08-17T08:01:20Z</time>
      </trkpt>
      <trkpt lat="47.8489" lon="6.77065">
        <ele>921.2</ele>
        <time>2022-08-17T08:01:21Z</time>
      </trkpt>
      <trkpt lat="47.8489" lon="6.77064">
        <ele>921.2</ele>
        <time>2022-08-17T08:01:22Z</time>
      </trkpt>
      <trkpt lat="47.8489" lon="6.77062">
        <ele>921.1</ele>
        <time>2022-08-17T08:01:23Z</time>
      </trkpt>
      <trkpt lat="47.84891" lon="6.77061">
        <ele>921</ele>
        <time>2022-08-17T08:01:24Z</time>
      </trkpt>
      <trkpt lat="47.84891" lon="6.77059">
        <ele>920.9</ele>
        <time>2022-08-17T08:01:25Z</time>
      </trkpt>
      <trkpt lat="47.84892" lon="6.77058">
        <ele>920.8</ele>
        <time>2022-08-17T08:01:26Z</time>
      </trkpt>
      <trkpt lat="47.84892" lon="6.77056">
        <ele>920.7</ele>
        <time>2022-08-17T08:01:27Z</time>
      </trkpt>
      <trkpt lat="47.84893" lon="6.77055">
        <ele>920.5</ele>
        <time>2022-08-17T08:01:28Z</time>
      </trkpt>
      <trkpt lat="47.84893" lon="6.77054">
        <ele>920.5</ele>
        <time>2022-08-17T08:01:29Z</time>
      </trkpt>
      <trkpt lat="47.84893" lon="6.77053">
        <ele>920.5</ele>
        <time>2022-08-17T08:01:30Z</time>
      </trkpt>
      <trkpt lat="47.84894" lon="6.77052">
        <ele>920.3</ele>
        <time>2022-08-17T08:01:31Z</time>
      </trkpt>
      <trkpt lat="47.84894" lon="6.7705">
        <ele>920.2</ele>
        <time>2022-08-17T08:01:32Z</time>
      </trkpt>
      <trkpt lat="47.84894" lon="6.77049">
        <ele>920.2</ele>
        <time>2022-08-17T08:01:33Z</time>
      </trkpt>
      <trkpt lat="47.84895" lon="6.77048">
        <ele>920.1</ele>
        <time>2022-08-17T08:01:34Z</time>
      </trkpt>
      <trkpt lat="47.84895" lon="6.77047">
        <ele>920</ele>
        <time>2022-08-17T08:01:35Z</time>
      </trkpt>
      <trkpt lat="47.84895" lon="6.77046">
        <ele>920</ele>
        <time>2022-08-17T08:01:36Z</time>
      </trkpt>
      <trkpt lat="47.84895" lon="6.77045">
        <ele>920</ele>
        <time>2022-08-17T08:01:37Z</time>
      </trkpt>
      <trkpt lat="47.84896" lon="6.77044">
        <ele>919.8</ele>
        <time>2022-08-17T08:01:38Z</time>
      </trkpt>
      <trkpt lat="47.84896" lon="6.77043">
        <ele>919.8</ele>
        <time>2022-08-17T08:01:39Z</time>
      </trkpt>
      <trkpt lat="47.84896" lon="6.77042">
        <ele>919.7</ele>
        <time>2022-08-17T08:01:40Z</time>
      </trkpt>
      <trkpt lat="47.84896" lon="6.77041">
        <ele>919.7</ele>
        <time>2022-08-17T08:01:41Z</time>
      </trkpt>
      <trkpt lat="47.84896" lon="6.7704">
        <ele>919.7</ele>
        <time>2022-08-17T08:01:42Z</time>
      </trkpt>
      <trkpt lat="47.84897" lon="6.77038">
        <ele>919.5</ele>
        <time>2022-08-17T08:01:43Z</time>
      </trkpt>
      <trkpt lat="47.84897" lon="6.77037">
        <ele>919.5</ele>
        <time>2022-08-17T08:01:44Z</time>
      </trkpt>
      <trkpt lat="47.84897" lon="6.77036">
        <ele>919.4</ele>
        <time>2022-08-17T08:01:45Z</time>
      </trkpt>
      <trkpt lat="47.84897" lon="6.77035">
        <ele>919.4</ele>
        <time>2022-08-17T08:01:46Z</time>
      </trkpt>
      <trkpt lat="47.84897" lon="6.77034">
        <ele>919.3</ele>
        <time>2022-08-17T08:01:47Z</time>
      </trkpt>
      <trkpt lat="47.84897" lon="6.77033">
        <ele>919.3</ele>
        <time>2022-08-17T08:01:48Z</time>
      </trkpt>
      <trkpt lat="47.84897" lon="6.77032">
        <ele>919.3</ele>
        <time>2022-08-17T08:01:49Z</time>
      </trkpt>
      <trkpt lat="47.84898" lon="6.77031">
        <ele>919.1</ele>
        <time>2022-08-17T08:01:50Z</time>
      </trkpt>
      <trkpt lat="47.84898" lon="6.77029">
        <ele>919.1</ele>
        <time>2022-08-17T08:01:51Z</time>
      </trkpt>
      <trkpt lat="47.84898" lon="6.77028">
        <ele>919</ele>
        <time>2022-08-17T08:01:52Z</time>
      </trkpt>
      <trkpt lat="47.84898" lon="6.77027">
        <ele>919</ele>
        <time>2022-08-17T08:01:53Z</time>
      </trkpt>
      <trkpt lat="47.84899" lon="6.77024">
        <ele>918.8</ele>
        <time>2022-08-17T08:01:59Z</time>
      </trkpt>
      <trkpt lat="47.84899" lon="6.77023">
        <ele>918.7</ele>
        <time>2022-08-17T08:02:00Z</time>
      </trkpt>
      <trkpt lat="47.84899" lon="6.77022">
        <ele>918.7</ele>
        <time>2022-08-17T08:02:01Z</time>
      </trkpt>
      <trkpt lat="47.84899" lon="6.77021">
        <ele>918.7</ele>
        <time>2022-08-17T08:02:02Z</time>
      </trkpt>
      <trkpt lat="47.84899" lon="6.7702">
        <ele>918.6</ele>
        <time>2022-08-17T08:02:03Z</time>
      </trkpt>
      <trkpt lat="47.849" lon="6.77019">
        <ele>918.5</ele>
        <time>2022-08-17T08:02:04Z</time>
      </trkpt>
      <trkpt lat="47.849" lon="6.77018">
        <ele>918.4</ele>
        <time>2022-08-17T08:02:05Z</time>
      </trkpt>
      <trkpt lat="47.849" lon="6.77016">
        <ele>918.4</ele>
        <time>2022-08-17T08:02:19Z</time>
      </trkpt>
      <trkpt lat="47.849" lon="6.77014">
        <ele>918.3</ele>
        <time>2022-08-17T08:02:20Z</time>
      </trkpt>
      <trkpt lat="47.849" lon="6.77013">
        <ele>918.3</ele>
        <time>2022-08-17T08:02:21Z</time>
      </trkpt>
      <trkpt lat="47.849" lon="6.77012">
        <ele>918.2</ele>
        <time>2022-08-17T08:02:22Z</time>
      </trkpt>
      <trkpt lat="47.849" lon="6.77011">
        <ele>918.2</ele>
        <time>2022-08-17T08:02:23Z</time>
      </trkpt>
      <trkpt lat="47.849" lon="6.77009">
        <ele>918.1</ele>
        <time>2022-08-17T08:02:24Z</time>
      </trkpt>
      <trkpt lat="47.849" lon="6.77008">
        <ele>918.1</ele>
        <time>2022-08-17T08:02:25Z</time>
      </trkpt>
      <trkpt lat="47.849" lon="6.77007">
        <ele>918.1</ele>
        <time>2022-08-17T08:02:26Z</time>
      </trkpt>
      <trkpt lat="47.849" lon="6.77006">
        <ele>918</ele>
        <time>2022-08-17T08:02:27Z</time>
      </trkpt>
      <trkpt lat="47.84901" lon="6.77004">
        <ele>917.8</ele>
        <time>2022-08-17T08:02:28Z</time>
      </trkpt>
      <trkpt lat="47.84901" lon="6.77003">
        <ele>917.8</ele>
        <time>2022-08-17T08:02:29Z</time>
      </trkpt>
      <trkpt lat="47.84901" lon="6.77002">
        <ele>917.8</ele>
        <time>2022-08-17T08:02:30Z</time>
      </trkpt>
      <trkpt lat="47.84901" lon="6.77">
        <ele>917.7</ele>
        <time>2022-08-17T08:02:31Z</time>
      </trkpt>
      <trkpt lat="47.84902" lon="6.76999">
        <ele>917.5</ele>
        <time>2022-08-17T08:02:32Z</time>
      </trkpt>
      <trkpt lat="47.84902" lon="6.76997">
        <ele>917.4</ele>
        <time>2022-08-17T08:02:33Z</time>
      </trkpt>
      <trkpt lat="47.84902" lon="6.76996">
        <ele>917.4</ele>
        <time>2022-08-17T08:02:34Z</time>
      </trkpt>
      <trkpt lat="47.84902" lon="6.76994">
        <ele>917.3</ele>
        <time>2022-08-17T08:02:35Z</time>
      </trkpt>
      <trkpt lat="47.84902" lon="6.76993">
        <ele>917.2</ele>
        <time>2022-08-17T08:02:36Z</time>
      </trkpt>
      <trkpt lat="47.84902" lon="6.76992">
        <ele>917.2</ele>
        <time>2022-08-17T08:02:37Z</time>
      </trkpt>
      <trkpt lat="47.84903" lon="6.76991">
        <ele>917</ele>
        <time>2022-08-17T08:02:38Z</time>
      </trkpt>
      <trkpt lat="47.84903" lon="6.76989">
        <ele>916.9</ele>
        <time>2022-08-17T08:02:39Z</time>
      </trkpt>
      <trkpt lat="47.84903" lon="6.76988">
        <ele>916.8</ele>
        <time>2022-08-17T08:02:40Z</time>
      </trkpt>
      <trkpt lat="47.84903" lon="6.76987">
        <ele>916.8</ele>
        <time>2022-08-17T08:02:41Z</time>
      </trkpt>
      <trkpt lat="47.84904" lon="6.76986">
        <ele>916.6</ele>
        <time>2022-08-17T08:02:42Z</time>
      </trkpt>
      <trkpt lat="47.84904" lon="6.76985">
        <ele>916.5</ele>
        <time>2022-08-17T08:02:43Z</time>
      </trkpt>
      <trkpt lat="47.84904" lon="6.76983">
        <ele>916.4</ele>
        <time>2022-08-17T08:02:44Z</time>
      </trkpt>
      <trkpt lat="47.84905" lon="6.76982">
        <ele>916.2</ele>
        <time>2022-08-17T08:02:45Z</time>
      </trkpt>
      <trkpt lat="47.84905" lon="6.76981">
        <ele>916.2</ele>
        <time>2022-08-17T08:02:46Z</time>
      </trkpt>
      <trkpt lat="47.84906" lon="6.76979">
        <ele>915.9</ele>
        <time>2022-08-17T08:02:47Z</time>
      </trkpt>
      <trkpt lat="47.84906" lon="6.76978">
        <ele>915.9</ele>
        <time>2022-08-17T08:02:48Z</time>
      </trkpt>
      <trkpt lat="47.84906" lon="6.76977">
        <ele>915.8</ele>
        <time>2022-08-17T08:02:49Z</time>
      </trkpt>
      <trkpt lat="47.84907" lon="6.76976">
        <ele>915.6</ele>
        <time>2022-08-17T08:02:50Z</time>
      </trkpt>
      <trkpt lat="47.84907" lon="6.76975">
        <ele>915.6</ele>
        <time>2022-08-17T08:02:51Z</time>
      </trkpt>
      <trkpt lat="47.84907" lon="6.76974">
        <ele>915.5</ele>
        <time>2022-08-17T08:02:52Z</time>
      </trkpt>
      <trkpt lat="47.84908" lon="6.76973">
        <ele>915.3</ele>
        <time>2022-08-17T08:02:53Z</time>
      </trkpt>
      <trkpt lat="47.84908" lon="6.76972">
        <ele>915.2</ele>
        <time>2022-08-17T08:02:54Z</time>
      </trkpt>
      <trkpt lat="47.84908" lon="6.76971">
        <ele>915.2</ele>
        <time>2022-08-17T08:02:55Z</time>
      </trkpt>
      <trkpt lat="47.84909" lon="6.7697">
        <ele>915</ele>
        <time>2022-08-17T08:02:56Z</time>
      </trkpt>
      <trkpt lat="47.84909" lon="6.76969">
        <ele>915</ele>
        <time>2022-08-17T08:02:57Z</time>
      </trkpt>
      <trkpt lat="47.84909" lon="6.76968">
        <ele>915</ele>
        <time>2022-08-17T08:02:58Z</time>
      </trkpt>
      <trkpt lat="47.84909" lon="6.76967">
        <ele>914.9</ele>
        <time>2022-08-17T08:02:59Z</time>
      </trkpt>
      <trkpt lat="47.84909" lon="6.76966">
        <ele>914.9</ele>
        <time>2022-08-17T08:03:00Z</time>
      </trkpt>
      <trkpt lat="47.8491" lon="6.76965">
        <ele>914.7</ele>
        <time>2022-08-17T08:03:01Z</time>
      </trkpt>
      <trkpt lat="47.8491" lon="6.76963">
        <ele>914.6</ele>
        <time>2022-08-17T08:03:02Z</time>
      </trkpt>
      <trkpt lat="47.8491" lon="6.76962">
        <ele>914.6</ele>
        <time>2022-08-17T08:03:03Z</time>
      </trkpt>
      <trkpt lat="47.8491" lon="6.7696">
        <ele>914.5</ele>
        <time>2022-08-17T08:03:04Z</time>
      </trkpt>
      <trkpt lat="47.84911" lon="6.76959">
        <ele>914.3</ele>
        <time>2022-08-17T08:03:05Z</time>
      </trkpt>
      <trkpt lat="47.8491" lon="6.76957">
        <ele>914.4</ele>
        <time>2022-08-17T08:03:06Z</time>
      </trkpt>
      <trkpt lat="47.8491" lon="6.76956">
        <ele>914.4</ele>
        <time>2022-08-17T08:03:07Z</time>
      </trkpt>
      <trkpt lat="47.8491" lon="6.76955">
        <ele>914.3</ele>
        <time>2022-08-17T08:03:08Z</time>
      </trkpt>
      <trkpt lat="47.8491" lon="6.76953">
        <ele>914.3</ele>
        <time>2022-08-17T08:03:09Z</time>
      </trkpt>
      <trkpt lat="47.8491" lon="6.76952">
        <ele>914.2</ele>
        <time>2022-08-17T08:03:10Z</time>
      </trkpt>
      <trkpt lat="47.8491" lon="6.76951">
        <ele>914.2</ele>
        <time>2022-08-17T08:03:11Z</time>
      </trkpt>
      <trkpt lat="47.84911" lon="6.7695">
        <ele>914</ele>
        <time>2022-08-17T08:03:12Z</time>
      </trkpt>
      <trkpt lat="47.84911" lon="6.76949">
        <ele>914</ele>
        <time>2022-08-17T08:03:13Z</time>
      </trkpt>
      <trkpt lat="47.84911" lon="6.76948">
        <ele>913.9</ele>
        <time>2022-08-17T08:03:14Z</time>
      </trkpt>
      <trkpt lat="47.84911" lon="6.76946">
        <ele>913.9</ele>
        <time>2022-08-17T08:03:15Z</time>
      </trkpt>
      <trkpt lat="47.84911" lon="6.76945">
        <ele>913.8</ele>
        <time>2022-08-17T08:03:16Z</time>
      </trkpt>
      <trkpt lat="47.84911" lon="6.76944">
        <ele>913.8</ele>
        <time>2022-08-17T08:03:17Z</time>
      </trkpt>
      <trkpt lat="47.84911" lon="6.76943">
        <ele>913.7</ele>
        <time>2022-08-17T08:03:18Z</time>
      </trkpt>
      <trkpt lat="47.84911" lon="6.76942">
        <ele>913.6</ele>
        <time>2022-08-17T08:03:19Z</time>
      </trkpt>
      <trkpt lat="47.84911" lon="6.76941">
        <ele>913.6</ele>
        <time>2022-08-17T08:03:20Z</time>
      </trkpt>
      <trkpt lat="47.84911" lon="6.76939">
        <ele>913.4</ele>
        <time>2022-08-17T08:03:21Z</time>
      </trkpt>
      <trkpt lat="47.84912" lon="6.76937">
        <ele>913.1</ele>
        <time>2022-08-17T08:03:22Z</time>
      </trkpt>
      <trkpt lat="47.84912" lon="6.76936">
        <ele>913.1</ele>
        <time>2022-08-17T08:03:23Z</time>
      </trkpt>
      <trkpt lat="47.84912" lon="6.76934">
        <ele>912.9</ele>
        <time>2022-08-17T08:03:24Z</time>
      </trkpt>
      <trkpt lat="47.84913" lon="6.76933">
        <ele>912.7</ele>
        <time>2022-08-17T08:03:25Z</time>
      </trkpt>
      <trkpt lat="47.84913" lon="6.76931">
        <ele>912.6</ele>
        <time>2022-08-17T08:03:26Z</time>
      </trkpt>
      <trkpt lat="47.84913" lon="6.76929">
        <ele>912.4</ele>
        <time>2022-08-17T08:03:27Z</time>
      </trkpt>
      <trkpt lat="47.84914" lon="6.76928">
        <ele>912.2</ele>
        <time>2022-08-17T08:03:28Z</time>
      </trkpt>
      <trkpt lat="47.84914" lon="6.76926">
        <ele>912.1</ele>
        <time>2022-08-17T08:03:29Z</time>
      </trkpt>
      <trkpt lat="47.84914" lon="6.76925">
        <ele>912</ele>
        <time>2022-08-17T08:03:30Z</time>
      </trkpt>
      <trkpt lat="47.84914" lon="6.76923">
        <ele>911.8</ele>
        <time>2022-08-17T08:03:31Z</time>
      </trkpt>
      <trkpt lat="47.84914" lon="6.76922">
        <ele>911.8</ele>
        <time>2022-08-17T08:03:32Z</time>
      </trkpt>
      <trkpt lat="47.84915" lon="6.7692">
        <ele>911.5</ele>
        <time>2022-08-17T08:03:33Z</time>
      </trkpt>
      <trkpt lat="47.84915" lon="6.76919">
        <ele>911.4</ele>
        <time>2022-08-17T08:03:34Z</time>
      </trkpt>
      <trkpt lat="47.84915" lon="6.76918">
        <ele>911.3</ele>
        <time>2022-08-17T08:03:35Z</time>
      </trkpt>
      <trkpt lat="47.84915" lon="6.76917">
        <ele>911.3</ele>
        <time>2022-08-17T08:03:36Z</time>
      </trkpt>
      <trkpt lat="47.84915" lon="6.76915">
        <ele>911.2</ele>
        <time>2022-08-17T08:03:37Z</time>
      </trkpt>
      <trkpt lat="47.84916" lon="6.76914">
        <ele>911</ele>
        <time>2022-08-17T08:03:38Z</time>
      </trkpt>
      <trkpt lat="47.84917" lon="6.76913">
        <ele>910.8</ele>
        <time>2022-08-17T08:03:39Z</time>
      </trkpt>
      <trkpt lat="47.84917" lon="6.76911">
        <ele>910.8</ele>
        <time>2022-08-17T08:03:40Z</time>
      </trkpt>
      <trkpt lat="47.84918" lon="6.7691">
        <ele>910.6</ele>
        <time>2022-08-17T08:03:41Z</time>
      </trkpt>
      <trkpt lat="47.84919" lon="6.76908">
        <ele>910.4</ele>
        <time>2022-08-17T08:03:42Z</time>
      </trkpt>
      <trkpt lat="47.8492" lon="6.76907">
        <ele>910.3</ele>
        <time>2022-08-17T08:03:43Z</time>
      </trkpt>
      <trkpt lat="47.8492" lon="6.76906">
        <ele>910.3</ele>
        <time>2022-08-17T08:03:44Z</time>
      </trkpt>
      <trkpt lat="47.84921" lon="6.76904">
        <ele>910.1</ele>
        <time>2022-08-17T08:03:45Z</time>
      </trkpt>
      <trkpt lat="47.84921" lon="6.76903">
        <ele>910</ele>
        <time>2022-08-17T08:03:46Z</time>
      </trkpt>
      <trkpt lat="47.84921" lon="6.76902">
        <ele>910</ele>
        <time>2022-08-17T08:03:47Z</time>
      </trkpt>
      <trkpt lat="47.84922" lon="6.76901">
        <ele>909.9</ele>
        <time>2022-08-17T08:03:48Z</time>
      </trkpt>
      <trkpt lat="47.84922" lon="6.769">
        <ele>909.8</ele>
        <time>2022-08-17T08:03:49Z</time>
      </trkpt>
      <trkpt lat="47.84923" lon="6.76899">
        <ele>909.7</ele>
        <time>2022-08-17T08:03:50Z</time>
      </trkpt>
      <trkpt lat="47.84923" lon="6.76898">
        <ele>909.6</ele>
        <time>2022-08-17T08:03:51Z</time>
      </trkpt>
      <trkpt lat="47.84923" lon="6.76897">
        <ele>909.6</ele>
        <time>2022-08-17T08:03:52Z</time>
      </trkpt>
      <trkpt lat="47.84923" lon="6.76896">
        <ele>909.6</ele>
        <time>2022-08-17T08:03:53Z</time>
      </trkpt>
      <trkpt lat="47.84923" lon="6.76895">
        <ele>909.5</ele>
        <time>2022-08-17T08:03:55Z</time>
      </trkpt>
      <trkpt lat="47.84923" lon="6.76894">
        <ele>909.5</ele>
        <time>2022-08-17T08:03:56Z</time>
      </trkpt>
      <trkpt lat="47.84923" lon="6.76893">
        <ele>909.5</ele>
        <time>2022-08-17T08:03:57Z</time>
      </trkpt>
      <trkpt lat="47.84923" lon="6.76892">
        <ele>909.4</ele>
        <time>2022-08-17T08:03:58Z</time>
      </trkpt>
      <trkpt lat="47.84923" lon="6.76891">
        <ele>909.4</ele>
        <time>2022-08-17T08:03:59Z</time>
      </trkpt>
      <trkpt lat="47.84923" lon="6.7689">
        <ele>909.4</ele>
        <time>2022-08-17T08:04:00Z</time>
      </trkpt>
      <trkpt lat="47.84924" lon="6.76889">
        <ele>909.2</ele>
        <time>2022-08-17T08:04:01Z</time>
      </trkpt>
      <trkpt lat="47.84924" lon="6.76888">
        <ele>909.1</ele>
        <time>2022-08-17T08:04:02Z</time>
      </trkpt>
      <trkpt lat="47.84925" lon="6.76887">
        <ele>908.9</ele>
        <time>2022-08-17T08:04:03Z</time>
      </trkpt>
      <trkpt lat="47.84926" lon="6.76886">
        <ele>908.7</ele>
        <time>2022-08-17T08:04:05Z</time>
      </trkpt>
      <trkpt lat="47.84927" lon="6.76885">
        <ele>908.6</ele>
        <time>2022-08-17T08:04:07Z</time>
      </trkpt>
      <trkpt lat="47.84927" lon="6.76884">
        <ele>908.5</ele>
        <time>2022-08-17T08:04:08Z</time>
      </trkpt>
      <trkpt lat="47.84928" lon="6.76884">
        <ele>908.4</ele>
        <time>2022-08-17T08:04:09Z</time>
      </trkpt>
      <trkpt lat="47.84929" lon="6.76883">
        <ele>908.1</ele>
        <time>2022-08-17T08:07:24Z</time>
      </trkpt>
      <trkpt lat="47.84929" lon="6.76882">
        <ele>908.1</ele>
        <time>2022-08-17T08:07:26Z</time>
      </trkpt>
      <trkpt lat="47.84929" lon="6.76881">
        <ele>908</ele>
        <time>2022-08-17T08:07:28Z</time>
      </trkpt>
      <trkpt lat="47.84929" lon="6.7688">
        <ele>907.9</ele>
        <time>2022-08-17T08:07:29Z</time>
      </trkpt>
      <trkpt lat="47.84929" lon="6.76879">
        <ele>907.8</ele>
        <time>2022-08-17T08:07:30Z</time>
      </trkpt>
      <trkpt lat="47.84929" lon="6.76878">
        <ele>907.7</ele>
        <time>2022-08-17T08:07:31Z</time>
      </trkpt>
      <trkpt lat="47.84929" lon="6.76876">
        <ele>907.5</ele>
        <time>2022-08-17T08:07:32Z</time>
      </trkpt>
      <trkpt lat="47.84929" lon="6.76875">
        <ele>907.4</ele>
        <time>2022-08-17T08:07:33Z</time>
      </trkpt>
      <trkpt lat="47.84929" lon="6.76874">
        <ele>907.4</ele>
        <time>2022-08-17T08:07:34Z</time>
      </trkpt>
      <trkpt lat="47.84929" lon="6.76872">
        <ele>907.2</ele>
        <time>2022-08-17T08:07:35Z</time>
      </trkpt>
      <trkpt lat="47.84929" lon="6.76871">
        <ele>907.1</ele>
        <time>2022-08-17T08:07:36Z</time>
      </trkpt>
      <trkpt lat="47.8493" lon="6.7687">
        <ele>906.9</ele>
        <time>2022-08-17T08:07:37Z</time>
      </trkpt>
      <trkpt lat="47.8493" lon="6.76868">
        <ele>906.7</ele>
        <time>2022-08-17T08:07:38Z</time>
      </trkpt>
      <trkpt lat="47.8493" lon="6.76867">
        <ele>906.6</ele>
        <time>2022-08-17T08:07:39Z</time>
      </trkpt>
      <trkpt lat="47.8493" lon="6.76866">
        <ele>906.5</ele>
        <time>2022-08-17T08:07:40Z</time>
      </trkpt>
      <trkpt lat="47.84931" lon="6.76865">
        <ele>906.3</ele>
        <time>2022-08-17T08:07:41Z</time>
      </trkpt>
      <trkpt lat="47.84931" lon="6.76863">
        <ele>906.1</ele>
        <time>2022-08-17T08:07:42Z</time>
      </trkpt>
      <trkpt lat="47.84931" lon="6.76862">
        <ele>906</ele>
        <time>2022-08-17T08:07:43Z</time>
      </trkpt>
      <trkpt lat="47.84932" lon="6.76861">
        <ele>905.8</ele>
        <time>2022-08-17T08:07:44Z</time>
      </trkpt>
      <trkpt lat="47.84933" lon="6.7686">
        <ele>905.5</ele>
        <time>2022-08-17T08:07:46Z</time>
      </trkpt>
      <trkpt lat="47.84933" lon="6.76859">
        <ele>905.4</ele>
        <time>2022-08-17T08:07:47Z</time>
      </trkpt>
      <trkpt lat="47.84933" lon="6.76858">
        <ele>905.3</ele>
        <time>2022-08-17T08:07:48Z</time>
      </trkpt>
      <trkpt lat="47.84934" lon="6.76857">
        <ele>905</ele>
        <time>2022-08-17T08:07:49Z</time>
      </trkpt>
      <trkpt lat="47.84934" lon="6.76855">
        <ele>904.8</ele>
        <time>2022-08-17T08:07:50Z</time>
      </trkpt>
      <trkpt lat="47.84935" lon="6.76854">
        <ele>904.5</ele>
        <time>2022-08-17T08:07:51Z</time>
      </trkpt>
      <trkpt lat="47.84935" lon="6.76853">
        <ele>904.4</ele>
        <time>2022-08-17T08:07:52Z</time>
      </trkpt>
      <trkpt lat="47.84936" lon="6.76852">
        <ele>904.1</ele>
        <time>2022-08-17T08:07:53Z</time>
      </trkpt>
      <trkpt lat="47.84937" lon="6.7685">
        <ele>903.8</ele>
        <time>2022-08-17T08:07:54Z</time>
      </trkpt>
      <trkpt lat="47.84937" lon="6.76849">
        <ele>903.6</ele>
        <time>2022-08-17T08:07:55Z</time>
      </trkpt>
      <trkpt lat="47.84938" lon="6.76848">
        <ele>903.4</ele>
        <time>2022-08-17T08:07:56Z</time>
      </trkpt>
      <trkpt lat="47.84938" lon="6.76846">
        <ele>903.2</ele>
        <time>2022-08-17T08:07:57Z</time>
      </trkpt>
      <trkpt lat="47.84939" lon="6.76845">
        <ele>902.9</ele>
        <time>2022-08-17T08:07:58Z</time>
      </trkpt>
      <trkpt lat="47.84939" lon="6.76844">
        <ele>902.8</ele>
        <time>2022-08-17T08:07:59Z</time>
      </trkpt>
      <trkpt lat="47.84939" lon="6.76842">
        <ele>902.6</ele>
        <time>2022-08-17T08:08:00Z</time>
      </trkpt>
      <trkpt lat="47.84939" lon="6.7684">
        <ele>902.4</ele>
        <time>2022-08-17T08:08:21Z</time>
      </trkpt>
      <trkpt lat="47.84939" lon="6.76839">
        <ele>902.2</ele>
        <time>2022-08-17T08:08:22Z</time>
      </trkpt>
      <trkpt lat="47.84938" lon="6.76838">
        <ele>902.2</ele>
        <time>2022-08-17T08:08:23Z</time>
      </trkpt>
      <trkpt lat="47.84938" lon="6.76837">
        <ele>902.1</ele>
        <time>2022-08-17T08:08:24Z</time>
      </trkpt>
      <trkpt lat="47.84938" lon="6.76836">
        <ele>902</ele>
        <time>2022-08-17T08:08:25Z</time>
      </trkpt>
      <trkpt lat="47.84938" lon="6.76835">
        <ele>901.9</ele>
        <time>2022-08-17T08:08:26Z</time>
      </trkpt>
      <trkpt lat="47.84938" lon="6.76834">
        <ele>901.8</ele>
        <time>2022-08-17T08:08:27Z</time>
      </trkpt>
      <trkpt lat="47.84938" lon="6.76833">
        <ele>901.7</ele>
        <time>2022-08-17T08:08:29Z</time>
      </trkpt>
      <trkpt lat="47.84938" lon="6.76832">
        <ele>901.6</ele>
        <time>2022-08-17T08:08:30Z</time>
      </trkpt>
      <trkpt lat="47.84937" lon="6.76831">
        <ele>901.6</ele>
        <time>2022-08-17T08:08:31Z</time>
      </trkpt>
      <trkpt lat="47.84937" lon="6.7683">
        <ele>901.4</ele>
        <time>2022-08-17T08:08:32Z</time>
      </trkpt>
      <trkpt lat="47.84937" lon="6.76829">
        <ele>901.3</ele>
        <time>2022-08-17T08:08:33Z</time>
      </trkpt>
      <trkpt lat="47.84937" lon="6.76828">
        <ele>901.2</ele>
        <time>2022-08-17T08:08:34Z</time>
      </trkpt>
      <trkpt lat="47.84937" lon="6.76827">
        <ele>901.1</ele>
        <time>2022-08-17T08:08:35Z</time>
      </trkpt>
      <trkpt lat="47.84937" lon="6.76826">
        <ele>901</ele>
        <time>2022-08-17T08:08:36Z</time>
      </trkpt>
      <trkpt lat="47.84937" lon="6.76825">
        <ele>900.9</ele>
        <time>2022-08-17T08:08:37Z</time>
      </trkpt>
      <trkpt lat="47.84937" lon="6.76824">
        <ele>900.8</ele>
        <time>2022-08-17T08:08:38Z</time>
      </trkpt>
      <trkpt lat="47.84937" lon="6.76823">
        <ele>900.7</ele>
        <time>2022-08-17T08:08:39Z</time>
      </trkpt>
      <trkpt lat="47.84937" lon="6.76822">
        <ele>900.6</ele>
        <time>2022-08-17T08:08:40Z</time>
      </trkpt>
      <trkpt lat="47.84937" lon="6.76821">
        <ele>900.5</ele>
        <time>2022-08-17T08:08:41Z</time>
      </trkpt>
      <trkpt lat="47.84937" lon="6.7682">
        <ele>900.4</ele>
        <time>2022-08-17T08:08:42Z</time>
      </trkpt>
      <trkpt lat="47.84938" lon="6.76818">
        <ele>900</ele>
        <time>2022-08-17T08:08:43Z</time>
      </trkpt>
      <trkpt lat="47.84938" lon="6.76817">
        <ele>899.9</ele>
        <time>2022-08-17T08:08:44Z</time>
      </trkpt>
      <trkpt lat="47.84938" lon="6.76816">
        <ele>899.8</ele>
        <time>2022-08-17T08:08:45Z</time>
      </trkpt>
      <trkpt lat="47.84937" lon="6.76814">
        <ele>899.7</ele>
        <time>2022-08-17T08:08:46Z</time>
      </trkpt>
      <trkpt lat="47.84937" lon="6.76813">
        <ele>899.6</ele>
        <time>2022-08-17T08:08:47Z</time>
      </trkpt>
      <trkpt lat="47.84937" lon="6.76812">
        <ele>899.5</ele>
        <time>2022-08-17T08:08:48Z</time>
      </trkpt>
      <trkpt lat="47.84936" lon="6.7681">
        <ele>899.4</ele>
        <time>2022-08-17T08:08:49Z</time>
      </trkpt>
      <trkpt lat="47.84936" lon="6.76809">
        <ele>899.3</ele>
        <time>2022-08-17T08:08:50Z</time>
      </trkpt>
      <trkpt lat="47.84936" lon="6.76808">
        <ele>899.2</ele>
        <time>2022-08-17T08:08:51Z</time>
      </trkpt>
      <trkpt lat="47.84936" lon="6.76807">
        <ele>899.1</ele>
        <time>2022-08-17T08:08:52Z</time>
      </trkpt>
      <trkpt lat="47.84936" lon="6.76806">
        <ele>899</ele>
        <time>2022-08-17T08:08:53Z</time>
      </trkpt>
      <trkpt lat="47.84936" lon="6.76805">
        <ele>898.9</ele>
        <time>2022-08-17T08:08:54Z</time>
      </trkpt>
      <trkpt lat="47.84935" lon="6.76804">
        <ele>898.9</ele>
        <time>2022-08-17T08:08:55Z</time>
      </trkpt>
      <trkpt lat="47.84935" lon="6.76803">
        <ele>898.8</ele>
        <time>2022-08-17T08:08:56Z</time>
      </trkpt>
      <trkpt lat="47.84934" lon="6.76802">
        <ele>898.8</ele>
        <time>2022-08-17T08:08:58Z</time>
      </trkpt>
      <trkpt lat="47.84934" lon="6.76801">
        <ele>898.7</ele>
        <time>2022-08-17T08:08:59Z</time>
      </trkpt>
      <trkpt lat="47.84933" lon="6.76801">
        <ele>898.8</ele>
        <time>2022-08-17T08:09:00Z</time>
      </trkpt>
      <trkpt lat="47.84933" lon="6.768">
        <ele>898.7</ele>
        <time>2022-08-17T08:09:01Z</time>
      </trkpt>
      <trkpt lat="47.84933" lon="6.76799">
        <ele>898.6</ele>
        <time>2022-08-17T08:09:02Z</time>
      </trkpt>
      <trkpt lat="47.84933" lon="6.76798">
        <ele>898.5</ele>
        <time>2022-08-17T08:09:03Z</time>
      </trkpt>
      <trkpt lat="47.84933" lon="6.76796">
        <ele>898.3</ele>
        <time>2022-08-17T08:09:04Z</time>
      </trkpt>
      <trkpt lat="47.84933" lon="6.76795">
        <ele>898.3</ele>
        <time>2022-08-17T08:09:05Z</time>
      </trkpt>
      <trkpt lat="47.84933" lon="6.76794">
        <ele>898.2</ele>
        <time>2022-08-17T08:09:06Z</time>
      </trkpt>
      <trkpt lat="47.84933" lon="6.76792">
        <ele>898</ele>
        <time>2022-08-17T08:09:07Z</time>
      </trkpt>
      <trkpt lat="47.84933" lon="6.76791">
        <ele>897.9</ele>
        <time>2022-08-17T08:09:09Z</time>
      </trkpt>
      <trkpt lat="47.84933" lon="6.7679">
        <ele>897.8</ele>
        <time>2022-08-17T08:09:10Z</time>
      </trkpt>
      <trkpt lat="47.84933" lon="6.76789">
        <ele>897.7</ele>
        <time>2022-08-17T08:09:11Z</time>
      </trkpt>
      <trkpt lat="47.84933" lon="6.76788">
        <ele>897.6</ele>
        <time>2022-08-17T08:09:12Z</time>
      </trkpt>
      <trkpt lat="47.84933" lon="6.76787">
        <ele>897.5</ele>
        <time>2022-08-17T08:09:13Z</time>
      </trkpt>
      <trkpt lat="47.84934" lon="6.76784">
        <ele>897.1</ele>
        <time>2022-08-17T08:09:37Z</time>
      </trkpt>
      <trkpt lat="47.84934" lon="6.76783">
        <ele>897</ele>
        <time>2022-08-17T08:09:38Z</time>
      </trkpt>
      <trkpt lat="47.84934" lon="6.76781">
        <ele>896.8</ele>
        <time>2022-08-17T08:09:39Z</time>
      </trkpt>
      <trkpt lat="47.84934" lon="6.7678">
        <ele>896.7</ele>
        <time>2022-08-17T08:09:40Z</time>
      </trkpt>
      <trkpt lat="47.84935" lon="6.76779">
        <ele>896.5</ele>
        <time>2022-08-17T08:09:41Z</time>
      </trkpt>
      <trkpt lat="47.84935" lon="6.76778">
        <ele>896.4</ele>
        <time>2022-08-17T08:09:42Z</time>
      </trkpt>
      <trkpt lat="47.84935" lon="6.76776">
        <ele>896.2</ele>
        <time>2022-08-17T08:09:43Z</time>
      </trkpt>
      <trkpt lat="47.84936" lon="6.76775">
        <ele>896</ele>
        <time>2022-08-17T08:09:44Z</time>
      </trkpt>
      <trkpt lat="47.84936" lon="6.76774">
        <ele>895.9</ele>
        <time>2022-08-17T08:09:45Z</time>
      </trkpt>
      <trkpt lat="47.84937" lon="6.76773">
        <ele>895.6</ele>
        <time>2022-08-17T08:09:47Z</time>
      </trkpt>
      <trkpt lat="47.84938" lon="6.76769">
        <ele>895.1</ele>
        <time>2022-08-17T08:09:56Z</time>
      </trkpt>
      <trkpt lat="47.84938" lon="6.76767">
        <ele>894.9</ele>
        <time>2022-08-17T08:09:57Z</time>
      </trkpt>
      <trkpt lat="47.84938" lon="6.76765">
        <ele>894.8</ele>
        <time>2022-08-17T08:09:58Z</time>
      </trkpt>
      <trkpt lat="47.84938" lon="6.76764">
        <ele>894.7</ele>
        <time>2022-08-17T08:09:59Z</time>
      </trkpt>
      <trkpt lat="47.84938" lon="6.76762">
        <ele>894.5</ele>
        <time>2022-08-17T08:10:00Z</time>
      </trkpt>
      <trkpt lat="47.84938" lon="6.7676">
        <ele>894.3</ele>
        <time>2022-08-17T08:10:01Z</time>
      </trkpt>
      <trkpt lat="47.84937" lon="6.76759">
        <ele>894.4</ele>
        <time>2022-08-17T08:10:02Z</time>
      </trkpt>
      <trkpt lat="47.84937" lon="6.76757">
        <ele>894.2</ele>
        <time>2022-08-17T08:10:03Z</time>
      </trkpt>
      <trkpt lat="47.84937" lon="6.76756">
        <ele>894.1</ele>
        <time>2022-08-17T08:10:04Z</time>
      </trkpt>
      <trkpt lat="47.84938" lon="6.76755">
        <ele>893.8</ele>
        <time>2022-08-17T08:10:05Z</time>
      </trkpt>
      <trkpt lat="47.84938" lon="6.76753">
        <ele>893.7</ele>
        <time>2022-08-17T08:10:06Z</time>
      </trkpt>
      <trkpt lat="47.84938" lon="6.76752">
        <ele>893.6</ele>
        <time>2022-08-17T08:10:07Z</time>
      </trkpt>
      <trkpt lat="47.84938" lon="6.76751">
        <ele>893.5</ele>
        <time>2022-08-17T08:10:08Z</time>
      </trkpt>
      <trkpt lat="47.84938" lon="6.7675">
        <ele>893.4</ele>
        <time>2022-08-17T08:10:09Z</time>
      </trkpt>
      <trkpt lat="47.84938" lon="6.76749">
        <ele>893.3</ele>
        <time>2022-08-17T08:10:10Z</time>
      </trkpt>
      <trkpt lat="47.84938" lon="6.76747">
        <ele>893.3</ele>
        <time>2022-08-17T08:10:11Z</time>
      </trkpt>
      <trkpt lat="47.84938" lon="6.76745">
        <ele>893.2</ele>
        <time>2022-08-17T08:10:12Z</time>
      </trkpt>
      <trkpt lat="47.84938" lon="6.76744">
        <ele>893.1</ele>
        <time>2022-08-17T08:10:13Z</time>
      </trkpt>
      <trkpt lat="47.84938" lon="6.76742">
        <ele>893</ele>
        <time>2022-08-17T08:10:14Z</time>
      </trkpt>
      <trkpt lat="47.84938" lon="6.76741">
        <ele>893</ele>
        <time>2022-08-17T08:10:15Z</time>
      </trkpt>
      <trkpt lat="47.84938" lon="6.7674">
        <ele>892.9</ele>
        <time>2022-08-17T08:10:16Z</time>
      </trkpt>
      <trkpt lat="47.84938" lon="6.76738">
        <ele>892.9</ele>
        <time>2022-08-17T08:10:17Z</time>
      </trkpt>
      <trkpt lat="47.84938" lon="6.76737">
        <ele>892.8</ele>
        <time>2022-08-17T08:10:18Z</time>
      </trkpt>
      <trkpt lat="47.84938" lon="6.76736">
        <ele>892.8</ele>
        <time>2022-08-17T08:10:19Z</time>
      </trkpt>
      <trkpt lat="47.84938" lon="6.76734">
        <ele>892.7</ele>
        <time>2022-08-17T08:10:20Z</time>
      </trkpt>
      <trkpt lat="47.84938" lon="6.76733">
        <ele>892.6</ele>
        <time>2022-08-17T08:10:21Z</time>
      </trkpt>
      <trkpt lat="47.84938" lon="6.76731">
        <ele>892.5</ele>
        <time>2022-08-17T08:10:22Z</time>
      </trkpt>
      <trkpt lat="47.84939" lon="6.7673">
        <ele>892.3</ele>
        <time>2022-08-17T08:10:23Z</time>
      </trkpt>
      <trkpt lat="47.84939" lon="6.76729">
        <ele>892.3</ele>
        <time>2022-08-17T08:10:24Z</time>
      </trkpt>
      <trkpt lat="47.8494" lon="6.76728">
        <ele>892</ele>
        <time>2022-08-17T08:10:25Z</time>
      </trkpt>
      <trkpt lat="47.8494" lon="6.76726">
        <ele>892</ele>
        <time>2022-08-17T08:10:26Z</time>
      </trkpt>
      <trkpt lat="47.8494" lon="6.76725">
        <ele>891.9</ele>
        <time>2022-08-17T08:10:27Z</time>
      </trkpt>
      <trkpt lat="47.8494" lon="6.76724">
        <ele>891.9</ele>
        <time>2022-08-17T08:10:28Z</time>
      </trkpt>
      <trkpt lat="47.8494" lon="6.76722">
        <ele>891.8</ele>
        <time>2022-08-17T08:10:29Z</time>
      </trkpt>
      <trkpt lat="47.8494" lon="6.76721">
        <ele>891.8</ele>
        <time>2022-08-17T08:10:30Z</time>
      </trkpt>
      <trkpt lat="47.8494" lon="6.7672">
        <ele>891.7</ele>
        <time>2022-08-17T08:10:31Z</time>
      </trkpt>
      <trkpt lat="47.8494" lon="6.76718">
        <ele>891.6</ele>
        <time>2022-08-17T08:10:32Z</time>
      </trkpt>
      <trkpt lat="47.8494" lon="6.76717">
        <ele>891.6</ele>
        <time>2022-08-17T08:10:33Z</time>
      </trkpt>
      <trkpt lat="47.8494" lon="6.76716">
        <ele>891.6</ele>
        <time>2022-08-17T08:10:34Z</time>
      </trkpt>
      <trkpt lat="47.8494" lon="6.76715">
        <ele>891.5</ele>
        <time>2022-08-17T08:10:35Z</time>
      </trkpt>
      <trkpt lat="47.8494" lon="6.76713">
        <ele>891.5</ele>
        <time>2022-08-17T08:10:36Z</time>
      </trkpt>
      <trkpt lat="47.8494" lon="6.76712">
        <ele>891.4</ele>
        <time>2022-08-17T08:10:37Z</time>
      </trkpt>
      <trkpt lat="47.84941" lon="6.7671">
        <ele>891.2</ele>
        <time>2022-08-17T08:10:38Z</time>
      </trkpt>
      <trkpt lat="47.84941" lon="6.76709">
        <ele>891.1</ele>
        <time>2022-08-17T08:10:39Z</time>
      </trkpt>
      <trkpt lat="47.84941" lon="6.76707">
        <ele>891.1</ele>
        <time>2022-08-17T08:10:40Z</time>
      </trkpt>
      <trkpt lat="47.84942" lon="6.76706">
        <ele>890.9</ele>
        <time>2022-08-17T08:10:41Z</time>
      </trkpt>
      <trkpt lat="47.84942" lon="6.76705">
        <ele>890.8</ele>
        <time>2022-08-17T08:10:42Z</time>
      </trkpt>
      <trkpt lat="47.84942" lon="6.76704">
        <ele>890.8</ele>
        <time>2022-08-17T08:10:44Z</time>
      </trkpt>
      <trkpt lat="47.84942" lon="6.76703">
        <ele>890.7</ele>
        <time>2022-08-17T08:10:46Z</time>
      </trkpt>
      <trkpt lat="47.84942" lon="6.76701">
        <ele>890.7</ele>
        <time>2022-08-17T08:10:47Z</time>
      </trkpt>
      <trkpt lat="47.84943" lon="6.767">
        <ele>890.5</ele>
        <time>2022-08-17T08:10:48Z</time>
      </trkpt>
      <trkpt lat="47.84943" lon="6.76699">
        <ele>890.4</ele>
        <time>2022-08-17T08:10:49Z</time>
      </trkpt>
      <trkpt lat="47.84943" lon="6.76698">
        <ele>890.4</ele>
        <time>2022-08-17T08:10:50Z</time>
      </trkpt>
      <trkpt lat="47.84943" lon="6.76697">
        <ele>890.4</ele>
        <time>2022-08-17T08:10:51Z</time>
      </trkpt>
      <trkpt lat="47.84944" lon="6.76696">
        <ele>890.1</ele>
        <time>2022-08-17T08:10:52Z</time>
      </trkpt>
      <trkpt lat="47.84944" lon="6.76694">
        <ele>890</ele>
        <time>2022-08-17T08:10:53Z</time>
      </trkpt>
      <trkpt lat="47.84945" lon="6.76692">
        <ele>889.7</ele>
        <time>2022-08-17T08:10:54Z</time>
      </trkpt>
      <trkpt lat="47.84946" lon="6.7669">
        <ele>889.3</ele>
        <time>2022-08-17T08:10:55Z</time>
      </trkpt>
      <trkpt lat="47.84947" lon="6.76688">
        <ele>888.9</ele>
        <time>2022-08-17T08:10:56Z</time>
      </trkpt>
      <trkpt lat="47.84948" lon="6.76686">
        <ele>888.5</ele>
        <time>2022-08-17T08:10:57Z</time>
      </trkpt>
      <trkpt lat="47.84948" lon="6.76685">
        <ele>888.4</ele>
        <time>2022-08-17T08:10:58Z</time>
      </trkpt>
      <trkpt lat="47.84949" lon="6.76684">
        <ele>888.1</ele>
        <time>2022-08-17T08:10:59Z</time>
      </trkpt>
      <trkpt lat="47.84949" lon="6.76682">
        <ele>888</ele>
        <time>2022-08-17T08:11:00Z</time>
      </trkpt>
      <trkpt lat="47.84949" lon="6.76681">
        <ele>887.9</ele>
        <time>2022-08-17T08:11:01Z</time>
      </trkpt>
      <trkpt lat="47.84948" lon="6.7668">
        <ele>888.1</ele>
        <time>2022-08-17T08:11:02Z</time>
      </trkpt>
      <trkpt lat="47.84948" lon="6.76679">
        <ele>888</ele>
        <time>2022-08-17T08:11:03Z</time>
      </trkpt>
      <trkpt lat="47.84948" lon="6.76678">
        <ele>887.9</ele>
        <time>2022-08-17T08:11:04Z</time>
      </trkpt>
      <trkpt lat="47.84947" lon="6.76676">
        <ele>888</ele>
        <time>2022-08-17T08:11:06Z</time>
      </trkpt>
      <trkpt lat="47.84947" lon="6.76675">
        <ele>888</ele>
        <time>2022-08-17T08:11:07Z</time>
      </trkpt>
      <trkpt lat="47.84947" lon="6.76674">
        <ele>887.9</ele>
        <time>2022-08-17T08:11:08Z</time>
      </trkpt>
      <trkpt lat="47.84947" lon="6.76673">
        <ele>887.8</ele>
        <time>2022-08-17T08:11:09Z</time>
      </trkpt>
      <trkpt lat="47.84947" lon="6.76672">
        <ele>887.7</ele>
        <time>2022-08-17T08:11:10Z</time>
      </trkpt>
      <trkpt lat="47.84947" lon="6.76671">
        <ele>887.7</ele>
        <time>2022-08-17T08:11:11Z</time>
      </trkpt>
      <trkpt lat="47.84947" lon="6.7667">
        <ele>887.6</ele>
        <time>2022-08-17T08:11:12Z</time>
      </trkpt>
      <trkpt lat="47.84947" lon="6.76668">
        <ele>887.5</ele>
        <time>2022-08-17T08:11:13Z</time>
      </trkpt>
      <trkpt lat="47.84947" lon="6.76667">
        <ele>887.4</ele>
        <time>2022-08-17T08:11:14Z</time>
      </trkpt>
      <trkpt lat="47.84947" lon="6.76666">
        <ele>887.3</ele>
        <time>2022-08-17T08:11:15Z</time>
      </trkpt>
      <trkpt lat="47.84946" lon="6.76665">
        <ele>887.4</ele>
        <time>2022-08-17T08:11:16Z</time>
      </trkpt>
      <trkpt lat="47.84946" lon="6.76664">
        <ele>887.3</ele>
        <time>2022-08-17T08:11:17Z</time>
      </trkpt>
      <trkpt lat="47.84946" lon="6.76663">
        <ele>887.2</ele>
        <time>2022-08-17T08:11:18Z</time>
      </trkpt>
      <trkpt lat="47.84946" lon="6.76662">
        <ele>887.1</ele>
        <time>2022-08-17T08:11:19Z</time>
      </trkpt>
      <trkpt lat="47.84946" lon="6.76661">
        <ele>887</ele>
        <time>2022-08-17T08:11:20Z</time>
      </trkpt>
      <trkpt lat="47.84946" lon="6.76659">
        <ele>886.8</ele>
        <time>2022-08-17T08:11:21Z</time>
      </trkpt>
      <trkpt lat="47.84946" lon="6.76658">
        <ele>886.7</ele>
        <time>2022-08-17T08:11:22Z</time>
      </trkpt>
      <trkpt lat="47.84946" lon="6.76657">
        <ele>886.6</ele>
        <time>2022-08-17T08:11:23Z</time>
      </trkpt>
      <trkpt lat="47.84946" lon="6.76655">
        <ele>886.3</ele>
        <time>2022-08-17T08:11:24Z</time>
      </trkpt>
      <trkpt lat="47.84946" lon="6.76654">
        <ele>886.2</ele>
        <time>2022-08-17T08:11:25Z</time>
      </trkpt>
      <trkpt lat="47.84946" lon="6.76653">
        <ele>886.1</ele>
        <time>2022-08-17T08:11:26Z</time>
      </trkpt>
      <trkpt lat="47.84946" lon="6.76652">
        <ele>886</ele>
        <time>2022-08-17T08:11:28Z</time>
      </trkpt>
      <trkpt lat="47.84946" lon="6.76651">
        <ele>885.9</ele>
        <time>2022-08-17T08:11:29Z</time>
      </trkpt>
      <trkpt lat="47.84946" lon="6.76649">
        <ele>885.7</ele>
        <time>2022-08-17T08:11:30Z</time>
      </trkpt>
      <trkpt lat="47.84946" lon="6.76648">
        <ele>885.6</ele>
        <time>2022-08-17T08:11:31Z</time>
      </trkpt>
      <trkpt lat="47.84947" lon="6.76647">
        <ele>885.2</ele>
        <time>2022-08-17T08:11:32Z</time>
      </trkpt>
      <trkpt lat="47.84947" lon="6.76646">
        <ele>885.1</ele>
        <time>2022-08-17T08:11:33Z</time>
      </trkpt>
      <trkpt lat="47.84948" lon="6.76645">
        <ele>884.8</ele>
        <time>2022-08-17T08:11:34Z</time>
      </trkpt>
      <trkpt lat="47.84948" lon="6.76643">
        <ele>884.5</ele>
        <time>2022-08-17T08:11:36Z</time>
      </trkpt>
      <trkpt lat="47.84949" lon="6.76642">
        <ele>884.2</ele>
        <time>2022-08-17T08:11:37Z</time>
      </trkpt>
      <trkpt lat="47.84949" lon="6.76641">
        <ele>884.1</ele>
        <time>2022-08-17T08:11:39Z</time>
      </trkpt>
      <trkpt lat="47.84949" lon="6.7664">
        <ele>884</ele>
        <time>2022-08-17T08:11:40Z</time>
      </trkpt>
      <trkpt lat="47.8495" lon="6.76639">
        <ele>883.6</ele>
        <time>2022-08-17T08:11:41Z</time>
      </trkpt>
      <trkpt lat="47.8495" lon="6.76637">
        <ele>883.6</ele>
        <time>2022-08-17T08:11:42Z</time>
      </trkpt>
      <trkpt lat="47.8495" lon="6.76636">
        <ele>883.6</ele>
        <time>2022-08-17T08:11:43Z</time>
      </trkpt>
      <trkpt lat="47.84951" lon="6.76635">
        <ele>883.3</ele>
        <time>2022-08-17T08:11:44Z</time>
      </trkpt>
      <trkpt lat="47.84952" lon="6.76633">
        <ele>883.1</ele>
        <time>2022-08-17T08:11:45Z</time>
      </trkpt>
      <trkpt lat="47.84952" lon="6.76632">
        <ele>883.1</ele>
        <time>2022-08-17T08:11:46Z</time>
      </trkpt>
      <trkpt lat="47.84953" lon="6.76631">
        <ele>882.8</ele>
        <time>2022-08-17T08:11:47Z</time>
      </trkpt>
      <trkpt lat="47.84954" lon="6.76629">
        <ele>882.6</ele>
        <time>2022-08-17T08:11:48Z</time>
      </trkpt>
      <trkpt lat="47.84954" lon="6.76627">
        <ele>882.6</ele>
        <time>2022-08-17T08:11:49Z</time>
      </trkpt>
      <trkpt lat="47.84955" lon="6.76625">
        <ele>882.3</ele>
        <time>2022-08-17T08:11:50Z</time>
      </trkpt>
      <trkpt lat="47.84955" lon="6.76623">
        <ele>882.3</ele>
        <time>2022-08-17T08:11:51Z</time>
      </trkpt>
      <trkpt lat="47.84955" lon="6.76621">
        <ele>882.3</ele>
        <time>2022-08-17T08:11:52Z</time>
      </trkpt>
      <trkpt lat="47.84956" lon="6.7662">
        <ele>882.1</ele>
        <time>2022-08-17T08:11:53Z</time>
      </trkpt>
      <trkpt lat="47.84956" lon="6.76618">
        <ele>882.1</ele>
        <time>2022-08-17T08:11:54Z</time>
      </trkpt>
      <trkpt lat="47.84956" lon="6.76617">
        <ele>882.1</ele>
        <time>2022-08-17T08:11:55Z</time>
      </trkpt>
      <trkpt lat="47.84956" lon="6.76616">
        <ele>882.1</ele>
        <time>2022-08-17T08:11:56Z</time>
      </trkpt>
      <trkpt lat="47.84957" lon="6.76614">
        <ele>881.8</ele>
        <time>2022-08-17T08:11:58Z</time>
      </trkpt>
      <trkpt lat="47.84957" lon="6.76613">
        <ele>881.8</ele>
        <time>2022-08-17T08:11:59Z</time>
      </trkpt>
      <trkpt lat="47.84958" lon="6.76611">
        <ele>881.6</ele>
        <time>2022-08-17T08:12:00Z</time>
      </trkpt>
      <trkpt lat="47.84958" lon="6.76609">
        <ele>881.8</ele>
        <time>2022-08-17T08:12:01Z</time>
      </trkpt>
      <trkpt lat="47.84959" lon="6.76606">
        <ele>881.8</ele>
        <time>2022-08-17T08:12:02Z</time>
      </trkpt>
      <trkpt lat="47.84961" lon="6.76604">
        <ele>881.4</ele>
        <time>2022-08-17T08:12:03Z</time>
      </trkpt>
      <trkpt lat="47.84962" lon="6.76603">
        <ele>881.3</ele>
        <time>2022-08-17T08:12:04Z</time>
      </trkpt>
      <trkpt lat="47.84963" lon="6.76602">
        <ele>881.1</ele>
        <time>2022-08-17T08:12:05Z</time>
      </trkpt>
      <trkpt lat="47.84963" lon="6.76601">
        <ele>881.2</ele>
        <time>2022-08-17T08:12:06Z</time>
      </trkpt>
      <trkpt lat="47.84964" lon="6.76601">
        <ele>880.9</ele>
        <time>2022-08-17T08:12:07Z</time>
      </trkpt>
      <trkpt lat="47.84965" lon="6.766">
        <ele>880.7</ele>
        <time>2022-08-17T08:12:08Z</time>
      </trkpt>
      <trkpt lat="47.84966" lon="6.76599">
        <ele>880.5</ele>
        <time>2022-08-17T08:12:10Z</time>
      </trkpt>
      <trkpt lat="47.84966" lon="6.76598">
        <ele>880.6</ele>
        <time>2022-08-17T08:12:11Z</time>
      </trkpt>
      <trkpt lat="47.84967" lon="6.76597">
        <ele>880.4</ele>
        <time>2022-08-17T08:12:12Z</time>
      </trkpt>
      <trkpt lat="47.84967" lon="6.76596">
        <ele>880.5</ele>
        <time>2022-08-17T08:12:13Z</time>
      </trkpt>
      <trkpt lat="47.84968" lon="6.76595">
        <ele>880.3</ele>
        <time>2022-08-17T08:12:14Z</time>
      </trkpt>
      <trkpt lat="47.84968" lon="6.76594">
        <ele>880.4</ele>
        <time>2022-08-17T08:12:15Z</time>
      </trkpt>
      <trkpt lat="47.84969" lon="6.76594">
        <ele>880.1</ele>
        <time>2022-08-17T08:12:16Z</time>
      </trkpt>
      <trkpt lat="47.8497" lon="6.76592">
        <ele>880</ele>
        <time>2022-08-17T08:12:22Z</time>
      </trkpt>
      <trkpt lat="47.8497" lon="6.76591">
        <ele>880.1</ele>
        <time>2022-08-17T08:12:23Z</time>
      </trkpt>
      <trkpt lat="47.8497" lon="6.76589">
        <ele>880.2</ele>
        <time>2022-08-17T08:12:24Z</time>
      </trkpt>
      <trkpt lat="47.84971" lon="6.76588">
        <ele>880</ele>
        <time>2022-08-17T08:12:25Z</time>
      </trkpt>
      <trkpt lat="47.84971" lon="6.76586">
        <ele>880.2</ele>
        <time>2022-08-17T08:12:26Z</time>
      </trkpt>
      <trkpt lat="47.84971" lon="6.76585">
        <ele>880.2</ele>
        <time>2022-08-17T08:12:27Z</time>
      </trkpt>
      <trkpt lat="47.84971" lon="6.76583">
        <ele>880.3</ele>
        <time>2022-08-17T08:12:28Z</time>
      </trkpt>
      <trkpt lat="47.84971" lon="6.76582">
        <ele>880.3</ele>
        <time>2022-08-17T08:12:29Z</time>
      </trkpt>
      <trkpt lat="47.84971" lon="6.7658">
        <ele>880.1</ele>
        <time>2022-08-17T08:12:30Z</time>
      </trkpt>
      <trkpt lat="47.84971" lon="6.76579">
        <ele>880.1</ele>
        <time>2022-08-17T08:12:31Z</time>
      </trkpt>
      <trkpt lat="47.84972" lon="6.76578">
        <ele>879.7</ele>
        <time>2022-08-17T08:12:32Z</time>
      </trkpt>
      <trkpt lat="47.84972" lon="6.76577">
        <ele>879.6</ele>
        <time>2022-08-17T08:12:33Z</time>
      </trkpt>
      <trkpt lat="47.84972" lon="6.76576">
        <ele>879.5</ele>
        <time>2022-08-17T08:12:34Z</time>
      </trkpt>
      <trkpt lat="47.84972" lon="6.76575">
        <ele>879.5</ele>
        <time>2022-08-17T08:12:35Z</time>
      </trkpt>
      <trkpt lat="47.84973" lon="6.76573">
        <ele>879</ele>
        <time>2022-08-17T08:12:36Z</time>
      </trkpt>
      <trkpt lat="47.84974" lon="6.76572">
        <ele>878.6</ele>
        <time>2022-08-17T08:12:37Z</time>
      </trkpt>
      <trkpt lat="47.84974" lon="6.7657">
        <ele>878.5</ele>
        <time>2022-08-17T08:12:38Z</time>
      </trkpt>
      <trkpt lat="47.84975" lon="6.76569">
        <ele>878.1</ele>
        <time>2022-08-17T08:12:39Z</time>
      </trkpt>
      <trkpt lat="47.84975" lon="6.76567">
        <ele>878</ele>
        <time>2022-08-17T08:12:40Z</time>
      </trkpt>
      <trkpt lat="47.84975" lon="6.76566">
        <ele>877.9</ele>
        <time>2022-08-17T08:12:41Z</time>
      </trkpt>
      <trkpt lat="47.84975" lon="6.76565">
        <ele>877.8</ele>
        <time>2022-08-17T08:12:42Z</time>
      </trkpt>
      <trkpt lat="47.84975" lon="6.76564">
        <ele>877.8</ele>
        <time>2022-08-17T08:12:43Z</time>
      </trkpt>
      <trkpt lat="47.84974" lon="6.76562">
        <ele>877.9</ele>
        <time>2022-08-17T08:12:44Z</time>
      </trkpt>
      <trkpt lat="47.84974" lon="6.76561">
        <ele>877.9</ele>
        <time>2022-08-17T08:12:45Z</time>
      </trkpt>
      <trkpt lat="47.84975" lon="6.7656">
        <ele>877.5</ele>
        <time>2022-08-17T08:12:46Z</time>
      </trkpt>
      <trkpt lat="47.84975" lon="6.76559">
        <ele>877.4</ele>
        <time>2022-08-17T08:12:47Z</time>
      </trkpt>
      <trkpt lat="47.84974" lon="6.76557">
        <ele>877.6</ele>
        <time>2022-08-17T08:12:48Z</time>
      </trkpt>
      <trkpt lat="47.84974" lon="6.76556">
        <ele>877.5</ele>
        <time>2022-08-17T08:12:49Z</time>
      </trkpt>
      <trkpt lat="47.84974" lon="6.76554">
        <ele>877.4</ele>
        <time>2022-08-17T08:12:50Z</time>
      </trkpt>
      <trkpt lat="47.84974" lon="6.76552">
        <ele>877.4</ele>
        <time>2022-08-17T08:12:51Z</time>
      </trkpt>
      <trkpt lat="47.84974" lon="6.7655">
        <ele>877.3</ele>
        <time>2022-08-17T08:12:52Z</time>
      </trkpt>
      <trkpt lat="47.84974" lon="6.76549">
        <ele>877.2</ele>
        <time>2022-08-17T08:12:53Z</time>
      </trkpt>
      <trkpt lat="47.84975" lon="6.76547">
        <ele>876.9</ele>
        <time>2022-08-17T08:12:54Z</time>
      </trkpt>
      <trkpt lat="47.84975" lon="6.76546">
        <ele>876.8</ele>
        <time>2022-08-17T08:12:55Z</time>
      </trkpt>
      <trkpt lat="47.84975" lon="6.76545">
        <ele>876.8</ele>
        <time>2022-08-17T08:12:56Z</time>
      </trkpt>
      <trkpt lat="47.84976" lon="6.76544">
        <ele>876.4</ele>
        <time>2022-08-17T08:12:57Z</time>
      </trkpt>
      <trkpt lat="47.84976" lon="6.76543">
        <ele>876.4</ele>
        <time>2022-08-17T08:12:58Z</time>
      </trkpt>
      <trkpt lat="47.84976" lon="6.76542">
        <ele>876.4</ele>
        <time>2022-08-17T08:12:59Z</time>
      </trkpt>
      <trkpt lat="47.84976" lon="6.76541">
        <ele>876.3</ele>
        <time>2022-08-17T08:13:00Z</time>
      </trkpt>
      <trkpt lat="47.84976" lon="6.7654">
        <ele>876.3</ele>
        <time>2022-08-17T08:13:01Z</time>
      </trkpt>
      <trkpt lat="47.84976" lon="6.76539">
        <ele>876.2</ele>
        <time>2022-08-17T08:13:02Z</time>
      </trkpt>
      <trkpt lat="47.84976" lon="6.76537">
        <ele>876.2</ele>
        <time>2022-08-17T08:13:03Z</time>
      </trkpt>
      <trkpt lat="47.84976" lon="6.76536">
        <ele>876.1</ele>
        <time>2022-08-17T08:13:04Z</time>
      </trkpt>
      <trkpt lat="47.84976" lon="6.76534">
        <ele>876</ele>
        <time>2022-08-17T08:13:05Z</time>
      </trkpt>
      <trkpt lat="47.84977" lon="6.76533">
        <ele>875.7</ele>
        <time>2022-08-17T08:13:06Z</time>
      </trkpt>
      <trkpt lat="47.84977" lon="6.76531">
        <ele>875.6</ele>
        <time>2022-08-17T08:13:07Z</time>
      </trkpt>
      <trkpt lat="47.84977" lon="6.7653">
        <ele>875.5</ele>
        <time>2022-08-17T08:13:08Z</time>
      </trkpt>
      <trkpt lat="47.84977" lon="6.76529">
        <ele>875.5</ele>
        <time>2022-08-17T08:13:09Z</time>
      </trkpt>
      <trkpt lat="47.84977" lon="6.76527">
        <ele>875.4</ele>
        <time>2022-08-17T08:13:10Z</time>
      </trkpt>
      <trkpt lat="47.84978" lon="6.76527">
        <ele>875.1</ele>
        <time>2022-08-17T08:13:11Z</time>
      </trkpt>
      <trkpt lat="47.84978" lon="6.76526">
        <ele>875</ele>
        <time>2022-08-17T08:13:12Z</time>
      </trkpt>
      <trkpt lat="47.84979" lon="6.76525">
        <ele>874.6</ele>
        <time>2022-08-17T08:13:13Z</time>
      </trkpt>
      <trkpt lat="47.84979" lon="6.76524">
        <ele>874.5</ele>
        <time>2022-08-17T08:13:14Z</time>
      </trkpt>
      <trkpt lat="47.84979" lon="6.76523">
        <ele>874.5</ele>
        <time>2022-08-17T08:13:15Z</time>
      </trkpt>
      <trkpt lat="47.8498" lon="6.76522">
        <ele>874.1</ele>
        <time>2022-08-17T08:13:16Z</time>
      </trkpt>
      <trkpt lat="47.8498" lon="6.76521">
        <ele>874</ele>
        <time>2022-08-17T08:13:17Z</time>
      </trkpt>
      <trkpt lat="47.84981" lon="6.76519">
        <ele>873.5</ele>
        <time>2022-08-17T08:13:19Z</time>
      </trkpt>
      <trkpt lat="47.84981" lon="6.76518">
        <ele>873.5</ele>
        <time>2022-08-17T08:13:20Z</time>
      </trkpt>
      <trkpt lat="47.84982" lon="6.76517">
        <ele>873.1</ele>
        <time>2022-08-17T08:13:21Z</time>
      </trkpt>
      <trkpt lat="47.84982" lon="6.76516">
        <ele>873</ele>
        <time>2022-08-17T08:13:22Z</time>
      </trkpt>
      <trkpt lat="47.84983" lon="6.76515">
        <ele>872.6</ele>
        <time>2022-08-17T08:13:23Z</time>
      </trkpt>
      <trkpt lat="47.84983" lon="6.76514">
        <ele>872.5</ele>
        <time>2022-08-17T08:13:25Z</time>
      </trkpt>
      <trkpt lat="47.84984" lon="6.76512">
        <ele>872</ele>
        <time>2022-08-17T08:13:26Z</time>
      </trkpt>
      <trkpt lat="47.84983" lon="6.76511">
        <ele>872.3</ele>
        <time>2022-08-17T08:13:27Z</time>
      </trkpt>
      <trkpt lat="47.84983" lon="6.7651">
        <ele>872.2</ele>
        <time>2022-08-17T08:13:28Z</time>
      </trkpt>
      <trkpt lat="47.84983" lon="6.76509">
        <ele>872.2</ele>
        <time>2022-08-17T08:13:29Z</time>
      </trkpt>
      <trkpt lat="47.84983" lon="6.76508">
        <ele>872.1</ele>
        <time>2022-08-17T08:13:30Z</time>
      </trkpt>
      <trkpt lat="47.84982" lon="6.76507">
        <ele>872.3</ele>
        <time>2022-08-17T08:13:31Z</time>
      </trkpt>
      <trkpt lat="47.84982" lon="6.76506">
        <ele>872.3</ele>
        <time>2022-08-17T08:13:32Z</time>
      </trkpt>
      <trkpt lat="47.84982" lon="6.76505">
        <ele>872.2</ele>
        <time>2022-08-17T08:13:33Z</time>
      </trkpt>
      <trkpt lat="47.84982" lon="6.76504">
        <ele>872.1</ele>
        <time>2022-08-17T08:13:34Z</time>
      </trkpt>
      <trkpt lat="47.84982" lon="6.76503">
        <ele>872</ele>
        <time>2022-08-17T08:13:35Z</time>
      </trkpt>
      <trkpt lat="47.84982" lon="6.76502">
        <ele>872</ele>
        <time>2022-08-17T08:13:36Z</time>
      </trkpt>
      <trkpt lat="47.84982" lon="6.76501">
        <ele>871.9</ele>
        <time>2022-08-17T08:13:37Z</time>
      </trkpt>
      <trkpt lat="47.84982" lon="6.765">
        <ele>871.8</ele>
        <time>2022-08-17T08:13:38Z</time>
      </trkpt>
      <trkpt lat="47.84982" lon="6.76498">
        <ele>871.7</ele>
        <time>2022-08-17T08:13:39Z</time>
      </trkpt>
      <trkpt lat="47.84982" lon="6.76497">
        <ele>871.6</ele>
        <time>2022-08-17T08:13:40Z</time>
      </trkpt>
      <trkpt lat="47.84981" lon="6.76496">
        <ele>871.9</ele>
        <time>2022-08-17T08:13:41Z</time>
      </trkpt>
      <trkpt lat="47.84981" lon="6.76495">
        <ele>871.8</ele>
        <time>2022-08-17T08:13:42Z</time>
      </trkpt>
      <trkpt lat="47.84981" lon="6.76494">
        <ele>871.7</ele>
        <time>2022-08-17T08:13:43Z</time>
      </trkpt>
      <trkpt lat="47.8498" lon="6.76493">
        <ele>872</ele>
        <time>2022-08-17T08:13:44Z</time>
      </trkpt>
      <trkpt lat="47.8498" lon="6.76491">
        <ele>871.8</ele>
        <time>2022-08-17T08:13:45Z</time>
      </trkpt>
      <trkpt lat="47.8498" lon="6.7649">
        <ele>871.8</ele>
        <time>2022-08-17T08:13:46Z</time>
      </trkpt>
      <trkpt lat="47.8498" lon="6.76489">
        <ele>871.7</ele>
        <time>2022-08-17T08:13:47Z</time>
      </trkpt>
      <trkpt lat="47.8498" lon="6.76487">
        <ele>871.5</ele>
        <time>2022-08-17T08:13:48Z</time>
      </trkpt>
      <trkpt lat="47.8498" lon="6.76486">
        <ele>871.5</ele>
        <time>2022-08-17T08:13:49Z</time>
      </trkpt>
      <trkpt lat="47.84981" lon="6.76484">
        <ele>871</ele>
        <time>2022-08-17T08:13:50Z</time>
      </trkpt>
      <trkpt lat="47.84981" lon="6.76482">
        <ele>870.9</ele>
        <time>2022-08-17T08:13:51Z</time>
      </trkpt>
      <trkpt lat="47.84982" lon="6.76481">
        <ele>870.5</ele>
        <time>2022-08-17T08:13:52Z</time>
      </trkpt>
      <trkpt lat="47.84983" lon="6.76479">
        <ele>870</ele>
        <time>2022-08-17T08:13:53Z</time>
      </trkpt>
      <trkpt lat="47.84983" lon="6.76478">
        <ele>869.9</ele>
        <time>2022-08-17T08:13:54Z</time>
      </trkpt>
      <trkpt lat="47.84984" lon="6.76477">
        <ele>869.5</ele>
        <time>2022-08-17T08:13:55Z</time>
      </trkpt>
      <trkpt lat="47.84985" lon="6.76475">
        <ele>869.1</ele>
        <time>2022-08-17T08:13:56Z</time>
      </trkpt>
      <trkpt lat="47.84985" lon="6.76474">
        <ele>869</ele>
        <time>2022-08-17T08:13:57Z</time>
      </trkpt>
      <trkpt lat="47.84985" lon="6.76472">
        <ele>868.8</ele>
        <time>2022-08-17T08:13:58Z</time>
      </trkpt>
      <trkpt lat="47.84985" lon="6.76471">
        <ele>868.8</ele>
        <time>2022-08-17T08:13:59Z</time>
      </trkpt>
      <trkpt lat="47.84986" lon="6.76469">
        <ele>868.3</ele>
        <time>2022-08-17T08:14:00Z</time>
      </trkpt>
      <trkpt lat="47.84986" lon="6.76468">
        <ele>868.2</ele>
        <time>2022-08-17T08:14:01Z</time>
      </trkpt>
      <trkpt lat="47.84986" lon="6.76467">
        <ele>868.2</ele>
        <time>2022-08-17T08:14:02Z</time>
      </trkpt>
      <trkpt lat="47.84986" lon="6.76465">
        <ele>868</ele>
        <time>2022-08-17T08:14:03Z</time>
      </trkpt>
      <trkpt lat="47.84986" lon="6.76464">
        <ele>867.9</ele>
        <time>2022-08-17T08:14:04Z</time>
      </trkpt>
      <trkpt lat="47.84987" lon="6.76462">
        <ele>867.5</ele>
        <time>2022-08-17T08:14:05Z</time>
      </trkpt>
      <trkpt lat="47.84987" lon="6.76461">
        <ele>867.4</ele>
        <time>2022-08-17T08:14:06Z</time>
      </trkpt>
      <trkpt lat="47.84987" lon="6.76459">
        <ele>867.2</ele>
        <time>2022-08-17T08:14:07Z</time>
      </trkpt>
      <trkpt lat="47.84988" lon="6.76458">
        <ele>866.8</ele>
        <time>2022-08-17T08:14:08Z</time>
      </trkpt>
      <trkpt lat="47.84988" lon="6.76457">
        <ele>866.7</ele>
        <time>2022-08-17T08:14:09Z</time>
      </trkpt>
      <trkpt lat="47.84988" lon="6.76455">
        <ele>866.6</ele>
        <time>2022-08-17T08:14:10Z</time>
      </trkpt>
      <trkpt lat="47.84989" lon="6.76454">
        <ele>866.1</ele>
        <time>2022-08-17T08:14:11Z</time>
      </trkpt>
      <trkpt lat="47.84989" lon="6.76453">
        <ele>866</ele>
        <time>2022-08-17T08:14:12Z</time>
      </trkpt>
      <trkpt lat="47.84989" lon="6.76452">
        <ele>866</ele>
        <time>2022-08-17T08:14:13Z</time>
      </trkpt>
      <trkpt lat="47.84989" lon="6.76451">
        <ele>865.9</ele>
        <time>2022-08-17T08:14:14Z</time>
      </trkpt>
      <trkpt lat="47.84989" lon="6.7645">
        <ele>865.8</ele>
        <time>2022-08-17T08:14:15Z</time>
      </trkpt>
      <trkpt lat="47.84989" lon="6.76449">
        <ele>865.7</ele>
        <time>2022-08-17T08:14:16Z</time>
      </trkpt>
      <trkpt lat="47.84989" lon="6.76448">
        <ele>865.6</ele>
        <time>2022-08-17T08:14:17Z</time>
      </trkpt>
      <trkpt lat="47.84988" lon="6.76447">
        <ele>865.9</ele>
        <time>2022-08-17T08:14:18Z</time>
      </trkpt>
      <trkpt lat="47.84988" lon="6.76446">
        <ele>865.9</ele>
        <time>2022-08-17T08:14:19Z</time>
      </trkpt>
      <trkpt lat="47.84988" lon="6.76445">
        <ele>865.8</ele>
        <time>2022-08-17T08:14:20Z</time>
      </trkpt>
      <trkpt lat="47.84988" lon="6.76443">
        <ele>865.6</ele>
        <time>2022-08-17T08:14:21Z</time>
      </trkpt>
      <trkpt lat="47.84987" lon="6.76441">
        <ele>865.8</ele>
        <time>2022-08-17T08:14:22Z</time>
      </trkpt>
      <trkpt lat="47.84988" lon="6.7644">
        <ele>865.3</ele>
        <time>2022-08-17T08:14:23Z</time>
      </trkpt>
      <trkpt lat="47.84988" lon="6.76438">
        <ele>865.1</ele>
        <time>2022-08-17T08:14:24Z</time>
      </trkpt>
      <trkpt lat="47.84989" lon="6.76436">
        <ele>864.4</ele>
        <time>2022-08-17T08:14:25Z</time>
      </trkpt>
      <trkpt lat="47.84989" lon="6.76435">
        <ele>864.3</ele>
        <time>2022-08-17T08:14:26Z</time>
      </trkpt>
      <trkpt lat="47.8499" lon="6.76434">
        <ele>863.8</ele>
        <time>2022-08-17T08:14:27Z</time>
      </trkpt>
      <trkpt lat="47.8499" lon="6.76433">
        <ele>863.7</ele>
        <time>2022-08-17T08:14:28Z</time>
      </trkpt>
      <trkpt lat="47.8499" lon="6.76432">
        <ele>863.6</ele>
        <time>2022-08-17T08:14:29Z</time>
      </trkpt>
      <trkpt lat="47.84991" lon="6.76431">
        <ele>863.1</ele>
        <time>2022-08-17T08:14:30Z</time>
      </trkpt>
      <trkpt lat="47.84991" lon="6.7643">
        <ele>863</ele>
        <time>2022-08-17T08:14:31Z</time>
      </trkpt>
      <trkpt lat="47.84992" lon="6.76429">
        <ele>862.5</ele>
        <time>2022-08-17T08:14:32Z</time>
      </trkpt>
      <trkpt lat="47.84992" lon="6.76428">
        <ele>862.4</ele>
        <time>2022-08-17T08:14:33Z</time>
      </trkpt>
      <trkpt lat="47.84992" lon="6.76427">
        <ele>862.3</ele>
        <time>2022-08-17T08:14:34Z</time>
      </trkpt>
      <trkpt lat="47.84993" lon="6.76427">
        <ele>861.9</ele>
        <time>2022-08-17T08:14:35Z</time>
      </trkpt>
      <trkpt lat="47.84993" lon="6.76426">
        <ele>861.8</ele>
        <time>2022-08-17T08:14:36Z</time>
      </trkpt>
      <trkpt lat="47.84993" lon="6.76425">
        <ele>861.7</ele>
        <time>2022-08-17T08:14:37Z</time>
      </trkpt>
      <trkpt lat="47.84993" lon="6.76424">
        <ele>861.6</ele>
        <time>2022-08-17T08:14:39Z</time>
      </trkpt>
      <trkpt lat="47.84993" lon="6.76423">
        <ele>861.5</ele>
        <time>2022-08-17T08:14:40Z</time>
      </trkpt>
      <trkpt lat="47.84993" lon="6.76422">
        <ele>861.3</ele>
        <time>2022-08-17T08:14:41Z</time>
      </trkpt>
      <trkpt lat="47.84993" lon="6.76421">
        <ele>861.2</ele>
        <time>2022-08-17T08:14:42Z</time>
      </trkpt>
      <trkpt lat="47.84992" lon="6.7642">
        <ele>861.5</ele>
        <time>2022-08-17T08:14:43Z</time>
      </trkpt>
      <trkpt lat="47.84991" lon="6.76419">
        <ele>861.8</ele>
        <time>2022-08-17T08:14:45Z</time>
      </trkpt>
      <trkpt lat="47.84991" lon="6.76417">
        <ele>861.6</ele>
        <time>2022-08-17T08:14:46Z</time>
      </trkpt>
      <trkpt lat="47.8499" lon="6.76416">
        <ele>861.9</ele>
        <time>2022-08-17T08:14:47Z</time>
      </trkpt>
      <trkpt lat="47.8499" lon="6.76415">
        <ele>861.9</ele>
        <time>2022-08-17T08:14:48Z</time>
      </trkpt>
      <trkpt lat="47.8499" lon="6.76413">
        <ele>861.7</ele>
        <time>2022-08-17T08:14:49Z</time>
      </trkpt>
      <trkpt lat="47.84989" lon="6.76412">
        <ele>862.1</ele>
        <time>2022-08-17T08:14:50Z</time>
      </trkpt>
      <trkpt lat="47.84989" lon="6.7641">
        <ele>862</ele>
        <time>2022-08-17T08:14:51Z</time>
      </trkpt>
      <trkpt lat="47.84989" lon="6.76409">
        <ele>861.9</ele>
        <time>2022-08-17T08:14:52Z</time>
      </trkpt>
      <trkpt lat="47.84989" lon="6.76408">
        <ele>861.9</ele>
        <time>2022-08-17T08:14:53Z</time>
      </trkpt>
      <trkpt lat="47.84989" lon="6.76407">
        <ele>861.8</ele>
        <time>2022-08-17T08:14:54Z</time>
      </trkpt>
      <trkpt lat="47.84989" lon="6.76405">
        <ele>861.7</ele>
        <time>2022-08-17T08:14:55Z</time>
      </trkpt>
      <trkpt lat="47.84989" lon="6.76404">
        <ele>861.6</ele>
        <time>2022-08-17T08:14:56Z</time>
      </trkpt>
      <trkpt lat="47.84989" lon="6.76403">
        <ele>861.6</ele>
        <time>2022-08-17T08:14:57Z</time>
      </trkpt>
      <trkpt lat="47.84989" lon="6.76402">
        <ele>861.5</ele>
        <time>2022-08-17T08:14:58Z</time>
      </trkpt>
      <trkpt lat="47.84989" lon="6.76401">
        <ele>861.5</ele>
        <time>2022-08-17T08:14:59Z</time>
      </trkpt>
      <trkpt lat="47.8499" lon="6.764">
        <ele>861</ele>
        <time>2022-08-17T08:15:00Z</time>
      </trkpt>
      <trkpt lat="47.8499" lon="6.76398">
        <ele>860.9</ele>
        <time>2022-08-17T08:15:01Z</time>
      </trkpt>
      <trkpt lat="47.8499" lon="6.76397">
        <ele>860.8</ele>
        <time>2022-08-17T08:15:02Z</time>
      </trkpt>
      <trkpt lat="47.8499" lon="6.76395">
        <ele>860.7</ele>
        <time>2022-08-17T08:15:03Z</time>
      </trkpt>
      <trkpt lat="47.8499" lon="6.76394">
        <ele>860.6</ele>
        <time>2022-08-17T08:15:04Z</time>
      </trkpt>
      <trkpt lat="47.8499" lon="6.76393">
        <ele>860.6</ele>
        <time>2022-08-17T08:15:05Z</time>
      </trkpt>
      <trkpt lat="47.8499" lon="6.76392">
        <ele>860.5</ele>
        <time>2022-08-17T08:15:06Z</time>
      </trkpt>
      <trkpt lat="47.8499" lon="6.76391">
        <ele>860.4</ele>
        <time>2022-08-17T08:15:07Z</time>
      </trkpt>
      <trkpt lat="47.8499" lon="6.7639">
        <ele>860.4</ele>
        <time>2022-08-17T08:15:08Z</time>
      </trkpt>
      <trkpt lat="47.8499" lon="6.76389">
        <ele>860.3</ele>
        <time>2022-08-17T08:15:09Z</time>
      </trkpt>
      <trkpt lat="47.8499" lon="6.76388">
        <ele>860.2</ele>
        <time>2022-08-17T08:15:10Z</time>
      </trkpt>
      <trkpt lat="47.8499" lon="6.76387">
        <ele>860.2</ele>
        <time>2022-08-17T08:15:11Z</time>
      </trkpt>
      <trkpt lat="47.84989" lon="6.76386">
        <ele>860.5</ele>
        <time>2022-08-17T08:15:12Z</time>
      </trkpt>
      <trkpt lat="47.84989" lon="6.76385">
        <ele>860.4</ele>
        <time>2022-08-17T08:15:13Z</time>
      </trkpt>
      <trkpt lat="47.84989" lon="6.76384">
        <ele>860.3</ele>
        <time>2022-08-17T08:15:15Z</time>
      </trkpt>
      <trkpt lat="47.84989" lon="6.76383">
        <ele>860.2</ele>
        <time>2022-08-17T08:15:16Z</time>
      </trkpt>
      <trkpt lat="47.84989" lon="6.76382">
        <ele>860.2</ele>
        <time>2022-08-17T08:15:17Z</time>
      </trkpt>
      <trkpt lat="47.84989" lon="6.76381">
        <ele>860.1</ele>
        <time>2022-08-17T08:15:18Z</time>
      </trkpt>
      <trkpt lat="47.84989" lon="6.7638">
        <ele>860</ele>
        <time>2022-08-17T08:15:19Z</time>
      </trkpt>
      <trkpt lat="47.84989" lon="6.76379">
        <ele>859.9</ele>
        <time>2022-08-17T08:15:20Z</time>
      </trkpt>
      <trkpt lat="47.84988" lon="6.76378">
        <ele>860.2</ele>
        <time>2022-08-17T08:15:21Z</time>
      </trkpt>
      <trkpt lat="47.84988" lon="6.76377">
        <ele>860.1</ele>
        <time>2022-08-17T08:15:22Z</time>
      </trkpt>
      <trkpt lat="47.84987" lon="6.76377">
        <ele>860.6</ele>
        <time>2022-08-17T08:15:23Z</time>
      </trkpt>
      <trkpt lat="47.84987" lon="6.76376">
        <ele>860.5</ele>
        <time>2022-08-17T08:15:24Z</time>
      </trkpt>
      <trkpt lat="47.84986" lon="6.76375">
        <ele>860.8</ele>
        <time>2022-08-17T08:15:25Z</time>
      </trkpt>
      <trkpt lat="47.84987" lon="6.76373">
        <ele>860.2</ele>
        <time>2022-08-17T08:15:26Z</time>
      </trkpt>
      <trkpt lat="47.84987" lon="6.76372">
        <ele>860.1</ele>
        <time>2022-08-17T08:15:27Z</time>
      </trkpt>
      <trkpt lat="47.84987" lon="6.7637">
        <ele>859.9</ele>
        <time>2022-08-17T08:15:28Z</time>
      </trkpt>
      <trkpt lat="47.84988" lon="6.76368">
        <ele>859.4</ele>
        <time>2022-08-17T08:15:29Z</time>
      </trkpt>
      <trkpt lat="47.84988" lon="6.76366">
        <ele>859.2</ele>
        <time>2022-08-17T08:15:30Z</time>
      </trkpt>
      <trkpt lat="47.84988" lon="6.76364">
        <ele>859</ele>
        <time>2022-08-17T08:15:31Z</time>
      </trkpt>
      <trkpt lat="47.84989" lon="6.76363">
        <ele>858.5</ele>
        <time>2022-08-17T08:15:32Z</time>
      </trkpt>
      <trkpt lat="47.84989" lon="6.76362">
        <ele>858.4</ele>
        <time>2022-08-17T08:15:33Z</time>
      </trkpt>
      <trkpt lat="47.84989" lon="6.76361">
        <ele>858.4</ele>
        <time>2022-08-17T08:15:34Z</time>
      </trkpt>
      <trkpt lat="47.84989" lon="6.76359">
        <ele>858.3</ele>
        <time>2022-08-17T08:15:35Z</time>
      </trkpt>
      <trkpt lat="47.84988" lon="6.76358">
        <ele>858.6</ele>
        <time>2022-08-17T08:15:36Z</time>
      </trkpt>
      <trkpt lat="47.84988" lon="6.76357">
        <ele>858.6</ele>
        <time>2022-08-17T08:15:37Z</time>
      </trkpt>
      <trkpt lat="47.84988" lon="6.76356">
        <ele>858.6</ele>
        <time>2022-08-17T08:15:38Z</time>
      </trkpt>
      <trkpt lat="47.84988" lon="6.76355">
        <ele>858.5</ele>
        <time>2022-08-17T08:15:39Z</time>
      </trkpt>
      <trkpt lat="47.84988" lon="6.76353">
        <ele>858.5</ele>
        <time>2022-08-17T08:15:45Z</time>
      </trkpt>
      <trkpt lat="47.84988" lon="6.76352">
        <ele>858.4</ele>
        <time>2022-08-17T08:15:46Z</time>
      </trkpt>
      <trkpt lat="47.84988" lon="6.7635">
        <ele>858.4</ele>
        <time>2022-08-17T08:15:47Z</time>
      </trkpt>
      <trkpt lat="47.84989" lon="6.76349">
        <ele>857.9</ele>
        <time>2022-08-17T08:15:48Z</time>
      </trkpt>
      <trkpt lat="47.84989" lon="6.76347">
        <ele>857.8</ele>
        <time>2022-08-17T08:15:49Z</time>
      </trkpt>
      <trkpt lat="47.84989" lon="6.76345">
        <ele>857.8</ele>
        <time>2022-08-17T08:15:50Z</time>
      </trkpt>
      <trkpt lat="47.84989" lon="6.76343">
        <ele>857.7</ele>
        <time>2022-08-17T08:15:51Z</time>
      </trkpt>
      <trkpt lat="47.84989" lon="6.76342">
        <ele>857.7</ele>
        <time>2022-08-17T08:15:53Z</time>
      </trkpt>
      <trkpt lat="47.84989" lon="6.76341">
        <ele>857.6</ele>
        <time>2022-08-17T08:15:54Z</time>
      </trkpt>
      <trkpt lat="47.84989" lon="6.7634">
        <ele>857.6</ele>
        <time>2022-08-17T08:15:55Z</time>
      </trkpt>
      <trkpt lat="47.84989" lon="6.76339">
        <ele>857.6</ele>
        <time>2022-08-17T08:15:56Z</time>
      </trkpt>
      <trkpt lat="47.84989" lon="6.76338">
        <ele>857.5</ele>
        <time>2022-08-17T08:15:57Z</time>
      </trkpt>
      <trkpt lat="47.84989" lon="6.76337">
        <ele>857.5</ele>
        <time>2022-08-17T08:15:58Z</time>
      </trkpt>
      <trkpt lat="47.8499" lon="6.76336">
        <ele>857.1</ele>
        <time>2022-08-17T08:15:59Z</time>
      </trkpt>
      <trkpt lat="47.84991" lon="6.76335">
        <ele>856.6</ele>
        <time>2022-08-17T08:16:06Z</time>
      </trkpt>
      <trkpt lat="47.84991" lon="6.76334">
        <ele>856.6</ele>
        <time>2022-08-17T08:16:08Z</time>
      </trkpt>
      <trkpt lat="47.84991" lon="6.76333">
        <ele>856.6</ele>
        <time>2022-08-17T08:16:10Z</time>
      </trkpt>
      <trkpt lat="47.8499" lon="6.76332">
        <ele>856.9</ele>
        <time>2022-08-17T08:16:11Z</time>
      </trkpt>
      <trkpt lat="47.84989" lon="6.76331">
        <ele>857.3</ele>
        <time>2022-08-17T08:16:12Z</time>
      </trkpt>
      <trkpt lat="47.84989" lon="6.7633">
        <ele>857.2</ele>
        <time>2022-08-17T08:16:13Z</time>
      </trkpt>
      <trkpt lat="47.84988" lon="6.76328">
        <ele>857.6</ele>
        <time>2022-08-17T08:16:14Z</time>
      </trkpt>
      <trkpt lat="47.84988" lon="6.76326">
        <ele>857.5</ele>
        <time>2022-08-17T08:16:15Z</time>
      </trkpt>
      <trkpt lat="47.84988" lon="6.76325">
        <ele>857.5</ele>
        <time>2022-08-17T08:16:16Z</time>
      </trkpt>
      <trkpt lat="47.84988" lon="6.76323">
        <ele>857.4</ele>
        <time>2022-08-17T08:16:17Z</time>
      </trkpt>
      <trkpt lat="47.84988" lon="6.76321">
        <ele>857.3</ele>
        <time>2022-08-17T08:16:18Z</time>
      </trkpt>
      <trkpt lat="47.84989" lon="6.7632">
        <ele>856.9</ele>
        <time>2022-08-17T08:16:19Z</time>
      </trkpt>
      <trkpt lat="47.84989" lon="6.76318">
        <ele>856.8</ele>
        <time>2022-08-17T08:16:20Z</time>
      </trkpt>
      <trkpt lat="47.84989" lon="6.76316">
        <ele>856.7</ele>
        <time>2022-08-17T08:16:21Z</time>
      </trkpt>
      <trkpt lat="47.8499" lon="6.76315">
        <ele>856.3</ele>
        <time>2022-08-17T08:16:22Z</time>
      </trkpt>
      <trkpt lat="47.8499" lon="6.76313">
        <ele>856.2</ele>
        <time>2022-08-17T08:16:23Z</time>
      </trkpt>
      <trkpt lat="47.8499" lon="6.76311">
        <ele>856.2</ele>
        <time>2022-08-17T08:16:24Z</time>
      </trkpt>
      <trkpt lat="47.84991" lon="6.7631">
        <ele>855.7</ele>
        <time>2022-08-17T08:16:25Z</time>
      </trkpt>
      <trkpt lat="47.84991" lon="6.76308">
        <ele>855.7</ele>
        <time>2022-08-17T08:16:26Z</time>
      </trkpt>
      <trkpt lat="47.84991" lon="6.76306">
        <ele>855.6</ele>
        <time>2022-08-17T08:16:27Z</time>
      </trkpt>
      <trkpt lat="47.8499" lon="6.76305">
        <ele>855.9</ele>
        <time>2022-08-17T08:16:28Z</time>
      </trkpt>
      <trkpt lat="47.8499" lon="6.76303">
        <ele>855.9</ele>
        <time>2022-08-17T08:16:29Z</time>
      </trkpt>
      <trkpt lat="47.8499" lon="6.76302">
        <ele>855.9</ele>
        <time>2022-08-17T08:16:30Z</time>
      </trkpt>
      <trkpt lat="47.84989" lon="6.76301">
        <ele>856.3</ele>
        <time>2022-08-17T08:16:31Z</time>
      </trkpt>
      <trkpt lat="47.84989" lon="6.763">
        <ele>856.2</ele>
        <time>2022-08-17T08:16:33Z</time>
      </trkpt>
      <trkpt lat="47.84989" lon="6.76299">
        <ele>856.2</ele>
        <time>2022-08-17T08:16:34Z</time>
      </trkpt>
      <trkpt lat="47.84988" lon="6.76297">
        <ele>856.6</ele>
        <time>2022-08-17T08:16:35Z</time>
      </trkpt>
      <trkpt lat="47.84988" lon="6.76296">
        <ele>856.6</ele>
        <time>2022-08-17T08:16:36Z</time>
      </trkpt>
      <trkpt lat="47.84988" lon="6.76294">
        <ele>856.5</ele>
        <time>2022-08-17T08:16:37Z</time>
      </trkpt>
      <trkpt lat="47.84989" lon="6.76293">
        <ele>856.1</ele>
        <time>2022-08-17T08:16:38Z</time>
      </trkpt>
      <trkpt lat="47.84989" lon="6.76291">
        <ele>856</ele>
        <time>2022-08-17T08:16:39Z</time>
      </trkpt>
      <trkpt lat="47.84989" lon="6.7629">
        <ele>856</ele>
        <time>2022-08-17T08:16:40Z</time>
      </trkpt>
      <trkpt lat="47.84989" lon="6.76288">
        <ele>856</ele>
        <time>2022-08-17T08:16:41Z</time>
      </trkpt>
      <trkpt lat="47.84989" lon="6.76287">
        <ele>856</ele>
        <time>2022-08-17T08:16:42Z</time>
      </trkpt>
      <trkpt lat="47.84989" lon="6.76285">
        <ele>855.9</ele>
        <time>2022-08-17T08:16:43Z</time>
      </trkpt>
      <trkpt lat="47.84989" lon="6.76284">
        <ele>855.9</ele>
        <time>2022-08-17T08:16:44Z</time>
      </trkpt>
      <trkpt lat="47.84989" lon="6.76282">
        <ele>855.8</ele>
        <time>2022-08-17T08:16:45Z</time>
      </trkpt>
      <trkpt lat="47.8499" lon="6.76281">
        <ele>855.4</ele>
        <time>2022-08-17T08:16:46Z</time>
      </trkpt>
      <trkpt lat="47.8499" lon="6.76279">
        <ele>855.3</ele>
        <time>2022-08-17T08:16:47Z</time>
      </trkpt>
      <trkpt lat="47.84991" lon="6.76278">
        <ele>854.9</ele>
        <time>2022-08-17T08:16:48Z</time>
      </trkpt>
      <trkpt lat="47.84991" lon="6.76277">
        <ele>854.8</ele>
        <time>2022-08-17T08:16:49Z</time>
      </trkpt>
      <trkpt lat="47.84991" lon="6.76275">
        <ele>854.7</ele>
        <time>2022-08-17T08:16:50Z</time>
      </trkpt>
      <trkpt lat="47.84991" lon="6.76274">
        <ele>854.7</ele>
        <time>2022-08-17T08:16:51Z</time>
      </trkpt>
      <trkpt lat="47.84991" lon="6.76272">
        <ele>854.5</ele>
        <time>2022-08-17T08:16:52Z</time>
      </trkpt>
      <trkpt lat="47.8499" lon="6.76271">
        <ele>854.9</ele>
        <time>2022-08-17T08:16:53Z</time>
      </trkpt>
      <trkpt lat="47.8499" lon="6.7627">
        <ele>854.9</ele>
        <time>2022-08-17T08:16:54Z</time>
      </trkpt>
      <trkpt lat="47.8499" lon="6.76268">
        <ele>854.7</ele>
        <time>2022-08-17T08:16:55Z</time>
      </trkpt>
      <trkpt lat="47.8499" lon="6.76267">
        <ele>854.7</ele>
        <time>2022-08-17T08:16:56Z</time>
      </trkpt>
      <trkpt lat="47.8499" lon="6.76266">
        <ele>854.6</ele>
        <time>2022-08-17T08:16:57Z</time>
      </trkpt>
      <trkpt lat="47.8499" lon="6.76264">
        <ele>854.5</ele>
        <time>2022-08-17T08:16:58Z</time>
      </trkpt>
      <trkpt lat="47.8499" lon="6.76263">
        <ele>854.4</ele>
        <time>2022-08-17T08:16:59Z</time>
      </trkpt>
      <trkpt lat="47.8499" lon="6.76262">
        <ele>854.4</ele>
        <time>2022-08-17T08:17:00Z</time>
      </trkpt>
      <trkpt lat="47.8499" lon="6.76261">
        <ele>854.3</ele>
        <time>2022-08-17T08:17:01Z</time>
      </trkpt>
      <trkpt lat="47.8499" lon="6.7626">
        <ele>854.3</ele>
        <time>2022-08-17T08:17:02Z</time>
      </trkpt>
      <trkpt lat="47.84989" lon="6.76258">
        <ele>854.6</ele>
        <time>2022-08-17T08:17:03Z</time>
      </trkpt>
      <trkpt lat="47.84989" lon="6.76257">
        <ele>854.6</ele>
        <time>2022-08-17T08:17:04Z</time>
      </trkpt>
      <trkpt lat="47.84989" lon="6.76255">
        <ele>854.4</ele>
        <time>2022-08-17T08:17:05Z</time>
      </trkpt>
      <trkpt lat="47.84989" lon="6.76254">
        <ele>854.4</ele>
        <time>2022-08-17T08:17:06Z</time>
      </trkpt>
      <trkpt lat="47.84989" lon="6.76252">
        <ele>854.3</ele>
        <time>2022-08-17T08:17:07Z</time>
      </trkpt>
      <trkpt lat="47.84989" lon="6.76251">
        <ele>854.2</ele>
        <time>2022-08-17T08:17:08Z</time>
      </trkpt>
      <trkpt lat="47.84989" lon="6.7625">
        <ele>854.1</ele>
        <time>2022-08-17T08:17:09Z</time>
      </trkpt>
      <trkpt lat="47.84989" lon="6.76249">
        <ele>854.1</ele>
        <time>2022-08-17T08:17:10Z</time>
      </trkpt>
      <trkpt lat="47.84989" lon="6.76248">
        <ele>854</ele>
        <time>2022-08-17T08:17:11Z</time>
      </trkpt>
      <trkpt lat="47.84989" lon="6.76246">
        <ele>853.9</ele>
        <time>2022-08-17T08:17:12Z</time>
      </trkpt>
      <trkpt lat="47.8499" lon="6.76245">
        <ele>853.4</ele>
        <time>2022-08-17T08:17:13Z</time>
      </trkpt>
      <trkpt lat="47.8499" lon="6.76244">
        <ele>853.3</ele>
        <time>2022-08-17T08:17:14Z</time>
      </trkpt>
      <trkpt lat="47.84991" lon="6.76242">
        <ele>852.7</ele>
        <time>2022-08-17T08:17:15Z</time>
      </trkpt>
      <trkpt lat="47.84991" lon="6.76241">
        <ele>852.7</ele>
        <time>2022-08-17T08:17:16Z</time>
      </trkpt>
      <trkpt lat="47.84991" lon="6.76239">
        <ele>852.5</ele>
        <time>2022-08-17T08:17:17Z</time>
      </trkpt>
      <trkpt lat="47.84992" lon="6.76238">
        <ele>852</ele>
        <time>2022-08-17T08:17:18Z</time>
      </trkpt>
      <trkpt lat="47.84992" lon="6.76236">
        <ele>851.9</ele>
        <time>2022-08-17T08:17:19Z</time>
      </trkpt>
      <trkpt lat="47.84993" lon="6.76235">
        <ele>851.3</ele>
        <time>2022-08-17T08:17:20Z</time>
      </trkpt>
      <trkpt lat="47.84993" lon="6.76233">
        <ele>851.2</ele>
        <time>2022-08-17T08:17:21Z</time>
      </trkpt>
      <trkpt lat="47.84994" lon="6.76232">
        <ele>850.7</ele>
        <time>2022-08-17T08:17:22Z</time>
      </trkpt>
      <trkpt lat="47.84994" lon="6.7623">
        <ele>850.5</ele>
        <time>2022-08-17T08:17:23Z</time>
      </trkpt>
      <trkpt lat="47.84995" lon="6.76228">
        <ele>849.9</ele>
        <time>2022-08-17T08:17:24Z</time>
      </trkpt>
      <trkpt lat="47.84996" lon="6.76227">
        <ele>849.3</ele>
        <time>2022-08-17T08:17:25Z</time>
      </trkpt>
      <trkpt lat="47.84997" lon="6.76225">
        <ele>848.7</ele>
        <time>2022-08-17T08:17:26Z</time>
      </trkpt>
      <trkpt lat="47.84998" lon="6.76224">
        <ele>848.1</ele>
        <time>2022-08-17T08:17:27Z</time>
      </trkpt>
      <trkpt lat="47.84999" lon="6.76222">
        <ele>847.5</ele>
        <time>2022-08-17T08:17:28Z</time>
      </trkpt>
      <trkpt lat="47.84999" lon="6.76221">
        <ele>847.4</ele>
        <time>2022-08-17T08:17:29Z</time>
      </trkpt>
      <trkpt lat="47.84999" lon="6.7622">
        <ele>847.3</ele>
        <time>2022-08-17T08:17:30Z</time>
      </trkpt>
      <trkpt lat="47.84999" lon="6.76218">
        <ele>847.2</ele>
        <time>2022-08-17T08:17:31Z</time>
      </trkpt>
      <trkpt lat="47.84999" lon="6.76217">
        <ele>847.1</ele>
        <time>2022-08-17T08:17:32Z</time>
      </trkpt>
      <trkpt lat="47.84999" lon="6.76215">
        <ele>847</ele>
        <time>2022-08-17T08:17:33Z</time>
      </trkpt>
      <trkpt lat="47.84999" lon="6.76213">
        <ele>846.9</ele>
        <time>2022-08-17T08:17:34Z</time>
      </trkpt>
      <trkpt lat="47.84998" lon="6.76211">
        <ele>847.2</ele>
        <time>2022-08-17T08:17:35Z</time>
      </trkpt>
      <trkpt lat="47.84998" lon="6.7621">
        <ele>847.2</ele>
        <time>2022-08-17T08:17:36Z</time>
      </trkpt>
      <trkpt lat="47.84997" lon="6.76208">
        <ele>847.5</ele>
        <time>2022-08-17T08:17:37Z</time>
      </trkpt>
      <trkpt lat="47.84997" lon="6.76206">
        <ele>847.4</ele>
        <time>2022-08-17T08:17:38Z</time>
      </trkpt>
      <trkpt lat="47.84997" lon="6.76205">
        <ele>847.3</ele>
        <time>2022-08-17T08:17:39Z</time>
      </trkpt>
      <trkpt lat="47.84997" lon="6.76204">
        <ele>847.3</ele>
        <time>2022-08-17T08:17:40Z</time>
      </trkpt>
      <trkpt lat="47.84997" lon="6.76202">
        <ele>847.1</ele>
        <time>2022-08-17T08:17:41Z</time>
      </trkpt>
      <trkpt lat="47.84997" lon="6.76201">
        <ele>847.1</ele>
        <time>2022-08-17T08:17:42Z</time>
      </trkpt>
      <trkpt lat="47.84998" lon="6.762">
        <ele>846.5</ele>
        <time>2022-08-17T08:17:43Z</time>
      </trkpt>
      <trkpt lat="47.84998" lon="6.76199">
        <ele>846.4</ele>
        <time>2022-08-17T08:17:44Z</time>
      </trkpt>
      <trkpt lat="47.84999" lon="6.76197">
        <ele>845.7</ele>
        <time>2022-08-17T08:17:45Z</time>
      </trkpt>
      <trkpt lat="47.84999" lon="6.76196">
        <ele>845.6</ele>
        <time>2022-08-17T08:17:46Z</time>
      </trkpt>
      <trkpt lat="47.84999" lon="6.76195">
        <ele>845.6</ele>
        <time>2022-08-17T08:17:47Z</time>
      </trkpt>
      <trkpt lat="47.85" lon="6.76194">
        <ele>845</ele>
        <time>2022-08-17T08:17:48Z</time>
      </trkpt>
      <trkpt lat="47.85" lon="6.76193">
        <ele>845</ele>
        <time>2022-08-17T08:17:49Z</time>
      </trkpt>
      <trkpt lat="47.85" lon="6.76192">
        <ele>845</ele>
        <time>2022-08-17T08:17:50Z</time>
      </trkpt>
      <trkpt lat="47.85001" lon="6.76192">
        <ele>844.6</ele>
        <time>2022-08-17T08:17:51Z</time>
      </trkpt>
      <trkpt lat="47.85001" lon="6.76191">
        <ele>844.6</ele>
        <time>2022-08-17T08:17:52Z</time>
      </trkpt>
      <trkpt lat="47.85001" lon="6.7619">
        <ele>844.6</ele>
        <time>2022-08-17T08:17:53Z</time>
      </trkpt>
      <trkpt lat="47.85001" lon="6.76189">
        <ele>844.6</ele>
        <time>2022-08-17T08:17:54Z</time>
      </trkpt>
      <trkpt lat="47.85001" lon="6.76188">
        <ele>844.6</ele>
        <time>2022-08-17T08:17:55Z</time>
      </trkpt>
      <trkpt lat="47.85001" lon="6.76186">
        <ele>844.6</ele>
        <time>2022-08-17T08:17:56Z</time>
      </trkpt>
      <trkpt lat="47.85" lon="6.76185">
        <ele>845</ele>
        <time>2022-08-17T08:17:57Z</time>
      </trkpt>
      <trkpt lat="47.85" lon="6.76184">
        <ele>845</ele>
        <time>2022-08-17T08:17:58Z</time>
      </trkpt>
      <trkpt lat="47.85" lon="6.76182">
        <ele>845</ele>
        <time>2022-08-17T08:17:59Z</time>
      </trkpt>
      <trkpt lat="47.84999" lon="6.76181">
        <ele>845.5</ele>
        <time>2022-08-17T08:18:00Z</time>
      </trkpt>
      <trkpt lat="47.84999" lon="6.76179">
        <ele>845.5</ele>
        <time>2022-08-17T08:18:01Z</time>
      </trkpt>
      <trkpt lat="47.84999" lon="6.76177">
        <ele>845.5</ele>
        <time>2022-08-17T08:18:02Z</time>
      </trkpt>
      <trkpt lat="47.84999" lon="6.76176">
        <ele>845.5</ele>
        <time>2022-08-17T08:18:03Z</time>
      </trkpt>
      <trkpt lat="47.84999" lon="6.76174">
        <ele>845.5</ele>
        <time>2022-08-17T08:18:04Z</time>
      </trkpt>
      <trkpt lat="47.84999" lon="6.76173">
        <ele>845.5</ele>
        <time>2022-08-17T08:18:05Z</time>
      </trkpt>
      <trkpt lat="47.84999" lon="6.76171">
        <ele>845.5</ele>
        <time>2022-08-17T08:18:06Z</time>
      </trkpt>
      <trkpt lat="47.84999" lon="6.7617">
        <ele>845.5</ele>
        <time>2022-08-17T08:18:07Z</time>
      </trkpt>
      <trkpt lat="47.84999" lon="6.76168">
        <ele>845.5</ele>
        <time>2022-08-17T08:18:08Z</time>
      </trkpt>
      <trkpt lat="47.84999" lon="6.76166">
        <ele>845.6</ele>
        <time>2022-08-17T08:18:09Z</time>
      </trkpt>
      <trkpt lat="47.84999" lon="6.76163">
        <ele>845.8</ele>
        <time>2022-08-17T08:18:10Z</time>
      </trkpt>
      <trkpt lat="47.84999" lon="6.76161">
        <ele>845.9</ele>
        <time>2022-08-17T08:18:11Z</time>
      </trkpt>
      <trkpt lat="47.85" lon="6.76159">
        <ele>845.6</ele>
        <time>2022-08-17T08:18:12Z</time>
      </trkpt>
      <trkpt lat="47.85" lon="6.76158">
        <ele>845.6</ele>
        <time>2022-08-17T08:18:13Z</time>
      </trkpt>
      <trkpt lat="47.85001" lon="6.76156">
        <ele>845.3</ele>
        <time>2022-08-17T08:18:14Z</time>
      </trkpt>
      <trkpt lat="47.85001" lon="6.76155">
        <ele>845.3</ele>
        <time>2022-08-17T08:18:15Z</time>
      </trkpt>
      <trkpt lat="47.85002" lon="6.76154">
        <ele>844.9</ele>
        <time>2022-08-17T08:18:16Z</time>
      </trkpt>
      <trkpt lat="47.85002" lon="6.76153">
        <ele>845</ele>
        <time>2022-08-17T08:18:17Z</time>
      </trkpt>
      <trkpt lat="47.85003" lon="6.76152">
        <ele>844.5</ele>
        <time>2022-08-17T08:18:18Z</time>
      </trkpt>
      <trkpt lat="47.85003" lon="6.76151">
        <ele>844.6</ele>
        <time>2022-08-17T08:18:19Z</time>
      </trkpt>
      <trkpt lat="47.85004" lon="6.76149">
        <ele>844.2</ele>
        <time>2022-08-17T08:18:20Z</time>
      </trkpt>
      <trkpt lat="47.85005" lon="6.76148">
        <ele>843.8</ele>
        <time>2022-08-17T08:18:21Z</time>
      </trkpt>
      <trkpt lat="47.85005" lon="6.76147">
        <ele>843.8</ele>
        <time>2022-08-17T08:18:22Z</time>
      </trkpt>
      <trkpt lat="47.85006" lon="6.76145">
        <ele>843.4</ele>
        <time>2022-08-17T08:18:23Z</time>
      </trkpt>
      <trkpt lat="47.85006" lon="6.76143">
        <ele>843.5</ele>
        <time>2022-08-17T08:18:24Z</time>
      </trkpt>
      <trkpt lat="47.85007" lon="6.76142">
        <ele>843.1</ele>
        <time>2022-08-17T08:18:25Z</time>
      </trkpt>
      <trkpt lat="47.85007" lon="6.7614">
        <ele>843.2</ele>
        <time>2022-08-17T08:18:26Z</time>
      </trkpt>
      <trkpt lat="47.85008" lon="6.76138">
        <ele>842.7</ele>
        <time>2022-08-17T08:18:27Z</time>
      </trkpt>
      <trkpt lat="47.85009" lon="6.76136">
        <ele>842.2</ele>
        <time>2022-08-17T08:18:28Z</time>
      </trkpt>
      <trkpt lat="47.8501" lon="6.76135">
        <ele>841.7</ele>
        <time>2022-08-17T08:18:29Z</time>
      </trkpt>
      <trkpt lat="47.85011" lon="6.76134">
        <ele>841.2</ele>
        <time>2022-08-17T08:18:30Z</time>
      </trkpt>
      <trkpt lat="47.85012" lon="6.76133">
        <ele>840.7</ele>
        <time>2022-08-17T08:18:32Z</time>
      </trkpt>
      <trkpt lat="47.85013" lon="6.76132">
        <ele>840.2</ele>
        <time>2022-08-17T08:18:34Z</time>
      </trkpt>
      <trkpt lat="47.85014" lon="6.7613">
        <ele>839.8</ele>
        <time>2022-08-17T08:18:35Z</time>
      </trkpt>
      <trkpt lat="47.85014" lon="6.76129">
        <ele>839.8</ele>
        <time>2022-08-17T08:18:36Z</time>
      </trkpt>
      <trkpt lat="47.85015" lon="6.76129">
        <ele>839.3</ele>
        <time>2022-08-17T08:18:37Z</time>
      </trkpt>
      <trkpt lat="47.85015" lon="6.76128">
        <ele>839.3</ele>
        <time>2022-08-17T08:18:38Z</time>
      </trkpt>
      <trkpt lat="47.85015" lon="6.76127">
        <ele>839.3</ele>
        <time>2022-08-17T08:18:39Z</time>
      </trkpt>
      <trkpt lat="47.85015" lon="6.76126">
        <ele>839.4</ele>
        <time>2022-08-17T08:18:40Z</time>
      </trkpt>
      <trkpt lat="47.85016" lon="6.76125">
        <ele>838.9</ele>
        <time>2022-08-17T08:18:41Z</time>
      </trkpt>
      <trkpt lat="47.85016" lon="6.76124">
        <ele>838.9</ele>
        <time>2022-08-17T08:18:42Z</time>
      </trkpt>
      <trkpt lat="47.85016" lon="6.76123">
        <ele>838.9</ele>
        <time>2022-08-17T08:18:43Z</time>
      </trkpt>
      <trkpt lat="47.85016" lon="6.76122">
        <ele>839</ele>
        <time>2022-08-17T08:18:44Z</time>
      </trkpt>
      <trkpt lat="47.85016" lon="6.7612">
        <ele>839</ele>
        <time>2022-08-17T08:18:45Z</time>
      </trkpt>
      <trkpt lat="47.85016" lon="6.76119">
        <ele>839.1</ele>
        <time>2022-08-17T08:18:46Z</time>
      </trkpt>
      <trkpt lat="47.85016" lon="6.76118">
        <ele>839.1</ele>
        <time>2022-08-17T08:18:47Z</time>
      </trkpt>
      <trkpt lat="47.85017" lon="6.76117">
        <ele>838.6</ele>
        <time>2022-08-17T08:18:48Z</time>
      </trkpt>
      <trkpt lat="47.85017" lon="6.76116">
        <ele>838.6</ele>
        <time>2022-08-17T08:18:49Z</time>
      </trkpt>
      <trkpt lat="47.85017" lon="6.76115">
        <ele>838.7</ele>
        <time>2022-08-17T08:18:50Z</time>
      </trkpt>
      <trkpt lat="47.85017" lon="6.76114">
        <ele>838.7</ele>
        <time>2022-08-17T08:18:51Z</time>
      </trkpt>
      <trkpt lat="47.85017" lon="6.76112">
        <ele>838.8</ele>
        <time>2022-08-17T08:18:52Z</time>
      </trkpt>
      <trkpt lat="47.85018" lon="6.76111">
        <ele>838.3</ele>
        <time>2022-08-17T08:18:53Z</time>
      </trkpt>
      <trkpt lat="47.85019" lon="6.76109">
        <ele>837.8</ele>
        <time>2022-08-17T08:18:54Z</time>
      </trkpt>
      <trkpt lat="47.85019" lon="6.76108">
        <ele>837.8</ele>
        <time>2022-08-17T08:18:56Z</time>
      </trkpt>
      <trkpt lat="47.85019" lon="6.76107">
        <ele>837.8</ele>
        <time>2022-08-17T08:18:57Z</time>
      </trkpt>
      <trkpt lat="47.85019" lon="6.76106">
        <ele>837.8</ele>
        <time>2022-08-17T08:18:58Z</time>
      </trkpt>
      <trkpt lat="47.85019" lon="6.76104">
        <ele>837.8</ele>
        <time>2022-08-17T08:18:59Z</time>
      </trkpt>
      <trkpt lat="47.85019" lon="6.76102">
        <ele>837.8</ele>
        <time>2022-08-17T08:19:00Z</time>
      </trkpt>
      <trkpt lat="47.85019" lon="6.76101">
        <ele>837.9</ele>
        <time>2022-08-17T08:19:01Z</time>
      </trkpt>
      <trkpt lat="47.85019" lon="6.76099">
        <ele>837.9</ele>
        <time>2022-08-17T08:19:02Z</time>
      </trkpt>
      <trkpt lat="47.8502" lon="6.76097">
        <ele>837.3</ele>
        <time>2022-08-17T08:19:03Z</time>
      </trkpt>
      <trkpt lat="47.8502" lon="6.76096">
        <ele>837.4</ele>
        <time>2022-08-17T08:19:04Z</time>
      </trkpt>
      <trkpt lat="47.85021" lon="6.76095">
        <ele>836.8</ele>
        <time>2022-08-17T08:19:05Z</time>
      </trkpt>
      <trkpt lat="47.85021" lon="6.76093">
        <ele>836.8</ele>
        <time>2022-08-17T08:19:06Z</time>
      </trkpt>
      <trkpt lat="47.85021" lon="6.76092">
        <ele>836.8</ele>
        <time>2022-08-17T08:19:07Z</time>
      </trkpt>
      <trkpt lat="47.85022" lon="6.76091">
        <ele>836.3</ele>
        <time>2022-08-17T08:19:08Z</time>
      </trkpt>
      <trkpt lat="47.85022" lon="6.7609">
        <ele>836.3</ele>
        <time>2022-08-17T08:19:09Z</time>
      </trkpt>
      <trkpt lat="47.85022" lon="6.76089">
        <ele>836.3</ele>
        <time>2022-08-17T08:19:10Z</time>
      </trkpt>
      <trkpt lat="47.85023" lon="6.76089">
        <ele>835.7</ele>
        <time>2022-08-17T08:19:11Z</time>
      </trkpt>
      <trkpt lat="47.85023" lon="6.76088">
        <ele>835.7</ele>
        <time>2022-08-17T08:19:12Z</time>
      </trkpt>
      <trkpt lat="47.85023" lon="6.76087">
        <ele>835.7</ele>
        <time>2022-08-17T08:19:13Z</time>
      </trkpt>
      <trkpt lat="47.85023" lon="6.76086">
        <ele>835.7</ele>
        <time>2022-08-17T08:19:14Z</time>
      </trkpt>
      <trkpt lat="47.85024" lon="6.76085">
        <ele>835.2</ele>
        <time>2022-08-17T08:19:15Z</time>
      </trkpt>
      <trkpt lat="47.85024" lon="6.76084">
        <ele>835.2</ele>
        <time>2022-08-17T08:19:16Z</time>
      </trkpt>
      <trkpt lat="47.85024" lon="6.76083">
        <ele>835.2</ele>
        <time>2022-08-17T08:19:17Z</time>
      </trkpt>
      <trkpt lat="47.85025" lon="6.76082">
        <ele>834.7</ele>
        <time>2022-08-17T08:19:18Z</time>
      </trkpt>
      <trkpt lat="47.85025" lon="6.7608">
        <ele>834.8</ele>
        <time>2022-08-17T08:19:19Z</time>
      </trkpt>
      <trkpt lat="47.85025" lon="6.76079">
        <ele>834.9</ele>
        <time>2022-08-17T08:19:20Z</time>
      </trkpt>
      <trkpt lat="47.85025" lon="6.76077">
        <ele>835</ele>
        <time>2022-08-17T08:19:21Z</time>
      </trkpt>
      <trkpt lat="47.85025" lon="6.76075">
        <ele>835.1</ele>
        <time>2022-08-17T08:19:22Z</time>
      </trkpt>
      <trkpt lat="47.85025" lon="6.76074">
        <ele>835.2</ele>
        <time>2022-08-17T08:19:23Z</time>
      </trkpt>
      <trkpt lat="47.85025" lon="6.76073">
        <ele>835.3</ele>
        <time>2022-08-17T08:19:24Z</time>
      </trkpt>
      <trkpt lat="47.85026" lon="6.76071">
        <ele>834.9</ele>
        <time>2022-08-17T08:19:25Z</time>
      </trkpt>
      <trkpt lat="47.85026" lon="6.7607">
        <ele>834.9</ele>
        <time>2022-08-17T08:19:26Z</time>
      </trkpt>
      <trkpt lat="47.85026" lon="6.76068">
        <ele>835.1</ele>
        <time>2022-08-17T08:19:27Z</time>
      </trkpt>
      <trkpt lat="47.85026" lon="6.76067">
        <ele>835.1</ele>
        <time>2022-08-17T08:19:28Z</time>
      </trkpt>
      <trkpt lat="47.85026" lon="6.76066">
        <ele>835.2</ele>
        <time>2022-08-17T08:19:29Z</time>
      </trkpt>
      <trkpt lat="47.85027" lon="6.76064">
        <ele>834.8</ele>
        <time>2022-08-17T08:19:30Z</time>
      </trkpt>
      <trkpt lat="47.85027" lon="6.76063">
        <ele>834.9</ele>
        <time>2022-08-17T08:19:31Z</time>
      </trkpt>
      <trkpt lat="47.85027" lon="6.76062">
        <ele>834.9</ele>
        <time>2022-08-17T08:19:32Z</time>
      </trkpt>
      <trkpt lat="47.85027" lon="6.76061">
        <ele>835</ele>
        <time>2022-08-17T08:19:33Z</time>
      </trkpt>
      <trkpt lat="47.85027" lon="6.76059">
        <ele>835.2</ele>
        <time>2022-08-17T08:19:34Z</time>
      </trkpt>
      <trkpt lat="47.85027" lon="6.76058">
        <ele>835.2</ele>
        <time>2022-08-17T08:19:35Z</time>
      </trkpt>
      <trkpt lat="47.85027" lon="6.76057">
        <ele>835.3</ele>
        <time>2022-08-17T08:19:36Z</time>
      </trkpt>
      <trkpt lat="47.85027" lon="6.76056">
        <ele>835.4</ele>
        <time>2022-08-17T08:19:37Z</time>
      </trkpt>
      <trkpt lat="47.85027" lon="6.76054">
        <ele>835.4</ele>
        <time>2022-08-17T08:19:38Z</time>
      </trkpt>
      <trkpt lat="47.85027" lon="6.76053">
        <ele>835.4</ele>
        <time>2022-08-17T08:19:39Z</time>
      </trkpt>
      <trkpt lat="47.85027" lon="6.76052">
        <ele>835.4</ele>
        <time>2022-08-17T08:19:40Z</time>
      </trkpt>
      <trkpt lat="47.85026" lon="6.7605">
        <ele>835.9</ele>
        <time>2022-08-17T08:19:41Z</time>
      </trkpt>
      <trkpt lat="47.85027" lon="6.76049">
        <ele>835.4</ele>
        <time>2022-08-17T08:19:42Z</time>
      </trkpt>
      <trkpt lat="47.85027" lon="6.76048">
        <ele>835.4</ele>
        <time>2022-08-17T08:19:43Z</time>
      </trkpt>
      <trkpt lat="47.85027" lon="6.76046">
        <ele>835.4</ele>
        <time>2022-08-17T08:19:44Z</time>
      </trkpt>
      <trkpt lat="47.85027" lon="6.76045">
        <ele>835.4</ele>
        <time>2022-08-17T08:19:45Z</time>
      </trkpt>
      <trkpt lat="47.85027" lon="6.76043">
        <ele>835.4</ele>
        <time>2022-08-17T08:19:46Z</time>
      </trkpt>
      <trkpt lat="47.85028" lon="6.76042">
        <ele>834.9</ele>
        <time>2022-08-17T08:19:47Z</time>
      </trkpt>
      <trkpt lat="47.85028" lon="6.76041">
        <ele>834.9</ele>
        <time>2022-08-17T08:19:48Z</time>
      </trkpt>
      <trkpt lat="47.85028" lon="6.76039">
        <ele>834.9</ele>
        <time>2022-08-17T08:19:49Z</time>
      </trkpt>
      <trkpt lat="47.85029" lon="6.76038">
        <ele>834.3</ele>
        <time>2022-08-17T08:19:50Z</time>
      </trkpt>
      <trkpt lat="47.85029" lon="6.76036">
        <ele>834.3</ele>
        <time>2022-08-17T08:19:51Z</time>
      </trkpt>
      <trkpt lat="47.85029" lon="6.76035">
        <ele>834.3</ele>
        <time>2022-08-17T08:19:52Z</time>
      </trkpt>
      <trkpt lat="47.85029" lon="6.76033">
        <ele>834.3</ele>
        <time>2022-08-17T08:19:53Z</time>
      </trkpt>
      <trkpt lat="47.8503" lon="6.76032">
        <ele>833.8</ele>
        <time>2022-08-17T08:19:54Z</time>
      </trkpt>
      <trkpt lat="47.8503" lon="6.7603">
        <ele>833.8</ele>
        <time>2022-08-17T08:19:55Z</time>
      </trkpt>
      <trkpt lat="47.8503" lon="6.76029">
        <ele>833.8</ele>
        <time>2022-08-17T08:19:56Z</time>
      </trkpt>
      <trkpt lat="47.85031" lon="6.76028">
        <ele>833.3</ele>
        <time>2022-08-17T08:19:57Z</time>
      </trkpt>
      <trkpt lat="47.85031" lon="6.76026">
        <ele>833.2</ele>
        <time>2022-08-17T08:19:58Z</time>
      </trkpt>
      <trkpt lat="47.85032" lon="6.76025">
        <ele>832.6</ele>
        <time>2022-08-17T08:19:59Z</time>
      </trkpt>
      <trkpt lat="47.85032" lon="6.76024">
        <ele>832.6</ele>
        <time>2022-08-17T08:20:00Z</time>
      </trkpt>
      <trkpt lat="47.85032" lon="6.76022">
        <ele>832.5</ele>
        <time>2022-08-17T08:20:01Z</time>
      </trkpt>
      <trkpt lat="47.85033" lon="6.76021">
        <ele>832</ele>
        <time>2022-08-17T08:20:02Z</time>
      </trkpt>
      <trkpt lat="47.85033" lon="6.7602">
        <ele>832</ele>
        <time>2022-08-17T08:20:03Z</time>
      </trkpt>
      <trkpt lat="47.85033" lon="6.76019">
        <ele>831.9</ele>
        <time>2022-08-17T08:20:04Z</time>
      </trkpt>
      <trkpt lat="47.85033" lon="6.76018">
        <ele>831.9</ele>
        <time>2022-08-17T08:20:05Z</time>
      </trkpt>
      <trkpt lat="47.85033" lon="6.76017">
        <ele>831.9</ele>
        <time>2022-08-17T08:20:06Z</time>
      </trkpt>
      <trkpt lat="47.85033" lon="6.76016">
        <ele>831.8</ele>
        <time>2022-08-17T08:20:07Z</time>
      </trkpt>
      <trkpt lat="47.85033" lon="6.76015">
        <ele>831.8</ele>
        <time>2022-08-17T08:20:08Z</time>
      </trkpt>
      <trkpt lat="47.85033" lon="6.76013">
        <ele>831.7</ele>
        <time>2022-08-17T08:20:09Z</time>
      </trkpt>
      <trkpt lat="47.85034" lon="6.76012">
        <ele>831.2</ele>
        <time>2022-08-17T08:20:10Z</time>
      </trkpt>
      <trkpt lat="47.85034" lon="6.76011">
        <ele>831.2</ele>
        <time>2022-08-17T08:20:11Z</time>
      </trkpt>
      <trkpt lat="47.85034" lon="6.7601">
        <ele>831.1</ele>
        <time>2022-08-17T08:20:12Z</time>
      </trkpt>
      <trkpt lat="47.85034" lon="6.76009">
        <ele>831.1</ele>
        <time>2022-08-17T08:20:13Z</time>
      </trkpt>
      <trkpt lat="47.85035" lon="6.76008">
        <ele>830.6</ele>
        <time>2022-08-17T08:20:14Z</time>
      </trkpt>
      <trkpt lat="47.85035" lon="6.76007">
        <ele>830.5</ele>
        <time>2022-08-17T08:20:15Z</time>
      </trkpt>
      <trkpt lat="47.85036" lon="6.76006">
        <ele>830</ele>
        <time>2022-08-17T08:20:16Z</time>
      </trkpt>
      <trkpt lat="47.85036" lon="6.76005">
        <ele>830</ele>
        <time>2022-08-17T08:20:17Z</time>
      </trkpt>
      <trkpt lat="47.85036" lon="6.76004">
        <ele>830</ele>
        <time>2022-08-17T08:20:18Z</time>
      </trkpt>
      <trkpt lat="47.85037" lon="6.76003">
        <ele>829.4</ele>
        <time>2022-08-17T08:20:19Z</time>
      </trkpt>
      <trkpt lat="47.85037" lon="6.76002">
        <ele>829.4</ele>
        <time>2022-08-17T08:20:20Z</time>
      </trkpt>
      <trkpt lat="47.85037" lon="6.76001">
        <ele>829.4</ele>
        <time>2022-08-17T08:20:22Z</time>
      </trkpt>
      <trkpt lat="47.85037" lon="6.76">
        <ele>829.4</ele>
        <time>2022-08-17T08:20:23Z</time>
      </trkpt>
      <trkpt lat="47.85037" lon="6.75999">
        <ele>829.3</ele>
        <time>2022-08-17T08:20:24Z</time>
      </trkpt>
      <trkpt lat="47.85037" lon="6.75998">
        <ele>829.3</ele>
        <time>2022-08-17T08:20:25Z</time>
      </trkpt>
      <trkpt lat="47.85037" lon="6.75997">
        <ele>829.2</ele>
        <time>2022-08-17T08:20:26Z</time>
      </trkpt>
      <trkpt lat="47.85037" lon="6.75996">
        <ele>829.2</ele>
        <time>2022-08-17T08:20:27Z</time>
      </trkpt>
      <trkpt lat="47.85037" lon="6.75995">
        <ele>829.1</ele>
        <time>2022-08-17T08:20:28Z</time>
      </trkpt>
      <trkpt lat="47.85036" lon="6.75994">
        <ele>829.6</ele>
        <time>2022-08-17T08:20:29Z</time>
      </trkpt>
      <trkpt lat="47.85036" lon="6.75993">
        <ele>829.5</ele>
        <time>2022-08-17T08:20:30Z</time>
      </trkpt>
      <trkpt lat="47.85036" lon="6.75992">
        <ele>829.5</ele>
        <time>2022-08-17T08:20:31Z</time>
      </trkpt>
      <trkpt lat="47.85036" lon="6.75991">
        <ele>829.4</ele>
        <time>2022-08-17T08:20:32Z</time>
      </trkpt>
      <trkpt lat="47.85037" lon="6.7599">
        <ele>828.9</ele>
        <time>2022-08-17T08:20:33Z</time>
      </trkpt>
      <trkpt lat="47.85037" lon="6.75989">
        <ele>828.8</ele>
        <time>2022-08-17T08:20:34Z</time>
      </trkpt>
      <trkpt lat="47.85037" lon="6.75987">
        <ele>828.7</ele>
        <time>2022-08-17T08:20:35Z</time>
      </trkpt>
      <trkpt lat="47.85037" lon="6.75986">
        <ele>828.7</ele>
        <time>2022-08-17T08:20:36Z</time>
      </trkpt>
      <trkpt lat="47.85037" lon="6.75985">
        <ele>828.6</ele>
        <time>2022-08-17T08:20:37Z</time>
      </trkpt>
      <trkpt lat="47.85037" lon="6.75983">
        <ele>828.5</ele>
        <time>2022-08-17T08:20:38Z</time>
      </trkpt>
      <trkpt lat="47.85038" lon="6.75982">
        <ele>828</ele>
        <time>2022-08-17T08:20:39Z</time>
      </trkpt>
      <trkpt lat="47.85038" lon="6.7598">
        <ele>827.9</ele>
        <time>2022-08-17T08:20:40Z</time>
      </trkpt>
      <trkpt lat="47.85038" lon="6.75979">
        <ele>827.9</ele>
        <time>2022-08-17T08:20:41Z</time>
      </trkpt>
      <trkpt lat="47.85038" lon="6.75978">
        <ele>827.8</ele>
        <time>2022-08-17T08:20:42Z</time>
      </trkpt>
      <trkpt lat="47.85039" lon="6.75976">
        <ele>827.3</ele>
        <time>2022-08-17T08:20:43Z</time>
      </trkpt>
      <trkpt lat="47.85039" lon="6.75975">
        <ele>827.3</ele>
        <time>2022-08-17T08:20:44Z</time>
      </trkpt>
      <trkpt lat="47.85039" lon="6.75973">
        <ele>827.2</ele>
        <time>2022-08-17T08:20:45Z</time>
      </trkpt>
      <trkpt lat="47.8504" lon="6.75972">
        <ele>826.7</ele>
        <time>2022-08-17T08:20:46Z</time>
      </trkpt>
      <trkpt lat="47.8504" lon="6.7597">
        <ele>826.5</ele>
        <time>2022-08-17T08:20:47Z</time>
      </trkpt>
      <trkpt lat="47.8504" lon="6.75968">
        <ele>826.3</ele>
        <time>2022-08-17T08:20:48Z</time>
      </trkpt>
      <trkpt lat="47.8504" lon="6.75967">
        <ele>826.3</ele>
        <time>2022-08-17T08:20:49Z</time>
      </trkpt>
      <trkpt lat="47.85041" lon="6.75965">
        <ele>825.6</ele>
        <time>2022-08-17T08:20:50Z</time>
      </trkpt>
      <trkpt lat="47.85041" lon="6.75964">
        <ele>825.6</ele>
        <time>2022-08-17T08:20:51Z</time>
      </trkpt>
      <trkpt lat="47.8504" lon="6.75963">
        <ele>825.9</ele>
        <time>2022-08-17T08:20:52Z</time>
      </trkpt>
      <trkpt lat="47.8504" lon="6.75962">
        <ele>825.8</ele>
        <time>2022-08-17T08:20:53Z</time>
      </trkpt>
      <trkpt lat="47.8504" lon="6.75961">
        <ele>825.7</ele>
        <time>2022-08-17T08:20:54Z</time>
      </trkpt>
      <trkpt lat="47.8504" lon="6.75959">
        <ele>825.6</ele>
        <time>2022-08-17T08:20:55Z</time>
      </trkpt>
      <trkpt lat="47.85039" lon="6.75958">
        <ele>825.9</ele>
        <time>2022-08-17T08:20:56Z</time>
      </trkpt>
      <trkpt lat="47.85039" lon="6.75957">
        <ele>825.8</ele>
        <time>2022-08-17T08:20:57Z</time>
      </trkpt>
      <trkpt lat="47.85039" lon="6.75955">
        <ele>825.7</ele>
        <time>2022-08-17T08:20:58Z</time>
      </trkpt>
      <trkpt lat="47.85039" lon="6.75954">
        <ele>825.6</ele>
        <time>2022-08-17T08:20:59Z</time>
      </trkpt>
      <trkpt lat="47.85039" lon="6.75953">
        <ele>825.5</ele>
        <time>2022-08-17T08:21:00Z</time>
      </trkpt>
      <trkpt lat="47.85039" lon="6.75952">
        <ele>825.4</ele>
        <time>2022-08-17T08:21:01Z</time>
      </trkpt>
      <trkpt lat="47.85039" lon="6.7595">
        <ele>825.2</ele>
        <time>2022-08-17T08:21:02Z</time>
      </trkpt>
      <trkpt lat="47.85039" lon="6.75949">
        <ele>825.1</ele>
        <time>2022-08-17T08:21:03Z</time>
      </trkpt>
      <trkpt lat="47.85039" lon="6.75948">
        <ele>825.1</ele>
        <time>2022-08-17T08:21:04Z</time>
      </trkpt>
      <trkpt lat="47.85039" lon="6.75947">
        <ele>825</ele>
        <time>2022-08-17T08:21:05Z</time>
      </trkpt>
      <trkpt lat="47.85039" lon="6.75946">
        <ele>824.9</ele>
        <time>2022-08-17T08:21:06Z</time>
      </trkpt>
      <trkpt lat="47.85039" lon="6.75945">
        <ele>824.8</ele>
        <time>2022-08-17T08:21:07Z</time>
      </trkpt>
      <trkpt lat="47.8504" lon="6.75943">
        <ele>824.1</ele>
        <time>2022-08-17T08:21:08Z</time>
      </trkpt>
      <trkpt lat="47.8504" lon="6.75942">
        <ele>824</ele>
        <time>2022-08-17T08:21:09Z</time>
      </trkpt>
      <trkpt lat="47.8504" lon="6.75941">
        <ele>823.9</ele>
        <time>2022-08-17T08:21:10Z</time>
      </trkpt>
      <trkpt lat="47.8504" lon="6.7594">
        <ele>823.8</ele>
        <time>2022-08-17T08:21:11Z</time>
      </trkpt>
      <trkpt lat="47.8504" lon="6.75939">
        <ele>823.7</ele>
        <time>2022-08-17T08:21:12Z</time>
      </trkpt>
      <trkpt lat="47.85041" lon="6.75938">
        <ele>823.1</ele>
        <time>2022-08-17T08:21:13Z</time>
      </trkpt>
      <trkpt lat="47.85041" lon="6.75937">
        <ele>823</ele>
        <time>2022-08-17T08:21:14Z</time>
      </trkpt>
      <trkpt lat="47.85041" lon="6.75936">
        <ele>822.9</ele>
        <time>2022-08-17T08:21:15Z</time>
      </trkpt>
      <trkpt lat="47.85041" lon="6.75935">
        <ele>822.8</ele>
        <time>2022-08-17T08:21:16Z</time>
      </trkpt>
      <trkpt lat="47.85041" lon="6.75933">
        <ele>822.6</ele>
        <time>2022-08-17T08:21:17Z</time>
      </trkpt>
      <trkpt lat="47.8504" lon="6.75932">
        <ele>822.9</ele>
        <time>2022-08-17T08:21:18Z</time>
      </trkpt>
      <trkpt lat="47.8504" lon="6.75931">
        <ele>822.8</ele>
        <time>2022-08-17T08:21:19Z</time>
      </trkpt>
      <trkpt lat="47.8504" lon="6.75929">
        <ele>822.5</ele>
        <time>2022-08-17T08:21:20Z</time>
      </trkpt>
      <trkpt lat="47.8504" lon="6.75928">
        <ele>822.4</ele>
        <time>2022-08-17T08:21:21Z</time>
      </trkpt>
      <trkpt lat="47.85039" lon="6.75927">
        <ele>822.7</ele>
        <time>2022-08-17T08:21:22Z</time>
      </trkpt>
      <trkpt lat="47.85039" lon="6.75926">
        <ele>822.6</ele>
        <time>2022-08-17T08:21:23Z</time>
      </trkpt>
      <trkpt lat="47.85039" lon="6.75925">
        <ele>822.5</ele>
        <time>2022-08-17T08:21:24Z</time>
      </trkpt>
      <trkpt lat="47.85039" lon="6.75924">
        <ele>822.4</ele>
        <time>2022-08-17T08:21:25Z</time>
      </trkpt>
      <trkpt lat="47.85039" lon="6.75923">
        <ele>822.3</ele>
        <time>2022-08-17T08:21:26Z</time>
      </trkpt>
      <trkpt lat="47.85039" lon="6.75921">
        <ele>822.1</ele>
        <time>2022-08-17T08:21:27Z</time>
      </trkpt>
      <trkpt lat="47.85039" lon="6.7592">
        <ele>821.9</ele>
        <time>2022-08-17T08:21:28Z</time>
      </trkpt>
      <trkpt lat="47.85039" lon="6.75918">
        <ele>821.7</ele>
        <time>2022-08-17T08:21:29Z</time>
      </trkpt>
      <trkpt lat="47.85039" lon="6.75917">
        <ele>821.6</ele>
        <time>2022-08-17T08:21:30Z</time>
      </trkpt>
      <trkpt lat="47.85039" lon="6.75916">
        <ele>821.5</ele>
        <time>2022-08-17T08:21:31Z</time>
      </trkpt>
      <trkpt lat="47.85039" lon="6.75915">
        <ele>821.4</ele>
        <time>2022-08-17T08:21:32Z</time>
      </trkpt>
      <trkpt lat="47.85039" lon="6.75913">
        <ele>821.2</ele>
        <time>2022-08-17T08:21:33Z</time>
      </trkpt>
      <trkpt lat="47.85039" lon="6.75912">
        <ele>821.2</ele>
        <time>2022-08-17T08:21:34Z</time>
      </trkpt>
      <trkpt lat="47.85039" lon="6.75911">
        <ele>821.1</ele>
        <time>2022-08-17T08:21:35Z</time>
      </trkpt>
      <trkpt lat="47.85039" lon="6.7591">
        <ele>821</ele>
        <time>2022-08-17T08:21:36Z</time>
      </trkpt>
      <trkpt lat="47.85039" lon="6.75909">
        <ele>820.9</ele>
        <time>2022-08-17T08:21:37Z</time>
      </trkpt>
      <trkpt lat="47.85039" lon="6.75908">
        <ele>820.8</ele>
        <time>2022-08-17T08:21:38Z</time>
      </trkpt>
      <trkpt lat="47.85039" lon="6.75907">
        <ele>820.7</ele>
        <time>2022-08-17T08:21:39Z</time>
      </trkpt>
      <trkpt lat="47.85039" lon="6.75906">
        <ele>820.6</ele>
        <time>2022-08-17T08:21:40Z</time>
      </trkpt>
      <trkpt lat="47.85039" lon="6.75905">
        <ele>820.5</ele>
        <time>2022-08-17T08:21:41Z</time>
      </trkpt>
      <trkpt lat="47.85039" lon="6.75903">
        <ele>820.4</ele>
        <time>2022-08-17T08:21:42Z</time>
      </trkpt>
      <trkpt lat="47.85039" lon="6.75902">
        <ele>820.3</ele>
        <time>2022-08-17T08:21:43Z</time>
      </trkpt>
      <trkpt lat="47.85039" lon="6.75901">
        <ele>820.2</ele>
        <time>2022-08-17T08:21:44Z</time>
      </trkpt>
      <trkpt lat="47.85039" lon="6.759">
        <ele>820.1</ele>
        <time>2022-08-17T08:21:45Z</time>
      </trkpt>
      <trkpt lat="47.85039" lon="6.75898">
        <ele>819.9</ele>
        <time>2022-08-17T08:21:46Z</time>
      </trkpt>
      <trkpt lat="47.85039" lon="6.75897">
        <ele>819.9</ele>
        <time>2022-08-17T08:21:47Z</time>
      </trkpt>
      <trkpt lat="47.85039" lon="6.75896">
        <ele>819.8</ele>
        <time>2022-08-17T08:21:48Z</time>
      </trkpt>
      <trkpt lat="47.85039" lon="6.75895">
        <ele>819.7</ele>
        <time>2022-08-17T08:21:49Z</time>
      </trkpt>
      <trkpt lat="47.85039" lon="6.75894">
        <ele>819.6</ele>
        <time>2022-08-17T08:21:50Z</time>
      </trkpt>
      <trkpt lat="47.85039" lon="6.75892">
        <ele>819.4</ele>
        <time>2022-08-17T08:21:51Z</time>
      </trkpt>
      <trkpt lat="47.85039" lon="6.75891">
        <ele>819.3</ele>
        <time>2022-08-17T08:21:52Z</time>
      </trkpt>
      <trkpt lat="47.85039" lon="6.7589">
        <ele>819.2</ele>
        <time>2022-08-17T08:21:53Z</time>
      </trkpt>
      <trkpt lat="47.8504" lon="6.75888">
        <ele>818.7</ele>
        <time>2022-08-17T08:21:54Z</time>
      </trkpt>
      <trkpt lat="47.8504" lon="6.75887">
        <ele>818.6</ele>
        <time>2022-08-17T08:21:55Z</time>
      </trkpt>
      <trkpt lat="47.8504" lon="6.75886">
        <ele>818.5</ele>
        <time>2022-08-17T08:21:56Z</time>
      </trkpt>
      <trkpt lat="47.8504" lon="6.75884">
        <ele>818.4</ele>
        <time>2022-08-17T08:21:57Z</time>
      </trkpt>
      <trkpt lat="47.8504" lon="6.75883">
        <ele>818.3</ele>
        <time>2022-08-17T08:21:58Z</time>
      </trkpt>
      <trkpt lat="47.8504" lon="6.75882">
        <ele>818.2</ele>
        <time>2022-08-17T08:21:59Z</time>
      </trkpt>
      <trkpt lat="47.85039" lon="6.7588">
        <ele>818.5</ele>
        <time>2022-08-17T08:22:00Z</time>
      </trkpt>
      <trkpt lat="47.85039" lon="6.75879">
        <ele>818.4</ele>
        <time>2022-08-17T08:22:01Z</time>
      </trkpt>
      <trkpt lat="47.85039" lon="6.75877">
        <ele>818.3</ele>
        <time>2022-08-17T08:22:02Z</time>
      </trkpt>
      <trkpt lat="47.85038" lon="6.75876">
        <ele>818.7</ele>
        <time>2022-08-17T08:22:03Z</time>
      </trkpt>
      <trkpt lat="47.85038" lon="6.75875">
        <ele>818.6</ele>
        <time>2022-08-17T08:22:04Z</time>
      </trkpt>
      <trkpt lat="47.85038" lon="6.75874">
        <ele>818.5</ele>
        <time>2022-08-17T08:22:05Z</time>
      </trkpt>
      <trkpt lat="47.85039" lon="6.75872">
        <ele>817.9</ele>
        <time>2022-08-17T08:22:06Z</time>
      </trkpt>
      <trkpt lat="47.85039" lon="6.75871">
        <ele>817.9</ele>
        <time>2022-08-17T08:22:07Z</time>
      </trkpt>
      <trkpt lat="47.8504" lon="6.7587">
        <ele>817.4</ele>
        <time>2022-08-17T08:22:08Z</time>
      </trkpt>
      <trkpt lat="47.8504" lon="6.75868">
        <ele>817.2</ele>
        <time>2022-08-17T08:22:09Z</time>
      </trkpt>
      <trkpt lat="47.8504" lon="6.75867">
        <ele>817.1</ele>
        <time>2022-08-17T08:22:10Z</time>
      </trkpt>
      <trkpt lat="47.85041" lon="6.75866">
        <ele>816.6</ele>
        <time>2022-08-17T08:22:11Z</time>
      </trkpt>
      <trkpt lat="47.85041" lon="6.75864">
        <ele>816.5</ele>
        <time>2022-08-17T08:22:12Z</time>
      </trkpt>
      <trkpt lat="47.85042" lon="6.75863">
        <ele>816</ele>
        <time>2022-08-17T08:22:13Z</time>
      </trkpt>
      <trkpt lat="47.85043" lon="6.75861">
        <ele>815.4</ele>
        <time>2022-08-17T08:22:14Z</time>
      </trkpt>
      <trkpt lat="47.85043" lon="6.7586">
        <ele>815.3</ele>
        <time>2022-08-17T08:22:15Z</time>
      </trkpt>
      <trkpt lat="47.85044" lon="6.75859">
        <ele>814.8</ele>
        <time>2022-08-17T08:22:16Z</time>
      </trkpt>
      <trkpt lat="47.85044" lon="6.75858">
        <ele>814.7</ele>
        <time>2022-08-17T08:22:17Z</time>
      </trkpt>
      <trkpt lat="47.85044" lon="6.75856">
        <ele>814.5</ele>
        <time>2022-08-17T08:22:18Z</time>
      </trkpt>
      <trkpt lat="47.85045" lon="6.75855">
        <ele>814</ele>
        <time>2022-08-17T08:22:19Z</time>
      </trkpt>
      <trkpt lat="47.85045" lon="6.75853">
        <ele>813.8</ele>
        <time>2022-08-17T08:22:20Z</time>
      </trkpt>
      <trkpt lat="47.85045" lon="6.75852">
        <ele>813.7</ele>
        <time>2022-08-17T08:22:21Z</time>
      </trkpt>
      <trkpt lat="47.85045" lon="6.75851">
        <ele>813.6</ele>
        <time>2022-08-17T08:22:22Z</time>
      </trkpt>
      <trkpt lat="47.85045" lon="6.7585">
        <ele>813.5</ele>
        <time>2022-08-17T08:22:23Z</time>
      </trkpt>
      <trkpt lat="47.85046" lon="6.75848">
        <ele>812.9</ele>
        <time>2022-08-17T08:22:32Z</time>
      </trkpt>
      <trkpt lat="47.85046" lon="6.75846">
        <ele>812.7</ele>
        <time>2022-08-17T08:22:33Z</time>
      </trkpt>
      <trkpt lat="47.85047" lon="6.75845">
        <ele>812.1</ele>
        <time>2022-08-17T08:22:34Z</time>
      </trkpt>
      <trkpt lat="47.85047" lon="6.75843">
        <ele>811.9</ele>
        <time>2022-08-17T08:22:35Z</time>
      </trkpt>
      <trkpt lat="47.85047" lon="6.75842">
        <ele>811.8</ele>
        <time>2022-08-17T08:22:36Z</time>
      </trkpt>
      <trkpt lat="47.85047" lon="6.75841">
        <ele>811.7</ele>
        <time>2022-08-17T08:22:37Z</time>
      </trkpt>
      <trkpt lat="47.85048" lon="6.75841">
        <ele>811.3</ele>
        <time>2022-08-17T08:22:38Z</time>
      </trkpt>
      <trkpt lat="47.85048" lon="6.7584">
        <ele>811.2</ele>
        <time>2022-08-17T08:22:39Z</time>
      </trkpt>
      <trkpt lat="47.85048" lon="6.75839">
        <ele>811.1</ele>
        <time>2022-08-17T08:22:40Z</time>
      </trkpt>
      <trkpt lat="47.85048" lon="6.75838">
        <ele>811</ele>
        <time>2022-08-17T08:22:41Z</time>
      </trkpt>
      <trkpt lat="47.85049" lon="6.75838">
        <ele>810.5</ele>
        <time>2022-08-17T08:22:42Z</time>
      </trkpt>
      <trkpt lat="47.85049" lon="6.75837">
        <ele>810.4</ele>
        <time>2022-08-17T08:22:43Z</time>
      </trkpt>
      <trkpt lat="47.8505" lon="6.75836">
        <ele>809.9</ele>
        <time>2022-08-17T08:22:44Z</time>
      </trkpt>
      <trkpt lat="47.8505" lon="6.75835">
        <ele>809.8</ele>
        <time>2022-08-17T08:22:45Z</time>
      </trkpt>
      <trkpt lat="47.85051" lon="6.75835">
        <ele>809.3</ele>
        <time>2022-08-17T08:22:46Z</time>
      </trkpt>
      <trkpt lat="47.85051" lon="6.75834">
        <ele>809.2</ele>
        <time>2022-08-17T08:22:47Z</time>
      </trkpt>
      <trkpt lat="47.85052" lon="6.75833">
        <ele>808.7</ele>
        <time>2022-08-17T08:22:48Z</time>
      </trkpt>
      <trkpt lat="47.85052" lon="6.75832">
        <ele>808.7</ele>
        <time>2022-08-17T08:22:49Z</time>
      </trkpt>
      <trkpt lat="47.85053" lon="6.75831">
        <ele>808.2</ele>
        <time>2022-08-17T08:22:50Z</time>
      </trkpt>
      <trkpt lat="47.85053" lon="6.7583">
        <ele>808.2</ele>
        <time>2022-08-17T08:22:52Z</time>
      </trkpt>
      <trkpt lat="47.85053" lon="6.75828">
        <ele>808.2</ele>
        <time>2022-08-17T08:22:58Z</time>
      </trkpt>
      <trkpt lat="47.85053" lon="6.75827">
        <ele>808.2</ele>
        <time>2022-08-17T08:22:59Z</time>
      </trkpt>
      <trkpt lat="47.85053" lon="6.75826">
        <ele>808.2</ele>
        <time>2022-08-17T08:23:00Z</time>
      </trkpt>
      <trkpt lat="47.85054" lon="6.75823">
        <ele>807.7</ele>
        <time>2022-08-17T08:23:07Z</time>
      </trkpt>
      <trkpt lat="47.85055" lon="6.75822">
        <ele>807.3</ele>
        <time>2022-08-17T08:23:08Z</time>
      </trkpt>
      <trkpt lat="47.85055" lon="6.75821">
        <ele>807.3</ele>
        <time>2022-08-17T08:23:09Z</time>
      </trkpt>
      <trkpt lat="47.85055" lon="6.75819">
        <ele>807.3</ele>
        <time>2022-08-17T08:23:10Z</time>
      </trkpt>
      <trkpt lat="47.85056" lon="6.75818">
        <ele>806.8</ele>
        <time>2022-08-17T08:23:11Z</time>
      </trkpt>
      <trkpt lat="47.85056" lon="6.75817">
        <ele>806.8</ele>
        <time>2022-08-17T08:23:12Z</time>
      </trkpt>
      <trkpt lat="47.85057" lon="6.75816">
        <ele>806.5</ele>
        <time>2022-08-17T08:23:13Z</time>
      </trkpt>
      <trkpt lat="47.85057" lon="6.75815">
        <ele>806.5</ele>
        <time>2022-08-17T08:23:14Z</time>
      </trkpt>
      <trkpt lat="47.85058" lon="6.75814">
        <ele>806.1</ele>
        <time>2022-08-17T08:23:15Z</time>
      </trkpt>
      <trkpt lat="47.85058" lon="6.75813">
        <ele>806.1</ele>
        <time>2022-08-17T08:23:16Z</time>
      </trkpt>
      <trkpt lat="47.85058" lon="6.75812">
        <ele>806.1</ele>
        <time>2022-08-17T08:23:18Z</time>
      </trkpt>
      <trkpt lat="47.85059" lon="6.75811">
        <ele>805.8</ele>
        <time>2022-08-17T08:23:20Z</time>
      </trkpt>
      <trkpt lat="47.85059" lon="6.7581">
        <ele>805.8</ele>
        <time>2022-08-17T08:23:23Z</time>
      </trkpt>
      <trkpt lat="47.85059" lon="6.75809">
        <ele>805.8</ele>
        <time>2022-08-17T08:23:24Z</time>
      </trkpt>
      <trkpt lat="47.8506" lon="6.75808">
        <ele>805.4</ele>
        <time>2022-08-17T08:23:25Z</time>
      </trkpt>
      <trkpt lat="47.8506" lon="6.75807">
        <ele>805.4</ele>
        <time>2022-08-17T08:23:27Z</time>
      </trkpt>
      <trkpt lat="47.85061" lon="6.75806">
        <ele>805</ele>
        <time>2022-08-17T08:23:28Z</time>
      </trkpt>
      <trkpt lat="47.85062" lon="6.75805">
        <ele>804.7</ele>
        <time>2022-08-17T08:23:30Z</time>
      </trkpt>
      <trkpt lat="47.85062" lon="6.75804">
        <ele>804.7</ele>
        <time>2022-08-17T08:23:31Z</time>
      </trkpt>
      <trkpt lat="47.85063" lon="6.75803">
        <ele>804.3</ele>
        <time>2022-08-17T08:23:32Z</time>
      </trkpt>
      <trkpt lat="47.85064" lon="6.75803">
        <ele>803.9</ele>
        <time>2022-08-17T08:23:33Z</time>
      </trkpt>
      <trkpt lat="47.85064" lon="6.75802">
        <ele>803.9</ele>
        <time>2022-08-17T08:23:34Z</time>
      </trkpt>
      <trkpt lat="47.85066" lon="6.75801">
        <ele>803.1</ele>
        <time>2022-08-17T08:23:35Z</time>
      </trkpt>
      <trkpt lat="47.85067" lon="6.75801">
        <ele>802.7</ele>
        <time>2022-08-17T08:23:36Z</time>
      </trkpt>
      <trkpt lat="47.85067" lon="6.758">
        <ele>802.7</ele>
        <time>2022-08-17T08:23:37Z</time>
      </trkpt>
      <trkpt lat="47.85068" lon="6.758">
        <ele>802.3</ele>
        <time>2022-08-17T08:23:38Z</time>
      </trkpt>
      <trkpt lat="47.85069" lon="6.75799">
        <ele>801.9</ele>
        <time>2022-08-17T08:23:39Z</time>
      </trkpt>
      <trkpt lat="47.8507" lon="6.75798">
        <ele>801.5</ele>
        <time>2022-08-17T08:23:40Z</time>
      </trkpt>
      <trkpt lat="47.8507" lon="6.75797">
        <ele>801.5</ele>
        <time>2022-08-17T08:23:41Z</time>
      </trkpt>
      <trkpt lat="47.8507" lon="6.75796">
        <ele>801.4</ele>
        <time>2022-08-17T08:23:42Z</time>
      </trkpt>
      <trkpt lat="47.85071" lon="6.75795">
        <ele>801</ele>
        <time>2022-08-17T08:23:43Z</time>
      </trkpt>
      <trkpt lat="47.85071" lon="6.75794">
        <ele>801</ele>
        <time>2022-08-17T08:23:44Z</time>
      </trkpt>
      <trkpt lat="47.85071" lon="6.75793">
        <ele>800.9</ele>
        <time>2022-08-17T08:23:45Z</time>
      </trkpt>
      <trkpt lat="47.85071" lon="6.75792">
        <ele>800.9</ele>
        <time>2022-08-17T08:23:46Z</time>
      </trkpt>
      <trkpt lat="47.85071" lon="6.7579">
        <ele>800.8</ele>
        <time>2022-08-17T08:23:48Z</time>
      </trkpt>
      <trkpt lat="47.85071" lon="6.75789">
        <ele>800.8</ele>
        <time>2022-08-17T08:23:49Z</time>
      </trkpt>
      <trkpt lat="47.85073" lon="6.75786">
        <ele>799.8</ele>
        <time>2022-08-17T08:24:08Z</time>
      </trkpt>
      <trkpt lat="47.85074" lon="6.75785">
        <ele>799.4</ele>
        <time>2022-08-17T08:24:09Z</time>
      </trkpt>
      <trkpt lat="47.85075" lon="6.75784">
        <ele>798.9</ele>
        <time>2022-08-17T08:24:10Z</time>
      </trkpt>
      <trkpt lat="47.85076" lon="6.75782">
        <ele>798.4</ele>
        <time>2022-08-17T08:24:11Z</time>
      </trkpt>
      <trkpt lat="47.85076" lon="6.75781">
        <ele>798.3</ele>
        <time>2022-08-17T08:24:12Z</time>
      </trkpt>
      <trkpt lat="47.85077" lon="6.75779">
        <ele>797.8</ele>
        <time>2022-08-17T08:24:13Z</time>
      </trkpt>
      <trkpt lat="47.85077" lon="6.75778">
        <ele>797.7</ele>
        <time>2022-08-17T08:24:14Z</time>
      </trkpt>
      <trkpt lat="47.85078" lon="6.75777">
        <ele>797.3</ele>
        <time>2022-08-17T08:24:15Z</time>
      </trkpt>
      <trkpt lat="47.85078" lon="6.75776">
        <ele>797.3</ele>
        <time>2022-08-17T08:24:16Z</time>
      </trkpt>
      <trkpt lat="47.85078" lon="6.75775">
        <ele>797.3</ele>
        <time>2022-08-17T08:24:17Z</time>
      </trkpt>
      <trkpt lat="47.85079" lon="6.75774">
        <ele>796.9</ele>
        <time>2022-08-17T08:24:18Z</time>
      </trkpt>
      <trkpt lat="47.8508" lon="6.75773">
        <ele>796.4</ele>
        <time>2022-08-17T08:24:22Z</time>
      </trkpt>
      <trkpt lat="47.85081" lon="6.75772">
        <ele>796</ele>
        <time>2022-08-17T08:24:24Z</time>
      </trkpt>
      <trkpt lat="47.85082" lon="6.75772">
        <ele>795.6</ele>
        <time>2022-08-17T08:24:26Z</time>
      </trkpt>
      <trkpt lat="47.85083" lon="6.75771">
        <ele>795.1</ele>
        <time>2022-08-17T08:24:27Z</time>
      </trkpt>
      <trkpt lat="47.85084" lon="6.75771">
        <ele>794.8</ele>
        <time>2022-08-17T08:24:29Z</time>
      </trkpt>
      <trkpt lat="47.85085" lon="6.7577">
        <ele>794.5</ele>
        <time>2022-08-17T08:24:30Z</time>
      </trkpt>
      <trkpt lat="47.85085" lon="6.75769">
        <ele>794.5</ele>
        <time>2022-08-17T08:24:32Z</time>
      </trkpt>
      <trkpt lat="47.85085" lon="6.75768">
        <ele>794.5</ele>
        <time>2022-08-17T08:24:33Z</time>
      </trkpt>
      <trkpt lat="47.85085" lon="6.75767">
        <ele>794.5</ele>
        <time>2022-08-17T08:24:34Z</time>
      </trkpt>
      <trkpt lat="47.85086" lon="6.75766">
        <ele>794.2</ele>
        <time>2022-08-17T08:24:35Z</time>
      </trkpt>
      <trkpt lat="47.85086" lon="6.75765">
        <ele>794.2</ele>
        <time>2022-08-17T08:24:36Z</time>
      </trkpt>
      <trkpt lat="47.85086" lon="6.75764">
        <ele>794.2</ele>
        <time>2022-08-17T08:24:37Z</time>
      </trkpt>
      <trkpt lat="47.85087" lon="6.75764">
        <ele>793.9</ele>
        <time>2022-08-17T08:24:38Z</time>
      </trkpt>
      <trkpt lat="47.85088" lon="6.75763">
        <ele>793.6</ele>
        <time>2022-08-17T08:24:40Z</time>
      </trkpt>
      <trkpt lat="47.85088" lon="6.75762">
        <ele>793.6</ele>
        <time>2022-08-17T08:24:41Z</time>
      </trkpt>
      <trkpt lat="47.85089" lon="6.75761">
        <ele>793.2</ele>
        <time>2022-08-17T08:24:42Z</time>
      </trkpt>
      <trkpt lat="47.8509" lon="6.7576">
        <ele>792.9</ele>
        <time>2022-08-17T08:24:44Z</time>
      </trkpt>
      <trkpt lat="47.8509" lon="6.75759">
        <ele>792.9</ele>
        <time>2022-08-17T08:24:45Z</time>
      </trkpt>
      <trkpt lat="47.8509" lon="6.75758">
        <ele>792.9</ele>
        <time>2022-08-17T08:24:47Z</time>
      </trkpt>
      <trkpt lat="47.85091" lon="6.75757">
        <ele>792.6</ele>
        <time>2022-08-17T08:24:48Z</time>
      </trkpt>
      <trkpt lat="47.85091" lon="6.75756">
        <ele>792.6</ele>
        <time>2022-08-17T08:24:49Z</time>
      </trkpt>
      <trkpt lat="47.85091" lon="6.75755">
        <ele>792.6</ele>
        <time>2022-08-17T08:24:50Z</time>
      </trkpt>
      <trkpt lat="47.85092" lon="6.75754">
        <ele>792.2</ele>
        <time>2022-08-17T08:24:51Z</time>
      </trkpt>
      <trkpt lat="47.85092" lon="6.75753">
        <ele>792.2</ele>
        <time>2022-08-17T08:24:52Z</time>
      </trkpt>
      <trkpt lat="47.85094" lon="6.75751">
        <ele>791.6</ele>
        <time>2022-08-17T08:25:19Z</time>
      </trkpt>
      <trkpt lat="47.85095" lon="6.7575">
        <ele>791.2</ele>
        <time>2022-08-17T08:25:20Z</time>
      </trkpt>
      <trkpt lat="47.85096" lon="6.75749">
        <ele>790.9</ele>
        <time>2022-08-17T08:25:21Z</time>
      </trkpt>
      <trkpt lat="47.85096" lon="6.75747">
        <ele>790.9</ele>
        <time>2022-08-17T08:25:22Z</time>
      </trkpt>
      <trkpt lat="47.85096" lon="6.75746">
        <ele>790.9</ele>
        <time>2022-08-17T08:25:23Z</time>
      </trkpt>
      <trkpt lat="47.85097" lon="6.75745">
        <ele>790.6</ele>
        <time>2022-08-17T08:25:24Z</time>
      </trkpt>
      <trkpt lat="47.85097" lon="6.75743">
        <ele>790.6</ele>
        <time>2022-08-17T08:25:25Z</time>
      </trkpt>
      <trkpt lat="47.85098" lon="6.75742">
        <ele>790.2</ele>
        <time>2022-08-17T08:25:26Z</time>
      </trkpt>
      <trkpt lat="47.85098" lon="6.7574">
        <ele>790.2</ele>
        <time>2022-08-17T08:25:27Z</time>
      </trkpt>
      <trkpt lat="47.85099" lon="6.75738">
        <ele>789.9</ele>
        <time>2022-08-17T08:25:28Z</time>
      </trkpt>
      <trkpt lat="47.85099" lon="6.75736">
        <ele>789.9</ele>
        <time>2022-08-17T08:25:29Z</time>
      </trkpt>
      <trkpt lat="47.85099" lon="6.75735">
        <ele>789.9</ele>
        <time>2022-08-17T08:25:30Z</time>
      </trkpt>
      <trkpt lat="47.851" lon="6.75733">
        <ele>789.6</ele>
        <time>2022-08-17T08:25:31Z</time>
      </trkpt>
      <trkpt lat="47.851" lon="6.75732">
        <ele>789.6</ele>
        <time>2022-08-17T08:25:32Z</time>
      </trkpt>
      <trkpt lat="47.851" lon="6.7573">
        <ele>789.6</ele>
        <time>2022-08-17T08:25:40Z</time>
      </trkpt>
      <trkpt lat="47.851" lon="6.75728">
        <ele>789.6</ele>
        <time>2022-08-17T08:25:41Z</time>
      </trkpt>
      <trkpt lat="47.851" lon="6.75727">
        <ele>789.6</ele>
        <time>2022-08-17T08:25:42Z</time>
      </trkpt>
      <trkpt lat="47.85099" lon="6.75726">
        <ele>789.9</ele>
        <time>2022-08-17T08:25:43Z</time>
      </trkpt>
      <trkpt lat="47.85099" lon="6.75725">
        <ele>789.9</ele>
        <time>2022-08-17T08:25:44Z</time>
      </trkpt>
      <trkpt lat="47.85099" lon="6.75724">
        <ele>789.9</ele>
        <time>2022-08-17T08:25:45Z</time>
      </trkpt>
      <trkpt lat="47.85099" lon="6.75723">
        <ele>789.9</ele>
        <time>2022-08-17T08:25:46Z</time>
      </trkpt>
      <trkpt lat="47.85099" lon="6.75722">
        <ele>789.9</ele>
        <time>2022-08-17T08:25:47Z</time>
      </trkpt>
      <trkpt lat="47.85099" lon="6.75721">
        <ele>789.9</ele>
        <time>2022-08-17T08:25:48Z</time>
      </trkpt>
      <trkpt lat="47.85099" lon="6.7572">
        <ele>789.8</ele>
        <time>2022-08-17T08:25:49Z</time>
      </trkpt>
      <trkpt lat="47.851" lon="6.75719">
        <ele>789.5</ele>
        <time>2022-08-17T08:25:50Z</time>
      </trkpt>
      <trkpt lat="47.851" lon="6.75717">
        <ele>789.4</ele>
        <time>2022-08-17T08:25:51Z</time>
      </trkpt>
      <trkpt lat="47.851" lon="6.75716">
        <ele>789.4</ele>
        <time>2022-08-17T08:25:52Z</time>
      </trkpt>
      <trkpt lat="47.851" lon="6.75715">
        <ele>789.3</ele>
        <time>2022-08-17T08:25:53Z</time>
      </trkpt>
      <trkpt lat="47.851" lon="6.75714">
        <ele>789.3</ele>
        <time>2022-08-17T08:25:54Z</time>
      </trkpt>
      <trkpt lat="47.85101" lon="6.75713">
        <ele>788.9</ele>
        <time>2022-08-17T08:25:55Z</time>
      </trkpt>
      <trkpt lat="47.85101" lon="6.75712">
        <ele>788.9</ele>
        <time>2022-08-17T08:25:56Z</time>
      </trkpt>
      <trkpt lat="47.851" lon="6.75711">
        <ele>789.2</ele>
        <time>2022-08-17T08:25:57Z</time>
      </trkpt>
      <trkpt lat="47.851" lon="6.7571">
        <ele>789.2</ele>
        <time>2022-08-17T08:25:58Z</time>
      </trkpt>
      <trkpt lat="47.851" lon="6.75709">
        <ele>789.1</ele>
        <time>2022-08-17T08:25:59Z</time>
      </trkpt>
      <trkpt lat="47.85099" lon="6.75707">
        <ele>789.4</ele>
        <time>2022-08-17T08:26:00Z</time>
      </trkpt>
      <trkpt lat="47.85099" lon="6.75706">
        <ele>789.3</ele>
        <time>2022-08-17T08:26:01Z</time>
      </trkpt>
      <trkpt lat="47.85099" lon="6.75704">
        <ele>789.3</ele>
        <time>2022-08-17T08:26:02Z</time>
      </trkpt>
      <trkpt lat="47.85099" lon="6.75703">
        <ele>789.2</ele>
        <time>2022-08-17T08:26:48Z</time>
      </trkpt>
      <trkpt lat="47.85099" lon="6.75701">
        <ele>789.2</ele>
        <time>2022-08-17T08:26:49Z</time>
      </trkpt>
      <trkpt lat="47.85099" lon="6.757">
        <ele>789.1</ele>
        <time>2022-08-17T08:26:50Z</time>
      </trkpt>
      <trkpt lat="47.85099" lon="6.75699">
        <ele>789.1</ele>
        <time>2022-08-17T08:26:51Z</time>
      </trkpt>
      <trkpt lat="47.85099" lon="6.75698">
        <ele>789.1</ele>
        <time>2022-08-17T08:26:52Z</time>
      </trkpt>
      <trkpt lat="47.85099" lon="6.75697">
        <ele>789</ele>
        <time>2022-08-17T08:26:53Z</time>
      </trkpt>
      <trkpt lat="47.85099" lon="6.75696">
        <ele>789</ele>
        <time>2022-08-17T08:26:54Z</time>
      </trkpt>
      <trkpt lat="47.85099" lon="6.75694">
        <ele>788.9</ele>
        <time>2022-08-17T08:26:55Z</time>
      </trkpt>
      <trkpt lat="47.85099" lon="6.75693">
        <ele>788.8</ele>
        <time>2022-08-17T08:26:56Z</time>
      </trkpt>
      <trkpt lat="47.85099" lon="6.75692">
        <ele>788.8</ele>
        <time>2022-08-17T08:26:57Z</time>
      </trkpt>
      <trkpt lat="47.85099" lon="6.7569">
        <ele>788.6</ele>
        <time>2022-08-17T08:26:58Z</time>
      </trkpt>
      <trkpt lat="47.85099" lon="6.75689">
        <ele>788.6</ele>
        <time>2022-08-17T08:26:59Z</time>
      </trkpt>
      <trkpt lat="47.85099" lon="6.75688">
        <ele>788.5</ele>
        <time>2022-08-17T08:27:00Z</time>
      </trkpt>
      <trkpt lat="47.85099" lon="6.75686">
        <ele>788.4</ele>
        <time>2022-08-17T08:27:01Z</time>
      </trkpt>
      <trkpt lat="47.85099" lon="6.75685">
        <ele>788.3</ele>
        <time>2022-08-17T08:27:02Z</time>
      </trkpt>
      <trkpt lat="47.85099" lon="6.75683">
        <ele>788.2</ele>
        <time>2022-08-17T08:27:03Z</time>
      </trkpt>
      <trkpt lat="47.851" lon="6.75682">
        <ele>787.8</ele>
        <time>2022-08-17T08:27:04Z</time>
      </trkpt>
      <trkpt lat="47.851" lon="6.75681">
        <ele>787.7</ele>
        <time>2022-08-17T08:27:05Z</time>
      </trkpt>
      <trkpt lat="47.851" lon="6.75679">
        <ele>787.6</ele>
        <time>2022-08-17T08:27:06Z</time>
      </trkpt>
      <trkpt lat="47.85101" lon="6.75678">
        <ele>787.3</ele>
        <time>2022-08-17T08:27:07Z</time>
      </trkpt>
      <trkpt lat="47.85101" lon="6.75676">
        <ele>787.1</ele>
        <time>2022-08-17T08:27:08Z</time>
      </trkpt>
      <trkpt lat="47.85101" lon="6.75675">
        <ele>787.1</ele>
        <time>2022-08-17T08:27:09Z</time>
      </trkpt>
      <trkpt lat="47.851" lon="6.75674">
        <ele>787.3</ele>
        <time>2022-08-17T08:27:10Z</time>
      </trkpt>
      <trkpt lat="47.851" lon="6.75673">
        <ele>787.2</ele>
        <time>2022-08-17T08:27:11Z</time>
      </trkpt>
      <trkpt lat="47.851" lon="6.75671">
        <ele>787.1</ele>
        <time>2022-08-17T08:27:12Z</time>
      </trkpt>
      <trkpt lat="47.85099" lon="6.7567">
        <ele>787.3</ele>
        <time>2022-08-17T08:27:13Z</time>
      </trkpt>
      <trkpt lat="47.85099" lon="6.75669">
        <ele>787.2</ele>
        <time>2022-08-17T08:27:14Z</time>
      </trkpt>
      <trkpt lat="47.85099" lon="6.75668">
        <ele>787.1</ele>
        <time>2022-08-17T08:27:15Z</time>
      </trkpt>
      <trkpt lat="47.85099" lon="6.75667">
        <ele>787.1</ele>
        <time>2022-08-17T08:27:16Z</time>
      </trkpt>
      <trkpt lat="47.85099" lon="6.75666">
        <ele>787</ele>
        <time>2022-08-17T08:27:17Z</time>
      </trkpt>
      <trkpt lat="47.85099" lon="6.75665">
        <ele>787</ele>
        <time>2022-08-17T08:27:18Z</time>
      </trkpt>
      <trkpt lat="47.851" lon="6.75664">
        <ele>786.6</ele>
        <time>2022-08-17T08:27:19Z</time>
      </trkpt>
      <trkpt lat="47.85101" lon="6.75663">
        <ele>786.3</ele>
        <time>2022-08-17T08:27:20Z</time>
      </trkpt>
      <trkpt lat="47.85102" lon="6.75663">
        <ele>786.1</ele>
        <time>2022-08-17T08:27:23Z</time>
      </trkpt>
      <trkpt lat="47.85103" lon="6.75663">
        <ele>785.8</ele>
        <time>2022-08-17T08:27:26Z</time>
      </trkpt>
      <trkpt lat="47.85103" lon="6.75664">
        <ele>785.9</ele>
        <time>2022-08-17T08:27:27Z</time>
      </trkpt>
      <trkpt lat="47.85104" lon="6.75665">
        <ele>785.7</ele>
        <time>2022-08-17T08:27:28Z</time>
      </trkpt>
      <trkpt lat="47.85104" lon="6.75666">
        <ele>785.8</ele>
        <time>2022-08-17T08:27:29Z</time>
      </trkpt>
      <trkpt lat="47.85105" lon="6.75667">
        <ele>785.6</ele>
        <time>2022-08-17T08:27:30Z</time>
      </trkpt>
      <trkpt lat="47.85105" lon="6.75668">
        <ele>785.6</ele>
        <time>2022-08-17T08:27:31Z</time>
      </trkpt>
      <trkpt lat="47.85106" lon="6.7567">
        <ele>785.5</ele>
        <time>2022-08-17T08:27:32Z</time>
      </trkpt>
      <trkpt lat="47.85107" lon="6.75671">
        <ele>785.2</ele>
        <time>2022-08-17T08:27:33Z</time>
      </trkpt>
      <trkpt lat="47.85107" lon="6.75672">
        <ele>785.3</ele>
        <time>2022-08-17T08:27:34Z</time>
      </trkpt>
      <trkpt lat="47.85108" lon="6.75674">
        <ele>785.1</ele>
        <time>2022-08-17T08:27:35Z</time>
      </trkpt>
      <trkpt lat="47.85108" lon="6.75675">
        <ele>785.2</ele>
        <time>2022-08-17T08:27:36Z</time>
      </trkpt>
      <trkpt lat="47.85109" lon="6.75676">
        <ele>784.9</ele>
        <time>2022-08-17T08:27:37Z</time>
      </trkpt>
      <trkpt lat="47.85109" lon="6.75678">
        <ele>785</ele>
        <time>2022-08-17T08:27:38Z</time>
      </trkpt>
      <trkpt lat="47.8511" lon="6.75679">
        <ele>784.8</ele>
        <time>2022-08-17T08:27:39Z</time>
      </trkpt>
      <trkpt lat="47.8511" lon="6.75681">
        <ele>784.8</ele>
        <time>2022-08-17T08:27:40Z</time>
      </trkpt>
      <trkpt lat="47.8511" lon="6.75682">
        <ele>784.9</ele>
        <time>2022-08-17T08:27:41Z</time>
      </trkpt>
      <trkpt lat="47.85111" lon="6.75683">
        <ele>784.6</ele>
        <time>2022-08-17T08:27:42Z</time>
      </trkpt>
      <trkpt lat="47.85111" lon="6.75685">
        <ele>784.7</ele>
        <time>2022-08-17T08:27:43Z</time>
      </trkpt>
      <trkpt lat="47.85111" lon="6.75686">
        <ele>784.7</ele>
        <time>2022-08-17T08:27:44Z</time>
      </trkpt>
      <trkpt lat="47.85111" lon="6.75687">
        <ele>784.8</ele>
        <time>2022-08-17T08:27:45Z</time>
      </trkpt>
      <trkpt lat="47.85112" lon="6.75688">
        <ele>784.6</ele>
        <time>2022-08-17T08:27:46Z</time>
      </trkpt>
      <trkpt lat="47.85112" lon="6.7569">
        <ele>784.6</ele>
        <time>2022-08-17T08:27:47Z</time>
      </trkpt>
      <trkpt lat="47.85112" lon="6.75691">
        <ele>784.7</ele>
        <time>2022-08-17T08:27:48Z</time>
      </trkpt>
      <trkpt lat="47.85112" lon="6.75692">
        <ele>784.7</ele>
        <time>2022-08-17T08:27:49Z</time>
      </trkpt>
      <trkpt lat="47.85112" lon="6.75694">
        <ele>784.8</ele>
        <time>2022-08-17T08:27:50Z</time>
      </trkpt>
      <trkpt lat="47.85113" lon="6.75695">
        <ele>784.6</ele>
        <time>2022-08-17T08:27:51Z</time>
      </trkpt>
      <trkpt lat="47.85113" lon="6.75696">
        <ele>784.6</ele>
        <time>2022-08-17T08:27:52Z</time>
      </trkpt>
      <trkpt lat="47.85114" lon="6.75698">
        <ele>784.5</ele>
        <time>2022-08-17T08:27:53Z</time>
      </trkpt>
      <trkpt lat="47.85114" lon="6.75699">
        <ele>784.5</ele>
        <time>2022-08-17T08:27:54Z</time>
      </trkpt>
      <trkpt lat="47.85114" lon="6.75701">
        <ele>784.6</ele>
        <time>2022-08-17T08:27:55Z</time>
      </trkpt>
      <trkpt lat="47.85115" lon="6.75702">
        <ele>784.4</ele>
        <time>2022-08-17T08:27:56Z</time>
      </trkpt>
      <trkpt lat="47.85115" lon="6.75703">
        <ele>784.5</ele>
        <time>2022-08-17T08:27:57Z</time>
      </trkpt>
      <trkpt lat="47.85116" lon="6.75704">
        <ele>784.3</ele>
        <time>2022-08-17T08:27:58Z</time>
      </trkpt>
      <trkpt lat="47.85117" lon="6.75706">
        <ele>784.1</ele>
        <time>2022-08-17T08:27:59Z</time>
      </trkpt>
      <trkpt lat="47.85117" lon="6.75707">
        <ele>784.2</ele>
        <time>2022-08-17T08:28:00Z</time>
      </trkpt>
      <trkpt lat="47.85117" lon="6.75708">
        <ele>784.2</ele>
        <time>2022-08-17T08:28:01Z</time>
      </trkpt>
      <trkpt lat="47.85118" lon="6.7571">
        <ele>784.1</ele>
        <time>2022-08-17T08:28:02Z</time>
      </trkpt>
      <trkpt lat="47.85118" lon="6.75711">
        <ele>784.1</ele>
        <time>2022-08-17T08:28:03Z</time>
      </trkpt>
      <trkpt lat="47.85118" lon="6.75712">
        <ele>784.1</ele>
        <time>2022-08-17T08:28:04Z</time>
      </trkpt>
      <trkpt lat="47.85118" lon="6.75714">
        <ele>784.2</ele>
        <time>2022-08-17T08:28:05Z</time>
      </trkpt>
      <trkpt lat="47.85119" lon="6.75715">
        <ele>784</ele>
        <time>2022-08-17T08:28:06Z</time>
      </trkpt>
      <trkpt lat="47.85119" lon="6.75716">
        <ele>784.1</ele>
        <time>2022-08-17T08:28:07Z</time>
      </trkpt>
      <trkpt lat="47.85119" lon="6.75718">
        <ele>784.1</ele>
        <time>2022-08-17T08:28:08Z</time>
      </trkpt>
      <trkpt lat="47.8512" lon="6.75719">
        <ele>784</ele>
        <time>2022-08-17T08:28:09Z</time>
      </trkpt>
      <trkpt lat="47.8512" lon="6.75721">
        <ele>784</ele>
        <time>2022-08-17T08:28:10Z</time>
      </trkpt>
      <trkpt lat="47.85121" lon="6.75722">
        <ele>783.9</ele>
        <time>2022-08-17T08:28:11Z</time>
      </trkpt>
      <trkpt lat="47.85122" lon="6.75723">
        <ele>783.6</ele>
        <time>2022-08-17T08:28:12Z</time>
      </trkpt>
      <trkpt lat="47.85122" lon="6.75725">
        <ele>783.6</ele>
        <time>2022-08-17T08:28:13Z</time>
      </trkpt>
      <trkpt lat="47.85123" lon="6.75726">
        <ele>783.4</ele>
        <time>2022-08-17T08:28:14Z</time>
      </trkpt>
      <trkpt lat="47.85123" lon="6.75727">
        <ele>783.4</ele>
        <time>2022-08-17T08:28:15Z</time>
      </trkpt>
      <trkpt lat="47.85123" lon="6.75729">
        <ele>783.3</ele>
        <time>2022-08-17T08:28:16Z</time>
      </trkpt>
      <trkpt lat="47.85123" lon="6.7573">
        <ele>783.3</ele>
        <time>2022-08-17T08:28:17Z</time>
      </trkpt>
      <trkpt lat="47.85124" lon="6.75731">
        <ele>783.1</ele>
        <time>2022-08-17T08:28:18Z</time>
      </trkpt>
      <trkpt lat="47.85124" lon="6.75733">
        <ele>783</ele>
        <time>2022-08-17T08:28:19Z</time>
      </trkpt>
      <trkpt lat="47.85124" lon="6.75734">
        <ele>783</ele>
        <time>2022-08-17T08:28:20Z</time>
      </trkpt>
      <trkpt lat="47.85124" lon="6.75735">
        <ele>783</ele>
        <time>2022-08-17T08:28:21Z</time>
      </trkpt>
      <trkpt lat="47.85125" lon="6.75736">
        <ele>782.8</ele>
        <time>2022-08-17T08:28:22Z</time>
      </trkpt>
      <trkpt lat="47.85125" lon="6.75737">
        <ele>782.7</ele>
        <time>2022-08-17T08:28:23Z</time>
      </trkpt>
      <trkpt lat="47.85125" lon="6.75738">
        <ele>782.7</ele>
        <time>2022-08-17T08:28:24Z</time>
      </trkpt>
      <trkpt lat="47.85124" lon="6.75739">
        <ele>782.9</ele>
        <time>2022-08-17T08:28:25Z</time>
      </trkpt>
      <trkpt lat="47.85124" lon="6.7574">
        <ele>782.9</ele>
        <time>2022-08-17T08:28:26Z</time>
      </trkpt>
      <trkpt lat="47.85124" lon="6.75741">
        <ele>782.9</ele>
        <time>2022-08-17T08:28:27Z</time>
      </trkpt>
      <trkpt lat="47.85124" lon="6.75743">
        <ele>782.9</ele>
        <time>2022-08-17T08:28:28Z</time>
      </trkpt>
      <trkpt lat="47.85124" lon="6.75744">
        <ele>782.9</ele>
        <time>2022-08-17T08:28:29Z</time>
      </trkpt>
      <trkpt lat="47.85124" lon="6.75745">
        <ele>782.8</ele>
        <time>2022-08-17T08:28:30Z</time>
      </trkpt>
      <trkpt lat="47.85124" lon="6.75747">
        <ele>782.8</ele>
        <time>2022-08-17T08:28:31Z</time>
      </trkpt>
      <trkpt lat="47.85124" lon="6.75748">
        <ele>782.8</ele>
        <time>2022-08-17T08:28:32Z</time>
      </trkpt>
      <trkpt lat="47.85125" lon="6.75749">
        <ele>782.5</ele>
        <time>2022-08-17T08:28:33Z</time>
      </trkpt>
      <trkpt lat="47.85125" lon="6.7575">
        <ele>782.5</ele>
        <time>2022-08-17T08:28:34Z</time>
      </trkpt>
      <trkpt lat="47.85126" lon="6.75751">
        <ele>782.3</ele>
        <time>2022-08-17T08:28:35Z</time>
      </trkpt>
      <trkpt lat="47.85127" lon="6.75752">
        <ele>782</ele>
        <time>2022-08-17T08:28:36Z</time>
      </trkpt>
      <trkpt lat="47.85128" lon="6.75753">
        <ele>781.8</ele>
        <time>2022-08-17T08:28:37Z</time>
      </trkpt>
      <trkpt lat="47.85128" lon="6.75754">
        <ele>781.8</ele>
        <time>2022-08-17T08:28:38Z</time>
      </trkpt>
      <trkpt lat="47.85129" lon="6.75755">
        <ele>781.6</ele>
        <time>2022-08-17T08:28:39Z</time>
      </trkpt>
      <trkpt lat="47.8513" lon="6.75756">
        <ele>781.3</ele>
        <time>2022-08-17T08:28:40Z</time>
      </trkpt>
      <trkpt lat="47.8513" lon="6.75757">
        <ele>781.3</ele>
        <time>2022-08-17T08:28:41Z</time>
      </trkpt>
      <trkpt lat="47.8513" lon="6.75759">
        <ele>781.3</ele>
        <time>2022-08-17T08:28:42Z</time>
      </trkpt>
      <trkpt lat="47.85131" lon="6.7576">
        <ele>781.1</ele>
        <time>2022-08-17T08:28:43Z</time>
      </trkpt>
      <trkpt lat="47.85131" lon="6.75761">
        <ele>781.1</ele>
        <time>2022-08-17T08:28:44Z</time>
      </trkpt>
      <trkpt lat="47.85131" lon="6.75762">
        <ele>781.1</ele>
        <time>2022-08-17T08:28:45Z</time>
      </trkpt>
      <trkpt lat="47.85131" lon="6.75764">
        <ele>781.1</ele>
        <time>2022-08-17T08:28:46Z</time>
      </trkpt>
      <trkpt lat="47.85131" lon="6.75765">
        <ele>781.1</ele>
        <time>2022-08-17T08:28:47Z</time>
      </trkpt>
      <trkpt lat="47.85132" lon="6.75766">
        <ele>780.9</ele>
        <time>2022-08-17T08:28:48Z</time>
      </trkpt>
      <trkpt lat="47.85132" lon="6.75767">
        <ele>780.9</ele>
        <time>2022-08-17T08:28:49Z</time>
      </trkpt>
      <trkpt lat="47.85133" lon="6.75769">
        <ele>780.6</ele>
        <time>2022-08-17T08:28:50Z</time>
      </trkpt>
      <trkpt lat="47.85134" lon="6.7577">
        <ele>780.4</ele>
        <time>2022-08-17T08:28:51Z</time>
      </trkpt>
      <trkpt lat="47.85135" lon="6.75771">
        <ele>780.1</ele>
        <time>2022-08-17T08:28:52Z</time>
      </trkpt>
      <trkpt lat="47.85136" lon="6.75772">
        <ele>779.8</ele>
        <time>2022-08-17T08:28:53Z</time>
      </trkpt>
      <trkpt lat="47.85137" lon="6.75773">
        <ele>779.5</ele>
        <time>2022-08-17T08:28:54Z</time>
      </trkpt>
      <trkpt lat="47.85137" lon="6.75774">
        <ele>779.5</ele>
        <time>2022-08-17T08:28:55Z</time>
      </trkpt>
      <trkpt lat="47.85138" lon="6.75775">
        <ele>779.3</ele>
        <time>2022-08-17T08:28:56Z</time>
      </trkpt>
      <trkpt lat="47.85138" lon="6.75776">
        <ele>779.3</ele>
        <time>2022-08-17T08:28:57Z</time>
      </trkpt>
      <trkpt lat="47.85139" lon="6.75778">
        <ele>779</ele>
        <time>2022-08-17T08:28:58Z</time>
      </trkpt>
      <trkpt lat="47.85139" lon="6.75779">
        <ele>779</ele>
        <time>2022-08-17T08:28:59Z</time>
      </trkpt>
      <trkpt lat="47.85139" lon="6.7578">
        <ele>779.1</ele>
        <time>2022-08-17T08:29:00Z</time>
      </trkpt>
      <trkpt lat="47.85139" lon="6.75782">
        <ele>779.1</ele>
        <time>2022-08-17T08:29:01Z</time>
      </trkpt>
      <trkpt lat="47.85139" lon="6.75783">
        <ele>779.2</ele>
        <time>2022-08-17T08:29:02Z</time>
      </trkpt>
      <trkpt lat="47.8514" lon="6.75784">
        <ele>779</ele>
        <time>2022-08-17T08:29:03Z</time>
      </trkpt>
      <trkpt lat="47.8514" lon="6.75786">
        <ele>779</ele>
        <time>2022-08-17T08:29:04Z</time>
      </trkpt>
      <trkpt lat="47.8514" lon="6.75787">
        <ele>779.1</ele>
        <time>2022-08-17T08:29:05Z</time>
      </trkpt>
      <trkpt lat="47.85141" lon="6.75789">
        <ele>778.9</ele>
        <time>2022-08-17T08:29:06Z</time>
      </trkpt>
      <trkpt lat="47.85142" lon="6.7579">
        <ele>778.7</ele>
        <time>2022-08-17T08:29:07Z</time>
      </trkpt>
      <trkpt lat="47.85142" lon="6.75792">
        <ele>778.8</ele>
        <time>2022-08-17T08:29:08Z</time>
      </trkpt>
      <trkpt lat="47.85143" lon="6.75793">
        <ele>778.6</ele>
        <time>2022-08-17T08:29:09Z</time>
      </trkpt>
      <trkpt lat="47.85143" lon="6.75795">
        <ele>778.7</ele>
        <time>2022-08-17T08:29:10Z</time>
      </trkpt>
      <trkpt lat="47.85143" lon="6.75797">
        <ele>778.8</ele>
        <time>2022-08-17T08:29:11Z</time>
      </trkpt>
      <trkpt lat="47.85144" lon="6.75798">
        <ele>778.6</ele>
        <time>2022-08-17T08:29:12Z</time>
      </trkpt>
      <trkpt lat="47.85144" lon="6.75799">
        <ele>778.6</ele>
        <time>2022-08-17T08:29:13Z</time>
      </trkpt>
      <trkpt lat="47.85145" lon="6.75801">
        <ele>778.5</ele>
        <time>2022-08-17T08:29:14Z</time>
      </trkpt>
      <trkpt lat="47.85145" lon="6.75802">
        <ele>778.5</ele>
        <time>2022-08-17T08:29:15Z</time>
      </trkpt>
      <trkpt lat="47.85146" lon="6.75804">
        <ele>778.4</ele>
        <time>2022-08-17T08:29:16Z</time>
      </trkpt>
      <trkpt lat="47.85146" lon="6.75805">
        <ele>778.4</ele>
        <time>2022-08-17T08:29:17Z</time>
      </trkpt>
      <trkpt lat="47.85147" lon="6.75806">
        <ele>778.2</ele>
        <time>2022-08-17T08:29:18Z</time>
      </trkpt>
      <trkpt lat="47.85147" lon="6.75808">
        <ele>778.2</ele>
        <time>2022-08-17T08:29:19Z</time>
      </trkpt>
      <trkpt lat="47.85148" lon="6.75809">
        <ele>778</ele>
        <time>2022-08-17T08:29:20Z</time>
      </trkpt>
      <trkpt lat="47.85148" lon="6.75811">
        <ele>778</ele>
        <time>2022-08-17T08:29:21Z</time>
      </trkpt>
      <trkpt lat="47.85149" lon="6.75812">
        <ele>777.8</ele>
        <time>2022-08-17T08:29:22Z</time>
      </trkpt>
      <trkpt lat="47.85149" lon="6.75814">
        <ele>777.8</ele>
        <time>2022-08-17T08:29:23Z</time>
      </trkpt>
      <trkpt lat="47.8515" lon="6.75815">
        <ele>777.6</ele>
        <time>2022-08-17T08:29:24Z</time>
      </trkpt>
      <trkpt lat="47.85151" lon="6.75816">
        <ele>777.4</ele>
        <time>2022-08-17T08:29:25Z</time>
      </trkpt>
      <trkpt lat="47.85151" lon="6.75818">
        <ele>777.4</ele>
        <time>2022-08-17T08:29:26Z</time>
      </trkpt>
      <trkpt lat="47.85152" lon="6.75819">
        <ele>777.2</ele>
        <time>2022-08-17T08:29:27Z</time>
      </trkpt>
      <trkpt lat="47.85152" lon="6.7582">
        <ele>777.2</ele>
        <time>2022-08-17T08:29:28Z</time>
      </trkpt>
      <trkpt lat="47.85153" lon="6.75821">
        <ele>777</ele>
        <time>2022-08-17T08:29:29Z</time>
      </trkpt>
      <trkpt lat="47.85154" lon="6.75822">
        <ele>776.7</ele>
        <time>2022-08-17T08:29:30Z</time>
      </trkpt>
      <trkpt lat="47.85155" lon="6.75824">
        <ele>776.5</ele>
        <time>2022-08-17T08:29:31Z</time>
      </trkpt>
      <trkpt lat="47.85156" lon="6.75825">
        <ele>776.3</ele>
        <time>2022-08-17T08:29:32Z</time>
      </trkpt>
      <trkpt lat="47.85156" lon="6.75826">
        <ele>776.3</ele>
        <time>2022-08-17T08:29:33Z</time>
      </trkpt>
      <trkpt lat="47.85157" lon="6.75828">
        <ele>776.1</ele>
        <time>2022-08-17T08:29:34Z</time>
      </trkpt>
      <trkpt lat="47.85157" lon="6.75829">
        <ele>776.1</ele>
        <time>2022-08-17T08:29:35Z</time>
      </trkpt>
      <trkpt lat="47.85158" lon="6.75831">
        <ele>775.9</ele>
        <time>2022-08-17T08:29:36Z</time>
      </trkpt>
      <trkpt lat="47.85158" lon="6.75832">
        <ele>775.9</ele>
        <time>2022-08-17T08:29:37Z</time>
      </trkpt>
      <trkpt lat="47.85158" lon="6.75834">
        <ele>775.9</ele>
        <time>2022-08-17T08:29:38Z</time>
      </trkpt>
      <trkpt lat="47.85158" lon="6.75835">
        <ele>775.9</ele>
        <time>2022-08-17T08:29:39Z</time>
      </trkpt>
      <trkpt lat="47.85158" lon="6.75837">
        <ele>776</ele>
        <time>2022-08-17T08:29:40Z</time>
      </trkpt>
      <trkpt lat="47.85159" lon="6.75838">
        <ele>775.8</ele>
        <time>2022-08-17T08:29:41Z</time>
      </trkpt>
      <trkpt lat="47.85159" lon="6.75839">
        <ele>775.8</ele>
        <time>2022-08-17T08:29:42Z</time>
      </trkpt>
      <trkpt lat="47.8516" lon="6.75841">
        <ele>775.6</ele>
        <time>2022-08-17T08:29:43Z</time>
      </trkpt>
      <trkpt lat="47.8516" lon="6.75842">
        <ele>775.7</ele>
        <time>2022-08-17T08:29:44Z</time>
      </trkpt>
      <trkpt lat="47.8516" lon="6.75843">
        <ele>775.7</ele>
        <time>2022-08-17T08:29:45Z</time>
      </trkpt>
      <trkpt lat="47.85161" lon="6.75844">
        <ele>775.5</ele>
        <time>2022-08-17T08:29:46Z</time>
      </trkpt>
      <trkpt lat="47.85161" lon="6.75845">
        <ele>775.6</ele>
        <time>2022-08-17T08:29:47Z</time>
      </trkpt>
      <trkpt lat="47.85162" lon="6.75847">
        <ele>775.4</ele>
        <time>2022-08-17T08:29:48Z</time>
      </trkpt>
      <trkpt lat="47.85162" lon="6.75848">
        <ele>775.4</ele>
        <time>2022-08-17T08:29:49Z</time>
      </trkpt>
      <trkpt lat="47.85163" lon="6.75849">
        <ele>775.3</ele>
        <time>2022-08-17T08:29:50Z</time>
      </trkpt>
      <trkpt lat="47.85164" lon="6.75851">
        <ele>775.2</ele>
        <time>2022-08-17T08:29:51Z</time>
      </trkpt>
      <trkpt lat="47.85164" lon="6.75852">
        <ele>775.2</ele>
        <time>2022-08-17T08:29:52Z</time>
      </trkpt>
      <trkpt lat="47.85165" lon="6.75853">
        <ele>775</ele>
        <time>2022-08-17T08:29:53Z</time>
      </trkpt>
      <trkpt lat="47.85166" lon="6.75855">
        <ele>774.9</ele>
        <time>2022-08-17T08:29:54Z</time>
      </trkpt>
      <trkpt lat="47.85166" lon="6.75856">
        <ele>774.9</ele>
        <time>2022-08-17T08:29:55Z</time>
      </trkpt>
      <trkpt lat="47.85167" lon="6.75857">
        <ele>774.8</ele>
        <time>2022-08-17T08:29:56Z</time>
      </trkpt>
      <trkpt lat="47.85168" lon="6.75858">
        <ele>774.6</ele>
        <time>2022-08-17T08:29:57Z</time>
      </trkpt>
      <trkpt lat="47.85168" lon="6.75859">
        <ele>774.7</ele>
        <time>2022-08-17T08:29:58Z</time>
      </trkpt>
      <trkpt lat="47.85169" lon="6.75861">
        <ele>774.6</ele>
        <time>2022-08-17T08:29:59Z</time>
      </trkpt>
      <trkpt lat="47.8517" lon="6.75862">
        <ele>774.4</ele>
        <time>2022-08-17T08:30:00Z</time>
      </trkpt>
      <trkpt lat="47.85171" lon="6.75863">
        <ele>774.3</ele>
        <time>2022-08-17T08:30:01Z</time>
      </trkpt>
      <trkpt lat="47.85171" lon="6.75864">
        <ele>774.3</ele>
        <time>2022-08-17T08:30:02Z</time>
      </trkpt>
      <trkpt lat="47.85172" lon="6.75866">
        <ele>774.2</ele>
        <time>2022-08-17T08:30:03Z</time>
      </trkpt>
      <trkpt lat="47.85172" lon="6.75867">
        <ele>774.3</ele>
        <time>2022-08-17T08:30:04Z</time>
      </trkpt>
      <trkpt lat="47.85173" lon="6.75868">
        <ele>774.2</ele>
        <time>2022-08-17T08:30:05Z</time>
      </trkpt>
      <trkpt lat="47.85174" lon="6.75869">
        <ele>774</ele>
        <time>2022-08-17T08:30:06Z</time>
      </trkpt>
      <trkpt lat="47.85174" lon="6.75871">
        <ele>774.1</ele>
        <time>2022-08-17T08:30:07Z</time>
      </trkpt>
      <trkpt lat="47.85175" lon="6.75872">
        <ele>774</ele>
        <time>2022-08-17T08:30:08Z</time>
      </trkpt>
      <trkpt lat="47.85175" lon="6.75873">
        <ele>774.1</ele>
        <time>2022-08-17T08:30:09Z</time>
      </trkpt>
      <trkpt lat="47.85176" lon="6.75875">
        <ele>774</ele>
        <time>2022-08-17T08:30:10Z</time>
      </trkpt>
      <trkpt lat="47.85176" lon="6.75876">
        <ele>774</ele>
        <time>2022-08-17T08:30:11Z</time>
      </trkpt>
      <trkpt lat="47.85176" lon="6.75878">
        <ele>774.1</ele>
        <time>2022-08-17T08:30:12Z</time>
      </trkpt>
      <trkpt lat="47.85177" lon="6.7588">
        <ele>774.1</ele>
        <time>2022-08-17T08:30:13Z</time>
      </trkpt>
      <trkpt lat="47.85177" lon="6.75881">
        <ele>774.1</ele>
        <time>2022-08-17T08:30:14Z</time>
      </trkpt>
      <trkpt lat="47.85177" lon="6.75883">
        <ele>774.2</ele>
        <time>2022-08-17T08:30:15Z</time>
      </trkpt>
      <trkpt lat="47.85178" lon="6.75884">
        <ele>774.1</ele>
        <time>2022-08-17T08:30:16Z</time>
      </trkpt>
      <trkpt lat="47.85178" lon="6.75885">
        <ele>774.2</ele>
        <time>2022-08-17T08:30:17Z</time>
      </trkpt>
      <trkpt lat="47.85179" lon="6.75887">
        <ele>774.1</ele>
        <time>2022-08-17T08:30:18Z</time>
      </trkpt>
      <trkpt lat="47.85179" lon="6.75888">
        <ele>774.2</ele>
        <time>2022-08-17T08:30:19Z</time>
      </trkpt>
      <trkpt lat="47.8518" lon="6.75889">
        <ele>774.1</ele>
        <time>2022-08-17T08:30:20Z</time>
      </trkpt>
      <trkpt lat="47.8518" lon="6.7589">
        <ele>774.1</ele>
        <time>2022-08-17T08:30:21Z</time>
      </trkpt>
      <trkpt lat="47.85181" lon="6.75891">
        <ele>774</ele>
        <time>2022-08-17T08:30:22Z</time>
      </trkpt>
      <trkpt lat="47.85182" lon="6.75893">
        <ele>773.9</ele>
        <time>2022-08-17T08:30:23Z</time>
      </trkpt>
      <trkpt lat="47.85182" lon="6.75894">
        <ele>773.9</ele>
        <time>2022-08-17T08:30:24Z</time>
      </trkpt>
      <trkpt lat="47.85183" lon="6.75895">
        <ele>773.7</ele>
        <time>2022-08-17T08:30:25Z</time>
      </trkpt>
      <trkpt lat="47.85184" lon="6.75897">
        <ele>773.6</ele>
        <time>2022-08-17T08:30:26Z</time>
      </trkpt>
      <trkpt lat="47.85184" lon="6.75898">
        <ele>773.6</ele>
        <time>2022-08-17T08:30:27Z</time>
      </trkpt>
      <trkpt lat="47.85185" lon="6.759">
        <ele>773.5</ele>
        <time>2022-08-17T08:30:28Z</time>
      </trkpt>
      <trkpt lat="47.85186" lon="6.75901">
        <ele>773.3</ele>
        <time>2022-08-17T08:30:29Z</time>
      </trkpt>
      <trkpt lat="47.85186" lon="6.75902">
        <ele>773.4</ele>
        <time>2022-08-17T08:30:30Z</time>
      </trkpt>
      <trkpt lat="47.85187" lon="6.75904">
        <ele>773.2</ele>
        <time>2022-08-17T08:30:31Z</time>
      </trkpt>
      <trkpt lat="47.85187" lon="6.75905">
        <ele>773.2</ele>
        <time>2022-08-17T08:30:32Z</time>
      </trkpt>
      <trkpt lat="47.85188" lon="6.75907">
        <ele>773.1</ele>
        <time>2022-08-17T08:30:33Z</time>
      </trkpt>
      <trkpt lat="47.85188" lon="6.75908">
        <ele>773.1</ele>
        <time>2022-08-17T08:30:34Z</time>
      </trkpt>
      <trkpt lat="47.85189" lon="6.75909">
        <ele>772.9</ele>
        <time>2022-08-17T08:30:35Z</time>
      </trkpt>
      <trkpt lat="47.85189" lon="6.75911">
        <ele>772.9</ele>
        <time>2022-08-17T08:30:36Z</time>
      </trkpt>
      <trkpt lat="47.8519" lon="6.75912">
        <ele>772.8</ele>
        <time>2022-08-17T08:30:37Z</time>
      </trkpt>
      <trkpt lat="47.8519" lon="6.75913">
        <ele>772.8</ele>
        <time>2022-08-17T08:30:38Z</time>
      </trkpt>
      <trkpt lat="47.8519" lon="6.75915">
        <ele>772.8</ele>
        <time>2022-08-17T08:30:39Z</time>
      </trkpt>
      <trkpt lat="47.8519" lon="6.75916">
        <ele>772.8</ele>
        <time>2022-08-17T08:30:40Z</time>
      </trkpt>
      <trkpt lat="47.85191" lon="6.75918">
        <ele>772.7</ele>
        <time>2022-08-17T08:30:41Z</time>
      </trkpt>
      <trkpt lat="47.85191" lon="6.75919">
        <ele>772.7</ele>
        <time>2022-08-17T08:30:42Z</time>
      </trkpt>
      <trkpt lat="47.85192" lon="6.7592">
        <ele>772.6</ele>
        <time>2022-08-17T08:30:43Z</time>
      </trkpt>
      <trkpt lat="47.85193" lon="6.75922">
        <ele>772.5</ele>
        <time>2022-08-17T08:30:44Z</time>
      </trkpt>
      <trkpt lat="47.85193" lon="6.75923">
        <ele>772.5</ele>
        <time>2022-08-17T08:30:45Z</time>
      </trkpt>
      <trkpt lat="47.85194" lon="6.75924">
        <ele>772.3</ele>
        <time>2022-08-17T08:30:46Z</time>
      </trkpt>
      <trkpt lat="47.85195" lon="6.75925">
        <ele>772.1</ele>
        <time>2022-08-17T08:30:47Z</time>
      </trkpt>
      <trkpt lat="47.85195" lon="6.75926">
        <ele>772.2</ele>
        <time>2022-08-17T08:30:48Z</time>
      </trkpt>
      <trkpt lat="47.85196" lon="6.75927">
        <ele>772</ele>
        <time>2022-08-17T08:30:49Z</time>
      </trkpt>
      <trkpt lat="47.85197" lon="6.75929">
        <ele>771.8</ele>
        <time>2022-08-17T08:30:50Z</time>
      </trkpt>
      <trkpt lat="47.85197" lon="6.7593">
        <ele>771.8</ele>
        <time>2022-08-17T08:30:51Z</time>
      </trkpt>
      <trkpt lat="47.85198" lon="6.75931">
        <ele>771.6</ele>
        <time>2022-08-17T08:30:52Z</time>
      </trkpt>
      <trkpt lat="47.85198" lon="6.75932">
        <ele>771.7</ele>
        <time>2022-08-17T08:30:53Z</time>
      </trkpt>
      <trkpt lat="47.85199" lon="6.75933">
        <ele>771.5</ele>
        <time>2022-08-17T08:30:54Z</time>
      </trkpt>
      <trkpt lat="47.852" lon="6.75934">
        <ele>771.3</ele>
        <time>2022-08-17T08:30:55Z</time>
      </trkpt>
      <trkpt lat="47.85201" lon="6.75935">
        <ele>771.2</ele>
        <time>2022-08-17T08:30:56Z</time>
      </trkpt>
      <trkpt lat="47.85201" lon="6.75936">
        <ele>771.2</ele>
        <time>2022-08-17T08:30:57Z</time>
      </trkpt>
      <trkpt lat="47.85202" lon="6.75937">
        <ele>771.1</ele>
        <time>2022-08-17T08:30:58Z</time>
      </trkpt>
      <trkpt lat="47.85203" lon="6.75938">
        <ele>770.9</ele>
        <time>2022-08-17T08:30:59Z</time>
      </trkpt>
      <trkpt lat="47.85204" lon="6.75939">
        <ele>770.8</ele>
        <time>2022-08-17T08:31:00Z</time>
      </trkpt>
      <trkpt lat="47.85204" lon="6.7594">
        <ele>770.9</ele>
        <time>2022-08-17T08:31:01Z</time>
      </trkpt>
      <trkpt lat="47.85205" lon="6.75941">
        <ele>770.8</ele>
        <time>2022-08-17T08:31:02Z</time>
      </trkpt>
      <trkpt lat="47.85206" lon="6.75942">
        <ele>770.7</ele>
        <time>2022-08-17T08:31:04Z</time>
      </trkpt>
      <trkpt lat="47.85206" lon="6.75943">
        <ele>770.8</ele>
        <time>2022-08-17T08:31:05Z</time>
      </trkpt>
      <trkpt lat="47.85207" lon="6.75943">
        <ele>770.6</ele>
        <time>2022-08-17T08:31:06Z</time>
      </trkpt>
      <trkpt lat="47.85207" lon="6.75944">
        <ele>770.7</ele>
        <time>2022-08-17T08:31:07Z</time>
      </trkpt>
      <trkpt lat="47.85208" lon="6.75945">
        <ele>770.6</ele>
        <time>2022-08-17T08:31:08Z</time>
      </trkpt>
      <trkpt lat="47.85209" lon="6.75946">
        <ele>770.5</ele>
        <time>2022-08-17T08:31:09Z</time>
      </trkpt>
      <trkpt lat="47.85209" lon="6.75947">
        <ele>770.5</ele>
        <time>2022-08-17T08:31:10Z</time>
      </trkpt>
      <trkpt lat="47.8521" lon="6.75948">
        <ele>770.4</ele>
        <time>2022-08-17T08:31:11Z</time>
      </trkpt>
      <trkpt lat="47.85211" lon="6.75948">
        <ele>770.2</ele>
        <time>2022-08-17T08:31:12Z</time>
      </trkpt>
      <trkpt lat="47.85212" lon="6.75949">
        <ele>770.2</ele>
        <time>2022-08-17T08:31:13Z</time>
      </trkpt>
      <trkpt lat="47.85213" lon="6.7595">
        <ele>770.1</ele>
        <time>2022-08-17T08:31:14Z</time>
      </trkpt>
      <trkpt lat="47.85214" lon="6.7595">
        <ele>769.9</ele>
        <time>2022-08-17T08:31:15Z</time>
      </trkpt>
      <trkpt lat="47.85215" lon="6.75951">
        <ele>769.8</ele>
        <time>2022-08-17T08:31:16Z</time>
      </trkpt>
      <trkpt lat="47.85216" lon="6.75952">
        <ele>769.8</ele>
        <time>2022-08-17T08:31:17Z</time>
      </trkpt>
      <trkpt lat="47.85217" lon="6.75953">
        <ele>769.7</ele>
        <time>2022-08-17T08:31:18Z</time>
      </trkpt>
      <trkpt lat="47.85218" lon="6.75954">
        <ele>769.6</ele>
        <time>2022-08-17T08:31:19Z</time>
      </trkpt>
      <trkpt lat="47.85219" lon="6.75955">
        <ele>769.6</ele>
        <time>2022-08-17T08:31:21Z</time>
      </trkpt>
      <trkpt lat="47.8522" lon="6.75956">
        <ele>769.5</ele>
        <time>2022-08-17T08:31:22Z</time>
      </trkpt>
      <trkpt lat="47.85221" lon="6.75956">
        <ele>769.4</ele>
        <time>2022-08-17T08:31:23Z</time>
      </trkpt>
      <trkpt lat="47.85222" lon="6.75957">
        <ele>769.4</ele>
        <time>2022-08-17T08:31:24Z</time>
      </trkpt>
      <trkpt lat="47.85223" lon="6.75957">
        <ele>769.3</ele>
        <time>2022-08-17T08:31:25Z</time>
      </trkpt>
      <trkpt lat="47.85224" lon="6.75958">
        <ele>769.2</ele>
        <time>2022-08-17T08:31:26Z</time>
      </trkpt>
      <trkpt lat="47.85225" lon="6.75958">
        <ele>769.1</ele>
        <time>2022-08-17T08:31:27Z</time>
      </trkpt>
      <trkpt lat="47.85226" lon="6.75959">
        <ele>769.1</ele>
        <time>2022-08-17T08:31:28Z</time>
      </trkpt>
      <trkpt lat="47.85227" lon="6.75959">
        <ele>769</ele>
        <time>2022-08-17T08:31:29Z</time>
      </trkpt>
      <trkpt lat="47.85228" lon="6.75959">
        <ele>768.9</ele>
        <time>2022-08-17T08:31:31Z</time>
      </trkpt>
      <trkpt lat="47.85229" lon="6.75959">
        <ele>768.7</ele>
        <time>2022-08-17T08:31:32Z</time>
      </trkpt>
      <trkpt lat="47.8523" lon="6.75959">
        <ele>768.6</ele>
        <time>2022-08-17T08:31:33Z</time>
      </trkpt>
      <trkpt lat="47.85231" lon="6.75959">
        <ele>768.5</ele>
        <time>2022-08-17T08:31:34Z</time>
      </trkpt>
      <trkpt lat="47.85232" lon="6.75959">
        <ele>768.4</ele>
        <time>2022-08-17T08:31:35Z</time>
      </trkpt>
      <trkpt lat="47.85233" lon="6.7596">
        <ele>768.4</ele>
        <time>2022-08-17T08:31:36Z</time>
      </trkpt>
      <trkpt lat="47.85234" lon="6.7596">
        <ele>768.3</ele>
        <time>2022-08-17T08:31:37Z</time>
      </trkpt>
      <trkpt lat="47.85235" lon="6.7596">
        <ele>768.2</ele>
        <time>2022-08-17T08:31:38Z</time>
      </trkpt>
      <trkpt lat="47.85236" lon="6.7596">
        <ele>768</ele>
        <time>2022-08-17T08:31:39Z</time>
      </trkpt>
      <trkpt lat="47.85236" lon="6.75961">
        <ele>768.2</ele>
        <time>2022-08-17T08:31:40Z</time>
      </trkpt>
      <trkpt lat="47.85237" lon="6.75961">
        <ele>768.1</ele>
        <time>2022-08-17T08:31:41Z</time>
      </trkpt>
      <trkpt lat="47.85238" lon="6.75961">
        <ele>768</ele>
        <time>2022-08-17T08:31:42Z</time>
      </trkpt>
      <trkpt lat="47.85239" lon="6.75962">
        <ele>768</ele>
        <time>2022-08-17T08:31:43Z</time>
      </trkpt>
      <trkpt lat="47.8524" lon="6.75962">
        <ele>767.9</ele>
        <time>2022-08-17T08:31:44Z</time>
      </trkpt>
      <trkpt lat="47.85241" lon="6.75962">
        <ele>767.8</ele>
        <time>2022-08-17T08:31:45Z</time>
      </trkpt>
      <trkpt lat="47.85242" lon="6.75962">
        <ele>767.7</ele>
        <time>2022-08-17T08:31:46Z</time>
      </trkpt>
      <trkpt lat="47.85243" lon="6.75962">
        <ele>767.6</ele>
        <time>2022-08-17T08:31:47Z</time>
      </trkpt>
      <trkpt lat="47.85244" lon="6.75962">
        <ele>767.5</ele>
        <time>2022-08-17T08:31:48Z</time>
      </trkpt>
      <trkpt lat="47.85245" lon="6.75963">
        <ele>767.5</ele>
        <time>2022-08-17T08:31:49Z</time>
      </trkpt>
      <trkpt lat="47.85246" lon="6.75963">
        <ele>767.4</ele>
        <time>2022-08-17T08:31:50Z</time>
      </trkpt>
      <trkpt lat="47.85247" lon="6.75964">
        <ele>767.5</ele>
        <time>2022-08-17T08:31:51Z</time>
      </trkpt>
      <trkpt lat="47.85248" lon="6.75964">
        <ele>767.4</ele>
        <time>2022-08-17T08:31:52Z</time>
      </trkpt>
      <trkpt lat="47.85249" lon="6.75964">
        <ele>767.3</ele>
        <time>2022-08-17T08:31:53Z</time>
      </trkpt>
      <trkpt lat="47.8525" lon="6.75965">
        <ele>767.4</ele>
        <time>2022-08-17T08:31:54Z</time>
      </trkpt>
      <trkpt lat="47.85251" lon="6.75965">
        <ele>767.3</ele>
        <time>2022-08-17T08:31:55Z</time>
      </trkpt>
      <trkpt lat="47.85252" lon="6.75965">
        <ele>767.2</ele>
        <time>2022-08-17T08:31:56Z</time>
      </trkpt>
      <trkpt lat="47.85253" lon="6.75966">
        <ele>767.2</ele>
        <time>2022-08-17T08:31:57Z</time>
      </trkpt>
      <trkpt lat="47.85254" lon="6.75966">
        <ele>767.1</ele>
        <time>2022-08-17T08:31:58Z</time>
      </trkpt>
      <trkpt lat="47.85255" lon="6.75967">
        <ele>767.2</ele>
        <time>2022-08-17T08:31:59Z</time>
      </trkpt>
      <trkpt lat="47.85256" lon="6.75968">
        <ele>767.3</ele>
        <time>2022-08-17T08:32:00Z</time>
      </trkpt>
      <trkpt lat="47.85257" lon="6.75968">
        <ele>767.1</ele>
        <time>2022-08-17T08:32:01Z</time>
      </trkpt>
      <trkpt lat="47.85259" lon="6.75969">
        <ele>767</ele>
        <time>2022-08-17T08:32:02Z</time>
      </trkpt>
      <trkpt lat="47.8526" lon="6.7597">
        <ele>767.1</ele>
        <time>2022-08-17T08:32:03Z</time>
      </trkpt>
      <trkpt lat="47.85261" lon="6.7597">
        <ele>767</ele>
        <time>2022-08-17T08:32:04Z</time>
      </trkpt>
      <trkpt lat="47.85262" lon="6.7597">
        <ele>766.8</ele>
        <time>2022-08-17T08:32:05Z</time>
      </trkpt>
      <trkpt lat="47.85263" lon="6.75971">
        <ele>766.9</ele>
        <time>2022-08-17T08:32:06Z</time>
      </trkpt>
      <trkpt lat="47.85264" lon="6.75971">
        <ele>766.7</ele>
        <time>2022-08-17T08:32:07Z</time>
      </trkpt>
      <trkpt lat="47.85265" lon="6.75971">
        <ele>766.6</ele>
        <time>2022-08-17T08:32:08Z</time>
      </trkpt>
      <trkpt lat="47.85266" lon="6.75972">
        <ele>766.7</ele>
        <time>2022-08-17T08:32:09Z</time>
      </trkpt>
      <trkpt lat="47.85267" lon="6.75972">
        <ele>766.5</ele>
        <time>2022-08-17T08:32:10Z</time>
      </trkpt>
      <trkpt lat="47.85268" lon="6.75972">
        <ele>766.4</ele>
        <time>2022-08-17T08:32:11Z</time>
      </trkpt>
      <trkpt lat="47.85269" lon="6.75973">
        <ele>766.4</ele>
        <time>2022-08-17T08:32:12Z</time>
      </trkpt>
      <trkpt lat="47.8527" lon="6.75973">
        <ele>766.2</ele>
        <time>2022-08-17T08:32:13Z</time>
      </trkpt>
      <trkpt lat="47.85271" lon="6.75974">
        <ele>766.2</ele>
        <time>2022-08-17T08:32:14Z</time>
      </trkpt>
      <trkpt lat="47.85272" lon="6.75974">
        <ele>766.1</ele>
        <time>2022-08-17T08:32:15Z</time>
      </trkpt>
      <trkpt lat="47.85273" lon="6.75975">
        <ele>766.1</ele>
        <time>2022-08-17T08:32:16Z</time>
      </trkpt>
      <trkpt lat="47.85274" lon="6.75975">
        <ele>765.9</ele>
        <time>2022-08-17T08:32:17Z</time>
      </trkpt>
      <trkpt lat="47.85275" lon="6.75976">
        <ele>765.9</ele>
        <time>2022-08-17T08:32:18Z</time>
      </trkpt>
      <trkpt lat="47.85276" lon="6.75977">
        <ele>765.9</ele>
        <time>2022-08-17T08:32:19Z</time>
      </trkpt>
      <trkpt lat="47.85277" lon="6.75977">
        <ele>765.8</ele>
        <time>2022-08-17T08:32:20Z</time>
      </trkpt>
      <trkpt lat="47.85278" lon="6.75978">
        <ele>765.8</ele>
        <time>2022-08-17T08:32:21Z</time>
      </trkpt>
      <trkpt lat="47.85279" lon="6.75978">
        <ele>765.7</ele>
        <time>2022-08-17T08:32:22Z</time>
      </trkpt>
      <trkpt lat="47.8528" lon="6.75979">
        <ele>765.7</ele>
        <time>2022-08-17T08:32:24Z</time>
      </trkpt>
      <trkpt lat="47.85281" lon="6.75979">
        <ele>765.5</ele>
        <time>2022-08-17T08:32:25Z</time>
      </trkpt>
      <trkpt lat="47.85282" lon="6.75979">
        <ele>765.4</ele>
        <time>2022-08-17T08:32:26Z</time>
      </trkpt>
      <trkpt lat="47.85283" lon="6.75979">
        <ele>765.3</ele>
        <time>2022-08-17T08:32:27Z</time>
      </trkpt>
      <trkpt lat="47.85284" lon="6.7598">
        <ele>765.3</ele>
        <time>2022-08-17T08:32:28Z</time>
      </trkpt>
      <trkpt lat="47.85286" lon="6.7598">
        <ele>765</ele>
        <time>2022-08-17T08:32:29Z</time>
      </trkpt>
      <trkpt lat="47.85287" lon="6.7598">
        <ele>764.9</ele>
        <time>2022-08-17T08:32:30Z</time>
      </trkpt>
      <trkpt lat="47.85288" lon="6.7598">
        <ele>764.8</ele>
        <time>2022-08-17T08:32:31Z</time>
      </trkpt>
      <trkpt lat="47.85289" lon="6.75981">
        <ele>764.8</ele>
        <time>2022-08-17T08:32:32Z</time>
      </trkpt>
      <trkpt lat="47.8529" lon="6.75981">
        <ele>764.6</ele>
        <time>2022-08-17T08:32:33Z</time>
      </trkpt>
      <trkpt lat="47.85291" lon="6.75981">
        <ele>764.5</ele>
        <time>2022-08-17T08:32:34Z</time>
      </trkpt>
      <trkpt lat="47.85292" lon="6.75982">
        <ele>764.5</ele>
        <time>2022-08-17T08:32:35Z</time>
      </trkpt>
      <trkpt lat="47.85293" lon="6.75982">
        <ele>764.4</ele>
        <time>2022-08-17T08:32:36Z</time>
      </trkpt>
      <trkpt lat="47.85294" lon="6.75982">
        <ele>764.3</ele>
        <time>2022-08-17T08:32:37Z</time>
      </trkpt>
      <trkpt lat="47.85295" lon="6.75983">
        <ele>764.3</ele>
        <time>2022-08-17T08:32:38Z</time>
      </trkpt>
      <trkpt lat="47.85296" lon="6.75983">
        <ele>764.2</ele>
        <time>2022-08-17T08:32:39Z</time>
      </trkpt>
      <trkpt lat="47.85297" lon="6.75984">
        <ele>764.2</ele>
        <time>2022-08-17T08:32:40Z</time>
      </trkpt>
      <trkpt lat="47.85298" lon="6.75985">
        <ele>764.3</ele>
        <time>2022-08-17T08:32:41Z</time>
      </trkpt>
      <trkpt lat="47.85299" lon="6.75985">
        <ele>764.1</ele>
        <time>2022-08-17T08:32:42Z</time>
      </trkpt>
      <trkpt lat="47.853" lon="6.75986">
        <ele>764.2</ele>
        <time>2022-08-17T08:32:43Z</time>
      </trkpt>
      <trkpt lat="47.85302" lon="6.75986">
        <ele>763.9</ele>
        <time>2022-08-17T08:32:44Z</time>
      </trkpt>
      <trkpt lat="47.85303" lon="6.75986">
        <ele>763.8</ele>
        <time>2022-08-17T08:32:45Z</time>
      </trkpt>
      <trkpt lat="47.85304" lon="6.75986">
        <ele>763.7</ele>
        <time>2022-08-17T08:32:46Z</time>
      </trkpt>
      <trkpt lat="47.85305" lon="6.75987">
        <ele>763.7</ele>
        <time>2022-08-17T08:32:48Z</time>
      </trkpt>
      <trkpt lat="47.85306" lon="6.75987">
        <ele>763.6</ele>
        <time>2022-08-17T08:32:49Z</time>
      </trkpt>
      <trkpt lat="47.85308" lon="6.75987">
        <ele>763.4</ele>
        <time>2022-08-17T08:32:50Z</time>
      </trkpt>
      <trkpt lat="47.85309" lon="6.75987">
        <ele>763.3</ele>
        <time>2022-08-17T08:32:51Z</time>
      </trkpt>
      <trkpt lat="47.8531" lon="6.75988">
        <ele>763.3</ele>
        <time>2022-08-17T08:32:52Z</time>
      </trkpt>
      <trkpt lat="47.85311" lon="6.75988">
        <ele>763.2</ele>
        <time>2022-08-17T08:32:53Z</time>
      </trkpt>
      <trkpt lat="47.85312" lon="6.75988">
        <ele>763.1</ele>
        <time>2022-08-17T08:32:54Z</time>
      </trkpt>
      <trkpt lat="47.85313" lon="6.75988">
        <ele>763</ele>
        <time>2022-08-17T08:32:55Z</time>
      </trkpt>
      <trkpt lat="47.85314" lon="6.75988">
        <ele>762.9</ele>
        <time>2022-08-17T08:32:56Z</time>
      </trkpt>
      <trkpt lat="47.85315" lon="6.75989">
        <ele>762.9</ele>
        <time>2022-08-17T08:32:57Z</time>
      </trkpt>
      <trkpt lat="47.85316" lon="6.75989">
        <ele>762.8</ele>
        <time>2022-08-17T08:32:58Z</time>
      </trkpt>
      <trkpt lat="47.85317" lon="6.7599">
        <ele>762.8</ele>
        <time>2022-08-17T08:32:59Z</time>
      </trkpt>
      <trkpt lat="47.85318" lon="6.7599">
        <ele>762.7</ele>
        <time>2022-08-17T08:33:00Z</time>
      </trkpt>
      <trkpt lat="47.85319" lon="6.75991">
        <ele>762.8</ele>
        <time>2022-08-17T08:33:02Z</time>
      </trkpt>
      <trkpt lat="47.8532" lon="6.75992">
        <ele>762.8</ele>
        <time>2022-08-17T08:33:03Z</time>
      </trkpt>
      <trkpt lat="47.85321" lon="6.75992">
        <ele>762.7</ele>
        <time>2022-08-17T08:33:04Z</time>
      </trkpt>
      <trkpt lat="47.85322" lon="6.75993">
        <ele>762.7</ele>
        <time>2022-08-17T08:33:05Z</time>
      </trkpt>
      <trkpt lat="47.85323" lon="6.75993">
        <ele>762.5</ele>
        <time>2022-08-17T08:33:06Z</time>
      </trkpt>
      <trkpt lat="47.85324" lon="6.75993">
        <ele>762.4</ele>
        <time>2022-08-17T08:33:07Z</time>
      </trkpt>
      <trkpt lat="47.85325" lon="6.75994">
        <ele>762.4</ele>
        <time>2022-08-17T08:33:09Z</time>
      </trkpt>
      <trkpt lat="47.85326" lon="6.75994">
        <ele>762.3</ele>
        <time>2022-08-17T08:33:10Z</time>
      </trkpt>
      <trkpt lat="47.85327" lon="6.75994">
        <ele>762.2</ele>
        <time>2022-08-17T08:33:11Z</time>
      </trkpt>
      <trkpt lat="47.85328" lon="6.75995">
        <ele>762.2</ele>
        <time>2022-08-17T08:33:12Z</time>
      </trkpt>
      <trkpt lat="47.85329" lon="6.75995">
        <ele>762</ele>
        <time>2022-08-17T08:33:13Z</time>
      </trkpt>
      <trkpt lat="47.8533" lon="6.75996">
        <ele>762</ele>
        <time>2022-08-17T08:33:14Z</time>
      </trkpt>
      <trkpt lat="47.85331" lon="6.75996">
        <ele>761.9</ele>
        <time>2022-08-17T08:33:15Z</time>
      </trkpt>
      <trkpt lat="47.85332" lon="6.75997">
        <ele>761.9</ele>
        <time>2022-08-17T08:33:16Z</time>
      </trkpt>
      <trkpt lat="47.85333" lon="6.75997">
        <ele>761.7</ele>
        <time>2022-08-17T08:33:17Z</time>
      </trkpt>
      <trkpt lat="47.85335" lon="6.75997">
        <ele>761.5</ele>
        <time>2022-08-17T08:33:18Z</time>
      </trkpt>
      <trkpt lat="47.85336" lon="6.75998">
        <ele>761.5</ele>
        <time>2022-08-17T08:33:19Z</time>
      </trkpt>
      <trkpt lat="47.85337" lon="6.75998">
        <ele>761.3</ele>
        <time>2022-08-17T08:33:20Z</time>
      </trkpt>
      <trkpt lat="47.85338" lon="6.75999">
        <ele>761.4</ele>
        <time>2022-08-17T08:33:21Z</time>
      </trkpt>
      <trkpt lat="47.85339" lon="6.75999">
        <ele>761.2</ele>
        <time>2022-08-17T08:33:22Z</time>
      </trkpt>
      <trkpt lat="47.85341" lon="6.75999">
        <ele>761</ele>
        <time>2022-08-17T08:33:23Z</time>
      </trkpt>
      <trkpt lat="47.85342" lon="6.75999">
        <ele>760.9</ele>
        <time>2022-08-17T08:33:24Z</time>
      </trkpt>
      <trkpt lat="47.85343" lon="6.75999">
        <ele>760.8</ele>
        <time>2022-08-17T08:33:25Z</time>
      </trkpt>
      <trkpt lat="47.85344" lon="6.76">
        <ele>760.8</ele>
        <time>2022-08-17T08:33:26Z</time>
      </trkpt>
      <trkpt lat="47.85345" lon="6.76">
        <ele>760.7</ele>
        <time>2022-08-17T08:33:27Z</time>
      </trkpt>
      <trkpt lat="47.85346" lon="6.76">
        <ele>760.6</ele>
        <time>2022-08-17T08:33:29Z</time>
      </trkpt>
      <trkpt lat="47.85347" lon="6.76">
        <ele>760.5</ele>
        <time>2022-08-17T08:33:30Z</time>
      </trkpt>
      <trkpt lat="47.85348" lon="6.76001">
        <ele>760.6</ele>
        <time>2022-08-17T08:33:32Z</time>
      </trkpt>
      <trkpt lat="47.85349" lon="6.76001">
        <ele>760.5</ele>
        <time>2022-08-17T08:33:33Z</time>
      </trkpt>
      <trkpt lat="47.8535" lon="6.76001">
        <ele>760.4</ele>
        <time>2022-08-17T08:33:35Z</time>
      </trkpt>
      <trkpt lat="47.85351" lon="6.76001">
        <ele>760.3</ele>
        <time>2022-08-17T08:33:36Z</time>
      </trkpt>
      <trkpt lat="47.85352" lon="6.76001">
        <ele>760.2</ele>
        <time>2022-08-17T08:33:37Z</time>
      </trkpt>
      <trkpt lat="47.85353" lon="6.76001">
        <ele>760.1</ele>
        <time>2022-08-17T08:33:38Z</time>
      </trkpt>
      <trkpt lat="47.85354" lon="6.76001">
        <ele>760</ele>
        <time>2022-08-17T08:33:39Z</time>
      </trkpt>
      <trkpt lat="47.85354" lon="6.76002">
        <ele>760.2</ele>
        <time>2022-08-17T08:33:40Z</time>
      </trkpt>
      <trkpt lat="47.85356" lon="6.76002">
        <ele>760</ele>
        <time>2022-08-17T08:33:41Z</time>
      </trkpt>
      <trkpt lat="47.85357" lon="6.76002">
        <ele>759.9</ele>
        <time>2022-08-17T08:33:42Z</time>
      </trkpt>
      <trkpt lat="47.85358" lon="6.76002">
        <ele>759.8</ele>
        <time>2022-08-17T08:33:43Z</time>
      </trkpt>
      <trkpt lat="47.85359" lon="6.76003">
        <ele>759.9</ele>
        <time>2022-08-17T08:33:44Z</time>
      </trkpt>
      <trkpt lat="47.8536" lon="6.76003">
        <ele>759.8</ele>
        <time>2022-08-17T08:33:45Z</time>
      </trkpt>
      <trkpt lat="47.85361" lon="6.76003">
        <ele>759.7</ele>
        <time>2022-08-17T08:33:46Z</time>
      </trkpt>
      <trkpt lat="47.85362" lon="6.76003">
        <ele>759.5</ele>
        <time>2022-08-17T08:33:47Z</time>
      </trkpt>
      <trkpt lat="47.85363" lon="6.76002">
        <ele>759.2</ele>
        <time>2022-08-17T08:33:49Z</time>
      </trkpt>
      <trkpt lat="47.85364" lon="6.76002">
        <ele>759</ele>
        <time>2022-08-17T08:33:50Z</time>
      </trkpt>
      <trkpt lat="47.85365" lon="6.76002">
        <ele>758.9</ele>
        <time>2022-08-17T08:33:52Z</time>
      </trkpt>
      <trkpt lat="47.85366" lon="6.76002">
        <ele>758.8</ele>
        <time>2022-08-17T08:33:54Z</time>
      </trkpt>
      <trkpt lat="47.85367" lon="6.76002">
        <ele>758.6</ele>
        <time>2022-08-17T08:33:55Z</time>
      </trkpt>
      <trkpt lat="47.85368" lon="6.76002">
        <ele>758.5</ele>
        <time>2022-08-17T08:33:57Z</time>
      </trkpt>
      <trkpt lat="47.85369" lon="6.76003">
        <ele>758.6</ele>
        <time>2022-08-17T08:33:58Z</time>
      </trkpt>
      <trkpt lat="47.8537" lon="6.76002">
        <ele>758.2</ele>
        <time>2022-08-17T08:33:59Z</time>
      </trkpt>
      <trkpt lat="47.85371" lon="6.76002">
        <ele>758.1</ele>
        <time>2022-08-17T08:34:00Z</time>
      </trkpt>
      <trkpt lat="47.85372" lon="6.76002">
        <ele>758</ele>
        <time>2022-08-17T08:34:01Z</time>
      </trkpt>
      <trkpt lat="47.85373" lon="6.76002">
        <ele>757.8</ele>
        <time>2022-08-17T08:34:02Z</time>
      </trkpt>
      <trkpt lat="47.85374" lon="6.76001">
        <ele>757.4</ele>
        <time>2022-08-17T08:34:03Z</time>
      </trkpt>
      <trkpt lat="47.85376" lon="6.76001">
        <ele>757.1</ele>
        <time>2022-08-17T08:34:04Z</time>
      </trkpt>
      <trkpt lat="47.85377" lon="6.76">
        <ele>756.7</ele>
        <time>2022-08-17T08:34:06Z</time>
      </trkpt>
      <trkpt lat="47.85378" lon="6.76">
        <ele>756.6</ele>
        <time>2022-08-17T08:34:07Z</time>
      </trkpt>
      <trkpt lat="47.8538" lon="6.76">
        <ele>756.3</ele>
        <time>2022-08-17T08:34:08Z</time>
      </trkpt>
      <trkpt lat="47.85381" lon="6.76">
        <ele>756.1</ele>
        <time>2022-08-17T08:34:09Z</time>
      </trkpt>
      <trkpt lat="47.85382" lon="6.76">
        <ele>756</ele>
        <time>2022-08-17T08:34:10Z</time>
      </trkpt>
      <trkpt lat="47.85383" lon="6.76">
        <ele>755.8</ele>
        <time>2022-08-17T08:34:11Z</time>
      </trkpt>
      <trkpt lat="47.85384" lon="6.76">
        <ele>755.7</ele>
        <time>2022-08-17T08:34:12Z</time>
      </trkpt>
      <trkpt lat="47.85385" lon="6.76">
        <ele>755.6</ele>
        <time>2022-08-17T08:34:13Z</time>
      </trkpt>
      <trkpt lat="47.85386" lon="6.76001">
        <ele>755.8</ele>
        <time>2022-08-17T08:34:14Z</time>
      </trkpt>
      <trkpt lat="47.85387" lon="6.76001">
        <ele>755.6</ele>
        <time>2022-08-17T08:34:15Z</time>
      </trkpt>
      <trkpt lat="47.85389" lon="6.76002">
        <ele>755.7</ele>
        <time>2022-08-17T08:34:17Z</time>
      </trkpt>
      <trkpt lat="47.8539" lon="6.76002">
        <ele>755.4</ele>
        <time>2022-08-17T08:34:18Z</time>
      </trkpt>
      <trkpt lat="47.85391" lon="6.76003">
        <ele>755.6</ele>
        <time>2022-08-17T08:34:19Z</time>
      </trkpt>
      <trkpt lat="47.85393" lon="6.76004">
        <ele>755.4</ele>
        <time>2022-08-17T08:34:20Z</time>
      </trkpt>
      <trkpt lat="47.85394" lon="6.76005">
        <ele>755.5</ele>
        <time>2022-08-17T08:34:21Z</time>
      </trkpt>
      <trkpt lat="47.85395" lon="6.76006">
        <ele>755.7</ele>
        <time>2022-08-17T08:34:22Z</time>
      </trkpt>
      <trkpt lat="47.85396" lon="6.76007">
        <ele>755.8</ele>
        <time>2022-08-17T08:34:23Z</time>
      </trkpt>
      <trkpt lat="47.85397" lon="6.76008">
        <ele>755.9</ele>
        <time>2022-08-17T08:34:24Z</time>
      </trkpt>
      <trkpt lat="47.85398" lon="6.76008">
        <ele>755.7</ele>
        <time>2022-08-17T08:34:25Z</time>
      </trkpt>
      <trkpt lat="47.85399" lon="6.76008">
        <ele>755.4</ele>
        <time>2022-08-17T08:34:26Z</time>
      </trkpt>
      <trkpt lat="47.854" lon="6.76008">
        <ele>755.2</ele>
        <time>2022-08-17T08:34:27Z</time>
      </trkpt>
      <trkpt lat="47.85401" lon="6.76008">
        <ele>755</ele>
        <time>2022-08-17T08:34:28Z</time>
      </trkpt>
      <trkpt lat="47.85402" lon="6.76008">
        <ele>754.7</ele>
        <time>2022-08-17T08:34:30Z</time>
      </trkpt>
      <trkpt lat="47.85403" lon="6.76008">
        <ele>754.5</ele>
        <time>2022-08-17T08:34:32Z</time>
      </trkpt>
      <trkpt lat="47.85404" lon="6.76008">
        <ele>754.2</ele>
        <time>2022-08-17T08:34:33Z</time>
      </trkpt>
      <trkpt lat="47.85405" lon="6.76009">
        <ele>754.4</ele>
        <time>2022-08-17T08:34:35Z</time>
      </trkpt>
      <trkpt lat="47.85406" lon="6.76009">
        <ele>754.1</ele>
        <time>2022-08-17T08:34:36Z</time>
      </trkpt>
      <trkpt lat="47.85407" lon="6.7601">
        <ele>754.3</ele>
        <time>2022-08-17T08:34:37Z</time>
      </trkpt>
      <trkpt lat="47.85408" lon="6.7601">
        <ele>754</ele>
        <time>2022-08-17T08:34:38Z</time>
      </trkpt>
      <trkpt lat="47.8541" lon="6.76011">
        <ele>753.9</ele>
        <time>2022-08-17T08:34:39Z</time>
      </trkpt>
      <trkpt lat="47.85411" lon="6.76011">
        <ele>753.7</ele>
        <time>2022-08-17T08:34:40Z</time>
      </trkpt>
      <trkpt lat="47.85412" lon="6.76011">
        <ele>753.5</ele>
        <time>2022-08-17T08:34:41Z</time>
      </trkpt>
      <trkpt lat="47.85413" lon="6.76012">
        <ele>753.6</ele>
        <time>2022-08-17T08:34:42Z</time>
      </trkpt>
      <trkpt lat="47.85414" lon="6.76012">
        <ele>753.4</ele>
        <time>2022-08-17T08:34:43Z</time>
      </trkpt>
      <trkpt lat="47.85415" lon="6.76012">
        <ele>753.1</ele>
        <time>2022-08-17T08:34:44Z</time>
      </trkpt>
      <trkpt lat="47.85416" lon="6.76013">
        <ele>753.3</ele>
        <time>2022-08-17T08:34:45Z</time>
      </trkpt>
      <trkpt lat="47.85417" lon="6.76013">
        <ele>753.1</ele>
        <time>2022-08-17T08:34:46Z</time>
      </trkpt>
      <trkpt lat="47.85419" lon="6.76014">
        <ele>753.4</ele>
        <time>2022-08-17T08:34:54Z</time>
      </trkpt>
      <trkpt lat="47.8542" lon="6.76015">
        <ele>753.7</ele>
        <time>2022-08-17T08:34:56Z</time>
      </trkpt>
      <trkpt lat="47.85421" lon="6.76015">
        <ele>753.7</ele>
        <time>2022-08-17T08:34:58Z</time>
      </trkpt>
      <trkpt lat="47.85422" lon="6.76015">
        <ele>753.6</ele>
        <time>2022-08-17T08:34:59Z</time>
      </trkpt>
      <trkpt lat="47.85423" lon="6.76016">
        <ele>753.9</ele>
        <time>2022-08-17T08:35:00Z</time>
      </trkpt>
      <trkpt lat="47.85424" lon="6.76016">
        <ele>753.9</ele>
        <time>2022-08-17T08:35:01Z</time>
      </trkpt>
      <trkpt lat="47.85425" lon="6.76016">
        <ele>753.8</ele>
        <time>2022-08-17T08:35:02Z</time>
      </trkpt>
      <trkpt lat="47.85426" lon="6.76017">
        <ele>754.1</ele>
        <time>2022-08-17T08:35:03Z</time>
      </trkpt>
      <trkpt lat="47.85428" lon="6.76018">
        <ele>754.3</ele>
        <time>2022-08-17T08:35:04Z</time>
      </trkpt>
      <trkpt lat="47.85429" lon="6.76018">
        <ele>754.3</ele>
        <time>2022-08-17T08:35:05Z</time>
      </trkpt>
      <trkpt lat="47.8543" lon="6.76019">
        <ele>754.5</ele>
        <time>2022-08-17T08:35:06Z</time>
      </trkpt>
      <trkpt lat="47.85432" lon="6.7602">
        <ele>754.7</ele>
        <time>2022-08-17T08:35:07Z</time>
      </trkpt>
      <trkpt lat="47.85434" lon="6.7602">
        <ele>754.6</ele>
        <time>2022-08-17T08:35:08Z</time>
      </trkpt>
      <trkpt lat="47.85435" lon="6.76021">
        <ele>754.8</ele>
        <time>2022-08-17T08:35:09Z</time>
      </trkpt>
      <trkpt lat="47.85437" lon="6.76021">
        <ele>754.7</ele>
        <time>2022-08-17T08:35:10Z</time>
      </trkpt>
      <trkpt lat="47.85439" lon="6.76021">
        <ele>754.5</ele>
        <time>2022-08-17T08:35:11Z</time>
      </trkpt>
      <trkpt lat="47.8544" lon="6.76022">
        <ele>754.7</ele>
        <time>2022-08-17T08:35:12Z</time>
      </trkpt>
      <trkpt lat="47.85441" lon="6.76022">
        <ele>754.6</ele>
        <time>2022-08-17T08:35:13Z</time>
      </trkpt>
      <trkpt lat="47.85442" lon="6.76023">
        <ele>754.8</ele>
        <time>2022-08-17T08:35:14Z</time>
      </trkpt>
      <trkpt lat="47.85443" lon="6.76024">
        <ele>755</ele>
        <time>2022-08-17T08:35:15Z</time>
      </trkpt>
      <trkpt lat="47.85444" lon="6.76024">
        <ele>755</ele>
        <time>2022-08-17T08:35:16Z</time>
      </trkpt>
      <trkpt lat="47.85444" lon="6.76025">
        <ele>755.2</ele>
        <time>2022-08-17T08:35:17Z</time>
      </trkpt>
      <trkpt lat="47.85445" lon="6.76025">
        <ele>755.2</ele>
        <time>2022-08-17T08:35:18Z</time>
      </trkpt>
      <trkpt lat="47.85446" lon="6.76025">
        <ele>755.2</ele>
        <time>2022-08-17T08:35:19Z</time>
      </trkpt>
      <trkpt lat="47.85447" lon="6.76026">
        <ele>755.5</ele>
        <time>2022-08-17T08:35:20Z</time>
      </trkpt>
      <trkpt lat="47.85448" lon="6.76026">
        <ele>755.5</ele>
        <time>2022-08-17T08:35:21Z</time>
      </trkpt>
      <trkpt lat="47.85449" lon="6.76026">
        <ele>755.5</ele>
        <time>2022-08-17T08:35:22Z</time>
      </trkpt>
      <trkpt lat="47.85451" lon="6.76027">
        <ele>755.8</ele>
        <time>2022-08-17T08:35:23Z</time>
      </trkpt>
      <trkpt lat="47.85452" lon="6.76027">
        <ele>755.8</ele>
        <time>2022-08-17T08:35:24Z</time>
      </trkpt>
      <trkpt lat="47.85453" lon="6.76027">
        <ele>755.8</ele>
        <time>2022-08-17T08:35:25Z</time>
      </trkpt>
      <trkpt lat="47.85454" lon="6.76027">
        <ele>755.8</ele>
        <time>2022-08-17T08:35:26Z</time>
      </trkpt>
      <trkpt lat="47.85455" lon="6.76027">
        <ele>755.8</ele>
        <time>2022-08-17T08:35:27Z</time>
      </trkpt>
      <trkpt lat="47.85456" lon="6.76027">
        <ele>755.8</ele>
        <time>2022-08-17T08:35:28Z</time>
      </trkpt>
      <trkpt lat="47.85457" lon="6.76027">
        <ele>755.8</ele>
        <time>2022-08-17T08:35:29Z</time>
      </trkpt>
      <trkpt lat="47.85458" lon="6.76028">
        <ele>756.1</ele>
        <time>2022-08-17T08:35:30Z</time>
      </trkpt>
      <trkpt lat="47.85459" lon="6.76028">
        <ele>756.1</ele>
        <time>2022-08-17T08:35:31Z</time>
      </trkpt>
      <trkpt lat="47.85461" lon="6.76028">
        <ele>756.1</ele>
        <time>2022-08-17T08:35:32Z</time>
      </trkpt>
      <trkpt lat="47.85462" lon="6.76028">
        <ele>756.1</ele>
        <time>2022-08-17T08:35:33Z</time>
      </trkpt>
      <trkpt lat="47.85463" lon="6.76028">
        <ele>756.1</ele>
        <time>2022-08-17T08:35:34Z</time>
      </trkpt>
      <trkpt lat="47.85464" lon="6.76029">
        <ele>756.4</ele>
        <time>2022-08-17T08:35:35Z</time>
      </trkpt>
      <trkpt lat="47.85465" lon="6.76029">
        <ele>756.3</ele>
        <time>2022-08-17T08:35:36Z</time>
      </trkpt>
      <trkpt lat="47.85466" lon="6.76029">
        <ele>756.3</ele>
        <time>2022-08-17T08:35:37Z</time>
      </trkpt>
      <trkpt lat="47.85467" lon="6.76029">
        <ele>756.3</ele>
        <time>2022-08-17T08:35:38Z</time>
      </trkpt>
      <trkpt lat="47.85467" lon="6.76028">
        <ele>756.1</ele>
        <time>2022-08-17T08:35:39Z</time>
      </trkpt>
      <trkpt lat="47.85468" lon="6.76028">
        <ele>756.1</ele>
        <time>2022-08-17T08:35:41Z</time>
      </trkpt>
      <trkpt lat="47.85468" lon="6.76027">
        <ele>755.8</ele>
        <time>2022-08-17T08:35:43Z</time>
      </trkpt>
      <trkpt lat="47.85469" lon="6.76027">
        <ele>755.8</ele>
        <time>2022-08-17T08:35:44Z</time>
      </trkpt>
      <trkpt lat="47.85469" lon="6.76026">
        <ele>755.6</ele>
        <time>2022-08-17T08:35:45Z</time>
      </trkpt>
      <trkpt lat="47.8547" lon="6.76026">
        <ele>755.6</ele>
        <time>2022-08-17T08:35:46Z</time>
      </trkpt>
      <trkpt lat="47.85471" lon="6.76025">
        <ele>755.4</ele>
        <time>2022-08-17T08:35:47Z</time>
      </trkpt>
      <trkpt lat="47.85472" lon="6.76025">
        <ele>755.4</ele>
        <time>2022-08-17T08:35:48Z</time>
      </trkpt>
      <trkpt lat="47.85474" lon="6.76025">
        <ele>755.5</ele>
        <time>2022-08-17T08:35:49Z</time>
      </trkpt>
      <trkpt lat="47.85475" lon="6.76025">
        <ele>755.6</ele>
        <time>2022-08-17T08:35:50Z</time>
      </trkpt>
      <trkpt lat="47.85476" lon="6.76025">
        <ele>755.7</ele>
        <time>2022-08-17T08:35:51Z</time>
      </trkpt>
      <trkpt lat="47.85477" lon="6.76025">
        <ele>755.7</ele>
        <time>2022-08-17T08:35:52Z</time>
      </trkpt>
      <trkpt lat="47.85479" lon="6.76025">
        <ele>755.9</ele>
        <time>2022-08-17T08:35:53Z</time>
      </trkpt>
      <trkpt lat="47.8548" lon="6.76025">
        <ele>756</ele>
        <time>2022-08-17T08:35:54Z</time>
      </trkpt>
      <trkpt lat="47.85481" lon="6.76025">
        <ele>756</ele>
        <time>2022-08-17T08:35:55Z</time>
      </trkpt>
      <trkpt lat="47.85482" lon="6.76024">
        <ele>755.9</ele>
        <time>2022-08-17T08:35:56Z</time>
      </trkpt>
      <trkpt lat="47.85483" lon="6.76024">
        <ele>756</ele>
        <time>2022-08-17T08:35:57Z</time>
      </trkpt>
      <trkpt lat="47.85484" lon="6.76024">
        <ele>756</ele>
        <time>2022-08-17T08:35:58Z</time>
      </trkpt>
      <trkpt lat="47.85485" lon="6.76023">
        <ele>755.9</ele>
        <time>2022-08-17T08:35:59Z</time>
      </trkpt>
      <trkpt lat="47.85486" lon="6.76023">
        <ele>756</ele>
        <time>2022-08-17T08:36:00Z</time>
      </trkpt>
      <trkpt lat="47.85487" lon="6.76022">
        <ele>755.8</ele>
        <time>2022-08-17T08:36:01Z</time>
      </trkpt>
      <trkpt lat="47.85488" lon="6.76022">
        <ele>755.9</ele>
        <time>2022-08-17T08:36:02Z</time>
      </trkpt>
      <trkpt lat="47.85489" lon="6.76021">
        <ele>755.7</ele>
        <time>2022-08-17T08:36:03Z</time>
      </trkpt>
      <trkpt lat="47.8549" lon="6.76021">
        <ele>755.8</ele>
        <time>2022-08-17T08:36:04Z</time>
      </trkpt>
      <trkpt lat="47.85491" lon="6.76021">
        <ele>755.9</ele>
        <time>2022-08-17T08:36:05Z</time>
      </trkpt>
      <trkpt lat="47.85492" lon="6.76021">
        <ele>756</ele>
        <time>2022-08-17T08:36:06Z</time>
      </trkpt>
      <trkpt lat="47.85493" lon="6.76021">
        <ele>756</ele>
        <time>2022-08-17T08:36:07Z</time>
      </trkpt>
      <trkpt lat="47.85494" lon="6.76021">
        <ele>756.1</ele>
        <time>2022-08-17T08:36:08Z</time>
      </trkpt>
      <trkpt lat="47.85495" lon="6.7602">
        <ele>756</ele>
        <time>2022-08-17T08:36:09Z</time>
      </trkpt>
      <trkpt lat="47.85496" lon="6.7602">
        <ele>756</ele>
        <time>2022-08-17T08:36:10Z</time>
      </trkpt>
      <trkpt lat="47.85497" lon="6.76019">
        <ele>755.9</ele>
        <time>2022-08-17T08:36:11Z</time>
      </trkpt>
      <trkpt lat="47.85498" lon="6.76018">
        <ele>755.7</ele>
        <time>2022-08-17T08:36:13Z</time>
      </trkpt>
      <trkpt lat="47.855" lon="6.76018">
        <ele>755.9</ele>
        <time>2022-08-17T08:36:14Z</time>
      </trkpt>
      <trkpt lat="47.85501" lon="6.76018">
        <ele>755.8</ele>
        <time>2022-08-17T08:36:15Z</time>
      </trkpt>
      <trkpt lat="47.85503" lon="6.76018">
        <ele>755.7</ele>
        <time>2022-08-17T08:36:16Z</time>
      </trkpt>
      <trkpt lat="47.85504" lon="6.76019">
        <ele>755.9</ele>
        <time>2022-08-17T08:36:17Z</time>
      </trkpt>
      <trkpt lat="47.85505" lon="6.76019">
        <ele>755.9</ele>
        <time>2022-08-17T08:36:18Z</time>
      </trkpt>
      <trkpt lat="47.85506" lon="6.76019">
        <ele>755.8</ele>
        <time>2022-08-17T08:36:19Z</time>
      </trkpt>
      <trkpt lat="47.85507" lon="6.76019">
        <ele>755.8</ele>
        <time>2022-08-17T08:36:20Z</time>
      </trkpt>
      <trkpt lat="47.85508" lon="6.76018">
        <ele>755.5</ele>
        <time>2022-08-17T08:36:21Z</time>
      </trkpt>
      <trkpt lat="47.85509" lon="6.76018">
        <ele>755.4</ele>
        <time>2022-08-17T08:36:22Z</time>
      </trkpt>
      <trkpt lat="47.8551" lon="6.76018">
        <ele>755.4</ele>
        <time>2022-08-17T08:36:23Z</time>
      </trkpt>
      <trkpt lat="47.85511" lon="6.76018">
        <ele>755.4</ele>
        <time>2022-08-17T08:36:24Z</time>
      </trkpt>
      <trkpt lat="47.85512" lon="6.76018">
        <ele>755.3</ele>
        <time>2022-08-17T08:36:25Z</time>
      </trkpt>
      <trkpt lat="47.85513" lon="6.76018">
        <ele>755.3</ele>
        <time>2022-08-17T08:36:26Z</time>
      </trkpt>
      <trkpt lat="47.85514" lon="6.76018">
        <ele>755.2</ele>
        <time>2022-08-17T08:36:27Z</time>
      </trkpt>
      <trkpt lat="47.85515" lon="6.76018">
        <ele>755.2</ele>
        <time>2022-08-17T08:36:28Z</time>
      </trkpt>
      <trkpt lat="47.85516" lon="6.76018">
        <ele>755.1</ele>
        <time>2022-08-17T08:36:29Z</time>
      </trkpt>
      <trkpt lat="47.85517" lon="6.76019">
        <ele>755.3</ele>
        <time>2022-08-17T08:36:30Z</time>
      </trkpt>
      <trkpt lat="47.85519" lon="6.76019">
        <ele>755.2</ele>
        <time>2022-08-17T08:36:31Z</time>
      </trkpt>
      <trkpt lat="47.8552" lon="6.76019">
        <ele>755.2</ele>
        <time>2022-08-17T08:36:32Z</time>
      </trkpt>
      <trkpt lat="47.85521" lon="6.7602">
        <ele>755.4</ele>
        <time>2022-08-17T08:36:33Z</time>
      </trkpt>
      <trkpt lat="47.85523" lon="6.7602">
        <ele>755.3</ele>
        <time>2022-08-17T08:36:34Z</time>
      </trkpt>
      <trkpt lat="47.85524" lon="6.7602">
        <ele>755.2</ele>
        <time>2022-08-17T08:36:35Z</time>
      </trkpt>
      <trkpt lat="47.85525" lon="6.7602">
        <ele>755.2</ele>
        <time>2022-08-17T08:36:36Z</time>
      </trkpt>
      <trkpt lat="47.85526" lon="6.7602">
        <ele>755.1</ele>
        <time>2022-08-17T08:36:37Z</time>
      </trkpt>
      <trkpt lat="47.85527" lon="6.7602">
        <ele>755.1</ele>
        <time>2022-08-17T08:36:38Z</time>
      </trkpt>
      <trkpt lat="47.85528" lon="6.76021">
        <ele>755.3</ele>
        <time>2022-08-17T08:36:39Z</time>
      </trkpt>
      <trkpt lat="47.85529" lon="6.76021">
        <ele>755.4</ele>
        <time>2022-08-17T08:36:40Z</time>
      </trkpt>
      <trkpt lat="47.8553" lon="6.76021">
        <ele>755.5</ele>
        <time>2022-08-17T08:36:41Z</time>
      </trkpt>
      <trkpt lat="47.85531" lon="6.76021">
        <ele>755.6</ele>
        <time>2022-08-17T08:36:42Z</time>
      </trkpt>
      <trkpt lat="47.85532" lon="6.7602">
        <ele>755.5</ele>
        <time>2022-08-17T08:36:43Z</time>
      </trkpt>
      <trkpt lat="47.85533" lon="6.7602">
        <ele>755.6</ele>
        <time>2022-08-17T08:36:44Z</time>
      </trkpt>
      <trkpt lat="47.85534" lon="6.7602">
        <ele>755.7</ele>
        <time>2022-08-17T08:36:45Z</time>
      </trkpt>
      <trkpt lat="47.85535" lon="6.76019">
        <ele>755.6</ele>
        <time>2022-08-17T08:36:47Z</time>
      </trkpt>
      <trkpt lat="47.85536" lon="6.76018">
        <ele>755.4</ele>
        <time>2022-08-17T08:36:48Z</time>
      </trkpt>
      <trkpt lat="47.85536" lon="6.76017">
        <ele>755.2</ele>
        <time>2022-08-17T08:36:49Z</time>
      </trkpt>
      <trkpt lat="47.85537" lon="6.76016">
        <ele>755</ele>
        <time>2022-08-17T08:36:50Z</time>
      </trkpt>
      <trkpt lat="47.85538" lon="6.76016">
        <ele>755.1</ele>
        <time>2022-08-17T08:36:51Z</time>
      </trkpt>
      <trkpt lat="47.85538" lon="6.76015">
        <ele>754.9</ele>
        <time>2022-08-17T08:36:52Z</time>
      </trkpt>
      <trkpt lat="47.85539" lon="6.76014">
        <ele>754.7</ele>
        <time>2022-08-17T08:36:53Z</time>
      </trkpt>
      <trkpt lat="47.8554" lon="6.76013">
        <ele>754.6</ele>
        <time>2022-08-17T08:36:54Z</time>
      </trkpt>
      <trkpt lat="47.8554" lon="6.76012">
        <ele>754.3</ele>
        <time>2022-08-17T08:36:55Z</time>
      </trkpt>
      <trkpt lat="47.85541" lon="6.76011">
        <ele>754.2</ele>
        <time>2022-08-17T08:36:56Z</time>
      </trkpt>
      <trkpt lat="47.85542" lon="6.7601">
        <ele>754.1</ele>
        <time>2022-08-17T08:36:57Z</time>
      </trkpt>
      <trkpt lat="47.85543" lon="6.7601">
        <ele>754.2</ele>
        <time>2022-08-17T08:36:58Z</time>
      </trkpt>
      <trkpt lat="47.85544" lon="6.76009">
        <ele>754</ele>
        <time>2022-08-17T08:36:59Z</time>
      </trkpt>
      <trkpt lat="47.85545" lon="6.76008">
        <ele>753.9</ele>
        <time>2022-08-17T08:37:00Z</time>
      </trkpt>
      <trkpt lat="47.85545" lon="6.76007">
        <ele>753.6</ele>
        <time>2022-08-17T08:37:01Z</time>
      </trkpt>
      <trkpt lat="47.85546" lon="6.76007">
        <ele>753.7</ele>
        <time>2022-08-17T08:37:02Z</time>
      </trkpt>
      <trkpt lat="47.85547" lon="6.76006">
        <ele>753.6</ele>
        <time>2022-08-17T08:37:03Z</time>
      </trkpt>
      <trkpt lat="47.85548" lon="6.76005">
        <ele>753.4</ele>
        <time>2022-08-17T08:37:04Z</time>
      </trkpt>
      <trkpt lat="47.85549" lon="6.76004">
        <ele>753.3</ele>
        <time>2022-08-17T08:37:05Z</time>
      </trkpt>
      <trkpt lat="47.85549" lon="6.76003">
        <ele>753</ele>
        <time>2022-08-17T08:37:06Z</time>
      </trkpt>
      <trkpt lat="47.8555" lon="6.76002">
        <ele>752.9</ele>
        <time>2022-08-17T08:37:07Z</time>
      </trkpt>
      <trkpt lat="47.85551" lon="6.76002">
        <ele>753</ele>
        <time>2022-08-17T08:37:08Z</time>
      </trkpt>
      <trkpt lat="47.85552" lon="6.76001">
        <ele>752.9</ele>
        <time>2022-08-17T08:37:09Z</time>
      </trkpt>
      <trkpt lat="47.85553" lon="6.76">
        <ele>752.7</ele>
        <time>2022-08-17T08:37:10Z</time>
      </trkpt>
      <trkpt lat="47.85554" lon="6.76">
        <ele>752.8</ele>
        <time>2022-08-17T08:37:11Z</time>
      </trkpt>
      <trkpt lat="47.85555" lon="6.75999">
        <ele>752.8</ele>
        <time>2022-08-17T08:37:12Z</time>
      </trkpt>
      <trkpt lat="47.85556" lon="6.75999">
        <ele>753</ele>
        <time>2022-08-17T08:37:13Z</time>
      </trkpt>
      <trkpt lat="47.85557" lon="6.75998">
        <ele>753.2</ele>
        <time>2022-08-17T08:37:14Z</time>
      </trkpt>
      <trkpt lat="47.85558" lon="6.75997">
        <ele>753.3</ele>
        <time>2022-08-17T08:37:15Z</time>
      </trkpt>
      <trkpt lat="47.85558" lon="6.75996">
        <ele>753.2</ele>
        <time>2022-08-17T08:37:16Z</time>
      </trkpt>
      <trkpt lat="47.85559" lon="6.75995">
        <ele>753.4</ele>
        <time>2022-08-17T08:37:17Z</time>
      </trkpt>
      <trkpt lat="47.85559" lon="6.75994">
        <ele>753.2</ele>
        <time>2022-08-17T08:37:18Z</time>
      </trkpt>
      <trkpt lat="47.8556" lon="6.75993">
        <ele>753.4</ele>
        <time>2022-08-17T08:37:19Z</time>
      </trkpt>
      <trkpt lat="47.85561" lon="6.75991">
        <ele>753.3</ele>
        <time>2022-08-17T08:37:20Z</time>
      </trkpt>
      <trkpt lat="47.85562" lon="6.7599">
        <ele>753.5</ele>
        <time>2022-08-17T08:37:21Z</time>
      </trkpt>
      <trkpt lat="47.85562" lon="6.75989">
        <ele>753.3</ele>
        <time>2022-08-17T08:37:22Z</time>
      </trkpt>
      <trkpt lat="47.85563" lon="6.75988">
        <ele>753.5</ele>
        <time>2022-08-17T08:37:23Z</time>
      </trkpt>
      <trkpt lat="47.85564" lon="6.75987">
        <ele>753.6</ele>
        <time>2022-08-17T08:37:24Z</time>
      </trkpt>
      <trkpt lat="47.85565" lon="6.75986">
        <ele>753.7</ele>
        <time>2022-08-17T08:37:25Z</time>
      </trkpt>
      <trkpt lat="47.85566" lon="6.75985">
        <ele>753.8</ele>
        <time>2022-08-17T08:37:26Z</time>
      </trkpt>
      <trkpt lat="47.85567" lon="6.75984">
        <ele>753.9</ele>
        <time>2022-08-17T08:37:27Z</time>
      </trkpt>
      <trkpt lat="47.85568" lon="6.75983">
        <ele>754</ele>
        <time>2022-08-17T08:37:28Z</time>
      </trkpt>
      <trkpt lat="47.85568" lon="6.75982">
        <ele>753.9</ele>
        <time>2022-08-17T08:37:29Z</time>
      </trkpt>
      <trkpt lat="47.85569" lon="6.75981">
        <ele>754</ele>
        <time>2022-08-17T08:37:30Z</time>
      </trkpt>
      <trkpt lat="47.8557" lon="6.7598">
        <ele>754.1</ele>
        <time>2022-08-17T08:37:31Z</time>
      </trkpt>
      <trkpt lat="47.8557" lon="6.75979">
        <ele>753.9</ele>
        <time>2022-08-17T08:37:32Z</time>
      </trkpt>
      <trkpt lat="47.85571" lon="6.75978">
        <ele>754</ele>
        <time>2022-08-17T08:37:33Z</time>
      </trkpt>
      <trkpt lat="47.85572" lon="6.75976">
        <ele>753.8</ele>
        <time>2022-08-17T08:37:34Z</time>
      </trkpt>
      <trkpt lat="47.85573" lon="6.75975">
        <ele>753.9</ele>
        <time>2022-08-17T08:37:35Z</time>
      </trkpt>
      <trkpt lat="47.85573" lon="6.75974">
        <ele>753.7</ele>
        <time>2022-08-17T08:37:36Z</time>
      </trkpt>
      <trkpt lat="47.85574" lon="6.75973">
        <ele>753.8</ele>
        <time>2022-08-17T08:37:37Z</time>
      </trkpt>
      <trkpt lat="47.85575" lon="6.75972">
        <ele>753.9</ele>
        <time>2022-08-17T08:37:38Z</time>
      </trkpt>
      <trkpt lat="47.85576" lon="6.75971">
        <ele>754</ele>
        <time>2022-08-17T08:37:39Z</time>
      </trkpt>
      <trkpt lat="47.85577" lon="6.7597">
        <ele>754.1</ele>
        <time>2022-08-17T08:37:40Z</time>
      </trkpt>
      <trkpt lat="47.85578" lon="6.75969">
        <ele>754.3</ele>
        <time>2022-08-17T08:37:41Z</time>
      </trkpt>
      <trkpt lat="47.85579" lon="6.75968">
        <ele>754.4</ele>
        <time>2022-08-17T08:37:42Z</time>
      </trkpt>
      <trkpt lat="47.8558" lon="6.75967">
        <ele>754.5</ele>
        <time>2022-08-17T08:37:43Z</time>
      </trkpt>
      <trkpt lat="47.85581" lon="6.75966">
        <ele>754.6</ele>
        <time>2022-08-17T08:37:44Z</time>
      </trkpt>
      <trkpt lat="47.85582" lon="6.75966">
        <ele>754.8</ele>
        <time>2022-08-17T08:37:45Z</time>
      </trkpt>
      <trkpt lat="47.85582" lon="6.75965">
        <ele>754.7</ele>
        <time>2022-08-17T08:37:46Z</time>
      </trkpt>
      <trkpt lat="47.85583" lon="6.75964">
        <ele>754.7</ele>
        <time>2022-08-17T08:37:47Z</time>
      </trkpt>
      <trkpt lat="47.85584" lon="6.75963">
        <ele>754.7</ele>
        <time>2022-08-17T08:37:48Z</time>
      </trkpt>
      <trkpt lat="47.85585" lon="6.75962">
        <ele>754.6</ele>
        <time>2022-08-17T08:37:49Z</time>
      </trkpt>
      <trkpt lat="47.85586" lon="6.75961">
        <ele>754.4</ele>
        <time>2022-08-17T08:37:50Z</time>
      </trkpt>
      <trkpt lat="47.85586" lon="6.7596">
        <ele>754.3</ele>
        <time>2022-08-17T08:37:51Z</time>
      </trkpt>
      <trkpt lat="47.85587" lon="6.75959">
        <ele>754.2</ele>
        <time>2022-08-17T08:37:52Z</time>
      </trkpt>
      <trkpt lat="47.85588" lon="6.75958">
        <ele>754</ele>
        <time>2022-08-17T08:37:53Z</time>
      </trkpt>
      <trkpt lat="47.85589" lon="6.75957">
        <ele>753.9</ele>
        <time>2022-08-17T08:37:54Z</time>
      </trkpt>
      <trkpt lat="47.8559" lon="6.75956">
        <ele>753.8</ele>
        <time>2022-08-17T08:37:55Z</time>
      </trkpt>
      <trkpt lat="47.85591" lon="6.75955">
        <ele>753.6</ele>
        <time>2022-08-17T08:37:56Z</time>
      </trkpt>
      <trkpt lat="47.85592" lon="6.75954">
        <ele>753.5</ele>
        <time>2022-08-17T08:37:57Z</time>
      </trkpt>
      <trkpt lat="47.85594" lon="6.75953">
        <ele>753.4</ele>
        <time>2022-08-17T08:37:58Z</time>
      </trkpt>
      <trkpt lat="47.85595" lon="6.75952">
        <ele>753.2</ele>
        <time>2022-08-17T08:37:59Z</time>
      </trkpt>
      <trkpt lat="47.85597" lon="6.75952">
        <ele>753.2</ele>
        <time>2022-08-17T08:38:14Z</time>
      </trkpt>
      <trkpt lat="47.85598" lon="6.75952">
        <ele>753.2</ele>
        <time>2022-08-17T08:38:15Z</time>
      </trkpt>
      <trkpt lat="47.85599" lon="6.75951">
        <ele>753.1</ele>
        <time>2022-08-17T08:38:17Z</time>
      </trkpt>
      <trkpt lat="47.856" lon="6.75951">
        <ele>753.1</ele>
        <time>2022-08-17T08:38:18Z</time>
      </trkpt>
      <trkpt lat="47.85601" lon="6.75951">
        <ele>753.1</ele>
        <time>2022-08-17T08:38:19Z</time>
      </trkpt>
      <trkpt lat="47.85602" lon="6.75951">
        <ele>753.1</ele>
        <time>2022-08-17T08:38:20Z</time>
      </trkpt>
      <trkpt lat="47.85603" lon="6.7595">
        <ele>752.9</ele>
        <time>2022-08-17T08:38:22Z</time>
      </trkpt>
      <trkpt lat="47.85604" lon="6.7595">
        <ele>752.9</ele>
        <time>2022-08-17T08:38:23Z</time>
      </trkpt>
      <trkpt lat="47.85605" lon="6.7595">
        <ele>753</ele>
        <time>2022-08-17T08:38:24Z</time>
      </trkpt>
      <trkpt lat="47.85606" lon="6.7595">
        <ele>753</ele>
        <time>2022-08-17T08:38:25Z</time>
      </trkpt>
      <trkpt lat="47.85607" lon="6.7595">
        <ele>753</ele>
        <time>2022-08-17T08:38:26Z</time>
      </trkpt>
      <trkpt lat="47.85608" lon="6.7595">
        <ele>753</ele>
        <time>2022-08-17T08:38:27Z</time>
      </trkpt>
      <trkpt lat="47.8561" lon="6.7595">
        <ele>753</ele>
        <time>2022-08-17T08:38:28Z</time>
      </trkpt>
      <trkpt lat="47.85611" lon="6.7595">
        <ele>753</ele>
        <time>2022-08-17T08:38:29Z</time>
      </trkpt>
      <trkpt lat="47.85612" lon="6.7595">
        <ele>753</ele>
        <time>2022-08-17T08:38:30Z</time>
      </trkpt>
      <trkpt lat="47.85613" lon="6.7595">
        <ele>752.9</ele>
        <time>2022-08-17T08:38:31Z</time>
      </trkpt>
      <trkpt lat="47.85615" lon="6.7595">
        <ele>752.8</ele>
        <time>2022-08-17T08:38:32Z</time>
      </trkpt>
      <trkpt lat="47.85616" lon="6.7595">
        <ele>752.8</ele>
        <time>2022-08-17T08:38:33Z</time>
      </trkpt>
      <trkpt lat="47.85617" lon="6.75949">
        <ele>752.5</ele>
        <time>2022-08-17T08:38:34Z</time>
      </trkpt>
      <trkpt lat="47.85618" lon="6.75949">
        <ele>752.4</ele>
        <time>2022-08-17T08:38:35Z</time>
      </trkpt>
      <trkpt lat="47.85619" lon="6.75949">
        <ele>752.4</ele>
        <time>2022-08-17T08:38:36Z</time>
      </trkpt>
      <trkpt lat="47.8562" lon="6.75949">
        <ele>752.3</ele>
        <time>2022-08-17T08:38:37Z</time>
      </trkpt>
      <trkpt lat="47.85622" lon="6.75949">
        <ele>752.2</ele>
        <time>2022-08-17T08:38:38Z</time>
      </trkpt>
      <trkpt lat="47.85623" lon="6.75949">
        <ele>752.2</ele>
        <time>2022-08-17T08:38:39Z</time>
      </trkpt>
      <trkpt lat="47.85624" lon="6.75949">
        <ele>752.1</ele>
        <time>2022-08-17T08:38:40Z</time>
      </trkpt>
      <trkpt lat="47.85625" lon="6.75948">
        <ele>751.8</ele>
        <time>2022-08-17T08:38:41Z</time>
      </trkpt>
      <trkpt lat="47.85626" lon="6.75948">
        <ele>751.8</ele>
        <time>2022-08-17T08:38:42Z</time>
      </trkpt>
      <trkpt lat="47.85627" lon="6.75948">
        <ele>751.7</ele>
        <time>2022-08-17T08:38:43Z</time>
      </trkpt>
      <trkpt lat="47.85628" lon="6.75948">
        <ele>751.7</ele>
        <time>2022-08-17T08:38:44Z</time>
      </trkpt>
      <trkpt lat="47.8563" lon="6.75948">
        <ele>751.5</ele>
        <time>2022-08-17T08:38:45Z</time>
      </trkpt>
      <trkpt lat="47.85631" lon="6.75948">
        <ele>751.5</ele>
        <time>2022-08-17T08:38:46Z</time>
      </trkpt>
      <trkpt lat="47.85632" lon="6.75948">
        <ele>751.4</ele>
        <time>2022-08-17T08:38:47Z</time>
      </trkpt>
      <trkpt lat="47.85633" lon="6.75947">
        <ele>751.1</ele>
        <time>2022-08-17T08:38:49Z</time>
      </trkpt>
      <trkpt lat="47.85634" lon="6.75947">
        <ele>751</ele>
        <time>2022-08-17T08:38:50Z</time>
      </trkpt>
      <trkpt lat="47.85635" lon="6.75946">
        <ele>750.7</ele>
        <time>2022-08-17T08:38:51Z</time>
      </trkpt>
      <trkpt lat="47.85635" lon="6.75945">
        <ele>750.4</ele>
        <time>2022-08-17T08:38:52Z</time>
      </trkpt>
      <trkpt lat="47.85636" lon="6.75945">
        <ele>750.4</ele>
        <time>2022-08-17T08:38:53Z</time>
      </trkpt>
      <trkpt lat="47.85637" lon="6.75944">
        <ele>750</ele>
        <time>2022-08-17T08:38:54Z</time>
      </trkpt>
      <trkpt lat="47.85638" lon="6.75944">
        <ele>749.9</ele>
        <time>2022-08-17T08:38:55Z</time>
      </trkpt>
      <trkpt lat="47.85639" lon="6.75944">
        <ele>749.8</ele>
        <time>2022-08-17T08:38:56Z</time>
      </trkpt>
      <trkpt lat="47.8564" lon="6.75944">
        <ele>749.8</ele>
        <time>2022-08-17T08:38:57Z</time>
      </trkpt>
      <trkpt lat="47.85641" lon="6.75944">
        <ele>749.8</ele>
        <time>2022-08-17T08:38:58Z</time>
      </trkpt>
      <trkpt lat="47.85642" lon="6.75943">
        <ele>749.3</ele>
        <time>2022-08-17T08:38:59Z</time>
      </trkpt>
      <trkpt lat="47.85644" lon="6.75943">
        <ele>749.3</ele>
        <time>2022-08-17T08:39:00Z</time>
      </trkpt>
      <trkpt lat="47.85645" lon="6.75941">
        <ele>748.5</ele>
        <time>2022-08-17T08:39:19Z</time>
      </trkpt>
      <trkpt lat="47.85646" lon="6.7594">
        <ele>748.1</ele>
        <time>2022-08-17T08:39:21Z</time>
      </trkpt>
      <trkpt lat="47.85647" lon="6.75939">
        <ele>747.7</ele>
        <time>2022-08-17T08:39:22Z</time>
      </trkpt>
      <trkpt lat="47.85648" lon="6.75939">
        <ele>747.6</ele>
        <time>2022-08-17T08:39:23Z</time>
      </trkpt>
      <trkpt lat="47.85649" lon="6.75939">
        <ele>747.6</ele>
        <time>2022-08-17T08:39:24Z</time>
      </trkpt>
      <trkpt lat="47.8565" lon="6.75939">
        <ele>747.6</ele>
        <time>2022-08-17T08:39:25Z</time>
      </trkpt>
      <trkpt lat="47.85651" lon="6.75939">
        <ele>747.6</ele>
        <time>2022-08-17T08:39:26Z</time>
      </trkpt>
      <trkpt lat="47.85652" lon="6.75939">
        <ele>747.6</ele>
        <time>2022-08-17T08:39:27Z</time>
      </trkpt>
      <trkpt lat="47.85653" lon="6.75939">
        <ele>747.5</ele>
        <time>2022-08-17T08:39:28Z</time>
      </trkpt>
      <trkpt lat="47.85654" lon="6.75939">
        <ele>747.5</ele>
        <time>2022-08-17T08:39:29Z</time>
      </trkpt>
      <trkpt lat="47.85655" lon="6.75939">
        <ele>747.5</ele>
        <time>2022-08-17T08:39:30Z</time>
      </trkpt>
      <trkpt lat="47.85656" lon="6.75939">
        <ele>747.5</ele>
        <time>2022-08-17T08:39:31Z</time>
      </trkpt>
      <trkpt lat="47.85657" lon="6.75939">
        <ele>747.4</ele>
        <time>2022-08-17T08:39:32Z</time>
      </trkpt>
      <trkpt lat="47.85658" lon="6.75938">
        <ele>747.1</ele>
        <time>2022-08-17T08:39:33Z</time>
      </trkpt>
      <trkpt lat="47.85659" lon="6.75938">
        <ele>747.1</ele>
        <time>2022-08-17T08:39:34Z</time>
      </trkpt>
      <trkpt lat="47.8566" lon="6.75938">
        <ele>747</ele>
        <time>2022-08-17T08:39:35Z</time>
      </trkpt>
      <trkpt lat="47.85661" lon="6.75937">
        <ele>746.7</ele>
        <time>2022-08-17T08:39:37Z</time>
      </trkpt>
      <trkpt lat="47.85662" lon="6.75937">
        <ele>746.7</ele>
        <time>2022-08-17T08:39:38Z</time>
      </trkpt>
      <trkpt lat="47.85663" lon="6.75937">
        <ele>746.6</ele>
        <time>2022-08-17T08:39:39Z</time>
      </trkpt>
      <trkpt lat="47.85664" lon="6.75937">
        <ele>746.6</ele>
        <time>2022-08-17T08:39:40Z</time>
      </trkpt>
      <trkpt lat="47.85665" lon="6.75937">
        <ele>746.6</ele>
        <time>2022-08-17T08:39:41Z</time>
      </trkpt>
      <trkpt lat="47.85666" lon="6.75937">
        <ele>746.6</ele>
        <time>2022-08-17T08:39:42Z</time>
      </trkpt>
      <trkpt lat="47.85668" lon="6.75937">
        <ele>746.7</ele>
        <time>2022-08-17T08:39:43Z</time>
      </trkpt>
      <trkpt lat="47.85669" lon="6.75937">
        <ele>746.8</ele>
        <time>2022-08-17T08:39:44Z</time>
      </trkpt>
      <trkpt lat="47.8567" lon="6.75937">
        <ele>746.8</ele>
        <time>2022-08-17T08:39:45Z</time>
      </trkpt>
      <trkpt lat="47.85671" lon="6.75936">
        <ele>746.6</ele>
        <time>2022-08-17T08:39:46Z</time>
      </trkpt>
      <trkpt lat="47.85673" lon="6.75936">
        <ele>746.7</ele>
        <time>2022-08-17T08:39:47Z</time>
      </trkpt>
      <trkpt lat="47.85674" lon="6.75936">
        <ele>746.8</ele>
        <time>2022-08-17T08:39:48Z</time>
      </trkpt>
      <trkpt lat="47.85675" lon="6.75936">
        <ele>746.9</ele>
        <time>2022-08-17T08:39:49Z</time>
      </trkpt>
      <trkpt lat="47.85676" lon="6.75936">
        <ele>746.9</ele>
        <time>2022-08-17T08:39:50Z</time>
      </trkpt>
      <trkpt lat="47.85678" lon="6.75935">
        <ele>746.8</ele>
        <time>2022-08-17T08:39:51Z</time>
      </trkpt>
      <trkpt lat="47.85679" lon="6.75935">
        <ele>746.8</ele>
        <time>2022-08-17T08:39:52Z</time>
      </trkpt>
      <trkpt lat="47.8568" lon="6.75935">
        <ele>746.9</ele>
        <time>2022-08-17T08:39:53Z</time>
      </trkpt>
      <trkpt lat="47.85681" lon="6.75934">
        <ele>746.6</ele>
        <time>2022-08-17T08:39:54Z</time>
      </trkpt>
      <trkpt lat="47.85682" lon="6.75934">
        <ele>746.7</ele>
        <time>2022-08-17T08:39:55Z</time>
      </trkpt>
      <trkpt lat="47.85683" lon="6.75933">
        <ele>746.5</ele>
        <time>2022-08-17T08:39:56Z</time>
      </trkpt>
      <trkpt lat="47.85685" lon="6.75932">
        <ele>746.3</ele>
        <time>2022-08-17T08:39:57Z</time>
      </trkpt>
      <trkpt lat="47.85686" lon="6.75932">
        <ele>746.4</ele>
        <time>2022-08-17T08:39:58Z</time>
      </trkpt>
      <trkpt lat="47.85687" lon="6.75932">
        <ele>746.4</ele>
        <time>2022-08-17T08:39:59Z</time>
      </trkpt>
      <trkpt lat="47.85688" lon="6.75932">
        <ele>746.5</ele>
        <time>2022-08-17T08:40:00Z</time>
      </trkpt>
      <trkpt lat="47.85689" lon="6.75932">
        <ele>746.6</ele>
        <time>2022-08-17T08:40:01Z</time>
      </trkpt>
      <trkpt lat="47.8569" lon="6.75932">
        <ele>746.6</ele>
        <time>2022-08-17T08:40:02Z</time>
      </trkpt>
      <trkpt lat="47.85691" lon="6.75932">
        <ele>746.7</ele>
        <time>2022-08-17T08:40:03Z</time>
      </trkpt>
      <trkpt lat="47.85691" lon="6.75931">
        <ele>746.4</ele>
        <time>2022-08-17T08:40:04Z</time>
      </trkpt>
      <trkpt lat="47.85692" lon="6.75931">
        <ele>746.5</ele>
        <time>2022-08-17T08:40:05Z</time>
      </trkpt>
      <trkpt lat="47.85693" lon="6.75931">
        <ele>746.5</ele>
        <time>2022-08-17T08:40:06Z</time>
      </trkpt>
      <trkpt lat="47.85694" lon="6.75931">
        <ele>746.6</ele>
        <time>2022-08-17T08:40:07Z</time>
      </trkpt>
      <trkpt lat="47.85695" lon="6.75931">
        <ele>746.7</ele>
        <time>2022-08-17T08:40:09Z</time>
      </trkpt>
      <trkpt lat="47.85696" lon="6.7593">
        <ele>746.4</ele>
        <time>2022-08-17T08:40:10Z</time>
      </trkpt>
      <trkpt lat="47.85697" lon="6.75929">
        <ele>746.2</ele>
        <time>2022-08-17T08:40:12Z</time>
      </trkpt>
      <trkpt lat="47.85698" lon="6.75929">
        <ele>746.2</ele>
        <time>2022-08-17T08:40:13Z</time>
      </trkpt>
      <trkpt lat="47.85699" lon="6.75929">
        <ele>746.3</ele>
        <time>2022-08-17T08:40:14Z</time>
      </trkpt>
      <trkpt lat="47.857" lon="6.75928">
        <ele>746.1</ele>
        <time>2022-08-17T08:40:15Z</time>
      </trkpt>
      <trkpt lat="47.85701" lon="6.75927">
        <ele>745.9</ele>
        <time>2022-08-17T08:40:16Z</time>
      </trkpt>
      <trkpt lat="47.85702" lon="6.75927">
        <ele>745.9</ele>
        <time>2022-08-17T08:40:17Z</time>
      </trkpt>
      <trkpt lat="47.85703" lon="6.75926">
        <ele>745.7</ele>
        <time>2022-08-17T08:40:18Z</time>
      </trkpt>
      <trkpt lat="47.85704" lon="6.75925">
        <ele>745.6</ele>
        <time>2022-08-17T08:40:20Z</time>
      </trkpt>
      <trkpt lat="47.85705" lon="6.75925">
        <ele>745.7</ele>
        <time>2022-08-17T08:40:21Z</time>
      </trkpt>
      <trkpt lat="47.85705" lon="6.75924">
        <ele>745.4</ele>
        <time>2022-08-17T08:40:22Z</time>
      </trkpt>
      <trkpt lat="47.85706" lon="6.75924">
        <ele>745.5</ele>
        <time>2022-08-17T08:40:23Z</time>
      </trkpt>
      <trkpt lat="47.85707" lon="6.75923">
        <ele>745.3</ele>
        <time>2022-08-17T08:40:24Z</time>
      </trkpt>
      <trkpt lat="47.85707" lon="6.75922">
        <ele>745.1</ele>
        <time>2022-08-17T08:40:25Z</time>
      </trkpt>
      <trkpt lat="47.85708" lon="6.75922">
        <ele>745.2</ele>
        <time>2022-08-17T08:40:26Z</time>
      </trkpt>
      <trkpt lat="47.85709" lon="6.75921">
        <ele>745.1</ele>
        <time>2022-08-17T08:40:27Z</time>
      </trkpt>
      <trkpt lat="47.8571" lon="6.75921">
        <ele>745.2</ele>
        <time>2022-08-17T08:40:28Z</time>
      </trkpt>
      <trkpt lat="47.8571" lon="6.7592">
        <ele>745</ele>
        <time>2022-08-17T08:40:29Z</time>
      </trkpt>
      <trkpt lat="47.85711" lon="6.7592">
        <ele>745.1</ele>
        <time>2022-08-17T08:40:30Z</time>
      </trkpt>
      <trkpt lat="47.85712" lon="6.75919">
        <ele>745</ele>
        <time>2022-08-17T08:40:31Z</time>
      </trkpt>
      <trkpt lat="47.85713" lon="6.75918">
        <ele>744.9</ele>
        <time>2022-08-17T08:40:32Z</time>
      </trkpt>
      <trkpt lat="47.85714" lon="6.75917">
        <ele>744.9</ele>
        <time>2022-08-17T08:40:33Z</time>
      </trkpt>
      <trkpt lat="47.85715" lon="6.75917">
        <ele>745</ele>
        <time>2022-08-17T08:40:34Z</time>
      </trkpt>
      <trkpt lat="47.85715" lon="6.75916">
        <ele>744.8</ele>
        <time>2022-08-17T08:40:35Z</time>
      </trkpt>
      <trkpt lat="47.85716" lon="6.75914">
        <ele>744.3</ele>
        <time>2022-08-17T08:40:36Z</time>
      </trkpt>
      <trkpt lat="47.85716" lon="6.75913">
        <ele>744</ele>
        <time>2022-08-17T08:40:37Z</time>
      </trkpt>
      <trkpt lat="47.85716" lon="6.75912">
        <ele>743.8</ele>
        <time>2022-08-17T08:40:38Z</time>
      </trkpt>
      <trkpt lat="47.85716" lon="6.7591">
        <ele>743.2</ele>
        <time>2022-08-17T08:40:39Z</time>
      </trkpt>
      <trkpt lat="47.85716" lon="6.75909">
        <ele>742.9</ele>
        <time>2022-08-17T08:40:40Z</time>
      </trkpt>
      <trkpt lat="47.85717" lon="6.75907">
        <ele>742.5</ele>
        <time>2022-08-17T08:40:41Z</time>
      </trkpt>
      <trkpt lat="47.85717" lon="6.75906">
        <ele>742.2</ele>
        <time>2022-08-17T08:40:42Z</time>
      </trkpt>
      <trkpt lat="47.85717" lon="6.75904">
        <ele>741.6</ele>
        <time>2022-08-17T08:40:43Z</time>
      </trkpt>
      <trkpt lat="47.85718" lon="6.75903">
        <ele>741.5</ele>
        <time>2022-08-17T08:40:44Z</time>
      </trkpt>
      <trkpt lat="47.85719" lon="6.75902">
        <ele>741.3</ele>
        <time>2022-08-17T08:40:45Z</time>
      </trkpt>
      <trkpt lat="47.85719" lon="6.75901">
        <ele>741</ele>
        <time>2022-08-17T08:40:46Z</time>
      </trkpt>
      <trkpt lat="47.8572" lon="6.759">
        <ele>740.9</ele>
        <time>2022-08-17T08:40:47Z</time>
      </trkpt>
      <trkpt lat="47.85721" lon="6.75899">
        <ele>740.7</ele>
        <time>2022-08-17T08:40:48Z</time>
      </trkpt>
      <trkpt lat="47.85722" lon="6.75898">
        <ele>740.6</ele>
        <time>2022-08-17T08:40:50Z</time>
      </trkpt>
      <trkpt lat="47.85722" lon="6.75897">
        <ele>740.3</ele>
        <time>2022-08-17T08:40:51Z</time>
      </trkpt>
      <trkpt lat="47.85722" lon="6.75896">
        <ele>740</ele>
        <time>2022-08-17T08:40:52Z</time>
      </trkpt>
      <trkpt lat="47.85723" lon="6.75895">
        <ele>740.1</ele>
        <time>2022-08-17T08:40:53Z</time>
      </trkpt>
      <trkpt lat="47.85723" lon="6.75894">
        <ele>739.8</ele>
        <time>2022-08-17T08:40:54Z</time>
      </trkpt>
      <trkpt lat="47.85723" lon="6.75893">
        <ele>739.5</ele>
        <time>2022-08-17T08:40:55Z</time>
      </trkpt>
      <trkpt lat="47.85723" lon="6.75892">
        <ele>739.2</ele>
        <time>2022-08-17T08:40:56Z</time>
      </trkpt>
      <trkpt lat="47.85723" lon="6.7589">
        <ele>738.6</ele>
        <time>2022-08-17T08:40:57Z</time>
      </trkpt>
      <trkpt lat="47.85723" lon="6.75889">
        <ele>738.3</ele>
        <time>2022-08-17T08:40:58Z</time>
      </trkpt>
      <trkpt lat="47.85723" lon="6.75888">
        <ele>738.1</ele>
        <time>2022-08-17T08:40:59Z</time>
      </trkpt>
      <trkpt lat="47.85724" lon="6.75887">
        <ele>738.3</ele>
        <time>2022-08-17T08:41:00Z</time>
      </trkpt>
      <trkpt lat="47.85724" lon="6.75886">
        <ele>738.1</ele>
        <time>2022-08-17T08:41:01Z</time>
      </trkpt>
      <trkpt lat="47.85725" lon="6.75885">
        <ele>738.3</ele>
        <time>2022-08-17T08:41:02Z</time>
      </trkpt>
      <trkpt lat="47.85725" lon="6.75884">
        <ele>738.1</ele>
        <time>2022-08-17T08:41:03Z</time>
      </trkpt>
      <trkpt lat="47.85726" lon="6.75883">
        <ele>738.3</ele>
        <time>2022-08-17T08:41:04Z</time>
      </trkpt>
      <trkpt lat="47.85726" lon="6.75881">
        <ele>737.9</ele>
        <time>2022-08-17T08:41:05Z</time>
      </trkpt>
      <trkpt lat="47.85727" lon="6.7588">
        <ele>738.1</ele>
        <time>2022-08-17T08:41:06Z</time>
      </trkpt>
      <trkpt lat="47.85728" lon="6.75879">
        <ele>738.4</ele>
        <time>2022-08-17T08:41:07Z</time>
      </trkpt>
      <trkpt lat="47.85728" lon="6.75878">
        <ele>738.2</ele>
        <time>2022-08-17T08:41:08Z</time>
      </trkpt>
      <trkpt lat="47.85729" lon="6.75877">
        <ele>738.4</ele>
        <time>2022-08-17T08:41:09Z</time>
      </trkpt>
      <trkpt lat="47.85729" lon="6.75876">
        <ele>738.2</ele>
        <time>2022-08-17T08:41:10Z</time>
      </trkpt>
      <trkpt lat="47.85729" lon="6.75874">
        <ele>737.9</ele>
        <time>2022-08-17T08:41:11Z</time>
      </trkpt>
      <trkpt lat="47.8573" lon="6.75873">
        <ele>738.1</ele>
        <time>2022-08-17T08:41:12Z</time>
      </trkpt>
      <trkpt lat="47.8573" lon="6.75872">
        <ele>737.9</ele>
        <time>2022-08-17T08:41:13Z</time>
      </trkpt>
      <trkpt lat="47.85731" lon="6.75871">
        <ele>738.2</ele>
        <time>2022-08-17T08:41:14Z</time>
      </trkpt>
      <trkpt lat="47.85732" lon="6.7587">
        <ele>738.5</ele>
        <time>2022-08-17T08:41:15Z</time>
      </trkpt>
      <trkpt lat="47.85732" lon="6.75869">
        <ele>738.3</ele>
        <time>2022-08-17T08:41:16Z</time>
      </trkpt>
      <trkpt lat="47.85732" lon="6.75867">
        <ele>738</ele>
        <time>2022-08-17T08:41:17Z</time>
      </trkpt>
      <trkpt lat="47.85733" lon="6.75865">
        <ele>738.1</ele>
        <time>2022-08-17T08:41:18Z</time>
      </trkpt>
      <trkpt lat="47.85733" lon="6.75864">
        <ele>737.9</ele>
        <time>2022-08-17T08:41:19Z</time>
      </trkpt>
      <trkpt lat="47.85733" lon="6.75862">
        <ele>737.6</ele>
        <time>2022-08-17T08:41:20Z</time>
      </trkpt>
      <trkpt lat="47.85733" lon="6.7586">
        <ele>737.3</ele>
        <time>2022-08-17T08:41:21Z</time>
      </trkpt>
      <trkpt lat="47.85733" lon="6.75859">
        <ele>737.2</ele>
        <time>2022-08-17T08:41:22Z</time>
      </trkpt>
      <trkpt lat="47.85734" lon="6.75857">
        <ele>737.4</ele>
        <time>2022-08-17T08:41:23Z</time>
      </trkpt>
      <trkpt lat="47.85734" lon="6.75856">
        <ele>737.3</ele>
        <time>2022-08-17T08:41:24Z</time>
      </trkpt>
      <trkpt lat="47.85734" lon="6.75855">
        <ele>737.2</ele>
        <time>2022-08-17T08:41:25Z</time>
      </trkpt>
      <trkpt lat="47.85735" lon="6.75853">
        <ele>737.5</ele>
        <time>2022-08-17T08:41:26Z</time>
      </trkpt>
      <trkpt lat="47.85735" lon="6.75852">
        <ele>737.4</ele>
        <time>2022-08-17T08:41:27Z</time>
      </trkpt>
      <trkpt lat="47.85735" lon="6.7585">
        <ele>737.2</ele>
        <time>2022-08-17T08:41:28Z</time>
      </trkpt>
      <trkpt lat="47.85736" lon="6.75849">
        <ele>737.6</ele>
        <time>2022-08-17T08:41:29Z</time>
      </trkpt>
      <trkpt lat="47.85736" lon="6.75847">
        <ele>737.4</ele>
        <time>2022-08-17T08:41:30Z</time>
      </trkpt>
      <trkpt lat="47.85736" lon="6.75846">
        <ele>737.3</ele>
        <time>2022-08-17T08:41:31Z</time>
      </trkpt>
      <trkpt lat="47.85736" lon="6.75844">
        <ele>737.1</ele>
        <time>2022-08-17T08:41:32Z</time>
      </trkpt>
      <trkpt lat="47.85737" lon="6.75843">
        <ele>737.6</ele>
        <time>2022-08-17T08:41:33Z</time>
      </trkpt>
      <trkpt lat="47.85737" lon="6.75841">
        <ele>737.4</ele>
        <time>2022-08-17T08:41:34Z</time>
      </trkpt>
      <trkpt lat="47.85738" lon="6.7584">
        <ele>737.9</ele>
        <time>2022-08-17T08:41:35Z</time>
      </trkpt>
      <trkpt lat="47.85738" lon="6.75839">
        <ele>737.8</ele>
        <time>2022-08-17T08:41:36Z</time>
      </trkpt>
      <trkpt lat="47.85739" lon="6.75839">
        <ele>738.4</ele>
        <time>2022-08-17T08:41:37Z</time>
      </trkpt>
      <trkpt lat="47.85739" lon="6.75837">
        <ele>738.2</ele>
        <time>2022-08-17T08:41:38Z</time>
      </trkpt>
      <trkpt lat="47.85739" lon="6.75836">
        <ele>738.1</ele>
        <time>2022-08-17T08:41:39Z</time>
      </trkpt>
      <trkpt lat="47.85739" lon="6.75834">
        <ele>737.9</ele>
        <time>2022-08-17T08:41:40Z</time>
      </trkpt>
      <trkpt lat="47.85739" lon="6.75833">
        <ele>737.8</ele>
        <time>2022-08-17T08:41:41Z</time>
      </trkpt>
      <trkpt lat="47.8574" lon="6.75832">
        <ele>738.4</ele>
        <time>2022-08-17T08:41:42Z</time>
      </trkpt>
      <trkpt lat="47.8574" lon="6.7583">
        <ele>738.2</ele>
        <time>2022-08-17T08:41:43Z</time>
      </trkpt>
      <trkpt lat="47.8574" lon="6.75829">
        <ele>738.1</ele>
        <time>2022-08-17T08:41:44Z</time>
      </trkpt>
      <trkpt lat="47.8574" lon="6.75827">
        <ele>737.9</ele>
        <time>2022-08-17T08:41:45Z</time>
      </trkpt>
      <trkpt lat="47.8574" lon="6.75826">
        <ele>737.8</ele>
        <time>2022-08-17T08:41:54Z</time>
      </trkpt>
      <trkpt lat="47.8574" lon="6.75825">
        <ele>737.7</ele>
        <time>2022-08-17T08:41:55Z</time>
      </trkpt>
      <trkpt lat="47.8574" lon="6.75824">
        <ele>737.6</ele>
        <time>2022-08-17T08:41:56Z</time>
      </trkpt>
      <trkpt lat="47.8574" lon="6.75823">
        <ele>737.5</ele>
        <time>2022-08-17T08:41:57Z</time>
      </trkpt>
      <trkpt lat="47.8574" lon="6.75822">
        <ele>737.4</ele>
        <time>2022-08-17T08:41:58Z</time>
      </trkpt>
      <trkpt lat="47.85741" lon="6.75821">
        <ele>738</ele>
        <time>2022-08-17T08:41:59Z</time>
      </trkpt>
      <trkpt lat="47.85741" lon="6.7582">
        <ele>737.9</ele>
        <time>2022-08-17T08:42:00Z</time>
      </trkpt>
      <trkpt lat="47.85741" lon="6.75819">
        <ele>737.8</ele>
        <time>2022-08-17T08:42:01Z</time>
      </trkpt>
      <trkpt lat="47.85741" lon="6.75817">
        <ele>737.6</ele>
        <time>2022-08-17T08:42:02Z</time>
      </trkpt>
      <trkpt lat="47.85741" lon="6.75816">
        <ele>737.5</ele>
        <time>2022-08-17T08:42:03Z</time>
      </trkpt>
      <trkpt lat="47.85742" lon="6.75815">
        <ele>738.1</ele>
        <time>2022-08-17T08:42:04Z</time>
      </trkpt>
      <trkpt lat="47.85742" lon="6.75813">
        <ele>737.9</ele>
        <time>2022-08-17T08:42:05Z</time>
      </trkpt>
      <trkpt lat="47.85743" lon="6.75812">
        <ele>738.5</ele>
        <time>2022-08-17T08:42:06Z</time>
      </trkpt>
      <trkpt lat="47.85743" lon="6.7581">
        <ele>738.4</ele>
        <time>2022-08-17T08:42:07Z</time>
      </trkpt>
      <trkpt lat="47.85743" lon="6.75809">
        <ele>738.3</ele>
        <time>2022-08-17T08:42:08Z</time>
      </trkpt>
      <trkpt lat="47.85744" lon="6.75807">
        <ele>738.8</ele>
        <time>2022-08-17T08:42:09Z</time>
      </trkpt>
      <trkpt lat="47.85744" lon="6.75806">
        <ele>738.7</ele>
        <time>2022-08-17T08:42:10Z</time>
      </trkpt>
      <trkpt lat="47.85744" lon="6.75804">
        <ele>738.4</ele>
        <time>2022-08-17T08:42:11Z</time>
      </trkpt>
      <trkpt lat="47.85744" lon="6.75803">
        <ele>738.3</ele>
        <time>2022-08-17T08:42:12Z</time>
      </trkpt>
      <trkpt lat="47.85744" lon="6.75801">
        <ele>737.9</ele>
        <time>2022-08-17T08:42:13Z</time>
      </trkpt>
      <trkpt lat="47.85744" lon="6.75799">
        <ele>737.6</ele>
        <time>2022-08-17T08:42:14Z</time>
      </trkpt>
      <trkpt lat="47.85744" lon="6.75798">
        <ele>737.4</ele>
        <time>2022-08-17T08:42:15Z</time>
      </trkpt>
      <trkpt lat="47.85744" lon="6.75796">
        <ele>737.1</ele>
        <time>2022-08-17T08:42:16Z</time>
      </trkpt>
      <trkpt lat="47.85744" lon="6.75795">
        <ele>736.9</ele>
        <time>2022-08-17T08:42:17Z</time>
      </trkpt>
      <trkpt lat="47.85744" lon="6.75793">
        <ele>736.6</ele>
        <time>2022-08-17T08:42:18Z</time>
      </trkpt>
      <trkpt lat="47.85744" lon="6.75791">
        <ele>736.3</ele>
        <time>2022-08-17T08:42:19Z</time>
      </trkpt>
      <trkpt lat="47.85743" lon="6.7579">
        <ele>735.4</ele>
        <time>2022-08-17T08:42:20Z</time>
      </trkpt>
      <trkpt lat="47.85744" lon="6.75788">
        <ele>735.8</ele>
        <time>2022-08-17T08:42:21Z</time>
      </trkpt>
      <trkpt lat="47.85744" lon="6.75786">
        <ele>735.5</ele>
        <time>2022-08-17T08:42:22Z</time>
      </trkpt>
      <trkpt lat="47.85744" lon="6.75785">
        <ele>735.3</ele>
        <time>2022-08-17T08:42:23Z</time>
      </trkpt>
      <trkpt lat="47.85744" lon="6.75783">
        <ele>735</ele>
        <time>2022-08-17T08:42:24Z</time>
      </trkpt>
      <trkpt lat="47.85745" lon="6.75782">
        <ele>735.5</ele>
        <time>2022-08-17T08:42:25Z</time>
      </trkpt>
      <trkpt lat="47.85745" lon="6.7578">
        <ele>735.1</ele>
        <time>2022-08-17T08:42:26Z</time>
      </trkpt>
      <trkpt lat="47.85746" lon="6.75778">
        <ele>735.4</ele>
        <time>2022-08-17T08:42:27Z</time>
      </trkpt>
      <trkpt lat="47.85746" lon="6.75777">
        <ele>735.3</ele>
        <time>2022-08-17T08:42:28Z</time>
      </trkpt>
      <trkpt lat="47.85747" lon="6.75775">
        <ele>735.8</ele>
        <time>2022-08-17T08:42:29Z</time>
      </trkpt>
      <trkpt lat="47.85748" lon="6.75774">
        <ele>736.4</ele>
        <time>2022-08-17T08:42:30Z</time>
      </trkpt>
      <trkpt lat="47.85748" lon="6.75772">
        <ele>736.3</ele>
        <time>2022-08-17T08:42:31Z</time>
      </trkpt>
      <trkpt lat="47.85749" lon="6.7577">
        <ele>736.8</ele>
        <time>2022-08-17T08:42:32Z</time>
      </trkpt>
      <trkpt lat="47.85749" lon="6.75769">
        <ele>736.7</ele>
        <time>2022-08-17T08:42:33Z</time>
      </trkpt>
      <trkpt lat="47.85749" lon="6.75767">
        <ele>736.5</ele>
        <time>2022-08-17T08:42:34Z</time>
      </trkpt>
      <trkpt lat="47.8575" lon="6.75766">
        <ele>737.2</ele>
        <time>2022-08-17T08:42:35Z</time>
      </trkpt>
      <trkpt lat="47.8575" lon="6.75764">
        <ele>737</ele>
        <time>2022-08-17T08:42:36Z</time>
      </trkpt>
      <trkpt lat="47.85751" lon="6.75762">
        <ele>737.3</ele>
        <time>2022-08-17T08:42:37Z</time>
      </trkpt>
      <trkpt lat="47.85751" lon="6.75761">
        <ele>737.2</ele>
        <time>2022-08-17T08:42:38Z</time>
      </trkpt>
      <trkpt lat="47.85751" lon="6.7576">
        <ele>737.2</ele>
        <time>2022-08-17T08:42:39Z</time>
      </trkpt>
      <trkpt lat="47.85752" lon="6.75759">
        <ele>737.5</ele>
        <time>2022-08-17T08:42:40Z</time>
      </trkpt>
      <trkpt lat="47.85752" lon="6.75758">
        <ele>737.4</ele>
        <time>2022-08-17T08:42:41Z</time>
      </trkpt>
      <trkpt lat="47.85752" lon="6.75757">
        <ele>737.3</ele>
        <time>2022-08-17T08:42:42Z</time>
      </trkpt>
      <trkpt lat="47.85753" lon="6.75756">
        <ele>737.7</ele>
        <time>2022-08-17T08:42:43Z</time>
      </trkpt>
      <trkpt lat="47.85753" lon="6.75755">
        <ele>737.6</ele>
        <time>2022-08-17T08:42:44Z</time>
      </trkpt>
      <trkpt lat="47.85753" lon="6.75753">
        <ele>737.4</ele>
        <time>2022-08-17T08:42:45Z</time>
      </trkpt>
      <trkpt lat="47.85754" lon="6.75752">
        <ele>737.6</ele>
        <time>2022-08-17T08:42:46Z</time>
      </trkpt>
      <trkpt lat="47.85754" lon="6.75749">
        <ele>737.3</ele>
        <time>2022-08-17T08:42:47Z</time>
      </trkpt>
      <trkpt lat="47.85754" lon="6.75747">
        <ele>736.9</ele>
        <time>2022-08-17T08:42:48Z</time>
      </trkpt>
      <trkpt lat="47.85755" lon="6.75745">
        <ele>736.9</ele>
        <time>2022-08-17T08:42:49Z</time>
      </trkpt>
      <trkpt lat="47.85756" lon="6.75743">
        <ele>736.9</ele>
        <time>2022-08-17T08:42:50Z</time>
      </trkpt>
      <trkpt lat="47.85756" lon="6.75741">
        <ele>736.5</ele>
        <time>2022-08-17T08:42:51Z</time>
      </trkpt>
      <trkpt lat="47.85757" lon="6.75739">
        <ele>736.5</ele>
        <time>2022-08-17T08:42:52Z</time>
      </trkpt>
      <trkpt lat="47.85757" lon="6.75738">
        <ele>736.4</ele>
        <time>2022-08-17T08:42:53Z</time>
      </trkpt>
      <trkpt lat="47.85758" lon="6.75736">
        <ele>736.4</ele>
        <time>2022-08-17T08:42:54Z</time>
      </trkpt>
      <trkpt lat="47.85758" lon="6.75735">
        <ele>736.2</ele>
        <time>2022-08-17T08:42:55Z</time>
      </trkpt>
      <trkpt lat="47.85759" lon="6.75733">
        <ele>736.2</ele>
        <time>2022-08-17T08:42:56Z</time>
      </trkpt>
      <trkpt lat="47.85759" lon="6.75732">
        <ele>736</ele>
        <time>2022-08-17T08:42:57Z</time>
      </trkpt>
      <trkpt lat="47.85759" lon="6.75731">
        <ele>735.8</ele>
        <time>2022-08-17T08:42:58Z</time>
      </trkpt>
      <trkpt lat="47.85759" lon="6.75729">
        <ele>735.5</ele>
        <time>2022-08-17T08:42:59Z</time>
      </trkpt>
      <trkpt lat="47.85759" lon="6.75728">
        <ele>735.3</ele>
        <time>2022-08-17T08:43:00Z</time>
      </trkpt>
      <trkpt lat="47.85759" lon="6.75726">
        <ele>734.9</ele>
        <time>2022-08-17T08:43:01Z</time>
      </trkpt>
      <trkpt lat="47.85759" lon="6.75725">
        <ele>734.7</ele>
        <time>2022-08-17T08:43:02Z</time>
      </trkpt>
      <trkpt lat="47.85759" lon="6.75723">
        <ele>734.4</ele>
        <time>2022-08-17T08:43:03Z</time>
      </trkpt>
      <trkpt lat="47.8576" lon="6.75722">
        <ele>734.6</ele>
        <time>2022-08-17T08:43:04Z</time>
      </trkpt>
      <trkpt lat="47.8576" lon="6.7572">
        <ele>734.2</ele>
        <time>2022-08-17T08:43:05Z</time>
      </trkpt>
      <trkpt lat="47.8576" lon="6.75718">
        <ele>733.8</ele>
        <time>2022-08-17T08:43:06Z</time>
      </trkpt>
      <trkpt lat="47.8576" lon="6.75717">
        <ele>733.6</ele>
        <time>2022-08-17T08:43:07Z</time>
      </trkpt>
      <trkpt lat="47.8576" lon="6.75715">
        <ele>733.2</ele>
        <time>2022-08-17T08:43:08Z</time>
      </trkpt>
      <trkpt lat="47.8576" lon="6.75713">
        <ele>732.8</ele>
        <time>2022-08-17T08:43:09Z</time>
      </trkpt>
      <trkpt lat="47.8576" lon="6.75711">
        <ele>732.5</ele>
        <time>2022-08-17T08:43:10Z</time>
      </trkpt>
      <trkpt lat="47.85761" lon="6.7571">
        <ele>732.7</ele>
        <time>2022-08-17T08:43:11Z</time>
      </trkpt>
      <trkpt lat="47.85761" lon="6.75709">
        <ele>732.5</ele>
        <time>2022-08-17T08:43:12Z</time>
      </trkpt>
      <trkpt lat="47.85761" lon="6.75707">
        <ele>732.1</ele>
        <time>2022-08-17T08:43:13Z</time>
      </trkpt>
      <trkpt lat="47.85761" lon="6.75706">
        <ele>731.9</ele>
        <time>2022-08-17T08:43:14Z</time>
      </trkpt>
      <trkpt lat="47.85762" lon="6.75704">
        <ele>732</ele>
        <time>2022-08-17T08:43:31Z</time>
      </trkpt>
      <trkpt lat="47.85762" lon="6.75703">
        <ele>731.8</ele>
        <time>2022-08-17T08:43:33Z</time>
      </trkpt>
      <trkpt lat="47.85763" lon="6.75702">
        <ele>732</ele>
        <time>2022-08-17T08:43:35Z</time>
      </trkpt>
      <trkpt lat="47.85763" lon="6.75701">
        <ele>731.8</ele>
        <time>2022-08-17T08:43:36Z</time>
      </trkpt>
      <trkpt lat="47.85763" lon="6.757">
        <ele>731.6</ele>
        <time>2022-08-17T08:43:37Z</time>
      </trkpt>
      <trkpt lat="47.85764" lon="6.75699">
        <ele>731.9</ele>
        <time>2022-08-17T08:43:38Z</time>
      </trkpt>
      <trkpt lat="47.85764" lon="6.75698">
        <ele>731.7</ele>
        <time>2022-08-17T08:43:39Z</time>
      </trkpt>
      <trkpt lat="47.85764" lon="6.75696">
        <ele>731.3</ele>
        <time>2022-08-17T08:43:40Z</time>
      </trkpt>
      <trkpt lat="47.85764" lon="6.75695">
        <ele>731.1</ele>
        <time>2022-08-17T08:43:41Z</time>
      </trkpt>
      <trkpt lat="47.85764" lon="6.75694">
        <ele>731</ele>
        <time>2022-08-17T08:43:42Z</time>
      </trkpt>
      <trkpt lat="47.85765" lon="6.75693">
        <ele>731.5</ele>
        <time>2022-08-17T08:43:43Z</time>
      </trkpt>
      <trkpt lat="47.85765" lon="6.75691">
        <ele>731.5</ele>
        <time>2022-08-17T08:43:44Z</time>
      </trkpt>
      <trkpt lat="47.85765" lon="6.7569">
        <ele>731.5</ele>
        <time>2022-08-17T08:43:45Z</time>
      </trkpt>
      <trkpt lat="47.85765" lon="6.75689">
        <ele>731.5</ele>
        <time>2022-08-17T08:43:46Z</time>
      </trkpt>
      <trkpt lat="47.85765" lon="6.75687">
        <ele>731.5</ele>
        <time>2022-08-17T08:43:47Z</time>
      </trkpt>
      <trkpt lat="47.85765" lon="6.75686">
        <ele>731.5</ele>
        <time>2022-08-17T08:43:48Z</time>
      </trkpt>
      <trkpt lat="47.85765" lon="6.75685">
        <ele>731.5</ele>
        <time>2022-08-17T08:43:49Z</time>
      </trkpt>
      <trkpt lat="47.85765" lon="6.75684">
        <ele>731.5</ele>
        <time>2022-08-17T08:43:50Z</time>
      </trkpt>
      <trkpt lat="47.85765" lon="6.75683">
        <ele>731.5</ele>
        <time>2022-08-17T08:43:51Z</time>
      </trkpt>
      <trkpt lat="47.85765" lon="6.75681">
        <ele>731.5</ele>
        <time>2022-08-17T08:43:52Z</time>
      </trkpt>
      <trkpt lat="47.85765" lon="6.7568">
        <ele>731.5</ele>
        <time>2022-08-17T08:43:53Z</time>
      </trkpt>
      <trkpt lat="47.85764" lon="6.75679">
        <ele>731.1</ele>
        <time>2022-08-17T08:43:54Z</time>
      </trkpt>
      <trkpt lat="47.85764" lon="6.75678">
        <ele>731.1</ele>
        <time>2022-08-17T08:43:55Z</time>
      </trkpt>
      <trkpt lat="47.85764" lon="6.75676">
        <ele>731.1</ele>
        <time>2022-08-17T08:43:56Z</time>
      </trkpt>
      <trkpt lat="47.85764" lon="6.75675">
        <ele>731.1</ele>
        <time>2022-08-17T08:43:57Z</time>
      </trkpt>
      <trkpt lat="47.85763" lon="6.75674">
        <ele>730.6</ele>
        <time>2022-08-17T08:43:58Z</time>
      </trkpt>
      <trkpt lat="47.85763" lon="6.75673">
        <ele>730.6</ele>
        <time>2022-08-17T08:43:59Z</time>
      </trkpt>
      <trkpt lat="47.85763" lon="6.75672">
        <ele>730.6</ele>
        <time>2022-08-17T08:44:00Z</time>
      </trkpt>
      <trkpt lat="47.85762" lon="6.75671">
        <ele>730.1</ele>
        <time>2022-08-17T08:44:01Z</time>
      </trkpt>
      <trkpt lat="47.85762" lon="6.7567">
        <ele>730.1</ele>
        <time>2022-08-17T08:44:03Z</time>
      </trkpt>
      <trkpt lat="47.85761" lon="6.75667">
        <ele>729.5</ele>
        <time>2022-08-17T08:44:27Z</time>
      </trkpt>
      <trkpt lat="47.85761" lon="6.75666">
        <ele>729.6</ele>
        <time>2022-08-17T08:44:28Z</time>
      </trkpt>
      <trkpt lat="47.85761" lon="6.75665">
        <ele>729.6</ele>
        <time>2022-08-17T08:44:29Z</time>
      </trkpt>
      <trkpt lat="47.85761" lon="6.75664">
        <ele>729.7</ele>
        <time>2022-08-17T08:44:30Z</time>
      </trkpt>
      <trkpt lat="47.85761" lon="6.75663">
        <ele>729.8</ele>
        <time>2022-08-17T08:44:31Z</time>
      </trkpt>
      <trkpt lat="47.85761" lon="6.75661">
        <ele>729.9</ele>
        <time>2022-08-17T08:44:32Z</time>
      </trkpt>
      <trkpt lat="47.8576" lon="6.7566">
        <ele>729.4</ele>
        <time>2022-08-17T08:44:33Z</time>
      </trkpt>
      <trkpt lat="47.8576" lon="6.75659">
        <ele>729.5</ele>
        <time>2022-08-17T08:44:34Z</time>
      </trkpt>
      <trkpt lat="47.8576" lon="6.75657">
        <ele>729.6</ele>
        <time>2022-08-17T08:44:35Z</time>
      </trkpt>
      <trkpt lat="47.85759" lon="6.75656">
        <ele>729.2</ele>
        <time>2022-08-17T08:44:36Z</time>
      </trkpt>
      <trkpt lat="47.85759" lon="6.75655">
        <ele>729.2</ele>
        <time>2022-08-17T08:44:37Z</time>
      </trkpt>
      <trkpt lat="47.85759" lon="6.75653">
        <ele>729.4</ele>
        <time>2022-08-17T08:44:38Z</time>
      </trkpt>
      <trkpt lat="47.85759" lon="6.75652">
        <ele>729.4</ele>
        <time>2022-08-17T08:44:39Z</time>
      </trkpt>
      <trkpt lat="47.85759" lon="6.7565">
        <ele>729.5</ele>
        <time>2022-08-17T08:44:40Z</time>
      </trkpt>
      <trkpt lat="47.85758" lon="6.75649">
        <ele>729.1</ele>
        <time>2022-08-17T08:44:41Z</time>
      </trkpt>
      <trkpt lat="47.85758" lon="6.75647">
        <ele>729.2</ele>
        <time>2022-08-17T08:44:42Z</time>
      </trkpt>
      <trkpt lat="47.85758" lon="6.75646">
        <ele>729.3</ele>
        <time>2022-08-17T08:44:43Z</time>
      </trkpt>
      <trkpt lat="47.85758" lon="6.75644">
        <ele>729.4</ele>
        <time>2022-08-17T08:44:44Z</time>
      </trkpt>
      <trkpt lat="47.85758" lon="6.75643">
        <ele>729.5</ele>
        <time>2022-08-17T08:44:45Z</time>
      </trkpt>
      <trkpt lat="47.85758" lon="6.75641">
        <ele>729.6</ele>
        <time>2022-08-17T08:44:46Z</time>
      </trkpt>
      <trkpt lat="47.85758" lon="6.75639">
        <ele>729.7</ele>
        <time>2022-08-17T08:44:47Z</time>
      </trkpt>
      <trkpt lat="47.85758" lon="6.75638">
        <ele>729.7</ele>
        <time>2022-08-17T08:44:48Z</time>
      </trkpt>
      <trkpt lat="47.85758" lon="6.75636">
        <ele>729.7</ele>
        <time>2022-08-17T08:44:49Z</time>
      </trkpt>
      <trkpt lat="47.85758" lon="6.75634">
        <ele>729.7</ele>
        <time>2022-08-17T08:44:50Z</time>
      </trkpt>
      <trkpt lat="47.85758" lon="6.75633">
        <ele>729.7</ele>
        <time>2022-08-17T08:44:51Z</time>
      </trkpt>
      <trkpt lat="47.85758" lon="6.75631">
        <ele>729.6</ele>
        <time>2022-08-17T08:44:52Z</time>
      </trkpt>
      <trkpt lat="47.85758" lon="6.75629">
        <ele>729.6</ele>
        <time>2022-08-17T08:44:53Z</time>
      </trkpt>
      <trkpt lat="47.85758" lon="6.75628">
        <ele>729.6</ele>
        <time>2022-08-17T08:44:54Z</time>
      </trkpt>
      <trkpt lat="47.85757" lon="6.75626">
        <ele>729</ele>
        <time>2022-08-17T08:44:55Z</time>
      </trkpt>
      <trkpt lat="47.85757" lon="6.75624">
        <ele>729</ele>
        <time>2022-08-17T08:44:56Z</time>
      </trkpt>
      <trkpt lat="47.85757" lon="6.75623">
        <ele>729</ele>
        <time>2022-08-17T08:44:57Z</time>
      </trkpt>
      <trkpt lat="47.85757" lon="6.75622">
        <ele>729</ele>
        <time>2022-08-17T08:44:58Z</time>
      </trkpt>
      <trkpt lat="47.85758" lon="6.7562">
        <ele>729.5</ele>
        <time>2022-08-17T08:44:59Z</time>
      </trkpt>
      <trkpt lat="47.85758" lon="6.75619">
        <ele>729.4</ele>
        <time>2022-08-17T08:45:00Z</time>
      </trkpt>
      <trkpt lat="47.85758" lon="6.75617">
        <ele>729.4</ele>
        <time>2022-08-17T08:45:01Z</time>
      </trkpt>
      <trkpt lat="47.85758" lon="6.75616">
        <ele>729.4</ele>
        <time>2022-08-17T08:45:02Z</time>
      </trkpt>
      <trkpt lat="47.85758" lon="6.75614">
        <ele>729.4</ele>
        <time>2022-08-17T08:45:03Z</time>
      </trkpt>
      <trkpt lat="47.85758" lon="6.75613">
        <ele>729.3</ele>
        <time>2022-08-17T08:45:04Z</time>
      </trkpt>
      <trkpt lat="47.85758" lon="6.75611">
        <ele>729.3</ele>
        <time>2022-08-17T08:45:05Z</time>
      </trkpt>
      <trkpt lat="47.85758" lon="6.7561">
        <ele>729.3</ele>
        <time>2022-08-17T08:45:06Z</time>
      </trkpt>
      <trkpt lat="47.85758" lon="6.75608">
        <ele>729.3</ele>
        <time>2022-08-17T08:45:07Z</time>
      </trkpt>
      <trkpt lat="47.85758" lon="6.75606">
        <ele>729.3</ele>
        <time>2022-08-17T08:45:08Z</time>
      </trkpt>
      <trkpt lat="47.85758" lon="6.75605">
        <ele>729.3</ele>
        <time>2022-08-17T08:45:09Z</time>
      </trkpt>
      <trkpt lat="47.85758" lon="6.75603">
        <ele>729.3</ele>
        <time>2022-08-17T08:45:10Z</time>
      </trkpt>
      <trkpt lat="47.85758" lon="6.75601">
        <ele>729.3</ele>
        <time>2022-08-17T08:45:11Z</time>
      </trkpt>
      <trkpt lat="47.85758" lon="6.756">
        <ele>729.3</ele>
        <time>2022-08-17T08:45:12Z</time>
      </trkpt>
      <trkpt lat="47.85758" lon="6.75598">
        <ele>729.3</ele>
        <time>2022-08-17T08:45:13Z</time>
      </trkpt>
      <trkpt lat="47.85758" lon="6.75596">
        <ele>729.3</ele>
        <time>2022-08-17T08:45:14Z</time>
      </trkpt>
      <trkpt lat="47.85758" lon="6.75594">
        <ele>729.3</ele>
        <time>2022-08-17T08:45:15Z</time>
      </trkpt>
      <trkpt lat="47.85758" lon="6.75592">
        <ele>729.3</ele>
        <time>2022-08-17T08:45:16Z</time>
      </trkpt>
      <trkpt lat="47.85759" lon="6.75591">
        <ele>729.9</ele>
        <time>2022-08-17T08:45:17Z</time>
      </trkpt>
      <trkpt lat="47.85759" lon="6.75589">
        <ele>729.9</ele>
        <time>2022-08-17T08:45:18Z</time>
      </trkpt>
      <trkpt lat="47.85759" lon="6.75587">
        <ele>729.9</ele>
        <time>2022-08-17T08:45:19Z</time>
      </trkpt>
      <trkpt lat="47.85758" lon="6.75585">
        <ele>729.3</ele>
        <time>2022-08-17T08:45:20Z</time>
      </trkpt>
      <trkpt lat="47.85758" lon="6.75583">
        <ele>729.3</ele>
        <time>2022-08-17T08:45:21Z</time>
      </trkpt>
      <trkpt lat="47.85758" lon="6.75581">
        <ele>729.2</ele>
        <time>2022-08-17T08:45:22Z</time>
      </trkpt>
      <trkpt lat="47.85759" lon="6.75579">
        <ele>729.6</ele>
        <time>2022-08-17T08:45:23Z</time>
      </trkpt>
      <trkpt lat="47.85759" lon="6.75577">
        <ele>729.5</ele>
        <time>2022-08-17T08:45:24Z</time>
      </trkpt>
      <trkpt lat="47.85759" lon="6.75575">
        <ele>729.4</ele>
        <time>2022-08-17T08:45:25Z</time>
      </trkpt>
      <trkpt lat="47.85759" lon="6.75573">
        <ele>729.2</ele>
        <time>2022-08-17T08:45:26Z</time>
      </trkpt>
      <trkpt lat="47.8576" lon="6.75571">
        <ele>729.7</ele>
        <time>2022-08-17T08:45:27Z</time>
      </trkpt>
      <trkpt lat="47.8576" lon="6.75569">
        <ele>729.6</ele>
        <time>2022-08-17T08:45:28Z</time>
      </trkpt>
      <trkpt lat="47.8576" lon="6.75568">
        <ele>729.5</ele>
        <time>2022-08-17T08:45:29Z</time>
      </trkpt>
      <trkpt lat="47.85761" lon="6.75566">
        <ele>729.9</ele>
        <time>2022-08-17T08:45:30Z</time>
      </trkpt>
      <trkpt lat="47.85761" lon="6.75564">
        <ele>729.8</ele>
        <time>2022-08-17T08:45:31Z</time>
      </trkpt>
      <trkpt lat="47.85761" lon="6.75562">
        <ele>729.7</ele>
        <time>2022-08-17T08:45:32Z</time>
      </trkpt>
      <trkpt lat="47.85761" lon="6.7556">
        <ele>729.6</ele>
        <time>2022-08-17T08:45:33Z</time>
      </trkpt>
      <trkpt lat="47.85761" lon="6.75558">
        <ele>729.5</ele>
        <time>2022-08-17T08:45:34Z</time>
      </trkpt>
      <trkpt lat="47.85761" lon="6.75557">
        <ele>729.4</ele>
        <time>2022-08-17T08:45:35Z</time>
      </trkpt>
      <trkpt lat="47.85761" lon="6.75555">
        <ele>729.2</ele>
        <time>2022-08-17T08:45:36Z</time>
      </trkpt>
      <trkpt lat="47.85761" lon="6.75553">
        <ele>728.9</ele>
        <time>2022-08-17T08:45:37Z</time>
      </trkpt>
      <trkpt lat="47.85761" lon="6.75551">
        <ele>728.6</ele>
        <time>2022-08-17T08:45:38Z</time>
      </trkpt>
      <trkpt lat="47.85761" lon="6.7555">
        <ele>728.4</ele>
        <time>2022-08-17T08:45:39Z</time>
      </trkpt>
      <trkpt lat="47.85761" lon="6.75548">
        <ele>728</ele>
        <time>2022-08-17T08:45:40Z</time>
      </trkpt>
      <trkpt lat="47.85761" lon="6.75546">
        <ele>727.7</ele>
        <time>2022-08-17T08:45:41Z</time>
      </trkpt>
      <trkpt lat="47.85761" lon="6.75544">
        <ele>727.3</ele>
        <time>2022-08-17T08:45:42Z</time>
      </trkpt>
      <trkpt lat="47.85761" lon="6.75543">
        <ele>727.2</ele>
        <time>2022-08-17T08:45:43Z</time>
      </trkpt>
      <trkpt lat="47.85761" lon="6.75541">
        <ele>726.8</ele>
        <time>2022-08-17T08:45:44Z</time>
      </trkpt>
      <trkpt lat="47.85761" lon="6.75539">
        <ele>726.5</ele>
        <time>2022-08-17T08:45:45Z</time>
      </trkpt>
      <trkpt lat="47.85761" lon="6.75538">
        <ele>726.3</ele>
        <time>2022-08-17T08:45:46Z</time>
      </trkpt>
      <trkpt lat="47.85761" lon="6.75536">
        <ele>726</ele>
        <time>2022-08-17T08:45:47Z</time>
      </trkpt>
      <trkpt lat="47.85761" lon="6.75535">
        <ele>725.8</ele>
        <time>2022-08-17T08:45:48Z</time>
      </trkpt>
      <trkpt lat="47.85761" lon="6.75533">
        <ele>725.4</ele>
        <time>2022-08-17T08:45:49Z</time>
      </trkpt>
      <trkpt lat="47.85761" lon="6.75531">
        <ele>725.1</ele>
        <time>2022-08-17T08:45:50Z</time>
      </trkpt>
      <trkpt lat="47.85761" lon="6.7553">
        <ele>724.9</ele>
        <time>2022-08-17T08:45:51Z</time>
      </trkpt>
      <trkpt lat="47.85761" lon="6.75528">
        <ele>724.6</ele>
        <time>2022-08-17T08:45:52Z</time>
      </trkpt>
      <trkpt lat="47.85761" lon="6.75526">
        <ele>724.5</ele>
        <time>2022-08-17T08:45:53Z</time>
      </trkpt>
      <trkpt lat="47.85761" lon="6.75525">
        <ele>724.4</ele>
        <time>2022-08-17T08:45:54Z</time>
      </trkpt>
      <trkpt lat="47.85761" lon="6.75523">
        <ele>724.4</ele>
        <time>2022-08-17T08:45:55Z</time>
      </trkpt>
      <trkpt lat="47.85761" lon="6.75522">
        <ele>724.3</ele>
        <time>2022-08-17T08:45:56Z</time>
      </trkpt>
      <trkpt lat="47.85761" lon="6.7552">
        <ele>724.3</ele>
        <time>2022-08-17T08:45:57Z</time>
      </trkpt>
      <trkpt lat="47.85761" lon="6.75519">
        <ele>724.2</ele>
        <time>2022-08-17T08:45:58Z</time>
      </trkpt>
      <trkpt lat="47.85761" lon="6.75517">
        <ele>724.1</ele>
        <time>2022-08-17T08:45:59Z</time>
      </trkpt>
      <trkpt lat="47.85761" lon="6.75516">
        <ele>724.1</ele>
        <time>2022-08-17T08:46:00Z</time>
      </trkpt>
      <trkpt lat="47.85761" lon="6.75514">
        <ele>724</ele>
        <time>2022-08-17T08:46:01Z</time>
      </trkpt>
      <trkpt lat="47.85761" lon="6.75513">
        <ele>724</ele>
        <time>2022-08-17T08:46:02Z</time>
      </trkpt>
      <trkpt lat="47.85761" lon="6.75511">
        <ele>723.9</ele>
        <time>2022-08-17T08:46:03Z</time>
      </trkpt>
      <trkpt lat="47.85762" lon="6.7551">
        <ele>724.6</ele>
        <time>2022-08-17T08:46:04Z</time>
      </trkpt>
      <trkpt lat="47.85762" lon="6.75508">
        <ele>724.6</ele>
        <time>2022-08-17T08:46:05Z</time>
      </trkpt>
      <trkpt lat="47.85762" lon="6.75506">
        <ele>724.5</ele>
        <time>2022-08-17T08:46:06Z</time>
      </trkpt>
      <trkpt lat="47.85762" lon="6.75505">
        <ele>724.5</ele>
        <time>2022-08-17T08:46:07Z</time>
      </trkpt>
      <trkpt lat="47.85762" lon="6.75503">
        <ele>724.4</ele>
        <time>2022-08-17T08:46:08Z</time>
      </trkpt>
      <trkpt lat="47.85762" lon="6.75501">
        <ele>724.4</ele>
        <time>2022-08-17T08:46:09Z</time>
      </trkpt>
      <trkpt lat="47.85762" lon="6.755">
        <ele>724.4</ele>
        <time>2022-08-17T08:46:10Z</time>
      </trkpt>
      <trkpt lat="47.85762" lon="6.75498">
        <ele>724.2</ele>
        <time>2022-08-17T08:46:11Z</time>
      </trkpt>
      <trkpt lat="47.85763" lon="6.75496">
        <ele>724.9</ele>
        <time>2022-08-17T08:46:12Z</time>
      </trkpt>
      <trkpt lat="47.85763" lon="6.75495">
        <ele>724.8</ele>
        <time>2022-08-17T08:46:13Z</time>
      </trkpt>
      <trkpt lat="47.85763" lon="6.75493">
        <ele>724.6</ele>
        <time>2022-08-17T08:46:14Z</time>
      </trkpt>
      <trkpt lat="47.85763" lon="6.75492">
        <ele>724.5</ele>
        <time>2022-08-17T08:46:15Z</time>
      </trkpt>
      <trkpt lat="47.85763" lon="6.7549">
        <ele>724.3</ele>
        <time>2022-08-17T08:46:16Z</time>
      </trkpt>
      <trkpt lat="47.85763" lon="6.75489">
        <ele>724.2</ele>
        <time>2022-08-17T08:46:17Z</time>
      </trkpt>
      <trkpt lat="47.85763" lon="6.75488">
        <ele>724.1</ele>
        <time>2022-08-17T08:46:18Z</time>
      </trkpt>
      <trkpt lat="47.85764" lon="6.75486">
        <ele>724.8</ele>
        <time>2022-08-17T08:46:19Z</time>
      </trkpt>
      <trkpt lat="47.85764" lon="6.75485">
        <ele>724.7</ele>
        <time>2022-08-17T08:46:20Z</time>
      </trkpt>
      <trkpt lat="47.85764" lon="6.75484">
        <ele>724.7</ele>
        <time>2022-08-17T08:46:21Z</time>
      </trkpt>
      <trkpt lat="47.85764" lon="6.75482">
        <ele>724.5</ele>
        <time>2022-08-17T08:46:22Z</time>
      </trkpt>
      <trkpt lat="47.85764" lon="6.75481">
        <ele>724.4</ele>
        <time>2022-08-17T08:46:23Z</time>
      </trkpt>
      <trkpt lat="47.85764" lon="6.75479">
        <ele>724.2</ele>
        <time>2022-08-17T08:46:24Z</time>
      </trkpt>
      <trkpt lat="47.85764" lon="6.75478">
        <ele>724.1</ele>
        <time>2022-08-17T08:46:25Z</time>
      </trkpt>
      <trkpt lat="47.85764" lon="6.75476">
        <ele>723.9</ele>
        <time>2022-08-17T08:46:26Z</time>
      </trkpt>
      <trkpt lat="47.85765" lon="6.75474">
        <ele>724.7</ele>
        <time>2022-08-17T08:46:27Z</time>
      </trkpt>
      <trkpt lat="47.85765" lon="6.75473">
        <ele>724.6</ele>
        <time>2022-08-17T08:46:28Z</time>
      </trkpt>
      <trkpt lat="47.85765" lon="6.75471">
        <ele>724.3</ele>
        <time>2022-08-17T08:46:29Z</time>
      </trkpt>
      <trkpt lat="47.85765" lon="6.7547">
        <ele>724.2</ele>
        <time>2022-08-17T08:46:30Z</time>
      </trkpt>
      <trkpt lat="47.85765" lon="6.75468">
        <ele>723.9</ele>
        <time>2022-08-17T08:46:31Z</time>
      </trkpt>
      <trkpt lat="47.85765" lon="6.75467">
        <ele>723.7</ele>
        <time>2022-08-17T08:46:32Z</time>
      </trkpt>
      <trkpt lat="47.85765" lon="6.75465">
        <ele>723.4</ele>
        <time>2022-08-17T08:46:33Z</time>
      </trkpt>
      <trkpt lat="47.85765" lon="6.75464">
        <ele>723.3</ele>
        <time>2022-08-17T08:46:34Z</time>
      </trkpt>
      <trkpt lat="47.85765" lon="6.75462">
        <ele>723</ele>
        <time>2022-08-17T08:46:35Z</time>
      </trkpt>
      <trkpt lat="47.85766" lon="6.75461">
        <ele>723.7</ele>
        <time>2022-08-17T08:46:36Z</time>
      </trkpt>
      <trkpt lat="47.85766" lon="6.75459">
        <ele>723.4</ele>
        <time>2022-08-17T08:46:37Z</time>
      </trkpt>
      <trkpt lat="47.85766" lon="6.75458">
        <ele>723.2</ele>
        <time>2022-08-17T08:46:38Z</time>
      </trkpt>
      <trkpt lat="47.85766" lon="6.75456">
        <ele>722.9</ele>
        <time>2022-08-17T08:46:39Z</time>
      </trkpt>
      <trkpt lat="47.85766" lon="6.75454">
        <ele>722.6</ele>
        <time>2022-08-17T08:46:40Z</time>
      </trkpt>
      <trkpt lat="47.85766" lon="6.75453">
        <ele>722.4</ele>
        <time>2022-08-17T08:46:41Z</time>
      </trkpt>
      <trkpt lat="47.85766" lon="6.75451">
        <ele>722.1</ele>
        <time>2022-08-17T08:46:42Z</time>
      </trkpt>
      <trkpt lat="47.85766" lon="6.7545">
        <ele>722</ele>
        <time>2022-08-17T08:46:43Z</time>
      </trkpt>
      <trkpt lat="47.85766" lon="6.75448">
        <ele>721.6</ele>
        <time>2022-08-17T08:46:44Z</time>
      </trkpt>
      <trkpt lat="47.85766" lon="6.75447">
        <ele>721.5</ele>
        <time>2022-08-17T08:46:45Z</time>
      </trkpt>
      <trkpt lat="47.85766" lon="6.75445">
        <ele>721.2</ele>
        <time>2022-08-17T08:46:46Z</time>
      </trkpt>
      <trkpt lat="47.85766" lon="6.75444">
        <ele>721.1</ele>
        <time>2022-08-17T08:46:47Z</time>
      </trkpt>
      <trkpt lat="47.85766" lon="6.75442">
        <ele>721</ele>
        <time>2022-08-17T08:46:48Z</time>
      </trkpt>
      <trkpt lat="47.85766" lon="6.75441">
        <ele>721</ele>
        <time>2022-08-17T08:46:49Z</time>
      </trkpt>
      <trkpt lat="47.85766" lon="6.75439">
        <ele>720.9</ele>
        <time>2022-08-17T08:46:50Z</time>
      </trkpt>
      <trkpt lat="47.85766" lon="6.75437">
        <ele>720.9</ele>
        <time>2022-08-17T08:46:51Z</time>
      </trkpt>
      <trkpt lat="47.85766" lon="6.75436">
        <ele>720.8</ele>
        <time>2022-08-17T08:46:52Z</time>
      </trkpt>
      <trkpt lat="47.85766" lon="6.75434">
        <ele>720.8</ele>
        <time>2022-08-17T08:46:53Z</time>
      </trkpt>
      <trkpt lat="47.85766" lon="6.75433">
        <ele>720.7</ele>
        <time>2022-08-17T08:46:54Z</time>
      </trkpt>
      <trkpt lat="47.85766" lon="6.75432">
        <ele>720.7</ele>
        <time>2022-08-17T08:46:55Z</time>
      </trkpt>
      <trkpt lat="47.85766" lon="6.7543">
        <ele>720.7</ele>
        <time>2022-08-17T08:46:56Z</time>
      </trkpt>
      <trkpt lat="47.85765" lon="6.75429">
        <ele>719.8</ele>
        <time>2022-08-17T08:46:57Z</time>
      </trkpt>
      <trkpt lat="47.85765" lon="6.75428">
        <ele>719.8</ele>
        <time>2022-08-17T08:46:58Z</time>
      </trkpt>
      <trkpt lat="47.85765" lon="6.75427">
        <ele>719.8</ele>
        <time>2022-08-17T08:46:59Z</time>
      </trkpt>
      <trkpt lat="47.85765" lon="6.75426">
        <ele>719.7</ele>
        <time>2022-08-17T08:47:00Z</time>
      </trkpt>
      <trkpt lat="47.85764" lon="6.75425">
        <ele>718.9</ele>
        <time>2022-08-17T08:47:01Z</time>
      </trkpt>
      <trkpt lat="47.85764" lon="6.75424">
        <ele>718.9</ele>
        <time>2022-08-17T08:47:02Z</time>
      </trkpt>
      <trkpt lat="47.85764" lon="6.75423">
        <ele>718.8</ele>
        <time>2022-08-17T08:47:03Z</time>
      </trkpt>
      <trkpt lat="47.85764" lon="6.75422">
        <ele>718.8</ele>
        <time>2022-08-17T08:47:04Z</time>
      </trkpt>
      <trkpt lat="47.85764" lon="6.75421">
        <ele>718.7</ele>
        <time>2022-08-17T08:47:05Z</time>
      </trkpt>
      <trkpt lat="47.85764" lon="6.7542">
        <ele>718.7</ele>
        <time>2022-08-17T08:47:06Z</time>
      </trkpt>
      <trkpt lat="47.85764" lon="6.75418">
        <ele>718.6</ele>
        <time>2022-08-17T08:47:07Z</time>
      </trkpt>
      <trkpt lat="47.85764" lon="6.75417">
        <ele>718.6</ele>
        <time>2022-08-17T08:47:08Z</time>
      </trkpt>
      <trkpt lat="47.85764" lon="6.75415">
        <ele>718.8</ele>
        <time>2022-08-17T08:47:09Z</time>
      </trkpt>
      <trkpt lat="47.85763" lon="6.75414">
        <ele>718.1</ele>
        <time>2022-08-17T08:47:10Z</time>
      </trkpt>
      <trkpt lat="47.85763" lon="6.75413">
        <ele>718.3</ele>
        <time>2022-08-17T08:47:11Z</time>
      </trkpt>
      <trkpt lat="47.85762" lon="6.75411">
        <ele>717.8</ele>
        <time>2022-08-17T08:47:12Z</time>
      </trkpt>
      <trkpt lat="47.85762" lon="6.7541">
        <ele>717.9</ele>
        <time>2022-08-17T08:47:13Z</time>
      </trkpt>
      <trkpt lat="47.85761" lon="6.75408">
        <ele>717.4</ele>
        <time>2022-08-17T08:47:14Z</time>
      </trkpt>
      <trkpt lat="47.8576" lon="6.75405">
        <ele>717</ele>
        <time>2022-08-17T08:47:30Z</time>
      </trkpt>
      <trkpt lat="47.85759" lon="6.75404">
        <ele>716.3</ele>
        <time>2022-08-17T08:47:32Z</time>
      </trkpt>
      <trkpt lat="47.85759" lon="6.75403">
        <ele>716.4</ele>
        <time>2022-08-17T08:47:33Z</time>
      </trkpt>
      <trkpt lat="47.85759" lon="6.75402">
        <ele>716.6</ele>
        <time>2022-08-17T08:47:34Z</time>
      </trkpt>
      <trkpt lat="47.85758" lon="6.754">
        <ele>716</ele>
        <time>2022-08-17T08:47:35Z</time>
      </trkpt>
      <trkpt lat="47.85758" lon="6.75399">
        <ele>716.2</ele>
        <time>2022-08-17T08:47:36Z</time>
      </trkpt>
      <trkpt lat="47.85758" lon="6.75397">
        <ele>716.5</ele>
        <time>2022-08-17T08:47:37Z</time>
      </trkpt>
      <trkpt lat="47.85757" lon="6.75396">
        <ele>715.8</ele>
        <time>2022-08-17T08:47:38Z</time>
      </trkpt>
      <trkpt lat="47.85757" lon="6.75394">
        <ele>716.1</ele>
        <time>2022-08-17T08:47:39Z</time>
      </trkpt>
      <trkpt lat="47.85757" lon="6.75392">
        <ele>716.3</ele>
        <time>2022-08-17T08:47:40Z</time>
      </trkpt>
      <trkpt lat="47.85756" lon="6.75391">
        <ele>715.7</ele>
        <time>2022-08-17T08:47:41Z</time>
      </trkpt>
      <trkpt lat="47.85756" lon="6.75389">
        <ele>716</ele>
        <time>2022-08-17T08:47:42Z</time>
      </trkpt>
      <trkpt lat="47.85756" lon="6.75388">
        <ele>716.1</ele>
        <time>2022-08-17T08:47:43Z</time>
      </trkpt>
      <trkpt lat="47.85756" lon="6.75386">
        <ele>716.5</ele>
        <time>2022-08-17T08:47:44Z</time>
      </trkpt>
      <trkpt lat="47.85756" lon="6.75384">
        <ele>716.8</ele>
        <time>2022-08-17T08:47:45Z</time>
      </trkpt>
      <trkpt lat="47.85756" lon="6.75383">
        <ele>717</ele>
        <time>2022-08-17T08:47:46Z</time>
      </trkpt>
      <trkpt lat="47.85756" lon="6.75381">
        <ele>717.3</ele>
        <time>2022-08-17T08:47:47Z</time>
      </trkpt>
      <trkpt lat="47.85756" lon="6.7538">
        <ele>717.5</ele>
        <time>2022-08-17T08:47:48Z</time>
      </trkpt>
      <trkpt lat="47.85755" lon="6.75379">
        <ele>716.9</ele>
        <time>2022-08-17T08:47:49Z</time>
      </trkpt>
      <trkpt lat="47.85755" lon="6.75377">
        <ele>717.2</ele>
        <time>2022-08-17T08:47:50Z</time>
      </trkpt>
      <trkpt lat="47.85755" lon="6.75376">
        <ele>717.4</ele>
        <time>2022-08-17T08:47:58Z</time>
      </trkpt>
      <trkpt lat="47.85754" lon="6.75375">
        <ele>716.7</ele>
        <time>2022-08-17T08:47:59Z</time>
      </trkpt>
      <trkpt lat="47.85754" lon="6.75374">
        <ele>716.9</ele>
        <time>2022-08-17T08:48:00Z</time>
      </trkpt>
      <trkpt lat="47.85753" lon="6.75372">
        <ele>716.5</ele>
        <time>2022-08-17T08:48:14Z</time>
      </trkpt>
      <trkpt lat="47.85753" lon="6.75371">
        <ele>716.6</ele>
        <time>2022-08-17T08:48:15Z</time>
      </trkpt>
      <trkpt lat="47.85753" lon="6.7537">
        <ele>716.8</ele>
        <time>2022-08-17T08:48:16Z</time>
      </trkpt>
      <trkpt lat="47.85753" lon="6.75368">
        <ele>717.2</ele>
        <time>2022-08-17T08:48:17Z</time>
      </trkpt>
      <trkpt lat="47.85753" lon="6.75367">
        <ele>717.3</ele>
        <time>2022-08-17T08:48:18Z</time>
      </trkpt>
      <trkpt lat="47.85753" lon="6.75366">
        <ele>717.5</ele>
        <time>2022-08-17T08:48:19Z</time>
      </trkpt>
      <trkpt lat="47.85753" lon="6.75364">
        <ele>717.9</ele>
        <time>2022-08-17T08:48:20Z</time>
      </trkpt>
      <trkpt lat="47.85753" lon="6.75363">
        <ele>718</ele>
        <time>2022-08-17T08:48:21Z</time>
      </trkpt>
      <trkpt lat="47.85752" lon="6.75361">
        <ele>717.6</ele>
        <time>2022-08-17T08:48:22Z</time>
      </trkpt>
      <trkpt lat="47.85752" lon="6.7536">
        <ele>717.5</ele>
        <time>2022-08-17T08:48:23Z</time>
      </trkpt>
      <trkpt lat="47.85752" lon="6.75358">
        <ele>717.4</ele>
        <time>2022-08-17T08:48:24Z</time>
      </trkpt>
      <trkpt lat="47.85752" lon="6.75357">
        <ele>717.4</ele>
        <time>2022-08-17T08:48:25Z</time>
      </trkpt>
      <trkpt lat="47.85752" lon="6.75355">
        <ele>717.3</ele>
        <time>2022-08-17T08:48:26Z</time>
      </trkpt>
      <trkpt lat="47.85752" lon="6.75353">
        <ele>717.2</ele>
        <time>2022-08-17T08:48:27Z</time>
      </trkpt>
      <trkpt lat="47.85752" lon="6.75352">
        <ele>717.2</ele>
        <time>2022-08-17T08:48:28Z</time>
      </trkpt>
      <trkpt lat="47.85752" lon="6.7535">
        <ele>717.1</ele>
        <time>2022-08-17T08:48:29Z</time>
      </trkpt>
      <trkpt lat="47.85752" lon="6.75348">
        <ele>717</ele>
        <time>2022-08-17T08:48:30Z</time>
      </trkpt>
      <trkpt lat="47.85752" lon="6.75347">
        <ele>717</ele>
        <time>2022-08-17T08:48:31Z</time>
      </trkpt>
      <trkpt lat="47.85752" lon="6.75345">
        <ele>716.9</ele>
        <time>2022-08-17T08:48:32Z</time>
      </trkpt>
      <trkpt lat="47.85752" lon="6.75344">
        <ele>716.8</ele>
        <time>2022-08-17T08:48:33Z</time>
      </trkpt>
      <trkpt lat="47.85752" lon="6.75342">
        <ele>716.7</ele>
        <time>2022-08-17T08:48:34Z</time>
      </trkpt>
      <trkpt lat="47.85751" lon="6.75341">
        <ele>716</ele>
        <time>2022-08-17T08:48:35Z</time>
      </trkpt>
      <trkpt lat="47.85751" lon="6.75339">
        <ele>715.9</ele>
        <time>2022-08-17T08:48:36Z</time>
      </trkpt>
      <trkpt lat="47.85751" lon="6.75338">
        <ele>715.9</ele>
        <time>2022-08-17T08:48:37Z</time>
      </trkpt>
      <trkpt lat="47.85751" lon="6.75336">
        <ele>715.8</ele>
        <time>2022-08-17T08:48:38Z</time>
      </trkpt>
      <trkpt lat="47.8575" lon="6.75334">
        <ele>715</ele>
        <time>2022-08-17T08:49:12Z</time>
      </trkpt>
      <trkpt lat="47.8575" lon="6.75333">
        <ele>715</ele>
        <time>2022-08-17T08:49:14Z</time>
      </trkpt>
      <trkpt lat="47.8575" lon="6.75332">
        <ele>714.9</ele>
        <time>2022-08-17T08:49:15Z</time>
      </trkpt>
      <trkpt lat="47.8575" lon="6.75331">
        <ele>714.7</ele>
        <time>2022-08-17T08:49:16Z</time>
      </trkpt>
      <trkpt lat="47.8575" lon="6.7533">
        <ele>714.6</ele>
        <time>2022-08-17T08:49:17Z</time>
      </trkpt>
      <trkpt lat="47.8575" lon="6.75329">
        <ele>714.5</ele>
        <time>2022-08-17T08:49:18Z</time>
      </trkpt>
      <trkpt lat="47.8575" lon="6.75327">
        <ele>714.3</ele>
        <time>2022-08-17T08:49:19Z</time>
      </trkpt>
      <trkpt lat="47.8575" lon="6.75325">
        <ele>714.1</ele>
        <time>2022-08-17T08:49:20Z</time>
      </trkpt>
      <trkpt lat="47.8575" lon="6.75323">
        <ele>713.9</ele>
        <time>2022-08-17T08:49:21Z</time>
      </trkpt>
      <trkpt lat="47.85751" lon="6.75322">
        <ele>714.4</ele>
        <time>2022-08-17T08:49:22Z</time>
      </trkpt>
      <trkpt lat="47.85751" lon="6.7532">
        <ele>714.2</ele>
        <time>2022-08-17T08:49:23Z</time>
      </trkpt>
      <trkpt lat="47.85751" lon="6.75319">
        <ele>714.1</ele>
        <time>2022-08-17T08:49:24Z</time>
      </trkpt>
      <trkpt lat="47.85752" lon="6.75317">
        <ele>714.4</ele>
        <time>2022-08-17T08:49:25Z</time>
      </trkpt>
      <trkpt lat="47.85752" lon="6.75315">
        <ele>714.2</ele>
        <time>2022-08-17T08:49:26Z</time>
      </trkpt>
      <trkpt lat="47.85753" lon="6.75314">
        <ele>714.7</ele>
        <time>2022-08-17T08:49:27Z</time>
      </trkpt>
      <trkpt lat="47.85753" lon="6.75312">
        <ele>714.4</ele>
        <time>2022-08-17T08:49:28Z</time>
      </trkpt>
      <trkpt lat="47.85754" lon="6.75311">
        <ele>714.9</ele>
        <time>2022-08-17T08:49:29Z</time>
      </trkpt>
      <trkpt lat="47.85754" lon="6.75309">
        <ele>714.6</ele>
        <time>2022-08-17T08:49:30Z</time>
      </trkpt>
      <trkpt lat="47.85755" lon="6.75308">
        <ele>715</ele>
        <time>2022-08-17T08:49:31Z</time>
      </trkpt>
      <trkpt lat="47.85755" lon="6.75306">
        <ele>714.8</ele>
        <time>2022-08-17T08:49:32Z</time>
      </trkpt>
      <trkpt lat="47.85756" lon="6.75305">
        <ele>715.1</ele>
        <time>2022-08-17T08:49:33Z</time>
      </trkpt>
      <trkpt lat="47.85756" lon="6.75303">
        <ele>714.6</ele>
        <time>2022-08-17T08:49:34Z</time>
      </trkpt>
      <trkpt lat="47.85757" lon="6.75302">
        <ele>714.8</ele>
        <time>2022-08-17T08:49:35Z</time>
      </trkpt>
      <trkpt lat="47.85757" lon="6.753">
        <ele>714.3</ele>
        <time>2022-08-17T08:49:36Z</time>
      </trkpt>
      <trkpt lat="47.85758" lon="6.75299">
        <ele>714.5</ele>
        <time>2022-08-17T08:49:37Z</time>
      </trkpt>
      <trkpt lat="47.85758" lon="6.75298">
        <ele>714.2</ele>
        <time>2022-08-17T08:49:38Z</time>
      </trkpt>
      <trkpt lat="47.85759" lon="6.75296">
        <ele>714.1</ele>
        <time>2022-08-17T08:49:39Z</time>
      </trkpt>
      <trkpt lat="47.85759" lon="6.75295">
        <ele>713.8</ele>
        <time>2022-08-17T08:49:40Z</time>
      </trkpt>
      <trkpt lat="47.8576" lon="6.75294">
        <ele>714</ele>
        <time>2022-08-17T08:49:41Z</time>
      </trkpt>
      <trkpt lat="47.85761" lon="6.75293">
        <ele>714.2</ele>
        <time>2022-08-17T08:49:42Z</time>
      </trkpt>
      <trkpt lat="47.85762" lon="6.75292">
        <ele>714.3</ele>
        <time>2022-08-17T08:49:43Z</time>
      </trkpt>
      <trkpt lat="47.85762" lon="6.75291">
        <ele>714</ele>
        <time>2022-08-17T08:49:44Z</time>
      </trkpt>
      <trkpt lat="47.85763" lon="6.75289">
        <ele>713.8</ele>
        <time>2022-08-17T08:49:45Z</time>
      </trkpt>
      <trkpt lat="47.85764" lon="6.75288">
        <ele>713.9</ele>
        <time>2022-08-17T08:49:46Z</time>
      </trkpt>
      <trkpt lat="47.85765" lon="6.75287">
        <ele>713.9</ele>
        <time>2022-08-17T08:49:47Z</time>
      </trkpt>
      <trkpt lat="47.85766" lon="6.75286">
        <ele>714</ele>
        <time>2022-08-17T08:49:48Z</time>
      </trkpt>
      <trkpt lat="47.85767" lon="6.75285">
        <ele>714</ele>
        <time>2022-08-17T08:49:49Z</time>
      </trkpt>
      <trkpt lat="47.85767" lon="6.75284">
        <ele>713.7</ele>
        <time>2022-08-17T08:49:50Z</time>
      </trkpt>
      <trkpt lat="47.85768" lon="6.75283">
        <ele>713.7</ele>
        <time>2022-08-17T08:49:51Z</time>
      </trkpt>
      <trkpt lat="47.85769" lon="6.75282">
        <ele>713.7</ele>
        <time>2022-08-17T08:49:52Z</time>
      </trkpt>
      <trkpt lat="47.8577" lon="6.75281">
        <ele>713.7</ele>
        <time>2022-08-17T08:49:53Z</time>
      </trkpt>
      <trkpt lat="47.85771" lon="6.7528">
        <ele>713.6</ele>
        <time>2022-08-17T08:49:54Z</time>
      </trkpt>
      <trkpt lat="47.85772" lon="6.75279">
        <ele>713.6</ele>
        <time>2022-08-17T08:49:55Z</time>
      </trkpt>
      <trkpt lat="47.85773" lon="6.75278">
        <ele>713.5</ele>
        <time>2022-08-17T08:49:56Z</time>
      </trkpt>
      <trkpt lat="47.85774" lon="6.75277">
        <ele>713.5</ele>
        <time>2022-08-17T08:49:57Z</time>
      </trkpt>
      <trkpt lat="47.85775" lon="6.75276">
        <ele>713.5</ele>
        <time>2022-08-17T08:49:58Z</time>
      </trkpt>
      <trkpt lat="47.85776" lon="6.75275">
        <ele>713.5</ele>
        <time>2022-08-17T08:49:59Z</time>
      </trkpt>
      <trkpt lat="47.85777" lon="6.75274">
        <ele>713.5</ele>
        <time>2022-08-17T08:50:00Z</time>
      </trkpt>
      <trkpt lat="47.85778" lon="6.75273">
        <ele>713.6</ele>
        <time>2022-08-17T08:50:01Z</time>
      </trkpt>
      <trkpt lat="47.85778" lon="6.75272">
        <ele>713.2</ele>
        <time>2022-08-17T08:50:02Z</time>
      </trkpt>
      <trkpt lat="47.85779" lon="6.7527">
        <ele>713</ele>
        <time>2022-08-17T08:50:03Z</time>
      </trkpt>
      <trkpt lat="47.8578" lon="6.75269">
        <ele>713.1</ele>
        <time>2022-08-17T08:50:04Z</time>
      </trkpt>
      <trkpt lat="47.85781" lon="6.75268">
        <ele>713.3</ele>
        <time>2022-08-17T08:50:05Z</time>
      </trkpt>
      <trkpt lat="47.85782" lon="6.75267">
        <ele>713.4</ele>
        <time>2022-08-17T08:50:06Z</time>
      </trkpt>
      <trkpt lat="47.85783" lon="6.75266">
        <ele>713.5</ele>
        <time>2022-08-17T08:50:07Z</time>
      </trkpt>
      <trkpt lat="47.85784" lon="6.75265">
        <ele>713.6</ele>
        <time>2022-08-17T08:50:08Z</time>
      </trkpt>
      <trkpt lat="47.85785" lon="6.75264">
        <ele>713.7</ele>
        <time>2022-08-17T08:50:09Z</time>
      </trkpt>
      <trkpt lat="47.85786" lon="6.75263">
        <ele>713.7</ele>
        <time>2022-08-17T08:50:10Z</time>
      </trkpt>
      <trkpt lat="47.85787" lon="6.75262">
        <ele>713.8</ele>
        <time>2022-08-17T08:50:11Z</time>
      </trkpt>
      <trkpt lat="47.85788" lon="6.7526">
        <ele>713.6</ele>
        <time>2022-08-17T08:50:12Z</time>
      </trkpt>
      <trkpt lat="47.85788" lon="6.75259">
        <ele>713.2</ele>
        <time>2022-08-17T08:50:13Z</time>
      </trkpt>
      <trkpt lat="47.85789" lon="6.75258">
        <ele>713.3</ele>
        <time>2022-08-17T08:50:14Z</time>
      </trkpt>
      <trkpt lat="47.8579" lon="6.75257">
        <ele>713.3</ele>
        <time>2022-08-17T08:50:15Z</time>
      </trkpt>
      <trkpt lat="47.8579" lon="6.75256">
        <ele>713</ele>
        <time>2022-08-17T08:50:16Z</time>
      </trkpt>
      <trkpt lat="47.85791" lon="6.75255">
        <ele>713</ele>
        <time>2022-08-17T08:50:17Z</time>
      </trkpt>
      <trkpt lat="47.85792" lon="6.75254">
        <ele>713.1</ele>
        <time>2022-08-17T08:50:18Z</time>
      </trkpt>
      <trkpt lat="47.85793" lon="6.75253">
        <ele>713.1</ele>
        <time>2022-08-17T08:50:19Z</time>
      </trkpt>
      <trkpt lat="47.85793" lon="6.75252">
        <ele>712.8</ele>
        <time>2022-08-17T08:50:20Z</time>
      </trkpt>
      <trkpt lat="47.85794" lon="6.7525">
        <ele>712.4</ele>
        <time>2022-08-17T08:50:21Z</time>
      </trkpt>
      <trkpt lat="47.85795" lon="6.75249">
        <ele>712.6</ele>
        <time>2022-08-17T08:50:22Z</time>
      </trkpt>
      <trkpt lat="47.85796" lon="6.75248">
        <ele>712.7</ele>
        <time>2022-08-17T08:50:23Z</time>
      </trkpt>
      <trkpt lat="47.85797" lon="6.75247">
        <ele>712.9</ele>
        <time>2022-08-17T08:50:24Z</time>
      </trkpt>
      <trkpt lat="47.85797" lon="6.75246">
        <ele>712.7</ele>
        <time>2022-08-17T08:50:25Z</time>
      </trkpt>
      <trkpt lat="47.85798" lon="6.75245">
        <ele>712.8</ele>
        <time>2022-08-17T08:50:26Z</time>
      </trkpt>
      <trkpt lat="47.85799" lon="6.75244">
        <ele>713</ele>
        <time>2022-08-17T08:50:27Z</time>
      </trkpt>
      <trkpt lat="47.85799" lon="6.75243">
        <ele>712.8</ele>
        <time>2022-08-17T08:50:28Z</time>
      </trkpt>
      <trkpt lat="47.858" lon="6.75242">
        <ele>713</ele>
        <time>2022-08-17T08:50:29Z</time>
      </trkpt>
      <trkpt lat="47.85801" lon="6.75241">
        <ele>713.1</ele>
        <time>2022-08-17T08:50:30Z</time>
      </trkpt>
      <trkpt lat="47.85801" lon="6.75239">
        <ele>712.7</ele>
        <time>2022-08-17T08:50:31Z</time>
      </trkpt>
      <trkpt lat="47.85802" lon="6.75238">
        <ele>712.9</ele>
        <time>2022-08-17T08:50:32Z</time>
      </trkpt>
      <trkpt lat="47.85802" lon="6.75237">
        <ele>712.7</ele>
        <time>2022-08-17T08:50:33Z</time>
      </trkpt>
      <trkpt lat="47.85803" lon="6.75235">
        <ele>712.6</ele>
        <time>2022-08-17T08:50:34Z</time>
      </trkpt>
      <trkpt lat="47.85803" lon="6.75234">
        <ele>712.4</ele>
        <time>2022-08-17T08:50:35Z</time>
      </trkpt>
      <trkpt lat="47.85804" lon="6.75232">
        <ele>712.4</ele>
        <time>2022-08-17T08:50:36Z</time>
      </trkpt>
      <trkpt lat="47.85804" lon="6.7523">
        <ele>712</ele>
        <time>2022-08-17T08:50:37Z</time>
      </trkpt>
      <trkpt lat="47.85804" lon="6.75229">
        <ele>711.8</ele>
        <time>2022-08-17T08:50:38Z</time>
      </trkpt>
      <trkpt lat="47.85805" lon="6.75227">
        <ele>711.8</ele>
        <time>2022-08-17T08:50:39Z</time>
      </trkpt>
      <trkpt lat="47.85805" lon="6.75226">
        <ele>711.6</ele>
        <time>2022-08-17T08:50:40Z</time>
      </trkpt>
      <trkpt lat="47.85805" lon="6.75224">
        <ele>711.1</ele>
        <time>2022-08-17T08:50:41Z</time>
      </trkpt>
      <trkpt lat="47.85806" lon="6.75223">
        <ele>711.4</ele>
        <time>2022-08-17T08:50:42Z</time>
      </trkpt>
      <trkpt lat="47.85806" lon="6.75221">
        <ele>711.1</ele>
        <time>2022-08-17T08:50:43Z</time>
      </trkpt>
      <trkpt lat="47.85807" lon="6.7522">
        <ele>711.5</ele>
        <time>2022-08-17T08:50:44Z</time>
      </trkpt>
      <trkpt lat="47.85807" lon="6.75218">
        <ele>711.1</ele>
        <time>2022-08-17T08:50:45Z</time>
      </trkpt>
      <trkpt lat="47.85808" lon="6.75217">
        <ele>711.5</ele>
        <time>2022-08-17T08:50:46Z</time>
      </trkpt>
      <trkpt lat="47.85808" lon="6.75215">
        <ele>711.1</ele>
        <time>2022-08-17T08:50:47Z</time>
      </trkpt>
      <trkpt lat="47.85809" lon="6.75214">
        <ele>711.4</ele>
        <time>2022-08-17T08:50:48Z</time>
      </trkpt>
      <trkpt lat="47.85809" lon="6.75212">
        <ele>711.1</ele>
        <time>2022-08-17T08:50:49Z</time>
      </trkpt>
      <trkpt lat="47.8581" lon="6.75211">
        <ele>711.3</ele>
        <time>2022-08-17T08:50:50Z</time>
      </trkpt>
      <trkpt lat="47.85811" lon="6.7521">
        <ele>711.5</ele>
        <time>2022-08-17T08:50:51Z</time>
      </trkpt>
      <trkpt lat="47.85812" lon="6.75208">
        <ele>711.5</ele>
        <time>2022-08-17T08:50:52Z</time>
      </trkpt>
      <trkpt lat="47.85812" lon="6.75207">
        <ele>711.2</ele>
        <time>2022-08-17T08:50:53Z</time>
      </trkpt>
      <trkpt lat="47.85813" lon="6.75206">
        <ele>711.4</ele>
        <time>2022-08-17T08:50:54Z</time>
      </trkpt>
      <trkpt lat="47.85814" lon="6.75205">
        <ele>711.5</ele>
        <time>2022-08-17T08:50:55Z</time>
      </trkpt>
      <trkpt lat="47.85815" lon="6.75203">
        <ele>711.3</ele>
        <time>2022-08-17T08:50:56Z</time>
      </trkpt>
      <trkpt lat="47.85816" lon="6.75202">
        <ele>711.4</ele>
        <time>2022-08-17T08:50:57Z</time>
      </trkpt>
      <trkpt lat="47.85816" lon="6.75201">
        <ele>711.1</ele>
        <time>2022-08-17T08:50:58Z</time>
      </trkpt>
      <trkpt lat="47.85817" lon="6.752">
        <ele>711.1</ele>
        <time>2022-08-17T08:50:59Z</time>
      </trkpt>
      <trkpt lat="47.85818" lon="6.75199">
        <ele>711.1</ele>
        <time>2022-08-17T08:51:00Z</time>
      </trkpt>
      <trkpt lat="47.85819" lon="6.75198">
        <ele>711</ele>
        <time>2022-08-17T08:51:01Z</time>
      </trkpt>
      <trkpt lat="47.8582" lon="6.75197">
        <ele>711</ele>
        <time>2022-08-17T08:51:02Z</time>
      </trkpt>
      <trkpt lat="47.8582" lon="6.75196">
        <ele>710.6</ele>
        <time>2022-08-17T08:51:03Z</time>
      </trkpt>
      <trkpt lat="47.85821" lon="6.75195">
        <ele>710.5</ele>
        <time>2022-08-17T08:51:04Z</time>
      </trkpt>
      <trkpt lat="47.85822" lon="6.75194">
        <ele>710.5</ele>
        <time>2022-08-17T08:51:05Z</time>
      </trkpt>
      <trkpt lat="47.85823" lon="6.75191">
        <ele>710.1</ele>
        <time>2022-08-17T08:51:18Z</time>
      </trkpt>
      <trkpt lat="47.85823" lon="6.7519">
        <ele>709.9</ele>
        <time>2022-08-17T08:51:19Z</time>
      </trkpt>
      <trkpt lat="47.85823" lon="6.75189">
        <ele>709.8</ele>
        <time>2022-08-17T08:51:20Z</time>
      </trkpt>
      <trkpt lat="47.85823" lon="6.75188">
        <ele>709.6</ele>
        <time>2022-08-17T08:51:21Z</time>
      </trkpt>
      <trkpt lat="47.85824" lon="6.75187">
        <ele>709.6</ele>
        <time>2022-08-17T08:51:23Z</time>
      </trkpt>
      <trkpt lat="47.85825" lon="6.75186">
        <ele>709.7</ele>
        <time>2022-08-17T08:51:24Z</time>
      </trkpt>
      <trkpt lat="47.85826" lon="6.75185">
        <ele>709.8</ele>
        <time>2022-08-17T08:51:25Z</time>
      </trkpt>
      <trkpt lat="47.85827" lon="6.75185">
        <ele>710</ele>
        <time>2022-08-17T08:51:26Z</time>
      </trkpt>
      <trkpt lat="47.85828" lon="6.75184">
        <ele>710.1</ele>
        <time>2022-08-17T08:51:27Z</time>
      </trkpt>
      <trkpt lat="47.85829" lon="6.75183">
        <ele>710.2</ele>
        <time>2022-08-17T08:51:28Z</time>
      </trkpt>
      <trkpt lat="47.8583" lon="6.75182">
        <ele>710.3</ele>
        <time>2022-08-17T08:51:29Z</time>
      </trkpt>
      <trkpt lat="47.85831" lon="6.75182">
        <ele>710.6</ele>
        <time>2022-08-17T08:51:30Z</time>
      </trkpt>
      <trkpt lat="47.85831" lon="6.75181">
        <ele>710.4</ele>
        <time>2022-08-17T08:51:31Z</time>
      </trkpt>
      <trkpt lat="47.85832" lon="6.7518">
        <ele>710.6</ele>
        <time>2022-08-17T08:51:32Z</time>
      </trkpt>
      <trkpt lat="47.85833" lon="6.75179">
        <ele>710.7</ele>
        <time>2022-08-17T08:51:33Z</time>
      </trkpt>
      <trkpt lat="47.85833" lon="6.75178">
        <ele>710.5</ele>
        <time>2022-08-17T08:51:34Z</time>
      </trkpt>
      <trkpt lat="47.85834" lon="6.75178">
        <ele>710.8</ele>
        <time>2022-08-17T08:51:35Z</time>
      </trkpt>
      <trkpt lat="47.85835" lon="6.75177">
        <ele>711</ele>
        <time>2022-08-17T08:51:36Z</time>
      </trkpt>
      <trkpt lat="47.85836" lon="6.75176">
        <ele>711.2</ele>
        <time>2022-08-17T08:51:37Z</time>
      </trkpt>
      <trkpt lat="47.85837" lon="6.75176">
        <ele>711.5</ele>
        <time>2022-08-17T08:51:38Z</time>
      </trkpt>
      <trkpt lat="47.85837" lon="6.75175">
        <ele>711.3</ele>
        <time>2022-08-17T08:51:39Z</time>
      </trkpt>
      <trkpt lat="47.85838" lon="6.75174">
        <ele>711.5</ele>
        <time>2022-08-17T08:51:40Z</time>
      </trkpt>
      <trkpt lat="47.85839" lon="6.75174">
        <ele>711.8</ele>
        <time>2022-08-17T08:51:41Z</time>
      </trkpt>
      <trkpt lat="47.8584" lon="6.75173">
        <ele>711.9</ele>
        <time>2022-08-17T08:51:42Z</time>
      </trkpt>
      <trkpt lat="47.85841" lon="6.75172">
        <ele>712.1</ele>
        <time>2022-08-17T08:51:43Z</time>
      </trkpt>
      <trkpt lat="47.85842" lon="6.75172">
        <ele>712.4</ele>
        <time>2022-08-17T08:51:44Z</time>
      </trkpt>
      <trkpt lat="47.85843" lon="6.75171">
        <ele>712.5</ele>
        <time>2022-08-17T08:51:45Z</time>
      </trkpt>
      <trkpt lat="47.85844" lon="6.75171">
        <ele>712.8</ele>
        <time>2022-08-17T08:51:46Z</time>
      </trkpt>
      <trkpt lat="47.85845" lon="6.7517">
        <ele>712.9</ele>
        <time>2022-08-17T08:51:47Z</time>
      </trkpt>
      <trkpt lat="47.85846" lon="6.75169">
        <ele>713.1</ele>
        <time>2022-08-17T08:51:48Z</time>
      </trkpt>
      <trkpt lat="47.85847" lon="6.75168">
        <ele>713.2</ele>
        <time>2022-08-17T08:51:50Z</time>
      </trkpt>
      <trkpt lat="47.85848" lon="6.75167">
        <ele>713.3</ele>
        <time>2022-08-17T08:51:51Z</time>
      </trkpt>
      <trkpt lat="47.85849" lon="6.75166">
        <ele>713.7</ele>
        <time>2022-08-17T08:51:53Z</time>
      </trkpt>
      <trkpt lat="47.8585" lon="6.75166">
        <ele>714</ele>
        <time>2022-08-17T08:52:19Z</time>
      </trkpt>
      <trkpt lat="47.85851" lon="6.75166">
        <ele>714.3</ele>
        <time>2022-08-17T08:52:20Z</time>
      </trkpt>
      <trkpt lat="47.85852" lon="6.75167">
        <ele>714.4</ele>
        <time>2022-08-17T08:52:23Z</time>
      </trkpt>
      <trkpt lat="47.85852" lon="6.75168">
        <ele>714.6</ele>
        <time>2022-08-17T08:52:26Z</time>
      </trkpt>
      <trkpt lat="47.85853" lon="6.75168">
        <ele>714.9</ele>
        <time>2022-08-17T08:52:27Z</time>
      </trkpt>
      <trkpt lat="47.85854" lon="6.75168">
        <ele>715.2</ele>
        <time>2022-08-17T08:52:28Z</time>
      </trkpt>
      <trkpt lat="47.85855" lon="6.75167">
        <ele>715.3</ele>
        <time>2022-08-17T08:52:30Z</time>
      </trkpt>
      <trkpt lat="47.85857" lon="6.75167">
        <ele>715.9</ele>
        <time>2022-08-17T08:52:31Z</time>
      </trkpt>
      <trkpt lat="47.85858" lon="6.75167">
        <ele>716.2</ele>
        <time>2022-08-17T08:52:32Z</time>
      </trkpt>
      <trkpt lat="47.85859" lon="6.75167">
        <ele>716.5</ele>
        <time>2022-08-17T08:52:33Z</time>
      </trkpt>
      <trkpt lat="47.85861" lon="6.75168">
        <ele>717.3</ele>
        <time>2022-08-17T08:52:34Z</time>
      </trkpt>
      <trkpt lat="47.85862" lon="6.75168">
        <ele>717.4</ele>
        <time>2022-08-17T08:52:35Z</time>
      </trkpt>
      <trkpt lat="47.85863" lon="6.75169">
        <ele>717.8</ele>
        <time>2022-08-17T08:52:36Z</time>
      </trkpt>
      <trkpt lat="47.85864" lon="6.75169">
        <ele>718</ele>
        <time>2022-08-17T08:52:37Z</time>
      </trkpt>
      <trkpt lat="47.85865" lon="6.75169">
        <ele>718.2</ele>
        <time>2022-08-17T08:52:38Z</time>
      </trkpt>
      <trkpt lat="47.85866" lon="6.7517">
        <ele>718.6</ele>
        <time>2022-08-17T08:52:39Z</time>
      </trkpt>
      <trkpt lat="47.85867" lon="6.7517">
        <ele>718.8</ele>
        <time>2022-08-17T08:52:40Z</time>
      </trkpt>
      <trkpt lat="47.85868" lon="6.7517">
        <ele>719</ele>
        <time>2022-08-17T08:52:41Z</time>
      </trkpt>
      <trkpt lat="47.85869" lon="6.7517">
        <ele>719.2</ele>
        <time>2022-08-17T08:52:42Z</time>
      </trkpt>
      <trkpt lat="47.8587" lon="6.7517">
        <ele>719.4</ele>
        <time>2022-08-17T08:52:43Z</time>
      </trkpt>
      <trkpt lat="47.85871" lon="6.7517">
        <ele>719.5</ele>
        <time>2022-08-17T08:52:44Z</time>
      </trkpt>
      <trkpt lat="47.85872" lon="6.7517">
        <ele>719.7</ele>
        <time>2022-08-17T08:52:45Z</time>
      </trkpt>
      <trkpt lat="47.85873" lon="6.7517">
        <ele>719.9</ele>
        <time>2022-08-17T08:52:46Z</time>
      </trkpt>
      <trkpt lat="47.85874" lon="6.7517">
        <ele>720.1</ele>
        <time>2022-08-17T08:52:47Z</time>
      </trkpt>
      <trkpt lat="47.85875" lon="6.7517">
        <ele>720.3</ele>
        <time>2022-08-17T08:52:48Z</time>
      </trkpt>
      <trkpt lat="47.85876" lon="6.7517">
        <ele>720.5</ele>
        <time>2022-08-17T08:52:49Z</time>
      </trkpt>
      <trkpt lat="47.85877" lon="6.7517">
        <ele>720.6</ele>
        <time>2022-08-17T08:52:50Z</time>
      </trkpt>
      <trkpt lat="47.85878" lon="6.7517">
        <ele>720.8</ele>
        <time>2022-08-17T08:52:51Z</time>
      </trkpt>
      <trkpt lat="47.85879" lon="6.7517">
        <ele>721</ele>
        <time>2022-08-17T08:52:52Z</time>
      </trkpt>
      <trkpt lat="47.8588" lon="6.75171">
        <ele>721.4</ele>
        <time>2022-08-17T08:52:53Z</time>
      </trkpt>
      <trkpt lat="47.85881" lon="6.75171">
        <ele>721.6</ele>
        <time>2022-08-17T08:52:54Z</time>
      </trkpt>
      <trkpt lat="47.85882" lon="6.75171">
        <ele>721.8</ele>
        <time>2022-08-17T08:52:55Z</time>
      </trkpt>
      <trkpt lat="47.85884" lon="6.75171">
        <ele>722.2</ele>
        <time>2022-08-17T08:52:56Z</time>
      </trkpt>
      <trkpt lat="47.85885" lon="6.75171">
        <ele>722.4</ele>
        <time>2022-08-17T08:52:57Z</time>
      </trkpt>
      <trkpt lat="47.85886" lon="6.75171">
        <ele>722.6</ele>
        <time>2022-08-17T08:52:58Z</time>
      </trkpt>
      <trkpt lat="47.85887" lon="6.75171">
        <ele>722.7</ele>
        <time>2022-08-17T08:52:59Z</time>
      </trkpt>
      <trkpt lat="47.85888" lon="6.75171">
        <ele>722.9</ele>
        <time>2022-08-17T08:53:00Z</time>
      </trkpt>
      <trkpt lat="47.8589" lon="6.75171">
        <ele>723.1</ele>
        <time>2022-08-17T08:53:01Z</time>
      </trkpt>
      <trkpt lat="47.85891" lon="6.75171">
        <ele>723.1</ele>
        <time>2022-08-17T08:53:02Z</time>
      </trkpt>
      <trkpt lat="47.85892" lon="6.75171">
        <ele>723.1</ele>
        <time>2022-08-17T08:53:03Z</time>
      </trkpt>
      <trkpt lat="47.85893" lon="6.75171">
        <ele>723.1</ele>
        <time>2022-08-17T08:53:04Z</time>
      </trkpt>
      <trkpt lat="47.85895" lon="6.75172">
        <ele>723.3</ele>
        <time>2022-08-17T08:53:05Z</time>
      </trkpt>
      <trkpt lat="47.85896" lon="6.75172">
        <ele>723.3</ele>
        <time>2022-08-17T08:53:07Z</time>
      </trkpt>
      <trkpt lat="47.85897" lon="6.75172">
        <ele>723.3</ele>
        <time>2022-08-17T08:53:09Z</time>
      </trkpt>
      <trkpt lat="47.85898" lon="6.75172">
        <ele>723.3</ele>
        <time>2022-08-17T08:53:10Z</time>
      </trkpt>
      <trkpt lat="47.85899" lon="6.75172">
        <ele>723.3</ele>
        <time>2022-08-17T08:53:11Z</time>
      </trkpt>
      <trkpt lat="47.859" lon="6.75172">
        <ele>723.3</ele>
        <time>2022-08-17T08:53:12Z</time>
      </trkpt>
      <trkpt lat="47.85901" lon="6.75172">
        <ele>723.3</ele>
        <time>2022-08-17T08:53:13Z</time>
      </trkpt>
      <trkpt lat="47.85902" lon="6.75172">
        <ele>723.3</ele>
        <time>2022-08-17T08:53:14Z</time>
      </trkpt>
      <trkpt lat="47.85905" lon="6.75172">
        <ele>723.3</ele>
        <time>2022-08-17T08:53:29Z</time>
      </trkpt>
      <trkpt lat="47.85906" lon="6.75171">
        <ele>723.1</ele>
        <time>2022-08-17T08:53:30Z</time>
      </trkpt>
      <trkpt lat="47.85907" lon="6.75171">
        <ele>723.1</ele>
        <time>2022-08-17T08:53:31Z</time>
      </trkpt>
      <trkpt lat="47.85908" lon="6.75171">
        <ele>723.1</ele>
        <time>2022-08-17T08:53:32Z</time>
      </trkpt>
      <trkpt lat="47.85909" lon="6.75171">
        <ele>723.1</ele>
        <time>2022-08-17T08:53:34Z</time>
      </trkpt>
      <trkpt lat="47.8591" lon="6.75171">
        <ele>723.1</ele>
        <time>2022-08-17T08:53:35Z</time>
      </trkpt>
      <trkpt lat="47.85911" lon="6.75171">
        <ele>723.1</ele>
        <time>2022-08-17T08:53:36Z</time>
      </trkpt>
      <trkpt lat="47.85912" lon="6.75171">
        <ele>723.1</ele>
        <time>2022-08-17T08:53:37Z</time>
      </trkpt>
      <trkpt lat="47.85914" lon="6.75171">
        <ele>723.1</ele>
        <time>2022-08-17T08:53:43Z</time>
      </trkpt>
      <trkpt lat="47.85915" lon="6.75171">
        <ele>723.1</ele>
        <time>2022-08-17T08:53:44Z</time>
      </trkpt>
      <trkpt lat="47.85916" lon="6.75171">
        <ele>723.1</ele>
        <time>2022-08-17T08:53:46Z</time>
      </trkpt>
      <trkpt lat="47.85917" lon="6.75171">
        <ele>723</ele>
        <time>2022-08-17T08:53:47Z</time>
      </trkpt>
      <trkpt lat="47.85918" lon="6.75171">
        <ele>722.5</ele>
        <time>2022-08-17T08:53:49Z</time>
      </trkpt>
      <trkpt lat="47.85919" lon="6.75171">
        <ele>722.1</ele>
        <time>2022-08-17T08:53:51Z</time>
      </trkpt>
      <trkpt lat="47.85919" lon="6.75172">
        <ele>722.3</ele>
        <time>2022-08-17T08:53:52Z</time>
      </trkpt>
      <trkpt lat="47.8592" lon="6.75172">
        <ele>721.9</ele>
        <time>2022-08-17T08:53:53Z</time>
      </trkpt>
      <trkpt lat="47.85921" lon="6.75173">
        <ele>721.7</ele>
        <time>2022-08-17T08:53:54Z</time>
      </trkpt>
      <trkpt lat="47.85922" lon="6.75174">
        <ele>721.5</ele>
        <time>2022-08-17T08:53:56Z</time>
      </trkpt>
      <trkpt lat="47.85923" lon="6.75175">
        <ele>721.3</ele>
        <time>2022-08-17T08:53:57Z</time>
      </trkpt>
      <trkpt lat="47.85924" lon="6.75175">
        <ele>720.8</ele>
        <time>2022-08-17T08:53:58Z</time>
      </trkpt>
      <trkpt lat="47.85924" lon="6.75176">
        <ele>721</ele>
        <time>2022-08-17T08:53:59Z</time>
      </trkpt>
      <trkpt lat="47.85925" lon="6.75176">
        <ele>720.5</ele>
        <time>2022-08-17T08:54:00Z</time>
      </trkpt>
      <trkpt lat="47.85926" lon="6.75177">
        <ele>720.3</ele>
        <time>2022-08-17T08:54:01Z</time>
      </trkpt>
      <trkpt lat="47.85927" lon="6.75177">
        <ele>719.8</ele>
        <time>2022-08-17T08:54:02Z</time>
      </trkpt>
      <trkpt lat="47.85928" lon="6.75177">
        <ele>719.4</ele>
        <time>2022-08-17T08:54:04Z</time>
      </trkpt>
      <trkpt lat="47.85929" lon="6.75177">
        <ele>718.9</ele>
        <time>2022-08-17T08:54:05Z</time>
      </trkpt>
      <trkpt lat="47.85934" lon="6.75177">
        <ele>716.6</ele>
        <time>2022-08-17T08:59:04Z</time>
      </trkpt>
      <trkpt lat="47.85937" lon="6.75176">
        <ele>715.1</ele>
        <time>2022-08-17T08:59:05Z</time>
      </trkpt>
      <trkpt lat="47.8594" lon="6.75176">
        <ele>713.7</ele>
        <time>2022-08-17T08:59:06Z</time>
      </trkpt>
      <trkpt lat="47.85941" lon="6.75177">
        <ele>713.3</ele>
        <time>2022-08-17T08:59:07Z</time>
      </trkpt>
      <trkpt lat="47.85942" lon="6.75177">
        <ele>712.9</ele>
        <time>2022-08-17T08:59:08Z</time>
      </trkpt>
      <trkpt lat="47.85942" lon="6.75178">
        <ele>713</ele>
        <time>2022-08-17T08:59:59Z</time>
      </trkpt>
      <trkpt lat="47.85942" lon="6.75179">
        <ele>713.1</ele>
        <time>2022-08-17T09:00:01Z</time>
      </trkpt>
      <trkpt lat="47.85943" lon="6.7518">
        <ele>712.7</ele>
        <time>2022-08-17T09:00:02Z</time>
      </trkpt>
      <trkpt lat="47.85943" lon="6.75181">
        <ele>712.7</ele>
        <time>2022-08-17T09:00:03Z</time>
      </trkpt>
      <trkpt lat="47.85943" lon="6.75182">
        <ele>712.8</ele>
        <time>2022-08-17T09:00:04Z</time>
      </trkpt>
      <trkpt lat="47.85944" lon="6.75183">
        <ele>712.4</ele>
        <time>2022-08-17T09:00:05Z</time>
      </trkpt>
      <trkpt lat="47.85944" lon="6.75184">
        <ele>712.5</ele>
        <time>2022-08-17T09:00:06Z</time>
      </trkpt>
      <trkpt lat="47.85945" lon="6.75185">
        <ele>712.1</ele>
        <time>2022-08-17T09:00:07Z</time>
      </trkpt>
      <trkpt lat="47.85945" lon="6.75186">
        <ele>712.2</ele>
        <time>2022-08-17T09:00:08Z</time>
      </trkpt>
      <trkpt lat="47.85946" lon="6.75187">
        <ele>711.8</ele>
        <time>2022-08-17T09:00:09Z</time>
      </trkpt>
      <trkpt lat="47.85947" lon="6.75188">
        <ele>711.5</ele>
        <time>2022-08-17T09:00:10Z</time>
      </trkpt>
      <trkpt lat="47.85947" lon="6.75189">
        <ele>711.6</ele>
        <time>2022-08-17T09:00:11Z</time>
      </trkpt>
      <trkpt lat="47.85947" lon="6.7519">
        <ele>711.6</ele>
        <time>2022-08-17T09:00:12Z</time>
      </trkpt>
      <trkpt lat="47.85948" lon="6.75191">
        <ele>711.3</ele>
        <time>2022-08-17T09:00:13Z</time>
      </trkpt>
      <trkpt lat="47.85948" lon="6.75192">
        <ele>711.4</ele>
        <time>2022-08-17T09:00:14Z</time>
      </trkpt>
      <trkpt lat="47.85948" lon="6.75193">
        <ele>711.5</ele>
        <time>2022-08-17T09:00:15Z</time>
      </trkpt>
      <trkpt lat="47.85948" lon="6.75194">
        <ele>711.6</ele>
        <time>2022-08-17T09:00:16Z</time>
      </trkpt>
      <trkpt lat="47.85949" lon="6.75195">
        <ele>711.3</ele>
        <time>2022-08-17T09:00:17Z</time>
      </trkpt>
      <trkpt lat="47.85949" lon="6.75196">
        <ele>711.5</ele>
        <time>2022-08-17T09:00:18Z</time>
      </trkpt>
      <trkpt lat="47.8595" lon="6.75198">
        <ele>711.5</ele>
        <time>2022-08-17T09:00:19Z</time>
      </trkpt>
      <trkpt lat="47.85951" lon="6.75199">
        <ele>711.3</ele>
        <time>2022-08-17T09:00:20Z</time>
      </trkpt>
      <trkpt lat="47.85951" lon="6.752">
        <ele>711.6</ele>
        <time>2022-08-17T09:00:21Z</time>
      </trkpt>
      <trkpt lat="47.85951" lon="6.75202">
        <ele>712</ele>
        <time>2022-08-17T09:00:22Z</time>
      </trkpt>
      <trkpt lat="47.85951" lon="6.75203">
        <ele>712.2</ele>
        <time>2022-08-17T09:00:23Z</time>
      </trkpt>
      <trkpt lat="47.85952" lon="6.75204">
        <ele>712</ele>
        <time>2022-08-17T09:00:24Z</time>
      </trkpt>
      <trkpt lat="47.85952" lon="6.75206">
        <ele>712.4</ele>
        <time>2022-08-17T09:00:25Z</time>
      </trkpt>
      <trkpt lat="47.85952" lon="6.75207">
        <ele>712.6</ele>
        <time>2022-08-17T09:00:26Z</time>
      </trkpt>
      <trkpt lat="47.85953" lon="6.75209">
        <ele>712.6</ele>
        <time>2022-08-17T09:00:27Z</time>
      </trkpt>
      <trkpt lat="47.85953" lon="6.7521">
        <ele>712.8</ele>
        <time>2022-08-17T09:00:28Z</time>
      </trkpt>
      <trkpt lat="47.85953" lon="6.75211">
        <ele>713</ele>
        <time>2022-08-17T09:00:29Z</time>
      </trkpt>
      <trkpt lat="47.85954" lon="6.75213">
        <ele>713</ele>
        <time>2022-08-17T09:00:30Z</time>
      </trkpt>
      <trkpt lat="47.85954" lon="6.75214">
        <ele>713.2</ele>
        <time>2022-08-17T09:00:31Z</time>
      </trkpt>
      <trkpt lat="47.85955" lon="6.75215">
        <ele>713</ele>
        <time>2022-08-17T09:00:33Z</time>
      </trkpt>
      <trkpt lat="47.85955" lon="6.75216">
        <ele>713.2</ele>
        <time>2022-08-17T09:00:34Z</time>
      </trkpt>
      <trkpt lat="47.85956" lon="6.75217">
        <ele>713</ele>
        <time>2022-08-17T09:00:35Z</time>
      </trkpt>
      <trkpt lat="47.85956" lon="6.75218">
        <ele>713.2</ele>
        <time>2022-08-17T09:00:36Z</time>
      </trkpt>
      <trkpt lat="47.85956" lon="6.7522">
        <ele>713.6</ele>
        <time>2022-08-17T09:00:37Z</time>
      </trkpt>
      <trkpt lat="47.85956" lon="6.75221">
        <ele>713.8</ele>
        <time>2022-08-17T09:00:38Z</time>
      </trkpt>
      <trkpt lat="47.85956" lon="6.75222">
        <ele>714</ele>
        <time>2022-08-17T09:00:39Z</time>
      </trkpt>
      <trkpt lat="47.85957" lon="6.75223">
        <ele>713.7</ele>
        <time>2022-08-17T09:00:40Z</time>
      </trkpt>
      <trkpt lat="47.85957" lon="6.75225">
        <ele>714.1</ele>
        <time>2022-08-17T09:00:41Z</time>
      </trkpt>
      <trkpt lat="47.85958" lon="6.75226">
        <ele>713.8</ele>
        <time>2022-08-17T09:00:42Z</time>
      </trkpt>
      <trkpt lat="47.85958" lon="6.75227">
        <ele>714</ele>
        <time>2022-08-17T09:00:43Z</time>
      </trkpt>
      <trkpt lat="47.85959" lon="6.75228">
        <ele>713.8</ele>
        <time>2022-08-17T09:00:44Z</time>
      </trkpt>
      <trkpt lat="47.85959" lon="6.75229">
        <ele>713.9</ele>
        <time>2022-08-17T09:00:45Z</time>
      </trkpt>
      <trkpt lat="47.8596" lon="6.7523">
        <ele>713.7</ele>
        <time>2022-08-17T09:00:46Z</time>
      </trkpt>
      <trkpt lat="47.85961" lon="6.75231">
        <ele>713.4</ele>
        <time>2022-08-17T09:00:47Z</time>
      </trkpt>
      <trkpt lat="47.85961" lon="6.75232">
        <ele>713.6</ele>
        <time>2022-08-17T09:00:48Z</time>
      </trkpt>
      <trkpt lat="47.85962" lon="6.75232">
        <ele>713.2</ele>
        <time>2022-08-17T09:00:49Z</time>
      </trkpt>
      <trkpt lat="47.85963" lon="6.75233">
        <ele>712.9</ele>
        <time>2022-08-17T09:00:50Z</time>
      </trkpt>
      <trkpt lat="47.85963" lon="6.75234">
        <ele>713.1</ele>
        <time>2022-08-17T09:00:51Z</time>
      </trkpt>
      <trkpt lat="47.85964" lon="6.75235">
        <ele>712.9</ele>
        <time>2022-08-17T09:00:52Z</time>
      </trkpt>
      <trkpt lat="47.85964" lon="6.75236">
        <ele>713</ele>
        <time>2022-08-17T09:00:53Z</time>
      </trkpt>
      <trkpt lat="47.85965" lon="6.75237">
        <ele>712.8</ele>
        <time>2022-08-17T09:00:54Z</time>
      </trkpt>
      <trkpt lat="47.85965" lon="6.75238">
        <ele>713</ele>
        <time>2022-08-17T09:00:55Z</time>
      </trkpt>
      <trkpt lat="47.85966" lon="6.75239">
        <ele>712.7</ele>
        <time>2022-08-17T09:00:56Z</time>
      </trkpt>
      <trkpt lat="47.85967" lon="6.7524">
        <ele>712.5</ele>
        <time>2022-08-17T09:00:57Z</time>
      </trkpt>
      <trkpt lat="47.85967" lon="6.75241">
        <ele>712.6</ele>
        <time>2022-08-17T09:00:58Z</time>
      </trkpt>
      <trkpt lat="47.85968" lon="6.75242">
        <ele>712.4</ele>
        <time>2022-08-17T09:00:59Z</time>
      </trkpt>
      <trkpt lat="47.85969" lon="6.75242">
        <ele>712</ele>
        <time>2022-08-17T09:01:00Z</time>
      </trkpt>
      <trkpt lat="47.8597" lon="6.75243">
        <ele>711.7</ele>
        <time>2022-08-17T09:01:01Z</time>
      </trkpt>
      <trkpt lat="47.8597" lon="6.75244">
        <ele>711.9</ele>
        <time>2022-08-17T09:01:02Z</time>
      </trkpt>
      <trkpt lat="47.85971" lon="6.75244">
        <ele>711.4</ele>
        <time>2022-08-17T09:01:03Z</time>
      </trkpt>
      <trkpt lat="47.85972" lon="6.75245">
        <ele>711.2</ele>
        <time>2022-08-17T09:01:04Z</time>
      </trkpt>
      <trkpt lat="47.85973" lon="6.75246">
        <ele>710.9</ele>
        <time>2022-08-17T09:01:05Z</time>
      </trkpt>
      <trkpt lat="47.85974" lon="6.75247">
        <ele>710.5</ele>
        <time>2022-08-17T09:01:07Z</time>
      </trkpt>
      <trkpt lat="47.85975" lon="6.75248">
        <ele>710.2</ele>
        <time>2022-08-17T09:01:08Z</time>
      </trkpt>
      <trkpt lat="47.85975" lon="6.75249">
        <ele>710.4</ele>
        <time>2022-08-17T09:01:09Z</time>
      </trkpt>
      <trkpt lat="47.85976" lon="6.7525">
        <ele>710.1</ele>
        <time>2022-08-17T09:01:10Z</time>
      </trkpt>
      <trkpt lat="47.85977" lon="6.75251">
        <ele>709.8</ele>
        <time>2022-08-17T09:01:12Z</time>
      </trkpt>
      <trkpt lat="47.85978" lon="6.75251">
        <ele>709.3</ele>
        <time>2022-08-17T09:01:13Z</time>
      </trkpt>
      <trkpt lat="47.85978" lon="6.75252">
        <ele>709.6</ele>
        <time>2022-08-17T09:01:14Z</time>
      </trkpt>
      <trkpt lat="47.85979" lon="6.75252">
        <ele>709.1</ele>
        <time>2022-08-17T09:01:15Z</time>
      </trkpt>
      <trkpt lat="47.8598" lon="6.75253">
        <ele>708.9</ele>
        <time>2022-08-17T09:01:17Z</time>
      </trkpt>
      <trkpt lat="47.85981" lon="6.75253">
        <ele>708.4</ele>
        <time>2022-08-17T09:01:18Z</time>
      </trkpt>
      <trkpt lat="47.85982" lon="6.75253">
        <ele>707.9</ele>
        <time>2022-08-17T09:01:19Z</time>
      </trkpt>
      <trkpt lat="47.85983" lon="6.75254">
        <ele>707.7</ele>
        <time>2022-08-17T09:01:20Z</time>
      </trkpt>
      <trkpt lat="47.85983" lon="6.75255">
        <ele>708</ele>
        <time>2022-08-17T09:01:21Z</time>
      </trkpt>
      <trkpt lat="47.85984" lon="6.75255">
        <ele>707.5</ele>
        <time>2022-08-17T09:01:22Z</time>
      </trkpt>
      <trkpt lat="47.85985" lon="6.75256">
        <ele>707.4</ele>
        <time>2022-08-17T09:01:23Z</time>
      </trkpt>
      <trkpt lat="47.85985" lon="6.75257">
        <ele>707.7</ele>
        <time>2022-08-17T09:01:24Z</time>
      </trkpt>
      <trkpt lat="47.85986" lon="6.75257">
        <ele>707.2</ele>
        <time>2022-08-17T09:01:25Z</time>
      </trkpt>
      <trkpt lat="47.85987" lon="6.75258">
        <ele>707</ele>
        <time>2022-08-17T09:01:26Z</time>
      </trkpt>
      <trkpt lat="47.85987" lon="6.75259">
        <ele>707.4</ele>
        <time>2022-08-17T09:01:27Z</time>
      </trkpt>
      <trkpt lat="47.85988" lon="6.75259">
        <ele>706.9</ele>
        <time>2022-08-17T09:01:28Z</time>
      </trkpt>
      <trkpt lat="47.85989" lon="6.75259">
        <ele>706.5</ele>
        <time>2022-08-17T09:01:32Z</time>
      </trkpt>
      <trkpt lat="47.8599" lon="6.7526">
        <ele>706.4</ele>
        <time>2022-08-17T09:01:33Z</time>
      </trkpt>
      <trkpt lat="47.85991" lon="6.7526">
        <ele>705.9</ele>
        <time>2022-08-17T09:01:35Z</time>
      </trkpt>
      <trkpt lat="47.85992" lon="6.75261">
        <ele>705.8</ele>
        <time>2022-08-17T09:01:36Z</time>
      </trkpt>
      <trkpt lat="47.85993" lon="6.75262">
        <ele>705.7</ele>
        <time>2022-08-17T09:01:37Z</time>
      </trkpt>
      <trkpt lat="47.85994" lon="6.75262">
        <ele>705.3</ele>
        <time>2022-08-17T09:01:38Z</time>
      </trkpt>
      <trkpt lat="47.85995" lon="6.75263">
        <ele>705.2</ele>
        <time>2022-08-17T09:01:39Z</time>
      </trkpt>
      <trkpt lat="47.85996" lon="6.75264">
        <ele>705.2</ele>
        <time>2022-08-17T09:01:40Z</time>
      </trkpt>
      <trkpt lat="47.85997" lon="6.75265">
        <ele>705.2</ele>
        <time>2022-08-17T09:01:41Z</time>
      </trkpt>
      <trkpt lat="47.85998" lon="6.75265">
        <ele>704.8</ele>
        <time>2022-08-17T09:01:42Z</time>
      </trkpt>
      <trkpt lat="47.85999" lon="6.75266">
        <ele>704.7</ele>
        <time>2022-08-17T09:01:43Z</time>
      </trkpt>
      <trkpt lat="47.86" lon="6.75266">
        <ele>704.3</ele>
        <time>2022-08-17T09:01:44Z</time>
      </trkpt>
      <trkpt lat="47.86001" lon="6.75266">
        <ele>703.8</ele>
        <time>2022-08-17T09:01:45Z</time>
      </trkpt>
      <trkpt lat="47.86002" lon="6.75267">
        <ele>703.7</ele>
        <time>2022-08-17T09:01:46Z</time>
      </trkpt>
      <trkpt lat="47.86003" lon="6.75267">
        <ele>703.1</ele>
        <time>2022-08-17T09:01:47Z</time>
      </trkpt>
      <trkpt lat="47.86004" lon="6.75268">
        <ele>703</ele>
        <time>2022-08-17T09:01:48Z</time>
      </trkpt>
      <trkpt lat="47.86006" lon="6.75269">
        <ele>702.3</ele>
        <time>2022-08-17T09:01:49Z</time>
      </trkpt>
      <trkpt lat="47.86007" lon="6.75269">
        <ele>701.7</ele>
        <time>2022-08-17T09:01:50Z</time>
      </trkpt>
      <trkpt lat="47.86008" lon="6.7527">
        <ele>701.6</ele>
        <time>2022-08-17T09:01:51Z</time>
      </trkpt>
      <trkpt lat="47.86009" lon="6.75271">
        <ele>701.4</ele>
        <time>2022-08-17T09:01:52Z</time>
      </trkpt>
      <trkpt lat="47.8601" lon="6.75272">
        <ele>701.2</ele>
        <time>2022-08-17T09:01:54Z</time>
      </trkpt>
      <trkpt lat="47.8601" lon="6.75273">
        <ele>701.5</ele>
        <time>2022-08-17T09:01:55Z</time>
      </trkpt>
      <trkpt lat="47.8601" lon="6.75274">
        <ele>701.9</ele>
        <time>2022-08-17T09:01:56Z</time>
      </trkpt>
      <trkpt lat="47.86011" lon="6.75275">
        <ele>701.7</ele>
        <time>2022-08-17T09:01:57Z</time>
      </trkpt>
      <trkpt lat="47.86012" lon="6.75275">
        <ele>701.1</ele>
        <time>2022-08-17T09:01:58Z</time>
      </trkpt>
      <trkpt lat="47.86013" lon="6.75276">
        <ele>700.9</ele>
        <time>2022-08-17T09:01:59Z</time>
      </trkpt>
      <trkpt lat="47.86014" lon="6.75276">
        <ele>700.3</ele>
        <time>2022-08-17T09:02:00Z</time>
      </trkpt>
      <trkpt lat="47.86015" lon="6.75277">
        <ele>700.1</ele>
        <time>2022-08-17T09:02:01Z</time>
      </trkpt>
      <trkpt lat="47.86017" lon="6.75278">
        <ele>699.3</ele>
        <time>2022-08-17T09:02:02Z</time>
      </trkpt>
      <trkpt lat="47.86017" lon="6.75279">
        <ele>699.5</ele>
        <time>2022-08-17T09:02:03Z</time>
      </trkpt>
      <trkpt lat="47.86018" lon="6.7528">
        <ele>699.1</ele>
        <time>2022-08-17T09:02:04Z</time>
      </trkpt>
      <trkpt lat="47.86019" lon="6.75281">
        <ele>698.8</ele>
        <time>2022-08-17T09:02:05Z</time>
      </trkpt>
      <trkpt lat="47.86019" lon="6.75282">
        <ele>699</ele>
        <time>2022-08-17T09:02:06Z</time>
      </trkpt>
      <trkpt lat="47.8602" lon="6.75282">
        <ele>698.5</ele>
        <time>2022-08-17T09:02:07Z</time>
      </trkpt>
      <trkpt lat="47.8602" lon="6.75283">
        <ele>698.7</ele>
        <time>2022-08-17T09:02:08Z</time>
      </trkpt>
      <trkpt lat="47.86021" lon="6.75284">
        <ele>698.4</ele>
        <time>2022-08-17T09:02:09Z</time>
      </trkpt>
      <trkpt lat="47.86021" lon="6.75285">
        <ele>698.6</ele>
        <time>2022-08-17T09:02:10Z</time>
      </trkpt>
      <trkpt lat="47.86022" lon="6.75285">
        <ele>698</ele>
        <time>2022-08-17T09:02:11Z</time>
      </trkpt>
      <trkpt lat="47.86022" lon="6.75286">
        <ele>698.3</ele>
        <time>2022-08-17T09:02:12Z</time>
      </trkpt>
      <trkpt lat="47.86023" lon="6.75287">
        <ele>698</ele>
        <time>2022-08-17T09:02:14Z</time>
      </trkpt>
      <trkpt lat="47.86023" lon="6.75288">
        <ele>698.2</ele>
        <time>2022-08-17T09:02:15Z</time>
      </trkpt>
      <trkpt lat="47.86024" lon="6.75288">
        <ele>697.7</ele>
        <time>2022-08-17T09:02:16Z</time>
      </trkpt>
      <trkpt lat="47.86024" lon="6.75289">
        <ele>697.9</ele>
        <time>2022-08-17T09:02:17Z</time>
      </trkpt>
      <trkpt lat="47.86025" lon="6.7529">
        <ele>697.6</ele>
        <time>2022-08-17T09:02:18Z</time>
      </trkpt>
      <trkpt lat="47.86025" lon="6.75291">
        <ele>697.8</ele>
        <time>2022-08-17T09:02:19Z</time>
      </trkpt>
      <trkpt lat="47.86025" lon="6.75292">
        <ele>698.1</ele>
        <time>2022-08-17T09:02:20Z</time>
      </trkpt>
      <trkpt lat="47.86024" lon="6.75293">
        <ele>698.9</ele>
        <time>2022-08-17T09:02:21Z</time>
      </trkpt>
      <trkpt lat="47.86024" lon="6.75294">
        <ele>699.1</ele>
        <time>2022-08-17T09:02:22Z</time>
      </trkpt>
      <trkpt lat="47.86024" lon="6.75295">
        <ele>699.3</ele>
        <time>2022-08-17T09:02:23Z</time>
      </trkpt>
      <trkpt lat="47.86024" lon="6.75296">
        <ele>699.6</ele>
        <time>2022-08-17T09:02:24Z</time>
      </trkpt>
      <trkpt lat="47.86024" lon="6.75297">
        <ele>699.8</ele>
        <time>2022-08-17T09:02:25Z</time>
      </trkpt>
      <trkpt lat="47.86024" lon="6.75298">
        <ele>700.1</ele>
        <time>2022-08-17T09:02:26Z</time>
      </trkpt>
      <trkpt lat="47.86024" lon="6.75299">
        <ele>700.3</ele>
        <time>2022-08-17T09:02:27Z</time>
      </trkpt>
      <trkpt lat="47.86025" lon="6.753">
        <ele>700</ele>
        <time>2022-08-17T09:02:28Z</time>
      </trkpt>
      <trkpt lat="47.86025" lon="6.75301">
        <ele>700.3</ele>
        <time>2022-08-17T09:02:29Z</time>
      </trkpt>
      <trkpt lat="47.86026" lon="6.75302">
        <ele>700</ele>
        <time>2022-08-17T09:02:30Z</time>
      </trkpt>
      <trkpt lat="47.86026" lon="6.75303">
        <ele>700.3</ele>
        <time>2022-08-17T09:02:31Z</time>
      </trkpt>
      <trkpt lat="47.86027" lon="6.75304">
        <ele>700</ele>
        <time>2022-08-17T09:02:32Z</time>
      </trkpt>
      <trkpt lat="47.86027" lon="6.75305">
        <ele>700.3</ele>
        <time>2022-08-17T09:02:33Z</time>
      </trkpt>
      <trkpt lat="47.86028" lon="6.75306">
        <ele>700</ele>
        <time>2022-08-17T09:02:34Z</time>
      </trkpt>
      <trkpt lat="47.86029" lon="6.75307">
        <ele>699.6</ele>
        <time>2022-08-17T09:02:35Z</time>
      </trkpt>
      <trkpt lat="47.86029" lon="6.75308">
        <ele>699.8</ele>
        <time>2022-08-17T09:02:36Z</time>
      </trkpt>
      <trkpt lat="47.8603" lon="6.75308">
        <ele>699.3</ele>
        <time>2022-08-17T09:02:37Z</time>
      </trkpt>
      <trkpt lat="47.8603" lon="6.75309">
        <ele>699.5</ele>
        <time>2022-08-17T09:02:38Z</time>
      </trkpt>
      <trkpt lat="47.86031" lon="6.7531">
        <ele>699.1</ele>
        <time>2022-08-17T09:02:39Z</time>
      </trkpt>
      <trkpt lat="47.86031" lon="6.75311">
        <ele>699.3</ele>
        <time>2022-08-17T09:02:40Z</time>
      </trkpt>
      <trkpt lat="47.86031" lon="6.75312">
        <ele>699.6</ele>
        <time>2022-08-17T09:02:41Z</time>
      </trkpt>
      <trkpt lat="47.86031" lon="6.75313">
        <ele>699.8</ele>
        <time>2022-08-17T09:02:43Z</time>
      </trkpt>
      <trkpt lat="47.86032" lon="6.75314">
        <ele>699.4</ele>
        <time>2022-08-17T09:02:44Z</time>
      </trkpt>
      <trkpt lat="47.86032" lon="6.75315">
        <ele>699.7</ele>
        <time>2022-08-17T09:02:45Z</time>
      </trkpt>
      <trkpt lat="47.86032" lon="6.75316">
        <ele>699.9</ele>
        <time>2022-08-17T09:02:46Z</time>
      </trkpt>
      <trkpt lat="47.86033" lon="6.75316">
        <ele>699.3</ele>
        <time>2022-08-17T09:02:47Z</time>
      </trkpt>
      <trkpt lat="47.86033" lon="6.75317">
        <ele>699.5</ele>
        <time>2022-08-17T09:02:48Z</time>
      </trkpt>
      <trkpt lat="47.86034" lon="6.75318">
        <ele>699.2</ele>
        <time>2022-08-17T09:02:49Z</time>
      </trkpt>
      <trkpt lat="47.86035" lon="6.75319">
        <ele>698.9</ele>
        <time>2022-08-17T09:02:51Z</time>
      </trkpt>
      <trkpt lat="47.86035" lon="6.7532">
        <ele>699.1</ele>
        <time>2022-08-17T09:02:52Z</time>
      </trkpt>
      <trkpt lat="47.86036" lon="6.75321">
        <ele>698.8</ele>
        <time>2022-08-17T09:02:53Z</time>
      </trkpt>
      <trkpt lat="47.86036" lon="6.75322">
        <ele>699</ele>
        <time>2022-08-17T09:02:54Z</time>
      </trkpt>
      <trkpt lat="47.86037" lon="6.75323">
        <ele>698.7</ele>
        <time>2022-08-17T09:02:55Z</time>
      </trkpt>
      <trkpt lat="47.86037" lon="6.75324">
        <ele>698.9</ele>
        <time>2022-08-17T09:02:56Z</time>
      </trkpt>
      <trkpt lat="47.86038" lon="6.75325">
        <ele>698.6</ele>
        <time>2022-08-17T09:02:57Z</time>
      </trkpt>
      <trkpt lat="47.86038" lon="6.75326">
        <ele>698.8</ele>
        <time>2022-08-17T09:02:58Z</time>
      </trkpt>
      <trkpt lat="47.86038" lon="6.75327">
        <ele>699</ele>
        <time>2022-08-17T09:02:59Z</time>
      </trkpt>
      <trkpt lat="47.86039" lon="6.75328">
        <ele>698.7</ele>
        <time>2022-08-17T09:03:00Z</time>
      </trkpt>
      <trkpt lat="47.86039" lon="6.75329">
        <ele>698.9</ele>
        <time>2022-08-17T09:03:01Z</time>
      </trkpt>
      <trkpt lat="47.8604" lon="6.7533">
        <ele>698.6</ele>
        <time>2022-08-17T09:03:02Z</time>
      </trkpt>
      <trkpt lat="47.8604" lon="6.75331">
        <ele>698.9</ele>
        <time>2022-08-17T09:03:03Z</time>
      </trkpt>
      <trkpt lat="47.86041" lon="6.75332">
        <ele>698.5</ele>
        <time>2022-08-17T09:03:04Z</time>
      </trkpt>
      <trkpt lat="47.86042" lon="6.75333">
        <ele>698.2</ele>
        <time>2022-08-17T09:03:05Z</time>
      </trkpt>
      <trkpt lat="47.86042" lon="6.75334">
        <ele>698.4</ele>
        <time>2022-08-17T09:03:06Z</time>
      </trkpt>
      <trkpt lat="47.86043" lon="6.75335">
        <ele>698</ele>
        <time>2022-08-17T09:03:07Z</time>
      </trkpt>
      <trkpt lat="47.86043" lon="6.75336">
        <ele>698.2</ele>
        <time>2022-08-17T09:03:08Z</time>
      </trkpt>
      <trkpt lat="47.86044" lon="6.75337">
        <ele>697.8</ele>
        <time>2022-08-17T09:03:09Z</time>
      </trkpt>
      <trkpt lat="47.86044" lon="6.75338">
        <ele>697.9</ele>
        <time>2022-08-17T09:03:34Z</time>
      </trkpt>
      <trkpt lat="47.86044" lon="6.75339">
        <ele>698.1</ele>
        <time>2022-08-17T09:03:37Z</time>
      </trkpt>
      <trkpt lat="47.86044" lon="6.7534">
        <ele>698.2</ele>
        <time>2022-08-17T09:03:39Z</time>
      </trkpt>
      <trkpt lat="47.86044" lon="6.75341">
        <ele>698.3</ele>
        <time>2022-08-17T09:03:40Z</time>
      </trkpt>
      <trkpt lat="47.86045" lon="6.75342">
        <ele>697.9</ele>
        <time>2022-08-17T09:03:41Z</time>
      </trkpt>
      <trkpt lat="47.86045" lon="6.75344">
        <ele>698.2</ele>
        <time>2022-08-17T09:03:42Z</time>
      </trkpt>
      <trkpt lat="47.86045" lon="6.75345">
        <ele>698.4</ele>
        <time>2022-08-17T09:03:43Z</time>
      </trkpt>
      <trkpt lat="47.86045" lon="6.75346">
        <ele>698.5</ele>
        <time>2022-08-17T09:03:44Z</time>
      </trkpt>
      <trkpt lat="47.86046" lon="6.75348">
        <ele>698.3</ele>
        <time>2022-08-17T09:03:45Z</time>
      </trkpt>
      <trkpt lat="47.86046" lon="6.75349">
        <ele>698.4</ele>
        <time>2022-08-17T09:03:46Z</time>
      </trkpt>
      <trkpt lat="47.86046" lon="6.7535">
        <ele>698.6</ele>
        <time>2022-08-17T09:03:47Z</time>
      </trkpt>
      <trkpt lat="47.86047" lon="6.75352">
        <ele>698.3</ele>
        <time>2022-08-17T09:03:48Z</time>
      </trkpt>
      <trkpt lat="47.86047" lon="6.75353">
        <ele>698.5</ele>
        <time>2022-08-17T09:03:49Z</time>
      </trkpt>
      <trkpt lat="47.86047" lon="6.75355">
        <ele>698.7</ele>
        <time>2022-08-17T09:03:50Z</time>
      </trkpt>
      <trkpt lat="47.86048" lon="6.75356">
        <ele>698.3</ele>
        <time>2022-08-17T09:03:51Z</time>
      </trkpt>
      <trkpt lat="47.86048" lon="6.75357">
        <ele>698.5</ele>
        <time>2022-08-17T09:03:52Z</time>
      </trkpt>
      <trkpt lat="47.86048" lon="6.75359">
        <ele>698.8</ele>
        <time>2022-08-17T09:03:53Z</time>
      </trkpt>
      <trkpt lat="47.86049" lon="6.7536">
        <ele>698.4</ele>
        <time>2022-08-17T09:03:54Z</time>
      </trkpt>
      <trkpt lat="47.86049" lon="6.75361">
        <ele>698.5</ele>
        <time>2022-08-17T09:03:55Z</time>
      </trkpt>
      <trkpt lat="47.8605" lon="6.75362">
        <ele>698.2</ele>
        <time>2022-08-17T09:03:56Z</time>
      </trkpt>
      <trkpt lat="47.8605" lon="6.75363">
        <ele>698.4</ele>
        <time>2022-08-17T09:03:57Z</time>
      </trkpt>
      <trkpt lat="47.86051" lon="6.75364">
        <ele>698.1</ele>
        <time>2022-08-17T09:03:58Z</time>
      </trkpt>
      <trkpt lat="47.86051" lon="6.75365">
        <ele>698.3</ele>
        <time>2022-08-17T09:03:59Z</time>
      </trkpt>
      <trkpt lat="47.86052" lon="6.75367">
        <ele>698.2</ele>
        <time>2022-08-17T09:04:00Z</time>
      </trkpt>
      <trkpt lat="47.86053" lon="6.75368">
        <ele>697.9</ele>
        <time>2022-08-17T09:04:01Z</time>
      </trkpt>
      <trkpt lat="47.86053" lon="6.75369">
        <ele>698.1</ele>
        <time>2022-08-17T09:04:02Z</time>
      </trkpt>
      <trkpt lat="47.86054" lon="6.7537">
        <ele>697.8</ele>
        <time>2022-08-17T09:04:03Z</time>
      </trkpt>
      <trkpt lat="47.86054" lon="6.75372">
        <ele>698.2</ele>
        <time>2022-08-17T09:04:04Z</time>
      </trkpt>
      <trkpt lat="47.86055" lon="6.75373">
        <ele>697.9</ele>
        <time>2022-08-17T09:04:05Z</time>
      </trkpt>
      <trkpt lat="47.86055" lon="6.75374">
        <ele>698.1</ele>
        <time>2022-08-17T09:04:06Z</time>
      </trkpt>
      <trkpt lat="47.86056" lon="6.75375">
        <ele>697.8</ele>
        <time>2022-08-17T09:04:07Z</time>
      </trkpt>
      <trkpt lat="47.86057" lon="6.75376">
        <ele>697.5</ele>
        <time>2022-08-17T09:04:08Z</time>
      </trkpt>
      <trkpt lat="47.86057" lon="6.75377">
        <ele>697.7</ele>
        <time>2022-08-17T09:04:09Z</time>
      </trkpt>
      <trkpt lat="47.86059" lon="6.75378">
        <ele>696.8</ele>
        <time>2022-08-17T09:04:10Z</time>
      </trkpt>
      <trkpt lat="47.8606" lon="6.75379">
        <ele>696.5</ele>
        <time>2022-08-17T09:04:11Z</time>
      </trkpt>
      <trkpt lat="47.86061" lon="6.7538">
        <ele>696.2</ele>
        <time>2022-08-17T09:04:12Z</time>
      </trkpt>
      <trkpt lat="47.86062" lon="6.75381">
        <ele>695.9</ele>
        <time>2022-08-17T09:04:13Z</time>
      </trkpt>
      <trkpt lat="47.86062" lon="6.75382">
        <ele>696.1</ele>
        <time>2022-08-17T09:04:14Z</time>
      </trkpt>
      <trkpt lat="47.86063" lon="6.75383">
        <ele>695.8</ele>
        <time>2022-08-17T09:04:15Z</time>
      </trkpt>
      <trkpt lat="47.86063" lon="6.75384">
        <ele>696</ele>
        <time>2022-08-17T09:04:16Z</time>
      </trkpt>
      <trkpt lat="47.86064" lon="6.75385">
        <ele>695.6</ele>
        <time>2022-08-17T09:04:17Z</time>
      </trkpt>
      <trkpt lat="47.86064" lon="6.75386">
        <ele>695.8</ele>
        <time>2022-08-17T09:04:18Z</time>
      </trkpt>
      <trkpt lat="47.86065" lon="6.75387">
        <ele>695.5</ele>
        <time>2022-08-17T09:04:19Z</time>
      </trkpt>
      <trkpt lat="47.86065" lon="6.75389">
        <ele>695.9</ele>
        <time>2022-08-17T09:04:20Z</time>
      </trkpt>
      <trkpt lat="47.86066" lon="6.7539">
        <ele>695.5</ele>
        <time>2022-08-17T09:04:21Z</time>
      </trkpt>
      <trkpt lat="47.86067" lon="6.75391">
        <ele>695.1</ele>
        <time>2022-08-17T09:04:22Z</time>
      </trkpt>
      <trkpt lat="47.86068" lon="6.75392">
        <ele>694.7</ele>
        <time>2022-08-17T09:04:23Z</time>
      </trkpt>
      <trkpt lat="47.86069" lon="6.75393">
        <ele>694.3</ele>
        <time>2022-08-17T09:04:25Z</time>
      </trkpt>
      <trkpt lat="47.8607" lon="6.75394">
        <ele>693.8</ele>
        <time>2022-08-17T09:04:26Z</time>
      </trkpt>
      <trkpt lat="47.86071" lon="6.75395">
        <ele>693.4</ele>
        <time>2022-08-17T09:04:27Z</time>
      </trkpt>
      <trkpt lat="47.86071" lon="6.75396">
        <ele>693.6</ele>
        <time>2022-08-17T09:04:28Z</time>
      </trkpt>
      <trkpt lat="47.86072" lon="6.75397">
        <ele>693.2</ele>
        <time>2022-08-17T09:04:29Z</time>
      </trkpt>
      <trkpt lat="47.86072" lon="6.75398">
        <ele>693.3</ele>
        <time>2022-08-17T09:04:30Z</time>
      </trkpt>
      <trkpt lat="47.86072" lon="6.75399">
        <ele>693.4</ele>
        <time>2022-08-17T09:04:31Z</time>
      </trkpt>
      <trkpt lat="47.86072" lon="6.754">
        <ele>693.6</ele>
        <time>2022-08-17T09:04:32Z</time>
      </trkpt>
      <trkpt lat="47.86072" lon="6.75401">
        <ele>693.7</ele>
        <time>2022-08-17T09:04:33Z</time>
      </trkpt>
      <trkpt lat="47.86072" lon="6.75402">
        <ele>693.8</ele>
        <time>2022-08-17T09:04:34Z</time>
      </trkpt>
      <trkpt lat="47.86072" lon="6.75403">
        <ele>693.9</ele>
        <time>2022-08-17T09:04:35Z</time>
      </trkpt>
      <trkpt lat="47.86072" lon="6.75405">
        <ele>694.2</ele>
        <time>2022-08-17T09:04:36Z</time>
      </trkpt>
      <trkpt lat="47.86072" lon="6.75406">
        <ele>694.3</ele>
        <time>2022-08-17T09:04:37Z</time>
      </trkpt>
      <trkpt lat="47.86073" lon="6.75407">
        <ele>693.9</ele>
        <time>2022-08-17T09:04:38Z</time>
      </trkpt>
      <trkpt lat="47.86074" lon="6.75408">
        <ele>693.6</ele>
        <time>2022-08-17T09:04:39Z</time>
      </trkpt>
      <trkpt lat="47.86074" lon="6.75409">
        <ele>693.7</ele>
        <time>2022-08-17T09:04:40Z</time>
      </trkpt>
      <trkpt lat="47.86075" lon="6.7541">
        <ele>693.3</ele>
        <time>2022-08-17T09:04:41Z</time>
      </trkpt>
      <trkpt lat="47.86075" lon="6.75411">
        <ele>693.4</ele>
        <time>2022-08-17T09:04:42Z</time>
      </trkpt>
      <trkpt lat="47.86076" lon="6.75412">
        <ele>693.1</ele>
        <time>2022-08-17T09:04:43Z</time>
      </trkpt>
      <trkpt lat="47.86077" lon="6.75413">
        <ele>692.7</ele>
        <time>2022-08-17T09:04:44Z</time>
      </trkpt>
      <trkpt lat="47.86078" lon="6.75414">
        <ele>692.3</ele>
        <time>2022-08-17T09:04:45Z</time>
      </trkpt>
      <trkpt lat="47.86079" lon="6.75415">
        <ele>692</ele>
        <time>2022-08-17T09:04:46Z</time>
      </trkpt>
      <trkpt lat="47.8608" lon="6.75416">
        <ele>691.6</ele>
        <time>2022-08-17T09:04:47Z</time>
      </trkpt>
      <trkpt lat="47.8608" lon="6.75417">
        <ele>691.7</ele>
        <time>2022-08-17T09:04:48Z</time>
      </trkpt>
      <trkpt lat="47.86081" lon="6.75418">
        <ele>691.5</ele>
        <time>2022-08-17T09:04:49Z</time>
      </trkpt>
      <trkpt lat="47.86082" lon="6.75419">
        <ele>691.2</ele>
        <time>2022-08-17T09:04:50Z</time>
      </trkpt>
      <trkpt lat="47.86082" lon="6.7542">
        <ele>691.4</ele>
        <time>2022-08-17T09:04:51Z</time>
      </trkpt>
      <trkpt lat="47.86083" lon="6.75421">
        <ele>691.1</ele>
        <time>2022-08-17T09:04:52Z</time>
      </trkpt>
      <trkpt lat="47.86084" lon="6.75422">
        <ele>690.9</ele>
        <time>2022-08-17T09:04:53Z</time>
      </trkpt>
      <trkpt lat="47.86085" lon="6.75423">
        <ele>690.7</ele>
        <time>2022-08-17T09:04:54Z</time>
      </trkpt>
      <trkpt lat="47.86085" lon="6.75424">
        <ele>690.9</ele>
        <time>2022-08-17T09:04:55Z</time>
      </trkpt>
      <trkpt lat="47.86086" lon="6.75425">
        <ele>690.7</ele>
        <time>2022-08-17T09:04:56Z</time>
      </trkpt>
      <trkpt lat="47.86087" lon="6.75426">
        <ele>690.5</ele>
        <time>2022-08-17T09:04:57Z</time>
      </trkpt>
      <trkpt lat="47.86088" lon="6.75427">
        <ele>690.3</ele>
        <time>2022-08-17T09:04:58Z</time>
      </trkpt>
      <trkpt lat="47.86089" lon="6.75428">
        <ele>690.2</ele>
        <time>2022-08-17T09:04:59Z</time>
      </trkpt>
      <trkpt lat="47.8609" lon="6.75429">
        <ele>690</ele>
        <time>2022-08-17T09:05:00Z</time>
      </trkpt>
      <trkpt lat="47.86091" lon="6.75431">
        <ele>690.1</ele>
        <time>2022-08-17T09:05:01Z</time>
      </trkpt>
      <trkpt lat="47.86091" lon="6.75432">
        <ele>690.3</ele>
        <time>2022-08-17T09:05:02Z</time>
      </trkpt>
      <trkpt lat="47.86092" lon="6.75433">
        <ele>690.2</ele>
        <time>2022-08-17T09:05:03Z</time>
      </trkpt>
      <trkpt lat="47.86093" lon="6.75434">
        <ele>690</ele>
        <time>2022-08-17T09:05:04Z</time>
      </trkpt>
      <trkpt lat="47.86094" lon="6.75435">
        <ele>689.9</ele>
        <time>2022-08-17T09:05:05Z</time>
      </trkpt>
      <trkpt lat="47.86095" lon="6.75436">
        <ele>689.7</ele>
        <time>2022-08-17T09:05:06Z</time>
      </trkpt>
      <trkpt lat="47.86095" lon="6.75437">
        <ele>690</ele>
        <time>2022-08-17T09:05:07Z</time>
      </trkpt>
      <trkpt lat="47.86095" lon="6.75438">
        <ele>690.2</ele>
        <time>2022-08-17T09:05:08Z</time>
      </trkpt>
      <trkpt lat="47.86096" lon="6.75439">
        <ele>690.1</ele>
        <time>2022-08-17T09:05:09Z</time>
      </trkpt>
      <trkpt lat="47.86096" lon="6.75441">
        <ele>690.6</ele>
        <time>2022-08-17T09:05:10Z</time>
      </trkpt>
      <trkpt lat="47.86096" lon="6.75442">
        <ele>690.8</ele>
        <time>2022-08-17T09:05:11Z</time>
      </trkpt>
      <trkpt lat="47.86096" lon="6.75443">
        <ele>691.1</ele>
        <time>2022-08-17T09:05:12Z</time>
      </trkpt>
      <trkpt lat="47.86097" lon="6.75445">
        <ele>691.2</ele>
        <time>2022-08-17T09:05:13Z</time>
      </trkpt>
      <trkpt lat="47.86097" lon="6.75446">
        <ele>691.4</ele>
        <time>2022-08-17T09:05:14Z</time>
      </trkpt>
      <trkpt lat="47.86097" lon="6.75447">
        <ele>691.6</ele>
        <time>2022-08-17T09:05:15Z</time>
      </trkpt>
      <trkpt lat="47.86098" lon="6.75448">
        <ele>691.5</ele>
        <time>2022-08-17T09:05:16Z</time>
      </trkpt>
      <trkpt lat="47.86098" lon="6.75449">
        <ele>691.7</ele>
        <time>2022-08-17T09:05:17Z</time>
      </trkpt>
      <trkpt lat="47.86098" lon="6.7545">
        <ele>691.9</ele>
        <time>2022-08-17T09:05:18Z</time>
      </trkpt>
      <trkpt lat="47.86099" lon="6.75452">
        <ele>692</ele>
        <time>2022-08-17T09:05:19Z</time>
      </trkpt>
      <trkpt lat="47.86099" lon="6.75453">
        <ele>692.2</ele>
        <time>2022-08-17T09:05:20Z</time>
      </trkpt>
      <trkpt lat="47.861" lon="6.75454">
        <ele>692.1</ele>
        <time>2022-08-17T09:05:21Z</time>
      </trkpt>
      <trkpt lat="47.86101" lon="6.75455">
        <ele>692</ele>
        <time>2022-08-17T09:05:22Z</time>
      </trkpt>
      <trkpt lat="47.86101" lon="6.75456">
        <ele>692.2</ele>
        <time>2022-08-17T09:05:23Z</time>
      </trkpt>
      <trkpt lat="47.86101" lon="6.75458">
        <ele>692.7</ele>
        <time>2022-08-17T09:05:24Z</time>
      </trkpt>
      <trkpt lat="47.86102" lon="6.75459">
        <ele>692.6</ele>
        <time>2022-08-17T09:05:25Z</time>
      </trkpt>
      <trkpt lat="47.86102" lon="6.7546">
        <ele>692.8</ele>
        <time>2022-08-17T09:05:26Z</time>
      </trkpt>
      <trkpt lat="47.86103" lon="6.75461">
        <ele>692.7</ele>
        <time>2022-08-17T09:05:27Z</time>
      </trkpt>
      <trkpt lat="47.86103" lon="6.75463">
        <ele>693.2</ele>
        <time>2022-08-17T09:05:28Z</time>
      </trkpt>
      <trkpt lat="47.86104" lon="6.75464">
        <ele>693.1</ele>
        <time>2022-08-17T09:05:29Z</time>
      </trkpt>
      <trkpt lat="47.86104" lon="6.75465">
        <ele>693.4</ele>
        <time>2022-08-17T09:05:30Z</time>
      </trkpt>
      <trkpt lat="47.86105" lon="6.75466">
        <ele>693.3</ele>
        <time>2022-08-17T09:05:31Z</time>
      </trkpt>
      <trkpt lat="47.86105" lon="6.75467">
        <ele>693.5</ele>
        <time>2022-08-17T09:05:32Z</time>
      </trkpt>
      <trkpt lat="47.86106" lon="6.75468">
        <ele>693.5</ele>
        <time>2022-08-17T09:05:33Z</time>
      </trkpt>
      <trkpt lat="47.86107" lon="6.75469">
        <ele>693.4</ele>
        <time>2022-08-17T09:05:34Z</time>
      </trkpt>
      <trkpt lat="47.86108" lon="6.7547">
        <ele>693.4</ele>
        <time>2022-08-17T09:05:36Z</time>
      </trkpt>
      <trkpt lat="47.86109" lon="6.75471">
        <ele>693.3</ele>
        <time>2022-08-17T09:05:37Z</time>
      </trkpt>
      <trkpt lat="47.8611" lon="6.75472">
        <ele>693.3</ele>
        <time>2022-08-17T09:05:38Z</time>
      </trkpt>
      <trkpt lat="47.8611" lon="6.75473">
        <ele>693.4</ele>
        <time>2022-08-17T09:05:39Z</time>
      </trkpt>
      <trkpt lat="47.86111" lon="6.75474">
        <ele>693.2</ele>
        <time>2022-08-17T09:05:40Z</time>
      </trkpt>
      <trkpt lat="47.86112" lon="6.75475">
        <ele>692.8</ele>
        <time>2022-08-17T09:05:41Z</time>
      </trkpt>
      <trkpt lat="47.86112" lon="6.75476">
        <ele>692.9</ele>
        <time>2022-08-17T09:05:42Z</time>
      </trkpt>
      <trkpt lat="47.86113" lon="6.75477">
        <ele>692.5</ele>
        <time>2022-08-17T09:05:43Z</time>
      </trkpt>
      <trkpt lat="47.86114" lon="6.75478">
        <ele>692.1</ele>
        <time>2022-08-17T09:05:44Z</time>
      </trkpt>
      <trkpt lat="47.86114" lon="6.75479">
        <ele>692.2</ele>
        <time>2022-08-17T09:05:45Z</time>
      </trkpt>
      <trkpt lat="47.86115" lon="6.7548">
        <ele>691.9</ele>
        <time>2022-08-17T09:05:46Z</time>
      </trkpt>
      <trkpt lat="47.86115" lon="6.75481">
        <ele>692</ele>
        <time>2022-08-17T09:05:47Z</time>
      </trkpt>
      <trkpt lat="47.86116" lon="6.75482">
        <ele>691.6</ele>
        <time>2022-08-17T09:05:48Z</time>
      </trkpt>
      <trkpt lat="47.86116" lon="6.75483">
        <ele>691.7</ele>
        <time>2022-08-17T09:05:49Z</time>
      </trkpt>
      <trkpt lat="47.86117" lon="6.75484">
        <ele>691.4</ele>
        <time>2022-08-17T09:05:50Z</time>
      </trkpt>
      <trkpt lat="47.86117" lon="6.75485">
        <ele>691.5</ele>
        <time>2022-08-17T09:05:51Z</time>
      </trkpt>
      <trkpt lat="47.86118" lon="6.75486">
        <ele>691.1</ele>
        <time>2022-08-17T09:05:52Z</time>
      </trkpt>
      <trkpt lat="47.86118" lon="6.75487">
        <ele>691.3</ele>
        <time>2022-08-17T09:05:53Z</time>
      </trkpt>
      <trkpt lat="47.86119" lon="6.75489">
        <ele>691.1</ele>
        <time>2022-08-17T09:05:54Z</time>
      </trkpt>
      <trkpt lat="47.86119" lon="6.7549">
        <ele>691.2</ele>
        <time>2022-08-17T09:05:55Z</time>
      </trkpt>
      <trkpt lat="47.86119" lon="6.75491">
        <ele>691.3</ele>
        <time>2022-08-17T09:05:56Z</time>
      </trkpt>
      <trkpt lat="47.8612" lon="6.75492">
        <ele>691</ele>
        <time>2022-08-17T09:05:57Z</time>
      </trkpt>
      <trkpt lat="47.8612" lon="6.75494">
        <ele>691.3</ele>
        <time>2022-08-17T09:05:58Z</time>
      </trkpt>
      <trkpt lat="47.86121" lon="6.75495">
        <ele>691</ele>
        <time>2022-08-17T09:05:59Z</time>
      </trkpt>
      <trkpt lat="47.86121" lon="6.75496">
        <ele>691.1</ele>
        <time>2022-08-17T09:06:00Z</time>
      </trkpt>
      <trkpt lat="47.86122" lon="6.75498">
        <ele>691</ele>
        <time>2022-08-17T09:06:01Z</time>
      </trkpt>
      <trkpt lat="47.86122" lon="6.75499">
        <ele>691.1</ele>
        <time>2022-08-17T09:06:02Z</time>
      </trkpt>
      <trkpt lat="47.86123" lon="6.755">
        <ele>690.9</ele>
        <time>2022-08-17T09:06:03Z</time>
      </trkpt>
      <trkpt lat="47.86123" lon="6.75501">
        <ele>691</ele>
        <time>2022-08-17T09:06:04Z</time>
      </trkpt>
      <trkpt lat="47.86124" lon="6.75502">
        <ele>690.8</ele>
        <time>2022-08-17T09:06:05Z</time>
      </trkpt>
      <trkpt lat="47.86125" lon="6.75504">
        <ele>690.7</ele>
        <time>2022-08-17T09:06:06Z</time>
      </trkpt>
      <trkpt lat="47.86125" lon="6.75505">
        <ele>690.9</ele>
        <time>2022-08-17T09:06:07Z</time>
      </trkpt>
      <trkpt lat="47.86126" lon="6.75506">
        <ele>690.6</ele>
        <time>2022-08-17T09:06:08Z</time>
      </trkpt>
      <trkpt lat="47.86126" lon="6.75507">
        <ele>690.8</ele>
        <time>2022-08-17T09:06:09Z</time>
      </trkpt>
      <trkpt lat="47.86127" lon="6.75508">
        <ele>690.6</ele>
        <time>2022-08-17T09:06:10Z</time>
      </trkpt>
      <trkpt lat="47.86127" lon="6.7551">
        <ele>690.9</ele>
        <time>2022-08-17T09:06:11Z</time>
      </trkpt>
      <trkpt lat="47.86128" lon="6.75511">
        <ele>690.7</ele>
        <time>2022-08-17T09:06:12Z</time>
      </trkpt>
      <trkpt lat="47.86128" lon="6.75512">
        <ele>690.9</ele>
        <time>2022-08-17T09:06:13Z</time>
      </trkpt>
      <trkpt lat="47.86129" lon="6.75513">
        <ele>690.6</ele>
        <time>2022-08-17T09:06:14Z</time>
      </trkpt>
      <trkpt lat="47.8613" lon="6.75515">
        <ele>690.5</ele>
        <time>2022-08-17T09:06:15Z</time>
      </trkpt>
      <trkpt lat="47.86131" lon="6.75516">
        <ele>690.3</ele>
        <time>2022-08-17T09:06:16Z</time>
      </trkpt>
      <trkpt lat="47.86131" lon="6.75517">
        <ele>690.5</ele>
        <time>2022-08-17T09:06:17Z</time>
      </trkpt>
      <trkpt lat="47.86132" lon="6.75518">
        <ele>690.2</ele>
        <time>2022-08-17T09:06:18Z</time>
      </trkpt>
      <trkpt lat="47.86132" lon="6.75519">
        <ele>690.4</ele>
        <time>2022-08-17T09:06:19Z</time>
      </trkpt>
      <trkpt lat="47.86132" lon="6.75521">
        <ele>690.8</ele>
        <time>2022-08-17T09:06:20Z</time>
      </trkpt>
      <trkpt lat="47.86133" lon="6.75522">
        <ele>690.5</ele>
        <time>2022-08-17T09:06:21Z</time>
      </trkpt>
      <trkpt lat="47.86134" lon="6.75523">
        <ele>690.3</ele>
        <time>2022-08-17T09:06:22Z</time>
      </trkpt>
      <trkpt lat="47.86134" lon="6.75525">
        <ele>690.6</ele>
        <time>2022-08-17T09:06:23Z</time>
      </trkpt>
      <trkpt lat="47.86135" lon="6.75526">
        <ele>690.4</ele>
        <time>2022-08-17T09:06:24Z</time>
      </trkpt>
      <trkpt lat="47.86135" lon="6.75528">
        <ele>690.7</ele>
        <time>2022-08-17T09:06:25Z</time>
      </trkpt>
      <trkpt lat="47.86136" lon="6.75529">
        <ele>690.4</ele>
        <time>2022-08-17T09:06:26Z</time>
      </trkpt>
      <trkpt lat="47.86136" lon="6.7553">
        <ele>690.5</ele>
        <time>2022-08-17T09:06:27Z</time>
      </trkpt>
      <trkpt lat="47.86136" lon="6.75531">
        <ele>690.6</ele>
        <time>2022-08-17T09:06:28Z</time>
      </trkpt>
      <trkpt lat="47.86137" lon="6.75533">
        <ele>690.4</ele>
        <time>2022-08-17T09:06:29Z</time>
      </trkpt>
      <trkpt lat="47.86137" lon="6.75534">
        <ele>690.5</ele>
        <time>2022-08-17T09:06:30Z</time>
      </trkpt>
      <trkpt lat="47.86138" lon="6.75535">
        <ele>690.2</ele>
        <time>2022-08-17T09:06:31Z</time>
      </trkpt>
      <trkpt lat="47.86138" lon="6.75536">
        <ele>690.3</ele>
        <time>2022-08-17T09:06:32Z</time>
      </trkpt>
      <trkpt lat="47.86138" lon="6.75538">
        <ele>690.5</ele>
        <time>2022-08-17T09:06:33Z</time>
      </trkpt>
      <trkpt lat="47.86139" lon="6.75539">
        <ele>690.1</ele>
        <time>2022-08-17T09:06:34Z</time>
      </trkpt>
      <trkpt lat="47.86139" lon="6.7554">
        <ele>690.3</ele>
        <time>2022-08-17T09:06:35Z</time>
      </trkpt>
      <trkpt lat="47.8614" lon="6.75542">
        <ele>689.9</ele>
        <time>2022-08-17T09:06:36Z</time>
      </trkpt>
      <trkpt lat="47.8614" lon="6.75543">
        <ele>690</ele>
        <time>2022-08-17T09:06:37Z</time>
      </trkpt>
      <trkpt lat="47.8614" lon="6.75544">
        <ele>690.1</ele>
        <time>2022-08-17T09:06:38Z</time>
      </trkpt>
      <trkpt lat="47.86141" lon="6.75545">
        <ele>689.7</ele>
        <time>2022-08-17T09:06:39Z</time>
      </trkpt>
      <trkpt lat="47.86141" lon="6.75547">
        <ele>690</ele>
        <time>2022-08-17T09:06:40Z</time>
      </trkpt>
      <trkpt lat="47.86142" lon="6.75548">
        <ele>689.6</ele>
        <time>2022-08-17T09:06:41Z</time>
      </trkpt>
      <trkpt lat="47.86142" lon="6.7555">
        <ele>689.8</ele>
        <time>2022-08-17T09:06:42Z</time>
      </trkpt>
      <trkpt lat="47.86143" lon="6.75551">
        <ele>689.5</ele>
        <time>2022-08-17T09:06:43Z</time>
      </trkpt>
      <trkpt lat="47.86143" lon="6.75553">
        <ele>689.7</ele>
        <time>2022-08-17T09:06:44Z</time>
      </trkpt>
      <trkpt lat="47.86144" lon="6.75554">
        <ele>689.4</ele>
        <time>2022-08-17T09:06:45Z</time>
      </trkpt>
      <trkpt lat="47.86144" lon="6.75556">
        <ele>689.6</ele>
        <time>2022-08-17T09:06:46Z</time>
      </trkpt>
      <trkpt lat="47.86144" lon="6.75557">
        <ele>689.7</ele>
        <time>2022-08-17T09:06:47Z</time>
      </trkpt>
      <trkpt lat="47.86145" lon="6.75559">
        <ele>689.4</ele>
        <time>2022-08-17T09:06:48Z</time>
      </trkpt>
      <trkpt lat="47.86145" lon="6.7556">
        <ele>689.5</ele>
        <time>2022-08-17T09:06:49Z</time>
      </trkpt>
      <trkpt lat="47.86146" lon="6.75562">
        <ele>689.2</ele>
        <time>2022-08-17T09:06:50Z</time>
      </trkpt>
      <trkpt lat="47.86146" lon="6.75563">
        <ele>689.3</ele>
        <time>2022-08-17T09:06:51Z</time>
      </trkpt>
      <trkpt lat="47.86146" lon="6.75565">
        <ele>689.4</ele>
        <time>2022-08-17T09:06:52Z</time>
      </trkpt>
      <trkpt lat="47.86147" lon="6.75566">
        <ele>689.1</ele>
        <time>2022-08-17T09:06:53Z</time>
      </trkpt>
      <trkpt lat="47.86147" lon="6.75568">
        <ele>689.2</ele>
        <time>2022-08-17T09:06:54Z</time>
      </trkpt>
      <trkpt lat="47.86147" lon="6.75569">
        <ele>689.3</ele>
        <time>2022-08-17T09:06:55Z</time>
      </trkpt>
      <trkpt lat="47.86147" lon="6.75571">
        <ele>689.5</ele>
        <time>2022-08-17T09:06:56Z</time>
      </trkpt>
      <trkpt lat="47.86147" lon="6.75572">
        <ele>689.6</ele>
        <time>2022-08-17T09:06:57Z</time>
      </trkpt>
      <trkpt lat="47.86147" lon="6.75574">
        <ele>689.7</ele>
        <time>2022-08-17T09:06:58Z</time>
      </trkpt>
      <trkpt lat="47.86147" lon="6.75575">
        <ele>689.8</ele>
        <time>2022-08-17T09:06:59Z</time>
      </trkpt>
      <trkpt lat="47.86147" lon="6.75577">
        <ele>690</ele>
        <time>2022-08-17T09:07:00Z</time>
      </trkpt>
      <trkpt lat="47.86147" lon="6.75578">
        <ele>690.1</ele>
        <time>2022-08-17T09:07:01Z</time>
      </trkpt>
      <trkpt lat="47.86148" lon="6.7558">
        <ele>689.8</ele>
        <time>2022-08-17T09:07:02Z</time>
      </trkpt>
      <trkpt lat="47.86148" lon="6.75581">
        <ele>689.9</ele>
        <time>2022-08-17T09:07:03Z</time>
      </trkpt>
      <trkpt lat="47.86148" lon="6.75582">
        <ele>690</ele>
        <time>2022-08-17T09:07:04Z</time>
      </trkpt>
      <trkpt lat="47.86148" lon="6.75584">
        <ele>690.1</ele>
        <time>2022-08-17T09:07:05Z</time>
      </trkpt>
      <trkpt lat="47.86149" lon="6.75585">
        <ele>689.7</ele>
        <time>2022-08-17T09:07:06Z</time>
      </trkpt>
      <trkpt lat="47.86149" lon="6.75587">
        <ele>689.7</ele>
        <time>2022-08-17T09:07:07Z</time>
      </trkpt>
      <trkpt lat="47.86149" lon="6.75588">
        <ele>689.7</ele>
        <time>2022-08-17T09:07:08Z</time>
      </trkpt>
      <trkpt lat="47.86149" lon="6.7559">
        <ele>689.8</ele>
        <time>2022-08-17T09:07:09Z</time>
      </trkpt>
      <trkpt lat="47.86149" lon="6.75591">
        <ele>689.8</ele>
        <time>2022-08-17T09:07:10Z</time>
      </trkpt>
      <trkpt lat="47.86149" lon="6.75593">
        <ele>689.9</ele>
        <time>2022-08-17T09:07:11Z</time>
      </trkpt>
      <trkpt lat="47.86149" lon="6.75594">
        <ele>689.9</ele>
        <time>2022-08-17T09:07:12Z</time>
      </trkpt>
      <trkpt lat="47.86149" lon="6.75596">
        <ele>689.9</ele>
        <time>2022-08-17T09:07:13Z</time>
      </trkpt>
      <trkpt lat="47.86149" lon="6.75597">
        <ele>689.9</ele>
        <time>2022-08-17T09:07:14Z</time>
      </trkpt>
      <trkpt lat="47.86149" lon="6.75599">
        <ele>690</ele>
        <time>2022-08-17T09:07:15Z</time>
      </trkpt>
      <trkpt lat="47.8615" lon="6.756">
        <ele>689.6</ele>
        <time>2022-08-17T09:07:16Z</time>
      </trkpt>
      <trkpt lat="47.8615" lon="6.75602">
        <ele>689.6</ele>
        <time>2022-08-17T09:07:17Z</time>
      </trkpt>
      <trkpt lat="47.8615" lon="6.75603">
        <ele>689.6</ele>
        <time>2022-08-17T09:07:18Z</time>
      </trkpt>
      <trkpt lat="47.8615" lon="6.75605">
        <ele>689.7</ele>
        <time>2022-08-17T09:07:19Z</time>
      </trkpt>
      <trkpt lat="47.86151" lon="6.75607">
        <ele>689.2</ele>
        <time>2022-08-17T09:07:20Z</time>
      </trkpt>
      <trkpt lat="47.86151" lon="6.75608">
        <ele>689.3</ele>
        <time>2022-08-17T09:07:21Z</time>
      </trkpt>
      <trkpt lat="47.86151" lon="6.75609">
        <ele>689.3</ele>
        <time>2022-08-17T09:07:22Z</time>
      </trkpt>
      <trkpt lat="47.86152" lon="6.75611">
        <ele>688.9</ele>
        <time>2022-08-17T09:07:23Z</time>
      </trkpt>
      <trkpt lat="47.86152" lon="6.75612">
        <ele>689</ele>
        <time>2022-08-17T09:07:24Z</time>
      </trkpt>
      <trkpt lat="47.86153" lon="6.75613">
        <ele>688.6</ele>
        <time>2022-08-17T09:07:25Z</time>
      </trkpt>
      <trkpt lat="47.86153" lon="6.75615">
        <ele>688.9</ele>
        <time>2022-08-17T09:07:26Z</time>
      </trkpt>
      <trkpt lat="47.86154" lon="6.75616">
        <ele>688.5</ele>
        <time>2022-08-17T09:07:27Z</time>
      </trkpt>
      <trkpt lat="47.86154" lon="6.75617">
        <ele>688.7</ele>
        <time>2022-08-17T09:07:28Z</time>
      </trkpt>
      <trkpt lat="47.86154" lon="6.75619">
        <ele>688.9</ele>
        <time>2022-08-17T09:07:29Z</time>
      </trkpt>
      <trkpt lat="47.86154" lon="6.75621">
        <ele>689.2</ele>
        <time>2022-08-17T09:07:30Z</time>
      </trkpt>
      <trkpt lat="47.86154" lon="6.75622">
        <ele>689.3</ele>
        <time>2022-08-17T09:07:31Z</time>
      </trkpt>
      <trkpt lat="47.86154" lon="6.75624">
        <ele>689.5</ele>
        <time>2022-08-17T09:07:32Z</time>
      </trkpt>
      <trkpt lat="47.86154" lon="6.75625">
        <ele>689.7</ele>
        <time>2022-08-17T09:07:33Z</time>
      </trkpt>
      <trkpt lat="47.86154" lon="6.75627">
        <ele>689.9</ele>
        <time>2022-08-17T09:07:34Z</time>
      </trkpt>
      <trkpt lat="47.86155" lon="6.75628">
        <ele>689.5</ele>
        <time>2022-08-17T09:07:35Z</time>
      </trkpt>
      <trkpt lat="47.86155" lon="6.7563">
        <ele>689.8</ele>
        <time>2022-08-17T09:07:36Z</time>
      </trkpt>
      <trkpt lat="47.86156" lon="6.75631">
        <ele>689.4</ele>
        <time>2022-08-17T09:07:37Z</time>
      </trkpt>
      <trkpt lat="47.86156" lon="6.75632">
        <ele>689.5</ele>
        <time>2022-08-17T09:07:38Z</time>
      </trkpt>
      <trkpt lat="47.86157" lon="6.75634">
        <ele>689.3</ele>
        <time>2022-08-17T09:07:39Z</time>
      </trkpt>
      <trkpt lat="47.86158" lon="6.75635">
        <ele>688.9</ele>
        <time>2022-08-17T09:07:40Z</time>
      </trkpt>
      <trkpt lat="47.86158" lon="6.75637">
        <ele>689.1</ele>
        <time>2022-08-17T09:07:41Z</time>
      </trkpt>
      <trkpt lat="47.86159" lon="6.75639">
        <ele>688.9</ele>
        <time>2022-08-17T09:07:42Z</time>
      </trkpt>
      <trkpt lat="47.8616" lon="6.75641">
        <ele>689</ele>
        <time>2022-08-17T09:07:43Z</time>
      </trkpt>
      <trkpt lat="47.8616" lon="6.75643">
        <ele>689.6</ele>
        <time>2022-08-17T09:07:44Z</time>
      </trkpt>
      <trkpt lat="47.86161" lon="6.75644">
        <ele>689.4</ele>
        <time>2022-08-17T09:07:45Z</time>
      </trkpt>
      <trkpt lat="47.86161" lon="6.75646">
        <ele>690</ele>
        <time>2022-08-17T09:07:46Z</time>
      </trkpt>
      <trkpt lat="47.86162" lon="6.75647">
        <ele>689.8</ele>
        <time>2022-08-17T09:07:47Z</time>
      </trkpt>
      <trkpt lat="47.86162" lon="6.75648">
        <ele>690.1</ele>
        <time>2022-08-17T09:07:48Z</time>
      </trkpt>
      <trkpt lat="47.86163" lon="6.75649">
        <ele>690</ele>
        <time>2022-08-17T09:07:49Z</time>
      </trkpt>
      <trkpt lat="47.86164" lon="6.7565">
        <ele>689.8</ele>
        <time>2022-08-17T09:07:50Z</time>
      </trkpt>
      <trkpt lat="47.86164" lon="6.75651">
        <ele>690.1</ele>
        <time>2022-08-17T09:07:51Z</time>
      </trkpt>
      <trkpt lat="47.86165" lon="6.75652">
        <ele>690</ele>
        <time>2022-08-17T09:07:52Z</time>
      </trkpt>
      <trkpt lat="47.86165" lon="6.75653">
        <ele>690.3</ele>
        <time>2022-08-17T09:07:53Z</time>
      </trkpt>
      <trkpt lat="47.86165" lon="6.75655">
        <ele>691</ele>
        <time>2022-08-17T09:07:54Z</time>
      </trkpt>
      <trkpt lat="47.86165" lon="6.75656">
        <ele>691.3</ele>
        <time>2022-08-17T09:07:55Z</time>
      </trkpt>
      <trkpt lat="47.86165" lon="6.75657">
        <ele>691.6</ele>
        <time>2022-08-17T09:07:56Z</time>
      </trkpt>
      <trkpt lat="47.86165" lon="6.75658">
        <ele>691.9</ele>
        <time>2022-08-17T09:07:57Z</time>
      </trkpt>
      <trkpt lat="47.86165" lon="6.75659">
        <ele>692.2</ele>
        <time>2022-08-17T09:07:58Z</time>
      </trkpt>
      <trkpt lat="47.86165" lon="6.7566">
        <ele>692.5</ele>
        <time>2022-08-17T09:07:59Z</time>
      </trkpt>
      <trkpt lat="47.86166" lon="6.75661">
        <ele>692.4</ele>
        <time>2022-08-17T09:08:00Z</time>
      </trkpt>
      <trkpt lat="47.86166" lon="6.75662">
        <ele>692.8</ele>
        <time>2022-08-17T09:08:01Z</time>
      </trkpt>
      <trkpt lat="47.86166" lon="6.75663">
        <ele>693.1</ele>
        <time>2022-08-17T09:08:02Z</time>
      </trkpt>
      <trkpt lat="47.86167" lon="6.75664">
        <ele>693.1</ele>
        <time>2022-08-17T09:08:03Z</time>
      </trkpt>
      <trkpt lat="47.86167" lon="6.75665">
        <ele>693.4</ele>
        <time>2022-08-17T09:08:04Z</time>
      </trkpt>
      <trkpt lat="47.86168" lon="6.75666">
        <ele>693.5</ele>
        <time>2022-08-17T09:08:05Z</time>
      </trkpt>
      <trkpt lat="47.86168" lon="6.75667">
        <ele>693.8</ele>
        <time>2022-08-17T09:08:06Z</time>
      </trkpt>
      <trkpt lat="47.86169" lon="6.75668">
        <ele>693.8</ele>
        <time>2022-08-17T09:08:07Z</time>
      </trkpt>
      <trkpt lat="47.86169" lon="6.75669">
        <ele>694.1</ele>
        <time>2022-08-17T09:08:08Z</time>
      </trkpt>
      <trkpt lat="47.86169" lon="6.75671">
        <ele>694.6</ele>
        <time>2022-08-17T09:08:09Z</time>
      </trkpt>
      <trkpt lat="47.86169" lon="6.75672">
        <ele>694.9</ele>
        <time>2022-08-17T09:08:10Z</time>
      </trkpt>
      <trkpt lat="47.86169" lon="6.75673">
        <ele>695.1</ele>
        <time>2022-08-17T09:08:11Z</time>
      </trkpt>
      <trkpt lat="47.86169" lon="6.75674">
        <ele>695.4</ele>
        <time>2022-08-17T09:08:12Z</time>
      </trkpt>
      <trkpt lat="47.86169" lon="6.75675">
        <ele>695.7</ele>
        <time>2022-08-17T09:08:13Z</time>
      </trkpt>
      <trkpt lat="47.8617" lon="6.75676">
        <ele>695.8</ele>
        <time>2022-08-17T09:08:14Z</time>
      </trkpt>
      <trkpt lat="47.8617" lon="6.75678">
        <ele>696.3</ele>
        <time>2022-08-17T09:08:15Z</time>
      </trkpt>
      <trkpt lat="47.8617" lon="6.75679">
        <ele>696.5</ele>
        <time>2022-08-17T09:08:16Z</time>
      </trkpt>
      <trkpt lat="47.86171" lon="6.7568">
        <ele>696.6</ele>
        <time>2022-08-17T09:08:17Z</time>
      </trkpt>
      <trkpt lat="47.86171" lon="6.75681">
        <ele>696.9</ele>
        <time>2022-08-17T09:08:18Z</time>
      </trkpt>
      <trkpt lat="47.86171" lon="6.75682">
        <ele>697.2</ele>
        <time>2022-08-17T09:08:19Z</time>
      </trkpt>
      <trkpt lat="47.86172" lon="6.75683">
        <ele>697.3</ele>
        <time>2022-08-17T09:08:20Z</time>
      </trkpt>
      <trkpt lat="47.86173" lon="6.75683">
        <ele>697.2</ele>
        <time>2022-08-17T09:08:21Z</time>
      </trkpt>
      <trkpt lat="47.86173" lon="6.75684">
        <ele>697.4</ele>
        <time>2022-08-17T09:08:22Z</time>
      </trkpt>
      <trkpt lat="47.86174" lon="6.75684">
        <ele>697.3</ele>
        <time>2022-08-17T09:08:23Z</time>
      </trkpt>
      <trkpt lat="47.86175" lon="6.75685">
        <ele>697.4</ele>
        <time>2022-08-17T09:08:24Z</time>
      </trkpt>
      <trkpt lat="47.86176" lon="6.75685">
        <ele>697.3</ele>
        <time>2022-08-17T09:08:25Z</time>
      </trkpt>
      <trkpt lat="47.86177" lon="6.75686">
        <ele>697.4</ele>
        <time>2022-08-17T09:08:26Z</time>
      </trkpt>
      <trkpt lat="47.86178" lon="6.75686">
        <ele>697.3</ele>
        <time>2022-08-17T09:08:27Z</time>
      </trkpt>
      <trkpt lat="47.86178" lon="6.75687">
        <ele>697.6</ele>
        <time>2022-08-17T09:08:28Z</time>
      </trkpt>
      <trkpt lat="47.86179" lon="6.75688">
        <ele>697.7</ele>
        <time>2022-08-17T09:08:29Z</time>
      </trkpt>
      <trkpt lat="47.8618" lon="6.75688">
        <ele>697.6</ele>
        <time>2022-08-17T09:08:30Z</time>
      </trkpt>
      <trkpt lat="47.8618" lon="6.75689">
        <ele>697.9</ele>
        <time>2022-08-17T09:08:31Z</time>
      </trkpt>
      <trkpt lat="47.86181" lon="6.7569">
        <ele>698.1</ele>
        <time>2022-08-17T09:08:32Z</time>
      </trkpt>
      <trkpt lat="47.86182" lon="6.7569">
        <ele>698</ele>
        <time>2022-08-17T09:08:33Z</time>
      </trkpt>
      <trkpt lat="47.86182" lon="6.75691">
        <ele>698.3</ele>
        <time>2022-08-17T09:08:34Z</time>
      </trkpt>
      <trkpt lat="47.86183" lon="6.75692">
        <ele>698.5</ele>
        <time>2022-08-17T09:08:35Z</time>
      </trkpt>
      <trkpt lat="47.86184" lon="6.75693">
        <ele>698.7</ele>
        <time>2022-08-17T09:08:37Z</time>
      </trkpt>
      <trkpt lat="47.86185" lon="6.75694">
        <ele>698.9</ele>
        <time>2022-08-17T09:08:38Z</time>
      </trkpt>
      <trkpt lat="47.86186" lon="6.75695">
        <ele>699</ele>
        <time>2022-08-17T09:08:40Z</time>
      </trkpt>
      <trkpt lat="47.86187" lon="6.75696">
        <ele>699.1</ele>
        <time>2022-08-17T09:08:41Z</time>
      </trkpt>
      <trkpt lat="47.86187" lon="6.75698">
        <ele>699.5</ele>
        <time>2022-08-17T09:08:42Z</time>
      </trkpt>
      <trkpt lat="47.86188" lon="6.75699">
        <ele>699.6</ele>
        <time>2022-08-17T09:08:43Z</time>
      </trkpt>
      <trkpt lat="47.86188" lon="6.757">
        <ele>699.8</ele>
        <time>2022-08-17T09:08:44Z</time>
      </trkpt>
      <trkpt lat="47.86188" lon="6.75701">
        <ele>700</ele>
        <time>2022-08-17T09:08:45Z</time>
      </trkpt>
      <trkpt lat="47.86189" lon="6.75702">
        <ele>700.1</ele>
        <time>2022-08-17T09:08:46Z</time>
      </trkpt>
      <trkpt lat="47.8619" lon="6.75703">
        <ele>700.2</ele>
        <time>2022-08-17T09:08:48Z</time>
      </trkpt>
      <trkpt lat="47.8619" lon="6.75704">
        <ele>700.4</ele>
        <time>2022-08-17T09:08:49Z</time>
      </trkpt>
      <trkpt lat="47.86191" lon="6.75704">
        <ele>700.2</ele>
        <time>2022-08-17T09:08:50Z</time>
      </trkpt>
      <trkpt lat="47.86191" lon="6.75705">
        <ele>700.4</ele>
        <time>2022-08-17T09:08:51Z</time>
      </trkpt>
      <trkpt lat="47.86192" lon="6.75706">
        <ele>700.5</ele>
        <time>2022-08-17T09:08:52Z</time>
      </trkpt>
      <trkpt lat="47.86193" lon="6.75707">
        <ele>700.5</ele>
        <time>2022-08-17T09:08:53Z</time>
      </trkpt>
      <trkpt lat="47.86193" lon="6.75708">
        <ele>700.7</ele>
        <time>2022-08-17T09:08:54Z</time>
      </trkpt>
      <trkpt lat="47.86194" lon="6.75709">
        <ele>700.7</ele>
        <time>2022-08-17T09:08:55Z</time>
      </trkpt>
      <trkpt lat="47.86194" lon="6.7571">
        <ele>700.9</ele>
        <time>2022-08-17T09:08:56Z</time>
      </trkpt>
      <trkpt lat="47.86195" lon="6.75711">
        <ele>700.7</ele>
        <time>2022-08-17T09:08:57Z</time>
      </trkpt>
      <trkpt lat="47.86196" lon="6.75712">
        <ele>700.4</ele>
        <time>2022-08-17T09:08:58Z</time>
      </trkpt>
      <trkpt lat="47.86196" lon="6.75713">
        <ele>700.6</ele>
        <time>2022-08-17T09:08:59Z</time>
      </trkpt>
      <trkpt lat="47.86196" lon="6.75715">
        <ele>701</ele>
        <time>2022-08-17T09:09:00Z</time>
      </trkpt>
      <trkpt lat="47.86197" lon="6.75716">
        <ele>700.7</ele>
        <time>2022-08-17T09:09:01Z</time>
      </trkpt>
      <trkpt lat="47.86197" lon="6.75717">
        <ele>700.9</ele>
        <time>2022-08-17T09:09:02Z</time>
      </trkpt>
      <trkpt lat="47.86198" lon="6.75718">
        <ele>700.6</ele>
        <time>2022-08-17T09:09:03Z</time>
      </trkpt>
      <trkpt lat="47.86198" lon="6.7572">
        <ele>700.9</ele>
        <time>2022-08-17T09:09:04Z</time>
      </trkpt>
      <trkpt lat="47.86199" lon="6.75721">
        <ele>700.6</ele>
        <time>2022-08-17T09:09:05Z</time>
      </trkpt>
      <trkpt lat="47.86199" lon="6.75722">
        <ele>700.8</ele>
        <time>2022-08-17T09:09:06Z</time>
      </trkpt>
      <trkpt lat="47.86199" lon="6.75723">
        <ele>700.9</ele>
        <time>2022-08-17T09:09:07Z</time>
      </trkpt>
      <trkpt lat="47.862" lon="6.75724">
        <ele>700.4</ele>
        <time>2022-08-17T09:09:08Z</time>
      </trkpt>
      <trkpt lat="47.862" lon="6.75726">
        <ele>700.5</ele>
        <time>2022-08-17T09:09:09Z</time>
      </trkpt>
      <trkpt lat="47.86201" lon="6.75727">
        <ele>700</ele>
        <time>2022-08-17T09:09:10Z</time>
      </trkpt>
      <trkpt lat="47.86201" lon="6.75728">
        <ele>700</ele>
        <time>2022-08-17T09:09:11Z</time>
      </trkpt>
      <trkpt lat="47.86201" lon="6.75729">
        <ele>700</ele>
        <time>2022-08-17T09:09:12Z</time>
      </trkpt>
      <trkpt lat="47.86202" lon="6.75731">
        <ele>699.6</ele>
        <time>2022-08-17T09:09:14Z</time>
      </trkpt>
      <trkpt lat="47.86202" lon="6.75732">
        <ele>699.7</ele>
        <time>2022-08-17T09:09:15Z</time>
      </trkpt>
      <trkpt lat="47.86203" lon="6.75733">
        <ele>699.2</ele>
        <time>2022-08-17T09:09:16Z</time>
      </trkpt>
      <trkpt lat="47.86203" lon="6.75734">
        <ele>699.3</ele>
        <time>2022-08-17T09:09:17Z</time>
      </trkpt>
      <trkpt lat="47.86204" lon="6.75735">
        <ele>698.8</ele>
        <time>2022-08-17T09:09:18Z</time>
      </trkpt>
      <trkpt lat="47.86204" lon="6.75737">
        <ele>698.9</ele>
        <time>2022-08-17T09:09:19Z</time>
      </trkpt>
      <trkpt lat="47.86205" lon="6.75738">
        <ele>698.5</ele>
        <time>2022-08-17T09:09:20Z</time>
      </trkpt>
      <trkpt lat="47.86206" lon="6.75739">
        <ele>698.1</ele>
        <time>2022-08-17T09:09:21Z</time>
      </trkpt>
      <trkpt lat="47.86207" lon="6.7574">
        <ele>697.7</ele>
        <time>2022-08-17T09:09:22Z</time>
      </trkpt>
      <trkpt lat="47.86208" lon="6.75741">
        <ele>697.3</ele>
        <time>2022-08-17T09:09:23Z</time>
      </trkpt>
      <trkpt lat="47.86208" lon="6.75742">
        <ele>697.4</ele>
        <time>2022-08-17T09:09:24Z</time>
      </trkpt>
      <trkpt lat="47.86209" lon="6.75743">
        <ele>697</ele>
        <time>2022-08-17T09:09:25Z</time>
      </trkpt>
      <trkpt lat="47.86209" lon="6.75744">
        <ele>697</ele>
        <time>2022-08-17T09:09:26Z</time>
      </trkpt>
      <trkpt lat="47.8621" lon="6.75745">
        <ele>696.6</ele>
        <time>2022-08-17T09:09:27Z</time>
      </trkpt>
      <trkpt lat="47.8621" lon="6.75747">
        <ele>696.7</ele>
        <time>2022-08-17T09:09:28Z</time>
      </trkpt>
      <trkpt lat="47.8621" lon="6.75748">
        <ele>696.8</ele>
        <time>2022-08-17T09:09:29Z</time>
      </trkpt>
      <trkpt lat="47.8621" lon="6.75749">
        <ele>696.8</ele>
        <time>2022-08-17T09:09:30Z</time>
      </trkpt>
      <trkpt lat="47.8621" lon="6.7575">
        <ele>696.8</ele>
        <time>2022-08-17T09:09:31Z</time>
      </trkpt>
      <trkpt lat="47.8621" lon="6.75751">
        <ele>696.8</ele>
        <time>2022-08-17T09:09:32Z</time>
      </trkpt>
      <trkpt lat="47.8621" lon="6.75752">
        <ele>696.8</ele>
        <time>2022-08-17T09:09:33Z</time>
      </trkpt>
      <trkpt lat="47.86211" lon="6.75753">
        <ele>696.4</ele>
        <time>2022-08-17T09:09:34Z</time>
      </trkpt>
      <trkpt lat="47.86211" lon="6.75754">
        <ele>696.4</ele>
        <time>2022-08-17T09:09:35Z</time>
      </trkpt>
      <trkpt lat="47.86211" lon="6.75756">
        <ele>696.3</ele>
        <time>2022-08-17T09:09:36Z</time>
      </trkpt>
      <trkpt lat="47.86211" lon="6.75757">
        <ele>696.3</ele>
        <time>2022-08-17T09:09:37Z</time>
      </trkpt>
      <trkpt lat="47.86211" lon="6.75758">
        <ele>696.3</ele>
        <time>2022-08-17T09:09:38Z</time>
      </trkpt>
      <trkpt lat="47.86211" lon="6.75759">
        <ele>696.3</ele>
        <time>2022-08-17T09:09:39Z</time>
      </trkpt>
      <trkpt lat="47.86211" lon="6.7576">
        <ele>696.2</ele>
        <time>2022-08-17T09:09:40Z</time>
      </trkpt>
      <trkpt lat="47.86212" lon="6.75761">
        <ele>695.8</ele>
        <time>2022-08-17T09:09:41Z</time>
      </trkpt>
      <trkpt lat="47.86212" lon="6.75762">
        <ele>695.8</ele>
        <time>2022-08-17T09:09:43Z</time>
      </trkpt>
      <trkpt lat="47.86212" lon="6.75763">
        <ele>695.8</ele>
        <time>2022-08-17T09:09:44Z</time>
      </trkpt>
      <trkpt lat="47.86212" lon="6.75764">
        <ele>695.7</ele>
        <time>2022-08-17T09:09:45Z</time>
      </trkpt>
      <trkpt lat="47.86211" lon="6.75765">
        <ele>696.1</ele>
        <time>2022-08-17T09:09:46Z</time>
      </trkpt>
      <trkpt lat="47.86211" lon="6.75766">
        <ele>696.1</ele>
        <time>2022-08-17T09:09:47Z</time>
      </trkpt>
      <trkpt lat="47.86211" lon="6.75768">
        <ele>696.1</ele>
        <time>2022-08-17T09:09:48Z</time>
      </trkpt>
      <trkpt lat="47.86211" lon="6.75769">
        <ele>696</ele>
        <time>2022-08-17T09:09:49Z</time>
      </trkpt>
      <trkpt lat="47.86211" lon="6.7577">
        <ele>696</ele>
        <time>2022-08-17T09:09:50Z</time>
      </trkpt>
      <trkpt lat="47.8621" lon="6.75771">
        <ele>696.4</ele>
        <time>2022-08-17T09:09:51Z</time>
      </trkpt>
      <trkpt lat="47.8621" lon="6.75772">
        <ele>696.4</ele>
        <time>2022-08-17T09:09:52Z</time>
      </trkpt>
      <trkpt lat="47.8621" lon="6.75774">
        <ele>696.4</ele>
        <time>2022-08-17T09:09:53Z</time>
      </trkpt>
      <trkpt lat="47.8621" lon="6.75775">
        <ele>696.3</ele>
        <time>2022-08-17T09:09:54Z</time>
      </trkpt>
      <trkpt lat="47.8621" lon="6.75776">
        <ele>696.3</ele>
        <time>2022-08-17T09:09:55Z</time>
      </trkpt>
      <trkpt lat="47.8621" lon="6.75777">
        <ele>696.3</ele>
        <time>2022-08-17T09:09:56Z</time>
      </trkpt>
      <trkpt lat="47.8621" lon="6.75778">
        <ele>696.3</ele>
        <time>2022-08-17T09:09:57Z</time>
      </trkpt>
      <trkpt lat="47.8621" lon="6.75779">
        <ele>696.2</ele>
        <time>2022-08-17T09:09:58Z</time>
      </trkpt>
      <trkpt lat="47.8621" lon="6.7578">
        <ele>696.1</ele>
        <time>2022-08-17T09:09:59Z</time>
      </trkpt>
      <trkpt lat="47.8621" lon="6.75782">
        <ele>695.9</ele>
        <time>2022-08-17T09:10:00Z</time>
      </trkpt>
      <trkpt lat="47.8621" lon="6.75783">
        <ele>695.8</ele>
        <time>2022-08-17T09:10:01Z</time>
      </trkpt>
      <trkpt lat="47.8621" lon="6.75784">
        <ele>695.7</ele>
        <time>2022-08-17T09:10:02Z</time>
      </trkpt>
      <trkpt lat="47.86211" lon="6.75786">
        <ele>695.1</ele>
        <time>2022-08-17T09:10:03Z</time>
      </trkpt>
      <trkpt lat="47.8621" lon="6.75787">
        <ele>695.5</ele>
        <time>2022-08-17T09:10:04Z</time>
      </trkpt>
      <trkpt lat="47.8621" lon="6.75789">
        <ele>695.3</ele>
        <time>2022-08-17T09:10:05Z</time>
      </trkpt>
      <trkpt lat="47.8621" lon="6.7579">
        <ele>695.2</ele>
        <time>2022-08-17T09:10:06Z</time>
      </trkpt>
      <trkpt lat="47.8621" lon="6.75792">
        <ele>695</ele>
        <time>2022-08-17T09:10:07Z</time>
      </trkpt>
      <trkpt lat="47.8621" lon="6.75794">
        <ele>694.9</ele>
        <time>2022-08-17T09:10:08Z</time>
      </trkpt>
      <trkpt lat="47.86209" lon="6.75795">
        <ele>695.2</ele>
        <time>2022-08-17T09:10:09Z</time>
      </trkpt>
      <trkpt lat="47.8621" lon="6.75797">
        <ele>694.6</ele>
        <time>2022-08-17T09:10:10Z</time>
      </trkpt>
      <trkpt lat="47.8621" lon="6.75798">
        <ele>694.5</ele>
        <time>2022-08-17T09:10:11Z</time>
      </trkpt>
      <trkpt lat="47.8621" lon="6.758">
        <ele>694.3</ele>
        <time>2022-08-17T09:10:12Z</time>
      </trkpt>
      <trkpt lat="47.8621" lon="6.75802">
        <ele>694.2</ele>
        <time>2022-08-17T09:10:13Z</time>
      </trkpt>
      <trkpt lat="47.8621" lon="6.75804">
        <ele>694</ele>
        <time>2022-08-17T09:10:14Z</time>
      </trkpt>
      <trkpt lat="47.8621" lon="6.75805">
        <ele>693.9</ele>
        <time>2022-08-17T09:10:15Z</time>
      </trkpt>
      <trkpt lat="47.86209" lon="6.75807">
        <ele>694.2</ele>
        <time>2022-08-17T09:10:16Z</time>
      </trkpt>
      <trkpt lat="47.86209" lon="6.75809">
        <ele>694</ele>
        <time>2022-08-17T09:10:17Z</time>
      </trkpt>
      <trkpt lat="47.86209" lon="6.7581">
        <ele>694</ele>
        <time>2022-08-17T09:10:18Z</time>
      </trkpt>
      <trkpt lat="47.86209" lon="6.75811">
        <ele>693.9</ele>
        <time>2022-08-17T09:10:19Z</time>
      </trkpt>
      <trkpt lat="47.86209" lon="6.75812">
        <ele>693.9</ele>
        <time>2022-08-17T09:10:20Z</time>
      </trkpt>
      <trkpt lat="47.86209" lon="6.75814">
        <ele>693.8</ele>
        <time>2022-08-17T09:10:21Z</time>
      </trkpt>
      <trkpt lat="47.86209" lon="6.75815">
        <ele>693.7</ele>
        <time>2022-08-17T09:10:22Z</time>
      </trkpt>
      <trkpt lat="47.86209" lon="6.75816">
        <ele>693.7</ele>
        <time>2022-08-17T09:10:23Z</time>
      </trkpt>
      <trkpt lat="47.86209" lon="6.75818">
        <ele>693.6</ele>
        <time>2022-08-17T09:10:24Z</time>
      </trkpt>
      <trkpt lat="47.86209" lon="6.75819">
        <ele>693.5</ele>
        <time>2022-08-17T09:10:25Z</time>
      </trkpt>
      <trkpt lat="47.86209" lon="6.75821">
        <ele>693.4</ele>
        <time>2022-08-17T09:10:26Z</time>
      </trkpt>
      <trkpt lat="47.86209" lon="6.75822">
        <ele>693.3</ele>
        <time>2022-08-17T09:10:27Z</time>
      </trkpt>
      <trkpt lat="47.86209" lon="6.75823">
        <ele>693.3</ele>
        <time>2022-08-17T09:10:28Z</time>
      </trkpt>
      <trkpt lat="47.86209" lon="6.75825">
        <ele>693.2</ele>
        <time>2022-08-17T09:10:29Z</time>
      </trkpt>
      <trkpt lat="47.86209" lon="6.75826">
        <ele>693.1</ele>
        <time>2022-08-17T09:10:30Z</time>
      </trkpt>
      <trkpt lat="47.86209" lon="6.75827">
        <ele>693.1</ele>
        <time>2022-08-17T09:10:31Z</time>
      </trkpt>
      <trkpt lat="47.86209" lon="6.75829">
        <ele>692.9</ele>
        <time>2022-08-17T09:10:32Z</time>
      </trkpt>
      <trkpt lat="47.86209" lon="6.7583">
        <ele>692.9</ele>
        <time>2022-08-17T09:10:33Z</time>
      </trkpt>
      <trkpt lat="47.86209" lon="6.75832">
        <ele>692.8</ele>
        <time>2022-08-17T09:10:34Z</time>
      </trkpt>
      <trkpt lat="47.8621" lon="6.75833">
        <ele>692.3</ele>
        <time>2022-08-17T09:10:35Z</time>
      </trkpt>
      <trkpt lat="47.8621" lon="6.75834">
        <ele>692.3</ele>
        <time>2022-08-17T09:10:36Z</time>
      </trkpt>
      <trkpt lat="47.8621" lon="6.75836">
        <ele>692.2</ele>
        <time>2022-08-17T09:10:37Z</time>
      </trkpt>
      <trkpt lat="47.8621" lon="6.75837">
        <ele>692.1</ele>
        <time>2022-08-17T09:10:38Z</time>
      </trkpt>
      <trkpt lat="47.8621" lon="6.75839">
        <ele>692.1</ele>
        <time>2022-08-17T09:10:39Z</time>
      </trkpt>
      <trkpt lat="47.8621" lon="6.7584">
        <ele>692</ele>
        <time>2022-08-17T09:10:40Z</time>
      </trkpt>
      <trkpt lat="47.8621" lon="6.75841">
        <ele>692</ele>
        <time>2022-08-17T09:10:41Z</time>
      </trkpt>
      <trkpt lat="47.86209" lon="6.75843">
        <ele>692.4</ele>
        <time>2022-08-17T09:10:42Z</time>
      </trkpt>
      <trkpt lat="47.86209" lon="6.75844">
        <ele>692.3</ele>
        <time>2022-08-17T09:10:43Z</time>
      </trkpt>
      <trkpt lat="47.86209" lon="6.75845">
        <ele>692.3</ele>
        <time>2022-08-17T09:10:44Z</time>
      </trkpt>
      <trkpt lat="47.86209" lon="6.75846">
        <ele>692.3</ele>
        <time>2022-08-17T09:10:45Z</time>
      </trkpt>
      <trkpt lat="47.86209" lon="6.75848">
        <ele>692.2</ele>
        <time>2022-08-17T09:10:46Z</time>
      </trkpt>
      <trkpt lat="47.86209" lon="6.75849">
        <ele>692.1</ele>
        <time>2022-08-17T09:10:47Z</time>
      </trkpt>
      <trkpt lat="47.86209" lon="6.7585">
        <ele>692.1</ele>
        <time>2022-08-17T09:10:48Z</time>
      </trkpt>
      <trkpt lat="47.86209" lon="6.75852">
        <ele>692</ele>
        <time>2022-08-17T09:10:49Z</time>
      </trkpt>
      <trkpt lat="47.86209" lon="6.75853">
        <ele>692</ele>
        <time>2022-08-17T09:10:50Z</time>
      </trkpt>
      <trkpt lat="47.86209" lon="6.75855">
        <ele>691.9</ele>
        <time>2022-08-17T09:10:51Z</time>
      </trkpt>
      <trkpt lat="47.86209" lon="6.75857">
        <ele>691.9</ele>
        <time>2022-08-17T09:10:52Z</time>
      </trkpt>
      <trkpt lat="47.8621" lon="6.75858">
        <ele>691.4</ele>
        <time>2022-08-17T09:10:53Z</time>
      </trkpt>
      <trkpt lat="47.8621" lon="6.7586">
        <ele>691.3</ele>
        <time>2022-08-17T09:10:54Z</time>
      </trkpt>
      <trkpt lat="47.8621" lon="6.75861">
        <ele>691.3</ele>
        <time>2022-08-17T09:10:55Z</time>
      </trkpt>
      <trkpt lat="47.8621" lon="6.75863">
        <ele>691.3</ele>
        <time>2022-08-17T09:10:56Z</time>
      </trkpt>
      <trkpt lat="47.86211" lon="6.75864">
        <ele>690.8</ele>
        <time>2022-08-17T09:10:57Z</time>
      </trkpt>
      <trkpt lat="47.86211" lon="6.75866">
        <ele>690.8</ele>
        <time>2022-08-17T09:10:58Z</time>
      </trkpt>
      <trkpt lat="47.86211" lon="6.75867">
        <ele>690.8</ele>
        <time>2022-08-17T09:10:59Z</time>
      </trkpt>
      <trkpt lat="47.86211" lon="6.75869">
        <ele>690.8</ele>
        <time>2022-08-17T09:11:00Z</time>
      </trkpt>
      <trkpt lat="47.86211" lon="6.7587">
        <ele>690.8</ele>
        <time>2022-08-17T09:11:01Z</time>
      </trkpt>
      <trkpt lat="47.86211" lon="6.75872">
        <ele>690.8</ele>
        <time>2022-08-17T09:11:02Z</time>
      </trkpt>
      <trkpt lat="47.86211" lon="6.75873">
        <ele>690.8</ele>
        <time>2022-08-17T09:11:03Z</time>
      </trkpt>
      <trkpt lat="47.86211" lon="6.75875">
        <ele>690.7</ele>
        <time>2022-08-17T09:11:04Z</time>
      </trkpt>
      <trkpt lat="47.86211" lon="6.75876">
        <ele>690.7</ele>
        <time>2022-08-17T09:11:05Z</time>
      </trkpt>
      <trkpt lat="47.86211" lon="6.75877">
        <ele>690.7</ele>
        <time>2022-08-17T09:11:06Z</time>
      </trkpt>
      <trkpt lat="47.86211" lon="6.75878">
        <ele>690.7</ele>
        <time>2022-08-17T09:11:07Z</time>
      </trkpt>
      <trkpt lat="47.86211" lon="6.75879">
        <ele>690.7</ele>
        <time>2022-08-17T09:11:08Z</time>
      </trkpt>
      <trkpt lat="47.86211" lon="6.7588">
        <ele>690.7</ele>
        <time>2022-08-17T09:11:09Z</time>
      </trkpt>
      <trkpt lat="47.86211" lon="6.75881">
        <ele>690.7</ele>
        <time>2022-08-17T09:11:10Z</time>
      </trkpt>
      <trkpt lat="47.86211" lon="6.75882">
        <ele>690.7</ele>
        <time>2022-08-17T09:11:11Z</time>
      </trkpt>
      <trkpt lat="47.86211" lon="6.75883">
        <ele>690.7</ele>
        <time>2022-08-17T09:11:12Z</time>
      </trkpt>
      <trkpt lat="47.86211" lon="6.75884">
        <ele>690.7</ele>
        <time>2022-08-17T09:11:13Z</time>
      </trkpt>
      <trkpt lat="47.86211" lon="6.75885">
        <ele>690.7</ele>
        <time>2022-08-17T09:11:14Z</time>
      </trkpt>
      <trkpt lat="47.86211" lon="6.75886">
        <ele>690.7</ele>
        <time>2022-08-17T09:11:15Z</time>
      </trkpt>
      <trkpt lat="47.86211" lon="6.75887">
        <ele>690.7</ele>
        <time>2022-08-17T09:11:16Z</time>
      </trkpt>
      <trkpt lat="47.86211" lon="6.75889">
        <ele>690.6</ele>
        <time>2022-08-17T09:11:17Z</time>
      </trkpt>
      <trkpt lat="47.86211" lon="6.7589">
        <ele>690.6</ele>
        <time>2022-08-17T09:11:18Z</time>
      </trkpt>
      <trkpt lat="47.86211" lon="6.75891">
        <ele>690.6</ele>
        <time>2022-08-17T09:11:19Z</time>
      </trkpt>
      <trkpt lat="47.86212" lon="6.75892">
        <ele>690.3</ele>
        <time>2022-08-17T09:11:20Z</time>
      </trkpt>
      <trkpt lat="47.86212" lon="6.75893">
        <ele>690.3</ele>
        <time>2022-08-17T09:11:21Z</time>
      </trkpt>
      <trkpt lat="47.86212" lon="6.75894">
        <ele>690.2</ele>
        <time>2022-08-17T09:11:22Z</time>
      </trkpt>
      <trkpt lat="47.86213" lon="6.75895">
        <ele>689.9</ele>
        <time>2022-08-17T09:11:23Z</time>
      </trkpt>
      <trkpt lat="47.86213" lon="6.75896">
        <ele>689.9</ele>
        <time>2022-08-17T09:11:24Z</time>
      </trkpt>
      <trkpt lat="47.86213" lon="6.75898">
        <ele>689.9</ele>
        <time>2022-08-17T09:11:25Z</time>
      </trkpt>
      <trkpt lat="47.86214" lon="6.75899">
        <ele>689.6</ele>
        <time>2022-08-17T09:11:26Z</time>
      </trkpt>
      <trkpt lat="47.86214" lon="6.759">
        <ele>689.5</ele>
        <time>2022-08-17T09:11:27Z</time>
      </trkpt>
      <trkpt lat="47.86214" lon="6.75901">
        <ele>689.5</ele>
        <time>2022-08-17T09:11:28Z</time>
      </trkpt>
      <trkpt lat="47.86214" lon="6.75902">
        <ele>689.5</ele>
        <time>2022-08-17T09:11:29Z</time>
      </trkpt>
      <trkpt lat="47.86214" lon="6.75903">
        <ele>689.5</ele>
        <time>2022-08-17T09:11:30Z</time>
      </trkpt>
      <trkpt lat="47.86214" lon="6.75904">
        <ele>689.5</ele>
        <time>2022-08-17T09:11:31Z</time>
      </trkpt>
      <trkpt lat="47.86214" lon="6.75906">
        <ele>689.5</ele>
        <time>2022-08-17T09:11:32Z</time>
      </trkpt>
      <trkpt lat="47.86214" lon="6.75907">
        <ele>689.5</ele>
        <time>2022-08-17T09:11:33Z</time>
      </trkpt>
      <trkpt lat="47.86215" lon="6.75908">
        <ele>689.2</ele>
        <time>2022-08-17T09:11:34Z</time>
      </trkpt>
      <trkpt lat="47.86215" lon="6.75909">
        <ele>689.2</ele>
        <time>2022-08-17T09:11:35Z</time>
      </trkpt>
      <trkpt lat="47.86216" lon="6.7591">
        <ele>688.8</ele>
        <time>2022-08-17T09:11:36Z</time>
      </trkpt>
      <trkpt lat="47.86217" lon="6.75911">
        <ele>688.5</ele>
        <time>2022-08-17T09:11:37Z</time>
      </trkpt>
      <trkpt lat="47.86218" lon="6.75912">
        <ele>688.2</ele>
        <time>2022-08-17T09:11:38Z</time>
      </trkpt>
      <trkpt lat="47.86218" lon="6.75913">
        <ele>688.2</ele>
        <time>2022-08-17T09:11:39Z</time>
      </trkpt>
      <trkpt lat="47.86219" lon="6.75914">
        <ele>687.9</ele>
        <time>2022-08-17T09:11:40Z</time>
      </trkpt>
      <trkpt lat="47.86219" lon="6.75915">
        <ele>687.9</ele>
        <time>2022-08-17T09:11:41Z</time>
      </trkpt>
      <trkpt lat="47.8622" lon="6.75916">
        <ele>687.6</ele>
        <time>2022-08-17T09:11:42Z</time>
      </trkpt>
      <trkpt lat="47.8622" lon="6.75917">
        <ele>687.6</ele>
        <time>2022-08-17T09:11:43Z</time>
      </trkpt>
      <trkpt lat="47.8622" lon="6.75918">
        <ele>687.5</ele>
        <time>2022-08-17T09:11:44Z</time>
      </trkpt>
      <trkpt lat="47.86221" lon="6.75919">
        <ele>687.2</ele>
        <time>2022-08-17T09:11:45Z</time>
      </trkpt>
      <trkpt lat="47.86221" lon="6.7592">
        <ele>687.1</ele>
        <time>2022-08-17T09:11:46Z</time>
      </trkpt>
      <trkpt lat="47.86221" lon="6.75921">
        <ele>687</ele>
        <time>2022-08-17T09:11:47Z</time>
      </trkpt>
      <trkpt lat="47.86221" lon="6.75922">
        <ele>687</ele>
        <time>2022-08-17T09:11:48Z</time>
      </trkpt>
      <trkpt lat="47.86222" lon="6.75923">
        <ele>686.6</ele>
        <time>2022-08-17T09:11:49Z</time>
      </trkpt>
      <trkpt lat="47.86222" lon="6.75924">
        <ele>686.5</ele>
        <time>2022-08-17T09:11:50Z</time>
      </trkpt>
      <trkpt lat="47.86223" lon="6.75925">
        <ele>686.1</ele>
        <time>2022-08-17T09:11:52Z</time>
      </trkpt>
      <trkpt lat="47.86223" lon="6.75927">
        <ele>686</ele>
        <time>2022-08-17T09:11:53Z</time>
      </trkpt>
      <trkpt lat="47.86223" lon="6.75928">
        <ele>685.9</ele>
        <time>2022-08-17T09:11:54Z</time>
      </trkpt>
      <trkpt lat="47.86223" lon="6.75929">
        <ele>685.8</ele>
        <time>2022-08-17T09:11:55Z</time>
      </trkpt>
      <trkpt lat="47.86222" lon="6.7593">
        <ele>686.1</ele>
        <time>2022-08-17T09:11:56Z</time>
      </trkpt>
      <trkpt lat="47.86222" lon="6.75931">
        <ele>686</ele>
        <time>2022-08-17T09:11:57Z</time>
      </trkpt>
      <trkpt lat="47.86222" lon="6.75932">
        <ele>686</ele>
        <time>2022-08-17T09:11:58Z</time>
      </trkpt>
      <trkpt lat="47.86222" lon="6.75933">
        <ele>685.9</ele>
        <time>2022-08-17T09:11:59Z</time>
      </trkpt>
      <trkpt lat="47.86222" lon="6.75934">
        <ele>685.8</ele>
        <time>2022-08-17T09:12:00Z</time>
      </trkpt>
      <trkpt lat="47.86221" lon="6.75935">
        <ele>686</ele>
        <time>2022-08-17T09:12:01Z</time>
      </trkpt>
      <trkpt lat="47.86221" lon="6.75936">
        <ele>686</ele>
        <time>2022-08-17T09:12:02Z</time>
      </trkpt>
      <trkpt lat="47.86221" lon="6.75937">
        <ele>685.9</ele>
        <time>2022-08-17T09:12:03Z</time>
      </trkpt>
      <trkpt lat="47.86221" lon="6.75939">
        <ele>685.7</ele>
        <time>2022-08-17T09:12:04Z</time>
      </trkpt>
      <trkpt lat="47.86221" lon="6.7594">
        <ele>685.7</ele>
        <time>2022-08-17T09:12:05Z</time>
      </trkpt>
      <trkpt lat="47.8622" lon="6.75941">
        <ele>685.9</ele>
        <time>2022-08-17T09:12:06Z</time>
      </trkpt>
      <trkpt lat="47.8622" lon="6.75942">
        <ele>685.8</ele>
        <time>2022-08-17T09:12:07Z</time>
      </trkpt>
      <trkpt lat="47.8622" lon="6.75943">
        <ele>685.7</ele>
        <time>2022-08-17T09:12:08Z</time>
      </trkpt>
      <trkpt lat="47.8622" lon="6.75944">
        <ele>685.7</ele>
        <time>2022-08-17T09:12:09Z</time>
      </trkpt>
      <trkpt lat="47.8622" lon="6.75945">
        <ele>685.6</ele>
        <time>2022-08-17T09:12:10Z</time>
      </trkpt>
      <trkpt lat="47.8622" lon="6.75946">
        <ele>685.6</ele>
        <time>2022-08-17T09:12:11Z</time>
      </trkpt>
      <trkpt lat="47.86221" lon="6.75947">
        <ele>685.3</ele>
        <time>2022-08-17T09:12:12Z</time>
      </trkpt>
      <trkpt lat="47.86221" lon="6.75949">
        <ele>685.2</ele>
        <time>2022-08-17T09:12:13Z</time>
      </trkpt>
      <trkpt lat="47.86221" lon="6.7595">
        <ele>685.2</ele>
        <time>2022-08-17T09:12:14Z</time>
      </trkpt>
      <trkpt lat="47.86221" lon="6.75951">
        <ele>685.1</ele>
        <time>2022-08-17T09:12:15Z</time>
      </trkpt>
      <trkpt lat="47.86222" lon="6.75952">
        <ele>684.8</ele>
        <time>2022-08-17T09:12:16Z</time>
      </trkpt>
      <trkpt lat="47.86222" lon="6.75953">
        <ele>684.8</ele>
        <time>2022-08-17T09:12:17Z</time>
      </trkpt>
      <trkpt lat="47.86222" lon="6.75955">
        <ele>684.7</ele>
        <time>2022-08-17T09:12:18Z</time>
      </trkpt>
      <trkpt lat="47.86223" lon="6.75956">
        <ele>684.4</ele>
        <time>2022-08-17T09:12:19Z</time>
      </trkpt>
      <trkpt lat="47.86223" lon="6.75957">
        <ele>684.3</ele>
        <time>2022-08-17T09:12:20Z</time>
      </trkpt>
      <trkpt lat="47.86224" lon="6.75959">
        <ele>684</ele>
        <time>2022-08-17T09:12:21Z</time>
      </trkpt>
      <trkpt lat="47.86225" lon="6.7596">
        <ele>683.7</ele>
        <time>2022-08-17T09:12:22Z</time>
      </trkpt>
      <trkpt lat="47.86225" lon="6.75961">
        <ele>683.7</ele>
        <time>2022-08-17T09:12:23Z</time>
      </trkpt>
      <trkpt lat="47.86226" lon="6.75963">
        <ele>683.3</ele>
        <time>2022-08-17T09:12:24Z</time>
      </trkpt>
      <trkpt lat="47.86226" lon="6.75964">
        <ele>683.3</ele>
        <time>2022-08-17T09:12:25Z</time>
      </trkpt>
      <trkpt lat="47.86226" lon="6.75966">
        <ele>683.2</ele>
        <time>2022-08-17T09:12:26Z</time>
      </trkpt>
      <trkpt lat="47.86226" lon="6.75967">
        <ele>683.2</ele>
        <time>2022-08-17T09:12:27Z</time>
      </trkpt>
      <trkpt lat="47.86226" lon="6.75969">
        <ele>683.1</ele>
        <time>2022-08-17T09:12:28Z</time>
      </trkpt>
      <trkpt lat="47.86226" lon="6.7597">
        <ele>683.1</ele>
        <time>2022-08-17T09:12:29Z</time>
      </trkpt>
      <trkpt lat="47.86226" lon="6.75971">
        <ele>683.1</ele>
        <time>2022-08-17T09:12:30Z</time>
      </trkpt>
      <trkpt lat="47.86226" lon="6.75973">
        <ele>683.1</ele>
        <time>2022-08-17T09:12:31Z</time>
      </trkpt>
      <trkpt lat="47.86227" lon="6.75974">
        <ele>682.8</ele>
        <time>2022-08-17T09:12:32Z</time>
      </trkpt>
      <trkpt lat="47.86227" lon="6.75975">
        <ele>682.8</ele>
        <time>2022-08-17T09:12:33Z</time>
      </trkpt>
      <trkpt lat="47.86227" lon="6.75976">
        <ele>682.9</ele>
        <time>2022-08-17T09:12:34Z</time>
      </trkpt>
      <trkpt lat="47.86227" lon="6.75977">
        <ele>682.9</ele>
        <time>2022-08-17T09:12:35Z</time>
      </trkpt>
      <trkpt lat="47.86228" lon="6.75978">
        <ele>682.7</ele>
        <time>2022-08-17T09:12:36Z</time>
      </trkpt>
      <trkpt lat="47.86228" lon="6.75979">
        <ele>682.7</ele>
        <time>2022-08-17T09:12:37Z</time>
      </trkpt>
      <trkpt lat="47.86228" lon="6.7598">
        <ele>682.7</ele>
        <time>2022-08-17T09:12:38Z</time>
      </trkpt>
      <trkpt lat="47.86229" lon="6.75981">
        <ele>682.5</ele>
        <time>2022-08-17T09:12:39Z</time>
      </trkpt>
      <trkpt lat="47.86229" lon="6.75982">
        <ele>682.5</ele>
        <time>2022-08-17T09:12:40Z</time>
      </trkpt>
      <trkpt lat="47.86229" lon="6.75983">
        <ele>682.6</ele>
        <time>2022-08-17T09:12:42Z</time>
      </trkpt>
      <trkpt lat="47.8623" lon="6.75985">
        <ele>682.4</ele>
        <time>2022-08-17T09:12:43Z</time>
      </trkpt>
      <trkpt lat="47.8623" lon="6.75986">
        <ele>682.5</ele>
        <time>2022-08-17T09:12:44Z</time>
      </trkpt>
      <trkpt lat="47.8623" lon="6.75987">
        <ele>682.5</ele>
        <time>2022-08-17T09:12:45Z</time>
      </trkpt>
      <trkpt lat="47.86231" lon="6.75987">
        <ele>682.3</ele>
        <time>2022-08-17T09:12:46Z</time>
      </trkpt>
      <trkpt lat="47.86231" lon="6.75988">
        <ele>682.3</ele>
        <time>2022-08-17T09:12:47Z</time>
      </trkpt>
      <trkpt lat="47.86232" lon="6.75989">
        <ele>682.2</ele>
        <time>2022-08-17T09:12:48Z</time>
      </trkpt>
      <trkpt lat="47.86232" lon="6.7599">
        <ele>682.2</ele>
        <time>2022-08-17T09:12:49Z</time>
      </trkpt>
      <trkpt lat="47.86233" lon="6.75991">
        <ele>682.1</ele>
        <time>2022-08-17T09:12:50Z</time>
      </trkpt>
      <trkpt lat="47.86234" lon="6.75992">
        <ele>681.9</ele>
        <time>2022-08-17T09:12:52Z</time>
      </trkpt>
      <trkpt lat="47.86234" lon="6.75993">
        <ele>682</ele>
        <time>2022-08-17T09:12:53Z</time>
      </trkpt>
      <trkpt lat="47.86235" lon="6.75994">
        <ele>681.9</ele>
        <time>2022-08-17T09:12:54Z</time>
      </trkpt>
      <trkpt lat="47.86235" lon="6.75995">
        <ele>681.9</ele>
        <time>2022-08-17T09:12:55Z</time>
      </trkpt>
      <trkpt lat="47.86236" lon="6.75996">
        <ele>681.8</ele>
        <time>2022-08-17T09:12:56Z</time>
      </trkpt>
      <trkpt lat="47.86237" lon="6.75997">
        <ele>681.7</ele>
        <time>2022-08-17T09:12:57Z</time>
      </trkpt>
      <trkpt lat="47.86238" lon="6.75998">
        <ele>681.6</ele>
        <time>2022-08-17T09:12:58Z</time>
      </trkpt>
      <trkpt lat="47.86239" lon="6.75998">
        <ele>681.5</ele>
        <time>2022-08-17T09:12:59Z</time>
      </trkpt>
      <trkpt lat="47.8624" lon="6.75999">
        <ele>681.4</ele>
        <time>2022-08-17T09:13:00Z</time>
      </trkpt>
      <trkpt lat="47.86241" lon="6.76">
        <ele>681.3</ele>
        <time>2022-08-17T09:13:01Z</time>
      </trkpt>
      <trkpt lat="47.86242" lon="6.76001">
        <ele>681.2</ele>
        <time>2022-08-17T09:13:03Z</time>
      </trkpt>
      <trkpt lat="47.86243" lon="6.76002">
        <ele>681.2</ele>
        <time>2022-08-17T09:13:04Z</time>
      </trkpt>
      <trkpt lat="47.86243" lon="6.76003">
        <ele>681.2</ele>
        <time>2022-08-17T09:13:05Z</time>
      </trkpt>
      <trkpt lat="47.86244" lon="6.76004">
        <ele>681.2</ele>
        <time>2022-08-17T09:13:06Z</time>
      </trkpt>
      <trkpt lat="47.86244" lon="6.76005">
        <ele>681.2</ele>
        <time>2022-08-17T09:13:07Z</time>
      </trkpt>
      <trkpt lat="47.86244" lon="6.76006">
        <ele>681.3</ele>
        <time>2022-08-17T09:13:08Z</time>
      </trkpt>
      <trkpt lat="47.86245" lon="6.76007">
        <ele>681.2</ele>
        <time>2022-08-17T09:13:09Z</time>
      </trkpt>
      <trkpt lat="47.86245" lon="6.76008">
        <ele>681.3</ele>
        <time>2022-08-17T09:13:10Z</time>
      </trkpt>
      <trkpt lat="47.86245" lon="6.76009">
        <ele>681.4</ele>
        <time>2022-08-17T09:13:11Z</time>
      </trkpt>
      <trkpt lat="47.86246" lon="6.7601">
        <ele>681.3</ele>
        <time>2022-08-17T09:13:12Z</time>
      </trkpt>
      <trkpt lat="47.86246" lon="6.76011">
        <ele>681.4</ele>
        <time>2022-08-17T09:13:13Z</time>
      </trkpt>
      <trkpt lat="47.86247" lon="6.76011">
        <ele>681.2</ele>
        <time>2022-08-17T09:13:14Z</time>
      </trkpt>
      <trkpt lat="47.86247" lon="6.76012">
        <ele>681.3</ele>
        <time>2022-08-17T09:13:15Z</time>
      </trkpt>
      <trkpt lat="47.86248" lon="6.76013">
        <ele>681.2</ele>
        <time>2022-08-17T09:13:16Z</time>
      </trkpt>
      <trkpt lat="47.86248" lon="6.76014">
        <ele>681.3</ele>
        <time>2022-08-17T09:13:17Z</time>
      </trkpt>
      <trkpt lat="47.86249" lon="6.76015">
        <ele>681.2</ele>
        <time>2022-08-17T09:13:18Z</time>
      </trkpt>
      <trkpt lat="47.86249" lon="6.76016">
        <ele>681.3</ele>
        <time>2022-08-17T09:13:19Z</time>
      </trkpt>
      <trkpt lat="47.8625" lon="6.76017">
        <ele>681.2</ele>
        <time>2022-08-17T09:13:20Z</time>
      </trkpt>
      <trkpt lat="47.8625" lon="6.76018">
        <ele>681.3</ele>
        <time>2022-08-17T09:13:21Z</time>
      </trkpt>
      <trkpt lat="47.86251" lon="6.76019">
        <ele>681.2</ele>
        <time>2022-08-17T09:13:23Z</time>
      </trkpt>
      <trkpt lat="47.86251" lon="6.7602">
        <ele>681.2</ele>
        <time>2022-08-17T09:13:24Z</time>
      </trkpt>
      <trkpt lat="47.86252" lon="6.76021">
        <ele>681.1</ele>
        <time>2022-08-17T09:13:25Z</time>
      </trkpt>
      <trkpt lat="47.86253" lon="6.76022">
        <ele>680.9</ele>
        <time>2022-08-17T09:13:26Z</time>
      </trkpt>
      <trkpt lat="47.86254" lon="6.76023">
        <ele>680.8</ele>
        <time>2022-08-17T09:13:27Z</time>
      </trkpt>
      <trkpt lat="47.86254" lon="6.76024">
        <ele>680.9</ele>
        <time>2022-08-17T09:13:28Z</time>
      </trkpt>
      <trkpt lat="47.86255" lon="6.76025">
        <ele>680.7</ele>
        <time>2022-08-17T09:13:29Z</time>
      </trkpt>
      <trkpt lat="47.86256" lon="6.76026">
        <ele>680.6</ele>
        <time>2022-08-17T09:13:30Z</time>
      </trkpt>
      <trkpt lat="47.86257" lon="6.76027">
        <ele>680.4</ele>
        <time>2022-08-17T09:13:31Z</time>
      </trkpt>
      <trkpt lat="47.86257" lon="6.76028">
        <ele>680.5</ele>
        <time>2022-08-17T09:13:32Z</time>
      </trkpt>
      <trkpt lat="47.86257" lon="6.76029">
        <ele>680.6</ele>
        <time>2022-08-17T09:13:33Z</time>
      </trkpt>
      <trkpt lat="47.86258" lon="6.7603">
        <ele>680.4</ele>
        <time>2022-08-17T09:13:34Z</time>
      </trkpt>
      <trkpt lat="47.86258" lon="6.76031">
        <ele>680.5</ele>
        <time>2022-08-17T09:13:35Z</time>
      </trkpt>
      <trkpt lat="47.86259" lon="6.76032">
        <ele>680.4</ele>
        <time>2022-08-17T09:13:36Z</time>
      </trkpt>
      <trkpt lat="47.86259" lon="6.76033">
        <ele>680.4</ele>
        <time>2022-08-17T09:13:37Z</time>
      </trkpt>
      <trkpt lat="47.8626" lon="6.76034">
        <ele>680.3</ele>
        <time>2022-08-17T09:13:38Z</time>
      </trkpt>
      <trkpt lat="47.86261" lon="6.76035">
        <ele>680.2</ele>
        <time>2022-08-17T09:13:39Z</time>
      </trkpt>
      <trkpt lat="47.86261" lon="6.76036">
        <ele>680.3</ele>
        <time>2022-08-17T09:13:40Z</time>
      </trkpt>
      <trkpt lat="47.86262" lon="6.76036">
        <ele>680.1</ele>
        <time>2022-08-17T09:13:41Z</time>
      </trkpt>
      <trkpt lat="47.86263" lon="6.76037">
        <ele>680</ele>
        <time>2022-08-17T09:13:42Z</time>
      </trkpt>
      <trkpt lat="47.86263" lon="6.76038">
        <ele>680.1</ele>
        <time>2022-08-17T09:13:43Z</time>
      </trkpt>
      <trkpt lat="47.86264" lon="6.76039">
        <ele>680</ele>
        <time>2022-08-17T09:13:44Z</time>
      </trkpt>
      <trkpt lat="47.86264" lon="6.7604">
        <ele>680.1</ele>
        <time>2022-08-17T09:13:45Z</time>
      </trkpt>
      <trkpt lat="47.86264" lon="6.76041">
        <ele>680.2</ele>
        <time>2022-08-17T09:15:47Z</time>
      </trkpt>
      <trkpt lat="47.86265" lon="6.76042">
        <ele>680.1</ele>
        <time>2022-08-17T09:15:48Z</time>
      </trkpt>
      <trkpt lat="47.86265" lon="6.76043">
        <ele>680.2</ele>
        <time>2022-08-17T09:15:49Z</time>
      </trkpt>
      <trkpt lat="47.86265" lon="6.76044">
        <ele>680.3</ele>
        <time>2022-08-17T09:15:50Z</time>
      </trkpt>
      <trkpt lat="47.86266" lon="6.76045">
        <ele>680.2</ele>
        <time>2022-08-17T09:15:51Z</time>
      </trkpt>
      <trkpt lat="47.86267" lon="6.76046">
        <ele>680.2</ele>
        <time>2022-08-17T09:16:00Z</time>
      </trkpt>
      <trkpt lat="47.86268" lon="6.76047">
        <ele>680.1</ele>
        <time>2022-08-17T09:16:02Z</time>
      </trkpt>
      <trkpt lat="47.86269" lon="6.76048">
        <ele>680.1</ele>
        <time>2022-08-17T09:16:03Z</time>
      </trkpt>
      <trkpt lat="47.86269" lon="6.76049">
        <ele>680.2</ele>
        <time>2022-08-17T09:16:04Z</time>
      </trkpt>
      <trkpt lat="47.86271" lon="6.76051">
        <ele>680.2</ele>
        <time>2022-08-17T09:16:25Z</time>
      </trkpt>
      <trkpt lat="47.86272" lon="6.76053">
        <ele>680.3</ele>
        <time>2022-08-17T09:16:26Z</time>
      </trkpt>
      <trkpt lat="47.86274" lon="6.76054">
        <ele>680.2</ele>
        <time>2022-08-17T09:16:27Z</time>
      </trkpt>
      <trkpt lat="47.86274" lon="6.76055">
        <ele>680.3</ele>
        <time>2022-08-17T09:16:28Z</time>
      </trkpt>
      <trkpt lat="47.86275" lon="6.76056">
        <ele>680.3</ele>
        <time>2022-08-17T09:16:29Z</time>
      </trkpt>
      <trkpt lat="47.86276" lon="6.76057">
        <ele>680.3</ele>
        <time>2022-08-17T09:16:30Z</time>
      </trkpt>
      <trkpt lat="47.86277" lon="6.76058">
        <ele>680.3</ele>
        <time>2022-08-17T09:16:31Z</time>
      </trkpt>
      <trkpt lat="47.86278" lon="6.76059">
        <ele>680.2</ele>
        <time>2022-08-17T09:16:32Z</time>
      </trkpt>
      <trkpt lat="47.86279" lon="6.7606">
        <ele>680.2</ele>
        <time>2022-08-17T09:16:33Z</time>
      </trkpt>
      <trkpt lat="47.8628" lon="6.7606">
        <ele>680.2</ele>
        <time>2022-08-17T09:16:34Z</time>
      </trkpt>
      <trkpt lat="47.86281" lon="6.76061">
        <ele>680.2</ele>
        <time>2022-08-17T09:16:35Z</time>
      </trkpt>
      <trkpt lat="47.86281" lon="6.76062">
        <ele>680.3</ele>
        <time>2022-08-17T09:16:36Z</time>
      </trkpt>
      <trkpt lat="47.86282" lon="6.76062">
        <ele>680.2</ele>
        <time>2022-08-17T09:16:37Z</time>
      </trkpt>
      <trkpt lat="47.86283" lon="6.76063">
        <ele>680.2</ele>
        <time>2022-08-17T09:16:38Z</time>
      </trkpt>
      <trkpt lat="47.86284" lon="6.76064">
        <ele>680.2</ele>
        <time>2022-08-17T09:16:39Z</time>
      </trkpt>
      <trkpt lat="47.86285" lon="6.76065">
        <ele>680.2</ele>
        <time>2022-08-17T09:16:41Z</time>
      </trkpt>
      <trkpt lat="47.86286" lon="6.76065">
        <ele>680.2</ele>
        <time>2022-08-17T09:16:42Z</time>
      </trkpt>
      <trkpt lat="47.86286" lon="6.76066">
        <ele>680.3</ele>
        <time>2022-08-17T09:16:43Z</time>
      </trkpt>
      <trkpt lat="47.86287" lon="6.76066">
        <ele>680.2</ele>
        <time>2022-08-17T09:16:44Z</time>
      </trkpt>
      <trkpt lat="47.86288" lon="6.76067">
        <ele>680.2</ele>
        <time>2022-08-17T09:16:45Z</time>
      </trkpt>
      <trkpt lat="47.86288" lon="6.76068">
        <ele>680.3</ele>
        <time>2022-08-17T09:16:46Z</time>
      </trkpt>
      <trkpt lat="47.86289" lon="6.76069">
        <ele>680.4</ele>
        <time>2022-08-17T09:16:47Z</time>
      </trkpt>
      <trkpt lat="47.86289" lon="6.7607">
        <ele>680.4</ele>
        <time>2022-08-17T09:16:48Z</time>
      </trkpt>
      <trkpt lat="47.8629" lon="6.76071">
        <ele>680.5</ele>
        <time>2022-08-17T09:16:49Z</time>
      </trkpt>
      <trkpt lat="47.86291" lon="6.76072">
        <ele>680.5</ele>
        <time>2022-08-17T09:16:50Z</time>
      </trkpt>
      <trkpt lat="47.86291" lon="6.76074">
        <ele>680.7</ele>
        <time>2022-08-17T09:16:51Z</time>
      </trkpt>
      <trkpt lat="47.86292" lon="6.76075">
        <ele>680.7</ele>
        <time>2022-08-17T09:16:52Z</time>
      </trkpt>
      <trkpt lat="47.86292" lon="6.76076">
        <ele>680.8</ele>
        <time>2022-08-17T09:16:53Z</time>
      </trkpt>
      <trkpt lat="47.86293" lon="6.76078">
        <ele>681</ele>
        <time>2022-08-17T09:16:54Z</time>
      </trkpt>
      <trkpt lat="47.86293" lon="6.76079">
        <ele>681.1</ele>
        <time>2022-08-17T09:16:55Z</time>
      </trkpt>
      <trkpt lat="47.86294" lon="6.76082">
        <ele>681.3</ele>
        <time>2022-08-17T09:17:19Z</time>
      </trkpt>
      <trkpt lat="47.86295" lon="6.76083">
        <ele>681.3</ele>
        <time>2022-08-17T09:17:20Z</time>
      </trkpt>
      <trkpt lat="47.86296" lon="6.76084">
        <ele>681.4</ele>
        <time>2022-08-17T09:17:21Z</time>
      </trkpt>
      <trkpt lat="47.86297" lon="6.76085">
        <ele>681.3</ele>
        <time>2022-08-17T09:17:22Z</time>
      </trkpt>
      <trkpt lat="47.86297" lon="6.76086">
        <ele>681.4</ele>
        <time>2022-08-17T09:17:23Z</time>
      </trkpt>
      <trkpt lat="47.86298" lon="6.76087">
        <ele>681.4</ele>
        <time>2022-08-17T09:17:24Z</time>
      </trkpt>
      <trkpt lat="47.86299" lon="6.76088">
        <ele>681.4</ele>
        <time>2022-08-17T09:17:25Z</time>
      </trkpt>
      <trkpt lat="47.86299" lon="6.76089">
        <ele>681.4</ele>
        <time>2022-08-17T09:17:26Z</time>
      </trkpt>
      <trkpt lat="47.863" lon="6.7609">
        <ele>681.4</ele>
        <time>2022-08-17T09:17:27Z</time>
      </trkpt>
      <trkpt lat="47.863" lon="6.76091">
        <ele>681.4</ele>
        <time>2022-08-17T09:17:28Z</time>
      </trkpt>
      <trkpt lat="47.86301" lon="6.76092">
        <ele>681.4</ele>
        <time>2022-08-17T09:17:29Z</time>
      </trkpt>
      <trkpt lat="47.86302" lon="6.76093">
        <ele>681.4</ele>
        <time>2022-08-17T09:17:30Z</time>
      </trkpt>
      <trkpt lat="47.86302" lon="6.76094">
        <ele>681.5</ele>
        <time>2022-08-17T09:17:31Z</time>
      </trkpt>
      <trkpt lat="47.86303" lon="6.76095">
        <ele>681.5</ele>
        <time>2022-08-17T09:17:32Z</time>
      </trkpt>
      <trkpt lat="47.86305" lon="6.76096">
        <ele>681.5</ele>
        <time>2022-08-17T09:17:33Z</time>
      </trkpt>
      <trkpt lat="47.86306" lon="6.76097">
        <ele>681.4</ele>
        <time>2022-08-17T09:17:34Z</time>
      </trkpt>
      <trkpt lat="47.86307" lon="6.76098">
        <ele>681.2</ele>
        <time>2022-08-17T09:17:35Z</time>
      </trkpt>
      <trkpt lat="47.86307" lon="6.761">
        <ele>681.3</ele>
        <time>2022-08-17T09:17:36Z</time>
      </trkpt>
      <trkpt lat="47.86308" lon="6.76101">
        <ele>681.1</ele>
        <time>2022-08-17T09:17:37Z</time>
      </trkpt>
      <trkpt lat="47.86308" lon="6.76102">
        <ele>681.1</ele>
        <time>2022-08-17T09:17:38Z</time>
      </trkpt>
      <trkpt lat="47.86308" lon="6.76103">
        <ele>681.2</ele>
        <time>2022-08-17T09:17:39Z</time>
      </trkpt>
      <trkpt lat="47.86308" lon="6.76105">
        <ele>681.3</ele>
        <time>2022-08-17T09:17:40Z</time>
      </trkpt>
      <trkpt lat="47.86308" lon="6.76106">
        <ele>681.3</ele>
        <time>2022-08-17T09:17:41Z</time>
      </trkpt>
      <trkpt lat="47.86308" lon="6.76108">
        <ele>681.4</ele>
        <time>2022-08-17T09:17:42Z</time>
      </trkpt>
      <trkpt lat="47.86308" lon="6.76109">
        <ele>681.4</ele>
        <time>2022-08-17T09:17:43Z</time>
      </trkpt>
      <trkpt lat="47.86308" lon="6.76111">
        <ele>681.5</ele>
        <time>2022-08-17T09:17:44Z</time>
      </trkpt>
      <trkpt lat="47.86308" lon="6.76112">
        <ele>681.5</ele>
        <time>2022-08-17T09:17:45Z</time>
      </trkpt>
      <trkpt lat="47.86308" lon="6.76114">
        <ele>681.6</ele>
        <time>2022-08-17T09:17:46Z</time>
      </trkpt>
      <trkpt lat="47.86308" lon="6.76115">
        <ele>681.6</ele>
        <time>2022-08-17T09:17:47Z</time>
      </trkpt>
      <trkpt lat="47.86308" lon="6.76117">
        <ele>681.7</ele>
        <time>2022-08-17T09:17:48Z</time>
      </trkpt>
      <trkpt lat="47.86308" lon="6.76119">
        <ele>681.8</ele>
        <time>2022-08-17T09:17:49Z</time>
      </trkpt>
      <trkpt lat="47.86308" lon="6.76121">
        <ele>681.9</ele>
        <time>2022-08-17T09:17:50Z</time>
      </trkpt>
      <trkpt lat="47.86308" lon="6.76122">
        <ele>681.9</ele>
        <time>2022-08-17T09:17:51Z</time>
      </trkpt>
      <trkpt lat="47.86309" lon="6.76124">
        <ele>681.8</ele>
        <time>2022-08-17T09:17:52Z</time>
      </trkpt>
      <trkpt lat="47.86309" lon="6.76125">
        <ele>681.9</ele>
        <time>2022-08-17T09:17:53Z</time>
      </trkpt>
      <trkpt lat="47.86309" lon="6.76127">
        <ele>682</ele>
        <time>2022-08-17T09:17:54Z</time>
      </trkpt>
      <trkpt lat="47.8631" lon="6.76128">
        <ele>681.8</ele>
        <time>2022-08-17T09:17:55Z</time>
      </trkpt>
      <trkpt lat="47.8631" lon="6.7613">
        <ele>681.9</ele>
        <time>2022-08-17T09:17:56Z</time>
      </trkpt>
      <trkpt lat="47.8631" lon="6.76131">
        <ele>682</ele>
        <time>2022-08-17T09:17:57Z</time>
      </trkpt>
      <trkpt lat="47.8631" lon="6.76133">
        <ele>682.1</ele>
        <time>2022-08-17T09:17:58Z</time>
      </trkpt>
      <trkpt lat="47.8631" lon="6.76135">
        <ele>682.2</ele>
        <time>2022-08-17T09:17:59Z</time>
      </trkpt>
      <trkpt lat="47.8631" lon="6.76136">
        <ele>682.2</ele>
        <time>2022-08-17T09:18:00Z</time>
      </trkpt>
      <trkpt lat="47.86309" lon="6.76138">
        <ele>682.5</ele>
        <time>2022-08-17T09:18:01Z</time>
      </trkpt>
      <trkpt lat="47.86309" lon="6.76139">
        <ele>682.5</ele>
        <time>2022-08-17T09:18:02Z</time>
      </trkpt>
      <trkpt lat="47.86309" lon="6.76141">
        <ele>682.7</ele>
        <time>2022-08-17T09:18:03Z</time>
      </trkpt>
      <trkpt lat="47.86309" lon="6.76143">
        <ele>682.8</ele>
        <time>2022-08-17T09:18:04Z</time>
      </trkpt>
      <trkpt lat="47.86308" lon="6.76144">
        <ele>683</ele>
        <time>2022-08-17T09:18:05Z</time>
      </trkpt>
      <trkpt lat="47.86308" lon="6.76146">
        <ele>683.2</ele>
        <time>2022-08-17T09:18:06Z</time>
      </trkpt>
      <trkpt lat="47.86308" lon="6.76147">
        <ele>683.3</ele>
        <time>2022-08-17T09:18:07Z</time>
      </trkpt>
      <trkpt lat="47.86308" lon="6.76149">
        <ele>683.4</ele>
        <time>2022-08-17T09:18:08Z</time>
      </trkpt>
      <trkpt lat="47.86307" lon="6.76151">
        <ele>683.7</ele>
        <time>2022-08-17T09:18:09Z</time>
      </trkpt>
      <trkpt lat="47.86307" lon="6.76152">
        <ele>683.8</ele>
        <time>2022-08-17T09:18:10Z</time>
      </trkpt>
      <trkpt lat="47.86307" lon="6.76154">
        <ele>683.9</ele>
        <time>2022-08-17T09:18:11Z</time>
      </trkpt>
      <trkpt lat="47.86306" lon="6.76155">
        <ele>684.1</ele>
        <time>2022-08-17T09:18:12Z</time>
      </trkpt>
      <trkpt lat="47.86306" lon="6.76157">
        <ele>684.3</ele>
        <time>2022-08-17T09:18:13Z</time>
      </trkpt>
      <trkpt lat="47.86306" lon="6.76158">
        <ele>684.3</ele>
        <time>2022-08-17T09:18:14Z</time>
      </trkpt>
      <trkpt lat="47.86305" lon="6.7616">
        <ele>684.5</ele>
        <time>2022-08-17T09:18:15Z</time>
      </trkpt>
      <trkpt lat="47.86305" lon="6.76161">
        <ele>684.5</ele>
        <time>2022-08-17T09:18:16Z</time>
      </trkpt>
      <trkpt lat="47.86305" lon="6.76163">
        <ele>684.7</ele>
        <time>2022-08-17T09:18:17Z</time>
      </trkpt>
      <trkpt lat="47.86304" lon="6.76164">
        <ele>684.7</ele>
        <time>2022-08-17T09:18:18Z</time>
      </trkpt>
      <trkpt lat="47.86304" lon="6.76166">
        <ele>684.8</ele>
        <time>2022-08-17T09:18:19Z</time>
      </trkpt>
      <trkpt lat="47.86304" lon="6.76167">
        <ele>684.8</ele>
        <time>2022-08-17T09:18:20Z</time>
      </trkpt>
      <trkpt lat="47.86304" lon="6.76169">
        <ele>684.8</ele>
        <time>2022-08-17T09:18:21Z</time>
      </trkpt>
      <trkpt lat="47.86304" lon="6.7617">
        <ele>684.7</ele>
        <time>2022-08-17T09:18:22Z</time>
      </trkpt>
      <trkpt lat="47.86304" lon="6.76172">
        <ele>684.7</ele>
        <time>2022-08-17T09:18:23Z</time>
      </trkpt>
      <trkpt lat="47.86303" lon="6.76174">
        <ele>684.5</ele>
        <time>2022-08-17T09:18:24Z</time>
      </trkpt>
      <trkpt lat="47.86303" lon="6.76175">
        <ele>684.5</ele>
        <time>2022-08-17T09:18:25Z</time>
      </trkpt>
      <trkpt lat="47.86303" lon="6.76177">
        <ele>684.4</ele>
        <time>2022-08-17T09:18:26Z</time>
      </trkpt>
      <trkpt lat="47.86303" lon="6.76178">
        <ele>684.4</ele>
        <time>2022-08-17T09:18:27Z</time>
      </trkpt>
      <trkpt lat="47.86303" lon="6.7618">
        <ele>684.3</ele>
        <time>2022-08-17T09:18:28Z</time>
      </trkpt>
      <trkpt lat="47.86302" lon="6.76182">
        <ele>684.2</ele>
        <time>2022-08-17T09:18:29Z</time>
      </trkpt>
      <trkpt lat="47.86302" lon="6.76183">
        <ele>684.2</ele>
        <time>2022-08-17T09:18:30Z</time>
      </trkpt>
      <trkpt lat="47.86302" lon="6.76185">
        <ele>684.1</ele>
        <time>2022-08-17T09:18:31Z</time>
      </trkpt>
      <trkpt lat="47.86302" lon="6.76187">
        <ele>684.1</ele>
        <time>2022-08-17T09:18:32Z</time>
      </trkpt>
      <trkpt lat="47.86302" lon="6.76189">
        <ele>684</ele>
        <time>2022-08-17T09:18:33Z</time>
      </trkpt>
      <trkpt lat="47.86302" lon="6.7619">
        <ele>684</ele>
        <time>2022-08-17T09:18:34Z</time>
      </trkpt>
      <trkpt lat="47.86302" lon="6.76192">
        <ele>683.9</ele>
        <time>2022-08-17T09:18:35Z</time>
      </trkpt>
      <trkpt lat="47.86302" lon="6.76194">
        <ele>683.9</ele>
        <time>2022-08-17T09:18:36Z</time>
      </trkpt>
      <trkpt lat="47.86303" lon="6.76195">
        <ele>683.9</ele>
        <time>2022-08-17T09:18:37Z</time>
      </trkpt>
      <trkpt lat="47.86303" lon="6.76197">
        <ele>683.8</ele>
        <time>2022-08-17T09:18:38Z</time>
      </trkpt>
      <trkpt lat="47.86304" lon="6.76198">
        <ele>683.8</ele>
        <time>2022-08-17T09:18:39Z</time>
      </trkpt>
      <trkpt lat="47.86305" lon="6.762">
        <ele>683.8</ele>
        <time>2022-08-17T09:18:40Z</time>
      </trkpt>
      <trkpt lat="47.86306" lon="6.76201">
        <ele>683.7</ele>
        <time>2022-08-17T09:18:41Z</time>
      </trkpt>
      <trkpt lat="47.86306" lon="6.76203">
        <ele>683.7</ele>
        <time>2022-08-17T09:18:42Z</time>
      </trkpt>
      <trkpt lat="47.86307" lon="6.76204">
        <ele>683.5</ele>
        <time>2022-08-17T09:18:43Z</time>
      </trkpt>
      <trkpt lat="47.86307" lon="6.76206">
        <ele>683.5</ele>
        <time>2022-08-17T09:18:44Z</time>
      </trkpt>
      <trkpt lat="47.86308" lon="6.76207">
        <ele>683.3</ele>
        <time>2022-08-17T09:18:45Z</time>
      </trkpt>
      <trkpt lat="47.86308" lon="6.76209">
        <ele>683.3</ele>
        <time>2022-08-17T09:18:46Z</time>
      </trkpt>
      <trkpt lat="47.86308" lon="6.7621">
        <ele>683.2</ele>
        <time>2022-08-17T09:18:47Z</time>
      </trkpt>
      <trkpt lat="47.86308" lon="6.76212">
        <ele>683.1</ele>
        <time>2022-08-17T09:18:48Z</time>
      </trkpt>
      <trkpt lat="47.86308" lon="6.76213">
        <ele>683.1</ele>
        <time>2022-08-17T09:18:49Z</time>
      </trkpt>
      <trkpt lat="47.86308" lon="6.76215">
        <ele>683</ele>
        <time>2022-08-17T09:18:50Z</time>
      </trkpt>
      <trkpt lat="47.86308" lon="6.76216">
        <ele>683</ele>
        <time>2022-08-17T09:18:51Z</time>
      </trkpt>
      <trkpt lat="47.86308" lon="6.76218">
        <ele>682.9</ele>
        <time>2022-08-17T09:18:52Z</time>
      </trkpt>
      <trkpt lat="47.86309" lon="6.76219">
        <ele>682.8</ele>
        <time>2022-08-17T09:18:53Z</time>
      </trkpt>
      <trkpt lat="47.86309" lon="6.76221">
        <ele>682.7</ele>
        <time>2022-08-17T09:18:54Z</time>
      </trkpt>
      <trkpt lat="47.8631" lon="6.76223">
        <ele>682.5</ele>
        <time>2022-08-17T09:18:55Z</time>
      </trkpt>
      <trkpt lat="47.8631" lon="6.76224">
        <ele>682.5</ele>
        <time>2022-08-17T09:18:56Z</time>
      </trkpt>
      <trkpt lat="47.86311" lon="6.76226">
        <ele>682.4</ele>
        <time>2022-08-17T09:18:57Z</time>
      </trkpt>
      <trkpt lat="47.86311" lon="6.76228">
        <ele>682.4</ele>
        <time>2022-08-17T09:18:58Z</time>
      </trkpt>
      <trkpt lat="47.86311" lon="6.76229">
        <ele>682.4</ele>
        <time>2022-08-17T09:18:59Z</time>
      </trkpt>
      <trkpt lat="47.86311" lon="6.76231">
        <ele>682.4</ele>
        <time>2022-08-17T09:19:00Z</time>
      </trkpt>
      <trkpt lat="47.86312" lon="6.76233">
        <ele>682.2</ele>
        <time>2022-08-17T09:19:01Z</time>
      </trkpt>
      <trkpt lat="47.86312" lon="6.76234">
        <ele>682.2</ele>
        <time>2022-08-17T09:19:02Z</time>
      </trkpt>
      <trkpt lat="47.86312" lon="6.76235">
        <ele>682.2</ele>
        <time>2022-08-17T09:19:03Z</time>
      </trkpt>
      <trkpt lat="47.86312" lon="6.76237">
        <ele>682.2</ele>
        <time>2022-08-17T09:19:04Z</time>
      </trkpt>
      <trkpt lat="47.86312" lon="6.76238">
        <ele>682.2</ele>
        <time>2022-08-17T09:19:05Z</time>
      </trkpt>
      <trkpt lat="47.86312" lon="6.76239">
        <ele>682.2</ele>
        <time>2022-08-17T09:19:06Z</time>
      </trkpt>
      <trkpt lat="47.86312" lon="6.76241">
        <ele>682.1</ele>
        <time>2022-08-17T09:19:07Z</time>
      </trkpt>
      <trkpt lat="47.86312" lon="6.76242">
        <ele>682.1</ele>
        <time>2022-08-17T09:19:08Z</time>
      </trkpt>
      <trkpt lat="47.86313" lon="6.76243">
        <ele>682</ele>
        <time>2022-08-17T09:19:09Z</time>
      </trkpt>
      <trkpt lat="47.86313" lon="6.76245">
        <ele>682</ele>
        <time>2022-08-17T09:19:10Z</time>
      </trkpt>
      <trkpt lat="47.86313" lon="6.76247">
        <ele>682</ele>
        <time>2022-08-17T09:19:11Z</time>
      </trkpt>
      <trkpt lat="47.86313" lon="6.76248">
        <ele>681.9</ele>
        <time>2022-08-17T09:19:12Z</time>
      </trkpt>
      <trkpt lat="47.86314" lon="6.7625">
        <ele>681.8</ele>
        <time>2022-08-17T09:19:13Z</time>
      </trkpt>
      <trkpt lat="47.86314" lon="6.76251">
        <ele>681.7</ele>
        <time>2022-08-17T09:19:14Z</time>
      </trkpt>
      <trkpt lat="47.86314" lon="6.76253">
        <ele>681.6</ele>
        <time>2022-08-17T09:19:15Z</time>
      </trkpt>
      <trkpt lat="47.86314" lon="6.76254">
        <ele>681.6</ele>
        <time>2022-08-17T09:19:16Z</time>
      </trkpt>
      <trkpt lat="47.86314" lon="6.76256">
        <ele>681.5</ele>
        <time>2022-08-17T09:19:17Z</time>
      </trkpt>
      <trkpt lat="47.86315" lon="6.76257">
        <ele>681.3</ele>
        <time>2022-08-17T09:19:18Z</time>
      </trkpt>
      <trkpt lat="47.86315" lon="6.76259">
        <ele>681.2</ele>
        <time>2022-08-17T09:19:19Z</time>
      </trkpt>
      <trkpt lat="47.86315" lon="6.7626">
        <ele>681.2</ele>
        <time>2022-08-17T09:19:20Z</time>
      </trkpt>
      <trkpt lat="47.86315" lon="6.76262">
        <ele>681.1</ele>
        <time>2022-08-17T09:19:21Z</time>
      </trkpt>
      <trkpt lat="47.86316" lon="6.76263">
        <ele>680.9</ele>
        <time>2022-08-17T09:19:22Z</time>
      </trkpt>
      <trkpt lat="47.86316" lon="6.76265">
        <ele>680.8</ele>
        <time>2022-08-17T09:19:23Z</time>
      </trkpt>
      <trkpt lat="47.86316" lon="6.76266">
        <ele>680.7</ele>
        <time>2022-08-17T09:19:24Z</time>
      </trkpt>
      <trkpt lat="47.86316" lon="6.76268">
        <ele>680.6</ele>
        <time>2022-08-17T09:19:25Z</time>
      </trkpt>
      <trkpt lat="47.86316" lon="6.7627">
        <ele>680.5</ele>
        <time>2022-08-17T09:19:26Z</time>
      </trkpt>
      <trkpt lat="47.86316" lon="6.76271">
        <ele>680.5</ele>
        <time>2022-08-17T09:19:27Z</time>
      </trkpt>
      <trkpt lat="47.86316" lon="6.76273">
        <ele>680.4</ele>
        <time>2022-08-17T09:19:28Z</time>
      </trkpt>
      <trkpt lat="47.86315" lon="6.76275">
        <ele>680.4</ele>
        <time>2022-08-17T09:19:29Z</time>
      </trkpt>
      <trkpt lat="47.86316" lon="6.76276">
        <ele>680.2</ele>
        <time>2022-08-17T09:19:30Z</time>
      </trkpt>
      <trkpt lat="47.86316" lon="6.76278">
        <ele>680.1</ele>
        <time>2022-08-17T09:19:31Z</time>
      </trkpt>
      <trkpt lat="47.86316" lon="6.7628">
        <ele>680.1</ele>
        <time>2022-08-17T09:19:32Z</time>
      </trkpt>
      <trkpt lat="47.86316" lon="6.76281">
        <ele>680.1</ele>
        <time>2022-08-17T09:19:33Z</time>
      </trkpt>
      <trkpt lat="47.86316" lon="6.76283">
        <ele>680.1</ele>
        <time>2022-08-17T09:19:34Z</time>
      </trkpt>
      <trkpt lat="47.86316" lon="6.76284">
        <ele>680.1</ele>
        <time>2022-08-17T09:19:35Z</time>
      </trkpt>
      <trkpt lat="47.86316" lon="6.76286">
        <ele>680.1</ele>
        <time>2022-08-17T09:19:36Z</time>
      </trkpt>
      <trkpt lat="47.86315" lon="6.76288">
        <ele>680.3</ele>
        <time>2022-08-17T09:19:37Z</time>
      </trkpt>
      <trkpt lat="47.86315" lon="6.7629">
        <ele>680.3</ele>
        <time>2022-08-17T09:19:38Z</time>
      </trkpt>
      <trkpt lat="47.86315" lon="6.76292">
        <ele>680.3</ele>
        <time>2022-08-17T09:19:39Z</time>
      </trkpt>
      <trkpt lat="47.86314" lon="6.76293">
        <ele>680.5</ele>
        <time>2022-08-17T09:19:40Z</time>
      </trkpt>
      <trkpt lat="47.86314" lon="6.76295">
        <ele>680.5</ele>
        <time>2022-08-17T09:19:41Z</time>
      </trkpt>
      <trkpt lat="47.86313" lon="6.76297">
        <ele>680.7</ele>
        <time>2022-08-17T09:19:42Z</time>
      </trkpt>
      <trkpt lat="47.86312" lon="6.76298">
        <ele>680.8</ele>
        <time>2022-08-17T09:19:43Z</time>
      </trkpt>
      <trkpt lat="47.86311" lon="6.76301">
        <ele>681</ele>
        <time>2022-08-17T09:20:01Z</time>
      </trkpt>
      <trkpt lat="47.8631" lon="6.76302">
        <ele>681.2</ele>
        <time>2022-08-17T09:20:02Z</time>
      </trkpt>
      <trkpt lat="47.8631" lon="6.76303">
        <ele>681.2</ele>
        <time>2022-08-17T09:20:03Z</time>
      </trkpt>
      <trkpt lat="47.86309" lon="6.76304">
        <ele>681.4</ele>
        <time>2022-08-17T09:20:04Z</time>
      </trkpt>
      <trkpt lat="47.86309" lon="6.76305">
        <ele>681.4</ele>
        <time>2022-08-17T09:20:05Z</time>
      </trkpt>
      <trkpt lat="47.86308" lon="6.76306">
        <ele>681.5</ele>
        <time>2022-08-17T09:20:06Z</time>
      </trkpt>
      <trkpt lat="47.86308" lon="6.76307">
        <ele>681.5</ele>
        <time>2022-08-17T09:20:07Z</time>
      </trkpt>
      <trkpt lat="47.86307" lon="6.76308">
        <ele>681.6</ele>
        <time>2022-08-17T09:20:08Z</time>
      </trkpt>
      <trkpt lat="47.86306" lon="6.76309">
        <ele>681.7</ele>
        <time>2022-08-17T09:20:09Z</time>
      </trkpt>
      <trkpt lat="47.86305" lon="6.76311">
        <ele>681.7</ele>
        <time>2022-08-17T09:20:10Z</time>
      </trkpt>
      <trkpt lat="47.86305" lon="6.76312">
        <ele>681.6</ele>
        <time>2022-08-17T09:20:11Z</time>
      </trkpt>
      <trkpt lat="47.86304" lon="6.76313">
        <ele>681.7</ele>
        <time>2022-08-17T09:20:12Z</time>
      </trkpt>
      <trkpt lat="47.86303" lon="6.76315">
        <ele>681.7</ele>
        <time>2022-08-17T09:20:13Z</time>
      </trkpt>
      <trkpt lat="47.86302" lon="6.76316">
        <ele>681.8</ele>
        <time>2022-08-17T09:20:14Z</time>
      </trkpt>
      <trkpt lat="47.86301" lon="6.76317">
        <ele>681.9</ele>
        <time>2022-08-17T09:20:15Z</time>
      </trkpt>
      <trkpt lat="47.863" lon="6.76318">
        <ele>682</ele>
        <time>2022-08-17T09:20:16Z</time>
      </trkpt>
      <trkpt lat="47.86299" lon="6.76319">
        <ele>682.1</ele>
        <time>2022-08-17T09:20:17Z</time>
      </trkpt>
      <trkpt lat="47.86299" lon="6.7632">
        <ele>682</ele>
        <time>2022-08-17T09:20:18Z</time>
      </trkpt>
      <trkpt lat="47.86298" lon="6.76321">
        <ele>682.1</ele>
        <time>2022-08-17T09:20:19Z</time>
      </trkpt>
      <trkpt lat="47.86298" lon="6.76322">
        <ele>682.1</ele>
        <time>2022-08-17T09:20:20Z</time>
      </trkpt>
      <trkpt lat="47.86297" lon="6.76323">
        <ele>682.2</ele>
        <time>2022-08-17T09:20:21Z</time>
      </trkpt>
      <trkpt lat="47.86296" lon="6.76324">
        <ele>682.3</ele>
        <time>2022-08-17T09:20:22Z</time>
      </trkpt>
      <trkpt lat="47.86295" lon="6.76325">
        <ele>682.4</ele>
        <time>2022-08-17T09:20:23Z</time>
      </trkpt>
      <trkpt lat="47.86295" lon="6.76326">
        <ele>682.3</ele>
        <time>2022-08-17T09:20:24Z</time>
      </trkpt>
      <trkpt lat="47.86294" lon="6.76327">
        <ele>682.4</ele>
        <time>2022-08-17T09:20:25Z</time>
      </trkpt>
      <trkpt lat="47.86294" lon="6.76329">
        <ele>682.3</ele>
        <time>2022-08-17T09:20:26Z</time>
      </trkpt>
      <trkpt lat="47.86293" lon="6.7633">
        <ele>682.4</ele>
        <time>2022-08-17T09:20:27Z</time>
      </trkpt>
      <trkpt lat="47.86293" lon="6.76331">
        <ele>682.4</ele>
        <time>2022-08-17T09:20:28Z</time>
      </trkpt>
      <trkpt lat="47.86293" lon="6.76333">
        <ele>682.3</ele>
        <time>2022-08-17T09:20:29Z</time>
      </trkpt>
      <trkpt lat="47.86293" lon="6.76334">
        <ele>682.2</ele>
        <time>2022-08-17T09:20:30Z</time>
      </trkpt>
      <trkpt lat="47.86293" lon="6.76336">
        <ele>682.2</ele>
        <time>2022-08-17T09:20:31Z</time>
      </trkpt>
      <trkpt lat="47.86293" lon="6.76337">
        <ele>682.1</ele>
        <time>2022-08-17T09:20:32Z</time>
      </trkpt>
      <trkpt lat="47.86293" lon="6.76339">
        <ele>682.1</ele>
        <time>2022-08-17T09:20:33Z</time>
      </trkpt>
      <trkpt lat="47.86293" lon="6.76341">
        <ele>682</ele>
        <time>2022-08-17T09:20:34Z</time>
      </trkpt>
      <trkpt lat="47.86294" lon="6.76342">
        <ele>681.8</ele>
        <time>2022-08-17T09:20:35Z</time>
      </trkpt>
      <trkpt lat="47.86294" lon="6.76343">
        <ele>681.7</ele>
        <time>2022-08-17T09:20:36Z</time>
      </trkpt>
      <trkpt lat="47.86294" lon="6.76344">
        <ele>681.7</ele>
        <time>2022-08-17T09:20:38Z</time>
      </trkpt>
      <trkpt lat="47.86294" lon="6.76345">
        <ele>681.7</ele>
        <time>2022-08-17T09:20:40Z</time>
      </trkpt>
      <trkpt lat="47.86294" lon="6.76346">
        <ele>681.6</ele>
        <time>2022-08-17T09:20:41Z</time>
      </trkpt>
      <trkpt lat="47.86294" lon="6.76347">
        <ele>681.6</ele>
        <time>2022-08-17T09:20:42Z</time>
      </trkpt>
      <trkpt lat="47.86294" lon="6.76348">
        <ele>681.6</ele>
        <time>2022-08-17T09:20:43Z</time>
      </trkpt>
      <trkpt lat="47.86295" lon="6.76349">
        <ele>681.3</ele>
        <time>2022-08-17T09:20:44Z</time>
      </trkpt>
      <trkpt lat="47.86295" lon="6.7635">
        <ele>681.3</ele>
        <time>2022-08-17T09:20:45Z</time>
      </trkpt>
      <trkpt lat="47.86295" lon="6.76352">
        <ele>681.2</ele>
        <time>2022-08-17T09:20:46Z</time>
      </trkpt>
      <trkpt lat="47.86296" lon="6.76353">
        <ele>681</ele>
        <time>2022-08-17T09:20:47Z</time>
      </trkpt>
      <trkpt lat="47.86296" lon="6.76354">
        <ele>681</ele>
        <time>2022-08-17T09:20:48Z</time>
      </trkpt>
      <trkpt lat="47.86296" lon="6.76355">
        <ele>680.9</ele>
        <time>2022-08-17T09:20:49Z</time>
      </trkpt>
      <trkpt lat="47.86296" lon="6.76357">
        <ele>680.9</ele>
        <time>2022-08-17T09:20:50Z</time>
      </trkpt>
      <trkpt lat="47.86297" lon="6.76358">
        <ele>680.7</ele>
        <time>2022-08-17T09:20:51Z</time>
      </trkpt>
      <trkpt lat="47.86297" lon="6.76359">
        <ele>680.6</ele>
        <time>2022-08-17T09:20:52Z</time>
      </trkpt>
      <trkpt lat="47.86297" lon="6.76361">
        <ele>680.5</ele>
        <time>2022-08-17T09:20:53Z</time>
      </trkpt>
      <trkpt lat="47.86297" lon="6.76362">
        <ele>680.5</ele>
        <time>2022-08-17T09:20:54Z</time>
      </trkpt>
      <trkpt lat="47.86297" lon="6.76364">
        <ele>680.5</ele>
        <time>2022-08-17T09:20:55Z</time>
      </trkpt>
      <trkpt lat="47.86297" lon="6.76365">
        <ele>680.5</ele>
        <time>2022-08-17T09:20:56Z</time>
      </trkpt>
      <trkpt lat="47.86298" lon="6.76367">
        <ele>680.2</ele>
        <time>2022-08-17T09:20:57Z</time>
      </trkpt>
      <trkpt lat="47.86298" lon="6.76368">
        <ele>680.2</ele>
        <time>2022-08-17T09:20:58Z</time>
      </trkpt>
      <trkpt lat="47.86298" lon="6.7637">
        <ele>680.2</ele>
        <time>2022-08-17T09:20:59Z</time>
      </trkpt>
      <trkpt lat="47.86298" lon="6.76372">
        <ele>680.1</ele>
        <time>2022-08-17T09:21:00Z</time>
      </trkpt>
      <trkpt lat="47.86298" lon="6.76373">
        <ele>680.1</ele>
        <time>2022-08-17T09:21:01Z</time>
      </trkpt>
      <trkpt lat="47.86299" lon="6.76375">
        <ele>679.9</ele>
        <time>2022-08-17T09:21:02Z</time>
      </trkpt>
      <trkpt lat="47.86298" lon="6.76376">
        <ele>680.1</ele>
        <time>2022-08-17T09:21:03Z</time>
      </trkpt>
      <trkpt lat="47.86298" lon="6.76378">
        <ele>680</ele>
        <time>2022-08-17T09:21:04Z</time>
      </trkpt>
      <trkpt lat="47.86298" lon="6.76379">
        <ele>680</ele>
        <time>2022-08-17T09:21:05Z</time>
      </trkpt>
      <trkpt lat="47.86298" lon="6.76381">
        <ele>680</ele>
        <time>2022-08-17T09:21:06Z</time>
      </trkpt>
      <trkpt lat="47.86298" lon="6.76382">
        <ele>680</ele>
        <time>2022-08-17T09:21:07Z</time>
      </trkpt>
      <trkpt lat="47.86298" lon="6.76384">
        <ele>679.9</ele>
        <time>2022-08-17T09:21:08Z</time>
      </trkpt>
      <trkpt lat="47.86297" lon="6.76385">
        <ele>680</ele>
        <time>2022-08-17T09:21:09Z</time>
      </trkpt>
      <trkpt lat="47.86297" lon="6.76387">
        <ele>680</ele>
        <time>2022-08-17T09:21:10Z</time>
      </trkpt>
      <trkpt lat="47.86297" lon="6.76389">
        <ele>679.9</ele>
        <time>2022-08-17T09:21:11Z</time>
      </trkpt>
      <trkpt lat="47.86297" lon="6.7639">
        <ele>679.8</ele>
        <time>2022-08-17T09:21:12Z</time>
      </trkpt>
      <trkpt lat="47.86297" lon="6.76392">
        <ele>679.6</ele>
        <time>2022-08-17T09:21:13Z</time>
      </trkpt>
      <trkpt lat="47.86297" lon="6.76393">
        <ele>679.5</ele>
        <time>2022-08-17T09:21:14Z</time>
      </trkpt>
      <trkpt lat="47.86297" lon="6.76394">
        <ele>679.4</ele>
        <time>2022-08-17T09:21:15Z</time>
      </trkpt>
      <trkpt lat="47.86296" lon="6.76396">
        <ele>679.3</ele>
        <time>2022-08-17T09:21:16Z</time>
      </trkpt>
      <trkpt lat="47.86296" lon="6.76397">
        <ele>679.2</ele>
        <time>2022-08-17T09:21:17Z</time>
      </trkpt>
      <trkpt lat="47.86296" lon="6.76399">
        <ele>679</ele>
        <time>2022-08-17T09:21:18Z</time>
      </trkpt>
      <trkpt lat="47.86296" lon="6.764">
        <ele>678.8</ele>
        <time>2022-08-17T09:21:19Z</time>
      </trkpt>
      <trkpt lat="47.86296" lon="6.76401">
        <ele>678.7</ele>
        <time>2022-08-17T09:21:20Z</time>
      </trkpt>
      <trkpt lat="47.86296" lon="6.76403">
        <ele>678.5</ele>
        <time>2022-08-17T09:21:21Z</time>
      </trkpt>
      <trkpt lat="47.86295" lon="6.76404">
        <ele>678.6</ele>
        <time>2022-08-17T09:21:22Z</time>
      </trkpt>
      <trkpt lat="47.86295" lon="6.76406">
        <ele>678.4</ele>
        <time>2022-08-17T09:21:23Z</time>
      </trkpt>
      <trkpt lat="47.86296" lon="6.76407">
        <ele>678.1</ele>
        <time>2022-08-17T09:21:24Z</time>
      </trkpt>
      <trkpt lat="47.86296" lon="6.76409">
        <ele>677.9</ele>
        <time>2022-08-17T09:21:25Z</time>
      </trkpt>
      <trkpt lat="47.86296" lon="6.7641">
        <ele>677.8</ele>
        <time>2022-08-17T09:21:26Z</time>
      </trkpt>
      <trkpt lat="47.86296" lon="6.76411">
        <ele>677.7</ele>
        <time>2022-08-17T09:21:27Z</time>
      </trkpt>
      <trkpt lat="47.86296" lon="6.76413">
        <ele>677.5</ele>
        <time>2022-08-17T09:21:28Z</time>
      </trkpt>
      <trkpt lat="47.86295" lon="6.76414">
        <ele>677.6</ele>
        <time>2022-08-17T09:21:29Z</time>
      </trkpt>
      <trkpt lat="47.86295" lon="6.76416">
        <ele>677.3</ele>
        <time>2022-08-17T09:21:30Z</time>
      </trkpt>
      <trkpt lat="47.86295" lon="6.76417">
        <ele>677.3</ele>
        <time>2022-08-17T09:21:31Z</time>
      </trkpt>
      <trkpt lat="47.86295" lon="6.76419">
        <ele>677.1</ele>
        <time>2022-08-17T09:21:32Z</time>
      </trkpt>
      <trkpt lat="47.86295" lon="6.7642">
        <ele>677.1</ele>
        <time>2022-08-17T09:21:33Z</time>
      </trkpt>
      <trkpt lat="47.86295" lon="6.76422">
        <ele>677</ele>
        <time>2022-08-17T09:21:34Z</time>
      </trkpt>
      <trkpt lat="47.86295" lon="6.76423">
        <ele>676.9</ele>
        <time>2022-08-17T09:21:35Z</time>
      </trkpt>
      <trkpt lat="47.86295" lon="6.76425">
        <ele>676.8</ele>
        <time>2022-08-17T09:21:36Z</time>
      </trkpt>
      <trkpt lat="47.86294" lon="6.76426">
        <ele>677</ele>
        <time>2022-08-17T09:21:37Z</time>
      </trkpt>
      <trkpt lat="47.86294" lon="6.76428">
        <ele>676.8</ele>
        <time>2022-08-17T09:21:38Z</time>
      </trkpt>
      <trkpt lat="47.86294" lon="6.76429">
        <ele>676.8</ele>
        <time>2022-08-17T09:21:39Z</time>
      </trkpt>
      <trkpt lat="47.86294" lon="6.76431">
        <ele>676.7</ele>
        <time>2022-08-17T09:21:40Z</time>
      </trkpt>
      <trkpt lat="47.86294" lon="6.76432">
        <ele>676.6</ele>
        <time>2022-08-17T09:21:41Z</time>
      </trkpt>
      <trkpt lat="47.86294" lon="6.76434">
        <ele>676.5</ele>
        <time>2022-08-17T09:21:42Z</time>
      </trkpt>
      <trkpt lat="47.86294" lon="6.76435">
        <ele>676.5</ele>
        <time>2022-08-17T09:21:43Z</time>
      </trkpt>
      <trkpt lat="47.86294" lon="6.76436">
        <ele>676.4</ele>
        <time>2022-08-17T09:21:44Z</time>
      </trkpt>
      <trkpt lat="47.86294" lon="6.76438">
        <ele>676.3</ele>
        <time>2022-08-17T09:21:45Z</time>
      </trkpt>
      <trkpt lat="47.86294" lon="6.76439">
        <ele>676.2</ele>
        <time>2022-08-17T09:21:46Z</time>
      </trkpt>
      <trkpt lat="47.86294" lon="6.7644">
        <ele>676.2</ele>
        <time>2022-08-17T09:21:47Z</time>
      </trkpt>
      <trkpt lat="47.86294" lon="6.76442">
        <ele>676.1</ele>
        <time>2022-08-17T09:21:48Z</time>
      </trkpt>
      <trkpt lat="47.86294" lon="6.76443">
        <ele>676</ele>
        <time>2022-08-17T09:21:49Z</time>
      </trkpt>
      <trkpt lat="47.86293" lon="6.76445">
        <ele>676.1</ele>
        <time>2022-08-17T09:21:50Z</time>
      </trkpt>
      <trkpt lat="47.86293" lon="6.76446">
        <ele>676.1</ele>
        <time>2022-08-17T09:21:51Z</time>
      </trkpt>
      <trkpt lat="47.86293" lon="6.76448">
        <ele>676</ele>
        <time>2022-08-17T09:21:52Z</time>
      </trkpt>
      <trkpt lat="47.86293" lon="6.7645">
        <ele>675.9</ele>
        <time>2022-08-17T09:21:53Z</time>
      </trkpt>
      <trkpt lat="47.86292" lon="6.76451">
        <ele>676.1</ele>
        <time>2022-08-17T09:21:54Z</time>
      </trkpt>
      <trkpt lat="47.86292" lon="6.76453">
        <ele>676</ele>
        <time>2022-08-17T09:21:55Z</time>
      </trkpt>
      <trkpt lat="47.86291" lon="6.76454">
        <ele>676.1</ele>
        <time>2022-08-17T09:21:56Z</time>
      </trkpt>
      <trkpt lat="47.86291" lon="6.76455">
        <ele>676.1</ele>
        <time>2022-08-17T09:21:57Z</time>
      </trkpt>
      <trkpt lat="47.86291" lon="6.76457">
        <ele>676</ele>
        <time>2022-08-17T09:21:58Z</time>
      </trkpt>
      <trkpt lat="47.8629" lon="6.76458">
        <ele>676.2</ele>
        <time>2022-08-17T09:21:59Z</time>
      </trkpt>
      <trkpt lat="47.8629" lon="6.7646">
        <ele>676</ele>
        <time>2022-08-17T09:22:00Z</time>
      </trkpt>
      <trkpt lat="47.8629" lon="6.76461">
        <ele>676</ele>
        <time>2022-08-17T09:22:01Z</time>
      </trkpt>
      <trkpt lat="47.8629" lon="6.76462">
        <ele>675.9</ele>
        <time>2022-08-17T09:22:02Z</time>
      </trkpt>
      <trkpt lat="47.8629" lon="6.76464">
        <ele>675.8</ele>
        <time>2022-08-17T09:22:03Z</time>
      </trkpt>
      <trkpt lat="47.8629" lon="6.76465">
        <ele>675.8</ele>
        <time>2022-08-17T09:22:04Z</time>
      </trkpt>
      <trkpt lat="47.8629" lon="6.76467">
        <ele>675.7</ele>
        <time>2022-08-17T09:22:05Z</time>
      </trkpt>
      <trkpt lat="47.8629" lon="6.76468">
        <ele>675.6</ele>
        <time>2022-08-17T09:22:06Z</time>
      </trkpt>
      <trkpt lat="47.8629" lon="6.76469">
        <ele>675.5</ele>
        <time>2022-08-17T09:22:07Z</time>
      </trkpt>
      <trkpt lat="47.86289" lon="6.76471">
        <ele>675.6</ele>
        <time>2022-08-17T09:22:08Z</time>
      </trkpt>
      <trkpt lat="47.86289" lon="6.76473">
        <ele>675.5</ele>
        <time>2022-08-17T09:22:09Z</time>
      </trkpt>
      <trkpt lat="47.86289" lon="6.76474">
        <ele>675.4</ele>
        <time>2022-08-17T09:22:10Z</time>
      </trkpt>
      <trkpt lat="47.86289" lon="6.76476">
        <ele>675.2</ele>
        <time>2022-08-17T09:22:11Z</time>
      </trkpt>
      <trkpt lat="47.86289" lon="6.76477">
        <ele>675.1</ele>
        <time>2022-08-17T09:22:12Z</time>
      </trkpt>
      <trkpt lat="47.86288" lon="6.76478">
        <ele>675.2</ele>
        <time>2022-08-17T09:22:13Z</time>
      </trkpt>
      <trkpt lat="47.86288" lon="6.7648">
        <ele>675.1</ele>
        <time>2022-08-17T09:22:14Z</time>
      </trkpt>
      <trkpt lat="47.86288" lon="6.76481">
        <ele>675</ele>
        <time>2022-08-17T09:22:15Z</time>
      </trkpt>
      <trkpt lat="47.86288" lon="6.76483">
        <ele>674.8</ele>
        <time>2022-08-17T09:22:16Z</time>
      </trkpt>
      <trkpt lat="47.86288" lon="6.76484">
        <ele>674.7</ele>
        <time>2022-08-17T09:22:17Z</time>
      </trkpt>
      <trkpt lat="47.86288" lon="6.76485">
        <ele>674.6</ele>
        <time>2022-08-17T09:22:18Z</time>
      </trkpt>
      <trkpt lat="47.86288" lon="6.76487">
        <ele>674.4</ele>
        <time>2022-08-17T09:22:19Z</time>
      </trkpt>
      <trkpt lat="47.86288" lon="6.76488">
        <ele>674.3</ele>
        <time>2022-08-17T09:22:20Z</time>
      </trkpt>
      <trkpt lat="47.86288" lon="6.76489">
        <ele>674.2</ele>
        <time>2022-08-17T09:22:21Z</time>
      </trkpt>
      <trkpt lat="47.86288" lon="6.76491">
        <ele>674</ele>
        <time>2022-08-17T09:22:22Z</time>
      </trkpt>
      <trkpt lat="47.86288" lon="6.76492">
        <ele>673.9</ele>
        <time>2022-08-17T09:22:23Z</time>
      </trkpt>
      <trkpt lat="47.86288" lon="6.76493">
        <ele>673.8</ele>
        <time>2022-08-17T09:22:24Z</time>
      </trkpt>
      <trkpt lat="47.86288" lon="6.76495">
        <ele>673.6</ele>
        <time>2022-08-17T09:22:25Z</time>
      </trkpt>
      <trkpt lat="47.86288" lon="6.76496">
        <ele>673.5</ele>
        <time>2022-08-17T09:22:26Z</time>
      </trkpt>
      <trkpt lat="47.86288" lon="6.76497">
        <ele>673.4</ele>
        <time>2022-08-17T09:22:27Z</time>
      </trkpt>
      <trkpt lat="47.86288" lon="6.76499">
        <ele>673.3</ele>
        <time>2022-08-17T09:22:28Z</time>
      </trkpt>
      <trkpt lat="47.86288" lon="6.765">
        <ele>673.2</ele>
        <time>2022-08-17T09:22:29Z</time>
      </trkpt>
      <trkpt lat="47.86288" lon="6.76502">
        <ele>673</ele>
        <time>2022-08-17T09:22:30Z</time>
      </trkpt>
      <trkpt lat="47.86288" lon="6.76503">
        <ele>672.9</ele>
        <time>2022-08-17T09:22:31Z</time>
      </trkpt>
      <trkpt lat="47.86288" lon="6.76504">
        <ele>672.8</ele>
        <time>2022-08-17T09:22:32Z</time>
      </trkpt>
      <trkpt lat="47.86288" lon="6.76506">
        <ele>672.6</ele>
        <time>2022-08-17T09:22:33Z</time>
      </trkpt>
      <trkpt lat="47.86288" lon="6.76507">
        <ele>672.5</ele>
        <time>2022-08-17T09:22:34Z</time>
      </trkpt>
      <trkpt lat="47.86288" lon="6.76509">
        <ele>672.3</ele>
        <time>2022-08-17T09:22:35Z</time>
      </trkpt>
      <trkpt lat="47.86288" lon="6.7651">
        <ele>672.2</ele>
        <time>2022-08-17T09:22:36Z</time>
      </trkpt>
      <trkpt lat="47.86289" lon="6.76512">
        <ele>671.9</ele>
        <time>2022-08-17T09:22:37Z</time>
      </trkpt>
      <trkpt lat="47.86289" lon="6.76513">
        <ele>671.8</ele>
        <time>2022-08-17T09:22:38Z</time>
      </trkpt>
      <trkpt lat="47.86289" lon="6.76514">
        <ele>671.7</ele>
        <time>2022-08-17T09:22:39Z</time>
      </trkpt>
      <trkpt lat="47.8629" lon="6.76515">
        <ele>671.4</ele>
        <time>2022-08-17T09:22:40Z</time>
      </trkpt>
      <trkpt lat="47.8629" lon="6.76516">
        <ele>671.3</ele>
        <time>2022-08-17T09:22:41Z</time>
      </trkpt>
      <trkpt lat="47.8629" lon="6.76517">
        <ele>671.2</ele>
        <time>2022-08-17T09:22:42Z</time>
      </trkpt>
      <trkpt lat="47.86291" lon="6.76518">
        <ele>671</ele>
        <time>2022-08-17T09:22:43Z</time>
      </trkpt>
      <trkpt lat="47.86291" lon="6.76519">
        <ele>670.9</ele>
        <time>2022-08-17T09:22:44Z</time>
      </trkpt>
      <trkpt lat="47.86291" lon="6.7652">
        <ele>670.8</ele>
        <time>2022-08-17T09:23:08Z</time>
      </trkpt>
      <trkpt lat="47.86291" lon="6.76521">
        <ele>670.7</ele>
        <time>2022-08-17T09:23:10Z</time>
      </trkpt>
      <trkpt lat="47.86292" lon="6.76522">
        <ele>670.5</ele>
        <time>2022-08-17T09:23:11Z</time>
      </trkpt>
      <trkpt lat="47.86292" lon="6.76523">
        <ele>670.4</ele>
        <time>2022-08-17T09:23:12Z</time>
      </trkpt>
      <trkpt lat="47.86292" lon="6.76524">
        <ele>670.3</ele>
        <time>2022-08-17T09:23:13Z</time>
      </trkpt>
      <trkpt lat="47.86292" lon="6.76525">
        <ele>670.2</ele>
        <time>2022-08-17T09:23:14Z</time>
      </trkpt>
      <trkpt lat="47.86292" lon="6.76526">
        <ele>670.1</ele>
        <time>2022-08-17T09:23:16Z</time>
      </trkpt>
      <trkpt lat="47.86293" lon="6.76528">
        <ele>669.8</ele>
        <time>2022-08-17T09:23:17Z</time>
      </trkpt>
      <trkpt lat="47.86293" lon="6.76529">
        <ele>669.7</ele>
        <time>2022-08-17T09:23:18Z</time>
      </trkpt>
      <trkpt lat="47.86294" lon="6.7653">
        <ele>669.4</ele>
        <time>2022-08-17T09:23:19Z</time>
      </trkpt>
      <trkpt lat="47.86294" lon="6.76531">
        <ele>669.2</ele>
        <time>2022-08-17T09:23:20Z</time>
      </trkpt>
      <trkpt lat="47.86294" lon="6.76532">
        <ele>669.1</ele>
        <time>2022-08-17T09:23:21Z</time>
      </trkpt>
      <trkpt lat="47.86295" lon="6.76533">
        <ele>668.8</ele>
        <time>2022-08-17T09:23:22Z</time>
      </trkpt>
      <trkpt lat="47.86295" lon="6.76534">
        <ele>668.7</ele>
        <time>2022-08-17T09:23:23Z</time>
      </trkpt>
      <trkpt lat="47.86295" lon="6.76535">
        <ele>668.6</ele>
        <time>2022-08-17T09:23:24Z</time>
      </trkpt>
      <trkpt lat="47.86295" lon="6.76537">
        <ele>668.3</ele>
        <time>2022-08-17T09:23:25Z</time>
      </trkpt>
      <trkpt lat="47.86296" lon="6.76538">
        <ele>668</ele>
        <time>2022-08-17T09:23:26Z</time>
      </trkpt>
      <trkpt lat="47.86296" lon="6.76539">
        <ele>667.9</ele>
        <time>2022-08-17T09:23:27Z</time>
      </trkpt>
      <trkpt lat="47.86297" lon="6.7654">
        <ele>667.6</ele>
        <time>2022-08-17T09:23:28Z</time>
      </trkpt>
      <trkpt lat="47.86297" lon="6.76541">
        <ele>667.5</ele>
        <time>2022-08-17T09:23:29Z</time>
      </trkpt>
      <trkpt lat="47.86298" lon="6.76542">
        <ele>667.2</ele>
        <time>2022-08-17T09:23:30Z</time>
      </trkpt>
      <trkpt lat="47.86298" lon="6.76544">
        <ele>666.9</ele>
        <time>2022-08-17T09:23:31Z</time>
      </trkpt>
      <trkpt lat="47.86298" lon="6.76545">
        <ele>666.8</ele>
        <time>2022-08-17T09:23:32Z</time>
      </trkpt>
      <trkpt lat="47.86299" lon="6.76546">
        <ele>666.5</ele>
        <time>2022-08-17T09:23:33Z</time>
      </trkpt>
      <trkpt lat="47.86299" lon="6.76548">
        <ele>666.2</ele>
        <time>2022-08-17T09:23:34Z</time>
      </trkpt>
      <trkpt lat="47.86299" lon="6.76549">
        <ele>666.1</ele>
        <time>2022-08-17T09:23:35Z</time>
      </trkpt>
      <trkpt lat="47.863" lon="6.7655">
        <ele>665.8</ele>
        <time>2022-08-17T09:23:36Z</time>
      </trkpt>
      <trkpt lat="47.863" lon="6.76552">
        <ele>665.5</ele>
        <time>2022-08-17T09:23:37Z</time>
      </trkpt>
      <trkpt lat="47.863" lon="6.76553">
        <ele>665.3</ele>
        <time>2022-08-17T09:23:38Z</time>
      </trkpt>
      <trkpt lat="47.863" lon="6.76554">
        <ele>665.2</ele>
        <time>2022-08-17T09:23:39Z</time>
      </trkpt>
      <trkpt lat="47.86301" lon="6.76556">
        <ele>664.8</ele>
        <time>2022-08-17T09:23:40Z</time>
      </trkpt>
      <trkpt lat="47.86301" lon="6.76557">
        <ele>664.6</ele>
        <time>2022-08-17T09:23:41Z</time>
      </trkpt>
      <trkpt lat="47.86301" lon="6.76558">
        <ele>664.5</ele>
        <time>2022-08-17T09:23:42Z</time>
      </trkpt>
      <trkpt lat="47.86301" lon="6.7656">
        <ele>664.2</ele>
        <time>2022-08-17T09:23:43Z</time>
      </trkpt>
      <trkpt lat="47.86301" lon="6.76561">
        <ele>664.1</ele>
        <time>2022-08-17T09:23:44Z</time>
      </trkpt>
      <trkpt lat="47.86301" lon="6.76562">
        <ele>664</ele>
        <time>2022-08-17T09:23:45Z</time>
      </trkpt>
      <trkpt lat="47.86301" lon="6.76563">
        <ele>663.8</ele>
        <time>2022-08-17T09:23:46Z</time>
      </trkpt>
      <trkpt lat="47.86302" lon="6.76565">
        <ele>663.4</ele>
        <time>2022-08-17T09:23:48Z</time>
      </trkpt>
      <trkpt lat="47.86302" lon="6.76566">
        <ele>663.2</ele>
        <time>2022-08-17T09:23:49Z</time>
      </trkpt>
      <trkpt lat="47.86302" lon="6.76567">
        <ele>663.1</ele>
        <time>2022-08-17T09:23:50Z</time>
      </trkpt>
      <trkpt lat="47.86302" lon="6.76568">
        <ele>663</ele>
        <time>2022-08-17T09:23:51Z</time>
      </trkpt>
      <trkpt lat="47.86303" lon="6.76569">
        <ele>662.6</ele>
        <time>2022-08-17T09:23:52Z</time>
      </trkpt>
      <trkpt lat="47.86303" lon="6.7657">
        <ele>662.5</ele>
        <time>2022-08-17T09:23:53Z</time>
      </trkpt>
      <trkpt lat="47.86304" lon="6.76571">
        <ele>662.1</ele>
        <time>2022-08-17T09:23:54Z</time>
      </trkpt>
      <trkpt lat="47.86304" lon="6.76572">
        <ele>662</ele>
        <time>2022-08-17T09:23:55Z</time>
      </trkpt>
      <trkpt lat="47.86305" lon="6.76573">
        <ele>661.6</ele>
        <time>2022-08-17T09:23:56Z</time>
      </trkpt>
      <trkpt lat="47.86306" lon="6.76574">
        <ele>661.2</ele>
        <time>2022-08-17T09:23:57Z</time>
      </trkpt>
      <trkpt lat="47.86306" lon="6.76576">
        <ele>660.9</ele>
        <time>2022-08-17T09:23:58Z</time>
      </trkpt>
      <trkpt lat="47.86306" lon="6.76577">
        <ele>660.8</ele>
        <time>2022-08-17T09:23:59Z</time>
      </trkpt>
      <trkpt lat="47.86306" lon="6.76578">
        <ele>660.6</ele>
        <time>2022-08-17T09:24:00Z</time>
      </trkpt>
      <trkpt lat="47.86305" lon="6.7658">
        <ele>660.6</ele>
        <time>2022-08-17T09:24:01Z</time>
      </trkpt>
      <trkpt lat="47.86305" lon="6.76582">
        <ele>660.3</ele>
        <time>2022-08-17T09:24:02Z</time>
      </trkpt>
      <trkpt lat="47.86305" lon="6.76583">
        <ele>660.2</ele>
        <time>2022-08-17T09:24:03Z</time>
      </trkpt>
      <trkpt lat="47.86304" lon="6.76584">
        <ele>660.3</ele>
        <time>2022-08-17T09:24:04Z</time>
      </trkpt>
      <trkpt lat="47.86304" lon="6.76586">
        <ele>660.2</ele>
        <time>2022-08-17T09:24:05Z</time>
      </trkpt>
      <trkpt lat="47.86304" lon="6.76587">
        <ele>660.1</ele>
        <time>2022-08-17T09:24:06Z</time>
      </trkpt>
      <trkpt lat="47.86304" lon="6.76588">
        <ele>660.1</ele>
        <time>2022-08-17T09:24:07Z</time>
      </trkpt>
      <trkpt lat="47.86304" lon="6.7659">
        <ele>659.9</ele>
        <time>2022-08-17T09:24:08Z</time>
      </trkpt>
      <trkpt lat="47.86304" lon="6.76591">
        <ele>659.8</ele>
        <time>2022-08-17T09:24:09Z</time>
      </trkpt>
      <trkpt lat="47.86305" lon="6.76592">
        <ele>659.5</ele>
        <time>2022-08-17T09:24:10Z</time>
      </trkpt>
      <trkpt lat="47.86305" lon="6.76594">
        <ele>659.4</ele>
        <time>2022-08-17T09:24:11Z</time>
      </trkpt>
      <trkpt lat="47.86305" lon="6.76595">
        <ele>659.3</ele>
        <time>2022-08-17T09:24:12Z</time>
      </trkpt>
      <trkpt lat="47.86305" lon="6.76596">
        <ele>659.2</ele>
        <time>2022-08-17T09:24:13Z</time>
      </trkpt>
      <trkpt lat="47.86305" lon="6.76598">
        <ele>659.1</ele>
        <time>2022-08-17T09:24:14Z</time>
      </trkpt>
      <trkpt lat="47.86305" lon="6.76599">
        <ele>659</ele>
        <time>2022-08-17T09:24:15Z</time>
      </trkpt>
      <trkpt lat="47.86305" lon="6.766">
        <ele>658.9</ele>
        <time>2022-08-17T09:24:16Z</time>
      </trkpt>
      <trkpt lat="47.86306" lon="6.76602">
        <ele>658.5</ele>
        <time>2022-08-17T09:24:17Z</time>
      </trkpt>
      <trkpt lat="47.86306" lon="6.76603">
        <ele>658.4</ele>
        <time>2022-08-17T09:24:18Z</time>
      </trkpt>
      <trkpt lat="47.86306" lon="6.76604">
        <ele>658.4</ele>
        <time>2022-08-17T09:24:19Z</time>
      </trkpt>
      <trkpt lat="47.86306" lon="6.76606">
        <ele>658.2</ele>
        <time>2022-08-17T09:24:20Z</time>
      </trkpt>
      <trkpt lat="47.86306" lon="6.76607">
        <ele>658.2</ele>
        <time>2022-08-17T09:24:21Z</time>
      </trkpt>
      <trkpt lat="47.86306" lon="6.76608">
        <ele>658.1</ele>
        <time>2022-08-17T09:24:22Z</time>
      </trkpt>
      <trkpt lat="47.86306" lon="6.7661">
        <ele>657.9</ele>
        <time>2022-08-17T09:24:23Z</time>
      </trkpt>
      <trkpt lat="47.86306" lon="6.76611">
        <ele>657.9</ele>
        <time>2022-08-17T09:24:24Z</time>
      </trkpt>
      <trkpt lat="47.86306" lon="6.76612">
        <ele>657.8</ele>
        <time>2022-08-17T09:24:25Z</time>
      </trkpt>
      <trkpt lat="47.86306" lon="6.76614">
        <ele>657.5</ele>
        <time>2022-08-17T09:24:26Z</time>
      </trkpt>
      <trkpt lat="47.86306" lon="6.76615">
        <ele>657.4</ele>
        <time>2022-08-17T09:24:27Z</time>
      </trkpt>
      <trkpt lat="47.86306" lon="6.76617">
        <ele>657.2</ele>
        <time>2022-08-17T09:24:28Z</time>
      </trkpt>
      <trkpt lat="47.86306" lon="6.76618">
        <ele>657.1</ele>
        <time>2022-08-17T09:24:29Z</time>
      </trkpt>
      <trkpt lat="47.86306" lon="6.76619">
        <ele>657</ele>
        <time>2022-08-17T09:24:30Z</time>
      </trkpt>
      <trkpt lat="47.86306" lon="6.76621">
        <ele>656.8</ele>
        <time>2022-08-17T09:24:31Z</time>
      </trkpt>
      <trkpt lat="47.86306" lon="6.76622">
        <ele>656.7</ele>
        <time>2022-08-17T09:24:32Z</time>
      </trkpt>
      <trkpt lat="47.86306" lon="6.76623">
        <ele>656.6</ele>
        <time>2022-08-17T09:24:33Z</time>
      </trkpt>
      <trkpt lat="47.86306" lon="6.76625">
        <ele>656.4</ele>
        <time>2022-08-17T09:24:34Z</time>
      </trkpt>
      <trkpt lat="47.86306" lon="6.76626">
        <ele>656.3</ele>
        <time>2022-08-17T09:24:35Z</time>
      </trkpt>
      <trkpt lat="47.86306" lon="6.76627">
        <ele>656.2</ele>
        <time>2022-08-17T09:24:36Z</time>
      </trkpt>
      <trkpt lat="47.86306" lon="6.76628">
        <ele>656.1</ele>
        <time>2022-08-17T09:24:37Z</time>
      </trkpt>
      <trkpt lat="47.86306" lon="6.7663">
        <ele>655.8</ele>
        <time>2022-08-17T09:24:38Z</time>
      </trkpt>
      <trkpt lat="47.86306" lon="6.76631">
        <ele>655.7</ele>
        <time>2022-08-17T09:24:39Z</time>
      </trkpt>
      <trkpt lat="47.86307" lon="6.76632">
        <ele>655.4</ele>
        <time>2022-08-17T09:24:40Z</time>
      </trkpt>
      <trkpt lat="47.86307" lon="6.76633">
        <ele>655.3</ele>
        <time>2022-08-17T09:24:41Z</time>
      </trkpt>
      <trkpt lat="47.86307" lon="6.76634">
        <ele>655.2</ele>
        <time>2022-08-17T09:24:42Z</time>
      </trkpt>
      <trkpt lat="47.86307" lon="6.76635">
        <ele>655.1</ele>
        <time>2022-08-17T09:24:43Z</time>
      </trkpt>
      <trkpt lat="47.86307" lon="6.76636">
        <ele>655</ele>
        <time>2022-08-17T09:24:44Z</time>
      </trkpt>
      <trkpt lat="47.86308" lon="6.76637">
        <ele>654.7</ele>
        <time>2022-08-17T09:24:45Z</time>
      </trkpt>
      <trkpt lat="47.86308" lon="6.76638">
        <ele>654.6</ele>
        <time>2022-08-17T09:24:46Z</time>
      </trkpt>
      <trkpt lat="47.86308" lon="6.76639">
        <ele>654.5</ele>
        <time>2022-08-17T09:24:47Z</time>
      </trkpt>
      <trkpt lat="47.86308" lon="6.7664">
        <ele>654.4</ele>
        <time>2022-08-17T09:24:48Z</time>
      </trkpt>
      <trkpt lat="47.86309" lon="6.76641">
        <ele>654.1</ele>
        <time>2022-08-17T09:24:49Z</time>
      </trkpt>
      <trkpt lat="47.86309" lon="6.76642">
        <ele>654.1</ele>
        <time>2022-08-17T09:24:50Z</time>
      </trkpt>
      <trkpt lat="47.8631" lon="6.76643">
        <ele>653.8</ele>
        <time>2022-08-17T09:24:51Z</time>
      </trkpt>
      <trkpt lat="47.8631" lon="6.76644">
        <ele>653.7</ele>
        <time>2022-08-17T09:24:52Z</time>
      </trkpt>
      <trkpt lat="47.86311" lon="6.76645">
        <ele>653.5</ele>
        <time>2022-08-17T09:24:53Z</time>
      </trkpt>
      <trkpt lat="47.86311" lon="6.76646">
        <ele>653.4</ele>
        <time>2022-08-17T09:24:54Z</time>
      </trkpt>
      <trkpt lat="47.86312" lon="6.76646">
        <ele>653.2</ele>
        <time>2022-08-17T09:24:55Z</time>
      </trkpt>
      <trkpt lat="47.86313" lon="6.76648">
        <ele>652.9</ele>
        <time>2022-08-17T09:25:44Z</time>
      </trkpt>
      <trkpt lat="47.86313" lon="6.7665">
        <ele>652.8</ele>
        <time>2022-08-17T09:25:45Z</time>
      </trkpt>
      <trkpt lat="47.86314" lon="6.76651">
        <ele>652.6</ele>
        <time>2022-08-17T09:25:46Z</time>
      </trkpt>
      <trkpt lat="47.86314" lon="6.76652">
        <ele>652.5</ele>
        <time>2022-08-17T09:25:48Z</time>
      </trkpt>
      <trkpt lat="47.86315" lon="6.76654">
        <ele>652.2</ele>
        <time>2022-08-17T09:26:03Z</time>
      </trkpt>
      <trkpt lat="47.86315" lon="6.76655">
        <ele>652.2</ele>
        <time>2022-08-17T09:26:05Z</time>
      </trkpt>
      <trkpt lat="47.86316" lon="6.76656">
        <ele>652</ele>
        <time>2022-08-17T09:26:06Z</time>
      </trkpt>
      <trkpt lat="47.86316" lon="6.76657">
        <ele>651.9</ele>
        <time>2022-08-17T09:26:07Z</time>
      </trkpt>
      <trkpt lat="47.86316" lon="6.76658">
        <ele>651.9</ele>
        <time>2022-08-17T09:26:08Z</time>
      </trkpt>
      <trkpt lat="47.86316" lon="6.76659">
        <ele>651.8</ele>
        <time>2022-08-17T09:26:09Z</time>
      </trkpt>
      <trkpt lat="47.86316" lon="6.7666">
        <ele>651.8</ele>
        <time>2022-08-17T09:26:10Z</time>
      </trkpt>
      <trkpt lat="47.86317" lon="6.76661">
        <ele>651.6</ele>
        <time>2022-08-17T09:26:11Z</time>
      </trkpt>
      <trkpt lat="47.86317" lon="6.76663">
        <ele>651.5</ele>
        <time>2022-08-17T09:26:12Z</time>
      </trkpt>
      <trkpt lat="47.86317" lon="6.76664">
        <ele>651.5</ele>
        <time>2022-08-17T09:26:13Z</time>
      </trkpt>
      <trkpt lat="47.86317" lon="6.76666">
        <ele>651.4</ele>
        <time>2022-08-17T09:26:14Z</time>
      </trkpt>
      <trkpt lat="47.86317" lon="6.76668">
        <ele>651.3</ele>
        <time>2022-08-17T09:26:15Z</time>
      </trkpt>
      <trkpt lat="47.86316" lon="6.76669">
        <ele>651.3</ele>
        <time>2022-08-17T09:26:16Z</time>
      </trkpt>
      <trkpt lat="47.86316" lon="6.76671">
        <ele>651.2</ele>
        <time>2022-08-17T09:26:17Z</time>
      </trkpt>
      <trkpt lat="47.86316" lon="6.76672">
        <ele>651.1</ele>
        <time>2022-08-17T09:26:18Z</time>
      </trkpt>
      <trkpt lat="47.86315" lon="6.76673">
        <ele>651.2</ele>
        <time>2022-08-17T09:26:19Z</time>
      </trkpt>
      <trkpt lat="47.86315" lon="6.76675">
        <ele>651</ele>
        <time>2022-08-17T09:26:20Z</time>
      </trkpt>
      <trkpt lat="47.86315" lon="6.76676">
        <ele>651</ele>
        <time>2022-08-17T09:26:21Z</time>
      </trkpt>
      <trkpt lat="47.86314" lon="6.76678">
        <ele>651</ele>
        <time>2022-08-17T09:26:22Z</time>
      </trkpt>
      <trkpt lat="47.86314" lon="6.76679">
        <ele>650.9</ele>
        <time>2022-08-17T09:26:23Z</time>
      </trkpt>
      <trkpt lat="47.86313" lon="6.7668">
        <ele>651</ele>
        <time>2022-08-17T09:26:24Z</time>
      </trkpt>
      <trkpt lat="47.86313" lon="6.76681">
        <ele>650.9</ele>
        <time>2022-08-17T09:26:25Z</time>
      </trkpt>
      <trkpt lat="47.86312" lon="6.76683">
        <ele>650.9</ele>
        <time>2022-08-17T09:26:26Z</time>
      </trkpt>
      <trkpt lat="47.86312" lon="6.76684">
        <ele>650.8</ele>
        <time>2022-08-17T09:26:27Z</time>
      </trkpt>
      <trkpt lat="47.86311" lon="6.76685">
        <ele>650.9</ele>
        <time>2022-08-17T09:26:28Z</time>
      </trkpt>
      <trkpt lat="47.8631" lon="6.76686">
        <ele>651</ele>
        <time>2022-08-17T09:26:29Z</time>
      </trkpt>
      <trkpt lat="47.8631" lon="6.76688">
        <ele>650.8</ele>
        <time>2022-08-17T09:26:30Z</time>
      </trkpt>
      <trkpt lat="47.86309" lon="6.76689">
        <ele>650.9</ele>
        <time>2022-08-17T09:26:31Z</time>
      </trkpt>
      <trkpt lat="47.86309" lon="6.76691">
        <ele>650.8</ele>
        <time>2022-08-17T09:26:32Z</time>
      </trkpt>
      <trkpt lat="47.86309" lon="6.76692">
        <ele>650.7</ele>
        <time>2022-08-17T09:26:33Z</time>
      </trkpt>
      <trkpt lat="47.86308" lon="6.76693">
        <ele>650.8</ele>
        <time>2022-08-17T09:26:34Z</time>
      </trkpt>
      <trkpt lat="47.86308" lon="6.76694">
        <ele>650.7</ele>
        <time>2022-08-17T09:26:35Z</time>
      </trkpt>
      <trkpt lat="47.86307" lon="6.76695">
        <ele>650.8</ele>
        <time>2022-08-17T09:26:36Z</time>
      </trkpt>
      <trkpt lat="47.86307" lon="6.76696">
        <ele>650.7</ele>
        <time>2022-08-17T09:26:37Z</time>
      </trkpt>
      <trkpt lat="47.86307" lon="6.76698">
        <ele>650.7</ele>
        <time>2022-08-17T09:26:38Z</time>
      </trkpt>
      <trkpt lat="47.86306" lon="6.76699">
        <ele>650.8</ele>
        <time>2022-08-17T09:26:39Z</time>
      </trkpt>
      <trkpt lat="47.86306" lon="6.767">
        <ele>650.7</ele>
        <time>2022-08-17T09:26:40Z</time>
      </trkpt>
      <trkpt lat="47.86305" lon="6.76701">
        <ele>650.9</ele>
        <time>2022-08-17T09:26:41Z</time>
      </trkpt>
      <trkpt lat="47.86305" lon="6.76703">
        <ele>650.8</ele>
        <time>2022-08-17T09:26:42Z</time>
      </trkpt>
      <trkpt lat="47.86305" lon="6.76704">
        <ele>650.8</ele>
        <time>2022-08-17T09:26:43Z</time>
      </trkpt>
      <trkpt lat="47.86304" lon="6.76705">
        <ele>650.9</ele>
        <time>2022-08-17T09:26:44Z</time>
      </trkpt>
      <trkpt lat="47.86304" lon="6.76707">
        <ele>650.9</ele>
        <time>2022-08-17T09:26:45Z</time>
      </trkpt>
      <trkpt lat="47.86303" lon="6.76708">
        <ele>651</ele>
        <time>2022-08-17T09:26:46Z</time>
      </trkpt>
      <trkpt lat="47.86303" lon="6.76709">
        <ele>651</ele>
        <time>2022-08-17T09:26:47Z</time>
      </trkpt>
      <trkpt lat="47.86302" lon="6.76711">
        <ele>651.1</ele>
        <time>2022-08-17T09:26:48Z</time>
      </trkpt>
      <trkpt lat="47.86301" lon="6.76712">
        <ele>651.2</ele>
        <time>2022-08-17T09:26:49Z</time>
      </trkpt>
      <trkpt lat="47.86301" lon="6.76713">
        <ele>651.2</ele>
        <time>2022-08-17T09:26:50Z</time>
      </trkpt>
      <trkpt lat="47.863" lon="6.76715">
        <ele>651.2</ele>
        <time>2022-08-17T09:26:51Z</time>
      </trkpt>
      <trkpt lat="47.863" lon="6.76716">
        <ele>651.2</ele>
        <time>2022-08-17T09:26:52Z</time>
      </trkpt>
      <trkpt lat="47.86299" lon="6.76718">
        <ele>651.2</ele>
        <time>2022-08-17T09:26:53Z</time>
      </trkpt>
      <trkpt lat="47.86299" lon="6.76719">
        <ele>651.1</ele>
        <time>2022-08-17T09:26:54Z</time>
      </trkpt>
      <trkpt lat="47.86298" lon="6.7672">
        <ele>651.2</ele>
        <time>2022-08-17T09:26:55Z</time>
      </trkpt>
      <trkpt lat="47.86298" lon="6.76722">
        <ele>651.1</ele>
        <time>2022-08-17T09:26:56Z</time>
      </trkpt>
      <trkpt lat="47.86297" lon="6.76723">
        <ele>651.2</ele>
        <time>2022-08-17T09:26:57Z</time>
      </trkpt>
      <trkpt lat="47.86297" lon="6.76725">
        <ele>651.1</ele>
        <time>2022-08-17T09:26:58Z</time>
      </trkpt>
      <trkpt lat="47.86296" lon="6.76726">
        <ele>651.2</ele>
        <time>2022-08-17T09:26:59Z</time>
      </trkpt>
      <trkpt lat="47.86295" lon="6.76727">
        <ele>651.3</ele>
        <time>2022-08-17T09:27:00Z</time>
      </trkpt>
      <trkpt lat="47.86295" lon="6.76728">
        <ele>651.3</ele>
        <time>2022-08-17T09:27:01Z</time>
      </trkpt>
      <trkpt lat="47.86294" lon="6.7673">
        <ele>651.3</ele>
        <time>2022-08-17T09:27:02Z</time>
      </trkpt>
      <trkpt lat="47.86293" lon="6.76731">
        <ele>651.4</ele>
        <time>2022-08-17T09:27:03Z</time>
      </trkpt>
      <trkpt lat="47.86293" lon="6.76732">
        <ele>651.3</ele>
        <time>2022-08-17T09:27:04Z</time>
      </trkpt>
      <trkpt lat="47.86292" lon="6.76734">
        <ele>651.3</ele>
        <time>2022-08-17T09:27:05Z</time>
      </trkpt>
      <trkpt lat="47.86291" lon="6.76735">
        <ele>651.4</ele>
        <time>2022-08-17T09:27:06Z</time>
      </trkpt>
      <trkpt lat="47.86291" lon="6.76736">
        <ele>651.3</ele>
        <time>2022-08-17T09:27:07Z</time>
      </trkpt>
      <trkpt lat="47.8629" lon="6.76738">
        <ele>651.3</ele>
        <time>2022-08-17T09:27:08Z</time>
      </trkpt>
      <trkpt lat="47.8629" lon="6.76739">
        <ele>651.2</ele>
        <time>2022-08-17T09:27:09Z</time>
      </trkpt>
      <trkpt lat="47.8629" lon="6.7674">
        <ele>651.2</ele>
        <time>2022-08-17T09:27:10Z</time>
      </trkpt>
      <trkpt lat="47.86289" lon="6.76741">
        <ele>651.2</ele>
        <time>2022-08-17T09:27:11Z</time>
      </trkpt>
      <trkpt lat="47.86289" lon="6.76742">
        <ele>651.1</ele>
        <time>2022-08-17T09:27:12Z</time>
      </trkpt>
      <trkpt lat="47.86289" lon="6.76744">
        <ele>651</ele>
        <time>2022-08-17T09:27:13Z</time>
      </trkpt>
      <trkpt lat="47.86288" lon="6.76745">
        <ele>651</ele>
        <time>2022-08-17T09:27:14Z</time>
      </trkpt>
      <trkpt lat="47.86288" lon="6.76746">
        <ele>650.9</ele>
        <time>2022-08-17T09:27:15Z</time>
      </trkpt>
      <trkpt lat="47.86288" lon="6.76747">
        <ele>650.8</ele>
        <time>2022-08-17T09:27:16Z</time>
      </trkpt>
      <trkpt lat="47.86287" lon="6.76748">
        <ele>650.8</ele>
        <time>2022-08-17T09:27:17Z</time>
      </trkpt>
      <trkpt lat="47.86287" lon="6.7675">
        <ele>650.7</ele>
        <time>2022-08-17T09:27:18Z</time>
      </trkpt>
      <trkpt lat="47.86287" lon="6.76751">
        <ele>650.6</ele>
        <time>2022-08-17T09:27:19Z</time>
      </trkpt>
      <trkpt lat="47.86287" lon="6.76752">
        <ele>650.5</ele>
        <time>2022-08-17T09:27:20Z</time>
      </trkpt>
      <trkpt lat="47.86286" lon="6.76753">
        <ele>650.5</ele>
        <time>2022-08-17T09:27:21Z</time>
      </trkpt>
      <trkpt lat="47.86286" lon="6.76754">
        <ele>650.4</ele>
        <time>2022-08-17T09:27:22Z</time>
      </trkpt>
      <trkpt lat="47.86286" lon="6.76756">
        <ele>650.3</ele>
        <time>2022-08-17T09:27:23Z</time>
      </trkpt>
      <trkpt lat="47.86286" lon="6.76757">
        <ele>650.2</ele>
        <time>2022-08-17T09:27:25Z</time>
      </trkpt>
      <trkpt lat="47.86286" lon="6.76758">
        <ele>650.2</ele>
        <time>2022-08-17T09:27:27Z</time>
      </trkpt>
      <trkpt lat="47.86286" lon="6.76759">
        <ele>650.1</ele>
        <time>2022-08-17T09:27:28Z</time>
      </trkpt>
      <trkpt lat="47.86286" lon="6.7676">
        <ele>650</ele>
        <time>2022-08-17T09:27:29Z</time>
      </trkpt>
      <trkpt lat="47.86286" lon="6.76761">
        <ele>650</ele>
        <time>2022-08-17T09:27:30Z</time>
      </trkpt>
      <trkpt lat="47.86286" lon="6.76762">
        <ele>649.9</ele>
        <time>2022-08-17T09:27:31Z</time>
      </trkpt>
      <trkpt lat="47.86285" lon="6.76764">
        <ele>649.8</ele>
        <time>2022-08-17T09:27:32Z</time>
      </trkpt>
      <trkpt lat="47.86285" lon="6.76765">
        <ele>649.8</ele>
        <time>2022-08-17T09:27:33Z</time>
      </trkpt>
      <trkpt lat="47.86285" lon="6.76766">
        <ele>649.7</ele>
        <time>2022-08-17T09:27:34Z</time>
      </trkpt>
      <trkpt lat="47.86286" lon="6.76767">
        <ele>649.5</ele>
        <time>2022-08-17T09:27:35Z</time>
      </trkpt>
      <trkpt lat="47.86286" lon="6.76769">
        <ele>649.4</ele>
        <time>2022-08-17T09:27:36Z</time>
      </trkpt>
      <trkpt lat="47.86286" lon="6.7677">
        <ele>649.3</ele>
        <time>2022-08-17T09:27:37Z</time>
      </trkpt>
      <trkpt lat="47.86286" lon="6.76771">
        <ele>649.3</ele>
        <time>2022-08-17T09:27:38Z</time>
      </trkpt>
      <trkpt lat="47.86287" lon="6.76772">
        <ele>649.1</ele>
        <time>2022-08-17T09:27:39Z</time>
      </trkpt>
      <trkpt lat="47.86287" lon="6.76773">
        <ele>649</ele>
        <time>2022-08-17T09:27:40Z</time>
      </trkpt>
      <trkpt lat="47.86287" lon="6.76774">
        <ele>648.9</ele>
        <time>2022-08-17T09:27:41Z</time>
      </trkpt>
      <trkpt lat="47.86287" lon="6.76776">
        <ele>648.8</ele>
        <time>2022-08-17T09:27:42Z</time>
      </trkpt>
      <trkpt lat="47.86288" lon="6.76777">
        <ele>648.6</ele>
        <time>2022-08-17T09:27:43Z</time>
      </trkpt>
      <trkpt lat="47.86288" lon="6.76778">
        <ele>648.5</ele>
        <time>2022-08-17T09:27:44Z</time>
      </trkpt>
      <trkpt lat="47.86288" lon="6.76779">
        <ele>648.4</ele>
        <time>2022-08-17T09:27:45Z</time>
      </trkpt>
      <trkpt lat="47.86288" lon="6.7678">
        <ele>648.3</ele>
        <time>2022-08-17T09:27:46Z</time>
      </trkpt>
      <trkpt lat="47.86289" lon="6.76781">
        <ele>648.1</ele>
        <time>2022-08-17T09:27:47Z</time>
      </trkpt>
      <trkpt lat="47.86289" lon="6.76783">
        <ele>647.9</ele>
        <time>2022-08-17T09:27:48Z</time>
      </trkpt>
      <trkpt lat="47.86289" lon="6.76784">
        <ele>647.8</ele>
        <time>2022-08-17T09:27:49Z</time>
      </trkpt>
      <trkpt lat="47.86289" lon="6.76785">
        <ele>647.7</ele>
        <time>2022-08-17T09:27:50Z</time>
      </trkpt>
      <trkpt lat="47.8629" lon="6.76786">
        <ele>647.4</ele>
        <time>2022-08-17T09:27:51Z</time>
      </trkpt>
      <trkpt lat="47.8629" lon="6.76788">
        <ele>647.2</ele>
        <time>2022-08-17T09:27:52Z</time>
      </trkpt>
      <trkpt lat="47.8629" lon="6.76789">
        <ele>647.1</ele>
        <time>2022-08-17T09:27:53Z</time>
      </trkpt>
      <trkpt lat="47.86291" lon="6.7679">
        <ele>646.8</ele>
        <time>2022-08-17T09:27:54Z</time>
      </trkpt>
      <trkpt lat="47.86291" lon="6.76791">
        <ele>646.7</ele>
        <time>2022-08-17T09:27:55Z</time>
      </trkpt>
      <trkpt lat="47.86291" lon="6.76793">
        <ele>646.5</ele>
        <time>2022-08-17T09:27:56Z</time>
      </trkpt>
      <trkpt lat="47.86291" lon="6.76794">
        <ele>646.4</ele>
        <time>2022-08-17T09:27:57Z</time>
      </trkpt>
      <trkpt lat="47.86291" lon="6.76796">
        <ele>646.2</ele>
        <time>2022-08-17T09:27:58Z</time>
      </trkpt>
      <trkpt lat="47.86291" lon="6.76798">
        <ele>645.9</ele>
        <time>2022-08-17T09:27:59Z</time>
      </trkpt>
      <trkpt lat="47.86291" lon="6.76799">
        <ele>645.8</ele>
        <time>2022-08-17T09:28:00Z</time>
      </trkpt>
      <trkpt lat="47.8629" lon="6.76801">
        <ele>645.8</ele>
        <time>2022-08-17T09:28:01Z</time>
      </trkpt>
      <trkpt lat="47.8629" lon="6.76802">
        <ele>645.7</ele>
        <time>2022-08-17T09:28:03Z</time>
      </trkpt>
      <trkpt lat="47.86289" lon="6.76803">
        <ele>645.8</ele>
        <time>2022-08-17T09:28:04Z</time>
      </trkpt>
      <trkpt lat="47.86289" lon="6.76804">
        <ele>645.7</ele>
        <time>2022-08-17T09:28:05Z</time>
      </trkpt>
      <trkpt lat="47.86288" lon="6.76805">
        <ele>645.8</ele>
        <time>2022-08-17T09:28:06Z</time>
      </trkpt>
      <trkpt lat="47.86287" lon="6.76806">
        <ele>646</ele>
        <time>2022-08-17T09:28:07Z</time>
      </trkpt>
      <trkpt lat="47.86287" lon="6.76807">
        <ele>645.9</ele>
        <time>2022-08-17T09:28:08Z</time>
      </trkpt>
      <trkpt lat="47.86286" lon="6.76808">
        <ele>646.1</ele>
        <time>2022-08-17T09:28:09Z</time>
      </trkpt>
      <trkpt lat="47.86283" lon="6.76806">
        <ele>646.9</ele>
        <time>2022-08-17T09:30:31Z</time>
      </trkpt>
      <trkpt lat="47.86282" lon="6.76805">
        <ele>647.1</ele>
        <time>2022-08-17T09:30:32Z</time>
      </trkpt>
      <trkpt lat="47.86281" lon="6.76804">
        <ele>647.4</ele>
        <time>2022-08-17T09:30:33Z</time>
      </trkpt>
      <trkpt lat="47.86281" lon="6.76805">
        <ele>647.3</ele>
        <time>2022-08-17T09:30:34Z</time>
      </trkpt>
      <trkpt lat="47.86281" lon="6.76806">
        <ele>647.3</ele>
        <time>2022-08-17T09:30:36Z</time>
      </trkpt>
      <trkpt lat="47.86281" lon="6.76807">
        <ele>647.2</ele>
        <time>2022-08-17T09:30:37Z</time>
      </trkpt>
      <trkpt lat="47.86281" lon="6.76808">
        <ele>647.2</ele>
        <time>2022-08-17T09:30:38Z</time>
      </trkpt>
      <trkpt lat="47.86281" lon="6.7681">
        <ele>647.1</ele>
        <time>2022-08-17T09:30:39Z</time>
      </trkpt>
      <trkpt lat="47.86282" lon="6.76811">
        <ele>646.9</ele>
        <time>2022-08-17T09:30:40Z</time>
      </trkpt>
      <trkpt lat="47.86282" lon="6.76812">
        <ele>646.8</ele>
        <time>2022-08-17T09:30:41Z</time>
      </trkpt>
      <trkpt lat="47.86282" lon="6.76813">
        <ele>646.8</ele>
        <time>2022-08-17T09:30:42Z</time>
      </trkpt>
      <trkpt lat="47.86282" lon="6.76815">
        <ele>646.7</ele>
        <time>2022-08-17T09:30:43Z</time>
      </trkpt>
      <trkpt lat="47.86281" lon="6.76816">
        <ele>646.9</ele>
        <time>2022-08-17T09:30:44Z</time>
      </trkpt>
      <trkpt lat="47.86281" lon="6.76818">
        <ele>646.8</ele>
        <time>2022-08-17T09:30:45Z</time>
      </trkpt>
      <trkpt lat="47.86281" lon="6.76819">
        <ele>646.8</ele>
        <time>2022-08-17T09:30:46Z</time>
      </trkpt>
      <trkpt lat="47.8628" lon="6.7682">
        <ele>647</ele>
        <time>2022-08-17T09:30:47Z</time>
      </trkpt>
      <trkpt lat="47.8628" lon="6.76822">
        <ele>646.9</ele>
        <time>2022-08-17T09:30:48Z</time>
      </trkpt>
      <trkpt lat="47.86279" lon="6.76823">
        <ele>647.1</ele>
        <time>2022-08-17T09:30:49Z</time>
      </trkpt>
      <trkpt lat="47.86279" lon="6.76824">
        <ele>647</ele>
        <time>2022-08-17T09:30:50Z</time>
      </trkpt>
      <trkpt lat="47.86278" lon="6.76825">
        <ele>647.2</ele>
        <time>2022-08-17T09:30:51Z</time>
      </trkpt>
      <trkpt lat="47.86277" lon="6.76827">
        <ele>647.3</ele>
        <time>2022-08-17T09:30:52Z</time>
      </trkpt>
      <trkpt lat="47.86277" lon="6.76828">
        <ele>647.3</ele>
        <time>2022-08-17T09:30:53Z</time>
      </trkpt>
      <trkpt lat="47.86276" lon="6.76829">
        <ele>647.4</ele>
        <time>2022-08-17T09:30:54Z</time>
      </trkpt>
      <trkpt lat="47.86275" lon="6.76831">
        <ele>647.5</ele>
        <time>2022-08-17T09:30:55Z</time>
      </trkpt>
      <trkpt lat="47.86274" lon="6.76832">
        <ele>647.6</ele>
        <time>2022-08-17T09:30:56Z</time>
      </trkpt>
      <trkpt lat="47.86273" lon="6.76833">
        <ele>647.7</ele>
        <time>2022-08-17T09:30:57Z</time>
      </trkpt>
      <trkpt lat="47.86273" lon="6.76834">
        <ele>647.6</ele>
        <time>2022-08-17T09:30:58Z</time>
      </trkpt>
      <trkpt lat="47.86272" lon="6.76835">
        <ele>647.6</ele>
        <time>2022-08-17T09:30:59Z</time>
      </trkpt>
      <trkpt lat="47.86271" lon="6.76836">
        <ele>647.5</ele>
        <time>2022-08-17T09:31:00Z</time>
      </trkpt>
      <trkpt lat="47.8627" lon="6.76836">
        <ele>647.7</ele>
        <time>2022-08-17T09:31:01Z</time>
      </trkpt>
      <trkpt lat="47.86269" lon="6.76837">
        <ele>647.7</ele>
        <time>2022-08-17T09:31:02Z</time>
      </trkpt>
      <trkpt lat="47.86268" lon="6.76838">
        <ele>647.7</ele>
        <time>2022-08-17T09:31:03Z</time>
      </trkpt>
      <trkpt lat="47.86267" lon="6.76839">
        <ele>647.7</ele>
        <time>2022-08-17T09:31:04Z</time>
      </trkpt>
    </trkseg>
  </trk>
</gpx>